<?xml version="1.0" encoding="UTF-8" standalone="no" ?>
<gpx xmlns="http://www.topografix.com/GPX/1/1" xmlns:xsi="http://www.w3.org/2001/XMLSchema-instance" xsi:schemaLocation="http://www.topografix.com/GPX/1/1 http://www.topografix.com/GPX/1/1/gpx.xsd" version="1.1" creator="VisuGPX - https://www.visugpx.com">
  <metadata>
    <name>E 902</name>
  </metadata>
  <trk>
    <name><![CDATA[Sortie vélo]]></name>
    <trkseg>
      <trkpt lat="49.28645" lon="-0.11881">
        <ele>3.8</ele>
        <time>2024-09-22T06:34:22Z</time>
      </trkpt>
      <trkpt lat="49.28643" lon="-0.11876">
        <ele>4.4</ele>
        <time>2024-09-22T06:34:23Z</time>
      </trkpt>
      <trkpt lat="49.28641" lon="-0.11872">
        <ele>4.4</ele>
        <time>2024-09-22T06:34:24Z</time>
      </trkpt>
      <trkpt lat="49.28638" lon="-0.11867">
        <ele>4.2</ele>
        <time>2024-09-22T06:34:25Z</time>
      </trkpt>
      <trkpt lat="49.28637" lon="-0.11863">
        <ele>4</ele>
        <time>2024-09-22T06:34:26Z</time>
      </trkpt>
      <trkpt lat="49.28635" lon="-0.11856">
        <ele>4</ele>
        <time>2024-09-22T06:34:27Z</time>
      </trkpt>
      <trkpt lat="49.28634" lon="-0.1185">
        <ele>4</ele>
        <time>2024-09-22T06:34:28Z</time>
      </trkpt>
      <trkpt lat="49.28634" lon="-0.11844">
        <ele>4</ele>
        <time>2024-09-22T06:34:29Z</time>
      </trkpt>
      <trkpt lat="49.28634" lon="-0.11838">
        <ele>4.2</ele>
        <time>2024-09-22T06:34:30Z</time>
      </trkpt>
      <trkpt lat="49.28636" lon="-0.11831">
        <ele>4.2</ele>
        <time>2024-09-22T06:34:31Z</time>
      </trkpt>
      <trkpt lat="49.28637" lon="-0.11824">
        <ele>4.2</ele>
        <time>2024-09-22T06:34:32Z</time>
      </trkpt>
      <trkpt lat="49.28638" lon="-0.11817">
        <ele>4.2</ele>
        <time>2024-09-22T06:34:33Z</time>
      </trkpt>
      <trkpt lat="49.2864" lon="-0.11811">
        <ele>4.2</ele>
        <time>2024-09-22T06:34:34Z</time>
      </trkpt>
      <trkpt lat="49.28642" lon="-0.11806">
        <ele>4.2</ele>
        <time>2024-09-22T06:34:35Z</time>
      </trkpt>
      <trkpt lat="49.28643" lon="-0.118">
        <ele>4</ele>
        <time>2024-09-22T06:34:36Z</time>
      </trkpt>
      <trkpt lat="49.28645" lon="-0.11792">
        <ele>4.2</ele>
        <time>2024-09-22T06:34:37Z</time>
      </trkpt>
      <trkpt lat="49.28646" lon="-0.11785">
        <ele>4.2</ele>
        <time>2024-09-22T06:34:38Z</time>
      </trkpt>
      <trkpt lat="49.28647" lon="-0.11779">
        <ele>4.4</ele>
        <time>2024-09-22T06:34:39Z</time>
      </trkpt>
      <trkpt lat="49.28648" lon="-0.11772">
        <ele>4.6</ele>
        <time>2024-09-22T06:34:40Z</time>
      </trkpt>
      <trkpt lat="49.28649" lon="-0.11766">
        <ele>4.4</ele>
        <time>2024-09-22T06:34:41Z</time>
      </trkpt>
      <trkpt lat="49.28651" lon="-0.11759">
        <ele>4.4</ele>
        <time>2024-09-22T06:34:42Z</time>
      </trkpt>
      <trkpt lat="49.28652" lon="-0.11753">
        <ele>4.2</ele>
        <time>2024-09-22T06:34:43Z</time>
      </trkpt>
      <trkpt lat="49.28654" lon="-0.11747">
        <ele>4.2</ele>
        <time>2024-09-22T06:34:44Z</time>
      </trkpt>
      <trkpt lat="49.28655" lon="-0.11742">
        <ele>4.2</ele>
        <time>2024-09-22T06:34:45Z</time>
      </trkpt>
      <trkpt lat="49.28657" lon="-0.11737">
        <ele>4.2</ele>
        <time>2024-09-22T06:34:46Z</time>
      </trkpt>
      <trkpt lat="49.28658" lon="-0.11729">
        <ele>4.4</ele>
        <time>2024-09-22T06:34:47Z</time>
      </trkpt>
      <trkpt lat="49.2866" lon="-0.11723">
        <ele>4.4</ele>
        <time>2024-09-22T06:34:48Z</time>
      </trkpt>
      <trkpt lat="49.28661" lon="-0.11718">
        <ele>4.4</ele>
        <time>2024-09-22T06:34:49Z</time>
      </trkpt>
      <trkpt lat="49.28662" lon="-0.1171">
        <ele>4.4</ele>
        <time>2024-09-22T06:34:50Z</time>
      </trkpt>
      <trkpt lat="49.28663" lon="-0.11706">
        <ele>4.6</ele>
        <time>2024-09-22T06:34:51Z</time>
      </trkpt>
      <trkpt lat="49.28664" lon="-0.11699">
        <ele>4.6</ele>
        <time>2024-09-22T06:34:52Z</time>
      </trkpt>
      <trkpt lat="49.28664" lon="-0.11692">
        <ele>4.6</ele>
        <time>2024-09-22T06:34:53Z</time>
      </trkpt>
      <trkpt lat="49.28662" lon="-0.11687">
        <ele>4.6</ele>
        <time>2024-09-22T06:34:54Z</time>
      </trkpt>
      <trkpt lat="49.2866" lon="-0.11684">
        <ele>4.6</ele>
        <time>2024-09-22T06:34:55Z</time>
      </trkpt>
      <trkpt lat="49.28656" lon="-0.11681">
        <ele>4.6</ele>
        <time>2024-09-22T06:34:56Z</time>
      </trkpt>
      <trkpt lat="49.28653" lon="-0.11681">
        <ele>4.6</ele>
        <time>2024-09-22T06:34:57Z</time>
      </trkpt>
      <trkpt lat="49.28649" lon="-0.11681">
        <ele>4.6</ele>
        <time>2024-09-22T06:34:58Z</time>
      </trkpt>
      <trkpt lat="49.28644" lon="-0.11682">
        <ele>4.6</ele>
        <time>2024-09-22T06:34:59Z</time>
      </trkpt>
      <trkpt lat="49.28641" lon="-0.11683">
        <ele>4.8</ele>
        <time>2024-09-22T06:35:00Z</time>
      </trkpt>
      <trkpt lat="49.28637" lon="-0.11684">
        <ele>4.8</ele>
        <time>2024-09-22T06:35:01Z</time>
      </trkpt>
      <trkpt lat="49.28632" lon="-0.11686">
        <ele>4.8</ele>
        <time>2024-09-22T06:35:02Z</time>
      </trkpt>
      <trkpt lat="49.28628" lon="-0.11688">
        <ele>4.8</ele>
        <time>2024-09-22T06:35:03Z</time>
      </trkpt>
      <trkpt lat="49.28624" lon="-0.11689">
        <ele>4.8</ele>
        <time>2024-09-22T06:35:04Z</time>
      </trkpt>
      <trkpt lat="49.28618" lon="-0.11692">
        <ele>4.8</ele>
        <time>2024-09-22T06:35:05Z</time>
      </trkpt>
      <trkpt lat="49.28614" lon="-0.11694">
        <ele>5</ele>
        <time>2024-09-22T06:35:06Z</time>
      </trkpt>
      <trkpt lat="49.28609" lon="-0.11696">
        <ele>5</ele>
        <time>2024-09-22T06:35:07Z</time>
      </trkpt>
      <trkpt lat="49.28606" lon="-0.11697">
        <ele>5</ele>
        <time>2024-09-22T06:35:08Z</time>
      </trkpt>
      <trkpt lat="49.28601" lon="-0.11699">
        <ele>5</ele>
        <time>2024-09-22T06:35:09Z</time>
      </trkpt>
      <trkpt lat="49.28596" lon="-0.11701">
        <ele>5</ele>
        <time>2024-09-22T06:35:10Z</time>
      </trkpt>
      <trkpt lat="49.28592" lon="-0.11702">
        <ele>5</ele>
        <time>2024-09-22T06:35:11Z</time>
      </trkpt>
      <trkpt lat="49.28587" lon="-0.11703">
        <ele>5</ele>
        <time>2024-09-22T06:35:12Z</time>
      </trkpt>
      <trkpt lat="49.28582" lon="-0.11704">
        <ele>4.8</ele>
        <time>2024-09-22T06:35:13Z</time>
      </trkpt>
      <trkpt lat="49.28577" lon="-0.11705">
        <ele>4.8</ele>
        <time>2024-09-22T06:35:14Z</time>
      </trkpt>
      <trkpt lat="49.28571" lon="-0.11706">
        <ele>4.8</ele>
        <time>2024-09-22T06:35:15Z</time>
      </trkpt>
      <trkpt lat="49.28567" lon="-0.11707">
        <ele>4.8</ele>
        <time>2024-09-22T06:35:16Z</time>
      </trkpt>
      <trkpt lat="49.28561" lon="-0.11707">
        <ele>4.8</ele>
        <time>2024-09-22T06:35:17Z</time>
      </trkpt>
      <trkpt lat="49.28556" lon="-0.11707">
        <ele>4.8</ele>
        <time>2024-09-22T06:35:18Z</time>
      </trkpt>
      <trkpt lat="49.28551" lon="-0.11708">
        <ele>4.8</ele>
        <time>2024-09-22T06:35:19Z</time>
      </trkpt>
      <trkpt lat="49.28545" lon="-0.11708">
        <ele>5</ele>
        <time>2024-09-22T06:35:20Z</time>
      </trkpt>
      <trkpt lat="49.28538" lon="-0.11708">
        <ele>5</ele>
        <time>2024-09-22T06:35:21Z</time>
      </trkpt>
      <trkpt lat="49.28533" lon="-0.11707">
        <ele>5</ele>
        <time>2024-09-22T06:35:22Z</time>
      </trkpt>
      <trkpt lat="49.28526" lon="-0.11707">
        <ele>5</ele>
        <time>2024-09-22T06:35:23Z</time>
      </trkpt>
      <trkpt lat="49.28521" lon="-0.11706">
        <ele>5</ele>
        <time>2024-09-22T06:35:24Z</time>
      </trkpt>
      <trkpt lat="49.28515" lon="-0.11704">
        <ele>5</ele>
        <time>2024-09-22T06:35:25Z</time>
      </trkpt>
      <trkpt lat="49.28509" lon="-0.11703">
        <ele>5</ele>
        <time>2024-09-22T06:35:26Z</time>
      </trkpt>
      <trkpt lat="49.28504" lon="-0.11702">
        <ele>5</ele>
        <time>2024-09-22T06:35:27Z</time>
      </trkpt>
      <trkpt lat="49.28499" lon="-0.11702">
        <ele>5</ele>
        <time>2024-09-22T06:35:28Z</time>
      </trkpt>
      <trkpt lat="49.28494" lon="-0.11701">
        <ele>4.8</ele>
        <time>2024-09-22T06:35:29Z</time>
      </trkpt>
      <trkpt lat="49.28488" lon="-0.117">
        <ele>4.8</ele>
        <time>2024-09-22T06:35:30Z</time>
      </trkpt>
      <trkpt lat="49.28483" lon="-0.11699">
        <ele>4.8</ele>
        <time>2024-09-22T06:35:31Z</time>
      </trkpt>
      <trkpt lat="49.28478" lon="-0.11698">
        <ele>4.8</ele>
        <time>2024-09-22T06:35:32Z</time>
      </trkpt>
      <trkpt lat="49.28472" lon="-0.11696">
        <ele>4.8</ele>
        <time>2024-09-22T06:35:33Z</time>
      </trkpt>
      <trkpt lat="49.28467" lon="-0.11694">
        <ele>4.8</ele>
        <time>2024-09-22T06:35:34Z</time>
      </trkpt>
      <trkpt lat="49.28461" lon="-0.11693">
        <ele>4.8</ele>
        <time>2024-09-22T06:35:35Z</time>
      </trkpt>
      <trkpt lat="49.28457" lon="-0.11691">
        <ele>4.8</ele>
        <time>2024-09-22T06:35:36Z</time>
      </trkpt>
      <trkpt lat="49.28452" lon="-0.1169">
        <ele>4.8</ele>
        <time>2024-09-22T06:35:37Z</time>
      </trkpt>
      <trkpt lat="49.28445" lon="-0.11688">
        <ele>4.8</ele>
        <time>2024-09-22T06:35:38Z</time>
      </trkpt>
      <trkpt lat="49.28441" lon="-0.11687">
        <ele>4.8</ele>
        <time>2024-09-22T06:35:39Z</time>
      </trkpt>
      <trkpt lat="49.28435" lon="-0.11686">
        <ele>5</ele>
        <time>2024-09-22T06:35:40Z</time>
      </trkpt>
      <trkpt lat="49.28428" lon="-0.11685">
        <ele>5</ele>
        <time>2024-09-22T06:35:41Z</time>
      </trkpt>
      <trkpt lat="49.28422" lon="-0.11683">
        <ele>5</ele>
        <time>2024-09-22T06:35:42Z</time>
      </trkpt>
      <trkpt lat="49.28417" lon="-0.11682">
        <ele>5</ele>
        <time>2024-09-22T06:35:43Z</time>
      </trkpt>
      <trkpt lat="49.28411" lon="-0.11681">
        <ele>5</ele>
        <time>2024-09-22T06:35:44Z</time>
      </trkpt>
      <trkpt lat="49.28406" lon="-0.11679">
        <ele>4.8</ele>
        <time>2024-09-22T06:35:45Z</time>
      </trkpt>
      <trkpt lat="49.28399" lon="-0.11678">
        <ele>4.8</ele>
        <time>2024-09-22T06:35:46Z</time>
      </trkpt>
      <trkpt lat="49.28393" lon="-0.11676">
        <ele>4.8</ele>
        <time>2024-09-22T06:35:47Z</time>
      </trkpt>
      <trkpt lat="49.28387" lon="-0.11675">
        <ele>4.8</ele>
        <time>2024-09-22T06:35:48Z</time>
      </trkpt>
      <trkpt lat="49.28381" lon="-0.11673">
        <ele>4.8</ele>
        <time>2024-09-22T06:35:49Z</time>
      </trkpt>
      <trkpt lat="49.28376" lon="-0.11672">
        <ele>4.8</ele>
        <time>2024-09-22T06:35:50Z</time>
      </trkpt>
      <trkpt lat="49.28369" lon="-0.1167">
        <ele>4.8</ele>
        <time>2024-09-22T06:35:51Z</time>
      </trkpt>
      <trkpt lat="49.28362" lon="-0.11669">
        <ele>4.8</ele>
        <time>2024-09-22T06:35:52Z</time>
      </trkpt>
      <trkpt lat="49.28356" lon="-0.11667">
        <ele>4.8</ele>
        <time>2024-09-22T06:35:53Z</time>
      </trkpt>
      <trkpt lat="49.2835" lon="-0.11666">
        <ele>4.8</ele>
        <time>2024-09-22T06:35:54Z</time>
      </trkpt>
      <trkpt lat="49.28344" lon="-0.11664">
        <ele>4.8</ele>
        <time>2024-09-22T06:35:55Z</time>
      </trkpt>
      <trkpt lat="49.28339" lon="-0.11663">
        <ele>4.8</ele>
        <time>2024-09-22T06:35:56Z</time>
      </trkpt>
      <trkpt lat="49.28333" lon="-0.11662">
        <ele>4.8</ele>
        <time>2024-09-22T06:35:57Z</time>
      </trkpt>
      <trkpt lat="49.28326" lon="-0.1166">
        <ele>4.8</ele>
        <time>2024-09-22T06:35:58Z</time>
      </trkpt>
      <trkpt lat="49.2832" lon="-0.11658">
        <ele>4.8</ele>
        <time>2024-09-22T06:35:59Z</time>
      </trkpt>
      <trkpt lat="49.28314" lon="-0.11657">
        <ele>4.8</ele>
        <time>2024-09-22T06:36:00Z</time>
      </trkpt>
      <trkpt lat="49.28308" lon="-0.11658">
        <ele>4.8</ele>
        <time>2024-09-22T06:36:01Z</time>
      </trkpt>
      <trkpt lat="49.28304" lon="-0.11659">
        <ele>4.8</ele>
        <time>2024-09-22T06:36:02Z</time>
      </trkpt>
      <trkpt lat="49.28297" lon="-0.11663">
        <ele>4.8</ele>
        <time>2024-09-22T06:36:03Z</time>
      </trkpt>
      <trkpt lat="49.28292" lon="-0.11665">
        <ele>4.6</ele>
        <time>2024-09-22T06:36:04Z</time>
      </trkpt>
      <trkpt lat="49.28286" lon="-0.11668">
        <ele>4.6</ele>
        <time>2024-09-22T06:36:05Z</time>
      </trkpt>
      <trkpt lat="49.2828" lon="-0.11669">
        <ele>4.6</ele>
        <time>2024-09-22T06:36:06Z</time>
      </trkpt>
      <trkpt lat="49.28274" lon="-0.11669">
        <ele>4.6</ele>
        <time>2024-09-22T06:36:07Z</time>
      </trkpt>
      <trkpt lat="49.28268" lon="-0.11667">
        <ele>4.6</ele>
        <time>2024-09-22T06:36:08Z</time>
      </trkpt>
      <trkpt lat="49.28263" lon="-0.11664">
        <ele>4.6</ele>
        <time>2024-09-22T06:36:09Z</time>
      </trkpt>
      <trkpt lat="49.28257" lon="-0.1166">
        <ele>4.6</ele>
        <time>2024-09-22T06:36:10Z</time>
      </trkpt>
      <trkpt lat="49.28252" lon="-0.11656">
        <ele>4.6</ele>
        <time>2024-09-22T06:36:11Z</time>
      </trkpt>
      <trkpt lat="49.28247" lon="-0.11654">
        <ele>4.6</ele>
        <time>2024-09-22T06:36:12Z</time>
      </trkpt>
      <trkpt lat="49.28242" lon="-0.1165">
        <ele>4.4</ele>
        <time>2024-09-22T06:36:13Z</time>
      </trkpt>
      <trkpt lat="49.28235" lon="-0.11647">
        <ele>4.4</ele>
        <time>2024-09-22T06:36:14Z</time>
      </trkpt>
      <trkpt lat="49.28229" lon="-0.11646">
        <ele>4.4</ele>
        <time>2024-09-22T06:36:15Z</time>
      </trkpt>
      <trkpt lat="49.28224" lon="-0.11645">
        <ele>4.4</ele>
        <time>2024-09-22T06:36:16Z</time>
      </trkpt>
      <trkpt lat="49.28218" lon="-0.11645">
        <ele>4.4</ele>
        <time>2024-09-22T06:36:17Z</time>
      </trkpt>
      <trkpt lat="49.2821" lon="-0.11644">
        <ele>4.4</ele>
        <time>2024-09-22T06:36:18Z</time>
      </trkpt>
      <trkpt lat="49.28204" lon="-0.11644">
        <ele>4.4</ele>
        <time>2024-09-22T06:36:19Z</time>
      </trkpt>
      <trkpt lat="49.28199" lon="-0.11645">
        <ele>4.6</ele>
        <time>2024-09-22T06:36:20Z</time>
      </trkpt>
      <trkpt lat="49.28193" lon="-0.11644">
        <ele>4.6</ele>
        <time>2024-09-22T06:36:21Z</time>
      </trkpt>
      <trkpt lat="49.28187" lon="-0.11644">
        <ele>4.4</ele>
        <time>2024-09-22T06:36:22Z</time>
      </trkpt>
      <trkpt lat="49.28181" lon="-0.11644">
        <ele>4.4</ele>
        <time>2024-09-22T06:36:23Z</time>
      </trkpt>
      <trkpt lat="49.28175" lon="-0.11644">
        <ele>4.2</ele>
        <time>2024-09-22T06:36:24Z</time>
      </trkpt>
      <trkpt lat="49.28168" lon="-0.11644">
        <ele>4.4</ele>
        <time>2024-09-22T06:36:25Z</time>
      </trkpt>
      <trkpt lat="49.28162" lon="-0.11644">
        <ele>4.4</ele>
        <time>2024-09-22T06:36:26Z</time>
      </trkpt>
      <trkpt lat="49.28155" lon="-0.11643">
        <ele>4.4</ele>
        <time>2024-09-22T06:36:27Z</time>
      </trkpt>
      <trkpt lat="49.28149" lon="-0.11643">
        <ele>4.4</ele>
        <time>2024-09-22T06:36:28Z</time>
      </trkpt>
      <trkpt lat="49.28143" lon="-0.11643">
        <ele>4.4</ele>
        <time>2024-09-22T06:36:29Z</time>
      </trkpt>
      <trkpt lat="49.28135" lon="-0.11643">
        <ele>4.2</ele>
        <time>2024-09-22T06:36:30Z</time>
      </trkpt>
      <trkpt lat="49.28128" lon="-0.11643">
        <ele>4.2</ele>
        <time>2024-09-22T06:36:31Z</time>
      </trkpt>
      <trkpt lat="49.28122" lon="-0.11643">
        <ele>4.2</ele>
        <time>2024-09-22T06:36:32Z</time>
      </trkpt>
      <trkpt lat="49.28115" lon="-0.11643">
        <ele>4.2</ele>
        <time>2024-09-22T06:36:33Z</time>
      </trkpt>
      <trkpt lat="49.28109" lon="-0.11643">
        <ele>4.2</ele>
        <time>2024-09-22T06:36:34Z</time>
      </trkpt>
      <trkpt lat="49.28102" lon="-0.11643">
        <ele>4.2</ele>
        <time>2024-09-22T06:36:35Z</time>
      </trkpt>
      <trkpt lat="49.28096" lon="-0.11643">
        <ele>4.2</ele>
        <time>2024-09-22T06:36:36Z</time>
      </trkpt>
      <trkpt lat="49.28089" lon="-0.11642">
        <ele>4.2</ele>
        <time>2024-09-22T06:36:37Z</time>
      </trkpt>
      <trkpt lat="49.28082" lon="-0.11642">
        <ele>4.2</ele>
        <time>2024-09-22T06:36:38Z</time>
      </trkpt>
      <trkpt lat="49.28077" lon="-0.11642">
        <ele>4.2</ele>
        <time>2024-09-22T06:36:39Z</time>
      </trkpt>
      <trkpt lat="49.2807" lon="-0.11642">
        <ele>4.2</ele>
        <time>2024-09-22T06:36:40Z</time>
      </trkpt>
      <trkpt lat="49.28062" lon="-0.11642">
        <ele>4.2</ele>
        <time>2024-09-22T06:36:41Z</time>
      </trkpt>
      <trkpt lat="49.28056" lon="-0.11642">
        <ele>4.2</ele>
        <time>2024-09-22T06:36:42Z</time>
      </trkpt>
      <trkpt lat="49.28049" lon="-0.11642">
        <ele>4.2</ele>
        <time>2024-09-22T06:36:43Z</time>
      </trkpt>
      <trkpt lat="49.28043" lon="-0.11642">
        <ele>4.2</ele>
        <time>2024-09-22T06:36:44Z</time>
      </trkpt>
      <trkpt lat="49.28038" lon="-0.11642">
        <ele>4.2</ele>
        <time>2024-09-22T06:36:45Z</time>
      </trkpt>
      <trkpt lat="49.2803" lon="-0.11643">
        <ele>4.2</ele>
        <time>2024-09-22T06:36:46Z</time>
      </trkpt>
      <trkpt lat="49.28023" lon="-0.11643">
        <ele>4.2</ele>
        <time>2024-09-22T06:36:47Z</time>
      </trkpt>
      <trkpt lat="49.28017" lon="-0.11644">
        <ele>4.2</ele>
        <time>2024-09-22T06:36:48Z</time>
      </trkpt>
      <trkpt lat="49.2801" lon="-0.11645">
        <ele>4.2</ele>
        <time>2024-09-22T06:36:49Z</time>
      </trkpt>
      <trkpt lat="49.28004" lon="-0.11646">
        <ele>4</ele>
        <time>2024-09-22T06:36:50Z</time>
      </trkpt>
      <trkpt lat="49.27998" lon="-0.11646">
        <ele>4</ele>
        <time>2024-09-22T06:36:51Z</time>
      </trkpt>
      <trkpt lat="49.27991" lon="-0.11647">
        <ele>4</ele>
        <time>2024-09-22T06:36:52Z</time>
      </trkpt>
      <trkpt lat="49.27985" lon="-0.11647">
        <ele>4</ele>
        <time>2024-09-22T06:36:53Z</time>
      </trkpt>
      <trkpt lat="49.27978" lon="-0.11647">
        <ele>4</ele>
        <time>2024-09-22T06:36:54Z</time>
      </trkpt>
      <trkpt lat="49.27972" lon="-0.11647">
        <ele>3.8</ele>
        <time>2024-09-22T06:36:55Z</time>
      </trkpt>
      <trkpt lat="49.27967" lon="-0.11647">
        <ele>3.8</ele>
        <time>2024-09-22T06:36:56Z</time>
      </trkpt>
      <trkpt lat="49.2796" lon="-0.11648">
        <ele>3.8</ele>
        <time>2024-09-22T06:36:57Z</time>
      </trkpt>
      <trkpt lat="49.27953" lon="-0.11648">
        <ele>3.8</ele>
        <time>2024-09-22T06:36:58Z</time>
      </trkpt>
      <trkpt lat="49.27947" lon="-0.11648">
        <ele>3.8</ele>
        <time>2024-09-22T06:36:59Z</time>
      </trkpt>
      <trkpt lat="49.2794" lon="-0.11648">
        <ele>3.8</ele>
        <time>2024-09-22T06:37:00Z</time>
      </trkpt>
      <trkpt lat="49.27934" lon="-0.11648">
        <ele>3.8</ele>
        <time>2024-09-22T06:37:01Z</time>
      </trkpt>
      <trkpt lat="49.27927" lon="-0.11649">
        <ele>3.8</ele>
        <time>2024-09-22T06:37:02Z</time>
      </trkpt>
      <trkpt lat="49.2792" lon="-0.11649">
        <ele>3.8</ele>
        <time>2024-09-22T06:37:03Z</time>
      </trkpt>
      <trkpt lat="49.27914" lon="-0.11648">
        <ele>3.8</ele>
        <time>2024-09-22T06:37:04Z</time>
      </trkpt>
      <trkpt lat="49.27908" lon="-0.11648">
        <ele>3.8</ele>
        <time>2024-09-22T06:37:05Z</time>
      </trkpt>
      <trkpt lat="49.27901" lon="-0.11648">
        <ele>3.8</ele>
        <time>2024-09-22T06:37:06Z</time>
      </trkpt>
      <trkpt lat="49.27893" lon="-0.11648">
        <ele>3.8</ele>
        <time>2024-09-22T06:37:07Z</time>
      </trkpt>
      <trkpt lat="49.27886" lon="-0.11648">
        <ele>3.8</ele>
        <time>2024-09-22T06:37:08Z</time>
      </trkpt>
      <trkpt lat="49.27879" lon="-0.11648">
        <ele>3.8</ele>
        <time>2024-09-22T06:37:09Z</time>
      </trkpt>
      <trkpt lat="49.27873" lon="-0.11648">
        <ele>3.8</ele>
        <time>2024-09-22T06:37:10Z</time>
      </trkpt>
      <trkpt lat="49.27865" lon="-0.11649">
        <ele>3.8</ele>
        <time>2024-09-22T06:37:11Z</time>
      </trkpt>
      <trkpt lat="49.2786" lon="-0.1165">
        <ele>3.6</ele>
        <time>2024-09-22T06:37:12Z</time>
      </trkpt>
      <trkpt lat="49.27854" lon="-0.11652">
        <ele>3.6</ele>
        <time>2024-09-22T06:37:13Z</time>
      </trkpt>
      <trkpt lat="49.27847" lon="-0.11654">
        <ele>3.6</ele>
        <time>2024-09-22T06:37:14Z</time>
      </trkpt>
      <trkpt lat="49.27839" lon="-0.11657">
        <ele>3.6</ele>
        <time>2024-09-22T06:37:15Z</time>
      </trkpt>
      <trkpt lat="49.27834" lon="-0.1166">
        <ele>3.4</ele>
        <time>2024-09-22T06:37:16Z</time>
      </trkpt>
      <trkpt lat="49.27827" lon="-0.11664">
        <ele>3.4</ele>
        <time>2024-09-22T06:37:17Z</time>
      </trkpt>
      <trkpt lat="49.27821" lon="-0.11667">
        <ele>3.4</ele>
        <time>2024-09-22T06:37:18Z</time>
      </trkpt>
      <trkpt lat="49.27816" lon="-0.11669">
        <ele>3.4</ele>
        <time>2024-09-22T06:37:19Z</time>
      </trkpt>
      <trkpt lat="49.27811" lon="-0.11673">
        <ele>3.4</ele>
        <time>2024-09-22T06:37:20Z</time>
      </trkpt>
      <trkpt lat="49.27805" lon="-0.11676">
        <ele>3.4</ele>
        <time>2024-09-22T06:37:21Z</time>
      </trkpt>
      <trkpt lat="49.278" lon="-0.1168">
        <ele>3.4</ele>
        <time>2024-09-22T06:37:22Z</time>
      </trkpt>
      <trkpt lat="49.27794" lon="-0.11683">
        <ele>3.4</ele>
        <time>2024-09-22T06:37:23Z</time>
      </trkpt>
      <trkpt lat="49.27789" lon="-0.11686">
        <ele>3.4</ele>
        <time>2024-09-22T06:37:24Z</time>
      </trkpt>
      <trkpt lat="49.27784" lon="-0.11689">
        <ele>3.4</ele>
        <time>2024-09-22T06:37:25Z</time>
      </trkpt>
      <trkpt lat="49.27778" lon="-0.11692">
        <ele>3.4</ele>
        <time>2024-09-22T06:37:26Z</time>
      </trkpt>
      <trkpt lat="49.27773" lon="-0.11695">
        <ele>3.4</ele>
        <time>2024-09-22T06:37:27Z</time>
      </trkpt>
      <trkpt lat="49.27767" lon="-0.11698">
        <ele>3.4</ele>
        <time>2024-09-22T06:37:28Z</time>
      </trkpt>
      <trkpt lat="49.27762" lon="-0.11701">
        <ele>3.4</ele>
        <time>2024-09-22T06:37:29Z</time>
      </trkpt>
      <trkpt lat="49.27755" lon="-0.11705">
        <ele>3.4</ele>
        <time>2024-09-22T06:37:30Z</time>
      </trkpt>
      <trkpt lat="49.2775" lon="-0.11708">
        <ele>3.4</ele>
        <time>2024-09-22T06:37:31Z</time>
      </trkpt>
      <trkpt lat="49.27743" lon="-0.11711">
        <ele>3.4</ele>
        <time>2024-09-22T06:37:32Z</time>
      </trkpt>
      <trkpt lat="49.27737" lon="-0.11713">
        <ele>3.4</ele>
        <time>2024-09-22T06:37:33Z</time>
      </trkpt>
      <trkpt lat="49.2773" lon="-0.11715">
        <ele>3.4</ele>
        <time>2024-09-22T06:37:34Z</time>
      </trkpt>
      <trkpt lat="49.27723" lon="-0.11717">
        <ele>3.4</ele>
        <time>2024-09-22T06:37:35Z</time>
      </trkpt>
      <trkpt lat="49.27717" lon="-0.11719">
        <ele>3.4</ele>
        <time>2024-09-22T06:37:36Z</time>
      </trkpt>
      <trkpt lat="49.27711" lon="-0.11719">
        <ele>3.2</ele>
        <time>2024-09-22T06:37:37Z</time>
      </trkpt>
      <trkpt lat="49.27703" lon="-0.11718">
        <ele>3.2</ele>
        <time>2024-09-22T06:37:38Z</time>
      </trkpt>
      <trkpt lat="49.27696" lon="-0.11718">
        <ele>3.2</ele>
        <time>2024-09-22T06:37:39Z</time>
      </trkpt>
      <trkpt lat="49.2769" lon="-0.11717">
        <ele>3.2</ele>
        <time>2024-09-22T06:37:40Z</time>
      </trkpt>
      <trkpt lat="49.27683" lon="-0.11715">
        <ele>3.2</ele>
        <time>2024-09-22T06:37:41Z</time>
      </trkpt>
      <trkpt lat="49.27676" lon="-0.11713">
        <ele>3.2</ele>
        <time>2024-09-22T06:37:42Z</time>
      </trkpt>
      <trkpt lat="49.2767" lon="-0.1171">
        <ele>3</ele>
        <time>2024-09-22T06:37:43Z</time>
      </trkpt>
      <trkpt lat="49.27665" lon="-0.11707">
        <ele>3</ele>
        <time>2024-09-22T06:37:44Z</time>
      </trkpt>
      <trkpt lat="49.27658" lon="-0.11704">
        <ele>3</ele>
        <time>2024-09-22T06:37:45Z</time>
      </trkpt>
      <trkpt lat="49.27653" lon="-0.11701">
        <ele>3</ele>
        <time>2024-09-22T06:37:46Z</time>
      </trkpt>
      <trkpt lat="49.27647" lon="-0.11697">
        <ele>3</ele>
        <time>2024-09-22T06:37:47Z</time>
      </trkpt>
      <trkpt lat="49.27641" lon="-0.11694">
        <ele>3</ele>
        <time>2024-09-22T06:37:48Z</time>
      </trkpt>
      <trkpt lat="49.27635" lon="-0.11691">
        <ele>3</ele>
        <time>2024-09-22T06:37:49Z</time>
      </trkpt>
      <trkpt lat="49.27629" lon="-0.11688">
        <ele>3</ele>
        <time>2024-09-22T06:37:50Z</time>
      </trkpt>
      <trkpt lat="49.27623" lon="-0.11684">
        <ele>3</ele>
        <time>2024-09-22T06:37:51Z</time>
      </trkpt>
      <trkpt lat="49.27617" lon="-0.11681">
        <ele>3</ele>
        <time>2024-09-22T06:37:52Z</time>
      </trkpt>
      <trkpt lat="49.27611" lon="-0.11678">
        <ele>3</ele>
        <time>2024-09-22T06:37:53Z</time>
      </trkpt>
      <trkpt lat="49.27605" lon="-0.11676">
        <ele>3</ele>
        <time>2024-09-22T06:37:54Z</time>
      </trkpt>
      <trkpt lat="49.27598" lon="-0.11672">
        <ele>3</ele>
        <time>2024-09-22T06:37:55Z</time>
      </trkpt>
      <trkpt lat="49.27593" lon="-0.1167">
        <ele>3</ele>
        <time>2024-09-22T06:37:56Z</time>
      </trkpt>
      <trkpt lat="49.27586" lon="-0.11667">
        <ele>3</ele>
        <time>2024-09-22T06:37:57Z</time>
      </trkpt>
      <trkpt lat="49.27581" lon="-0.11666">
        <ele>3</ele>
        <time>2024-09-22T06:37:58Z</time>
      </trkpt>
      <trkpt lat="49.27575" lon="-0.11665">
        <ele>3</ele>
        <time>2024-09-22T06:37:59Z</time>
      </trkpt>
      <trkpt lat="49.27569" lon="-0.11664">
        <ele>3</ele>
        <time>2024-09-22T06:38:00Z</time>
      </trkpt>
      <trkpt lat="49.27563" lon="-0.11664">
        <ele>3</ele>
        <time>2024-09-22T06:38:01Z</time>
      </trkpt>
      <trkpt lat="49.27558" lon="-0.11664">
        <ele>3</ele>
        <time>2024-09-22T06:38:02Z</time>
      </trkpt>
      <trkpt lat="49.27551" lon="-0.11665">
        <ele>3</ele>
        <time>2024-09-22T06:38:03Z</time>
      </trkpt>
      <trkpt lat="49.27547" lon="-0.11665">
        <ele>3.2</ele>
        <time>2024-09-22T06:38:04Z</time>
      </trkpt>
      <trkpt lat="49.27541" lon="-0.11666">
        <ele>3.2</ele>
        <time>2024-09-22T06:38:05Z</time>
      </trkpt>
      <trkpt lat="49.27535" lon="-0.11666">
        <ele>3.2</ele>
        <time>2024-09-22T06:38:06Z</time>
      </trkpt>
      <trkpt lat="49.2753" lon="-0.11666">
        <ele>3.2</ele>
        <time>2024-09-22T06:38:07Z</time>
      </trkpt>
      <trkpt lat="49.27523" lon="-0.11666">
        <ele>3.2</ele>
        <time>2024-09-22T06:38:08Z</time>
      </trkpt>
      <trkpt lat="49.27518" lon="-0.11667">
        <ele>3.2</ele>
        <time>2024-09-22T06:38:09Z</time>
      </trkpt>
      <trkpt lat="49.27511" lon="-0.11667">
        <ele>3.2</ele>
        <time>2024-09-22T06:38:10Z</time>
      </trkpt>
      <trkpt lat="49.27506" lon="-0.11667">
        <ele>3.2</ele>
        <time>2024-09-22T06:38:11Z</time>
      </trkpt>
      <trkpt lat="49.275" lon="-0.11668">
        <ele>3.2</ele>
        <time>2024-09-22T06:38:12Z</time>
      </trkpt>
      <trkpt lat="49.27494" lon="-0.11668">
        <ele>3.2</ele>
        <time>2024-09-22T06:38:13Z</time>
      </trkpt>
      <trkpt lat="49.27488" lon="-0.11669">
        <ele>3.2</ele>
        <time>2024-09-22T06:38:14Z</time>
      </trkpt>
      <trkpt lat="49.27483" lon="-0.11669">
        <ele>3.4</ele>
        <time>2024-09-22T06:38:15Z</time>
      </trkpt>
      <trkpt lat="49.27476" lon="-0.11669">
        <ele>3.4</ele>
        <time>2024-09-22T06:38:16Z</time>
      </trkpt>
      <trkpt lat="49.27471" lon="-0.11669">
        <ele>3.4</ele>
        <time>2024-09-22T06:38:17Z</time>
      </trkpt>
      <trkpt lat="49.27465" lon="-0.1167">
        <ele>3.6</ele>
        <time>2024-09-22T06:38:18Z</time>
      </trkpt>
      <trkpt lat="49.2746" lon="-0.1167">
        <ele>3.6</ele>
        <time>2024-09-22T06:38:19Z</time>
      </trkpt>
      <trkpt lat="49.27456" lon="-0.1167">
        <ele>3.6</ele>
        <time>2024-09-22T06:38:20Z</time>
      </trkpt>
      <trkpt lat="49.27451" lon="-0.1167">
        <ele>3.4</ele>
        <time>2024-09-22T06:38:21Z</time>
      </trkpt>
      <trkpt lat="49.27447" lon="-0.1167">
        <ele>3.4</ele>
        <time>2024-09-22T06:38:22Z</time>
      </trkpt>
      <trkpt lat="49.27443" lon="-0.1167">
        <ele>3.4</ele>
        <time>2024-09-22T06:38:23Z</time>
      </trkpt>
      <trkpt lat="49.27439" lon="-0.1167">
        <ele>3.4</ele>
        <time>2024-09-22T06:38:24Z</time>
      </trkpt>
      <trkpt lat="49.27435" lon="-0.1167">
        <ele>3.4</ele>
        <time>2024-09-22T06:38:25Z</time>
      </trkpt>
      <trkpt lat="49.27432" lon="-0.1167">
        <ele>3.4</ele>
        <time>2024-09-22T06:38:26Z</time>
      </trkpt>
      <trkpt lat="49.27429" lon="-0.11669">
        <ele>3.4</ele>
        <time>2024-09-22T06:38:27Z</time>
      </trkpt>
      <trkpt lat="49.27427" lon="-0.11669">
        <ele>3.4</ele>
        <time>2024-09-22T06:38:28Z</time>
      </trkpt>
      <trkpt lat="49.27424" lon="-0.11668">
        <ele>3.4</ele>
        <time>2024-09-22T06:38:29Z</time>
      </trkpt>
      <trkpt lat="49.27422" lon="-0.11667">
        <ele>3.6</ele>
        <time>2024-09-22T06:38:30Z</time>
      </trkpt>
      <trkpt lat="49.27419" lon="-0.11663">
        <ele>3.6</ele>
        <time>2024-09-22T06:38:31Z</time>
      </trkpt>
      <trkpt lat="49.27418" lon="-0.11658">
        <ele>3.6</ele>
        <time>2024-09-22T06:38:32Z</time>
      </trkpt>
      <trkpt lat="49.27416" lon="-0.11651">
        <ele>3.6</ele>
        <time>2024-09-22T06:38:33Z</time>
      </trkpt>
      <trkpt lat="49.27416" lon="-0.11644">
        <ele>3.6</ele>
        <time>2024-09-22T06:38:34Z</time>
      </trkpt>
      <trkpt lat="49.27415" lon="-0.11636">
        <ele>3.6</ele>
        <time>2024-09-22T06:38:35Z</time>
      </trkpt>
      <trkpt lat="49.27416" lon="-0.11627">
        <ele>3.6</ele>
        <time>2024-09-22T06:38:36Z</time>
      </trkpt>
      <trkpt lat="49.27416" lon="-0.11617">
        <ele>3.6</ele>
        <time>2024-09-22T06:38:37Z</time>
      </trkpt>
      <trkpt lat="49.27416" lon="-0.11608">
        <ele>3.6</ele>
        <time>2024-09-22T06:38:38Z</time>
      </trkpt>
      <trkpt lat="49.27416" lon="-0.11598">
        <ele>3.6</ele>
        <time>2024-09-22T06:38:39Z</time>
      </trkpt>
      <trkpt lat="49.27417" lon="-0.11589">
        <ele>3.6</ele>
        <time>2024-09-22T06:38:40Z</time>
      </trkpt>
      <trkpt lat="49.27417" lon="-0.11577">
        <ele>3.6</ele>
        <time>2024-09-22T06:38:41Z</time>
      </trkpt>
      <trkpt lat="49.27417" lon="-0.1157">
        <ele>3.6</ele>
        <time>2024-09-22T06:38:42Z</time>
      </trkpt>
      <trkpt lat="49.27417" lon="-0.11558">
        <ele>3.6</ele>
        <time>2024-09-22T06:38:43Z</time>
      </trkpt>
      <trkpt lat="49.27418" lon="-0.11548">
        <ele>3.6</ele>
        <time>2024-09-22T06:38:44Z</time>
      </trkpt>
      <trkpt lat="49.27418" lon="-0.1154">
        <ele>3.6</ele>
        <time>2024-09-22T06:38:45Z</time>
      </trkpt>
      <trkpt lat="49.27418" lon="-0.11529">
        <ele>3.6</ele>
        <time>2024-09-22T06:38:46Z</time>
      </trkpt>
      <trkpt lat="49.27419" lon="-0.11519">
        <ele>3.6</ele>
        <time>2024-09-22T06:38:47Z</time>
      </trkpt>
      <trkpt lat="49.27419" lon="-0.11508">
        <ele>3.6</ele>
        <time>2024-09-22T06:38:48Z</time>
      </trkpt>
      <trkpt lat="49.27419" lon="-0.11496">
        <ele>3.6</ele>
        <time>2024-09-22T06:38:49Z</time>
      </trkpt>
      <trkpt lat="49.27419" lon="-0.11488">
        <ele>3.6</ele>
        <time>2024-09-22T06:38:50Z</time>
      </trkpt>
      <trkpt lat="49.27419" lon="-0.11479">
        <ele>3.6</ele>
        <time>2024-09-22T06:38:51Z</time>
      </trkpt>
      <trkpt lat="49.2742" lon="-0.11469">
        <ele>3.4</ele>
        <time>2024-09-22T06:38:52Z</time>
      </trkpt>
      <trkpt lat="49.2742" lon="-0.11459">
        <ele>3.4</ele>
        <time>2024-09-22T06:38:53Z</time>
      </trkpt>
      <trkpt lat="49.2742" lon="-0.1145">
        <ele>3.2</ele>
        <time>2024-09-22T06:38:54Z</time>
      </trkpt>
      <trkpt lat="49.27421" lon="-0.11438">
        <ele>3.2</ele>
        <time>2024-09-22T06:38:55Z</time>
      </trkpt>
      <trkpt lat="49.27421" lon="-0.11431">
        <ele>3.2</ele>
        <time>2024-09-22T06:38:56Z</time>
      </trkpt>
      <trkpt lat="49.27421" lon="-0.11421">
        <ele>3.2</ele>
        <time>2024-09-22T06:38:57Z</time>
      </trkpt>
      <trkpt lat="49.27421" lon="-0.1141">
        <ele>3.2</ele>
        <time>2024-09-22T06:38:58Z</time>
      </trkpt>
      <trkpt lat="49.27421" lon="-0.11402">
        <ele>3.2</ele>
        <time>2024-09-22T06:38:59Z</time>
      </trkpt>
      <trkpt lat="49.27421" lon="-0.11393">
        <ele>3.4</ele>
        <time>2024-09-22T06:39:00Z</time>
      </trkpt>
      <trkpt lat="49.27421" lon="-0.11381">
        <ele>3.4</ele>
        <time>2024-09-22T06:39:01Z</time>
      </trkpt>
      <trkpt lat="49.27421" lon="-0.11371">
        <ele>3.6</ele>
        <time>2024-09-22T06:39:02Z</time>
      </trkpt>
      <trkpt lat="49.27421" lon="-0.11363">
        <ele>3.6</ele>
        <time>2024-09-22T06:39:03Z</time>
      </trkpt>
      <trkpt lat="49.27422" lon="-0.11354">
        <ele>3.6</ele>
        <time>2024-09-22T06:39:04Z</time>
      </trkpt>
      <trkpt lat="49.27422" lon="-0.11344">
        <ele>3.6</ele>
        <time>2024-09-22T06:39:05Z</time>
      </trkpt>
      <trkpt lat="49.27422" lon="-0.11335">
        <ele>3.6</ele>
        <time>2024-09-22T06:39:06Z</time>
      </trkpt>
      <trkpt lat="49.27422" lon="-0.11325">
        <ele>3.6</ele>
        <time>2024-09-22T06:39:07Z</time>
      </trkpt>
      <trkpt lat="49.27422" lon="-0.11315">
        <ele>3.8</ele>
        <time>2024-09-22T06:39:08Z</time>
      </trkpt>
      <trkpt lat="49.27423" lon="-0.11305">
        <ele>4</ele>
        <time>2024-09-22T06:39:09Z</time>
      </trkpt>
      <trkpt lat="49.27423" lon="-0.11296">
        <ele>4</ele>
        <time>2024-09-22T06:39:10Z</time>
      </trkpt>
      <trkpt lat="49.27423" lon="-0.11284">
        <ele>4</ele>
        <time>2024-09-22T06:39:11Z</time>
      </trkpt>
      <trkpt lat="49.27423" lon="-0.11276">
        <ele>4</ele>
        <time>2024-09-22T06:39:12Z</time>
      </trkpt>
      <trkpt lat="49.27424" lon="-0.11267">
        <ele>4</ele>
        <time>2024-09-22T06:39:13Z</time>
      </trkpt>
      <trkpt lat="49.27424" lon="-0.11257">
        <ele>4.2</ele>
        <time>2024-09-22T06:39:14Z</time>
      </trkpt>
      <trkpt lat="49.27424" lon="-0.11248">
        <ele>4.2</ele>
        <time>2024-09-22T06:39:15Z</time>
      </trkpt>
      <trkpt lat="49.27424" lon="-0.11239">
        <ele>4.2</ele>
        <time>2024-09-22T06:39:16Z</time>
      </trkpt>
      <trkpt lat="49.27424" lon="-0.1123">
        <ele>4.4</ele>
        <time>2024-09-22T06:39:17Z</time>
      </trkpt>
      <trkpt lat="49.27424" lon="-0.11221">
        <ele>4.4</ele>
        <time>2024-09-22T06:39:18Z</time>
      </trkpt>
      <trkpt lat="49.27425" lon="-0.11212">
        <ele>4.4</ele>
        <time>2024-09-22T06:39:19Z</time>
      </trkpt>
      <trkpt lat="49.27425" lon="-0.11201">
        <ele>4.6</ele>
        <time>2024-09-22T06:39:20Z</time>
      </trkpt>
      <trkpt lat="49.27425" lon="-0.11193">
        <ele>4.6</ele>
        <time>2024-09-22T06:39:21Z</time>
      </trkpt>
      <trkpt lat="49.27425" lon="-0.11183">
        <ele>4.6</ele>
        <time>2024-09-22T06:39:22Z</time>
      </trkpt>
      <trkpt lat="49.27425" lon="-0.11174">
        <ele>4.6</ele>
        <time>2024-09-22T06:39:23Z</time>
      </trkpt>
      <trkpt lat="49.27425" lon="-0.11164">
        <ele>4.6</ele>
        <time>2024-09-22T06:39:24Z</time>
      </trkpt>
      <trkpt lat="49.27425" lon="-0.11155">
        <ele>4.8</ele>
        <time>2024-09-22T06:39:25Z</time>
      </trkpt>
      <trkpt lat="49.27425" lon="-0.11145">
        <ele>4.8</ele>
        <time>2024-09-22T06:39:26Z</time>
      </trkpt>
      <trkpt lat="49.27425" lon="-0.11136">
        <ele>4.8</ele>
        <time>2024-09-22T06:39:27Z</time>
      </trkpt>
      <trkpt lat="49.27426" lon="-0.11126">
        <ele>4.8</ele>
        <time>2024-09-22T06:39:28Z</time>
      </trkpt>
      <trkpt lat="49.27426" lon="-0.11117">
        <ele>5</ele>
        <time>2024-09-22T06:39:29Z</time>
      </trkpt>
      <trkpt lat="49.27426" lon="-0.11107">
        <ele>5</ele>
        <time>2024-09-22T06:39:30Z</time>
      </trkpt>
      <trkpt lat="49.27427" lon="-0.11098">
        <ele>5</ele>
        <time>2024-09-22T06:39:31Z</time>
      </trkpt>
      <trkpt lat="49.27427" lon="-0.11088">
        <ele>5.2</ele>
        <time>2024-09-22T06:39:32Z</time>
      </trkpt>
      <trkpt lat="49.27427" lon="-0.11078">
        <ele>5.2</ele>
        <time>2024-09-22T06:39:33Z</time>
      </trkpt>
      <trkpt lat="49.27427" lon="-0.11069">
        <ele>5.2</ele>
        <time>2024-09-22T06:39:34Z</time>
      </trkpt>
      <trkpt lat="49.27427" lon="-0.11059">
        <ele>5.4</ele>
        <time>2024-09-22T06:39:35Z</time>
      </trkpt>
      <trkpt lat="49.27427" lon="-0.1105">
        <ele>5.6</ele>
        <time>2024-09-22T06:39:36Z</time>
      </trkpt>
      <trkpt lat="49.27427" lon="-0.1104">
        <ele>5.8</ele>
        <time>2024-09-22T06:39:37Z</time>
      </trkpt>
      <trkpt lat="49.27428" lon="-0.1103">
        <ele>5.8</ele>
        <time>2024-09-22T06:39:38Z</time>
      </trkpt>
      <trkpt lat="49.27428" lon="-0.11021">
        <ele>5.4</ele>
        <time>2024-09-22T06:39:39Z</time>
      </trkpt>
      <trkpt lat="49.27428" lon="-0.11011">
        <ele>5.4</ele>
        <time>2024-09-22T06:39:40Z</time>
      </trkpt>
      <trkpt lat="49.27429" lon="-0.10999">
        <ele>5.4</ele>
        <time>2024-09-22T06:39:41Z</time>
      </trkpt>
      <trkpt lat="49.27429" lon="-0.10988">
        <ele>5.4</ele>
        <time>2024-09-22T06:39:42Z</time>
      </trkpt>
      <trkpt lat="49.27429" lon="-0.1098">
        <ele>5.4</ele>
        <time>2024-09-22T06:39:43Z</time>
      </trkpt>
      <trkpt lat="49.27429" lon="-0.1097">
        <ele>5.2</ele>
        <time>2024-09-22T06:39:44Z</time>
      </trkpt>
      <trkpt lat="49.27429" lon="-0.1096">
        <ele>5.4</ele>
        <time>2024-09-22T06:39:45Z</time>
      </trkpt>
      <trkpt lat="49.2743" lon="-0.1095">
        <ele>5.2</ele>
        <time>2024-09-22T06:39:46Z</time>
      </trkpt>
      <trkpt lat="49.2743" lon="-0.1094">
        <ele>5</ele>
        <time>2024-09-22T06:39:47Z</time>
      </trkpt>
      <trkpt lat="49.2743" lon="-0.1093">
        <ele>5</ele>
        <time>2024-09-22T06:39:48Z</time>
      </trkpt>
      <trkpt lat="49.27429" lon="-0.10919">
        <ele>5.2</ele>
        <time>2024-09-22T06:39:49Z</time>
      </trkpt>
      <trkpt lat="49.27429" lon="-0.10909">
        <ele>5.2</ele>
        <time>2024-09-22T06:39:50Z</time>
      </trkpt>
      <trkpt lat="49.27429" lon="-0.10896">
        <ele>5.2</ele>
        <time>2024-09-22T06:39:51Z</time>
      </trkpt>
      <trkpt lat="49.27429" lon="-0.10888">
        <ele>5.2</ele>
        <time>2024-09-22T06:39:52Z</time>
      </trkpt>
      <trkpt lat="49.27428" lon="-0.10877">
        <ele>5.2</ele>
        <time>2024-09-22T06:39:53Z</time>
      </trkpt>
      <trkpt lat="49.27427" lon="-0.10867">
        <ele>5.2</ele>
        <time>2024-09-22T06:39:54Z</time>
      </trkpt>
      <trkpt lat="49.27426" lon="-0.10856">
        <ele>5.2</ele>
        <time>2024-09-22T06:39:55Z</time>
      </trkpt>
      <trkpt lat="49.27425" lon="-0.10846">
        <ele>5.2</ele>
        <time>2024-09-22T06:39:56Z</time>
      </trkpt>
      <trkpt lat="49.27424" lon="-0.10836">
        <ele>5.2</ele>
        <time>2024-09-22T06:39:57Z</time>
      </trkpt>
      <trkpt lat="49.27423" lon="-0.10825">
        <ele>5.2</ele>
        <time>2024-09-22T06:39:58Z</time>
      </trkpt>
      <trkpt lat="49.27422" lon="-0.10815">
        <ele>5.2</ele>
        <time>2024-09-22T06:39:59Z</time>
      </trkpt>
      <trkpt lat="49.2742" lon="-0.10803">
        <ele>5</ele>
        <time>2024-09-22T06:40:00Z</time>
      </trkpt>
      <trkpt lat="49.27419" lon="-0.10795">
        <ele>5</ele>
        <time>2024-09-22T06:40:01Z</time>
      </trkpt>
      <trkpt lat="49.27417" lon="-0.10784">
        <ele>5</ele>
        <time>2024-09-22T06:40:02Z</time>
      </trkpt>
      <trkpt lat="49.27415" lon="-0.10774">
        <ele>4.8</ele>
        <time>2024-09-22T06:40:03Z</time>
      </trkpt>
      <trkpt lat="49.27413" lon="-0.10764">
        <ele>4.8</ele>
        <time>2024-09-22T06:40:04Z</time>
      </trkpt>
      <trkpt lat="49.27411" lon="-0.10754">
        <ele>4.8</ele>
        <time>2024-09-22T06:40:05Z</time>
      </trkpt>
      <trkpt lat="49.27409" lon="-0.10744">
        <ele>4.6</ele>
        <time>2024-09-22T06:40:06Z</time>
      </trkpt>
      <trkpt lat="49.27407" lon="-0.10734">
        <ele>4.6</ele>
        <time>2024-09-22T06:40:07Z</time>
      </trkpt>
      <trkpt lat="49.27404" lon="-0.10725">
        <ele>4.6</ele>
        <time>2024-09-22T06:40:08Z</time>
      </trkpt>
      <trkpt lat="49.27401" lon="-0.10713">
        <ele>4.4</ele>
        <time>2024-09-22T06:40:09Z</time>
      </trkpt>
      <trkpt lat="49.27399" lon="-0.10705">
        <ele>4.4</ele>
        <time>2024-09-22T06:40:10Z</time>
      </trkpt>
      <trkpt lat="49.27397" lon="-0.10695">
        <ele>4.4</ele>
        <time>2024-09-22T06:40:11Z</time>
      </trkpt>
      <trkpt lat="49.27393" lon="-0.10683">
        <ele>4.4</ele>
        <time>2024-09-22T06:40:12Z</time>
      </trkpt>
      <trkpt lat="49.27391" lon="-0.10676">
        <ele>4.4</ele>
        <time>2024-09-22T06:40:13Z</time>
      </trkpt>
      <trkpt lat="49.27388" lon="-0.10666">
        <ele>4.2</ele>
        <time>2024-09-22T06:40:14Z</time>
      </trkpt>
      <trkpt lat="49.27384" lon="-0.10655">
        <ele>4.2</ele>
        <time>2024-09-22T06:40:15Z</time>
      </trkpt>
      <trkpt lat="49.27382" lon="-0.10647">
        <ele>4.2</ele>
        <time>2024-09-22T06:40:16Z</time>
      </trkpt>
      <trkpt lat="49.27379" lon="-0.10638">
        <ele>4.2</ele>
        <time>2024-09-22T06:40:17Z</time>
      </trkpt>
      <trkpt lat="49.27375" lon="-0.10629">
        <ele>4.2</ele>
        <time>2024-09-22T06:40:18Z</time>
      </trkpt>
      <trkpt lat="49.27372" lon="-0.1062">
        <ele>4.2</ele>
        <time>2024-09-22T06:40:19Z</time>
      </trkpt>
      <trkpt lat="49.27368" lon="-0.10611">
        <ele>4.2</ele>
        <time>2024-09-22T06:40:20Z</time>
      </trkpt>
      <trkpt lat="49.27364" lon="-0.106">
        <ele>4</ele>
        <time>2024-09-22T06:40:21Z</time>
      </trkpt>
      <trkpt lat="49.2736" lon="-0.10593">
        <ele>3.8</ele>
        <time>2024-09-22T06:40:22Z</time>
      </trkpt>
      <trkpt lat="49.27357" lon="-0.10585">
        <ele>3.8</ele>
        <time>2024-09-22T06:40:23Z</time>
      </trkpt>
      <trkpt lat="49.27353" lon="-0.10576">
        <ele>3.8</ele>
        <time>2024-09-22T06:40:24Z</time>
      </trkpt>
      <trkpt lat="49.27348" lon="-0.10566">
        <ele>3.6</ele>
        <time>2024-09-22T06:40:25Z</time>
      </trkpt>
      <trkpt lat="49.27344" lon="-0.1056">
        <ele>3.6</ele>
        <time>2024-09-22T06:40:26Z</time>
      </trkpt>
      <trkpt lat="49.2734" lon="-0.10552">
        <ele>3.6</ele>
        <time>2024-09-22T06:40:27Z</time>
      </trkpt>
      <trkpt lat="49.27336" lon="-0.10544">
        <ele>3.6</ele>
        <time>2024-09-22T06:40:28Z</time>
      </trkpt>
      <trkpt lat="49.27331" lon="-0.10536">
        <ele>3.6</ele>
        <time>2024-09-22T06:40:29Z</time>
      </trkpt>
      <trkpt lat="49.27327" lon="-0.10528">
        <ele>3.6</ele>
        <time>2024-09-22T06:40:30Z</time>
      </trkpt>
      <trkpt lat="49.27321" lon="-0.10518">
        <ele>3.4</ele>
        <time>2024-09-22T06:40:31Z</time>
      </trkpt>
      <trkpt lat="49.27317" lon="-0.10512">
        <ele>3.4</ele>
        <time>2024-09-22T06:40:32Z</time>
      </trkpt>
      <trkpt lat="49.27311" lon="-0.10504">
        <ele>3.4</ele>
        <time>2024-09-22T06:40:33Z</time>
      </trkpt>
      <trkpt lat="49.27307" lon="-0.10498">
        <ele>3.4</ele>
        <time>2024-09-22T06:40:34Z</time>
      </trkpt>
      <trkpt lat="49.27302" lon="-0.10491">
        <ele>3.4</ele>
        <time>2024-09-22T06:40:35Z</time>
      </trkpt>
      <trkpt lat="49.27297" lon="-0.10485">
        <ele>3.4</ele>
        <time>2024-09-22T06:40:36Z</time>
      </trkpt>
      <trkpt lat="49.27291" lon="-0.10478">
        <ele>3.4</ele>
        <time>2024-09-22T06:40:37Z</time>
      </trkpt>
      <trkpt lat="49.27286" lon="-0.10471">
        <ele>3.4</ele>
        <time>2024-09-22T06:40:38Z</time>
      </trkpt>
      <trkpt lat="49.27279" lon="-0.10463">
        <ele>3.4</ele>
        <time>2024-09-22T06:40:39Z</time>
      </trkpt>
      <trkpt lat="49.27275" lon="-0.10458">
        <ele>3.4</ele>
        <time>2024-09-22T06:40:40Z</time>
      </trkpt>
      <trkpt lat="49.27268" lon="-0.10451">
        <ele>3.4</ele>
        <time>2024-09-22T06:40:41Z</time>
      </trkpt>
      <trkpt lat="49.27263" lon="-0.10446">
        <ele>3.4</ele>
        <time>2024-09-22T06:40:42Z</time>
      </trkpt>
      <trkpt lat="49.27258" lon="-0.1044">
        <ele>3.4</ele>
        <time>2024-09-22T06:40:43Z</time>
      </trkpt>
      <trkpt lat="49.27252" lon="-0.10434">
        <ele>3.4</ele>
        <time>2024-09-22T06:40:44Z</time>
      </trkpt>
      <trkpt lat="49.27246" lon="-0.10429">
        <ele>3.2</ele>
        <time>2024-09-22T06:40:45Z</time>
      </trkpt>
      <trkpt lat="49.2724" lon="-0.10424">
        <ele>3.2</ele>
        <time>2024-09-22T06:40:46Z</time>
      </trkpt>
      <trkpt lat="49.27235" lon="-0.10418">
        <ele>3.2</ele>
        <time>2024-09-22T06:40:47Z</time>
      </trkpt>
      <trkpt lat="49.27229" lon="-0.10413">
        <ele>3.2</ele>
        <time>2024-09-22T06:40:48Z</time>
      </trkpt>
      <trkpt lat="49.27223" lon="-0.10409">
        <ele>3</ele>
        <time>2024-09-22T06:40:49Z</time>
      </trkpt>
      <trkpt lat="49.27217" lon="-0.10404">
        <ele>3</ele>
        <time>2024-09-22T06:40:50Z</time>
      </trkpt>
      <trkpt lat="49.27211" lon="-0.104">
        <ele>3</ele>
        <time>2024-09-22T06:40:51Z</time>
      </trkpt>
      <trkpt lat="49.27205" lon="-0.10396">
        <ele>3</ele>
        <time>2024-09-22T06:40:52Z</time>
      </trkpt>
      <trkpt lat="49.27199" lon="-0.10391">
        <ele>3</ele>
        <time>2024-09-22T06:40:53Z</time>
      </trkpt>
      <trkpt lat="49.27193" lon="-0.10387">
        <ele>2.8</ele>
        <time>2024-09-22T06:40:54Z</time>
      </trkpt>
      <trkpt lat="49.27187" lon="-0.10383">
        <ele>2.8</ele>
        <time>2024-09-22T06:40:55Z</time>
      </trkpt>
      <trkpt lat="49.2718" lon="-0.10379">
        <ele>2.8</ele>
        <time>2024-09-22T06:40:56Z</time>
      </trkpt>
      <trkpt lat="49.27174" lon="-0.10376">
        <ele>2.8</ele>
        <time>2024-09-22T06:40:57Z</time>
      </trkpt>
      <trkpt lat="49.27168" lon="-0.10372">
        <ele>2.8</ele>
        <time>2024-09-22T06:40:58Z</time>
      </trkpt>
      <trkpt lat="49.27161" lon="-0.10369">
        <ele>2.8</ele>
        <time>2024-09-22T06:40:59Z</time>
      </trkpt>
      <trkpt lat="49.27155" lon="-0.10366">
        <ele>2.8</ele>
        <time>2024-09-22T06:41:00Z</time>
      </trkpt>
      <trkpt lat="49.27149" lon="-0.10363">
        <ele>2.8</ele>
        <time>2024-09-22T06:41:01Z</time>
      </trkpt>
      <trkpt lat="49.27143" lon="-0.1036">
        <ele>2.8</ele>
        <time>2024-09-22T06:41:02Z</time>
      </trkpt>
      <trkpt lat="49.27137" lon="-0.10357">
        <ele>2.8</ele>
        <time>2024-09-22T06:41:03Z</time>
      </trkpt>
      <trkpt lat="49.27131" lon="-0.10355">
        <ele>2.8</ele>
        <time>2024-09-22T06:41:04Z</time>
      </trkpt>
      <trkpt lat="49.27124" lon="-0.10352">
        <ele>2.8</ele>
        <time>2024-09-22T06:41:05Z</time>
      </trkpt>
      <trkpt lat="49.27118" lon="-0.1035">
        <ele>2.8</ele>
        <time>2024-09-22T06:41:06Z</time>
      </trkpt>
      <trkpt lat="49.27112" lon="-0.10348">
        <ele>2.8</ele>
        <time>2024-09-22T06:41:07Z</time>
      </trkpt>
      <trkpt lat="49.27106" lon="-0.10347">
        <ele>2.8</ele>
        <time>2024-09-22T06:41:08Z</time>
      </trkpt>
      <trkpt lat="49.27099" lon="-0.10345">
        <ele>2.8</ele>
        <time>2024-09-22T06:41:09Z</time>
      </trkpt>
      <trkpt lat="49.27093" lon="-0.10343">
        <ele>2.8</ele>
        <time>2024-09-22T06:41:10Z</time>
      </trkpt>
      <trkpt lat="49.27087" lon="-0.10342">
        <ele>2.8</ele>
        <time>2024-09-22T06:41:11Z</time>
      </trkpt>
      <trkpt lat="49.27081" lon="-0.1034">
        <ele>2.8</ele>
        <time>2024-09-22T06:41:12Z</time>
      </trkpt>
      <trkpt lat="49.27075" lon="-0.10339">
        <ele>2.8</ele>
        <time>2024-09-22T06:41:13Z</time>
      </trkpt>
      <trkpt lat="49.27069" lon="-0.10339">
        <ele>3</ele>
        <time>2024-09-22T06:41:14Z</time>
      </trkpt>
      <trkpt lat="49.27062" lon="-0.10338">
        <ele>3</ele>
        <time>2024-09-22T06:41:15Z</time>
      </trkpt>
      <trkpt lat="49.27056" lon="-0.10337">
        <ele>3</ele>
        <time>2024-09-22T06:41:16Z</time>
      </trkpt>
      <trkpt lat="49.2705" lon="-0.10337">
        <ele>3</ele>
        <time>2024-09-22T06:41:17Z</time>
      </trkpt>
      <trkpt lat="49.27044" lon="-0.10336">
        <ele>3.2</ele>
        <time>2024-09-22T06:41:18Z</time>
      </trkpt>
      <trkpt lat="49.27037" lon="-0.10336">
        <ele>3.4</ele>
        <time>2024-09-22T06:41:19Z</time>
      </trkpt>
      <trkpt lat="49.27031" lon="-0.10335">
        <ele>3.4</ele>
        <time>2024-09-22T06:41:20Z</time>
      </trkpt>
      <trkpt lat="49.27024" lon="-0.10335">
        <ele>3.6</ele>
        <time>2024-09-22T06:41:21Z</time>
      </trkpt>
      <trkpt lat="49.27018" lon="-0.10334">
        <ele>3.8</ele>
        <time>2024-09-22T06:41:22Z</time>
      </trkpt>
      <trkpt lat="49.27013" lon="-0.10334">
        <ele>4</ele>
        <time>2024-09-22T06:41:23Z</time>
      </trkpt>
      <trkpt lat="49.27005" lon="-0.10335">
        <ele>4.2</ele>
        <time>2024-09-22T06:41:24Z</time>
      </trkpt>
      <trkpt lat="49.26998" lon="-0.10335">
        <ele>4.4</ele>
        <time>2024-09-22T06:41:25Z</time>
      </trkpt>
      <trkpt lat="49.26992" lon="-0.10336">
        <ele>4.6</ele>
        <time>2024-09-22T06:41:26Z</time>
      </trkpt>
      <trkpt lat="49.26986" lon="-0.10337">
        <ele>4.6</ele>
        <time>2024-09-22T06:41:27Z</time>
      </trkpt>
      <trkpt lat="49.26978" lon="-0.10338">
        <ele>4.6</ele>
        <time>2024-09-22T06:41:28Z</time>
      </trkpt>
      <trkpt lat="49.26972" lon="-0.10339">
        <ele>4.6</ele>
        <time>2024-09-22T06:41:29Z</time>
      </trkpt>
      <trkpt lat="49.26965" lon="-0.10341">
        <ele>4.6</ele>
        <time>2024-09-22T06:41:30Z</time>
      </trkpt>
      <trkpt lat="49.26958" lon="-0.10342">
        <ele>4.6</ele>
        <time>2024-09-22T06:41:31Z</time>
      </trkpt>
      <trkpt lat="49.26951" lon="-0.10343">
        <ele>4.6</ele>
        <time>2024-09-22T06:41:32Z</time>
      </trkpt>
      <trkpt lat="49.26945" lon="-0.10345">
        <ele>4.6</ele>
        <time>2024-09-22T06:41:33Z</time>
      </trkpt>
      <trkpt lat="49.26939" lon="-0.10346">
        <ele>4.6</ele>
        <time>2024-09-22T06:41:34Z</time>
      </trkpt>
      <trkpt lat="49.26931" lon="-0.10348">
        <ele>4.8</ele>
        <time>2024-09-22T06:41:35Z</time>
      </trkpt>
      <trkpt lat="49.26924" lon="-0.10349">
        <ele>4.8</ele>
        <time>2024-09-22T06:41:36Z</time>
      </trkpt>
      <trkpt lat="49.26918" lon="-0.10351">
        <ele>4.8</ele>
        <time>2024-09-22T06:41:37Z</time>
      </trkpt>
      <trkpt lat="49.26911" lon="-0.10353">
        <ele>4.8</ele>
        <time>2024-09-22T06:41:38Z</time>
      </trkpt>
      <trkpt lat="49.26904" lon="-0.10355">
        <ele>4.8</ele>
        <time>2024-09-22T06:41:39Z</time>
      </trkpt>
      <trkpt lat="49.26897" lon="-0.10357">
        <ele>4.8</ele>
        <time>2024-09-22T06:41:40Z</time>
      </trkpt>
      <trkpt lat="49.2689" lon="-0.10359">
        <ele>4.8</ele>
        <time>2024-09-22T06:41:41Z</time>
      </trkpt>
      <trkpt lat="49.26884" lon="-0.10361">
        <ele>4.8</ele>
        <time>2024-09-22T06:41:42Z</time>
      </trkpt>
      <trkpt lat="49.26878" lon="-0.10363">
        <ele>4.8</ele>
        <time>2024-09-22T06:41:43Z</time>
      </trkpt>
      <trkpt lat="49.2687" lon="-0.10366">
        <ele>4.8</ele>
        <time>2024-09-22T06:41:44Z</time>
      </trkpt>
      <trkpt lat="49.26864" lon="-0.10368">
        <ele>4.8</ele>
        <time>2024-09-22T06:41:45Z</time>
      </trkpt>
      <trkpt lat="49.26857" lon="-0.1037">
        <ele>4.8</ele>
        <time>2024-09-22T06:41:46Z</time>
      </trkpt>
      <trkpt lat="49.2685" lon="-0.10373">
        <ele>4.8</ele>
        <time>2024-09-22T06:41:47Z</time>
      </trkpt>
      <trkpt lat="49.26843" lon="-0.10375">
        <ele>4.8</ele>
        <time>2024-09-22T06:41:48Z</time>
      </trkpt>
      <trkpt lat="49.26836" lon="-0.10378">
        <ele>4.8</ele>
        <time>2024-09-22T06:41:49Z</time>
      </trkpt>
      <trkpt lat="49.26829" lon="-0.10381">
        <ele>4.8</ele>
        <time>2024-09-22T06:41:50Z</time>
      </trkpt>
      <trkpt lat="49.26824" lon="-0.10382">
        <ele>4.8</ele>
        <time>2024-09-22T06:41:51Z</time>
      </trkpt>
      <trkpt lat="49.26816" lon="-0.10385">
        <ele>4.8</ele>
        <time>2024-09-22T06:41:52Z</time>
      </trkpt>
      <trkpt lat="49.26811" lon="-0.10387">
        <ele>4.8</ele>
        <time>2024-09-22T06:41:53Z</time>
      </trkpt>
      <trkpt lat="49.26802" lon="-0.1039">
        <ele>4.8</ele>
        <time>2024-09-22T06:41:54Z</time>
      </trkpt>
      <trkpt lat="49.26797" lon="-0.10392">
        <ele>5</ele>
        <time>2024-09-22T06:41:55Z</time>
      </trkpt>
      <trkpt lat="49.26789" lon="-0.10395">
        <ele>5</ele>
        <time>2024-09-22T06:41:56Z</time>
      </trkpt>
      <trkpt lat="49.26782" lon="-0.10397">
        <ele>5</ele>
        <time>2024-09-22T06:41:57Z</time>
      </trkpt>
      <trkpt lat="49.26776" lon="-0.10399">
        <ele>5</ele>
        <time>2024-09-22T06:41:58Z</time>
      </trkpt>
      <trkpt lat="49.26767" lon="-0.10402">
        <ele>5</ele>
        <time>2024-09-22T06:41:59Z</time>
      </trkpt>
      <trkpt lat="49.2676" lon="-0.10404">
        <ele>5</ele>
        <time>2024-09-22T06:42:00Z</time>
      </trkpt>
      <trkpt lat="49.26753" lon="-0.10407">
        <ele>5</ele>
        <time>2024-09-22T06:42:01Z</time>
      </trkpt>
      <trkpt lat="49.26746" lon="-0.10409">
        <ele>5</ele>
        <time>2024-09-22T06:42:02Z</time>
      </trkpt>
      <trkpt lat="49.2674" lon="-0.10411">
        <ele>5</ele>
        <time>2024-09-22T06:42:03Z</time>
      </trkpt>
      <trkpt lat="49.26733" lon="-0.10413">
        <ele>5</ele>
        <time>2024-09-22T06:42:04Z</time>
      </trkpt>
      <trkpt lat="49.26725" lon="-0.10416">
        <ele>5</ele>
        <time>2024-09-22T06:42:05Z</time>
      </trkpt>
      <trkpt lat="49.26718" lon="-0.10419">
        <ele>5</ele>
        <time>2024-09-22T06:42:06Z</time>
      </trkpt>
      <trkpt lat="49.26712" lon="-0.10422">
        <ele>5</ele>
        <time>2024-09-22T06:42:07Z</time>
      </trkpt>
      <trkpt lat="49.26705" lon="-0.10424">
        <ele>5</ele>
        <time>2024-09-22T06:42:08Z</time>
      </trkpt>
      <trkpt lat="49.26698" lon="-0.10426">
        <ele>5</ele>
        <time>2024-09-22T06:42:09Z</time>
      </trkpt>
      <trkpt lat="49.26691" lon="-0.10429">
        <ele>5</ele>
        <time>2024-09-22T06:42:10Z</time>
      </trkpt>
      <trkpt lat="49.26683" lon="-0.10431">
        <ele>5</ele>
        <time>2024-09-22T06:42:11Z</time>
      </trkpt>
      <trkpt lat="49.26676" lon="-0.10433">
        <ele>5</ele>
        <time>2024-09-22T06:42:12Z</time>
      </trkpt>
      <trkpt lat="49.26669" lon="-0.10435">
        <ele>5</ele>
        <time>2024-09-22T06:42:13Z</time>
      </trkpt>
      <trkpt lat="49.26662" lon="-0.10437">
        <ele>4.8</ele>
        <time>2024-09-22T06:42:14Z</time>
      </trkpt>
      <trkpt lat="49.26655" lon="-0.1044">
        <ele>4.8</ele>
        <time>2024-09-22T06:42:15Z</time>
      </trkpt>
      <trkpt lat="49.26647" lon="-0.10442">
        <ele>4.8</ele>
        <time>2024-09-22T06:42:16Z</time>
      </trkpt>
      <trkpt lat="49.26639" lon="-0.10444">
        <ele>4.8</ele>
        <time>2024-09-22T06:42:17Z</time>
      </trkpt>
      <trkpt lat="49.26632" lon="-0.10446">
        <ele>4.8</ele>
        <time>2024-09-22T06:42:18Z</time>
      </trkpt>
      <trkpt lat="49.26624" lon="-0.10448">
        <ele>4.6</ele>
        <time>2024-09-22T06:42:19Z</time>
      </trkpt>
      <trkpt lat="49.26617" lon="-0.10449">
        <ele>4.6</ele>
        <time>2024-09-22T06:42:20Z</time>
      </trkpt>
      <trkpt lat="49.2661" lon="-0.10451">
        <ele>4.6</ele>
        <time>2024-09-22T06:42:21Z</time>
      </trkpt>
      <trkpt lat="49.26604" lon="-0.10453">
        <ele>4.6</ele>
        <time>2024-09-22T06:42:22Z</time>
      </trkpt>
      <trkpt lat="49.26597" lon="-0.10454">
        <ele>4.6</ele>
        <time>2024-09-22T06:42:23Z</time>
      </trkpt>
      <trkpt lat="49.2659" lon="-0.10456">
        <ele>4.4</ele>
        <time>2024-09-22T06:42:24Z</time>
      </trkpt>
      <trkpt lat="49.26583" lon="-0.10457">
        <ele>4.2</ele>
        <time>2024-09-22T06:42:25Z</time>
      </trkpt>
      <trkpt lat="49.26576" lon="-0.10458">
        <ele>4</ele>
        <time>2024-09-22T06:42:26Z</time>
      </trkpt>
      <trkpt lat="49.26569" lon="-0.10459">
        <ele>4</ele>
        <time>2024-09-22T06:42:27Z</time>
      </trkpt>
      <trkpt lat="49.26562" lon="-0.1046">
        <ele>3.8</ele>
        <time>2024-09-22T06:42:28Z</time>
      </trkpt>
      <trkpt lat="49.26554" lon="-0.10461">
        <ele>3.6</ele>
        <time>2024-09-22T06:42:29Z</time>
      </trkpt>
      <trkpt lat="49.26547" lon="-0.10462">
        <ele>3.6</ele>
        <time>2024-09-22T06:42:30Z</time>
      </trkpt>
      <trkpt lat="49.2654" lon="-0.10463">
        <ele>3.4</ele>
        <time>2024-09-22T06:42:31Z</time>
      </trkpt>
      <trkpt lat="49.26533" lon="-0.10463">
        <ele>3.4</ele>
        <time>2024-09-22T06:42:32Z</time>
      </trkpt>
      <trkpt lat="49.26526" lon="-0.10464">
        <ele>3.4</ele>
        <time>2024-09-22T06:42:33Z</time>
      </trkpt>
      <trkpt lat="49.26519" lon="-0.10465">
        <ele>3.4</ele>
        <time>2024-09-22T06:42:34Z</time>
      </trkpt>
      <trkpt lat="49.26512" lon="-0.10465">
        <ele>3.2</ele>
        <time>2024-09-22T06:42:35Z</time>
      </trkpt>
      <trkpt lat="49.26506" lon="-0.10466">
        <ele>3.2</ele>
        <time>2024-09-22T06:42:36Z</time>
      </trkpt>
      <trkpt lat="49.26498" lon="-0.10467">
        <ele>3.2</ele>
        <time>2024-09-22T06:42:37Z</time>
      </trkpt>
      <trkpt lat="49.26491" lon="-0.10467">
        <ele>3.2</ele>
        <time>2024-09-22T06:42:38Z</time>
      </trkpt>
      <trkpt lat="49.26485" lon="-0.10467">
        <ele>3.2</ele>
        <time>2024-09-22T06:42:39Z</time>
      </trkpt>
      <trkpt lat="49.26478" lon="-0.10467">
        <ele>3.2</ele>
        <time>2024-09-22T06:42:40Z</time>
      </trkpt>
      <trkpt lat="49.26471" lon="-0.10467">
        <ele>3.2</ele>
        <time>2024-09-22T06:42:41Z</time>
      </trkpt>
      <trkpt lat="49.26465" lon="-0.10467">
        <ele>3.2</ele>
        <time>2024-09-22T06:42:42Z</time>
      </trkpt>
      <trkpt lat="49.26458" lon="-0.10467">
        <ele>3.2</ele>
        <time>2024-09-22T06:42:43Z</time>
      </trkpt>
      <trkpt lat="49.26451" lon="-0.10466">
        <ele>3.2</ele>
        <time>2024-09-22T06:42:44Z</time>
      </trkpt>
      <trkpt lat="49.26445" lon="-0.10466">
        <ele>3.2</ele>
        <time>2024-09-22T06:42:45Z</time>
      </trkpt>
      <trkpt lat="49.26438" lon="-0.10465">
        <ele>3.2</ele>
        <time>2024-09-22T06:42:46Z</time>
      </trkpt>
      <trkpt lat="49.26431" lon="-0.10465">
        <ele>3.2</ele>
        <time>2024-09-22T06:42:47Z</time>
      </trkpt>
      <trkpt lat="49.26424" lon="-0.10464">
        <ele>3.2</ele>
        <time>2024-09-22T06:42:48Z</time>
      </trkpt>
      <trkpt lat="49.26417" lon="-0.10463">
        <ele>3.4</ele>
        <time>2024-09-22T06:42:49Z</time>
      </trkpt>
      <trkpt lat="49.2641" lon="-0.10463">
        <ele>3.4</ele>
        <time>2024-09-22T06:42:50Z</time>
      </trkpt>
      <trkpt lat="49.26404" lon="-0.10462">
        <ele>3.6</ele>
        <time>2024-09-22T06:42:51Z</time>
      </trkpt>
      <trkpt lat="49.26397" lon="-0.10461">
        <ele>3.6</ele>
        <time>2024-09-22T06:42:52Z</time>
      </trkpt>
      <trkpt lat="49.2639" lon="-0.1046">
        <ele>3.6</ele>
        <time>2024-09-22T06:42:53Z</time>
      </trkpt>
      <trkpt lat="49.26383" lon="-0.1046">
        <ele>3.6</ele>
        <time>2024-09-22T06:42:54Z</time>
      </trkpt>
      <trkpt lat="49.26376" lon="-0.10459">
        <ele>3.6</ele>
        <time>2024-09-22T06:42:55Z</time>
      </trkpt>
      <trkpt lat="49.26369" lon="-0.10458">
        <ele>3.6</ele>
        <time>2024-09-22T06:42:56Z</time>
      </trkpt>
      <trkpt lat="49.26362" lon="-0.10458">
        <ele>3.8</ele>
        <time>2024-09-22T06:42:57Z</time>
      </trkpt>
      <trkpt lat="49.26355" lon="-0.10457">
        <ele>3.8</ele>
        <time>2024-09-22T06:42:58Z</time>
      </trkpt>
      <trkpt lat="49.26348" lon="-0.10456">
        <ele>3.8</ele>
        <time>2024-09-22T06:42:59Z</time>
      </trkpt>
      <trkpt lat="49.26342" lon="-0.10455">
        <ele>3.8</ele>
        <time>2024-09-22T06:43:00Z</time>
      </trkpt>
      <trkpt lat="49.26335" lon="-0.10454">
        <ele>3.8</ele>
        <time>2024-09-22T06:43:01Z</time>
      </trkpt>
      <trkpt lat="49.26328" lon="-0.10454">
        <ele>3.8</ele>
        <time>2024-09-22T06:43:02Z</time>
      </trkpt>
      <trkpt lat="49.26321" lon="-0.10453">
        <ele>3.8</ele>
        <time>2024-09-22T06:43:03Z</time>
      </trkpt>
      <trkpt lat="49.26315" lon="-0.10452">
        <ele>3.8</ele>
        <time>2024-09-22T06:43:04Z</time>
      </trkpt>
      <trkpt lat="49.26307" lon="-0.10451">
        <ele>3.8</ele>
        <time>2024-09-22T06:43:05Z</time>
      </trkpt>
      <trkpt lat="49.263" lon="-0.1045">
        <ele>3.8</ele>
        <time>2024-09-22T06:43:06Z</time>
      </trkpt>
      <trkpt lat="49.26293" lon="-0.10449">
        <ele>3.8</ele>
        <time>2024-09-22T06:43:07Z</time>
      </trkpt>
      <trkpt lat="49.26286" lon="-0.10448">
        <ele>3.8</ele>
        <time>2024-09-22T06:43:08Z</time>
      </trkpt>
      <trkpt lat="49.26279" lon="-0.10447">
        <ele>3.8</ele>
        <time>2024-09-22T06:43:09Z</time>
      </trkpt>
      <trkpt lat="49.26272" lon="-0.10447">
        <ele>4</ele>
        <time>2024-09-22T06:43:10Z</time>
      </trkpt>
      <trkpt lat="49.26265" lon="-0.10446">
        <ele>4</ele>
        <time>2024-09-22T06:43:11Z</time>
      </trkpt>
      <trkpt lat="49.26258" lon="-0.10445">
        <ele>4</ele>
        <time>2024-09-22T06:43:12Z</time>
      </trkpt>
      <trkpt lat="49.26251" lon="-0.10445">
        <ele>4</ele>
        <time>2024-09-22T06:43:13Z</time>
      </trkpt>
      <trkpt lat="49.26244" lon="-0.10444">
        <ele>4</ele>
        <time>2024-09-22T06:43:14Z</time>
      </trkpt>
      <trkpt lat="49.26236" lon="-0.10444">
        <ele>4</ele>
        <time>2024-09-22T06:43:15Z</time>
      </trkpt>
      <trkpt lat="49.26229" lon="-0.10443">
        <ele>4.2</ele>
        <time>2024-09-22T06:43:16Z</time>
      </trkpt>
      <trkpt lat="49.26222" lon="-0.10442">
        <ele>4.2</ele>
        <time>2024-09-22T06:43:17Z</time>
      </trkpt>
      <trkpt lat="49.26215" lon="-0.10442">
        <ele>4.4</ele>
        <time>2024-09-22T06:43:18Z</time>
      </trkpt>
      <trkpt lat="49.26208" lon="-0.10441">
        <ele>4.4</ele>
        <time>2024-09-22T06:43:19Z</time>
      </trkpt>
      <trkpt lat="49.26201" lon="-0.1044">
        <ele>4.4</ele>
        <time>2024-09-22T06:43:20Z</time>
      </trkpt>
      <trkpt lat="49.26194" lon="-0.1044">
        <ele>4.4</ele>
        <time>2024-09-22T06:43:21Z</time>
      </trkpt>
      <trkpt lat="49.26186" lon="-0.10439">
        <ele>4.4</ele>
        <time>2024-09-22T06:43:22Z</time>
      </trkpt>
      <trkpt lat="49.26179" lon="-0.10438">
        <ele>4.4</ele>
        <time>2024-09-22T06:43:23Z</time>
      </trkpt>
      <trkpt lat="49.26172" lon="-0.10437">
        <ele>4.4</ele>
        <time>2024-09-22T06:43:24Z</time>
      </trkpt>
      <trkpt lat="49.26165" lon="-0.10437">
        <ele>4.4</ele>
        <time>2024-09-22T06:43:25Z</time>
      </trkpt>
      <trkpt lat="49.26158" lon="-0.10436">
        <ele>4.4</ele>
        <time>2024-09-22T06:43:26Z</time>
      </trkpt>
      <trkpt lat="49.26151" lon="-0.10436">
        <ele>4.4</ele>
        <time>2024-09-22T06:43:27Z</time>
      </trkpt>
      <trkpt lat="49.26144" lon="-0.10435">
        <ele>4.6</ele>
        <time>2024-09-22T06:43:28Z</time>
      </trkpt>
      <trkpt lat="49.26137" lon="-0.10434">
        <ele>4.6</ele>
        <time>2024-09-22T06:43:29Z</time>
      </trkpt>
      <trkpt lat="49.2613" lon="-0.10434">
        <ele>4.6</ele>
        <time>2024-09-22T06:43:30Z</time>
      </trkpt>
      <trkpt lat="49.26123" lon="-0.10433">
        <ele>4.6</ele>
        <time>2024-09-22T06:43:31Z</time>
      </trkpt>
      <trkpt lat="49.26116" lon="-0.10432">
        <ele>4.6</ele>
        <time>2024-09-22T06:43:32Z</time>
      </trkpt>
      <trkpt lat="49.26109" lon="-0.10432">
        <ele>4.6</ele>
        <time>2024-09-22T06:43:33Z</time>
      </trkpt>
      <trkpt lat="49.26101" lon="-0.10431">
        <ele>4.6</ele>
        <time>2024-09-22T06:43:34Z</time>
      </trkpt>
      <trkpt lat="49.26094" lon="-0.1043">
        <ele>4.6</ele>
        <time>2024-09-22T06:43:35Z</time>
      </trkpt>
      <trkpt lat="49.26087" lon="-0.1043">
        <ele>4.6</ele>
        <time>2024-09-22T06:43:36Z</time>
      </trkpt>
      <trkpt lat="49.2608" lon="-0.10429">
        <ele>4.8</ele>
        <time>2024-09-22T06:43:37Z</time>
      </trkpt>
      <trkpt lat="49.26073" lon="-0.10429">
        <ele>5</ele>
        <time>2024-09-22T06:43:38Z</time>
      </trkpt>
      <trkpt lat="49.26066" lon="-0.10429">
        <ele>5</ele>
        <time>2024-09-22T06:43:39Z</time>
      </trkpt>
      <trkpt lat="49.26059" lon="-0.10429">
        <ele>5</ele>
        <time>2024-09-22T06:43:40Z</time>
      </trkpt>
      <trkpt lat="49.26052" lon="-0.10428">
        <ele>5</ele>
        <time>2024-09-22T06:43:41Z</time>
      </trkpt>
      <trkpt lat="49.26044" lon="-0.10428">
        <ele>5</ele>
        <time>2024-09-22T06:43:42Z</time>
      </trkpt>
      <trkpt lat="49.26037" lon="-0.10428">
        <ele>5</ele>
        <time>2024-09-22T06:43:43Z</time>
      </trkpt>
      <trkpt lat="49.2603" lon="-0.10427">
        <ele>5</ele>
        <time>2024-09-22T06:43:44Z</time>
      </trkpt>
      <trkpt lat="49.26023" lon="-0.10427">
        <ele>5</ele>
        <time>2024-09-22T06:43:45Z</time>
      </trkpt>
      <trkpt lat="49.26016" lon="-0.10426">
        <ele>5</ele>
        <time>2024-09-22T06:43:46Z</time>
      </trkpt>
      <trkpt lat="49.26009" lon="-0.10426">
        <ele>5</ele>
        <time>2024-09-22T06:43:47Z</time>
      </trkpt>
      <trkpt lat="49.26002" lon="-0.10426">
        <ele>5</ele>
        <time>2024-09-22T06:43:48Z</time>
      </trkpt>
      <trkpt lat="49.25995" lon="-0.10425">
        <ele>5</ele>
        <time>2024-09-22T06:43:49Z</time>
      </trkpt>
      <trkpt lat="49.25988" lon="-0.10425">
        <ele>5</ele>
        <time>2024-09-22T06:43:50Z</time>
      </trkpt>
      <trkpt lat="49.25981" lon="-0.10424">
        <ele>5</ele>
        <time>2024-09-22T06:43:51Z</time>
      </trkpt>
      <trkpt lat="49.25974" lon="-0.10424">
        <ele>5</ele>
        <time>2024-09-22T06:43:52Z</time>
      </trkpt>
      <trkpt lat="49.25967" lon="-0.10423">
        <ele>4.8</ele>
        <time>2024-09-22T06:43:53Z</time>
      </trkpt>
      <trkpt lat="49.2596" lon="-0.10423">
        <ele>4.8</ele>
        <time>2024-09-22T06:43:54Z</time>
      </trkpt>
      <trkpt lat="49.25953" lon="-0.10422">
        <ele>4.6</ele>
        <time>2024-09-22T06:43:55Z</time>
      </trkpt>
      <trkpt lat="49.25946" lon="-0.10422">
        <ele>4.6</ele>
        <time>2024-09-22T06:43:56Z</time>
      </trkpt>
      <trkpt lat="49.25939" lon="-0.10422">
        <ele>4.4</ele>
        <time>2024-09-22T06:43:57Z</time>
      </trkpt>
      <trkpt lat="49.25932" lon="-0.10421">
        <ele>4.4</ele>
        <time>2024-09-22T06:43:58Z</time>
      </trkpt>
      <trkpt lat="49.25925" lon="-0.1042">
        <ele>4.4</ele>
        <time>2024-09-22T06:43:59Z</time>
      </trkpt>
      <trkpt lat="49.25918" lon="-0.10419">
        <ele>4.4</ele>
        <time>2024-09-22T06:44:00Z</time>
      </trkpt>
      <trkpt lat="49.25911" lon="-0.10417">
        <ele>4.4</ele>
        <time>2024-09-22T06:44:01Z</time>
      </trkpt>
      <trkpt lat="49.25905" lon="-0.10416">
        <ele>4.4</ele>
        <time>2024-09-22T06:44:02Z</time>
      </trkpt>
      <trkpt lat="49.25898" lon="-0.10414">
        <ele>4.2</ele>
        <time>2024-09-22T06:44:03Z</time>
      </trkpt>
      <trkpt lat="49.25891" lon="-0.10413">
        <ele>4.2</ele>
        <time>2024-09-22T06:44:04Z</time>
      </trkpt>
      <trkpt lat="49.25884" lon="-0.10412">
        <ele>4.2</ele>
        <time>2024-09-22T06:44:05Z</time>
      </trkpt>
      <trkpt lat="49.25877" lon="-0.10411">
        <ele>4</ele>
        <time>2024-09-22T06:44:06Z</time>
      </trkpt>
      <trkpt lat="49.2587" lon="-0.1041">
        <ele>4</ele>
        <time>2024-09-22T06:44:07Z</time>
      </trkpt>
      <trkpt lat="49.25863" lon="-0.10409">
        <ele>4</ele>
        <time>2024-09-22T06:44:08Z</time>
      </trkpt>
      <trkpt lat="49.25856" lon="-0.10409">
        <ele>4</ele>
        <time>2024-09-22T06:44:09Z</time>
      </trkpt>
      <trkpt lat="49.25849" lon="-0.10408">
        <ele>4</ele>
        <time>2024-09-22T06:44:10Z</time>
      </trkpt>
      <trkpt lat="49.25842" lon="-0.10407">
        <ele>4</ele>
        <time>2024-09-22T06:44:11Z</time>
      </trkpt>
      <trkpt lat="49.25836" lon="-0.10406">
        <ele>3.8</ele>
        <time>2024-09-22T06:44:12Z</time>
      </trkpt>
      <trkpt lat="49.2583" lon="-0.10406">
        <ele>3.8</ele>
        <time>2024-09-22T06:44:13Z</time>
      </trkpt>
      <trkpt lat="49.25826" lon="-0.10405">
        <ele>3.8</ele>
        <time>2024-09-22T06:44:14Z</time>
      </trkpt>
      <trkpt lat="49.25819" lon="-0.10405">
        <ele>3.8</ele>
        <time>2024-09-22T06:44:15Z</time>
      </trkpt>
      <trkpt lat="49.25814" lon="-0.10405">
        <ele>3.8</ele>
        <time>2024-09-22T06:44:16Z</time>
      </trkpt>
      <trkpt lat="49.25807" lon="-0.10406">
        <ele>3.8</ele>
        <time>2024-09-22T06:44:17Z</time>
      </trkpt>
      <trkpt lat="49.25802" lon="-0.10408">
        <ele>3.8</ele>
        <time>2024-09-22T06:44:18Z</time>
      </trkpt>
      <trkpt lat="49.25796" lon="-0.10411">
        <ele>3.6</ele>
        <time>2024-09-22T06:44:19Z</time>
      </trkpt>
      <trkpt lat="49.25792" lon="-0.10415">
        <ele>3.6</ele>
        <time>2024-09-22T06:44:20Z</time>
      </trkpt>
      <trkpt lat="49.25787" lon="-0.10419">
        <ele>3.6</ele>
        <time>2024-09-22T06:44:21Z</time>
      </trkpt>
      <trkpt lat="49.25782" lon="-0.10423">
        <ele>3.6</ele>
        <time>2024-09-22T06:44:22Z</time>
      </trkpt>
      <trkpt lat="49.25777" lon="-0.10425">
        <ele>3.6</ele>
        <time>2024-09-22T06:44:23Z</time>
      </trkpt>
      <trkpt lat="49.25771" lon="-0.10425">
        <ele>3.6</ele>
        <time>2024-09-22T06:44:24Z</time>
      </trkpt>
      <trkpt lat="49.25766" lon="-0.10423">
        <ele>3.6</ele>
        <time>2024-09-22T06:44:25Z</time>
      </trkpt>
      <trkpt lat="49.25762" lon="-0.10419">
        <ele>3.6</ele>
        <time>2024-09-22T06:44:26Z</time>
      </trkpt>
      <trkpt lat="49.25757" lon="-0.10411">
        <ele>3.6</ele>
        <time>2024-09-22T06:44:27Z</time>
      </trkpt>
      <trkpt lat="49.25755" lon="-0.10403">
        <ele>3.6</ele>
        <time>2024-09-22T06:44:28Z</time>
      </trkpt>
      <trkpt lat="49.25755" lon="-0.10393">
        <ele>3.6</ele>
        <time>2024-09-22T06:44:29Z</time>
      </trkpt>
      <trkpt lat="49.25757" lon="-0.10385">
        <ele>3.6</ele>
        <time>2024-09-22T06:44:30Z</time>
      </trkpt>
      <trkpt lat="49.2576" lon="-0.10376">
        <ele>3.6</ele>
        <time>2024-09-22T06:44:31Z</time>
      </trkpt>
      <trkpt lat="49.25764" lon="-0.10369">
        <ele>3.6</ele>
        <time>2024-09-22T06:44:32Z</time>
      </trkpt>
      <trkpt lat="49.25769" lon="-0.10361">
        <ele>3.6</ele>
        <time>2024-09-22T06:44:33Z</time>
      </trkpt>
      <trkpt lat="49.25774" lon="-0.10354">
        <ele>3.6</ele>
        <time>2024-09-22T06:44:34Z</time>
      </trkpt>
      <trkpt lat="49.25778" lon="-0.10345">
        <ele>3.6</ele>
        <time>2024-09-22T06:44:35Z</time>
      </trkpt>
      <trkpt lat="49.25782" lon="-0.10336">
        <ele>3.6</ele>
        <time>2024-09-22T06:44:36Z</time>
      </trkpt>
      <trkpt lat="49.25784" lon="-0.10326">
        <ele>3.6</ele>
        <time>2024-09-22T06:44:37Z</time>
      </trkpt>
      <trkpt lat="49.25786" lon="-0.10316">
        <ele>3.6</ele>
        <time>2024-09-22T06:44:38Z</time>
      </trkpt>
      <trkpt lat="49.25787" lon="-0.10307">
        <ele>3.6</ele>
        <time>2024-09-22T06:44:39Z</time>
      </trkpt>
      <trkpt lat="49.25789" lon="-0.10297">
        <ele>3.6</ele>
        <time>2024-09-22T06:44:40Z</time>
      </trkpt>
      <trkpt lat="49.2579" lon="-0.10288">
        <ele>3.6</ele>
        <time>2024-09-22T06:44:41Z</time>
      </trkpt>
      <trkpt lat="49.25792" lon="-0.10278">
        <ele>3.4</ele>
        <time>2024-09-22T06:44:42Z</time>
      </trkpt>
      <trkpt lat="49.25793" lon="-0.10269">
        <ele>3.4</ele>
        <time>2024-09-22T06:44:43Z</time>
      </trkpt>
      <trkpt lat="49.25794" lon="-0.10259">
        <ele>3.4</ele>
        <time>2024-09-22T06:44:44Z</time>
      </trkpt>
      <trkpt lat="49.25795" lon="-0.10249">
        <ele>3.4</ele>
        <time>2024-09-22T06:44:45Z</time>
      </trkpt>
      <trkpt lat="49.25795" lon="-0.10238">
        <ele>3.4</ele>
        <time>2024-09-22T06:44:46Z</time>
      </trkpt>
      <trkpt lat="49.25796" lon="-0.10228">
        <ele>3.4</ele>
        <time>2024-09-22T06:44:47Z</time>
      </trkpt>
      <trkpt lat="49.25796" lon="-0.10218">
        <ele>3.4</ele>
        <time>2024-09-22T06:44:48Z</time>
      </trkpt>
      <trkpt lat="49.25797" lon="-0.10207">
        <ele>3.4</ele>
        <time>2024-09-22T06:44:49Z</time>
      </trkpt>
      <trkpt lat="49.25797" lon="-0.10197">
        <ele>3.6</ele>
        <time>2024-09-22T06:44:50Z</time>
      </trkpt>
      <trkpt lat="49.25797" lon="-0.10187">
        <ele>3.6</ele>
        <time>2024-09-22T06:44:51Z</time>
      </trkpt>
      <trkpt lat="49.25798" lon="-0.10176">
        <ele>3.6</ele>
        <time>2024-09-22T06:44:52Z</time>
      </trkpt>
      <trkpt lat="49.25798" lon="-0.10166">
        <ele>3.6</ele>
        <time>2024-09-22T06:44:53Z</time>
      </trkpt>
      <trkpt lat="49.25799" lon="-0.10156">
        <ele>3.6</ele>
        <time>2024-09-22T06:44:54Z</time>
      </trkpt>
      <trkpt lat="49.25799" lon="-0.10145">
        <ele>3.6</ele>
        <time>2024-09-22T06:44:55Z</time>
      </trkpt>
      <trkpt lat="49.258" lon="-0.10135">
        <ele>3.6</ele>
        <time>2024-09-22T06:44:56Z</time>
      </trkpt>
      <trkpt lat="49.25801" lon="-0.10125">
        <ele>3.6</ele>
        <time>2024-09-22T06:44:57Z</time>
      </trkpt>
      <trkpt lat="49.25802" lon="-0.10115">
        <ele>3.6</ele>
        <time>2024-09-22T06:44:58Z</time>
      </trkpt>
      <trkpt lat="49.25803" lon="-0.10104">
        <ele>3.8</ele>
        <time>2024-09-22T06:44:59Z</time>
      </trkpt>
      <trkpt lat="49.25804" lon="-0.10094">
        <ele>3.8</ele>
        <time>2024-09-22T06:45:00Z</time>
      </trkpt>
      <trkpt lat="49.25805" lon="-0.10084">
        <ele>3.8</ele>
        <time>2024-09-22T06:45:01Z</time>
      </trkpt>
      <trkpt lat="49.25806" lon="-0.10074">
        <ele>4</ele>
        <time>2024-09-22T06:45:02Z</time>
      </trkpt>
      <trkpt lat="49.25807" lon="-0.10064">
        <ele>4</ele>
        <time>2024-09-22T06:45:03Z</time>
      </trkpt>
      <trkpt lat="49.25808" lon="-0.10054">
        <ele>4</ele>
        <time>2024-09-22T06:45:04Z</time>
      </trkpt>
      <trkpt lat="49.25809" lon="-0.10043">
        <ele>4</ele>
        <time>2024-09-22T06:45:05Z</time>
      </trkpt>
      <trkpt lat="49.2581" lon="-0.10033">
        <ele>4.2</ele>
        <time>2024-09-22T06:45:06Z</time>
      </trkpt>
      <trkpt lat="49.25811" lon="-0.10022">
        <ele>4.2</ele>
        <time>2024-09-22T06:45:07Z</time>
      </trkpt>
      <trkpt lat="49.25812" lon="-0.10012">
        <ele>4.2</ele>
        <time>2024-09-22T06:45:08Z</time>
      </trkpt>
      <trkpt lat="49.25812" lon="-0.10002">
        <ele>4.2</ele>
        <time>2024-09-22T06:45:09Z</time>
      </trkpt>
      <trkpt lat="49.25814" lon="-0.09991">
        <ele>4.2</ele>
        <time>2024-09-22T06:45:10Z</time>
      </trkpt>
      <trkpt lat="49.25815" lon="-0.09981">
        <ele>4.2</ele>
        <time>2024-09-22T06:45:11Z</time>
      </trkpt>
      <trkpt lat="49.25816" lon="-0.0997">
        <ele>4.4</ele>
        <time>2024-09-22T06:45:12Z</time>
      </trkpt>
      <trkpt lat="49.25817" lon="-0.0996">
        <ele>4.4</ele>
        <time>2024-09-22T06:45:13Z</time>
      </trkpt>
      <trkpt lat="49.25818" lon="-0.09949">
        <ele>4.4</ele>
        <time>2024-09-22T06:45:14Z</time>
      </trkpt>
      <trkpt lat="49.25819" lon="-0.09939">
        <ele>4.4</ele>
        <time>2024-09-22T06:45:15Z</time>
      </trkpt>
      <trkpt lat="49.2582" lon="-0.09928">
        <ele>4.4</ele>
        <time>2024-09-22T06:45:16Z</time>
      </trkpt>
      <trkpt lat="49.2582" lon="-0.09918">
        <ele>4.4</ele>
        <time>2024-09-22T06:45:17Z</time>
      </trkpt>
      <trkpt lat="49.25821" lon="-0.09908">
        <ele>4.6</ele>
        <time>2024-09-22T06:45:18Z</time>
      </trkpt>
      <trkpt lat="49.25821" lon="-0.09898">
        <ele>4.6</ele>
        <time>2024-09-22T06:45:19Z</time>
      </trkpt>
      <trkpt lat="49.25822" lon="-0.09887">
        <ele>4.6</ele>
        <time>2024-09-22T06:45:20Z</time>
      </trkpt>
      <trkpt lat="49.25822" lon="-0.09876">
        <ele>4.6</ele>
        <time>2024-09-22T06:45:21Z</time>
      </trkpt>
      <trkpt lat="49.25823" lon="-0.09866">
        <ele>4.6</ele>
        <time>2024-09-22T06:45:22Z</time>
      </trkpt>
      <trkpt lat="49.25824" lon="-0.09855">
        <ele>4.6</ele>
        <time>2024-09-22T06:45:23Z</time>
      </trkpt>
      <trkpt lat="49.25824" lon="-0.09844">
        <ele>4.6</ele>
        <time>2024-09-22T06:45:24Z</time>
      </trkpt>
      <trkpt lat="49.25825" lon="-0.09834">
        <ele>4.6</ele>
        <time>2024-09-22T06:45:25Z</time>
      </trkpt>
      <trkpt lat="49.25825" lon="-0.09824">
        <ele>4.6</ele>
        <time>2024-09-22T06:45:26Z</time>
      </trkpt>
      <trkpt lat="49.25826" lon="-0.09813">
        <ele>4.4</ele>
        <time>2024-09-22T06:45:27Z</time>
      </trkpt>
      <trkpt lat="49.25827" lon="-0.09803">
        <ele>4.4</ele>
        <time>2024-09-22T06:45:28Z</time>
      </trkpt>
      <trkpt lat="49.25827" lon="-0.09793">
        <ele>4.4</ele>
        <time>2024-09-22T06:45:29Z</time>
      </trkpt>
      <trkpt lat="49.25828" lon="-0.09782">
        <ele>4.4</ele>
        <time>2024-09-22T06:45:30Z</time>
      </trkpt>
      <trkpt lat="49.25829" lon="-0.09772">
        <ele>4.4</ele>
        <time>2024-09-22T06:45:31Z</time>
      </trkpt>
      <trkpt lat="49.25829" lon="-0.09762">
        <ele>4.4</ele>
        <time>2024-09-22T06:45:32Z</time>
      </trkpt>
      <trkpt lat="49.2583" lon="-0.09752">
        <ele>4.2</ele>
        <time>2024-09-22T06:45:33Z</time>
      </trkpt>
      <trkpt lat="49.25831" lon="-0.09741">
        <ele>4.2</ele>
        <time>2024-09-22T06:45:34Z</time>
      </trkpt>
      <trkpt lat="49.25831" lon="-0.09731">
        <ele>4.2</ele>
        <time>2024-09-22T06:45:35Z</time>
      </trkpt>
      <trkpt lat="49.25832" lon="-0.09721">
        <ele>4.2</ele>
        <time>2024-09-22T06:45:36Z</time>
      </trkpt>
      <trkpt lat="49.25833" lon="-0.0971">
        <ele>4.2</ele>
        <time>2024-09-22T06:45:37Z</time>
      </trkpt>
      <trkpt lat="49.25833" lon="-0.09699">
        <ele>4.2</ele>
        <time>2024-09-22T06:45:38Z</time>
      </trkpt>
      <trkpt lat="49.25833" lon="-0.09689">
        <ele>4</ele>
        <time>2024-09-22T06:45:39Z</time>
      </trkpt>
      <trkpt lat="49.25833" lon="-0.09681">
        <ele>4</ele>
        <time>2024-09-22T06:45:40Z</time>
      </trkpt>
      <trkpt lat="49.25834" lon="-0.09669">
        <ele>4</ele>
        <time>2024-09-22T06:45:41Z</time>
      </trkpt>
      <trkpt lat="49.25833" lon="-0.0966">
        <ele>4</ele>
        <time>2024-09-22T06:45:42Z</time>
      </trkpt>
      <trkpt lat="49.25833" lon="-0.0965">
        <ele>4</ele>
        <time>2024-09-22T06:45:43Z</time>
      </trkpt>
      <trkpt lat="49.25833" lon="-0.0964">
        <ele>4</ele>
        <time>2024-09-22T06:45:44Z</time>
      </trkpt>
      <trkpt lat="49.25832" lon="-0.09631">
        <ele>4</ele>
        <time>2024-09-22T06:45:45Z</time>
      </trkpt>
      <trkpt lat="49.25832" lon="-0.09622">
        <ele>4</ele>
        <time>2024-09-22T06:45:46Z</time>
      </trkpt>
      <trkpt lat="49.25832" lon="-0.09612">
        <ele>4.2</ele>
        <time>2024-09-22T06:45:47Z</time>
      </trkpt>
      <trkpt lat="49.25831" lon="-0.09603">
        <ele>4.2</ele>
        <time>2024-09-22T06:45:48Z</time>
      </trkpt>
      <trkpt lat="49.25831" lon="-0.09594">
        <ele>4.4</ele>
        <time>2024-09-22T06:45:49Z</time>
      </trkpt>
      <trkpt lat="49.25831" lon="-0.09585">
        <ele>4.6</ele>
        <time>2024-09-22T06:45:50Z</time>
      </trkpt>
      <trkpt lat="49.25831" lon="-0.09576">
        <ele>4.6</ele>
        <time>2024-09-22T06:45:51Z</time>
      </trkpt>
      <trkpt lat="49.25831" lon="-0.09567">
        <ele>4.8</ele>
        <time>2024-09-22T06:45:52Z</time>
      </trkpt>
      <trkpt lat="49.25831" lon="-0.09558">
        <ele>5</ele>
        <time>2024-09-22T06:45:53Z</time>
      </trkpt>
      <trkpt lat="49.25831" lon="-0.09549">
        <ele>5</ele>
        <time>2024-09-22T06:45:54Z</time>
      </trkpt>
      <trkpt lat="49.25832" lon="-0.09541">
        <ele>5</ele>
        <time>2024-09-22T06:45:55Z</time>
      </trkpt>
      <trkpt lat="49.25832" lon="-0.09532">
        <ele>5.2</ele>
        <time>2024-09-22T06:45:56Z</time>
      </trkpt>
      <trkpt lat="49.25833" lon="-0.09524">
        <ele>5.2</ele>
        <time>2024-09-22T06:45:57Z</time>
      </trkpt>
      <trkpt lat="49.25833" lon="-0.09515">
        <ele>5.4</ele>
        <time>2024-09-22T06:45:58Z</time>
      </trkpt>
      <trkpt lat="49.25833" lon="-0.09508">
        <ele>5.4</ele>
        <time>2024-09-22T06:45:59Z</time>
      </trkpt>
      <trkpt lat="49.25833" lon="-0.09502">
        <ele>5.6</ele>
        <time>2024-09-22T06:46:00Z</time>
      </trkpt>
      <trkpt lat="49.2583" lon="-0.09494">
        <ele>5.6</ele>
        <time>2024-09-22T06:46:01Z</time>
      </trkpt>
      <trkpt lat="49.25827" lon="-0.09489">
        <ele>5.6</ele>
        <time>2024-09-22T06:46:02Z</time>
      </trkpt>
      <trkpt lat="49.25822" lon="-0.09484">
        <ele>5.6</ele>
        <time>2024-09-22T06:46:03Z</time>
      </trkpt>
      <trkpt lat="49.25816" lon="-0.09481">
        <ele>5.8</ele>
        <time>2024-09-22T06:46:04Z</time>
      </trkpt>
      <trkpt lat="49.25811" lon="-0.09481">
        <ele>5.8</ele>
        <time>2024-09-22T06:46:05Z</time>
      </trkpt>
      <trkpt lat="49.25805" lon="-0.09481">
        <ele>6</ele>
        <time>2024-09-22T06:46:06Z</time>
      </trkpt>
      <trkpt lat="49.25798" lon="-0.09483">
        <ele>6.2</ele>
        <time>2024-09-22T06:46:07Z</time>
      </trkpt>
      <trkpt lat="49.25792" lon="-0.09485">
        <ele>6.4</ele>
        <time>2024-09-22T06:46:08Z</time>
      </trkpt>
      <trkpt lat="49.25785" lon="-0.09488">
        <ele>6.4</ele>
        <time>2024-09-22T06:46:09Z</time>
      </trkpt>
      <trkpt lat="49.25778" lon="-0.09491">
        <ele>6.6</ele>
        <time>2024-09-22T06:46:10Z</time>
      </trkpt>
      <trkpt lat="49.25772" lon="-0.09496">
        <ele>6.6</ele>
        <time>2024-09-22T06:46:11Z</time>
      </trkpt>
      <trkpt lat="49.25766" lon="-0.095">
        <ele>6.6</ele>
        <time>2024-09-22T06:46:12Z</time>
      </trkpt>
      <trkpt lat="49.25759" lon="-0.09505">
        <ele>6.6</ele>
        <time>2024-09-22T06:46:13Z</time>
      </trkpt>
      <trkpt lat="49.25753" lon="-0.09509">
        <ele>6.8</ele>
        <time>2024-09-22T06:46:14Z</time>
      </trkpt>
      <trkpt lat="49.25746" lon="-0.09514">
        <ele>6.8</ele>
        <time>2024-09-22T06:46:15Z</time>
      </trkpt>
      <trkpt lat="49.2574" lon="-0.09519">
        <ele>6.8</ele>
        <time>2024-09-22T06:46:16Z</time>
      </trkpt>
      <trkpt lat="49.25734" lon="-0.09523">
        <ele>6.8</ele>
        <time>2024-09-22T06:46:17Z</time>
      </trkpt>
      <trkpt lat="49.25728" lon="-0.09528">
        <ele>6.8</ele>
        <time>2024-09-22T06:46:18Z</time>
      </trkpt>
      <trkpt lat="49.25722" lon="-0.09533">
        <ele>6.8</ele>
        <time>2024-09-22T06:46:19Z</time>
      </trkpt>
      <trkpt lat="49.25715" lon="-0.09538">
        <ele>6.8</ele>
        <time>2024-09-22T06:46:20Z</time>
      </trkpt>
      <trkpt lat="49.25709" lon="-0.09543">
        <ele>6.6</ele>
        <time>2024-09-22T06:46:21Z</time>
      </trkpt>
      <trkpt lat="49.25702" lon="-0.09548">
        <ele>6.6</ele>
        <time>2024-09-22T06:46:22Z</time>
      </trkpt>
      <trkpt lat="49.25696" lon="-0.09552">
        <ele>6.6</ele>
        <time>2024-09-22T06:46:23Z</time>
      </trkpt>
      <trkpt lat="49.25689" lon="-0.09557">
        <ele>6.6</ele>
        <time>2024-09-22T06:46:24Z</time>
      </trkpt>
      <trkpt lat="49.25682" lon="-0.09562">
        <ele>6.6</ele>
        <time>2024-09-22T06:46:25Z</time>
      </trkpt>
      <trkpt lat="49.25676" lon="-0.09567">
        <ele>6.6</ele>
        <time>2024-09-22T06:46:26Z</time>
      </trkpt>
      <trkpt lat="49.25669" lon="-0.09571">
        <ele>6.6</ele>
        <time>2024-09-22T06:46:27Z</time>
      </trkpt>
      <trkpt lat="49.25663" lon="-0.09576">
        <ele>6.4</ele>
        <time>2024-09-22T06:46:28Z</time>
      </trkpt>
      <trkpt lat="49.25656" lon="-0.0958">
        <ele>6.4</ele>
        <time>2024-09-22T06:46:29Z</time>
      </trkpt>
      <trkpt lat="49.2565" lon="-0.09584">
        <ele>6.4</ele>
        <time>2024-09-22T06:46:30Z</time>
      </trkpt>
      <trkpt lat="49.25643" lon="-0.09588">
        <ele>6.2</ele>
        <time>2024-09-22T06:46:31Z</time>
      </trkpt>
      <trkpt lat="49.25637" lon="-0.09591">
        <ele>6.2</ele>
        <time>2024-09-22T06:46:32Z</time>
      </trkpt>
      <trkpt lat="49.25631" lon="-0.09594">
        <ele>6.2</ele>
        <time>2024-09-22T06:46:33Z</time>
      </trkpt>
      <trkpt lat="49.25624" lon="-0.09597">
        <ele>6</ele>
        <time>2024-09-22T06:46:34Z</time>
      </trkpt>
      <trkpt lat="49.25617" lon="-0.09599">
        <ele>6</ele>
        <time>2024-09-22T06:46:35Z</time>
      </trkpt>
      <trkpt lat="49.2561" lon="-0.096">
        <ele>6</ele>
        <time>2024-09-22T06:46:36Z</time>
      </trkpt>
      <trkpt lat="49.25603" lon="-0.096">
        <ele>6</ele>
        <time>2024-09-22T06:46:37Z</time>
      </trkpt>
      <trkpt lat="49.25596" lon="-0.09601">
        <ele>6</ele>
        <time>2024-09-22T06:46:38Z</time>
      </trkpt>
      <trkpt lat="49.25589" lon="-0.09601">
        <ele>6</ele>
        <time>2024-09-22T06:46:39Z</time>
      </trkpt>
      <trkpt lat="49.25582" lon="-0.09601">
        <ele>5.8</ele>
        <time>2024-09-22T06:46:40Z</time>
      </trkpt>
      <trkpt lat="49.25575" lon="-0.096">
        <ele>5.8</ele>
        <time>2024-09-22T06:46:41Z</time>
      </trkpt>
      <trkpt lat="49.25568" lon="-0.096">
        <ele>5.8</ele>
        <time>2024-09-22T06:46:42Z</time>
      </trkpt>
      <trkpt lat="49.25561" lon="-0.09599">
        <ele>5.8</ele>
        <time>2024-09-22T06:46:43Z</time>
      </trkpt>
      <trkpt lat="49.25554" lon="-0.09599">
        <ele>5.6</ele>
        <time>2024-09-22T06:46:44Z</time>
      </trkpt>
      <trkpt lat="49.25547" lon="-0.09599">
        <ele>5.6</ele>
        <time>2024-09-22T06:46:45Z</time>
      </trkpt>
      <trkpt lat="49.2554" lon="-0.09599">
        <ele>5.6</ele>
        <time>2024-09-22T06:46:46Z</time>
      </trkpt>
      <trkpt lat="49.25533" lon="-0.09599">
        <ele>5.6</ele>
        <time>2024-09-22T06:46:47Z</time>
      </trkpt>
      <trkpt lat="49.25526" lon="-0.09599">
        <ele>5.4</ele>
        <time>2024-09-22T06:46:48Z</time>
      </trkpt>
      <trkpt lat="49.25519" lon="-0.09599">
        <ele>5.4</ele>
        <time>2024-09-22T06:46:49Z</time>
      </trkpt>
      <trkpt lat="49.25512" lon="-0.09599">
        <ele>5.4</ele>
        <time>2024-09-22T06:46:50Z</time>
      </trkpt>
      <trkpt lat="49.25505" lon="-0.09599">
        <ele>5.4</ele>
        <time>2024-09-22T06:46:51Z</time>
      </trkpt>
      <trkpt lat="49.25498" lon="-0.096">
        <ele>5.2</ele>
        <time>2024-09-22T06:46:52Z</time>
      </trkpt>
      <trkpt lat="49.25492" lon="-0.09601">
        <ele>5.2</ele>
        <time>2024-09-22T06:46:53Z</time>
      </trkpt>
      <trkpt lat="49.25485" lon="-0.09602">
        <ele>5</ele>
        <time>2024-09-22T06:46:54Z</time>
      </trkpt>
      <trkpt lat="49.25478" lon="-0.09603">
        <ele>5</ele>
        <time>2024-09-22T06:46:55Z</time>
      </trkpt>
      <trkpt lat="49.25471" lon="-0.09604">
        <ele>5</ele>
        <time>2024-09-22T06:46:56Z</time>
      </trkpt>
      <trkpt lat="49.25465" lon="-0.09605">
        <ele>5</ele>
        <time>2024-09-22T06:46:57Z</time>
      </trkpt>
      <trkpt lat="49.25457" lon="-0.09607">
        <ele>5</ele>
        <time>2024-09-22T06:46:58Z</time>
      </trkpt>
      <trkpt lat="49.2545" lon="-0.09608">
        <ele>5</ele>
        <time>2024-09-22T06:46:59Z</time>
      </trkpt>
      <trkpt lat="49.25444" lon="-0.09609">
        <ele>4.6</ele>
        <time>2024-09-22T06:47:00Z</time>
      </trkpt>
      <trkpt lat="49.25437" lon="-0.0961">
        <ele>4.6</ele>
        <time>2024-09-22T06:47:01Z</time>
      </trkpt>
      <trkpt lat="49.2543" lon="-0.09611">
        <ele>4.4</ele>
        <time>2024-09-22T06:47:02Z</time>
      </trkpt>
      <trkpt lat="49.25423" lon="-0.09613">
        <ele>4.2</ele>
        <time>2024-09-22T06:47:03Z</time>
      </trkpt>
      <trkpt lat="49.25417" lon="-0.09614">
        <ele>4.2</ele>
        <time>2024-09-22T06:47:04Z</time>
      </trkpt>
      <trkpt lat="49.25409" lon="-0.09616">
        <ele>4.2</ele>
        <time>2024-09-22T06:47:05Z</time>
      </trkpt>
      <trkpt lat="49.25402" lon="-0.09618">
        <ele>4.2</ele>
        <time>2024-09-22T06:47:06Z</time>
      </trkpt>
      <trkpt lat="49.25395" lon="-0.09619">
        <ele>4.2</ele>
        <time>2024-09-22T06:47:07Z</time>
      </trkpt>
      <trkpt lat="49.25388" lon="-0.0962">
        <ele>4.2</ele>
        <time>2024-09-22T06:47:08Z</time>
      </trkpt>
      <trkpt lat="49.25381" lon="-0.09622">
        <ele>4.2</ele>
        <time>2024-09-22T06:47:09Z</time>
      </trkpt>
      <trkpt lat="49.25374" lon="-0.09623">
        <ele>4.2</ele>
        <time>2024-09-22T06:47:10Z</time>
      </trkpt>
      <trkpt lat="49.25366" lon="-0.09624">
        <ele>4.2</ele>
        <time>2024-09-22T06:47:11Z</time>
      </trkpt>
      <trkpt lat="49.25359" lon="-0.09625">
        <ele>4</ele>
        <time>2024-09-22T06:47:12Z</time>
      </trkpt>
      <trkpt lat="49.25352" lon="-0.09627">
        <ele>4.2</ele>
        <time>2024-09-22T06:47:13Z</time>
      </trkpt>
      <trkpt lat="49.25345" lon="-0.09628">
        <ele>4.2</ele>
        <time>2024-09-22T06:47:14Z</time>
      </trkpt>
      <trkpt lat="49.25338" lon="-0.09629">
        <ele>4</ele>
        <time>2024-09-22T06:47:15Z</time>
      </trkpt>
      <trkpt lat="49.25332" lon="-0.09631">
        <ele>4</ele>
        <time>2024-09-22T06:47:16Z</time>
      </trkpt>
      <trkpt lat="49.25325" lon="-0.09633">
        <ele>4</ele>
        <time>2024-09-22T06:47:17Z</time>
      </trkpt>
      <trkpt lat="49.25318" lon="-0.09636">
        <ele>4</ele>
        <time>2024-09-22T06:47:18Z</time>
      </trkpt>
      <trkpt lat="49.25312" lon="-0.09639">
        <ele>4</ele>
        <time>2024-09-22T06:47:19Z</time>
      </trkpt>
      <trkpt lat="49.25305" lon="-0.09643">
        <ele>4</ele>
        <time>2024-09-22T06:47:20Z</time>
      </trkpt>
      <trkpt lat="49.25299" lon="-0.09648">
        <ele>4</ele>
        <time>2024-09-22T06:47:21Z</time>
      </trkpt>
      <trkpt lat="49.25293" lon="-0.09653">
        <ele>4</ele>
        <time>2024-09-22T06:47:22Z</time>
      </trkpt>
      <trkpt lat="49.25287" lon="-0.09659">
        <ele>4</ele>
        <time>2024-09-22T06:47:23Z</time>
      </trkpt>
      <trkpt lat="49.25281" lon="-0.09665">
        <ele>4</ele>
        <time>2024-09-22T06:47:24Z</time>
      </trkpt>
      <trkpt lat="49.25276" lon="-0.09671">
        <ele>4</ele>
        <time>2024-09-22T06:47:25Z</time>
      </trkpt>
      <trkpt lat="49.2527" lon="-0.09677">
        <ele>4</ele>
        <time>2024-09-22T06:47:26Z</time>
      </trkpt>
      <trkpt lat="49.25264" lon="-0.09683">
        <ele>4</ele>
        <time>2024-09-22T06:47:27Z</time>
      </trkpt>
      <trkpt lat="49.25258" lon="-0.09688">
        <ele>4</ele>
        <time>2024-09-22T06:47:28Z</time>
      </trkpt>
      <trkpt lat="49.25252" lon="-0.09693">
        <ele>4</ele>
        <time>2024-09-22T06:47:29Z</time>
      </trkpt>
      <trkpt lat="49.25246" lon="-0.09697">
        <ele>4</ele>
        <time>2024-09-22T06:47:30Z</time>
      </trkpt>
      <trkpt lat="49.2524" lon="-0.097">
        <ele>4</ele>
        <time>2024-09-22T06:47:31Z</time>
      </trkpt>
      <trkpt lat="49.25233" lon="-0.09703">
        <ele>4</ele>
        <time>2024-09-22T06:47:32Z</time>
      </trkpt>
      <trkpt lat="49.25227" lon="-0.09706">
        <ele>4</ele>
        <time>2024-09-22T06:47:33Z</time>
      </trkpt>
      <trkpt lat="49.2522" lon="-0.09708">
        <ele>4</ele>
        <time>2024-09-22T06:47:34Z</time>
      </trkpt>
      <trkpt lat="49.25213" lon="-0.0971">
        <ele>4.2</ele>
        <time>2024-09-22T06:47:35Z</time>
      </trkpt>
      <trkpt lat="49.25206" lon="-0.09713">
        <ele>4.2</ele>
        <time>2024-09-22T06:47:36Z</time>
      </trkpt>
      <trkpt lat="49.25199" lon="-0.09716">
        <ele>4.2</ele>
        <time>2024-09-22T06:47:37Z</time>
      </trkpt>
      <trkpt lat="49.25192" lon="-0.09719">
        <ele>4.2</ele>
        <time>2024-09-22T06:47:38Z</time>
      </trkpt>
      <trkpt lat="49.25185" lon="-0.09722">
        <ele>4.2</ele>
        <time>2024-09-22T06:47:39Z</time>
      </trkpt>
      <trkpt lat="49.25178" lon="-0.09724">
        <ele>4.2</ele>
        <time>2024-09-22T06:47:40Z</time>
      </trkpt>
      <trkpt lat="49.25171" lon="-0.09727">
        <ele>4.2</ele>
        <time>2024-09-22T06:47:41Z</time>
      </trkpt>
      <trkpt lat="49.25164" lon="-0.0973">
        <ele>4.2</ele>
        <time>2024-09-22T06:47:42Z</time>
      </trkpt>
      <trkpt lat="49.25157" lon="-0.09733">
        <ele>4.2</ele>
        <time>2024-09-22T06:47:43Z</time>
      </trkpt>
      <trkpt lat="49.2515" lon="-0.09736">
        <ele>4.2</ele>
        <time>2024-09-22T06:47:44Z</time>
      </trkpt>
      <trkpt lat="49.25143" lon="-0.09741">
        <ele>4.2</ele>
        <time>2024-09-22T06:47:45Z</time>
      </trkpt>
      <trkpt lat="49.25137" lon="-0.09747">
        <ele>4.2</ele>
        <time>2024-09-22T06:47:46Z</time>
      </trkpt>
      <trkpt lat="49.2513" lon="-0.09754">
        <ele>4.2</ele>
        <time>2024-09-22T06:47:47Z</time>
      </trkpt>
      <trkpt lat="49.25125" lon="-0.09762">
        <ele>4.2</ele>
        <time>2024-09-22T06:47:48Z</time>
      </trkpt>
      <trkpt lat="49.2512" lon="-0.09771">
        <ele>4.2</ele>
        <time>2024-09-22T06:47:49Z</time>
      </trkpt>
      <trkpt lat="49.25116" lon="-0.0978">
        <ele>4</ele>
        <time>2024-09-22T06:47:50Z</time>
      </trkpt>
      <trkpt lat="49.25112" lon="-0.0979">
        <ele>3.8</ele>
        <time>2024-09-22T06:47:51Z</time>
      </trkpt>
      <trkpt lat="49.25108" lon="-0.098">
        <ele>3.4</ele>
        <time>2024-09-22T06:47:52Z</time>
      </trkpt>
      <trkpt lat="49.25104" lon="-0.09809">
        <ele>3.2</ele>
        <time>2024-09-22T06:47:53Z</time>
      </trkpt>
      <trkpt lat="49.251" lon="-0.09819">
        <ele>3</ele>
        <time>2024-09-22T06:47:54Z</time>
      </trkpt>
      <trkpt lat="49.25097" lon="-0.09829">
        <ele>2.8</ele>
        <time>2024-09-22T06:47:55Z</time>
      </trkpt>
      <trkpt lat="49.25094" lon="-0.09839">
        <ele>2.8</ele>
        <time>2024-09-22T06:47:56Z</time>
      </trkpt>
      <trkpt lat="49.2509" lon="-0.09849">
        <ele>2.8</ele>
        <time>2024-09-22T06:47:57Z</time>
      </trkpt>
      <trkpt lat="49.25087" lon="-0.09859">
        <ele>2.8</ele>
        <time>2024-09-22T06:47:58Z</time>
      </trkpt>
      <trkpt lat="49.25083" lon="-0.09868">
        <ele>2.8</ele>
        <time>2024-09-22T06:47:59Z</time>
      </trkpt>
      <trkpt lat="49.2508" lon="-0.09878">
        <ele>2.8</ele>
        <time>2024-09-22T06:48:00Z</time>
      </trkpt>
      <trkpt lat="49.25076" lon="-0.09888">
        <ele>2.8</ele>
        <time>2024-09-22T06:48:01Z</time>
      </trkpt>
      <trkpt lat="49.25073" lon="-0.09898">
        <ele>2.8</ele>
        <time>2024-09-22T06:48:02Z</time>
      </trkpt>
      <trkpt lat="49.2507" lon="-0.09907">
        <ele>2.8</ele>
        <time>2024-09-22T06:48:03Z</time>
      </trkpt>
      <trkpt lat="49.25066" lon="-0.09917">
        <ele>2.8</ele>
        <time>2024-09-22T06:48:04Z</time>
      </trkpt>
      <trkpt lat="49.25062" lon="-0.09926">
        <ele>2.8</ele>
        <time>2024-09-22T06:48:05Z</time>
      </trkpt>
      <trkpt lat="49.25059" lon="-0.09936">
        <ele>2.8</ele>
        <time>2024-09-22T06:48:06Z</time>
      </trkpt>
      <trkpt lat="49.25055" lon="-0.09945">
        <ele>2.8</ele>
        <time>2024-09-22T06:48:07Z</time>
      </trkpt>
      <trkpt lat="49.25051" lon="-0.09955">
        <ele>3</ele>
        <time>2024-09-22T06:48:08Z</time>
      </trkpt>
      <trkpt lat="49.25048" lon="-0.09964">
        <ele>3.2</ele>
        <time>2024-09-22T06:48:09Z</time>
      </trkpt>
      <trkpt lat="49.25044" lon="-0.09973">
        <ele>3.2</ele>
        <time>2024-09-22T06:48:10Z</time>
      </trkpt>
      <trkpt lat="49.25041" lon="-0.09983">
        <ele>3.2</ele>
        <time>2024-09-22T06:48:11Z</time>
      </trkpt>
      <trkpt lat="49.25037" lon="-0.09992">
        <ele>3.2</ele>
        <time>2024-09-22T06:48:12Z</time>
      </trkpt>
      <trkpt lat="49.25034" lon="-0.10001">
        <ele>3.2</ele>
        <time>2024-09-22T06:48:13Z</time>
      </trkpt>
      <trkpt lat="49.25032" lon="-0.10011">
        <ele>3.4</ele>
        <time>2024-09-22T06:48:14Z</time>
      </trkpt>
      <trkpt lat="49.25028" lon="-0.1002">
        <ele>3.4</ele>
        <time>2024-09-22T06:48:15Z</time>
      </trkpt>
      <trkpt lat="49.25025" lon="-0.10029">
        <ele>3.4</ele>
        <time>2024-09-22T06:48:16Z</time>
      </trkpt>
      <trkpt lat="49.25021" lon="-0.10038">
        <ele>3.4</ele>
        <time>2024-09-22T06:48:17Z</time>
      </trkpt>
      <trkpt lat="49.25018" lon="-0.10048">
        <ele>3.6</ele>
        <time>2024-09-22T06:48:18Z</time>
      </trkpt>
      <trkpt lat="49.25014" lon="-0.10057">
        <ele>3.8</ele>
        <time>2024-09-22T06:48:19Z</time>
      </trkpt>
      <trkpt lat="49.25011" lon="-0.10067">
        <ele>4</ele>
        <time>2024-09-22T06:48:20Z</time>
      </trkpt>
      <trkpt lat="49.25007" lon="-0.10076">
        <ele>4</ele>
        <time>2024-09-22T06:48:21Z</time>
      </trkpt>
      <trkpt lat="49.25004" lon="-0.10086">
        <ele>4</ele>
        <time>2024-09-22T06:48:22Z</time>
      </trkpt>
      <trkpt lat="49.25" lon="-0.10096">
        <ele>4</ele>
        <time>2024-09-22T06:48:23Z</time>
      </trkpt>
      <trkpt lat="49.24997" lon="-0.10105">
        <ele>4</ele>
        <time>2024-09-22T06:48:24Z</time>
      </trkpt>
      <trkpt lat="49.24993" lon="-0.10114">
        <ele>4</ele>
        <time>2024-09-22T06:48:25Z</time>
      </trkpt>
      <trkpt lat="49.24989" lon="-0.10124">
        <ele>4</ele>
        <time>2024-09-22T06:48:26Z</time>
      </trkpt>
      <trkpt lat="49.24986" lon="-0.10134">
        <ele>4.2</ele>
        <time>2024-09-22T06:48:27Z</time>
      </trkpt>
      <trkpt lat="49.24983" lon="-0.10144">
        <ele>4.2</ele>
        <time>2024-09-22T06:48:28Z</time>
      </trkpt>
      <trkpt lat="49.24979" lon="-0.10153">
        <ele>4.2</ele>
        <time>2024-09-22T06:48:29Z</time>
      </trkpt>
      <trkpt lat="49.24976" lon="-0.10163">
        <ele>4.2</ele>
        <time>2024-09-22T06:48:30Z</time>
      </trkpt>
      <trkpt lat="49.24973" lon="-0.10172">
        <ele>4.2</ele>
        <time>2024-09-22T06:48:31Z</time>
      </trkpt>
      <trkpt lat="49.2497" lon="-0.10182">
        <ele>4</ele>
        <time>2024-09-22T06:48:32Z</time>
      </trkpt>
      <trkpt lat="49.24967" lon="-0.10192">
        <ele>4</ele>
        <time>2024-09-22T06:48:33Z</time>
      </trkpt>
      <trkpt lat="49.24963" lon="-0.10201">
        <ele>4</ele>
        <time>2024-09-22T06:48:34Z</time>
      </trkpt>
      <trkpt lat="49.24959" lon="-0.1021">
        <ele>4</ele>
        <time>2024-09-22T06:48:35Z</time>
      </trkpt>
      <trkpt lat="49.24955" lon="-0.1022">
        <ele>4</ele>
        <time>2024-09-22T06:48:36Z</time>
      </trkpt>
      <trkpt lat="49.24951" lon="-0.1023">
        <ele>4</ele>
        <time>2024-09-22T06:48:37Z</time>
      </trkpt>
      <trkpt lat="49.24947" lon="-0.10238">
        <ele>4</ele>
        <time>2024-09-22T06:48:38Z</time>
      </trkpt>
      <trkpt lat="49.24943" lon="-0.10247">
        <ele>4</ele>
        <time>2024-09-22T06:48:39Z</time>
      </trkpt>
      <trkpt lat="49.24938" lon="-0.10254">
        <ele>4</ele>
        <time>2024-09-22T06:48:40Z</time>
      </trkpt>
      <trkpt lat="49.24933" lon="-0.10261">
        <ele>4</ele>
        <time>2024-09-22T06:48:41Z</time>
      </trkpt>
      <trkpt lat="49.24928" lon="-0.10268">
        <ele>4</ele>
        <time>2024-09-22T06:48:42Z</time>
      </trkpt>
      <trkpt lat="49.24922" lon="-0.10274">
        <ele>4</ele>
        <time>2024-09-22T06:48:43Z</time>
      </trkpt>
      <trkpt lat="49.24915" lon="-0.10281">
        <ele>4</ele>
        <time>2024-09-22T06:48:44Z</time>
      </trkpt>
      <trkpt lat="49.24909" lon="-0.10286">
        <ele>4</ele>
        <time>2024-09-22T06:48:45Z</time>
      </trkpt>
      <trkpt lat="49.24903" lon="-0.10291">
        <ele>4</ele>
        <time>2024-09-22T06:48:46Z</time>
      </trkpt>
      <trkpt lat="49.24897" lon="-0.10294">
        <ele>4</ele>
        <time>2024-09-22T06:48:47Z</time>
      </trkpt>
      <trkpt lat="49.24891" lon="-0.10298">
        <ele>4.2</ele>
        <time>2024-09-22T06:48:48Z</time>
      </trkpt>
      <trkpt lat="49.24884" lon="-0.103">
        <ele>4</ele>
        <time>2024-09-22T06:48:49Z</time>
      </trkpt>
      <trkpt lat="49.24877" lon="-0.10301">
        <ele>4</ele>
        <time>2024-09-22T06:48:50Z</time>
      </trkpt>
      <trkpt lat="49.24869" lon="-0.10301">
        <ele>4.2</ele>
        <time>2024-09-22T06:48:51Z</time>
      </trkpt>
      <trkpt lat="49.24862" lon="-0.103">
        <ele>4.4</ele>
        <time>2024-09-22T06:48:52Z</time>
      </trkpt>
      <trkpt lat="49.24855" lon="-0.10299">
        <ele>4.6</ele>
        <time>2024-09-22T06:48:53Z</time>
      </trkpt>
      <trkpt lat="49.24848" lon="-0.10298">
        <ele>5</ele>
        <time>2024-09-22T06:48:54Z</time>
      </trkpt>
      <trkpt lat="49.24841" lon="-0.10296">
        <ele>5.2</ele>
        <time>2024-09-22T06:48:55Z</time>
      </trkpt>
      <trkpt lat="49.24834" lon="-0.10294">
        <ele>5.4</ele>
        <time>2024-09-22T06:48:56Z</time>
      </trkpt>
      <trkpt lat="49.24827" lon="-0.1029">
        <ele>5.4</ele>
        <time>2024-09-22T06:48:57Z</time>
      </trkpt>
      <trkpt lat="49.2482" lon="-0.10287">
        <ele>5.4</ele>
        <time>2024-09-22T06:48:58Z</time>
      </trkpt>
      <trkpt lat="49.24813" lon="-0.10282">
        <ele>5.4</ele>
        <time>2024-09-22T06:48:59Z</time>
      </trkpt>
      <trkpt lat="49.24806" lon="-0.10278">
        <ele>5.4</ele>
        <time>2024-09-22T06:49:00Z</time>
      </trkpt>
      <trkpt lat="49.248" lon="-0.10273">
        <ele>5.4</ele>
        <time>2024-09-22T06:49:01Z</time>
      </trkpt>
      <trkpt lat="49.24793" lon="-0.10268">
        <ele>5.4</ele>
        <time>2024-09-22T06:49:02Z</time>
      </trkpt>
      <trkpt lat="49.24787" lon="-0.10263">
        <ele>5.4</ele>
        <time>2024-09-22T06:49:03Z</time>
      </trkpt>
      <trkpt lat="49.2478" lon="-0.10258">
        <ele>5.4</ele>
        <time>2024-09-22T06:49:04Z</time>
      </trkpt>
      <trkpt lat="49.24773" lon="-0.10253">
        <ele>5.4</ele>
        <time>2024-09-22T06:49:05Z</time>
      </trkpt>
      <trkpt lat="49.24767" lon="-0.10248">
        <ele>5.4</ele>
        <time>2024-09-22T06:49:06Z</time>
      </trkpt>
      <trkpt lat="49.2476" lon="-0.10242">
        <ele>5</ele>
        <time>2024-09-22T06:49:07Z</time>
      </trkpt>
      <trkpt lat="49.24754" lon="-0.10237">
        <ele>5</ele>
        <time>2024-09-22T06:49:08Z</time>
      </trkpt>
      <trkpt lat="49.24747" lon="-0.10231">
        <ele>4.6</ele>
        <time>2024-09-22T06:49:09Z</time>
      </trkpt>
      <trkpt lat="49.24741" lon="-0.10226">
        <ele>4.4</ele>
        <time>2024-09-22T06:49:10Z</time>
      </trkpt>
      <trkpt lat="49.24734" lon="-0.10221">
        <ele>4.4</ele>
        <time>2024-09-22T06:49:11Z</time>
      </trkpt>
      <trkpt lat="49.24728" lon="-0.10216">
        <ele>4.2</ele>
        <time>2024-09-22T06:49:12Z</time>
      </trkpt>
      <trkpt lat="49.24721" lon="-0.10211">
        <ele>4.2</ele>
        <time>2024-09-22T06:49:13Z</time>
      </trkpt>
      <trkpt lat="49.24715" lon="-0.10206">
        <ele>4.2</ele>
        <time>2024-09-22T06:49:14Z</time>
      </trkpt>
      <trkpt lat="49.24708" lon="-0.102">
        <ele>4</ele>
        <time>2024-09-22T06:49:15Z</time>
      </trkpt>
      <trkpt lat="49.24702" lon="-0.10195">
        <ele>4</ele>
        <time>2024-09-22T06:49:16Z</time>
      </trkpt>
      <trkpt lat="49.24696" lon="-0.1019">
        <ele>4</ele>
        <time>2024-09-22T06:49:17Z</time>
      </trkpt>
      <trkpt lat="49.24689" lon="-0.10185">
        <ele>4</ele>
        <time>2024-09-22T06:49:18Z</time>
      </trkpt>
      <trkpt lat="49.24682" lon="-0.1018">
        <ele>3.8</ele>
        <time>2024-09-22T06:49:19Z</time>
      </trkpt>
      <trkpt lat="49.24676" lon="-0.10175">
        <ele>3.8</ele>
        <time>2024-09-22T06:49:20Z</time>
      </trkpt>
      <trkpt lat="49.24669" lon="-0.1017">
        <ele>3.8</ele>
        <time>2024-09-22T06:49:21Z</time>
      </trkpt>
      <trkpt lat="49.24662" lon="-0.10165">
        <ele>3.8</ele>
        <time>2024-09-22T06:49:22Z</time>
      </trkpt>
      <trkpt lat="49.24656" lon="-0.10159">
        <ele>3.6</ele>
        <time>2024-09-22T06:49:23Z</time>
      </trkpt>
      <trkpt lat="49.24649" lon="-0.10154">
        <ele>3.6</ele>
        <time>2024-09-22T06:49:24Z</time>
      </trkpt>
      <trkpt lat="49.24642" lon="-0.10149">
        <ele>3.6</ele>
        <time>2024-09-22T06:49:25Z</time>
      </trkpt>
      <trkpt lat="49.24636" lon="-0.10144">
        <ele>3.6</ele>
        <time>2024-09-22T06:49:26Z</time>
      </trkpt>
      <trkpt lat="49.24629" lon="-0.10138">
        <ele>3.6</ele>
        <time>2024-09-22T06:49:27Z</time>
      </trkpt>
      <trkpt lat="49.24622" lon="-0.10133">
        <ele>3.6</ele>
        <time>2024-09-22T06:49:28Z</time>
      </trkpt>
      <trkpt lat="49.24616" lon="-0.10128">
        <ele>3.6</ele>
        <time>2024-09-22T06:49:29Z</time>
      </trkpt>
      <trkpt lat="49.2461" lon="-0.10123">
        <ele>3.6</ele>
        <time>2024-09-22T06:49:30Z</time>
      </trkpt>
      <trkpt lat="49.24604" lon="-0.10118">
        <ele>3.6</ele>
        <time>2024-09-22T06:49:31Z</time>
      </trkpt>
      <trkpt lat="49.24598" lon="-0.10114">
        <ele>3.6</ele>
        <time>2024-09-22T06:49:32Z</time>
      </trkpt>
      <trkpt lat="49.24592" lon="-0.10109">
        <ele>3.6</ele>
        <time>2024-09-22T06:49:33Z</time>
      </trkpt>
      <trkpt lat="49.24587" lon="-0.10104">
        <ele>3.6</ele>
        <time>2024-09-22T06:49:34Z</time>
      </trkpt>
      <trkpt lat="49.24581" lon="-0.101">
        <ele>3.6</ele>
        <time>2024-09-22T06:49:35Z</time>
      </trkpt>
      <trkpt lat="49.24576" lon="-0.10096">
        <ele>3.6</ele>
        <time>2024-09-22T06:49:36Z</time>
      </trkpt>
      <trkpt lat="49.2457" lon="-0.10092">
        <ele>3.6</ele>
        <time>2024-09-22T06:49:37Z</time>
      </trkpt>
      <trkpt lat="49.24565" lon="-0.10088">
        <ele>3.6</ele>
        <time>2024-09-22T06:49:38Z</time>
      </trkpt>
      <trkpt lat="49.2456" lon="-0.10084">
        <ele>3.6</ele>
        <time>2024-09-22T06:49:39Z</time>
      </trkpt>
      <trkpt lat="49.24554" lon="-0.10081">
        <ele>3.6</ele>
        <time>2024-09-22T06:49:40Z</time>
      </trkpt>
      <trkpt lat="49.24549" lon="-0.10077">
        <ele>3.6</ele>
        <time>2024-09-22T06:49:41Z</time>
      </trkpt>
      <trkpt lat="49.24544" lon="-0.10072">
        <ele>3.6</ele>
        <time>2024-09-22T06:49:42Z</time>
      </trkpt>
      <trkpt lat="49.24539" lon="-0.10068">
        <ele>3.8</ele>
        <time>2024-09-22T06:49:43Z</time>
      </trkpt>
      <trkpt lat="49.24534" lon="-0.10064">
        <ele>3.6</ele>
        <time>2024-09-22T06:49:44Z</time>
      </trkpt>
      <trkpt lat="49.24529" lon="-0.1006">
        <ele>3.6</ele>
        <time>2024-09-22T06:49:45Z</time>
      </trkpt>
      <trkpt lat="49.24524" lon="-0.10056">
        <ele>3.8</ele>
        <time>2024-09-22T06:49:46Z</time>
      </trkpt>
      <trkpt lat="49.24519" lon="-0.10052">
        <ele>4</ele>
        <time>2024-09-22T06:49:47Z</time>
      </trkpt>
      <trkpt lat="49.24514" lon="-0.10048">
        <ele>4.6</ele>
        <time>2024-09-22T06:49:48Z</time>
      </trkpt>
      <trkpt lat="49.24509" lon="-0.10044">
        <ele>5.2</ele>
        <time>2024-09-22T06:49:49Z</time>
      </trkpt>
      <trkpt lat="49.24504" lon="-0.1004">
        <ele>5.6</ele>
        <time>2024-09-22T06:49:50Z</time>
      </trkpt>
      <trkpt lat="49.24499" lon="-0.10036">
        <ele>5.8</ele>
        <time>2024-09-22T06:49:51Z</time>
      </trkpt>
      <trkpt lat="49.24494" lon="-0.10032">
        <ele>5.8</ele>
        <time>2024-09-22T06:49:52Z</time>
      </trkpt>
      <trkpt lat="49.24488" lon="-0.10028">
        <ele>6</ele>
        <time>2024-09-22T06:49:53Z</time>
      </trkpt>
      <trkpt lat="49.24483" lon="-0.10024">
        <ele>6.2</ele>
        <time>2024-09-22T06:49:54Z</time>
      </trkpt>
      <trkpt lat="49.24478" lon="-0.1002">
        <ele>6.4</ele>
        <time>2024-09-22T06:49:55Z</time>
      </trkpt>
      <trkpt lat="49.24473" lon="-0.10015">
        <ele>6.8</ele>
        <time>2024-09-22T06:49:56Z</time>
      </trkpt>
      <trkpt lat="49.24468" lon="-0.10011">
        <ele>6.8</ele>
        <time>2024-09-22T06:49:57Z</time>
      </trkpt>
      <trkpt lat="49.24463" lon="-0.10007">
        <ele>7</ele>
        <time>2024-09-22T06:49:58Z</time>
      </trkpt>
      <trkpt lat="49.24458" lon="-0.10002">
        <ele>7.2</ele>
        <time>2024-09-22T06:49:59Z</time>
      </trkpt>
      <trkpt lat="49.24454" lon="-0.09998">
        <ele>7.6</ele>
        <time>2024-09-22T06:50:00Z</time>
      </trkpt>
      <trkpt lat="49.24448" lon="-0.09991">
        <ele>7.6</ele>
        <time>2024-09-22T06:50:01Z</time>
      </trkpt>
      <trkpt lat="49.24444" lon="-0.09984">
        <ele>8</ele>
        <time>2024-09-22T06:50:02Z</time>
      </trkpt>
      <trkpt lat="49.2444" lon="-0.09978">
        <ele>8.2</ele>
        <time>2024-09-22T06:50:03Z</time>
      </trkpt>
      <trkpt lat="49.24436" lon="-0.09971">
        <ele>8.4</ele>
        <time>2024-09-22T06:50:04Z</time>
      </trkpt>
      <trkpt lat="49.24433" lon="-0.09963">
        <ele>8.6</ele>
        <time>2024-09-22T06:50:05Z</time>
      </trkpt>
      <trkpt lat="49.24431" lon="-0.09956">
        <ele>9</ele>
        <time>2024-09-22T06:50:06Z</time>
      </trkpt>
      <trkpt lat="49.24428" lon="-0.09949">
        <ele>9.2</ele>
        <time>2024-09-22T06:50:07Z</time>
      </trkpt>
      <trkpt lat="49.24426" lon="-0.09942">
        <ele>9.4</ele>
        <time>2024-09-22T06:50:08Z</time>
      </trkpt>
      <trkpt lat="49.24424" lon="-0.09934">
        <ele>9.8</ele>
        <time>2024-09-22T06:50:09Z</time>
      </trkpt>
      <trkpt lat="49.24422" lon="-0.09927">
        <ele>9.8</ele>
        <time>2024-09-22T06:50:10Z</time>
      </trkpt>
      <trkpt lat="49.24421" lon="-0.09918">
        <ele>10</ele>
        <time>2024-09-22T06:50:11Z</time>
      </trkpt>
      <trkpt lat="49.24419" lon="-0.0991">
        <ele>10.2</ele>
        <time>2024-09-22T06:50:12Z</time>
      </trkpt>
      <trkpt lat="49.24416" lon="-0.09901">
        <ele>10.2</ele>
        <time>2024-09-22T06:50:13Z</time>
      </trkpt>
      <trkpt lat="49.24414" lon="-0.09892">
        <ele>10.4</ele>
        <time>2024-09-22T06:50:14Z</time>
      </trkpt>
      <trkpt lat="49.24412" lon="-0.09883">
        <ele>10.6</ele>
        <time>2024-09-22T06:50:15Z</time>
      </trkpt>
      <trkpt lat="49.24409" lon="-0.09874">
        <ele>10.8</ele>
        <time>2024-09-22T06:50:16Z</time>
      </trkpt>
      <trkpt lat="49.24407" lon="-0.09864">
        <ele>10.8</ele>
        <time>2024-09-22T06:50:17Z</time>
      </trkpt>
      <trkpt lat="49.24405" lon="-0.09854">
        <ele>10.8</ele>
        <time>2024-09-22T06:50:18Z</time>
      </trkpt>
      <trkpt lat="49.24403" lon="-0.09845">
        <ele>10.8</ele>
        <time>2024-09-22T06:50:19Z</time>
      </trkpt>
      <trkpt lat="49.244" lon="-0.09835">
        <ele>10.8</ele>
        <time>2024-09-22T06:50:20Z</time>
      </trkpt>
      <trkpt lat="49.24397" lon="-0.09826">
        <ele>10.8</ele>
        <time>2024-09-22T06:50:21Z</time>
      </trkpt>
      <trkpt lat="49.24395" lon="-0.09816">
        <ele>10.8</ele>
        <time>2024-09-22T06:50:22Z</time>
      </trkpt>
      <trkpt lat="49.24392" lon="-0.09806">
        <ele>10.8</ele>
        <time>2024-09-22T06:50:23Z</time>
      </trkpt>
      <trkpt lat="49.24389" lon="-0.09796">
        <ele>10.8</ele>
        <time>2024-09-22T06:50:24Z</time>
      </trkpt>
      <trkpt lat="49.24386" lon="-0.09787">
        <ele>11</ele>
        <time>2024-09-22T06:50:25Z</time>
      </trkpt>
      <trkpt lat="49.24382" lon="-0.09778">
        <ele>11</ele>
        <time>2024-09-22T06:50:26Z</time>
      </trkpt>
      <trkpt lat="49.24378" lon="-0.0977">
        <ele>10.8</ele>
        <time>2024-09-22T06:50:27Z</time>
      </trkpt>
      <trkpt lat="49.24372" lon="-0.09761">
        <ele>10.8</ele>
        <time>2024-09-22T06:50:28Z</time>
      </trkpt>
      <trkpt lat="49.24367" lon="-0.09753">
        <ele>10.6</ele>
        <time>2024-09-22T06:50:29Z</time>
      </trkpt>
      <trkpt lat="49.24361" lon="-0.09746">
        <ele>10.6</ele>
        <time>2024-09-22T06:50:30Z</time>
      </trkpt>
      <trkpt lat="49.24355" lon="-0.09739">
        <ele>10.4</ele>
        <time>2024-09-22T06:50:31Z</time>
      </trkpt>
      <trkpt lat="49.24349" lon="-0.09732">
        <ele>10.2</ele>
        <time>2024-09-22T06:50:32Z</time>
      </trkpt>
      <trkpt lat="49.24342" lon="-0.09725">
        <ele>9.6</ele>
        <time>2024-09-22T06:50:33Z</time>
      </trkpt>
      <trkpt lat="49.24336" lon="-0.09718">
        <ele>9.4</ele>
        <time>2024-09-22T06:50:34Z</time>
      </trkpt>
      <trkpt lat="49.24329" lon="-0.09711">
        <ele>9</ele>
        <time>2024-09-22T06:50:35Z</time>
      </trkpt>
      <trkpt lat="49.24322" lon="-0.09704">
        <ele>9</ele>
        <time>2024-09-22T06:50:36Z</time>
      </trkpt>
      <trkpt lat="49.24316" lon="-0.09698">
        <ele>9</ele>
        <time>2024-09-22T06:50:37Z</time>
      </trkpt>
      <trkpt lat="49.24309" lon="-0.09691">
        <ele>9</ele>
        <time>2024-09-22T06:50:38Z</time>
      </trkpt>
      <trkpt lat="49.24304" lon="-0.09686">
        <ele>8.8</ele>
        <time>2024-09-22T06:50:39Z</time>
      </trkpt>
      <trkpt lat="49.24298" lon="-0.09679">
        <ele>8.6</ele>
        <time>2024-09-22T06:50:40Z</time>
      </trkpt>
      <trkpt lat="49.24292" lon="-0.09672">
        <ele>8.2</ele>
        <time>2024-09-22T06:50:41Z</time>
      </trkpt>
      <trkpt lat="49.24286" lon="-0.09666">
        <ele>7.6</ele>
        <time>2024-09-22T06:50:42Z</time>
      </trkpt>
      <trkpt lat="49.24279" lon="-0.0966">
        <ele>7.4</ele>
        <time>2024-09-22T06:50:43Z</time>
      </trkpt>
      <trkpt lat="49.24273" lon="-0.09653">
        <ele>7.2</ele>
        <time>2024-09-22T06:50:44Z</time>
      </trkpt>
      <trkpt lat="49.24266" lon="-0.09645">
        <ele>7</ele>
        <time>2024-09-22T06:50:45Z</time>
      </trkpt>
      <trkpt lat="49.2426" lon="-0.09638">
        <ele>7</ele>
        <time>2024-09-22T06:50:46Z</time>
      </trkpt>
      <trkpt lat="49.24254" lon="-0.09632">
        <ele>6.8</ele>
        <time>2024-09-22T06:50:47Z</time>
      </trkpt>
      <trkpt lat="49.24247" lon="-0.09625">
        <ele>6.8</ele>
        <time>2024-09-22T06:50:48Z</time>
      </trkpt>
      <trkpt lat="49.24241" lon="-0.09619">
        <ele>6.6</ele>
        <time>2024-09-22T06:50:49Z</time>
      </trkpt>
      <trkpt lat="49.24235" lon="-0.09612">
        <ele>6.6</ele>
        <time>2024-09-22T06:50:50Z</time>
      </trkpt>
      <trkpt lat="49.24229" lon="-0.09605">
        <ele>6.6</ele>
        <time>2024-09-22T06:50:51Z</time>
      </trkpt>
      <trkpt lat="49.24223" lon="-0.09598">
        <ele>6.6</ele>
        <time>2024-09-22T06:50:52Z</time>
      </trkpt>
      <trkpt lat="49.24217" lon="-0.09591">
        <ele>6.4</ele>
        <time>2024-09-22T06:50:53Z</time>
      </trkpt>
      <trkpt lat="49.24211" lon="-0.09584">
        <ele>6.4</ele>
        <time>2024-09-22T06:50:54Z</time>
      </trkpt>
      <trkpt lat="49.24205" lon="-0.09577">
        <ele>6.4</ele>
        <time>2024-09-22T06:50:55Z</time>
      </trkpt>
      <trkpt lat="49.242" lon="-0.09569">
        <ele>6.4</ele>
        <time>2024-09-22T06:50:56Z</time>
      </trkpt>
      <trkpt lat="49.24195" lon="-0.09561">
        <ele>6.4</ele>
        <time>2024-09-22T06:50:57Z</time>
      </trkpt>
      <trkpt lat="49.2419" lon="-0.09553">
        <ele>6.4</ele>
        <time>2024-09-22T06:50:58Z</time>
      </trkpt>
      <trkpt lat="49.24185" lon="-0.09544">
        <ele>6.4</ele>
        <time>2024-09-22T06:50:59Z</time>
      </trkpt>
      <trkpt lat="49.2418" lon="-0.09535">
        <ele>6.4</ele>
        <time>2024-09-22T06:51:00Z</time>
      </trkpt>
      <trkpt lat="49.24176" lon="-0.09525">
        <ele>6.6</ele>
        <time>2024-09-22T06:51:01Z</time>
      </trkpt>
      <trkpt lat="49.24172" lon="-0.09516">
        <ele>6.6</ele>
        <time>2024-09-22T06:51:02Z</time>
      </trkpt>
      <trkpt lat="49.24169" lon="-0.09505">
        <ele>6.4</ele>
        <time>2024-09-22T06:51:03Z</time>
      </trkpt>
      <trkpt lat="49.24166" lon="-0.09495">
        <ele>6.6</ele>
        <time>2024-09-22T06:51:04Z</time>
      </trkpt>
      <trkpt lat="49.24164" lon="-0.09484">
        <ele>6.6</ele>
        <time>2024-09-22T06:51:05Z</time>
      </trkpt>
      <trkpt lat="49.24161" lon="-0.09473">
        <ele>6.6</ele>
        <time>2024-09-22T06:51:06Z</time>
      </trkpt>
      <trkpt lat="49.24159" lon="-0.09461">
        <ele>6.6</ele>
        <time>2024-09-22T06:51:07Z</time>
      </trkpt>
      <trkpt lat="49.24157" lon="-0.09449">
        <ele>6.8</ele>
        <time>2024-09-22T06:51:08Z</time>
      </trkpt>
      <trkpt lat="49.24155" lon="-0.09438">
        <ele>6.8</ele>
        <time>2024-09-22T06:51:09Z</time>
      </trkpt>
      <trkpt lat="49.24154" lon="-0.09426">
        <ele>6.8</ele>
        <time>2024-09-22T06:51:10Z</time>
      </trkpt>
      <trkpt lat="49.24152" lon="-0.09415">
        <ele>6.8</ele>
        <time>2024-09-22T06:51:11Z</time>
      </trkpt>
      <trkpt lat="49.2415" lon="-0.09403">
        <ele>6.8</ele>
        <time>2024-09-22T06:51:12Z</time>
      </trkpt>
      <trkpt lat="49.24149" lon="-0.09392">
        <ele>6.8</ele>
        <time>2024-09-22T06:51:13Z</time>
      </trkpt>
      <trkpt lat="49.24148" lon="-0.09381">
        <ele>6.8</ele>
        <time>2024-09-22T06:51:14Z</time>
      </trkpt>
      <trkpt lat="49.24146" lon="-0.0937">
        <ele>6.8</ele>
        <time>2024-09-22T06:51:15Z</time>
      </trkpt>
      <trkpt lat="49.24145" lon="-0.09359">
        <ele>6.8</ele>
        <time>2024-09-22T06:51:16Z</time>
      </trkpt>
      <trkpt lat="49.24144" lon="-0.09347">
        <ele>6.8</ele>
        <time>2024-09-22T06:51:17Z</time>
      </trkpt>
      <trkpt lat="49.24142" lon="-0.09336">
        <ele>6.8</ele>
        <time>2024-09-22T06:51:18Z</time>
      </trkpt>
      <trkpt lat="49.24141" lon="-0.09324">
        <ele>6.8</ele>
        <time>2024-09-22T06:51:19Z</time>
      </trkpt>
      <trkpt lat="49.2414" lon="-0.09312">
        <ele>6.8</ele>
        <time>2024-09-22T06:51:20Z</time>
      </trkpt>
      <trkpt lat="49.24138" lon="-0.09301">
        <ele>6.6</ele>
        <time>2024-09-22T06:51:21Z</time>
      </trkpt>
      <trkpt lat="49.24137" lon="-0.09291">
        <ele>6.4</ele>
        <time>2024-09-22T06:51:22Z</time>
      </trkpt>
      <trkpt lat="49.24136" lon="-0.0928">
        <ele>6.4</ele>
        <time>2024-09-22T06:51:23Z</time>
      </trkpt>
      <trkpt lat="49.24134" lon="-0.09265">
        <ele>6.2</ele>
        <time>2024-09-22T06:51:24Z</time>
      </trkpt>
      <trkpt lat="49.24133" lon="-0.09253">
        <ele>6.2</ele>
        <time>2024-09-22T06:51:25Z</time>
      </trkpt>
      <trkpt lat="49.24131" lon="-0.09242">
        <ele>6</ele>
        <time>2024-09-22T06:51:26Z</time>
      </trkpt>
      <trkpt lat="49.2413" lon="-0.0923">
        <ele>5.8</ele>
        <time>2024-09-22T06:51:27Z</time>
      </trkpt>
      <trkpt lat="49.24128" lon="-0.09219">
        <ele>5.8</ele>
        <time>2024-09-22T06:51:28Z</time>
      </trkpt>
      <trkpt lat="49.24126" lon="-0.09207">
        <ele>5.8</ele>
        <time>2024-09-22T06:51:29Z</time>
      </trkpt>
      <trkpt lat="49.24124" lon="-0.09196">
        <ele>5.8</ele>
        <time>2024-09-22T06:51:30Z</time>
      </trkpt>
      <trkpt lat="49.24122" lon="-0.09184">
        <ele>5.6</ele>
        <time>2024-09-22T06:51:31Z</time>
      </trkpt>
      <trkpt lat="49.2412" lon="-0.09173">
        <ele>5.6</ele>
        <time>2024-09-22T06:51:32Z</time>
      </trkpt>
      <trkpt lat="49.24117" lon="-0.09162">
        <ele>5.6</ele>
        <time>2024-09-22T06:51:33Z</time>
      </trkpt>
      <trkpt lat="49.24114" lon="-0.09151">
        <ele>5.6</ele>
        <time>2024-09-22T06:51:34Z</time>
      </trkpt>
      <trkpt lat="49.24111" lon="-0.09141">
        <ele>5.6</ele>
        <time>2024-09-22T06:51:35Z</time>
      </trkpt>
      <trkpt lat="49.24108" lon="-0.09131">
        <ele>5.6</ele>
        <time>2024-09-22T06:51:36Z</time>
      </trkpt>
      <trkpt lat="49.24104" lon="-0.0912">
        <ele>5.6</ele>
        <time>2024-09-22T06:51:37Z</time>
      </trkpt>
      <trkpt lat="49.24101" lon="-0.0911">
        <ele>5.8</ele>
        <time>2024-09-22T06:51:38Z</time>
      </trkpt>
      <trkpt lat="49.24098" lon="-0.09099">
        <ele>5.8</ele>
        <time>2024-09-22T06:51:39Z</time>
      </trkpt>
      <trkpt lat="49.24095" lon="-0.09088">
        <ele>5.8</ele>
        <time>2024-09-22T06:51:40Z</time>
      </trkpt>
      <trkpt lat="49.24091" lon="-0.09078">
        <ele>5.8</ele>
        <time>2024-09-22T06:51:41Z</time>
      </trkpt>
      <trkpt lat="49.24087" lon="-0.09069">
        <ele>5.6</ele>
        <time>2024-09-22T06:51:42Z</time>
      </trkpt>
      <trkpt lat="49.24082" lon="-0.09061">
        <ele>5.8</ele>
        <time>2024-09-22T06:51:43Z</time>
      </trkpt>
      <trkpt lat="49.24076" lon="-0.09054">
        <ele>5.6</ele>
        <time>2024-09-22T06:51:44Z</time>
      </trkpt>
      <trkpt lat="49.2407" lon="-0.09047">
        <ele>5.4</ele>
        <time>2024-09-22T06:51:45Z</time>
      </trkpt>
      <trkpt lat="49.24063" lon="-0.09042">
        <ele>5.4</ele>
        <time>2024-09-22T06:51:46Z</time>
      </trkpt>
      <trkpt lat="49.24056" lon="-0.09038">
        <ele>5.4</ele>
        <time>2024-09-22T06:51:47Z</time>
      </trkpt>
      <trkpt lat="49.24049" lon="-0.09034">
        <ele>5.4</ele>
        <time>2024-09-22T06:51:48Z</time>
      </trkpt>
      <trkpt lat="49.24042" lon="-0.0903">
        <ele>5.4</ele>
        <time>2024-09-22T06:51:49Z</time>
      </trkpt>
      <trkpt lat="49.24035" lon="-0.09026">
        <ele>5.4</ele>
        <time>2024-09-22T06:51:50Z</time>
      </trkpt>
      <trkpt lat="49.24028" lon="-0.09021">
        <ele>5.4</ele>
        <time>2024-09-22T06:51:51Z</time>
      </trkpt>
      <trkpt lat="49.24021" lon="-0.09015">
        <ele>5.4</ele>
        <time>2024-09-22T06:51:52Z</time>
      </trkpt>
      <trkpt lat="49.24015" lon="-0.09008">
        <ele>5.2</ele>
        <time>2024-09-22T06:51:53Z</time>
      </trkpt>
      <trkpt lat="49.24009" lon="-0.09002">
        <ele>5.2</ele>
        <time>2024-09-22T06:51:54Z</time>
      </trkpt>
      <trkpt lat="49.24004" lon="-0.08994">
        <ele>5.2</ele>
        <time>2024-09-22T06:51:55Z</time>
      </trkpt>
      <trkpt lat="49.23998" lon="-0.08987">
        <ele>5</ele>
        <time>2024-09-22T06:51:56Z</time>
      </trkpt>
      <trkpt lat="49.23993" lon="-0.08978">
        <ele>5</ele>
        <time>2024-09-22T06:51:57Z</time>
      </trkpt>
      <trkpt lat="49.23988" lon="-0.0897">
        <ele>5</ele>
        <time>2024-09-22T06:51:58Z</time>
      </trkpt>
      <trkpt lat="49.23983" lon="-0.08962">
        <ele>5</ele>
        <time>2024-09-22T06:51:59Z</time>
      </trkpt>
      <trkpt lat="49.23978" lon="-0.08953">
        <ele>5</ele>
        <time>2024-09-22T06:52:00Z</time>
      </trkpt>
      <trkpt lat="49.23974" lon="-0.08943">
        <ele>4.8</ele>
        <time>2024-09-22T06:52:01Z</time>
      </trkpt>
      <trkpt lat="49.2397" lon="-0.08933">
        <ele>4.8</ele>
        <time>2024-09-22T06:52:02Z</time>
      </trkpt>
      <trkpt lat="49.23967" lon="-0.08922">
        <ele>4.8</ele>
        <time>2024-09-22T06:52:03Z</time>
      </trkpt>
      <trkpt lat="49.23966" lon="-0.08913">
        <ele>4.8</ele>
        <time>2024-09-22T06:52:04Z</time>
      </trkpt>
      <trkpt lat="49.23963" lon="-0.08902">
        <ele>4.8</ele>
        <time>2024-09-22T06:52:05Z</time>
      </trkpt>
      <trkpt lat="49.23962" lon="-0.08889">
        <ele>4.8</ele>
        <time>2024-09-22T06:52:06Z</time>
      </trkpt>
      <trkpt lat="49.23961" lon="-0.08878">
        <ele>4.8</ele>
        <time>2024-09-22T06:52:07Z</time>
      </trkpt>
      <trkpt lat="49.23959" lon="-0.08867">
        <ele>4.8</ele>
        <time>2024-09-22T06:52:08Z</time>
      </trkpt>
      <trkpt lat="49.23958" lon="-0.08856">
        <ele>4.8</ele>
        <time>2024-09-22T06:52:09Z</time>
      </trkpt>
      <trkpt lat="49.23957" lon="-0.08845">
        <ele>4.8</ele>
        <time>2024-09-22T06:52:10Z</time>
      </trkpt>
      <trkpt lat="49.23955" lon="-0.08834">
        <ele>4.8</ele>
        <time>2024-09-22T06:52:11Z</time>
      </trkpt>
      <trkpt lat="49.23954" lon="-0.08823">
        <ele>4.8</ele>
        <time>2024-09-22T06:52:12Z</time>
      </trkpt>
      <trkpt lat="49.23953" lon="-0.08812">
        <ele>5</ele>
        <time>2024-09-22T06:52:13Z</time>
      </trkpt>
      <trkpt lat="49.2395" lon="-0.08801">
        <ele>5</ele>
        <time>2024-09-22T06:52:14Z</time>
      </trkpt>
      <trkpt lat="49.23948" lon="-0.0879">
        <ele>4.8</ele>
        <time>2024-09-22T06:52:15Z</time>
      </trkpt>
      <trkpt lat="49.23946" lon="-0.08779">
        <ele>4.8</ele>
        <time>2024-09-22T06:52:16Z</time>
      </trkpt>
      <trkpt lat="49.23943" lon="-0.08768">
        <ele>4.6</ele>
        <time>2024-09-22T06:52:17Z</time>
      </trkpt>
      <trkpt lat="49.2394" lon="-0.08758">
        <ele>4.6</ele>
        <time>2024-09-22T06:52:18Z</time>
      </trkpt>
      <trkpt lat="49.23938" lon="-0.08747">
        <ele>4.6</ele>
        <time>2024-09-22T06:52:19Z</time>
      </trkpt>
      <trkpt lat="49.23935" lon="-0.08736">
        <ele>4.6</ele>
        <time>2024-09-22T06:52:20Z</time>
      </trkpt>
      <trkpt lat="49.23932" lon="-0.08726">
        <ele>4.6</ele>
        <time>2024-09-22T06:52:21Z</time>
      </trkpt>
      <trkpt lat="49.2393" lon="-0.08716">
        <ele>4.6</ele>
        <time>2024-09-22T06:52:22Z</time>
      </trkpt>
      <trkpt lat="49.23928" lon="-0.08705">
        <ele>4.6</ele>
        <time>2024-09-22T06:52:23Z</time>
      </trkpt>
      <trkpt lat="49.23926" lon="-0.08694">
        <ele>4.6</ele>
        <time>2024-09-22T06:52:24Z</time>
      </trkpt>
      <trkpt lat="49.23924" lon="-0.08683">
        <ele>4.6</ele>
        <time>2024-09-22T06:52:25Z</time>
      </trkpt>
      <trkpt lat="49.23922" lon="-0.08671">
        <ele>4.6</ele>
        <time>2024-09-22T06:52:26Z</time>
      </trkpt>
      <trkpt lat="49.23921" lon="-0.0866">
        <ele>4.6</ele>
        <time>2024-09-22T06:52:27Z</time>
      </trkpt>
      <trkpt lat="49.2392" lon="-0.08648">
        <ele>5</ele>
        <time>2024-09-22T06:52:28Z</time>
      </trkpt>
      <trkpt lat="49.23919" lon="-0.08637">
        <ele>4.8</ele>
        <time>2024-09-22T06:52:29Z</time>
      </trkpt>
      <trkpt lat="49.23918" lon="-0.08625">
        <ele>5</ele>
        <time>2024-09-22T06:52:30Z</time>
      </trkpt>
      <trkpt lat="49.23917" lon="-0.08614">
        <ele>5</ele>
        <time>2024-09-22T06:52:31Z</time>
      </trkpt>
      <trkpt lat="49.23915" lon="-0.08602">
        <ele>5.4</ele>
        <time>2024-09-22T06:52:32Z</time>
      </trkpt>
      <trkpt lat="49.23914" lon="-0.08591">
        <ele>5.4</ele>
        <time>2024-09-22T06:52:33Z</time>
      </trkpt>
      <trkpt lat="49.23913" lon="-0.0858">
        <ele>5.2</ele>
        <time>2024-09-22T06:52:34Z</time>
      </trkpt>
      <trkpt lat="49.2391" lon="-0.08569">
        <ele>5.2</ele>
        <time>2024-09-22T06:52:35Z</time>
      </trkpt>
      <trkpt lat="49.23908" lon="-0.08559">
        <ele>5.6</ele>
        <time>2024-09-22T06:52:36Z</time>
      </trkpt>
      <trkpt lat="49.23904" lon="-0.08548">
        <ele>5.6</ele>
        <time>2024-09-22T06:52:37Z</time>
      </trkpt>
      <trkpt lat="49.23901" lon="-0.08538">
        <ele>5.4</ele>
        <time>2024-09-22T06:52:38Z</time>
      </trkpt>
      <trkpt lat="49.23898" lon="-0.08527">
        <ele>5.4</ele>
        <time>2024-09-22T06:52:39Z</time>
      </trkpt>
      <trkpt lat="49.23895" lon="-0.08517">
        <ele>5.4</ele>
        <time>2024-09-22T06:52:40Z</time>
      </trkpt>
      <trkpt lat="49.23891" lon="-0.08506">
        <ele>5.4</ele>
        <time>2024-09-22T06:52:41Z</time>
      </trkpt>
      <trkpt lat="49.23889" lon="-0.08496">
        <ele>5.6</ele>
        <time>2024-09-22T06:52:42Z</time>
      </trkpt>
      <trkpt lat="49.23886" lon="-0.08485">
        <ele>5.4</ele>
        <time>2024-09-22T06:52:43Z</time>
      </trkpt>
      <trkpt lat="49.23883" lon="-0.08474">
        <ele>5.8</ele>
        <time>2024-09-22T06:52:44Z</time>
      </trkpt>
      <trkpt lat="49.23881" lon="-0.08463">
        <ele>5.8</ele>
        <time>2024-09-22T06:52:45Z</time>
      </trkpt>
      <trkpt lat="49.2388" lon="-0.08452">
        <ele>5.8</ele>
        <time>2024-09-22T06:52:46Z</time>
      </trkpt>
      <trkpt lat="49.23878" lon="-0.08443">
        <ele>5.8</ele>
        <time>2024-09-22T06:52:47Z</time>
      </trkpt>
      <trkpt lat="49.23877" lon="-0.08431">
        <ele>6</ele>
        <time>2024-09-22T06:52:48Z</time>
      </trkpt>
      <trkpt lat="49.23876" lon="-0.0842">
        <ele>6</ele>
        <time>2024-09-22T06:52:49Z</time>
      </trkpt>
      <trkpt lat="49.23875" lon="-0.08409">
        <ele>6</ele>
        <time>2024-09-22T06:52:50Z</time>
      </trkpt>
      <trkpt lat="49.23875" lon="-0.08396">
        <ele>5.8</ele>
        <time>2024-09-22T06:52:51Z</time>
      </trkpt>
      <trkpt lat="49.23876" lon="-0.08385">
        <ele>5.8</ele>
        <time>2024-09-22T06:52:52Z</time>
      </trkpt>
      <trkpt lat="49.23876" lon="-0.08373">
        <ele>6</ele>
        <time>2024-09-22T06:52:53Z</time>
      </trkpt>
      <trkpt lat="49.23877" lon="-0.08362">
        <ele>5.8</ele>
        <time>2024-09-22T06:52:54Z</time>
      </trkpt>
      <trkpt lat="49.23878" lon="-0.08351">
        <ele>6</ele>
        <time>2024-09-22T06:52:55Z</time>
      </trkpt>
      <trkpt lat="49.23878" lon="-0.08339">
        <ele>6</ele>
        <time>2024-09-22T06:52:56Z</time>
      </trkpt>
      <trkpt lat="49.23878" lon="-0.08328">
        <ele>6</ele>
        <time>2024-09-22T06:52:57Z</time>
      </trkpt>
      <trkpt lat="49.23878" lon="-0.08317">
        <ele>6</ele>
        <time>2024-09-22T06:52:58Z</time>
      </trkpt>
      <trkpt lat="49.23877" lon="-0.08306">
        <ele>6</ele>
        <time>2024-09-22T06:52:59Z</time>
      </trkpt>
      <trkpt lat="49.23876" lon="-0.08295">
        <ele>6</ele>
        <time>2024-09-22T06:53:00Z</time>
      </trkpt>
      <trkpt lat="49.23874" lon="-0.08284">
        <ele>6</ele>
        <time>2024-09-22T06:53:01Z</time>
      </trkpt>
      <trkpt lat="49.23873" lon="-0.08276">
        <ele>6</ele>
        <time>2024-09-22T06:53:02Z</time>
      </trkpt>
      <trkpt lat="49.2387" lon="-0.08267">
        <ele>6</ele>
        <time>2024-09-22T06:53:03Z</time>
      </trkpt>
      <trkpt lat="49.23866" lon="-0.08257">
        <ele>6</ele>
        <time>2024-09-22T06:53:04Z</time>
      </trkpt>
      <trkpt lat="49.23862" lon="-0.08251">
        <ele>6</ele>
        <time>2024-09-22T06:53:05Z</time>
      </trkpt>
      <trkpt lat="49.23856" lon="-0.08242">
        <ele>6</ele>
        <time>2024-09-22T06:53:06Z</time>
      </trkpt>
      <trkpt lat="49.2385" lon="-0.08234">
        <ele>6</ele>
        <time>2024-09-22T06:53:07Z</time>
      </trkpt>
      <trkpt lat="49.23846" lon="-0.08228">
        <ele>6</ele>
        <time>2024-09-22T06:53:08Z</time>
      </trkpt>
      <trkpt lat="49.2384" lon="-0.0822">
        <ele>6</ele>
        <time>2024-09-22T06:53:09Z</time>
      </trkpt>
      <trkpt lat="49.23834" lon="-0.08212">
        <ele>6</ele>
        <time>2024-09-22T06:53:10Z</time>
      </trkpt>
      <trkpt lat="49.23829" lon="-0.08204">
        <ele>6</ele>
        <time>2024-09-22T06:53:11Z</time>
      </trkpt>
      <trkpt lat="49.23822" lon="-0.08194">
        <ele>6</ele>
        <time>2024-09-22T06:53:12Z</time>
      </trkpt>
      <trkpt lat="49.23815" lon="-0.08185">
        <ele>6</ele>
        <time>2024-09-22T06:53:13Z</time>
      </trkpt>
      <trkpt lat="49.2381" lon="-0.08179">
        <ele>6</ele>
        <time>2024-09-22T06:53:14Z</time>
      </trkpt>
      <trkpt lat="49.23802" lon="-0.0817">
        <ele>6</ele>
        <time>2024-09-22T06:53:15Z</time>
      </trkpt>
      <trkpt lat="49.23796" lon="-0.08162">
        <ele>6</ele>
        <time>2024-09-22T06:53:16Z</time>
      </trkpt>
      <trkpt lat="49.23791" lon="-0.08156">
        <ele>6</ele>
        <time>2024-09-22T06:53:17Z</time>
      </trkpt>
      <trkpt lat="49.23783" lon="-0.08147">
        <ele>6</ele>
        <time>2024-09-22T06:53:18Z</time>
      </trkpt>
      <trkpt lat="49.23776" lon="-0.08139">
        <ele>6</ele>
        <time>2024-09-22T06:53:19Z</time>
      </trkpt>
      <trkpt lat="49.23771" lon="-0.08133">
        <ele>5.8</ele>
        <time>2024-09-22T06:53:20Z</time>
      </trkpt>
      <trkpt lat="49.23763" lon="-0.08125">
        <ele>5.4</ele>
        <time>2024-09-22T06:53:21Z</time>
      </trkpt>
      <trkpt lat="49.23757" lon="-0.08118">
        <ele>5.2</ele>
        <time>2024-09-22T06:53:22Z</time>
      </trkpt>
      <trkpt lat="49.23751" lon="-0.08113">
        <ele>5</ele>
        <time>2024-09-22T06:53:23Z</time>
      </trkpt>
      <trkpt lat="49.23745" lon="-0.08105">
        <ele>4.8</ele>
        <time>2024-09-22T06:53:24Z</time>
      </trkpt>
      <trkpt lat="49.23738" lon="-0.08098">
        <ele>4.6</ele>
        <time>2024-09-22T06:53:25Z</time>
      </trkpt>
      <trkpt lat="49.23732" lon="-0.08091">
        <ele>4.6</ele>
        <time>2024-09-22T06:53:26Z</time>
      </trkpt>
      <trkpt lat="49.23725" lon="-0.08081">
        <ele>4.6</ele>
        <time>2024-09-22T06:53:27Z</time>
      </trkpt>
      <trkpt lat="49.2372" lon="-0.08074">
        <ele>4.4</ele>
        <time>2024-09-22T06:53:28Z</time>
      </trkpt>
      <trkpt lat="49.23716" lon="-0.08065">
        <ele>4.4</ele>
        <time>2024-09-22T06:53:29Z</time>
      </trkpt>
      <trkpt lat="49.23713" lon="-0.08054">
        <ele>4.2</ele>
        <time>2024-09-22T06:53:30Z</time>
      </trkpt>
      <trkpt lat="49.23711" lon="-0.08043">
        <ele>4.2</ele>
        <time>2024-09-22T06:53:31Z</time>
      </trkpt>
      <trkpt lat="49.2371" lon="-0.08032">
        <ele>4</ele>
        <time>2024-09-22T06:53:32Z</time>
      </trkpt>
      <trkpt lat="49.23711" lon="-0.08021">
        <ele>4</ele>
        <time>2024-09-22T06:53:33Z</time>
      </trkpt>
      <trkpt lat="49.23712" lon="-0.0801">
        <ele>4</ele>
        <time>2024-09-22T06:53:34Z</time>
      </trkpt>
      <trkpt lat="49.23713" lon="-0.07999">
        <ele>4</ele>
        <time>2024-09-22T06:53:35Z</time>
      </trkpt>
      <trkpt lat="49.23715" lon="-0.07984">
        <ele>4</ele>
        <time>2024-09-22T06:53:36Z</time>
      </trkpt>
      <trkpt lat="49.23716" lon="-0.07975">
        <ele>4</ele>
        <time>2024-09-22T06:53:37Z</time>
      </trkpt>
      <trkpt lat="49.23717" lon="-0.07963">
        <ele>4</ele>
        <time>2024-09-22T06:53:38Z</time>
      </trkpt>
      <trkpt lat="49.23719" lon="-0.07951">
        <ele>4</ele>
        <time>2024-09-22T06:53:39Z</time>
      </trkpt>
      <trkpt lat="49.23721" lon="-0.07939">
        <ele>4</ele>
        <time>2024-09-22T06:53:40Z</time>
      </trkpt>
      <trkpt lat="49.23723" lon="-0.07928">
        <ele>4.2</ele>
        <time>2024-09-22T06:53:41Z</time>
      </trkpt>
      <trkpt lat="49.23724" lon="-0.07917">
        <ele>4.2</ele>
        <time>2024-09-22T06:53:42Z</time>
      </trkpt>
      <trkpt lat="49.23726" lon="-0.07907">
        <ele>4.2</ele>
        <time>2024-09-22T06:53:43Z</time>
      </trkpt>
      <trkpt lat="49.23728" lon="-0.07896">
        <ele>4.2</ele>
        <time>2024-09-22T06:53:44Z</time>
      </trkpt>
      <trkpt lat="49.2373" lon="-0.07885">
        <ele>4.4</ele>
        <time>2024-09-22T06:53:45Z</time>
      </trkpt>
      <trkpt lat="49.23731" lon="-0.07874">
        <ele>4.4</ele>
        <time>2024-09-22T06:53:46Z</time>
      </trkpt>
      <trkpt lat="49.23733" lon="-0.07861">
        <ele>4.4</ele>
        <time>2024-09-22T06:53:47Z</time>
      </trkpt>
      <trkpt lat="49.23734" lon="-0.07852">
        <ele>4.6</ele>
        <time>2024-09-22T06:53:48Z</time>
      </trkpt>
      <trkpt lat="49.23734" lon="-0.07841">
        <ele>4.6</ele>
        <time>2024-09-22T06:53:49Z</time>
      </trkpt>
      <trkpt lat="49.23734" lon="-0.07829">
        <ele>4.8</ele>
        <time>2024-09-22T06:53:50Z</time>
      </trkpt>
      <trkpt lat="49.23732" lon="-0.07818">
        <ele>4.8</ele>
        <time>2024-09-22T06:53:51Z</time>
      </trkpt>
      <trkpt lat="49.23731" lon="-0.07807">
        <ele>5</ele>
        <time>2024-09-22T06:53:52Z</time>
      </trkpt>
      <trkpt lat="49.23728" lon="-0.07795">
        <ele>5</ele>
        <time>2024-09-22T06:53:53Z</time>
      </trkpt>
      <trkpt lat="49.23725" lon="-0.07784">
        <ele>5</ele>
        <time>2024-09-22T06:53:54Z</time>
      </trkpt>
      <trkpt lat="49.23722" lon="-0.07773">
        <ele>5</ele>
        <time>2024-09-22T06:53:55Z</time>
      </trkpt>
      <trkpt lat="49.23719" lon="-0.07762">
        <ele>5</ele>
        <time>2024-09-22T06:53:56Z</time>
      </trkpt>
      <trkpt lat="49.23716" lon="-0.07751">
        <ele>5</ele>
        <time>2024-09-22T06:53:57Z</time>
      </trkpt>
      <trkpt lat="49.23713" lon="-0.0774">
        <ele>5.2</ele>
        <time>2024-09-22T06:53:58Z</time>
      </trkpt>
      <trkpt lat="49.23711" lon="-0.07729">
        <ele>5.2</ele>
        <time>2024-09-22T06:53:59Z</time>
      </trkpt>
      <trkpt lat="49.23709" lon="-0.07718">
        <ele>5.2</ele>
        <time>2024-09-22T06:54:00Z</time>
      </trkpt>
      <trkpt lat="49.23709" lon="-0.07706">
        <ele>5.2</ele>
        <time>2024-09-22T06:54:01Z</time>
      </trkpt>
      <trkpt lat="49.2371" lon="-0.07694">
        <ele>5.2</ele>
        <time>2024-09-22T06:54:02Z</time>
      </trkpt>
      <trkpt lat="49.2371" lon="-0.07682">
        <ele>5.2</ele>
        <time>2024-09-22T06:54:03Z</time>
      </trkpt>
      <trkpt lat="49.2371" lon="-0.07671">
        <ele>5.2</ele>
        <time>2024-09-22T06:54:04Z</time>
      </trkpt>
      <trkpt lat="49.23711" lon="-0.07659">
        <ele>5.2</ele>
        <time>2024-09-22T06:54:05Z</time>
      </trkpt>
      <trkpt lat="49.23712" lon="-0.07648">
        <ele>5.2</ele>
        <time>2024-09-22T06:54:06Z</time>
      </trkpt>
      <trkpt lat="49.23712" lon="-0.07637">
        <ele>5.2</ele>
        <time>2024-09-22T06:54:07Z</time>
      </trkpt>
      <trkpt lat="49.23713" lon="-0.07626">
        <ele>5.2</ele>
        <time>2024-09-22T06:54:08Z</time>
      </trkpt>
      <trkpt lat="49.23714" lon="-0.07614">
        <ele>5.2</ele>
        <time>2024-09-22T06:54:09Z</time>
      </trkpt>
      <trkpt lat="49.23713" lon="-0.07603">
        <ele>5.2</ele>
        <time>2024-09-22T06:54:10Z</time>
      </trkpt>
      <trkpt lat="49.23713" lon="-0.07592">
        <ele>5.2</ele>
        <time>2024-09-22T06:54:11Z</time>
      </trkpt>
      <trkpt lat="49.23713" lon="-0.0758">
        <ele>5.2</ele>
        <time>2024-09-22T06:54:12Z</time>
      </trkpt>
      <trkpt lat="49.23712" lon="-0.07569">
        <ele>5.2</ele>
        <time>2024-09-22T06:54:13Z</time>
      </trkpt>
      <trkpt lat="49.23712" lon="-0.07558">
        <ele>5.2</ele>
        <time>2024-09-22T06:54:14Z</time>
      </trkpt>
      <trkpt lat="49.23712" lon="-0.07547">
        <ele>5.2</ele>
        <time>2024-09-22T06:54:15Z</time>
      </trkpt>
      <trkpt lat="49.23712" lon="-0.07535">
        <ele>5.2</ele>
        <time>2024-09-22T06:54:16Z</time>
      </trkpt>
      <trkpt lat="49.23713" lon="-0.07522">
        <ele>5.2</ele>
        <time>2024-09-22T06:54:17Z</time>
      </trkpt>
      <trkpt lat="49.23714" lon="-0.07512">
        <ele>5.2</ele>
        <time>2024-09-22T06:54:18Z</time>
      </trkpt>
      <trkpt lat="49.23715" lon="-0.07501">
        <ele>5.2</ele>
        <time>2024-09-22T06:54:19Z</time>
      </trkpt>
      <trkpt lat="49.23716" lon="-0.07489">
        <ele>5.4</ele>
        <time>2024-09-22T06:54:20Z</time>
      </trkpt>
      <trkpt lat="49.23717" lon="-0.07477">
        <ele>5.4</ele>
        <time>2024-09-22T06:54:21Z</time>
      </trkpt>
      <trkpt lat="49.23718" lon="-0.07464">
        <ele>5.4</ele>
        <time>2024-09-22T06:54:22Z</time>
      </trkpt>
      <trkpt lat="49.23719" lon="-0.07449">
        <ele>5.4</ele>
        <time>2024-09-22T06:54:23Z</time>
      </trkpt>
      <trkpt lat="49.23719" lon="-0.07439">
        <ele>5.4</ele>
        <time>2024-09-22T06:54:24Z</time>
      </trkpt>
      <trkpt lat="49.23718" lon="-0.07427">
        <ele>5.4</ele>
        <time>2024-09-22T06:54:25Z</time>
      </trkpt>
      <trkpt lat="49.23717" lon="-0.07415">
        <ele>5.4</ele>
        <time>2024-09-22T06:54:26Z</time>
      </trkpt>
      <trkpt lat="49.23716" lon="-0.07404">
        <ele>5.4</ele>
        <time>2024-09-22T06:54:27Z</time>
      </trkpt>
      <trkpt lat="49.23715" lon="-0.07392">
        <ele>5.4</ele>
        <time>2024-09-22T06:54:28Z</time>
      </trkpt>
      <trkpt lat="49.23714" lon="-0.07381">
        <ele>5.4</ele>
        <time>2024-09-22T06:54:29Z</time>
      </trkpt>
      <trkpt lat="49.23712" lon="-0.0737">
        <ele>5.4</ele>
        <time>2024-09-22T06:54:30Z</time>
      </trkpt>
      <trkpt lat="49.23711" lon="-0.0736">
        <ele>5.4</ele>
        <time>2024-09-22T06:54:31Z</time>
      </trkpt>
      <trkpt lat="49.23709" lon="-0.07349">
        <ele>5.4</ele>
        <time>2024-09-22T06:54:32Z</time>
      </trkpt>
      <trkpt lat="49.23707" lon="-0.07338">
        <ele>5.4</ele>
        <time>2024-09-22T06:54:33Z</time>
      </trkpt>
      <trkpt lat="49.23705" lon="-0.07327">
        <ele>5.4</ele>
        <time>2024-09-22T06:54:34Z</time>
      </trkpt>
      <trkpt lat="49.23703" lon="-0.07317">
        <ele>5.4</ele>
        <time>2024-09-22T06:54:35Z</time>
      </trkpt>
      <trkpt lat="49.23701" lon="-0.07306">
        <ele>5.4</ele>
        <time>2024-09-22T06:54:36Z</time>
      </trkpt>
      <trkpt lat="49.23699" lon="-0.07295">
        <ele>5.4</ele>
        <time>2024-09-22T06:54:37Z</time>
      </trkpt>
      <trkpt lat="49.23698" lon="-0.07284">
        <ele>5.4</ele>
        <time>2024-09-22T06:54:38Z</time>
      </trkpt>
      <trkpt lat="49.23697" lon="-0.07274">
        <ele>5.4</ele>
        <time>2024-09-22T06:54:39Z</time>
      </trkpt>
      <trkpt lat="49.23696" lon="-0.07263">
        <ele>5.4</ele>
        <time>2024-09-22T06:54:40Z</time>
      </trkpt>
      <trkpt lat="49.23695" lon="-0.07252">
        <ele>5.6</ele>
        <time>2024-09-22T06:54:41Z</time>
      </trkpt>
      <trkpt lat="49.23694" lon="-0.07242">
        <ele>5.6</ele>
        <time>2024-09-22T06:54:42Z</time>
      </trkpt>
      <trkpt lat="49.23693" lon="-0.07231">
        <ele>5.6</ele>
        <time>2024-09-22T06:54:43Z</time>
      </trkpt>
      <trkpt lat="49.23691" lon="-0.0722">
        <ele>5.6</ele>
        <time>2024-09-22T06:54:44Z</time>
      </trkpt>
      <trkpt lat="49.2369" lon="-0.0721">
        <ele>5.6</ele>
        <time>2024-09-22T06:54:45Z</time>
      </trkpt>
      <trkpt lat="49.23688" lon="-0.07199">
        <ele>5.6</ele>
        <time>2024-09-22T06:54:46Z</time>
      </trkpt>
      <trkpt lat="49.23686" lon="-0.07189">
        <ele>5.6</ele>
        <time>2024-09-22T06:54:47Z</time>
      </trkpt>
      <trkpt lat="49.23684" lon="-0.07178">
        <ele>5.6</ele>
        <time>2024-09-22T06:54:48Z</time>
      </trkpt>
      <trkpt lat="49.23681" lon="-0.07168">
        <ele>5.6</ele>
        <time>2024-09-22T06:54:49Z</time>
      </trkpt>
      <trkpt lat="49.23677" lon="-0.07158">
        <ele>5.6</ele>
        <time>2024-09-22T06:54:50Z</time>
      </trkpt>
      <trkpt lat="49.23673" lon="-0.07148">
        <ele>5.6</ele>
        <time>2024-09-22T06:54:51Z</time>
      </trkpt>
      <trkpt lat="49.23669" lon="-0.0714">
        <ele>5.6</ele>
        <time>2024-09-22T06:54:52Z</time>
      </trkpt>
      <trkpt lat="49.23664" lon="-0.07131">
        <ele>5.6</ele>
        <time>2024-09-22T06:54:53Z</time>
      </trkpt>
      <trkpt lat="49.23658" lon="-0.07123">
        <ele>5.6</ele>
        <time>2024-09-22T06:54:54Z</time>
      </trkpt>
      <trkpt lat="49.23653" lon="-0.07115">
        <ele>5.6</ele>
        <time>2024-09-22T06:54:55Z</time>
      </trkpt>
      <trkpt lat="49.23648" lon="-0.07107">
        <ele>5.6</ele>
        <time>2024-09-22T06:54:56Z</time>
      </trkpt>
      <trkpt lat="49.23642" lon="-0.071">
        <ele>5.6</ele>
        <time>2024-09-22T06:54:57Z</time>
      </trkpt>
      <trkpt lat="49.23636" lon="-0.07092">
        <ele>5.4</ele>
        <time>2024-09-22T06:54:58Z</time>
      </trkpt>
      <trkpt lat="49.23629" lon="-0.07086">
        <ele>5.4</ele>
        <time>2024-09-22T06:54:59Z</time>
      </trkpt>
      <trkpt lat="49.23621" lon="-0.07078">
        <ele>5.4</ele>
        <time>2024-09-22T06:55:00Z</time>
      </trkpt>
      <trkpt lat="49.23616" lon="-0.07074">
        <ele>5.4</ele>
        <time>2024-09-22T06:55:01Z</time>
      </trkpt>
      <trkpt lat="49.23609" lon="-0.07069">
        <ele>5.4</ele>
        <time>2024-09-22T06:55:02Z</time>
      </trkpt>
      <trkpt lat="49.236" lon="-0.07063">
        <ele>5.2</ele>
        <time>2024-09-22T06:55:03Z</time>
      </trkpt>
      <trkpt lat="49.23595" lon="-0.0706">
        <ele>5.2</ele>
        <time>2024-09-22T06:55:04Z</time>
      </trkpt>
      <trkpt lat="49.23588" lon="-0.07055">
        <ele>5.2</ele>
        <time>2024-09-22T06:55:05Z</time>
      </trkpt>
      <trkpt lat="49.23581" lon="-0.07051">
        <ele>5.2</ele>
        <time>2024-09-22T06:55:06Z</time>
      </trkpt>
      <trkpt lat="49.23574" lon="-0.07046">
        <ele>5.2</ele>
        <time>2024-09-22T06:55:07Z</time>
      </trkpt>
      <trkpt lat="49.23567" lon="-0.07042">
        <ele>5.2</ele>
        <time>2024-09-22T06:55:08Z</time>
      </trkpt>
      <trkpt lat="49.23558" lon="-0.07036">
        <ele>5</ele>
        <time>2024-09-22T06:55:09Z</time>
      </trkpt>
      <trkpt lat="49.23553" lon="-0.07033">
        <ele>5</ele>
        <time>2024-09-22T06:55:10Z</time>
      </trkpt>
      <trkpt lat="49.23546" lon="-0.07028">
        <ele>5</ele>
        <time>2024-09-22T06:55:11Z</time>
      </trkpt>
      <trkpt lat="49.23538" lon="-0.07023">
        <ele>5</ele>
        <time>2024-09-22T06:55:12Z</time>
      </trkpt>
      <trkpt lat="49.23533" lon="-0.07019">
        <ele>5.2</ele>
        <time>2024-09-22T06:55:13Z</time>
      </trkpt>
      <trkpt lat="49.23526" lon="-0.07015">
        <ele>5.2</ele>
        <time>2024-09-22T06:55:14Z</time>
      </trkpt>
      <trkpt lat="49.23518" lon="-0.0701">
        <ele>5.2</ele>
        <time>2024-09-22T06:55:15Z</time>
      </trkpt>
      <trkpt lat="49.23512" lon="-0.07007">
        <ele>5.2</ele>
        <time>2024-09-22T06:55:16Z</time>
      </trkpt>
      <trkpt lat="49.23504" lon="-0.07002">
        <ele>5.2</ele>
        <time>2024-09-22T06:55:17Z</time>
      </trkpt>
      <trkpt lat="49.23499" lon="-0.06999">
        <ele>5.2</ele>
        <time>2024-09-22T06:55:18Z</time>
      </trkpt>
      <trkpt lat="49.23493" lon="-0.06995">
        <ele>5.2</ele>
        <time>2024-09-22T06:55:19Z</time>
      </trkpt>
      <trkpt lat="49.23487" lon="-0.06991">
        <ele>5.2</ele>
        <time>2024-09-22T06:55:20Z</time>
      </trkpt>
      <trkpt lat="49.23481" lon="-0.06987">
        <ele>5.2</ele>
        <time>2024-09-22T06:55:21Z</time>
      </trkpt>
      <trkpt lat="49.23475" lon="-0.06983">
        <ele>5.2</ele>
        <time>2024-09-22T06:55:22Z</time>
      </trkpt>
      <trkpt lat="49.23467" lon="-0.06978">
        <ele>5.2</ele>
        <time>2024-09-22T06:55:23Z</time>
      </trkpt>
      <trkpt lat="49.23462" lon="-0.06976">
        <ele>5.2</ele>
        <time>2024-09-22T06:55:24Z</time>
      </trkpt>
      <trkpt lat="49.23456" lon="-0.06972">
        <ele>5.2</ele>
        <time>2024-09-22T06:55:25Z</time>
      </trkpt>
      <trkpt lat="49.23451" lon="-0.06968">
        <ele>5.2</ele>
        <time>2024-09-22T06:55:26Z</time>
      </trkpt>
      <trkpt lat="49.23445" lon="-0.06965">
        <ele>5.2</ele>
        <time>2024-09-22T06:55:27Z</time>
      </trkpt>
      <trkpt lat="49.2344" lon="-0.06961">
        <ele>5.2</ele>
        <time>2024-09-22T06:55:28Z</time>
      </trkpt>
      <trkpt lat="49.23435" lon="-0.06958">
        <ele>5.4</ele>
        <time>2024-09-22T06:55:29Z</time>
      </trkpt>
      <trkpt lat="49.2343" lon="-0.06955">
        <ele>5.4</ele>
        <time>2024-09-22T06:55:30Z</time>
      </trkpt>
      <trkpt lat="49.23426" lon="-0.06951">
        <ele>5.4</ele>
        <time>2024-09-22T06:55:31Z</time>
      </trkpt>
      <trkpt lat="49.23422" lon="-0.06946">
        <ele>5.4</ele>
        <time>2024-09-22T06:55:32Z</time>
      </trkpt>
      <trkpt lat="49.2342" lon="-0.0694">
        <ele>5.4</ele>
        <time>2024-09-22T06:55:33Z</time>
      </trkpt>
      <trkpt lat="49.23419" lon="-0.06932">
        <ele>5.4</ele>
        <time>2024-09-22T06:55:34Z</time>
      </trkpt>
      <trkpt lat="49.23418" lon="-0.06923">
        <ele>5.6</ele>
        <time>2024-09-22T06:55:35Z</time>
      </trkpt>
      <trkpt lat="49.23418" lon="-0.06917">
        <ele>5.6</ele>
        <time>2024-09-22T06:55:36Z</time>
      </trkpt>
      <trkpt lat="49.23418" lon="-0.06908">
        <ele>5.6</ele>
        <time>2024-09-22T06:55:37Z</time>
      </trkpt>
      <trkpt lat="49.23418" lon="-0.06899">
        <ele>5.8</ele>
        <time>2024-09-22T06:55:38Z</time>
      </trkpt>
      <trkpt lat="49.23418" lon="-0.06889">
        <ele>5.8</ele>
        <time>2024-09-22T06:55:39Z</time>
      </trkpt>
      <trkpt lat="49.23417" lon="-0.0688">
        <ele>5.8</ele>
        <time>2024-09-22T06:55:40Z</time>
      </trkpt>
      <trkpt lat="49.23416" lon="-0.0687">
        <ele>5.8</ele>
        <time>2024-09-22T06:55:41Z</time>
      </trkpt>
      <trkpt lat="49.23416" lon="-0.06861">
        <ele>5.8</ele>
        <time>2024-09-22T06:55:42Z</time>
      </trkpt>
      <trkpt lat="49.23414" lon="-0.06851">
        <ele>5.8</ele>
        <time>2024-09-22T06:55:43Z</time>
      </trkpt>
      <trkpt lat="49.23412" lon="-0.06841">
        <ele>5.8</ele>
        <time>2024-09-22T06:55:44Z</time>
      </trkpt>
      <trkpt lat="49.2341" lon="-0.0683">
        <ele>5.8</ele>
        <time>2024-09-22T06:55:45Z</time>
      </trkpt>
      <trkpt lat="49.23408" lon="-0.0682">
        <ele>5.8</ele>
        <time>2024-09-22T06:55:46Z</time>
      </trkpt>
      <trkpt lat="49.23405" lon="-0.06811">
        <ele>5.8</ele>
        <time>2024-09-22T06:55:47Z</time>
      </trkpt>
      <trkpt lat="49.23401" lon="-0.06801">
        <ele>5.8</ele>
        <time>2024-09-22T06:55:48Z</time>
      </trkpt>
      <trkpt lat="49.23398" lon="-0.06791">
        <ele>5.8</ele>
        <time>2024-09-22T06:55:49Z</time>
      </trkpt>
      <trkpt lat="49.23395" lon="-0.06781">
        <ele>5.8</ele>
        <time>2024-09-22T06:55:50Z</time>
      </trkpt>
      <trkpt lat="49.23392" lon="-0.06772">
        <ele>5.8</ele>
        <time>2024-09-22T06:55:51Z</time>
      </trkpt>
      <trkpt lat="49.23389" lon="-0.06762">
        <ele>5.8</ele>
        <time>2024-09-22T06:55:52Z</time>
      </trkpt>
      <trkpt lat="49.23386" lon="-0.06751">
        <ele>5.8</ele>
        <time>2024-09-22T06:55:53Z</time>
      </trkpt>
      <trkpt lat="49.23384" lon="-0.06744">
        <ele>5.8</ele>
        <time>2024-09-22T06:55:54Z</time>
      </trkpt>
      <trkpt lat="49.23381" lon="-0.06735">
        <ele>5.8</ele>
        <time>2024-09-22T06:55:55Z</time>
      </trkpt>
      <trkpt lat="49.23378" lon="-0.06724">
        <ele>5.8</ele>
        <time>2024-09-22T06:55:56Z</time>
      </trkpt>
      <trkpt lat="49.23376" lon="-0.06717">
        <ele>5.8</ele>
        <time>2024-09-22T06:55:57Z</time>
      </trkpt>
      <trkpt lat="49.23373" lon="-0.06708">
        <ele>5.8</ele>
        <time>2024-09-22T06:55:58Z</time>
      </trkpt>
      <trkpt lat="49.2337" lon="-0.06699">
        <ele>5.8</ele>
        <time>2024-09-22T06:55:59Z</time>
      </trkpt>
      <trkpt lat="49.23367" lon="-0.0669">
        <ele>6</ele>
        <time>2024-09-22T06:56:00Z</time>
      </trkpt>
      <trkpt lat="49.23364" lon="-0.06681">
        <ele>6.2</ele>
        <time>2024-09-22T06:56:01Z</time>
      </trkpt>
      <trkpt lat="49.23361" lon="-0.06672">
        <ele>6.4</ele>
        <time>2024-09-22T06:56:02Z</time>
      </trkpt>
      <trkpt lat="49.23359" lon="-0.06663">
        <ele>6.8</ele>
        <time>2024-09-22T06:56:03Z</time>
      </trkpt>
      <trkpt lat="49.23356" lon="-0.06654">
        <ele>7</ele>
        <time>2024-09-22T06:56:04Z</time>
      </trkpt>
      <trkpt lat="49.23354" lon="-0.06645">
        <ele>7.2</ele>
        <time>2024-09-22T06:56:05Z</time>
      </trkpt>
      <trkpt lat="49.23352" lon="-0.06636">
        <ele>7.2</ele>
        <time>2024-09-22T06:56:06Z</time>
      </trkpt>
      <trkpt lat="49.2335" lon="-0.06627">
        <ele>7.4</ele>
        <time>2024-09-22T06:56:07Z</time>
      </trkpt>
      <trkpt lat="49.23348" lon="-0.06618">
        <ele>7.4</ele>
        <time>2024-09-22T06:56:08Z</time>
      </trkpt>
      <trkpt lat="49.23347" lon="-0.06609">
        <ele>7.4</ele>
        <time>2024-09-22T06:56:09Z</time>
      </trkpt>
      <trkpt lat="49.23345" lon="-0.066">
        <ele>7.6</ele>
        <time>2024-09-22T06:56:10Z</time>
      </trkpt>
      <trkpt lat="49.23344" lon="-0.06591">
        <ele>7.6</ele>
        <time>2024-09-22T06:56:11Z</time>
      </trkpt>
      <trkpt lat="49.23344" lon="-0.06582">
        <ele>7.6</ele>
        <time>2024-09-22T06:56:12Z</time>
      </trkpt>
      <trkpt lat="49.23344" lon="-0.06573">
        <ele>7.8</ele>
        <time>2024-09-22T06:56:13Z</time>
      </trkpt>
      <trkpt lat="49.23344" lon="-0.06564">
        <ele>7.8</ele>
        <time>2024-09-22T06:56:14Z</time>
      </trkpt>
      <trkpt lat="49.23345" lon="-0.06555">
        <ele>7.8</ele>
        <time>2024-09-22T06:56:15Z</time>
      </trkpt>
      <trkpt lat="49.23346" lon="-0.06546">
        <ele>7.8</ele>
        <time>2024-09-22T06:56:16Z</time>
      </trkpt>
      <trkpt lat="49.23348" lon="-0.06538">
        <ele>7.8</ele>
        <time>2024-09-22T06:56:17Z</time>
      </trkpt>
      <trkpt lat="49.23351" lon="-0.0653">
        <ele>7.8</ele>
        <time>2024-09-22T06:56:18Z</time>
      </trkpt>
      <trkpt lat="49.23354" lon="-0.06522">
        <ele>7.8</ele>
        <time>2024-09-22T06:56:19Z</time>
      </trkpt>
      <trkpt lat="49.23357" lon="-0.06513">
        <ele>7.8</ele>
        <time>2024-09-22T06:56:20Z</time>
      </trkpt>
      <trkpt lat="49.2336" lon="-0.06505">
        <ele>8</ele>
        <time>2024-09-22T06:56:21Z</time>
      </trkpt>
      <trkpt lat="49.23364" lon="-0.06497">
        <ele>8</ele>
        <time>2024-09-22T06:56:22Z</time>
      </trkpt>
      <trkpt lat="49.23367" lon="-0.06488">
        <ele>8.4</ele>
        <time>2024-09-22T06:56:23Z</time>
      </trkpt>
      <trkpt lat="49.2337" lon="-0.06478">
        <ele>8.6</ele>
        <time>2024-09-22T06:56:24Z</time>
      </trkpt>
      <trkpt lat="49.23374" lon="-0.06468">
        <ele>8.8</ele>
        <time>2024-09-22T06:56:25Z</time>
      </trkpt>
      <trkpt lat="49.23376" lon="-0.0646">
        <ele>9</ele>
        <time>2024-09-22T06:56:26Z</time>
      </trkpt>
      <trkpt lat="49.23379" lon="-0.06451">
        <ele>9.4</ele>
        <time>2024-09-22T06:56:27Z</time>
      </trkpt>
      <trkpt lat="49.23382" lon="-0.06441">
        <ele>9.6</ele>
        <time>2024-09-22T06:56:28Z</time>
      </trkpt>
      <trkpt lat="49.23385" lon="-0.06429">
        <ele>9.8</ele>
        <time>2024-09-22T06:56:29Z</time>
      </trkpt>
      <trkpt lat="49.23387" lon="-0.06421">
        <ele>9.8</ele>
        <time>2024-09-22T06:56:30Z</time>
      </trkpt>
      <trkpt lat="49.2339" lon="-0.06409">
        <ele>9.8</ele>
        <time>2024-09-22T06:56:31Z</time>
      </trkpt>
      <trkpt lat="49.23391" lon="-0.06402">
        <ele>9.8</ele>
        <time>2024-09-22T06:56:32Z</time>
      </trkpt>
      <trkpt lat="49.23394" lon="-0.06393">
        <ele>9.8</ele>
        <time>2024-09-22T06:56:33Z</time>
      </trkpt>
      <trkpt lat="49.23397" lon="-0.06382">
        <ele>9.8</ele>
        <time>2024-09-22T06:56:34Z</time>
      </trkpt>
      <trkpt lat="49.23399" lon="-0.06374">
        <ele>9.8</ele>
        <time>2024-09-22T06:56:35Z</time>
      </trkpt>
      <trkpt lat="49.23402" lon="-0.06365">
        <ele>9.8</ele>
        <time>2024-09-22T06:56:36Z</time>
      </trkpt>
      <trkpt lat="49.23405" lon="-0.06354">
        <ele>9.8</ele>
        <time>2024-09-22T06:56:37Z</time>
      </trkpt>
      <trkpt lat="49.23408" lon="-0.06347">
        <ele>10</ele>
        <time>2024-09-22T06:56:38Z</time>
      </trkpt>
      <trkpt lat="49.23411" lon="-0.06338">
        <ele>10</ele>
        <time>2024-09-22T06:56:39Z</time>
      </trkpt>
      <trkpt lat="49.23414" lon="-0.06329">
        <ele>10</ele>
        <time>2024-09-22T06:56:40Z</time>
      </trkpt>
      <trkpt lat="49.23417" lon="-0.0632">
        <ele>10</ele>
        <time>2024-09-22T06:56:41Z</time>
      </trkpt>
      <trkpt lat="49.2342" lon="-0.0631">
        <ele>10</ele>
        <time>2024-09-22T06:56:42Z</time>
      </trkpt>
      <trkpt lat="49.23423" lon="-0.06301">
        <ele>10</ele>
        <time>2024-09-22T06:56:43Z</time>
      </trkpt>
      <trkpt lat="49.23425" lon="-0.06291">
        <ele>10</ele>
        <time>2024-09-22T06:56:44Z</time>
      </trkpt>
      <trkpt lat="49.23428" lon="-0.06281">
        <ele>10</ele>
        <time>2024-09-22T06:56:45Z</time>
      </trkpt>
      <trkpt lat="49.2343" lon="-0.06271">
        <ele>10</ele>
        <time>2024-09-22T06:56:46Z</time>
      </trkpt>
      <trkpt lat="49.23431" lon="-0.06261">
        <ele>10</ele>
        <time>2024-09-22T06:56:47Z</time>
      </trkpt>
      <trkpt lat="49.23433" lon="-0.0625">
        <ele>10</ele>
        <time>2024-09-22T06:56:48Z</time>
      </trkpt>
      <trkpt lat="49.23434" lon="-0.06238">
        <ele>10</ele>
        <time>2024-09-22T06:56:49Z</time>
      </trkpt>
      <trkpt lat="49.23435" lon="-0.06229">
        <ele>10</ele>
        <time>2024-09-22T06:56:50Z</time>
      </trkpt>
      <trkpt lat="49.23436" lon="-0.06219">
        <ele>10</ele>
        <time>2024-09-22T06:56:51Z</time>
      </trkpt>
      <trkpt lat="49.23436" lon="-0.06209">
        <ele>9.8</ele>
        <time>2024-09-22T06:56:52Z</time>
      </trkpt>
      <trkpt lat="49.23437" lon="-0.06199">
        <ele>9.8</ele>
        <time>2024-09-22T06:56:53Z</time>
      </trkpt>
      <trkpt lat="49.23437" lon="-0.06188">
        <ele>9.8</ele>
        <time>2024-09-22T06:56:54Z</time>
      </trkpt>
      <trkpt lat="49.23438" lon="-0.06179">
        <ele>9.8</ele>
        <time>2024-09-22T06:56:55Z</time>
      </trkpt>
      <trkpt lat="49.23438" lon="-0.06169">
        <ele>9.4</ele>
        <time>2024-09-22T06:56:56Z</time>
      </trkpt>
      <trkpt lat="49.23438" lon="-0.0616">
        <ele>9.2</ele>
        <time>2024-09-22T06:56:57Z</time>
      </trkpt>
      <trkpt lat="49.23438" lon="-0.06151">
        <ele>9</ele>
        <time>2024-09-22T06:56:58Z</time>
      </trkpt>
      <trkpt lat="49.23438" lon="-0.06142">
        <ele>9</ele>
        <time>2024-09-22T06:56:59Z</time>
      </trkpt>
      <trkpt lat="49.23438" lon="-0.06133">
        <ele>9</ele>
        <time>2024-09-22T06:57:00Z</time>
      </trkpt>
      <trkpt lat="49.23438" lon="-0.06125">
        <ele>9</ele>
        <time>2024-09-22T06:57:01Z</time>
      </trkpt>
      <trkpt lat="49.23437" lon="-0.06116">
        <ele>9</ele>
        <time>2024-09-22T06:57:02Z</time>
      </trkpt>
      <trkpt lat="49.23438" lon="-0.06107">
        <ele>9</ele>
        <time>2024-09-22T06:57:03Z</time>
      </trkpt>
      <trkpt lat="49.23438" lon="-0.06098">
        <ele>9</ele>
        <time>2024-09-22T06:57:04Z</time>
      </trkpt>
      <trkpt lat="49.23438" lon="-0.06089">
        <ele>9</ele>
        <time>2024-09-22T06:57:05Z</time>
      </trkpt>
      <trkpt lat="49.23439" lon="-0.0608">
        <ele>9</ele>
        <time>2024-09-22T06:57:06Z</time>
      </trkpt>
      <trkpt lat="49.23439" lon="-0.06071">
        <ele>9</ele>
        <time>2024-09-22T06:57:07Z</time>
      </trkpt>
      <trkpt lat="49.2344" lon="-0.06062">
        <ele>9</ele>
        <time>2024-09-22T06:57:08Z</time>
      </trkpt>
      <trkpt lat="49.23441" lon="-0.06051">
        <ele>9</ele>
        <time>2024-09-22T06:57:09Z</time>
      </trkpt>
      <trkpt lat="49.23442" lon="-0.06044">
        <ele>9.2</ele>
        <time>2024-09-22T06:57:10Z</time>
      </trkpt>
      <trkpt lat="49.23443" lon="-0.06035">
        <ele>9.2</ele>
        <time>2024-09-22T06:57:11Z</time>
      </trkpt>
      <trkpt lat="49.23445" lon="-0.06024">
        <ele>9.4</ele>
        <time>2024-09-22T06:57:12Z</time>
      </trkpt>
      <trkpt lat="49.23446" lon="-0.06015">
        <ele>9.6</ele>
        <time>2024-09-22T06:57:13Z</time>
      </trkpt>
      <trkpt lat="49.23447" lon="-0.06007">
        <ele>9.8</ele>
        <time>2024-09-22T06:57:14Z</time>
      </trkpt>
      <trkpt lat="49.23448" lon="-0.05996">
        <ele>9.8</ele>
        <time>2024-09-22T06:57:15Z</time>
      </trkpt>
      <trkpt lat="49.23449" lon="-0.05989">
        <ele>10</ele>
        <time>2024-09-22T06:57:16Z</time>
      </trkpt>
      <trkpt lat="49.2345" lon="-0.0598">
        <ele>10</ele>
        <time>2024-09-22T06:57:17Z</time>
      </trkpt>
      <trkpt lat="49.23451" lon="-0.05969">
        <ele>10</ele>
        <time>2024-09-22T06:57:18Z</time>
      </trkpt>
      <trkpt lat="49.23452" lon="-0.05962">
        <ele>10</ele>
        <time>2024-09-22T06:57:19Z</time>
      </trkpt>
      <trkpt lat="49.23453" lon="-0.05953">
        <ele>10.2</ele>
        <time>2024-09-22T06:57:20Z</time>
      </trkpt>
      <trkpt lat="49.23455" lon="-0.05943">
        <ele>10.2</ele>
        <time>2024-09-22T06:57:21Z</time>
      </trkpt>
      <trkpt lat="49.23456" lon="-0.05934">
        <ele>10.2</ele>
        <time>2024-09-22T06:57:22Z</time>
      </trkpt>
      <trkpt lat="49.23457" lon="-0.05924">
        <ele>10.2</ele>
        <time>2024-09-22T06:57:23Z</time>
      </trkpt>
      <trkpt lat="49.23457" lon="-0.05912">
        <ele>10.2</ele>
        <time>2024-09-22T06:57:24Z</time>
      </trkpt>
      <trkpt lat="49.23458" lon="-0.05902">
        <ele>10.2</ele>
        <time>2024-09-22T06:57:25Z</time>
      </trkpt>
      <trkpt lat="49.23458" lon="-0.05893">
        <ele>10.2</ele>
        <time>2024-09-22T06:57:26Z</time>
      </trkpt>
      <trkpt lat="49.23459" lon="-0.05883">
        <ele>10.2</ele>
        <time>2024-09-22T06:57:27Z</time>
      </trkpt>
      <trkpt lat="49.23459" lon="-0.05872">
        <ele>10.2</ele>
        <time>2024-09-22T06:57:28Z</time>
      </trkpt>
      <trkpt lat="49.2346" lon="-0.05859">
        <ele>10.2</ele>
        <time>2024-09-22T06:57:29Z</time>
      </trkpt>
      <trkpt lat="49.2346" lon="-0.05851">
        <ele>10.2</ele>
        <time>2024-09-22T06:57:30Z</time>
      </trkpt>
      <trkpt lat="49.23461" lon="-0.0584">
        <ele>10.2</ele>
        <time>2024-09-22T06:57:31Z</time>
      </trkpt>
      <trkpt lat="49.23462" lon="-0.05827">
        <ele>10.2</ele>
        <time>2024-09-22T06:57:32Z</time>
      </trkpt>
      <trkpt lat="49.23462" lon="-0.05819">
        <ele>10.2</ele>
        <time>2024-09-22T06:57:33Z</time>
      </trkpt>
      <trkpt lat="49.23462" lon="-0.05806">
        <ele>10</ele>
        <time>2024-09-22T06:57:34Z</time>
      </trkpt>
      <trkpt lat="49.23461" lon="-0.05795">
        <ele>10</ele>
        <time>2024-09-22T06:57:35Z</time>
      </trkpt>
      <trkpt lat="49.2346" lon="-0.05786">
        <ele>10</ele>
        <time>2024-09-22T06:57:36Z</time>
      </trkpt>
      <trkpt lat="49.23458" lon="-0.05773">
        <ele>10</ele>
        <time>2024-09-22T06:57:37Z</time>
      </trkpt>
      <trkpt lat="49.23456" lon="-0.05764">
        <ele>10</ele>
        <time>2024-09-22T06:57:38Z</time>
      </trkpt>
      <trkpt lat="49.23453" lon="-0.05754">
        <ele>10</ele>
        <time>2024-09-22T06:57:39Z</time>
      </trkpt>
      <trkpt lat="49.23449" lon="-0.05742">
        <ele>10</ele>
        <time>2024-09-22T06:57:40Z</time>
      </trkpt>
      <trkpt lat="49.23445" lon="-0.05734">
        <ele>10</ele>
        <time>2024-09-22T06:57:41Z</time>
      </trkpt>
      <trkpt lat="49.23441" lon="-0.05725">
        <ele>9.8</ele>
        <time>2024-09-22T06:57:42Z</time>
      </trkpt>
      <trkpt lat="49.23435" lon="-0.05715">
        <ele>9.8</ele>
        <time>2024-09-22T06:57:43Z</time>
      </trkpt>
      <trkpt lat="49.23431" lon="-0.05709">
        <ele>9.6</ele>
        <time>2024-09-22T06:57:44Z</time>
      </trkpt>
      <trkpt lat="49.23425" lon="-0.05702">
        <ele>9.6</ele>
        <time>2024-09-22T06:57:45Z</time>
      </trkpt>
      <trkpt lat="49.23418" lon="-0.05695">
        <ele>9.6</ele>
        <time>2024-09-22T06:57:46Z</time>
      </trkpt>
      <trkpt lat="49.23413" lon="-0.05691">
        <ele>9.6</ele>
        <time>2024-09-22T06:57:47Z</time>
      </trkpt>
      <trkpt lat="49.23407" lon="-0.05686">
        <ele>9.6</ele>
        <time>2024-09-22T06:57:48Z</time>
      </trkpt>
      <trkpt lat="49.23401" lon="-0.05681">
        <ele>9.6</ele>
        <time>2024-09-22T06:57:49Z</time>
      </trkpt>
      <trkpt lat="49.23395" lon="-0.05678">
        <ele>9.6</ele>
        <time>2024-09-22T06:57:50Z</time>
      </trkpt>
      <trkpt lat="49.23388" lon="-0.05675">
        <ele>9.6</ele>
        <time>2024-09-22T06:57:51Z</time>
      </trkpt>
      <trkpt lat="49.23381" lon="-0.05673">
        <ele>9.6</ele>
        <time>2024-09-22T06:57:52Z</time>
      </trkpt>
      <trkpt lat="49.23375" lon="-0.05671">
        <ele>9.6</ele>
        <time>2024-09-22T06:57:53Z</time>
      </trkpt>
      <trkpt lat="49.23368" lon="-0.05668">
        <ele>9.6</ele>
        <time>2024-09-22T06:57:54Z</time>
      </trkpt>
      <trkpt lat="49.23361" lon="-0.05665">
        <ele>9.8</ele>
        <time>2024-09-22T06:57:55Z</time>
      </trkpt>
      <trkpt lat="49.23356" lon="-0.05663">
        <ele>9.8</ele>
        <time>2024-09-22T06:57:56Z</time>
      </trkpt>
      <trkpt lat="49.23349" lon="-0.05661">
        <ele>9.8</ele>
        <time>2024-09-22T06:57:57Z</time>
      </trkpt>
      <trkpt lat="49.23342" lon="-0.05658">
        <ele>9.8</ele>
        <time>2024-09-22T06:57:58Z</time>
      </trkpt>
      <trkpt lat="49.23336" lon="-0.05655">
        <ele>9.8</ele>
        <time>2024-09-22T06:57:59Z</time>
      </trkpt>
      <trkpt lat="49.2333" lon="-0.05653">
        <ele>9.8</ele>
        <time>2024-09-22T06:58:00Z</time>
      </trkpt>
      <trkpt lat="49.23324" lon="-0.0565">
        <ele>9.8</ele>
        <time>2024-09-22T06:58:01Z</time>
      </trkpt>
      <trkpt lat="49.23319" lon="-0.05648">
        <ele>9.8</ele>
        <time>2024-09-22T06:58:02Z</time>
      </trkpt>
      <trkpt lat="49.23315" lon="-0.05645">
        <ele>9.8</ele>
        <time>2024-09-22T06:58:03Z</time>
      </trkpt>
      <trkpt lat="49.2331" lon="-0.05642">
        <ele>10</ele>
        <time>2024-09-22T06:58:04Z</time>
      </trkpt>
      <trkpt lat="49.23306" lon="-0.0564">
        <ele>10</ele>
        <time>2024-09-22T06:58:05Z</time>
      </trkpt>
      <trkpt lat="49.23301" lon="-0.05637">
        <ele>10</ele>
        <time>2024-09-22T06:58:06Z</time>
      </trkpt>
      <trkpt lat="49.23297" lon="-0.05634">
        <ele>10</ele>
        <time>2024-09-22T06:58:07Z</time>
      </trkpt>
      <trkpt lat="49.23292" lon="-0.0563">
        <ele>10</ele>
        <time>2024-09-22T06:58:08Z</time>
      </trkpt>
      <trkpt lat="49.23288" lon="-0.05627">
        <ele>10</ele>
        <time>2024-09-22T06:58:09Z</time>
      </trkpt>
      <trkpt lat="49.23284" lon="-0.05623">
        <ele>10.2</ele>
        <time>2024-09-22T06:58:10Z</time>
      </trkpt>
      <trkpt lat="49.23281" lon="-0.05618">
        <ele>10.4</ele>
        <time>2024-09-22T06:58:11Z</time>
      </trkpt>
      <trkpt lat="49.23278" lon="-0.05612">
        <ele>10.8</ele>
        <time>2024-09-22T06:58:12Z</time>
      </trkpt>
      <trkpt lat="49.23275" lon="-0.05604">
        <ele>11.2</ele>
        <time>2024-09-22T06:58:13Z</time>
      </trkpt>
      <trkpt lat="49.23274" lon="-0.056">
        <ele>11.6</ele>
        <time>2024-09-22T06:58:14Z</time>
      </trkpt>
      <trkpt lat="49.23271" lon="-0.05594">
        <ele>12</ele>
        <time>2024-09-22T06:58:15Z</time>
      </trkpt>
      <trkpt lat="49.23269" lon="-0.05588">
        <ele>12.4</ele>
        <time>2024-09-22T06:58:16Z</time>
      </trkpt>
      <trkpt lat="49.23268" lon="-0.0558">
        <ele>12.8</ele>
        <time>2024-09-22T06:58:17Z</time>
      </trkpt>
      <trkpt lat="49.23267" lon="-0.05575">
        <ele>13.2</ele>
        <time>2024-09-22T06:58:18Z</time>
      </trkpt>
      <trkpt lat="49.23266" lon="-0.05569">
        <ele>13.2</ele>
        <time>2024-09-22T06:58:19Z</time>
      </trkpt>
      <trkpt lat="49.23265" lon="-0.05563">
        <ele>13.6</ele>
        <time>2024-09-22T06:58:20Z</time>
      </trkpt>
      <trkpt lat="49.23265" lon="-0.05557">
        <ele>14</ele>
        <time>2024-09-22T06:58:21Z</time>
      </trkpt>
      <trkpt lat="49.23264" lon="-0.05552">
        <ele>14.4</ele>
        <time>2024-09-22T06:58:22Z</time>
      </trkpt>
      <trkpt lat="49.23263" lon="-0.05546">
        <ele>14.6</ele>
        <time>2024-09-22T06:58:23Z</time>
      </trkpt>
      <trkpt lat="49.23261" lon="-0.05541">
        <ele>15.2</ele>
        <time>2024-09-22T06:58:24Z</time>
      </trkpt>
      <trkpt lat="49.23259" lon="-0.05535">
        <ele>15.6</ele>
        <time>2024-09-22T06:58:25Z</time>
      </trkpt>
      <trkpt lat="49.23258" lon="-0.05528">
        <ele>16</ele>
        <time>2024-09-22T06:58:26Z</time>
      </trkpt>
      <trkpt lat="49.23257" lon="-0.05523">
        <ele>16.4</ele>
        <time>2024-09-22T06:58:27Z</time>
      </trkpt>
      <trkpt lat="49.23257" lon="-0.05517">
        <ele>16.6</ele>
        <time>2024-09-22T06:58:28Z</time>
      </trkpt>
      <trkpt lat="49.23255" lon="-0.0551">
        <ele>17</ele>
        <time>2024-09-22T06:58:29Z</time>
      </trkpt>
      <trkpt lat="49.23255" lon="-0.05506">
        <ele>17.2</ele>
        <time>2024-09-22T06:58:30Z</time>
      </trkpt>
      <trkpt lat="49.23254" lon="-0.055">
        <ele>17.8</ele>
        <time>2024-09-22T06:58:31Z</time>
      </trkpt>
      <trkpt lat="49.23253" lon="-0.05494">
        <ele>18.2</ele>
        <time>2024-09-22T06:58:32Z</time>
      </trkpt>
      <trkpt lat="49.23253" lon="-0.05489">
        <ele>18.4</ele>
        <time>2024-09-22T06:58:33Z</time>
      </trkpt>
      <trkpt lat="49.23252" lon="-0.05484">
        <ele>19</ele>
        <time>2024-09-22T06:58:34Z</time>
      </trkpt>
      <trkpt lat="49.2325" lon="-0.05479">
        <ele>19.2</ele>
        <time>2024-09-22T06:58:35Z</time>
      </trkpt>
      <trkpt lat="49.2325" lon="-0.05474">
        <ele>19.8</ele>
        <time>2024-09-22T06:58:36Z</time>
      </trkpt>
      <trkpt lat="49.2325" lon="-0.05468">
        <ele>20</ele>
        <time>2024-09-22T06:58:37Z</time>
      </trkpt>
      <trkpt lat="49.23249" lon="-0.05463">
        <ele>20.2</ele>
        <time>2024-09-22T06:58:38Z</time>
      </trkpt>
      <trkpt lat="49.23247" lon="-0.05457">
        <ele>20.2</ele>
        <time>2024-09-22T06:58:39Z</time>
      </trkpt>
      <trkpt lat="49.23246" lon="-0.05452">
        <ele>20.8</ele>
        <time>2024-09-22T06:58:40Z</time>
      </trkpt>
      <trkpt lat="49.23244" lon="-0.05446">
        <ele>21.2</ele>
        <time>2024-09-22T06:58:41Z</time>
      </trkpt>
      <trkpt lat="49.23243" lon="-0.0544">
        <ele>21.4</ele>
        <time>2024-09-22T06:58:42Z</time>
      </trkpt>
      <trkpt lat="49.23242" lon="-0.05433">
        <ele>21.8</ele>
        <time>2024-09-22T06:58:43Z</time>
      </trkpt>
      <trkpt lat="49.23242" lon="-0.05425">
        <ele>22.2</ele>
        <time>2024-09-22T06:58:44Z</time>
      </trkpt>
      <trkpt lat="49.23241" lon="-0.05419">
        <ele>22.6</ele>
        <time>2024-09-22T06:58:45Z</time>
      </trkpt>
      <trkpt lat="49.23241" lon="-0.05413">
        <ele>22.8</ele>
        <time>2024-09-22T06:58:46Z</time>
      </trkpt>
      <trkpt lat="49.2324" lon="-0.05406">
        <ele>23.2</ele>
        <time>2024-09-22T06:58:47Z</time>
      </trkpt>
      <trkpt lat="49.23239" lon="-0.054">
        <ele>23.4</ele>
        <time>2024-09-22T06:58:48Z</time>
      </trkpt>
      <trkpt lat="49.23238" lon="-0.05394">
        <ele>23.6</ele>
        <time>2024-09-22T06:58:49Z</time>
      </trkpt>
      <trkpt lat="49.23237" lon="-0.05386">
        <ele>23.8</ele>
        <time>2024-09-22T06:58:50Z</time>
      </trkpt>
      <trkpt lat="49.23237" lon="-0.05381">
        <ele>24.2</ele>
        <time>2024-09-22T06:58:51Z</time>
      </trkpt>
      <trkpt lat="49.23237" lon="-0.05374">
        <ele>24.6</ele>
        <time>2024-09-22T06:58:52Z</time>
      </trkpt>
      <trkpt lat="49.23236" lon="-0.05366">
        <ele>24.8</ele>
        <time>2024-09-22T06:58:53Z</time>
      </trkpt>
      <trkpt lat="49.23237" lon="-0.05359">
        <ele>25.2</ele>
        <time>2024-09-22T06:58:54Z</time>
      </trkpt>
      <trkpt lat="49.23237" lon="-0.05351">
        <ele>25.4</ele>
        <time>2024-09-22T06:58:55Z</time>
      </trkpt>
      <trkpt lat="49.23237" lon="-0.05344">
        <ele>25.6</ele>
        <time>2024-09-22T06:58:56Z</time>
      </trkpt>
      <trkpt lat="49.23237" lon="-0.05336">
        <ele>25.8</ele>
        <time>2024-09-22T06:58:57Z</time>
      </trkpt>
      <trkpt lat="49.23237" lon="-0.05329">
        <ele>26</ele>
        <time>2024-09-22T06:58:58Z</time>
      </trkpt>
      <trkpt lat="49.23236" lon="-0.05321">
        <ele>26</ele>
        <time>2024-09-22T06:58:59Z</time>
      </trkpt>
      <trkpt lat="49.23235" lon="-0.05313">
        <ele>26.2</ele>
        <time>2024-09-22T06:59:00Z</time>
      </trkpt>
      <trkpt lat="49.23235" lon="-0.05307">
        <ele>26.4</ele>
        <time>2024-09-22T06:59:01Z</time>
      </trkpt>
      <trkpt lat="49.23235" lon="-0.05298">
        <ele>26.6</ele>
        <time>2024-09-22T06:59:02Z</time>
      </trkpt>
      <trkpt lat="49.23234" lon="-0.05292">
        <ele>26.8</ele>
        <time>2024-09-22T06:59:03Z</time>
      </trkpt>
      <trkpt lat="49.23234" lon="-0.05285">
        <ele>27</ele>
        <time>2024-09-22T06:59:04Z</time>
      </trkpt>
      <trkpt lat="49.23233" lon="-0.05279">
        <ele>27.2</ele>
        <time>2024-09-22T06:59:05Z</time>
      </trkpt>
      <trkpt lat="49.23231" lon="-0.05272">
        <ele>27.4</ele>
        <time>2024-09-22T06:59:06Z</time>
      </trkpt>
      <trkpt lat="49.2323" lon="-0.05264">
        <ele>27.6</ele>
        <time>2024-09-22T06:59:07Z</time>
      </trkpt>
      <trkpt lat="49.23229" lon="-0.05259">
        <ele>27.8</ele>
        <time>2024-09-22T06:59:08Z</time>
      </trkpt>
      <trkpt lat="49.23227" lon="-0.05253">
        <ele>28</ele>
        <time>2024-09-22T06:59:09Z</time>
      </trkpt>
      <trkpt lat="49.23225" lon="-0.05247">
        <ele>28.4</ele>
        <time>2024-09-22T06:59:10Z</time>
      </trkpt>
      <trkpt lat="49.23222" lon="-0.0524">
        <ele>28.6</ele>
        <time>2024-09-22T06:59:11Z</time>
      </trkpt>
      <trkpt lat="49.23221" lon="-0.05236">
        <ele>28.8</ele>
        <time>2024-09-22T06:59:12Z</time>
      </trkpt>
      <trkpt lat="49.23219" lon="-0.05231">
        <ele>29</ele>
        <time>2024-09-22T06:59:13Z</time>
      </trkpt>
      <trkpt lat="49.23216" lon="-0.05226">
        <ele>29.2</ele>
        <time>2024-09-22T06:59:14Z</time>
      </trkpt>
      <trkpt lat="49.23214" lon="-0.05221">
        <ele>29.4</ele>
        <time>2024-09-22T06:59:15Z</time>
      </trkpt>
      <trkpt lat="49.23211" lon="-0.05217">
        <ele>29.6</ele>
        <time>2024-09-22T06:59:16Z</time>
      </trkpt>
      <trkpt lat="49.23208" lon="-0.05211">
        <ele>29.8</ele>
        <time>2024-09-22T06:59:17Z</time>
      </trkpt>
      <trkpt lat="49.23206" lon="-0.05207">
        <ele>30</ele>
        <time>2024-09-22T06:59:18Z</time>
      </trkpt>
      <trkpt lat="49.23203" lon="-0.05202">
        <ele>30</ele>
        <time>2024-09-22T06:59:19Z</time>
      </trkpt>
      <trkpt lat="49.23201" lon="-0.05197">
        <ele>30.2</ele>
        <time>2024-09-22T06:59:20Z</time>
      </trkpt>
      <trkpt lat="49.23197" lon="-0.05191">
        <ele>30.4</ele>
        <time>2024-09-22T06:59:21Z</time>
      </trkpt>
      <trkpt lat="49.23196" lon="-0.05186">
        <ele>30.4</ele>
        <time>2024-09-22T06:59:22Z</time>
      </trkpt>
      <trkpt lat="49.23193" lon="-0.0518">
        <ele>30.6</ele>
        <time>2024-09-22T06:59:23Z</time>
      </trkpt>
      <trkpt lat="49.2319" lon="-0.05176">
        <ele>31</ele>
        <time>2024-09-22T06:59:24Z</time>
      </trkpt>
      <trkpt lat="49.23188" lon="-0.0517">
        <ele>31.2</ele>
        <time>2024-09-22T06:59:25Z</time>
      </trkpt>
      <trkpt lat="49.23186" lon="-0.05164">
        <ele>31.4</ele>
        <time>2024-09-22T06:59:26Z</time>
      </trkpt>
      <trkpt lat="49.23185" lon="-0.05159">
        <ele>31.6</ele>
        <time>2024-09-22T06:59:27Z</time>
      </trkpt>
      <trkpt lat="49.23184" lon="-0.05152">
        <ele>32</ele>
        <time>2024-09-22T06:59:28Z</time>
      </trkpt>
      <trkpt lat="49.23185" lon="-0.05144">
        <ele>32.2</ele>
        <time>2024-09-22T06:59:29Z</time>
      </trkpt>
      <trkpt lat="49.23186" lon="-0.05139">
        <ele>32.4</ele>
        <time>2024-09-22T06:59:30Z</time>
      </trkpt>
      <trkpt lat="49.23186" lon="-0.05132">
        <ele>32.6</ele>
        <time>2024-09-22T06:59:31Z</time>
      </trkpt>
      <trkpt lat="49.23186" lon="-0.05126">
        <ele>32.8</ele>
        <time>2024-09-22T06:59:32Z</time>
      </trkpt>
      <trkpt lat="49.23186" lon="-0.05119">
        <ele>32.8</ele>
        <time>2024-09-22T06:59:33Z</time>
      </trkpt>
      <trkpt lat="49.23185" lon="-0.05112">
        <ele>33.2</ele>
        <time>2024-09-22T06:59:34Z</time>
      </trkpt>
      <trkpt lat="49.23183" lon="-0.05104">
        <ele>33.4</ele>
        <time>2024-09-22T06:59:35Z</time>
      </trkpt>
      <trkpt lat="49.23182" lon="-0.05098">
        <ele>33.6</ele>
        <time>2024-09-22T06:59:36Z</time>
      </trkpt>
      <trkpt lat="49.2318" lon="-0.0509">
        <ele>33.8</ele>
        <time>2024-09-22T06:59:37Z</time>
      </trkpt>
      <trkpt lat="49.23179" lon="-0.05083">
        <ele>33.8</ele>
        <time>2024-09-22T06:59:38Z</time>
      </trkpt>
      <trkpt lat="49.23177" lon="-0.05076">
        <ele>33.8</ele>
        <time>2024-09-22T06:59:39Z</time>
      </trkpt>
      <trkpt lat="49.23176" lon="-0.05068">
        <ele>34</ele>
        <time>2024-09-22T06:59:40Z</time>
      </trkpt>
      <trkpt lat="49.23175" lon="-0.05058">
        <ele>34</ele>
        <time>2024-09-22T06:59:41Z</time>
      </trkpt>
      <trkpt lat="49.23173" lon="-0.05051">
        <ele>34</ele>
        <time>2024-09-22T06:59:42Z</time>
      </trkpt>
      <trkpt lat="49.23172" lon="-0.05043">
        <ele>34.2</ele>
        <time>2024-09-22T06:59:43Z</time>
      </trkpt>
      <trkpt lat="49.2317" lon="-0.05033">
        <ele>34.2</ele>
        <time>2024-09-22T06:59:44Z</time>
      </trkpt>
      <trkpt lat="49.23169" lon="-0.05026">
        <ele>34.2</ele>
        <time>2024-09-22T06:59:45Z</time>
      </trkpt>
      <trkpt lat="49.23167" lon="-0.05018">
        <ele>34.2</ele>
        <time>2024-09-22T06:59:46Z</time>
      </trkpt>
      <trkpt lat="49.23166" lon="-0.05008">
        <ele>34.2</ele>
        <time>2024-09-22T06:59:47Z</time>
      </trkpt>
      <trkpt lat="49.23164" lon="-0.05001">
        <ele>34.4</ele>
        <time>2024-09-22T06:59:48Z</time>
      </trkpt>
      <trkpt lat="49.23163" lon="-0.04992">
        <ele>34.4</ele>
        <time>2024-09-22T06:59:49Z</time>
      </trkpt>
      <trkpt lat="49.23161" lon="-0.04984">
        <ele>34.4</ele>
        <time>2024-09-22T06:59:50Z</time>
      </trkpt>
      <trkpt lat="49.23159" lon="-0.04975">
        <ele>34.4</ele>
        <time>2024-09-22T06:59:51Z</time>
      </trkpt>
      <trkpt lat="49.23158" lon="-0.04966">
        <ele>34.4</ele>
        <time>2024-09-22T06:59:52Z</time>
      </trkpt>
      <trkpt lat="49.23156" lon="-0.04956">
        <ele>34.4</ele>
        <time>2024-09-22T06:59:53Z</time>
      </trkpt>
      <trkpt lat="49.23154" lon="-0.04947">
        <ele>34.2</ele>
        <time>2024-09-22T06:59:54Z</time>
      </trkpt>
      <trkpt lat="49.23152" lon="-0.04935">
        <ele>34.2</ele>
        <time>2024-09-22T06:59:55Z</time>
      </trkpt>
      <trkpt lat="49.23151" lon="-0.04927">
        <ele>34.2</ele>
        <time>2024-09-22T06:59:56Z</time>
      </trkpt>
      <trkpt lat="49.23149" lon="-0.04918">
        <ele>34</ele>
        <time>2024-09-22T06:59:57Z</time>
      </trkpt>
      <trkpt lat="49.23148" lon="-0.04908">
        <ele>33.8</ele>
        <time>2024-09-22T06:59:58Z</time>
      </trkpt>
      <trkpt lat="49.23146" lon="-0.04899">
        <ele>33.8</ele>
        <time>2024-09-22T06:59:59Z</time>
      </trkpt>
      <trkpt lat="49.23144" lon="-0.0489">
        <ele>33.8</ele>
        <time>2024-09-22T07:00:00Z</time>
      </trkpt>
      <trkpt lat="49.23143" lon="-0.0488">
        <ele>33.6</ele>
        <time>2024-09-22T07:00:01Z</time>
      </trkpt>
      <trkpt lat="49.23141" lon="-0.04869">
        <ele>33.6</ele>
        <time>2024-09-22T07:00:02Z</time>
      </trkpt>
      <trkpt lat="49.23141" lon="-0.04861">
        <ele>33.6</ele>
        <time>2024-09-22T07:00:03Z</time>
      </trkpt>
      <trkpt lat="49.2314" lon="-0.04851">
        <ele>33.4</ele>
        <time>2024-09-22T07:00:04Z</time>
      </trkpt>
      <trkpt lat="49.2314" lon="-0.04839">
        <ele>33.4</ele>
        <time>2024-09-22T07:00:05Z</time>
      </trkpt>
      <trkpt lat="49.23139" lon="-0.04831">
        <ele>33.4</ele>
        <time>2024-09-22T07:00:06Z</time>
      </trkpt>
      <trkpt lat="49.23139" lon="-0.0482">
        <ele>33.2</ele>
        <time>2024-09-22T07:00:07Z</time>
      </trkpt>
      <trkpt lat="49.2314" lon="-0.04809">
        <ele>33.2</ele>
        <time>2024-09-22T07:00:08Z</time>
      </trkpt>
      <trkpt lat="49.2314" lon="-0.04798">
        <ele>33.2</ele>
        <time>2024-09-22T07:00:09Z</time>
      </trkpt>
      <trkpt lat="49.2314" lon="-0.04786">
        <ele>33.2</ele>
        <time>2024-09-22T07:00:10Z</time>
      </trkpt>
      <trkpt lat="49.2314" lon="-0.04778">
        <ele>33.2</ele>
        <time>2024-09-22T07:00:11Z</time>
      </trkpt>
      <trkpt lat="49.2314" lon="-0.04768">
        <ele>32.8</ele>
        <time>2024-09-22T07:00:12Z</time>
      </trkpt>
      <trkpt lat="49.2314" lon="-0.04757">
        <ele>32.6</ele>
        <time>2024-09-22T07:00:13Z</time>
      </trkpt>
      <trkpt lat="49.23142" lon="-0.04747">
        <ele>32.2</ele>
        <time>2024-09-22T07:00:14Z</time>
      </trkpt>
      <trkpt lat="49.23145" lon="-0.04738">
        <ele>31.4</ele>
        <time>2024-09-22T07:00:15Z</time>
      </trkpt>
      <trkpt lat="49.23148" lon="-0.04727">
        <ele>30.8</ele>
        <time>2024-09-22T07:00:16Z</time>
      </trkpt>
      <trkpt lat="49.23151" lon="-0.0472">
        <ele>30.4</ele>
        <time>2024-09-22T07:00:17Z</time>
      </trkpt>
      <trkpt lat="49.23155" lon="-0.04712">
        <ele>30.4</ele>
        <time>2024-09-22T07:00:18Z</time>
      </trkpt>
      <trkpt lat="49.23159" lon="-0.04702">
        <ele>30</ele>
        <time>2024-09-22T07:00:19Z</time>
      </trkpt>
      <trkpt lat="49.23163" lon="-0.04693">
        <ele>29.8</ele>
        <time>2024-09-22T07:00:20Z</time>
      </trkpt>
      <trkpt lat="49.23167" lon="-0.04683">
        <ele>29</ele>
        <time>2024-09-22T07:00:21Z</time>
      </trkpt>
      <trkpt lat="49.2317" lon="-0.04674">
        <ele>28.4</ele>
        <time>2024-09-22T07:00:22Z</time>
      </trkpt>
      <trkpt lat="49.23174" lon="-0.04664">
        <ele>27.8</ele>
        <time>2024-09-22T07:00:23Z</time>
      </trkpt>
      <trkpt lat="49.23178" lon="-0.04655">
        <ele>27.2</ele>
        <time>2024-09-22T07:00:24Z</time>
      </trkpt>
      <trkpt lat="49.23181" lon="-0.04643">
        <ele>27</ele>
        <time>2024-09-22T07:00:25Z</time>
      </trkpt>
      <trkpt lat="49.23183" lon="-0.04636">
        <ele>26.8</ele>
        <time>2024-09-22T07:00:26Z</time>
      </trkpt>
      <trkpt lat="49.23186" lon="-0.04626">
        <ele>26.8</ele>
        <time>2024-09-22T07:00:27Z</time>
      </trkpt>
      <trkpt lat="49.23188" lon="-0.04615">
        <ele>26.6</ele>
        <time>2024-09-22T07:00:28Z</time>
      </trkpt>
      <trkpt lat="49.23189" lon="-0.04608">
        <ele>26.2</ele>
        <time>2024-09-22T07:00:29Z</time>
      </trkpt>
      <trkpt lat="49.2319" lon="-0.04599">
        <ele>26.2</ele>
        <time>2024-09-22T07:00:30Z</time>
      </trkpt>
      <trkpt lat="49.23192" lon="-0.04588">
        <ele>26.2</ele>
        <time>2024-09-22T07:00:31Z</time>
      </trkpt>
      <trkpt lat="49.23193" lon="-0.04581">
        <ele>26</ele>
        <time>2024-09-22T07:00:32Z</time>
      </trkpt>
      <trkpt lat="49.23195" lon="-0.04573">
        <ele>25.8</ele>
        <time>2024-09-22T07:00:33Z</time>
      </trkpt>
      <trkpt lat="49.23196" lon="-0.04564">
        <ele>25.8</ele>
        <time>2024-09-22T07:00:34Z</time>
      </trkpt>
      <trkpt lat="49.23198" lon="-0.04555">
        <ele>25.6</ele>
        <time>2024-09-22T07:00:35Z</time>
      </trkpt>
      <trkpt lat="49.232" lon="-0.04546">
        <ele>25.6</ele>
        <time>2024-09-22T07:00:36Z</time>
      </trkpt>
      <trkpt lat="49.23202" lon="-0.04535">
        <ele>25.6</ele>
        <time>2024-09-22T07:00:37Z</time>
      </trkpt>
      <trkpt lat="49.23204" lon="-0.04528">
        <ele>25.6</ele>
        <time>2024-09-22T07:00:38Z</time>
      </trkpt>
      <trkpt lat="49.23206" lon="-0.04518">
        <ele>25.4</ele>
        <time>2024-09-22T07:00:39Z</time>
      </trkpt>
      <trkpt lat="49.23208" lon="-0.04508">
        <ele>25.4</ele>
        <time>2024-09-22T07:00:40Z</time>
      </trkpt>
      <trkpt lat="49.2321" lon="-0.04499">
        <ele>25.2</ele>
        <time>2024-09-22T07:00:41Z</time>
      </trkpt>
      <trkpt lat="49.23212" lon="-0.04489">
        <ele>25.2</ele>
        <time>2024-09-22T07:00:42Z</time>
      </trkpt>
      <trkpt lat="49.23215" lon="-0.04477">
        <ele>25</ele>
        <time>2024-09-22T07:00:43Z</time>
      </trkpt>
      <trkpt lat="49.23217" lon="-0.04469">
        <ele>24.8</ele>
        <time>2024-09-22T07:00:44Z</time>
      </trkpt>
      <trkpt lat="49.2322" lon="-0.0446">
        <ele>24.8</ele>
        <time>2024-09-22T07:00:45Z</time>
      </trkpt>
      <trkpt lat="49.23223" lon="-0.04449">
        <ele>24.8</ele>
        <time>2024-09-22T07:00:46Z</time>
      </trkpt>
      <trkpt lat="49.23224" lon="-0.04442">
        <ele>24.8</ele>
        <time>2024-09-22T07:00:47Z</time>
      </trkpt>
      <trkpt lat="49.23226" lon="-0.04434">
        <ele>24.6</ele>
        <time>2024-09-22T07:00:48Z</time>
      </trkpt>
      <trkpt lat="49.23228" lon="-0.04423">
        <ele>24.4</ele>
        <time>2024-09-22T07:00:49Z</time>
      </trkpt>
      <trkpt lat="49.2323" lon="-0.04416">
        <ele>24.2</ele>
        <time>2024-09-22T07:00:50Z</time>
      </trkpt>
      <trkpt lat="49.23232" lon="-0.04406">
        <ele>24.2</ele>
        <time>2024-09-22T07:00:51Z</time>
      </trkpt>
      <trkpt lat="49.23235" lon="-0.04395">
        <ele>24</ele>
        <time>2024-09-22T07:00:52Z</time>
      </trkpt>
      <trkpt lat="49.23236" lon="-0.04388">
        <ele>24</ele>
        <time>2024-09-22T07:00:53Z</time>
      </trkpt>
      <trkpt lat="49.23238" lon="-0.0438">
        <ele>24</ele>
        <time>2024-09-22T07:00:54Z</time>
      </trkpt>
      <trkpt lat="49.2324" lon="-0.0437">
        <ele>24</ele>
        <time>2024-09-22T07:00:55Z</time>
      </trkpt>
      <trkpt lat="49.23241" lon="-0.04363">
        <ele>24</ele>
        <time>2024-09-22T07:00:56Z</time>
      </trkpt>
      <trkpt lat="49.23243" lon="-0.04355">
        <ele>24</ele>
        <time>2024-09-22T07:00:57Z</time>
      </trkpt>
      <trkpt lat="49.23245" lon="-0.04345">
        <ele>24</ele>
        <time>2024-09-22T07:00:58Z</time>
      </trkpt>
      <trkpt lat="49.23247" lon="-0.04339">
        <ele>24</ele>
        <time>2024-09-22T07:00:59Z</time>
      </trkpt>
      <trkpt lat="49.23249" lon="-0.04331">
        <ele>24</ele>
        <time>2024-09-22T07:01:00Z</time>
      </trkpt>
      <trkpt lat="49.23251" lon="-0.04321">
        <ele>24</ele>
        <time>2024-09-22T07:01:01Z</time>
      </trkpt>
      <trkpt lat="49.23253" lon="-0.04315">
        <ele>24</ele>
        <time>2024-09-22T07:01:02Z</time>
      </trkpt>
      <trkpt lat="49.23255" lon="-0.04307">
        <ele>24.2</ele>
        <time>2024-09-22T07:01:03Z</time>
      </trkpt>
      <trkpt lat="49.23257" lon="-0.04298">
        <ele>24.2</ele>
        <time>2024-09-22T07:01:04Z</time>
      </trkpt>
      <trkpt lat="49.23259" lon="-0.04291">
        <ele>24.4</ele>
        <time>2024-09-22T07:01:05Z</time>
      </trkpt>
      <trkpt lat="49.23261" lon="-0.04284">
        <ele>24.4</ele>
        <time>2024-09-22T07:01:06Z</time>
      </trkpt>
      <trkpt lat="49.23263" lon="-0.04277">
        <ele>24.8</ele>
        <time>2024-09-22T07:01:07Z</time>
      </trkpt>
      <trkpt lat="49.23265" lon="-0.0427">
        <ele>25</ele>
        <time>2024-09-22T07:01:08Z</time>
      </trkpt>
      <trkpt lat="49.23267" lon="-0.04264">
        <ele>25.4</ele>
        <time>2024-09-22T07:01:09Z</time>
      </trkpt>
      <trkpt lat="49.23269" lon="-0.04258">
        <ele>25.6</ele>
        <time>2024-09-22T07:01:10Z</time>
      </trkpt>
      <trkpt lat="49.23271" lon="-0.04252">
        <ele>25.8</ele>
        <time>2024-09-22T07:01:11Z</time>
      </trkpt>
      <trkpt lat="49.23273" lon="-0.04246">
        <ele>26</ele>
        <time>2024-09-22T07:01:12Z</time>
      </trkpt>
      <trkpt lat="49.23276" lon="-0.04239">
        <ele>26.2</ele>
        <time>2024-09-22T07:01:13Z</time>
      </trkpt>
      <trkpt lat="49.23278" lon="-0.04234">
        <ele>26.4</ele>
        <time>2024-09-22T07:01:14Z</time>
      </trkpt>
      <trkpt lat="49.23281" lon="-0.04229">
        <ele>26.6</ele>
        <time>2024-09-22T07:01:15Z</time>
      </trkpt>
      <trkpt lat="49.23284" lon="-0.04222">
        <ele>26.6</ele>
        <time>2024-09-22T07:01:16Z</time>
      </trkpt>
      <trkpt lat="49.23286" lon="-0.04218">
        <ele>27</ele>
        <time>2024-09-22T07:01:17Z</time>
      </trkpt>
      <trkpt lat="49.23288" lon="-0.04212">
        <ele>27</ele>
        <time>2024-09-22T07:01:18Z</time>
      </trkpt>
      <trkpt lat="49.23291" lon="-0.04206">
        <ele>27.2</ele>
        <time>2024-09-22T07:01:19Z</time>
      </trkpt>
      <trkpt lat="49.23293" lon="-0.04202">
        <ele>27.4</ele>
        <time>2024-09-22T07:01:20Z</time>
      </trkpt>
      <trkpt lat="49.23295" lon="-0.04197">
        <ele>27.4</ele>
        <time>2024-09-22T07:01:21Z</time>
      </trkpt>
      <trkpt lat="49.23297" lon="-0.04192">
        <ele>27.6</ele>
        <time>2024-09-22T07:01:22Z</time>
      </trkpt>
      <trkpt lat="49.23297" lon="-0.04187">
        <ele>27.6</ele>
        <time>2024-09-22T07:01:23Z</time>
      </trkpt>
      <trkpt lat="49.23296" lon="-0.04181">
        <ele>27.6</ele>
        <time>2024-09-22T07:01:24Z</time>
      </trkpt>
      <trkpt lat="49.23295" lon="-0.04176">
        <ele>27.6</ele>
        <time>2024-09-22T07:01:25Z</time>
      </trkpt>
      <trkpt lat="49.23292" lon="-0.04171">
        <ele>27.6</ele>
        <time>2024-09-22T07:01:26Z</time>
      </trkpt>
      <trkpt lat="49.23287" lon="-0.04165">
        <ele>27.6</ele>
        <time>2024-09-22T07:01:27Z</time>
      </trkpt>
      <trkpt lat="49.23283" lon="-0.04159">
        <ele>27.6</ele>
        <time>2024-09-22T07:01:28Z</time>
      </trkpt>
      <trkpt lat="49.2328" lon="-0.04155">
        <ele>27.6</ele>
        <time>2024-09-22T07:01:29Z</time>
      </trkpt>
      <trkpt lat="49.23276" lon="-0.04149">
        <ele>27.6</ele>
        <time>2024-09-22T07:01:30Z</time>
      </trkpt>
      <trkpt lat="49.23271" lon="-0.04143">
        <ele>27.6</ele>
        <time>2024-09-22T07:01:31Z</time>
      </trkpt>
      <trkpt lat="49.23267" lon="-0.04138">
        <ele>27.6</ele>
        <time>2024-09-22T07:01:32Z</time>
      </trkpt>
      <trkpt lat="49.23263" lon="-0.04133">
        <ele>27.6</ele>
        <time>2024-09-22T07:01:33Z</time>
      </trkpt>
      <trkpt lat="49.23259" lon="-0.04127">
        <ele>27.6</ele>
        <time>2024-09-22T07:01:34Z</time>
      </trkpt>
      <trkpt lat="49.23256" lon="-0.04123">
        <ele>27.4</ele>
        <time>2024-09-22T07:01:35Z</time>
      </trkpt>
      <trkpt lat="49.23253" lon="-0.04119">
        <ele>27.4</ele>
        <time>2024-09-22T07:01:36Z</time>
      </trkpt>
      <trkpt lat="49.23249" lon="-0.04114">
        <ele>27.4</ele>
        <time>2024-09-22T07:01:37Z</time>
      </trkpt>
      <trkpt lat="49.23247" lon="-0.04112">
        <ele>27.4</ele>
        <time>2024-09-22T07:01:38Z</time>
      </trkpt>
      <trkpt lat="49.23245" lon="-0.04108">
        <ele>27.4</ele>
        <time>2024-09-22T07:01:39Z</time>
      </trkpt>
      <trkpt lat="49.23243" lon="-0.04106">
        <ele>27.4</ele>
        <time>2024-09-22T07:01:40Z</time>
      </trkpt>
      <trkpt lat="49.23241" lon="-0.04104">
        <ele>27.4</ele>
        <time>2024-09-22T07:01:41Z</time>
      </trkpt>
      <trkpt lat="49.2324" lon="-0.04102">
        <ele>27.4</ele>
        <time>2024-09-22T07:01:42Z</time>
      </trkpt>
      <trkpt lat="49.23239" lon="-0.041">
        <ele>27.4</ele>
        <time>2024-09-22T07:01:43Z</time>
      </trkpt>
      <trkpt lat="49.23238" lon="-0.04099">
        <ele>27.4</ele>
        <time>2024-09-22T07:01:44Z</time>
      </trkpt>
      <trkpt lat="49.23237" lon="-0.04098">
        <ele>27.4</ele>
        <time>2024-09-22T07:01:45Z</time>
      </trkpt>
      <trkpt lat="49.23236" lon="-0.04097">
        <ele>27.4</ele>
        <time>2024-09-22T07:01:46Z</time>
      </trkpt>
      <trkpt lat="49.23236" lon="-0.04097">
        <ele>27.4</ele>
        <time>2024-09-22T07:01:47Z</time>
      </trkpt>
      <trkpt lat="49.23234" lon="-0.04092">
        <ele>27.4</ele>
        <time>2024-09-22T07:01:53Z</time>
      </trkpt>
      <trkpt lat="49.23234" lon="-0.0409">
        <ele>27.4</ele>
        <time>2024-09-22T07:01:54Z</time>
      </trkpt>
      <trkpt lat="49.23235" lon="-0.04086">
        <ele>27.4</ele>
        <time>2024-09-22T07:01:55Z</time>
      </trkpt>
      <trkpt lat="49.23237" lon="-0.04083">
        <ele>27.4</ele>
        <time>2024-09-22T07:01:56Z</time>
      </trkpt>
      <trkpt lat="49.23239" lon="-0.04079">
        <ele>27.4</ele>
        <time>2024-09-22T07:01:57Z</time>
      </trkpt>
      <trkpt lat="49.23241" lon="-0.04074">
        <ele>27.4</ele>
        <time>2024-09-22T07:01:58Z</time>
      </trkpt>
      <trkpt lat="49.23244" lon="-0.0407">
        <ele>27.4</ele>
        <time>2024-09-22T07:01:59Z</time>
      </trkpt>
      <trkpt lat="49.23247" lon="-0.04065">
        <ele>27.4</ele>
        <time>2024-09-22T07:02:00Z</time>
      </trkpt>
      <trkpt lat="49.2325" lon="-0.0406">
        <ele>27.4</ele>
        <time>2024-09-22T07:02:01Z</time>
      </trkpt>
      <trkpt lat="49.23253" lon="-0.04054">
        <ele>27.4</ele>
        <time>2024-09-22T07:02:02Z</time>
      </trkpt>
      <trkpt lat="49.23257" lon="-0.04047">
        <ele>27.4</ele>
        <time>2024-09-22T07:02:03Z</time>
      </trkpt>
      <trkpt lat="49.2326" lon="-0.04043">
        <ele>27.4</ele>
        <time>2024-09-22T07:02:04Z</time>
      </trkpt>
      <trkpt lat="49.23263" lon="-0.04037">
        <ele>27.2</ele>
        <time>2024-09-22T07:02:05Z</time>
      </trkpt>
      <trkpt lat="49.23267" lon="-0.0403">
        <ele>27</ele>
        <time>2024-09-22T07:02:06Z</time>
      </trkpt>
      <trkpt lat="49.2327" lon="-0.04023">
        <ele>26.8</ele>
        <time>2024-09-22T07:02:07Z</time>
      </trkpt>
      <trkpt lat="49.23274" lon="-0.04015">
        <ele>26.6</ele>
        <time>2024-09-22T07:02:08Z</time>
      </trkpt>
      <trkpt lat="49.23278" lon="-0.04008">
        <ele>26.4</ele>
        <time>2024-09-22T07:02:09Z</time>
      </trkpt>
      <trkpt lat="49.23282" lon="-0.04">
        <ele>26.4</ele>
        <time>2024-09-22T07:02:10Z</time>
      </trkpt>
      <trkpt lat="49.23285" lon="-0.03992">
        <ele>26</ele>
        <time>2024-09-22T07:02:11Z</time>
      </trkpt>
      <trkpt lat="49.23289" lon="-0.03984">
        <ele>25.8</ele>
        <time>2024-09-22T07:02:12Z</time>
      </trkpt>
      <trkpt lat="49.23294" lon="-0.03974">
        <ele>25.8</ele>
        <time>2024-09-22T07:02:13Z</time>
      </trkpt>
      <trkpt lat="49.23298" lon="-0.03967">
        <ele>25.6</ele>
        <time>2024-09-22T07:02:14Z</time>
      </trkpt>
      <trkpt lat="49.23302" lon="-0.03959">
        <ele>25.2</ele>
        <time>2024-09-22T07:02:15Z</time>
      </trkpt>
      <trkpt lat="49.23307" lon="-0.03951">
        <ele>25.2</ele>
        <time>2024-09-22T07:02:16Z</time>
      </trkpt>
      <trkpt lat="49.23311" lon="-0.03942">
        <ele>24.6</ele>
        <time>2024-09-22T07:02:17Z</time>
      </trkpt>
      <trkpt lat="49.23316" lon="-0.03934">
        <ele>24.6</ele>
        <time>2024-09-22T07:02:18Z</time>
      </trkpt>
      <trkpt lat="49.2332" lon="-0.03926">
        <ele>24.2</ele>
        <time>2024-09-22T07:02:19Z</time>
      </trkpt>
      <trkpt lat="49.23325" lon="-0.03917">
        <ele>24</ele>
        <time>2024-09-22T07:02:20Z</time>
      </trkpt>
      <trkpt lat="49.23329" lon="-0.03909">
        <ele>23.8</ele>
        <time>2024-09-22T07:02:21Z</time>
      </trkpt>
      <trkpt lat="49.23334" lon="-0.039">
        <ele>23.8</ele>
        <time>2024-09-22T07:02:22Z</time>
      </trkpt>
      <trkpt lat="49.23338" lon="-0.03892">
        <ele>23.6</ele>
        <time>2024-09-22T07:02:23Z</time>
      </trkpt>
      <trkpt lat="49.23343" lon="-0.03883">
        <ele>23.4</ele>
        <time>2024-09-22T07:02:24Z</time>
      </trkpt>
      <trkpt lat="49.23348" lon="-0.03874">
        <ele>23.2</ele>
        <time>2024-09-22T07:02:25Z</time>
      </trkpt>
      <trkpt lat="49.23352" lon="-0.03865">
        <ele>23</ele>
        <time>2024-09-22T07:02:26Z</time>
      </trkpt>
      <trkpt lat="49.23357" lon="-0.03856">
        <ele>22.8</ele>
        <time>2024-09-22T07:02:27Z</time>
      </trkpt>
      <trkpt lat="49.23361" lon="-0.03848">
        <ele>22.6</ele>
        <time>2024-09-22T07:02:28Z</time>
      </trkpt>
      <trkpt lat="49.23365" lon="-0.03838">
        <ele>22.2</ele>
        <time>2024-09-22T07:02:29Z</time>
      </trkpt>
      <trkpt lat="49.23369" lon="-0.03829">
        <ele>22</ele>
        <time>2024-09-22T07:02:30Z</time>
      </trkpt>
      <trkpt lat="49.23373" lon="-0.03819">
        <ele>21.6</ele>
        <time>2024-09-22T07:02:31Z</time>
      </trkpt>
      <trkpt lat="49.23376" lon="-0.03811">
        <ele>21.4</ele>
        <time>2024-09-22T07:02:32Z</time>
      </trkpt>
      <trkpt lat="49.23381" lon="-0.03803">
        <ele>21.2</ele>
        <time>2024-09-22T07:02:33Z</time>
      </trkpt>
      <trkpt lat="49.23387" lon="-0.03796">
        <ele>21</ele>
        <time>2024-09-22T07:02:34Z</time>
      </trkpt>
      <trkpt lat="49.23392" lon="-0.03789">
        <ele>20.6</ele>
        <time>2024-09-22T07:02:35Z</time>
      </trkpt>
      <trkpt lat="49.23398" lon="-0.03781">
        <ele>20.4</ele>
        <time>2024-09-22T07:02:36Z</time>
      </trkpt>
      <trkpt lat="49.23403" lon="-0.03772">
        <ele>20</ele>
        <time>2024-09-22T07:02:37Z</time>
      </trkpt>
      <trkpt lat="49.23408" lon="-0.03763">
        <ele>20</ele>
        <time>2024-09-22T07:02:38Z</time>
      </trkpt>
      <trkpt lat="49.23412" lon="-0.03753">
        <ele>19.8</ele>
        <time>2024-09-22T07:02:39Z</time>
      </trkpt>
      <trkpt lat="49.23417" lon="-0.03744">
        <ele>19.6</ele>
        <time>2024-09-22T07:02:40Z</time>
      </trkpt>
      <trkpt lat="49.23422" lon="-0.03735">
        <ele>19.4</ele>
        <time>2024-09-22T07:02:41Z</time>
      </trkpt>
      <trkpt lat="49.23427" lon="-0.03726">
        <ele>19.2</ele>
        <time>2024-09-22T07:02:42Z</time>
      </trkpt>
      <trkpt lat="49.23432" lon="-0.03717">
        <ele>19</ele>
        <time>2024-09-22T07:02:43Z</time>
      </trkpt>
      <trkpt lat="49.23437" lon="-0.03708">
        <ele>18.8</ele>
        <time>2024-09-22T07:02:44Z</time>
      </trkpt>
      <trkpt lat="49.23442" lon="-0.03699">
        <ele>18.8</ele>
        <time>2024-09-22T07:02:45Z</time>
      </trkpt>
      <trkpt lat="49.23447" lon="-0.0369">
        <ele>18.6</ele>
        <time>2024-09-22T07:02:46Z</time>
      </trkpt>
      <trkpt lat="49.23451" lon="-0.03682">
        <ele>18.6</ele>
        <time>2024-09-22T07:02:47Z</time>
      </trkpt>
      <trkpt lat="49.23456" lon="-0.03674">
        <ele>18.6</ele>
        <time>2024-09-22T07:02:48Z</time>
      </trkpt>
      <trkpt lat="49.2346" lon="-0.03666">
        <ele>18.6</ele>
        <time>2024-09-22T07:02:49Z</time>
      </trkpt>
      <trkpt lat="49.23464" lon="-0.03658">
        <ele>18.4</ele>
        <time>2024-09-22T07:02:50Z</time>
      </trkpt>
      <trkpt lat="49.23468" lon="-0.03651">
        <ele>18.4</ele>
        <time>2024-09-22T07:02:51Z</time>
      </trkpt>
      <trkpt lat="49.23473" lon="-0.03643">
        <ele>18.4</ele>
        <time>2024-09-22T07:02:52Z</time>
      </trkpt>
      <trkpt lat="49.23477" lon="-0.03636">
        <ele>18.4</ele>
        <time>2024-09-22T07:02:53Z</time>
      </trkpt>
      <trkpt lat="49.23481" lon="-0.03628">
        <ele>18.4</ele>
        <time>2024-09-22T07:02:54Z</time>
      </trkpt>
      <trkpt lat="49.23485" lon="-0.03621">
        <ele>18.4</ele>
        <time>2024-09-22T07:02:55Z</time>
      </trkpt>
      <trkpt lat="49.23488" lon="-0.03613">
        <ele>18.4</ele>
        <time>2024-09-22T07:02:56Z</time>
      </trkpt>
      <trkpt lat="49.23493" lon="-0.03606">
        <ele>18.4</ele>
        <time>2024-09-22T07:02:57Z</time>
      </trkpt>
      <trkpt lat="49.23497" lon="-0.03598">
        <ele>18.4</ele>
        <time>2024-09-22T07:02:58Z</time>
      </trkpt>
      <trkpt lat="49.23501" lon="-0.03591">
        <ele>18.4</ele>
        <time>2024-09-22T07:02:59Z</time>
      </trkpt>
      <trkpt lat="49.23505" lon="-0.03583">
        <ele>18.4</ele>
        <time>2024-09-22T07:03:00Z</time>
      </trkpt>
      <trkpt lat="49.23509" lon="-0.03576">
        <ele>18.4</ele>
        <time>2024-09-22T07:03:01Z</time>
      </trkpt>
      <trkpt lat="49.23513" lon="-0.03568">
        <ele>18.4</ele>
        <time>2024-09-22T07:03:02Z</time>
      </trkpt>
      <trkpt lat="49.23517" lon="-0.03561">
        <ele>18.6</ele>
        <time>2024-09-22T07:03:03Z</time>
      </trkpt>
      <trkpt lat="49.23521" lon="-0.03553">
        <ele>18.6</ele>
        <time>2024-09-22T07:03:04Z</time>
      </trkpt>
      <trkpt lat="49.23525" lon="-0.03546">
        <ele>18.8</ele>
        <time>2024-09-22T07:03:05Z</time>
      </trkpt>
      <trkpt lat="49.23528" lon="-0.03538">
        <ele>19</ele>
        <time>2024-09-22T07:03:06Z</time>
      </trkpt>
      <trkpt lat="49.23532" lon="-0.03531">
        <ele>19.2</ele>
        <time>2024-09-22T07:03:07Z</time>
      </trkpt>
      <trkpt lat="49.23536" lon="-0.03525">
        <ele>19.4</ele>
        <time>2024-09-22T07:03:08Z</time>
      </trkpt>
      <trkpt lat="49.23539" lon="-0.03518">
        <ele>19.6</ele>
        <time>2024-09-22T07:03:09Z</time>
      </trkpt>
      <trkpt lat="49.23543" lon="-0.03512">
        <ele>19.6</ele>
        <time>2024-09-22T07:03:10Z</time>
      </trkpt>
      <trkpt lat="49.23547" lon="-0.03505">
        <ele>19.8</ele>
        <time>2024-09-22T07:03:11Z</time>
      </trkpt>
      <trkpt lat="49.2355" lon="-0.03498">
        <ele>20</ele>
        <time>2024-09-22T07:03:12Z</time>
      </trkpt>
      <trkpt lat="49.23553" lon="-0.03492">
        <ele>20.2</ele>
        <time>2024-09-22T07:03:13Z</time>
      </trkpt>
      <trkpt lat="49.23557" lon="-0.03486">
        <ele>20.4</ele>
        <time>2024-09-22T07:03:14Z</time>
      </trkpt>
      <trkpt lat="49.2356" lon="-0.0348">
        <ele>20.8</ele>
        <time>2024-09-22T07:03:15Z</time>
      </trkpt>
      <trkpt lat="49.23563" lon="-0.03473">
        <ele>21</ele>
        <time>2024-09-22T07:03:16Z</time>
      </trkpt>
      <trkpt lat="49.23566" lon="-0.03467">
        <ele>21.4</ele>
        <time>2024-09-22T07:03:17Z</time>
      </trkpt>
      <trkpt lat="49.23569" lon="-0.0346">
        <ele>21.4</ele>
        <time>2024-09-22T07:03:18Z</time>
      </trkpt>
      <trkpt lat="49.23573" lon="-0.03454">
        <ele>21.8</ele>
        <time>2024-09-22T07:03:19Z</time>
      </trkpt>
      <trkpt lat="49.23576" lon="-0.03448">
        <ele>22</ele>
        <time>2024-09-22T07:03:20Z</time>
      </trkpt>
      <trkpt lat="49.23579" lon="-0.03443">
        <ele>22.4</ele>
        <time>2024-09-22T07:03:21Z</time>
      </trkpt>
      <trkpt lat="49.23583" lon="-0.03438">
        <ele>22.8</ele>
        <time>2024-09-22T07:03:22Z</time>
      </trkpt>
      <trkpt lat="49.23586" lon="-0.03433">
        <ele>23.2</ele>
        <time>2024-09-22T07:03:23Z</time>
      </trkpt>
      <trkpt lat="49.23589" lon="-0.03427">
        <ele>23.6</ele>
        <time>2024-09-22T07:03:24Z</time>
      </trkpt>
      <trkpt lat="49.23592" lon="-0.03421">
        <ele>24.2</ele>
        <time>2024-09-22T07:03:25Z</time>
      </trkpt>
      <trkpt lat="49.23595" lon="-0.03416">
        <ele>24.4</ele>
        <time>2024-09-22T07:03:26Z</time>
      </trkpt>
      <trkpt lat="49.23599" lon="-0.03409">
        <ele>24.8</ele>
        <time>2024-09-22T07:03:27Z</time>
      </trkpt>
      <trkpt lat="49.23601" lon="-0.03404">
        <ele>25.2</ele>
        <time>2024-09-22T07:03:28Z</time>
      </trkpt>
      <trkpt lat="49.23604" lon="-0.03399">
        <ele>25.8</ele>
        <time>2024-09-22T07:03:29Z</time>
      </trkpt>
      <trkpt lat="49.23607" lon="-0.03393">
        <ele>26.2</ele>
        <time>2024-09-22T07:03:30Z</time>
      </trkpt>
      <trkpt lat="49.2361" lon="-0.03387">
        <ele>26.6</ele>
        <time>2024-09-22T07:03:31Z</time>
      </trkpt>
      <trkpt lat="49.23613" lon="-0.03382">
        <ele>27</ele>
        <time>2024-09-22T07:03:32Z</time>
      </trkpt>
      <trkpt lat="49.23616" lon="-0.03376">
        <ele>27.4</ele>
        <time>2024-09-22T07:03:33Z</time>
      </trkpt>
      <trkpt lat="49.23619" lon="-0.0337">
        <ele>27.8</ele>
        <time>2024-09-22T07:03:34Z</time>
      </trkpt>
      <trkpt lat="49.23622" lon="-0.03365">
        <ele>28.2</ele>
        <time>2024-09-22T07:03:35Z</time>
      </trkpt>
      <trkpt lat="49.23625" lon="-0.03359">
        <ele>28.6</ele>
        <time>2024-09-22T07:03:36Z</time>
      </trkpt>
      <trkpt lat="49.23628" lon="-0.03354">
        <ele>29</ele>
        <time>2024-09-22T07:03:37Z</time>
      </trkpt>
      <trkpt lat="49.2363" lon="-0.03348">
        <ele>29</ele>
        <time>2024-09-22T07:03:38Z</time>
      </trkpt>
      <trkpt lat="49.23634" lon="-0.03342">
        <ele>29.4</ele>
        <time>2024-09-22T07:03:39Z</time>
      </trkpt>
      <trkpt lat="49.23637" lon="-0.03337">
        <ele>29.8</ele>
        <time>2024-09-22T07:03:40Z</time>
      </trkpt>
      <trkpt lat="49.2364" lon="-0.03331">
        <ele>30</ele>
        <time>2024-09-22T07:03:41Z</time>
      </trkpt>
      <trkpt lat="49.23642" lon="-0.03325">
        <ele>30.4</ele>
        <time>2024-09-22T07:03:42Z</time>
      </trkpt>
      <trkpt lat="49.23645" lon="-0.03319">
        <ele>30.8</ele>
        <time>2024-09-22T07:03:43Z</time>
      </trkpt>
      <trkpt lat="49.23648" lon="-0.03313">
        <ele>31.2</ele>
        <time>2024-09-22T07:03:44Z</time>
      </trkpt>
      <trkpt lat="49.2365" lon="-0.03307">
        <ele>31.4</ele>
        <time>2024-09-22T07:03:45Z</time>
      </trkpt>
      <trkpt lat="49.23652" lon="-0.03301">
        <ele>31.8</ele>
        <time>2024-09-22T07:03:46Z</time>
      </trkpt>
      <trkpt lat="49.23654" lon="-0.03295">
        <ele>32.2</ele>
        <time>2024-09-22T07:03:47Z</time>
      </trkpt>
      <trkpt lat="49.23657" lon="-0.03289">
        <ele>32.4</ele>
        <time>2024-09-22T07:03:48Z</time>
      </trkpt>
      <trkpt lat="49.2366" lon="-0.03282">
        <ele>32.8</ele>
        <time>2024-09-22T07:03:49Z</time>
      </trkpt>
      <trkpt lat="49.23662" lon="-0.03275">
        <ele>33</ele>
        <time>2024-09-22T07:03:50Z</time>
      </trkpt>
      <trkpt lat="49.23664" lon="-0.03269">
        <ele>33.4</ele>
        <time>2024-09-22T07:03:51Z</time>
      </trkpt>
      <trkpt lat="49.23667" lon="-0.03262">
        <ele>33.6</ele>
        <time>2024-09-22T07:03:52Z</time>
      </trkpt>
      <trkpt lat="49.2367" lon="-0.03256">
        <ele>34</ele>
        <time>2024-09-22T07:03:53Z</time>
      </trkpt>
      <trkpt lat="49.23672" lon="-0.03249">
        <ele>34.2</ele>
        <time>2024-09-22T07:03:54Z</time>
      </trkpt>
      <trkpt lat="49.23674" lon="-0.03242">
        <ele>34.4</ele>
        <time>2024-09-22T07:03:55Z</time>
      </trkpt>
      <trkpt lat="49.23677" lon="-0.03234">
        <ele>34.8</ele>
        <time>2024-09-22T07:03:56Z</time>
      </trkpt>
      <trkpt lat="49.23679" lon="-0.03226">
        <ele>35</ele>
        <time>2024-09-22T07:03:57Z</time>
      </trkpt>
      <trkpt lat="49.23682" lon="-0.03218">
        <ele>35</ele>
        <time>2024-09-22T07:03:58Z</time>
      </trkpt>
      <trkpt lat="49.23685" lon="-0.03208">
        <ele>35.2</ele>
        <time>2024-09-22T07:03:59Z</time>
      </trkpt>
      <trkpt lat="49.23688" lon="-0.03201">
        <ele>35.6</ele>
        <time>2024-09-22T07:04:00Z</time>
      </trkpt>
      <trkpt lat="49.2369" lon="-0.03193">
        <ele>35.8</ele>
        <time>2024-09-22T07:04:01Z</time>
      </trkpt>
      <trkpt lat="49.23693" lon="-0.03184">
        <ele>36</ele>
        <time>2024-09-22T07:04:02Z</time>
      </trkpt>
      <trkpt lat="49.23696" lon="-0.03176">
        <ele>36</ele>
        <time>2024-09-22T07:04:03Z</time>
      </trkpt>
      <trkpt lat="49.23699" lon="-0.03167">
        <ele>36.4</ele>
        <time>2024-09-22T07:04:04Z</time>
      </trkpt>
      <trkpt lat="49.23702" lon="-0.03158">
        <ele>36.4</ele>
        <time>2024-09-22T07:04:05Z</time>
      </trkpt>
      <trkpt lat="49.23706" lon="-0.0315">
        <ele>36.6</ele>
        <time>2024-09-22T07:04:06Z</time>
      </trkpt>
      <trkpt lat="49.23709" lon="-0.0314">
        <ele>36.6</ele>
        <time>2024-09-22T07:04:07Z</time>
      </trkpt>
      <trkpt lat="49.23711" lon="-0.03131">
        <ele>36.8</ele>
        <time>2024-09-22T07:04:08Z</time>
      </trkpt>
      <trkpt lat="49.23714" lon="-0.03122">
        <ele>36.8</ele>
        <time>2024-09-22T07:04:09Z</time>
      </trkpt>
      <trkpt lat="49.23718" lon="-0.03112">
        <ele>36.8</ele>
        <time>2024-09-22T07:04:10Z</time>
      </trkpt>
      <trkpt lat="49.23721" lon="-0.03103">
        <ele>36.8</ele>
        <time>2024-09-22T07:04:11Z</time>
      </trkpt>
      <trkpt lat="49.23724" lon="-0.03093">
        <ele>36.8</ele>
        <time>2024-09-22T07:04:12Z</time>
      </trkpt>
      <trkpt lat="49.23727" lon="-0.03083">
        <ele>36.8</ele>
        <time>2024-09-22T07:04:13Z</time>
      </trkpt>
      <trkpt lat="49.23731" lon="-0.03073">
        <ele>36.8</ele>
        <time>2024-09-22T07:04:14Z</time>
      </trkpt>
      <trkpt lat="49.23735" lon="-0.03064">
        <ele>36.8</ele>
        <time>2024-09-22T07:04:15Z</time>
      </trkpt>
      <trkpt lat="49.23739" lon="-0.03054">
        <ele>36.8</ele>
        <time>2024-09-22T07:04:16Z</time>
      </trkpt>
      <trkpt lat="49.23742" lon="-0.03044">
        <ele>36.8</ele>
        <time>2024-09-22T07:04:17Z</time>
      </trkpt>
      <trkpt lat="49.23746" lon="-0.03034">
        <ele>36.8</ele>
        <time>2024-09-22T07:04:18Z</time>
      </trkpt>
      <trkpt lat="49.23749" lon="-0.03024">
        <ele>36.8</ele>
        <time>2024-09-22T07:04:19Z</time>
      </trkpt>
      <trkpt lat="49.23752" lon="-0.03015">
        <ele>36.8</ele>
        <time>2024-09-22T07:04:20Z</time>
      </trkpt>
      <trkpt lat="49.23756" lon="-0.03003">
        <ele>36.8</ele>
        <time>2024-09-22T07:04:21Z</time>
      </trkpt>
      <trkpt lat="49.23759" lon="-0.02994">
        <ele>36.6</ele>
        <time>2024-09-22T07:04:22Z</time>
      </trkpt>
      <trkpt lat="49.23763" lon="-0.02984">
        <ele>36.6</ele>
        <time>2024-09-22T07:04:23Z</time>
      </trkpt>
      <trkpt lat="49.23766" lon="-0.02973">
        <ele>36.2</ele>
        <time>2024-09-22T07:04:24Z</time>
      </trkpt>
      <trkpt lat="49.2377" lon="-0.02963">
        <ele>35.8</ele>
        <time>2024-09-22T07:04:25Z</time>
      </trkpt>
      <trkpt lat="49.23774" lon="-0.02952">
        <ele>35.4</ele>
        <time>2024-09-22T07:04:26Z</time>
      </trkpt>
      <trkpt lat="49.23778" lon="-0.02941">
        <ele>35.2</ele>
        <time>2024-09-22T07:04:27Z</time>
      </trkpt>
      <trkpt lat="49.23781" lon="-0.0293">
        <ele>34.8</ele>
        <time>2024-09-22T07:04:28Z</time>
      </trkpt>
      <trkpt lat="49.23785" lon="-0.0292">
        <ele>34.6</ele>
        <time>2024-09-22T07:04:29Z</time>
      </trkpt>
      <trkpt lat="49.23789" lon="-0.02909">
        <ele>34.4</ele>
        <time>2024-09-22T07:04:30Z</time>
      </trkpt>
      <trkpt lat="49.23793" lon="-0.02898">
        <ele>34.2</ele>
        <time>2024-09-22T07:04:31Z</time>
      </trkpt>
      <trkpt lat="49.23797" lon="-0.02885">
        <ele>34</ele>
        <time>2024-09-22T07:04:32Z</time>
      </trkpt>
      <trkpt lat="49.23801" lon="-0.02875">
        <ele>34</ele>
        <time>2024-09-22T07:04:33Z</time>
      </trkpt>
      <trkpt lat="49.23803" lon="-0.02866">
        <ele>33.8</ele>
        <time>2024-09-22T07:04:34Z</time>
      </trkpt>
      <trkpt lat="49.23808" lon="-0.02853">
        <ele>33.6</ele>
        <time>2024-09-22T07:04:35Z</time>
      </trkpt>
      <trkpt lat="49.23812" lon="-0.02843">
        <ele>33.4</ele>
        <time>2024-09-22T07:04:36Z</time>
      </trkpt>
      <trkpt lat="49.23815" lon="-0.02835">
        <ele>33.4</ele>
        <time>2024-09-22T07:04:37Z</time>
      </trkpt>
      <trkpt lat="49.23818" lon="-0.02824">
        <ele>33.4</ele>
        <time>2024-09-22T07:04:38Z</time>
      </trkpt>
      <trkpt lat="49.23823" lon="-0.02811">
        <ele>33.2</ele>
        <time>2024-09-22T07:04:39Z</time>
      </trkpt>
      <trkpt lat="49.23826" lon="-0.02802">
        <ele>33</ele>
        <time>2024-09-22T07:04:40Z</time>
      </trkpt>
      <trkpt lat="49.2383" lon="-0.02789">
        <ele>32.8</ele>
        <time>2024-09-22T07:04:41Z</time>
      </trkpt>
      <trkpt lat="49.23834" lon="-0.02778">
        <ele>32.6</ele>
        <time>2024-09-22T07:04:42Z</time>
      </trkpt>
      <trkpt lat="49.23837" lon="-0.02769">
        <ele>32.4</ele>
        <time>2024-09-22T07:04:43Z</time>
      </trkpt>
      <trkpt lat="49.23842" lon="-0.02757">
        <ele>32.2</ele>
        <time>2024-09-22T07:04:44Z</time>
      </trkpt>
      <trkpt lat="49.23846" lon="-0.02746">
        <ele>32</ele>
        <time>2024-09-22T07:04:45Z</time>
      </trkpt>
      <trkpt lat="49.23848" lon="-0.02737">
        <ele>31.6</ele>
        <time>2024-09-22T07:04:46Z</time>
      </trkpt>
      <trkpt lat="49.23853" lon="-0.02724">
        <ele>31.2</ele>
        <time>2024-09-22T07:04:47Z</time>
      </trkpt>
      <trkpt lat="49.23856" lon="-0.02714">
        <ele>31</ele>
        <time>2024-09-22T07:04:48Z</time>
      </trkpt>
      <trkpt lat="49.2386" lon="-0.02705">
        <ele>30.8</ele>
        <time>2024-09-22T07:04:49Z</time>
      </trkpt>
      <trkpt lat="49.23864" lon="-0.02692">
        <ele>30.6</ele>
        <time>2024-09-22T07:04:50Z</time>
      </trkpt>
      <trkpt lat="49.23868" lon="-0.02681">
        <ele>30.4</ele>
        <time>2024-09-22T07:04:51Z</time>
      </trkpt>
      <trkpt lat="49.23872" lon="-0.0267">
        <ele>30.2</ele>
        <time>2024-09-22T07:04:52Z</time>
      </trkpt>
      <trkpt lat="49.23876" lon="-0.0266">
        <ele>30</ele>
        <time>2024-09-22T07:04:53Z</time>
      </trkpt>
      <trkpt lat="49.2388" lon="-0.02649">
        <ele>30</ele>
        <time>2024-09-22T07:04:54Z</time>
      </trkpt>
      <trkpt lat="49.23883" lon="-0.02638">
        <ele>29.8</ele>
        <time>2024-09-22T07:04:55Z</time>
      </trkpt>
      <trkpt lat="49.23887" lon="-0.02627">
        <ele>29.6</ele>
        <time>2024-09-22T07:04:56Z</time>
      </trkpt>
      <trkpt lat="49.23891" lon="-0.02615">
        <ele>29.6</ele>
        <time>2024-09-22T07:04:57Z</time>
      </trkpt>
      <trkpt lat="49.23895" lon="-0.02606">
        <ele>29.6</ele>
        <time>2024-09-22T07:04:58Z</time>
      </trkpt>
      <trkpt lat="49.23899" lon="-0.02595">
        <ele>29.4</ele>
        <time>2024-09-22T07:04:59Z</time>
      </trkpt>
      <trkpt lat="49.23902" lon="-0.02583">
        <ele>29.4</ele>
        <time>2024-09-22T07:05:00Z</time>
      </trkpt>
      <trkpt lat="49.23906" lon="-0.02572">
        <ele>29.4</ele>
        <time>2024-09-22T07:05:01Z</time>
      </trkpt>
      <trkpt lat="49.23911" lon="-0.02558">
        <ele>29.4</ele>
        <time>2024-09-22T07:05:02Z</time>
      </trkpt>
      <trkpt lat="49.23915" lon="-0.02547">
        <ele>29.2</ele>
        <time>2024-09-22T07:05:03Z</time>
      </trkpt>
      <trkpt lat="49.23919" lon="-0.02536">
        <ele>29.2</ele>
        <time>2024-09-22T07:05:04Z</time>
      </trkpt>
      <trkpt lat="49.23923" lon="-0.02524">
        <ele>29.2</ele>
        <time>2024-09-22T07:05:05Z</time>
      </trkpt>
      <trkpt lat="49.23927" lon="-0.02515">
        <ele>28.8</ele>
        <time>2024-09-22T07:05:06Z</time>
      </trkpt>
      <trkpt lat="49.23931" lon="-0.02502">
        <ele>29</ele>
        <time>2024-09-22T07:05:07Z</time>
      </trkpt>
      <trkpt lat="49.23935" lon="-0.0249">
        <ele>28.8</ele>
        <time>2024-09-22T07:05:08Z</time>
      </trkpt>
      <trkpt lat="49.23939" lon="-0.02481">
        <ele>28.8</ele>
        <time>2024-09-22T07:05:09Z</time>
      </trkpt>
      <trkpt lat="49.23944" lon="-0.02468">
        <ele>28.6</ele>
        <time>2024-09-22T07:05:10Z</time>
      </trkpt>
      <trkpt lat="49.23948" lon="-0.02456">
        <ele>28.8</ele>
        <time>2024-09-22T07:05:11Z</time>
      </trkpt>
      <trkpt lat="49.23951" lon="-0.02447">
        <ele>28.4</ele>
        <time>2024-09-22T07:05:12Z</time>
      </trkpt>
      <trkpt lat="49.23956" lon="-0.02432">
        <ele>28.2</ele>
        <time>2024-09-22T07:05:13Z</time>
      </trkpt>
      <trkpt lat="49.2396" lon="-0.02421">
        <ele>28</ele>
        <time>2024-09-22T07:05:14Z</time>
      </trkpt>
      <trkpt lat="49.23963" lon="-0.02412">
        <ele>28</ele>
        <time>2024-09-22T07:05:15Z</time>
      </trkpt>
      <trkpt lat="49.23968" lon="-0.02398">
        <ele>28.2</ele>
        <time>2024-09-22T07:05:16Z</time>
      </trkpt>
      <trkpt lat="49.23972" lon="-0.02386">
        <ele>28</ele>
        <time>2024-09-22T07:05:17Z</time>
      </trkpt>
      <trkpt lat="49.23975" lon="-0.02376">
        <ele>28</ele>
        <time>2024-09-22T07:05:18Z</time>
      </trkpt>
      <trkpt lat="49.2398" lon="-0.02362">
        <ele>27.8</ele>
        <time>2024-09-22T07:05:19Z</time>
      </trkpt>
      <trkpt lat="49.23984" lon="-0.02353">
        <ele>27.8</ele>
        <time>2024-09-22T07:05:20Z</time>
      </trkpt>
      <trkpt lat="49.23988" lon="-0.02341">
        <ele>27.6</ele>
        <time>2024-09-22T07:05:21Z</time>
      </trkpt>
      <trkpt lat="49.23992" lon="-0.02327">
        <ele>27.6</ele>
        <time>2024-09-22T07:05:22Z</time>
      </trkpt>
      <trkpt lat="49.23997" lon="-0.02315">
        <ele>27.4</ele>
        <time>2024-09-22T07:05:23Z</time>
      </trkpt>
      <trkpt lat="49.24" lon="-0.02306">
        <ele>27.4</ele>
        <time>2024-09-22T07:05:24Z</time>
      </trkpt>
      <trkpt lat="49.24005" lon="-0.02292">
        <ele>27</ele>
        <time>2024-09-22T07:05:25Z</time>
      </trkpt>
      <trkpt lat="49.24009" lon="-0.02281">
        <ele>26.8</ele>
        <time>2024-09-22T07:05:26Z</time>
      </trkpt>
      <trkpt lat="49.24012" lon="-0.02272">
        <ele>26.8</ele>
        <time>2024-09-22T07:05:27Z</time>
      </trkpt>
      <trkpt lat="49.24017" lon="-0.02258">
        <ele>26.8</ele>
        <time>2024-09-22T07:05:28Z</time>
      </trkpt>
      <trkpt lat="49.24021" lon="-0.02246">
        <ele>26.4</ele>
        <time>2024-09-22T07:05:29Z</time>
      </trkpt>
      <trkpt lat="49.24024" lon="-0.02237">
        <ele>26.6</ele>
        <time>2024-09-22T07:05:30Z</time>
      </trkpt>
      <trkpt lat="49.24029" lon="-0.02223">
        <ele>26.6</ele>
        <time>2024-09-22T07:05:31Z</time>
      </trkpt>
      <trkpt lat="49.24033" lon="-0.02212">
        <ele>26.4</ele>
        <time>2024-09-22T07:05:32Z</time>
      </trkpt>
      <trkpt lat="49.24036" lon="-0.02203">
        <ele>26.4</ele>
        <time>2024-09-22T07:05:33Z</time>
      </trkpt>
      <trkpt lat="49.24041" lon="-0.02189">
        <ele>26.4</ele>
        <time>2024-09-22T07:05:34Z</time>
      </trkpt>
      <trkpt lat="49.24045" lon="-0.02178">
        <ele>26.2</ele>
        <time>2024-09-22T07:05:35Z</time>
      </trkpt>
      <trkpt lat="49.24048" lon="-0.0217">
        <ele>26</ele>
        <time>2024-09-22T07:05:36Z</time>
      </trkpt>
      <trkpt lat="49.24052" lon="-0.02157">
        <ele>26.2</ele>
        <time>2024-09-22T07:05:37Z</time>
      </trkpt>
      <trkpt lat="49.24056" lon="-0.02146">
        <ele>26</ele>
        <time>2024-09-22T07:05:38Z</time>
      </trkpt>
      <trkpt lat="49.24059" lon="-0.02137">
        <ele>26</ele>
        <time>2024-09-22T07:05:39Z</time>
      </trkpt>
      <trkpt lat="49.24063" lon="-0.02125">
        <ele>26</ele>
        <time>2024-09-22T07:05:40Z</time>
      </trkpt>
      <trkpt lat="49.24066" lon="-0.02116">
        <ele>26.2</ele>
        <time>2024-09-22T07:05:41Z</time>
      </trkpt>
      <trkpt lat="49.24069" lon="-0.02106">
        <ele>26.4</ele>
        <time>2024-09-22T07:05:42Z</time>
      </trkpt>
      <trkpt lat="49.24073" lon="-0.02094">
        <ele>26.4</ele>
        <time>2024-09-22T07:05:43Z</time>
      </trkpt>
      <trkpt lat="49.24076" lon="-0.02083">
        <ele>26.4</ele>
        <time>2024-09-22T07:05:44Z</time>
      </trkpt>
      <trkpt lat="49.24079" lon="-0.02075">
        <ele>26.4</ele>
        <time>2024-09-22T07:05:45Z</time>
      </trkpt>
      <trkpt lat="49.24083" lon="-0.02064">
        <ele>26.4</ele>
        <time>2024-09-22T07:05:46Z</time>
      </trkpt>
      <trkpt lat="49.24086" lon="-0.02054">
        <ele>26.6</ele>
        <time>2024-09-22T07:05:47Z</time>
      </trkpt>
      <trkpt lat="49.24089" lon="-0.02046">
        <ele>26.8</ele>
        <time>2024-09-22T07:05:48Z</time>
      </trkpt>
      <trkpt lat="49.24093" lon="-0.02035">
        <ele>27</ele>
        <time>2024-09-22T07:05:49Z</time>
      </trkpt>
      <trkpt lat="49.24096" lon="-0.02026">
        <ele>27</ele>
        <time>2024-09-22T07:05:50Z</time>
      </trkpt>
      <trkpt lat="49.24099" lon="-0.02018">
        <ele>27.2</ele>
        <time>2024-09-22T07:05:51Z</time>
      </trkpt>
      <trkpt lat="49.24104" lon="-0.02007">
        <ele>27.2</ele>
        <time>2024-09-22T07:05:52Z</time>
      </trkpt>
      <trkpt lat="49.24107" lon="-0.01998">
        <ele>27.4</ele>
        <time>2024-09-22T07:05:53Z</time>
      </trkpt>
      <trkpt lat="49.2411" lon="-0.0199">
        <ele>27.8</ele>
        <time>2024-09-22T07:05:54Z</time>
      </trkpt>
      <trkpt lat="49.24114" lon="-0.01979">
        <ele>28</ele>
        <time>2024-09-22T07:05:55Z</time>
      </trkpt>
      <trkpt lat="49.24117" lon="-0.01969">
        <ele>28</ele>
        <time>2024-09-22T07:05:56Z</time>
      </trkpt>
      <trkpt lat="49.2412" lon="-0.01959">
        <ele>28.2</ele>
        <time>2024-09-22T07:05:57Z</time>
      </trkpt>
      <trkpt lat="49.24123" lon="-0.0195">
        <ele>28.2</ele>
        <time>2024-09-22T07:05:58Z</time>
      </trkpt>
      <trkpt lat="49.24125" lon="-0.01942">
        <ele>28.2</ele>
        <time>2024-09-22T07:05:59Z</time>
      </trkpt>
      <trkpt lat="49.24129" lon="-0.01931">
        <ele>28.4</ele>
        <time>2024-09-22T07:06:00Z</time>
      </trkpt>
      <trkpt lat="49.24133" lon="-0.01921">
        <ele>28.6</ele>
        <time>2024-09-22T07:06:01Z</time>
      </trkpt>
      <trkpt lat="49.24136" lon="-0.01912">
        <ele>28.6</ele>
        <time>2024-09-22T07:06:02Z</time>
      </trkpt>
      <trkpt lat="49.24139" lon="-0.01904">
        <ele>28.6</ele>
        <time>2024-09-22T07:06:03Z</time>
      </trkpt>
      <trkpt lat="49.24142" lon="-0.01894">
        <ele>28.6</ele>
        <time>2024-09-22T07:06:04Z</time>
      </trkpt>
      <trkpt lat="49.24145" lon="-0.01884">
        <ele>28.8</ele>
        <time>2024-09-22T07:06:05Z</time>
      </trkpt>
      <trkpt lat="49.2415" lon="-0.01872">
        <ele>28.8</ele>
        <time>2024-09-22T07:06:06Z</time>
      </trkpt>
      <trkpt lat="49.24153" lon="-0.01862">
        <ele>29</ele>
        <time>2024-09-22T07:06:07Z</time>
      </trkpt>
      <trkpt lat="49.24156" lon="-0.01854">
        <ele>29.2</ele>
        <time>2024-09-22T07:06:08Z</time>
      </trkpt>
      <trkpt lat="49.2416" lon="-0.01843">
        <ele>29.4</ele>
        <time>2024-09-22T07:06:09Z</time>
      </trkpt>
      <trkpt lat="49.24163" lon="-0.01833">
        <ele>29.6</ele>
        <time>2024-09-22T07:06:10Z</time>
      </trkpt>
      <trkpt lat="49.24166" lon="-0.01826">
        <ele>29.8</ele>
        <time>2024-09-22T07:06:11Z</time>
      </trkpt>
      <trkpt lat="49.2417" lon="-0.01815">
        <ele>30</ele>
        <time>2024-09-22T07:06:12Z</time>
      </trkpt>
      <trkpt lat="49.24173" lon="-0.01805">
        <ele>30.4</ele>
        <time>2024-09-22T07:06:13Z</time>
      </trkpt>
      <trkpt lat="49.24176" lon="-0.01798">
        <ele>30.6</ele>
        <time>2024-09-22T07:06:14Z</time>
      </trkpt>
      <trkpt lat="49.2418" lon="-0.01786">
        <ele>30.6</ele>
        <time>2024-09-22T07:06:15Z</time>
      </trkpt>
      <trkpt lat="49.24183" lon="-0.01776">
        <ele>30.8</ele>
        <time>2024-09-22T07:06:16Z</time>
      </trkpt>
      <trkpt lat="49.24186" lon="-0.01769">
        <ele>30.8</ele>
        <time>2024-09-22T07:06:17Z</time>
      </trkpt>
      <trkpt lat="49.24191" lon="-0.01757">
        <ele>31</ele>
        <time>2024-09-22T07:06:18Z</time>
      </trkpt>
      <trkpt lat="49.24194" lon="-0.01747">
        <ele>31</ele>
        <time>2024-09-22T07:06:19Z</time>
      </trkpt>
      <trkpt lat="49.24197" lon="-0.01739">
        <ele>31.2</ele>
        <time>2024-09-22T07:06:20Z</time>
      </trkpt>
      <trkpt lat="49.24201" lon="-0.01727">
        <ele>31.4</ele>
        <time>2024-09-22T07:06:21Z</time>
      </trkpt>
      <trkpt lat="49.24205" lon="-0.01717">
        <ele>31.6</ele>
        <time>2024-09-22T07:06:22Z</time>
      </trkpt>
      <trkpt lat="49.24208" lon="-0.01709">
        <ele>31.6</ele>
        <time>2024-09-22T07:06:23Z</time>
      </trkpt>
      <trkpt lat="49.24212" lon="-0.01699">
        <ele>31.8</ele>
        <time>2024-09-22T07:06:24Z</time>
      </trkpt>
      <trkpt lat="49.24216" lon="-0.01689">
        <ele>31.8</ele>
        <time>2024-09-22T07:06:25Z</time>
      </trkpt>
      <trkpt lat="49.2422" lon="-0.01677">
        <ele>31.8</ele>
        <time>2024-09-22T07:06:26Z</time>
      </trkpt>
      <trkpt lat="49.24224" lon="-0.01667">
        <ele>32</ele>
        <time>2024-09-22T07:06:27Z</time>
      </trkpt>
      <trkpt lat="49.24227" lon="-0.01657">
        <ele>32</ele>
        <time>2024-09-22T07:06:28Z</time>
      </trkpt>
      <trkpt lat="49.2423" lon="-0.01649">
        <ele>32</ele>
        <time>2024-09-22T07:06:29Z</time>
      </trkpt>
      <trkpt lat="49.24235" lon="-0.01637">
        <ele>32</ele>
        <time>2024-09-22T07:06:30Z</time>
      </trkpt>
      <trkpt lat="49.24238" lon="-0.01627">
        <ele>32.2</ele>
        <time>2024-09-22T07:06:31Z</time>
      </trkpt>
      <trkpt lat="49.24241" lon="-0.01618">
        <ele>32.2</ele>
        <time>2024-09-22T07:06:32Z</time>
      </trkpt>
      <trkpt lat="49.24245" lon="-0.01606">
        <ele>32.2</ele>
        <time>2024-09-22T07:06:33Z</time>
      </trkpt>
      <trkpt lat="49.24249" lon="-0.01595">
        <ele>32.4</ele>
        <time>2024-09-22T07:06:34Z</time>
      </trkpt>
      <trkpt lat="49.24252" lon="-0.01587">
        <ele>32.4</ele>
        <time>2024-09-22T07:06:35Z</time>
      </trkpt>
      <trkpt lat="49.24256" lon="-0.01575">
        <ele>32.4</ele>
        <time>2024-09-22T07:06:36Z</time>
      </trkpt>
      <trkpt lat="49.2426" lon="-0.01564">
        <ele>32.4</ele>
        <time>2024-09-22T07:06:37Z</time>
      </trkpt>
      <trkpt lat="49.24263" lon="-0.01556">
        <ele>32.4</ele>
        <time>2024-09-22T07:06:38Z</time>
      </trkpt>
      <trkpt lat="49.24267" lon="-0.01544">
        <ele>32.4</ele>
        <time>2024-09-22T07:06:39Z</time>
      </trkpt>
      <trkpt lat="49.24271" lon="-0.01533">
        <ele>32.4</ele>
        <time>2024-09-22T07:06:40Z</time>
      </trkpt>
      <trkpt lat="49.24273" lon="-0.01525">
        <ele>32.4</ele>
        <time>2024-09-22T07:06:41Z</time>
      </trkpt>
      <trkpt lat="49.24278" lon="-0.01512">
        <ele>32.4</ele>
        <time>2024-09-22T07:06:42Z</time>
      </trkpt>
      <trkpt lat="49.24281" lon="-0.01502">
        <ele>32.2</ele>
        <time>2024-09-22T07:06:43Z</time>
      </trkpt>
      <trkpt lat="49.24284" lon="-0.01494">
        <ele>32.2</ele>
        <time>2024-09-22T07:06:44Z</time>
      </trkpt>
      <trkpt lat="49.24288" lon="-0.01481">
        <ele>32.2</ele>
        <time>2024-09-22T07:06:45Z</time>
      </trkpt>
      <trkpt lat="49.24292" lon="-0.0147">
        <ele>32.2</ele>
        <time>2024-09-22T07:06:46Z</time>
      </trkpt>
      <trkpt lat="49.24294" lon="-0.01462">
        <ele>32.2</ele>
        <time>2024-09-22T07:06:47Z</time>
      </trkpt>
      <trkpt lat="49.24299" lon="-0.01449">
        <ele>32.2</ele>
        <time>2024-09-22T07:06:48Z</time>
      </trkpt>
      <trkpt lat="49.24303" lon="-0.01438">
        <ele>32.2</ele>
        <time>2024-09-22T07:06:49Z</time>
      </trkpt>
      <trkpt lat="49.24306" lon="-0.0143">
        <ele>32</ele>
        <time>2024-09-22T07:06:50Z</time>
      </trkpt>
      <trkpt lat="49.2431" lon="-0.01417">
        <ele>32</ele>
        <time>2024-09-22T07:06:51Z</time>
      </trkpt>
      <trkpt lat="49.24314" lon="-0.01406">
        <ele>32</ele>
        <time>2024-09-22T07:06:52Z</time>
      </trkpt>
      <trkpt lat="49.24317" lon="-0.01396">
        <ele>31.8</ele>
        <time>2024-09-22T07:06:53Z</time>
      </trkpt>
      <trkpt lat="49.24321" lon="-0.01385">
        <ele>31.8</ele>
        <time>2024-09-22T07:06:54Z</time>
      </trkpt>
      <trkpt lat="49.24325" lon="-0.01374">
        <ele>31.8</ele>
        <time>2024-09-22T07:06:55Z</time>
      </trkpt>
      <trkpt lat="49.24329" lon="-0.01364">
        <ele>31.8</ele>
        <time>2024-09-22T07:06:56Z</time>
      </trkpt>
      <trkpt lat="49.24333" lon="-0.01353">
        <ele>31.6</ele>
        <time>2024-09-22T07:06:57Z</time>
      </trkpt>
      <trkpt lat="49.24337" lon="-0.01343">
        <ele>31.6</ele>
        <time>2024-09-22T07:06:58Z</time>
      </trkpt>
      <trkpt lat="49.24341" lon="-0.01332">
        <ele>31.6</ele>
        <time>2024-09-22T07:06:59Z</time>
      </trkpt>
      <trkpt lat="49.24345" lon="-0.01321">
        <ele>31.6</ele>
        <time>2024-09-22T07:07:00Z</time>
      </trkpt>
      <trkpt lat="49.24349" lon="-0.0131">
        <ele>31.6</ele>
        <time>2024-09-22T07:07:01Z</time>
      </trkpt>
      <trkpt lat="49.24353" lon="-0.013">
        <ele>31.4</ele>
        <time>2024-09-22T07:07:02Z</time>
      </trkpt>
      <trkpt lat="49.24357" lon="-0.01289">
        <ele>31.4</ele>
        <time>2024-09-22T07:07:03Z</time>
      </trkpt>
      <trkpt lat="49.24361" lon="-0.01278">
        <ele>31.2</ele>
        <time>2024-09-22T07:07:04Z</time>
      </trkpt>
      <trkpt lat="49.24365" lon="-0.01266">
        <ele>31.2</ele>
        <time>2024-09-22T07:07:05Z</time>
      </trkpt>
      <trkpt lat="49.24369" lon="-0.01255">
        <ele>31</ele>
        <time>2024-09-22T07:07:06Z</time>
      </trkpt>
      <trkpt lat="49.24372" lon="-0.01246">
        <ele>31</ele>
        <time>2024-09-22T07:07:07Z</time>
      </trkpt>
      <trkpt lat="49.24376" lon="-0.01235">
        <ele>30.8</ele>
        <time>2024-09-22T07:07:08Z</time>
      </trkpt>
      <trkpt lat="49.2438" lon="-0.01224">
        <ele>30.6</ele>
        <time>2024-09-22T07:07:09Z</time>
      </trkpt>
      <trkpt lat="49.24384" lon="-0.01211">
        <ele>30.6</ele>
        <time>2024-09-22T07:07:10Z</time>
      </trkpt>
      <trkpt lat="49.24388" lon="-0.012">
        <ele>30.4</ele>
        <time>2024-09-22T07:07:11Z</time>
      </trkpt>
      <trkpt lat="49.24392" lon="-0.01189">
        <ele>30.2</ele>
        <time>2024-09-22T07:07:12Z</time>
      </trkpt>
      <trkpt lat="49.24396" lon="-0.01178">
        <ele>30</ele>
        <time>2024-09-22T07:07:13Z</time>
      </trkpt>
      <trkpt lat="49.244" lon="-0.01167">
        <ele>29.8</ele>
        <time>2024-09-22T07:07:14Z</time>
      </trkpt>
      <trkpt lat="49.24404" lon="-0.01156">
        <ele>29.8</ele>
        <time>2024-09-22T07:07:15Z</time>
      </trkpt>
      <trkpt lat="49.24407" lon="-0.01148">
        <ele>29.4</ele>
        <time>2024-09-22T07:07:16Z</time>
      </trkpt>
      <trkpt lat="49.24411" lon="-0.01135">
        <ele>29.2</ele>
        <time>2024-09-22T07:07:17Z</time>
      </trkpt>
      <trkpt lat="49.24414" lon="-0.01124">
        <ele>29.2</ele>
        <time>2024-09-22T07:07:18Z</time>
      </trkpt>
      <trkpt lat="49.24418" lon="-0.01114">
        <ele>29.2</ele>
        <time>2024-09-22T07:07:19Z</time>
      </trkpt>
      <trkpt lat="49.24422" lon="-0.01104">
        <ele>29</ele>
        <time>2024-09-22T07:07:20Z</time>
      </trkpt>
      <trkpt lat="49.24425" lon="-0.01093">
        <ele>28.8</ele>
        <time>2024-09-22T07:07:21Z</time>
      </trkpt>
      <trkpt lat="49.24428" lon="-0.01085">
        <ele>28.6</ele>
        <time>2024-09-22T07:07:22Z</time>
      </trkpt>
      <trkpt lat="49.24432" lon="-0.01073">
        <ele>28.6</ele>
        <time>2024-09-22T07:07:23Z</time>
      </trkpt>
      <trkpt lat="49.24435" lon="-0.01063">
        <ele>28.4</ele>
        <time>2024-09-22T07:07:24Z</time>
      </trkpt>
      <trkpt lat="49.24438" lon="-0.01054">
        <ele>28.2</ele>
        <time>2024-09-22T07:07:25Z</time>
      </trkpt>
      <trkpt lat="49.24442" lon="-0.01043">
        <ele>28.4</ele>
        <time>2024-09-22T07:07:26Z</time>
      </trkpt>
      <trkpt lat="49.24446" lon="-0.01033">
        <ele>28.4</ele>
        <time>2024-09-22T07:07:27Z</time>
      </trkpt>
      <trkpt lat="49.24448" lon="-0.01026">
        <ele>28.4</ele>
        <time>2024-09-22T07:07:28Z</time>
      </trkpt>
      <trkpt lat="49.24451" lon="-0.01016">
        <ele>28.4</ele>
        <time>2024-09-22T07:07:29Z</time>
      </trkpt>
      <trkpt lat="49.24455" lon="-0.01005">
        <ele>28.4</ele>
        <time>2024-09-22T07:07:30Z</time>
      </trkpt>
      <trkpt lat="49.24458" lon="-0.00996">
        <ele>28.2</ele>
        <time>2024-09-22T07:07:31Z</time>
      </trkpt>
      <trkpt lat="49.24461" lon="-0.00987">
        <ele>28.2</ele>
        <time>2024-09-22T07:07:32Z</time>
      </trkpt>
      <trkpt lat="49.24465" lon="-0.00978">
        <ele>28.2</ele>
        <time>2024-09-22T07:07:33Z</time>
      </trkpt>
      <trkpt lat="49.24468" lon="-0.00969">
        <ele>28.4</ele>
        <time>2024-09-22T07:07:34Z</time>
      </trkpt>
      <trkpt lat="49.24471" lon="-0.0096">
        <ele>28.8</ele>
        <time>2024-09-22T07:07:35Z</time>
      </trkpt>
      <trkpt lat="49.24474" lon="-0.00951">
        <ele>29.2</ele>
        <time>2024-09-22T07:07:36Z</time>
      </trkpt>
      <trkpt lat="49.24477" lon="-0.00944">
        <ele>29.6</ele>
        <time>2024-09-22T07:07:37Z</time>
      </trkpt>
      <trkpt lat="49.2448" lon="-0.00932">
        <ele>30</ele>
        <time>2024-09-22T07:07:38Z</time>
      </trkpt>
      <trkpt lat="49.24484" lon="-0.00923">
        <ele>30</ele>
        <time>2024-09-22T07:07:39Z</time>
      </trkpt>
      <trkpt lat="49.24486" lon="-0.00916">
        <ele>30.2</ele>
        <time>2024-09-22T07:07:40Z</time>
      </trkpt>
      <trkpt lat="49.2449" lon="-0.00906">
        <ele>30.4</ele>
        <time>2024-09-22T07:07:41Z</time>
      </trkpt>
      <trkpt lat="49.24493" lon="-0.00896">
        <ele>30.6</ele>
        <time>2024-09-22T07:07:42Z</time>
      </trkpt>
      <trkpt lat="49.24495" lon="-0.00889">
        <ele>31</ele>
        <time>2024-09-22T07:07:43Z</time>
      </trkpt>
      <trkpt lat="49.24499" lon="-0.00879">
        <ele>31</ele>
        <time>2024-09-22T07:07:44Z</time>
      </trkpt>
      <trkpt lat="49.24502" lon="-0.0087">
        <ele>31.4</ele>
        <time>2024-09-22T07:07:45Z</time>
      </trkpt>
      <trkpt lat="49.24505" lon="-0.00863">
        <ele>31.6</ele>
        <time>2024-09-22T07:07:46Z</time>
      </trkpt>
      <trkpt lat="49.24508" lon="-0.00852">
        <ele>31.8</ele>
        <time>2024-09-22T07:07:47Z</time>
      </trkpt>
      <trkpt lat="49.24512" lon="-0.00844">
        <ele>32</ele>
        <time>2024-09-22T07:07:48Z</time>
      </trkpt>
      <trkpt lat="49.24515" lon="-0.00836">
        <ele>32.2</ele>
        <time>2024-09-22T07:07:49Z</time>
      </trkpt>
      <trkpt lat="49.24517" lon="-0.00829">
        <ele>32.2</ele>
        <time>2024-09-22T07:07:50Z</time>
      </trkpt>
      <trkpt lat="49.2452" lon="-0.0082">
        <ele>32.4</ele>
        <time>2024-09-22T07:07:51Z</time>
      </trkpt>
      <trkpt lat="49.24523" lon="-0.00812">
        <ele>32.4</ele>
        <time>2024-09-22T07:07:52Z</time>
      </trkpt>
      <trkpt lat="49.24526" lon="-0.00801">
        <ele>32.6</ele>
        <time>2024-09-22T07:07:53Z</time>
      </trkpt>
      <trkpt lat="49.2453" lon="-0.00793">
        <ele>32.8</ele>
        <time>2024-09-22T07:07:54Z</time>
      </trkpt>
      <trkpt lat="49.24532" lon="-0.00786">
        <ele>32.8</ele>
        <time>2024-09-22T07:07:55Z</time>
      </trkpt>
      <trkpt lat="49.24535" lon="-0.00776">
        <ele>33</ele>
        <time>2024-09-22T07:07:56Z</time>
      </trkpt>
      <trkpt lat="49.24539" lon="-0.00767">
        <ele>33</ele>
        <time>2024-09-22T07:07:57Z</time>
      </trkpt>
      <trkpt lat="49.24541" lon="-0.0076">
        <ele>33</ele>
        <time>2024-09-22T07:07:58Z</time>
      </trkpt>
      <trkpt lat="49.24545" lon="-0.0075">
        <ele>33</ele>
        <time>2024-09-22T07:07:59Z</time>
      </trkpt>
      <trkpt lat="49.24548" lon="-0.00741">
        <ele>33.2</ele>
        <time>2024-09-22T07:08:00Z</time>
      </trkpt>
      <trkpt lat="49.24551" lon="-0.00734">
        <ele>33.2</ele>
        <time>2024-09-22T07:08:01Z</time>
      </trkpt>
      <trkpt lat="49.24554" lon="-0.00724">
        <ele>33.4</ele>
        <time>2024-09-22T07:08:02Z</time>
      </trkpt>
      <trkpt lat="49.24557" lon="-0.00717">
        <ele>33.6</ele>
        <time>2024-09-22T07:08:03Z</time>
      </trkpt>
      <trkpt lat="49.2456" lon="-0.00708">
        <ele>33.6</ele>
        <time>2024-09-22T07:08:04Z</time>
      </trkpt>
      <trkpt lat="49.24564" lon="-0.00698">
        <ele>34</ele>
        <time>2024-09-22T07:08:05Z</time>
      </trkpt>
      <trkpt lat="49.24567" lon="-0.0069">
        <ele>34.2</ele>
        <time>2024-09-22T07:08:06Z</time>
      </trkpt>
      <trkpt lat="49.24569" lon="-0.00683">
        <ele>34.4</ele>
        <time>2024-09-22T07:08:07Z</time>
      </trkpt>
      <trkpt lat="49.24573" lon="-0.00675">
        <ele>34.6</ele>
        <time>2024-09-22T07:08:08Z</time>
      </trkpt>
      <trkpt lat="49.24577" lon="-0.00665">
        <ele>34.8</ele>
        <time>2024-09-22T07:08:09Z</time>
      </trkpt>
      <trkpt lat="49.2458" lon="-0.00656">
        <ele>35</ele>
        <time>2024-09-22T07:08:10Z</time>
      </trkpt>
      <trkpt lat="49.24584" lon="-0.00648">
        <ele>35</ele>
        <time>2024-09-22T07:08:11Z</time>
      </trkpt>
      <trkpt lat="49.24587" lon="-0.0064">
        <ele>35.2</ele>
        <time>2024-09-22T07:08:12Z</time>
      </trkpt>
      <trkpt lat="49.2459" lon="-0.00634">
        <ele>35.4</ele>
        <time>2024-09-22T07:08:13Z</time>
      </trkpt>
      <trkpt lat="49.24595" lon="-0.00624">
        <ele>35.4</ele>
        <time>2024-09-22T07:08:14Z</time>
      </trkpt>
      <trkpt lat="49.24599" lon="-0.00617">
        <ele>35.4</ele>
        <time>2024-09-22T07:08:15Z</time>
      </trkpt>
      <trkpt lat="49.24603" lon="-0.00609">
        <ele>35.6</ele>
        <time>2024-09-22T07:08:16Z</time>
      </trkpt>
      <trkpt lat="49.24608" lon="-0.00602">
        <ele>35.6</ele>
        <time>2024-09-22T07:08:17Z</time>
      </trkpt>
      <trkpt lat="49.24612" lon="-0.00594">
        <ele>35.8</ele>
        <time>2024-09-22T07:08:18Z</time>
      </trkpt>
      <trkpt lat="49.24617" lon="-0.00587">
        <ele>35.8</ele>
        <time>2024-09-22T07:08:19Z</time>
      </trkpt>
      <trkpt lat="49.24621" lon="-0.0058">
        <ele>36</ele>
        <time>2024-09-22T07:08:20Z</time>
      </trkpt>
      <trkpt lat="49.24626" lon="-0.00574">
        <ele>36.2</ele>
        <time>2024-09-22T07:08:21Z</time>
      </trkpt>
      <trkpt lat="49.24632" lon="-0.00567">
        <ele>36.2</ele>
        <time>2024-09-22T07:08:22Z</time>
      </trkpt>
      <trkpt lat="49.24637" lon="-0.00561">
        <ele>36.4</ele>
        <time>2024-09-22T07:08:23Z</time>
      </trkpt>
      <trkpt lat="49.24642" lon="-0.00556">
        <ele>36.4</ele>
        <time>2024-09-22T07:08:24Z</time>
      </trkpt>
      <trkpt lat="49.24649" lon="-0.0055">
        <ele>36.6</ele>
        <time>2024-09-22T07:08:25Z</time>
      </trkpt>
      <trkpt lat="49.24655" lon="-0.00545">
        <ele>36.8</ele>
        <time>2024-09-22T07:08:26Z</time>
      </trkpt>
      <trkpt lat="49.24661" lon="-0.00541">
        <ele>36.8</ele>
        <time>2024-09-22T07:08:27Z</time>
      </trkpt>
      <trkpt lat="49.24667" lon="-0.00536">
        <ele>37</ele>
        <time>2024-09-22T07:08:28Z</time>
      </trkpt>
      <trkpt lat="49.24673" lon="-0.00532">
        <ele>37</ele>
        <time>2024-09-22T07:08:29Z</time>
      </trkpt>
      <trkpt lat="49.24678" lon="-0.00528">
        <ele>37.2</ele>
        <time>2024-09-22T07:08:30Z</time>
      </trkpt>
      <trkpt lat="49.24686" lon="-0.00523">
        <ele>37.2</ele>
        <time>2024-09-22T07:08:31Z</time>
      </trkpt>
      <trkpt lat="49.24692" lon="-0.00519">
        <ele>37.2</ele>
        <time>2024-09-22T07:08:32Z</time>
      </trkpt>
      <trkpt lat="49.24697" lon="-0.00515">
        <ele>37.4</ele>
        <time>2024-09-22T07:08:33Z</time>
      </trkpt>
      <trkpt lat="49.24703" lon="-0.00511">
        <ele>37.6</ele>
        <time>2024-09-22T07:08:34Z</time>
      </trkpt>
      <trkpt lat="49.24711" lon="-0.00506">
        <ele>37.8</ele>
        <time>2024-09-22T07:08:35Z</time>
      </trkpt>
      <trkpt lat="49.24717" lon="-0.00501">
        <ele>37.8</ele>
        <time>2024-09-22T07:08:36Z</time>
      </trkpt>
      <trkpt lat="49.24723" lon="-0.00497">
        <ele>37.8</ele>
        <time>2024-09-22T07:08:37Z</time>
      </trkpt>
      <trkpt lat="49.2473" lon="-0.00492">
        <ele>38</ele>
        <time>2024-09-22T07:08:38Z</time>
      </trkpt>
      <trkpt lat="49.24736" lon="-0.00487">
        <ele>38</ele>
        <time>2024-09-22T07:08:39Z</time>
      </trkpt>
      <trkpt lat="49.24742" lon="-0.00482">
        <ele>38</ele>
        <time>2024-09-22T07:08:40Z</time>
      </trkpt>
      <trkpt lat="49.24749" lon="-0.00477">
        <ele>38</ele>
        <time>2024-09-22T07:08:41Z</time>
      </trkpt>
      <trkpt lat="49.24755" lon="-0.00471">
        <ele>38</ele>
        <time>2024-09-22T07:08:42Z</time>
      </trkpt>
      <trkpt lat="49.24761" lon="-0.00465">
        <ele>38</ele>
        <time>2024-09-22T07:08:43Z</time>
      </trkpt>
      <trkpt lat="49.24767" lon="-0.00459">
        <ele>38</ele>
        <time>2024-09-22T07:08:44Z</time>
      </trkpt>
      <trkpt lat="49.24773" lon="-0.00452">
        <ele>38</ele>
        <time>2024-09-22T07:08:45Z</time>
      </trkpt>
      <trkpt lat="49.2478" lon="-0.00446">
        <ele>38</ele>
        <time>2024-09-22T07:08:46Z</time>
      </trkpt>
      <trkpt lat="49.24786" lon="-0.00439">
        <ele>37.8</ele>
        <time>2024-09-22T07:08:47Z</time>
      </trkpt>
      <trkpt lat="49.24791" lon="-0.00432">
        <ele>37.6</ele>
        <time>2024-09-22T07:08:48Z</time>
      </trkpt>
      <trkpt lat="49.24797" lon="-0.00425">
        <ele>37.4</ele>
        <time>2024-09-22T07:08:49Z</time>
      </trkpt>
      <trkpt lat="49.24803" lon="-0.00417">
        <ele>37.2</ele>
        <time>2024-09-22T07:08:50Z</time>
      </trkpt>
      <trkpt lat="49.24808" lon="-0.00409">
        <ele>37.2</ele>
        <time>2024-09-22T07:08:51Z</time>
      </trkpt>
      <trkpt lat="49.24814" lon="-0.00401">
        <ele>37.2</ele>
        <time>2024-09-22T07:08:52Z</time>
      </trkpt>
      <trkpt lat="49.24819" lon="-0.00393">
        <ele>37</ele>
        <time>2024-09-22T07:08:53Z</time>
      </trkpt>
      <trkpt lat="49.24824" lon="-0.00384">
        <ele>37</ele>
        <time>2024-09-22T07:08:54Z</time>
      </trkpt>
      <trkpt lat="49.2483" lon="-0.00375">
        <ele>36.8</ele>
        <time>2024-09-22T07:08:55Z</time>
      </trkpt>
      <trkpt lat="49.24834" lon="-0.00366">
        <ele>36.8</ele>
        <time>2024-09-22T07:08:56Z</time>
      </trkpt>
      <trkpt lat="49.24839" lon="-0.00357">
        <ele>36.8</ele>
        <time>2024-09-22T07:08:57Z</time>
      </trkpt>
      <trkpt lat="49.24844" lon="-0.00347">
        <ele>36.6</ele>
        <time>2024-09-22T07:08:58Z</time>
      </trkpt>
      <trkpt lat="49.24849" lon="-0.00338">
        <ele>36.4</ele>
        <time>2024-09-22T07:08:59Z</time>
      </trkpt>
      <trkpt lat="49.24854" lon="-0.00328">
        <ele>36.4</ele>
        <time>2024-09-22T07:09:00Z</time>
      </trkpt>
      <trkpt lat="49.24858" lon="-0.00318">
        <ele>36</ele>
        <time>2024-09-22T07:09:01Z</time>
      </trkpt>
      <trkpt lat="49.24862" lon="-0.00309">
        <ele>36</ele>
        <time>2024-09-22T07:09:02Z</time>
      </trkpt>
      <trkpt lat="49.24866" lon="-0.00299">
        <ele>35.8</ele>
        <time>2024-09-22T07:09:03Z</time>
      </trkpt>
      <trkpt lat="49.2487" lon="-0.00289">
        <ele>35.8</ele>
        <time>2024-09-22T07:09:04Z</time>
      </trkpt>
      <trkpt lat="49.24874" lon="-0.00279">
        <ele>35.8</ele>
        <time>2024-09-22T07:09:05Z</time>
      </trkpt>
      <trkpt lat="49.24878" lon="-0.00269">
        <ele>35.8</ele>
        <time>2024-09-22T07:09:06Z</time>
      </trkpt>
      <trkpt lat="49.24881" lon="-0.00258">
        <ele>35.8</ele>
        <time>2024-09-22T07:09:07Z</time>
      </trkpt>
      <trkpt lat="49.24885" lon="-0.00247">
        <ele>35.6</ele>
        <time>2024-09-22T07:09:08Z</time>
      </trkpt>
      <trkpt lat="49.24888" lon="-0.00236">
        <ele>35.6</ele>
        <time>2024-09-22T07:09:09Z</time>
      </trkpt>
      <trkpt lat="49.2489" lon="-0.00224">
        <ele>35.2</ele>
        <time>2024-09-22T07:09:10Z</time>
      </trkpt>
      <trkpt lat="49.24893" lon="-0.00213">
        <ele>35</ele>
        <time>2024-09-22T07:09:11Z</time>
      </trkpt>
      <trkpt lat="49.24895" lon="-0.00201">
        <ele>34.8</ele>
        <time>2024-09-22T07:09:12Z</time>
      </trkpt>
      <trkpt lat="49.24897" lon="-0.00189">
        <ele>34.6</ele>
        <time>2024-09-22T07:09:13Z</time>
      </trkpt>
      <trkpt lat="49.24899" lon="-0.00178">
        <ele>34.4</ele>
        <time>2024-09-22T07:09:14Z</time>
      </trkpt>
      <trkpt lat="49.24901" lon="-0.00167">
        <ele>34.2</ele>
        <time>2024-09-22T07:09:15Z</time>
      </trkpt>
      <trkpt lat="49.24903" lon="-0.00155">
        <ele>34</ele>
        <time>2024-09-22T07:09:16Z</time>
      </trkpt>
      <trkpt lat="49.24904" lon="-0.00146">
        <ele>34</ele>
        <time>2024-09-22T07:09:17Z</time>
      </trkpt>
      <trkpt lat="49.24905" lon="-0.00133">
        <ele>33.8</ele>
        <time>2024-09-22T07:09:18Z</time>
      </trkpt>
      <trkpt lat="49.24906" lon="-0.00123">
        <ele>33.8</ele>
        <time>2024-09-22T07:09:19Z</time>
      </trkpt>
      <trkpt lat="49.24907" lon="-0.00114">
        <ele>33.8</ele>
        <time>2024-09-22T07:09:20Z</time>
      </trkpt>
      <trkpt lat="49.24908" lon="-0.00102">
        <ele>33.8</ele>
        <time>2024-09-22T07:09:21Z</time>
      </trkpt>
      <trkpt lat="49.24909" lon="-0.00091">
        <ele>33.8</ele>
        <time>2024-09-22T07:09:22Z</time>
      </trkpt>
      <trkpt lat="49.24909" lon="-0.00081">
        <ele>33.8</ele>
        <time>2024-09-22T07:09:23Z</time>
      </trkpt>
      <trkpt lat="49.2491" lon="-0.0007">
        <ele>33.8</ele>
        <time>2024-09-22T07:09:24Z</time>
      </trkpt>
      <trkpt lat="49.2491" lon="-0.00059">
        <ele>33.8</ele>
        <time>2024-09-22T07:09:25Z</time>
      </trkpt>
      <trkpt lat="49.2491" lon="-0.00049">
        <ele>33.8</ele>
        <time>2024-09-22T07:09:26Z</time>
      </trkpt>
      <trkpt lat="49.2491" lon="-0.00038">
        <ele>33.8</ele>
        <time>2024-09-22T07:09:27Z</time>
      </trkpt>
      <trkpt lat="49.2491" lon="-0.00027">
        <ele>34</ele>
        <time>2024-09-22T07:09:28Z</time>
      </trkpt>
      <trkpt lat="49.24909" lon="-0.00017">
        <ele>34.2</ele>
        <time>2024-09-22T07:09:29Z</time>
      </trkpt>
      <trkpt lat="49.24908" lon="-6.0E-5">
        <ele>34.2</ele>
        <time>2024-09-22T07:09:30Z</time>
      </trkpt>
      <trkpt lat="49.24908" lon="4.0E-5">
        <ele>34.6</ele>
        <time>2024-09-22T07:09:31Z</time>
      </trkpt>
      <trkpt lat="49.24907" lon="0.00015">
        <ele>34.6</ele>
        <time>2024-09-22T07:09:32Z</time>
      </trkpt>
      <trkpt lat="49.24906" lon="0.00026">
        <ele>35</ele>
        <time>2024-09-22T07:09:33Z</time>
      </trkpt>
      <trkpt lat="49.24905" lon="0.00037">
        <ele>35</ele>
        <time>2024-09-22T07:09:34Z</time>
      </trkpt>
      <trkpt lat="49.24904" lon="0.00047">
        <ele>35.2</ele>
        <time>2024-09-22T07:09:35Z</time>
      </trkpt>
      <trkpt lat="49.24903" lon="0.00057">
        <ele>35.2</ele>
        <time>2024-09-22T07:09:36Z</time>
      </trkpt>
      <trkpt lat="49.24902" lon="0.00068">
        <ele>35.4</ele>
        <time>2024-09-22T07:09:37Z</time>
      </trkpt>
      <trkpt lat="49.24901" lon="0.00076">
        <ele>35.6</ele>
        <time>2024-09-22T07:09:38Z</time>
      </trkpt>
      <trkpt lat="49.249" lon="0.00088">
        <ele>35.6</ele>
        <time>2024-09-22T07:09:39Z</time>
      </trkpt>
      <trkpt lat="49.24899" lon="0.00098">
        <ele>35.6</ele>
        <time>2024-09-22T07:09:40Z</time>
      </trkpt>
      <trkpt lat="49.24898" lon="0.00108">
        <ele>35.8</ele>
        <time>2024-09-22T07:09:41Z</time>
      </trkpt>
      <trkpt lat="49.24897" lon="0.00118">
        <ele>35.8</ele>
        <time>2024-09-22T07:09:42Z</time>
      </trkpt>
      <trkpt lat="49.24895" lon="0.00128">
        <ele>35.8</ele>
        <time>2024-09-22T07:09:43Z</time>
      </trkpt>
      <trkpt lat="49.24894" lon="0.00139">
        <ele>36</ele>
        <time>2024-09-22T07:09:44Z</time>
      </trkpt>
      <trkpt lat="49.24893" lon="0.00149">
        <ele>36.2</ele>
        <time>2024-09-22T07:09:45Z</time>
      </trkpt>
      <trkpt lat="49.24892" lon="0.00159">
        <ele>36.4</ele>
        <time>2024-09-22T07:09:46Z</time>
      </trkpt>
      <trkpt lat="49.24891" lon="0.00169">
        <ele>36.4</ele>
        <time>2024-09-22T07:09:47Z</time>
      </trkpt>
      <trkpt lat="49.2489" lon="0.00179">
        <ele>36.6</ele>
        <time>2024-09-22T07:09:48Z</time>
      </trkpt>
      <trkpt lat="49.24888" lon="0.00189">
        <ele>36.6</ele>
        <time>2024-09-22T07:09:49Z</time>
      </trkpt>
      <trkpt lat="49.24887" lon="0.00199">
        <ele>36.8</ele>
        <time>2024-09-22T07:09:50Z</time>
      </trkpt>
      <trkpt lat="49.24886" lon="0.00209">
        <ele>37</ele>
        <time>2024-09-22T07:09:51Z</time>
      </trkpt>
      <trkpt lat="49.24885" lon="0.00219">
        <ele>37</ele>
        <time>2024-09-22T07:09:52Z</time>
      </trkpt>
      <trkpt lat="49.24884" lon="0.0023">
        <ele>37.2</ele>
        <time>2024-09-22T07:09:53Z</time>
      </trkpt>
      <trkpt lat="49.24883" lon="0.0024">
        <ele>37.2</ele>
        <time>2024-09-22T07:09:54Z</time>
      </trkpt>
      <trkpt lat="49.24881" lon="0.0025">
        <ele>37.4</ele>
        <time>2024-09-22T07:09:55Z</time>
      </trkpt>
      <trkpt lat="49.2488" lon="0.00261">
        <ele>37.4</ele>
        <time>2024-09-22T07:09:56Z</time>
      </trkpt>
      <trkpt lat="49.24879" lon="0.00271">
        <ele>37.4</ele>
        <time>2024-09-22T07:09:57Z</time>
      </trkpt>
      <trkpt lat="49.24878" lon="0.00281">
        <ele>37.6</ele>
        <time>2024-09-22T07:09:58Z</time>
      </trkpt>
      <trkpt lat="49.24878" lon="0.00291">
        <ele>37.8</ele>
        <time>2024-09-22T07:09:59Z</time>
      </trkpt>
      <trkpt lat="49.24877" lon="0.003">
        <ele>37.8</ele>
        <time>2024-09-22T07:10:00Z</time>
      </trkpt>
      <trkpt lat="49.24876" lon="0.0031">
        <ele>38.2</ele>
        <time>2024-09-22T07:10:01Z</time>
      </trkpt>
      <trkpt lat="49.24875" lon="0.00323">
        <ele>38.6</ele>
        <time>2024-09-22T07:10:02Z</time>
      </trkpt>
      <trkpt lat="49.24875" lon="0.00333">
        <ele>39</ele>
        <time>2024-09-22T07:10:03Z</time>
      </trkpt>
      <trkpt lat="49.24874" lon="0.00342">
        <ele>39.2</ele>
        <time>2024-09-22T07:10:04Z</time>
      </trkpt>
      <trkpt lat="49.24874" lon="0.00354">
        <ele>39.2</ele>
        <time>2024-09-22T07:10:05Z</time>
      </trkpt>
      <trkpt lat="49.24874" lon="0.00365">
        <ele>39.4</ele>
        <time>2024-09-22T07:10:06Z</time>
      </trkpt>
      <trkpt lat="49.24874" lon="0.00374">
        <ele>39.6</ele>
        <time>2024-09-22T07:10:07Z</time>
      </trkpt>
      <trkpt lat="49.24874" lon="0.00387">
        <ele>39.6</ele>
        <time>2024-09-22T07:10:08Z</time>
      </trkpt>
      <trkpt lat="49.24874" lon="0.00397">
        <ele>39.8</ele>
        <time>2024-09-22T07:10:09Z</time>
      </trkpt>
      <trkpt lat="49.24874" lon="0.00406">
        <ele>40</ele>
        <time>2024-09-22T07:10:10Z</time>
      </trkpt>
      <trkpt lat="49.24875" lon="0.00419">
        <ele>40.2</ele>
        <time>2024-09-22T07:10:11Z</time>
      </trkpt>
      <trkpt lat="49.24876" lon="0.00429">
        <ele>40.4</ele>
        <time>2024-09-22T07:10:12Z</time>
      </trkpt>
      <trkpt lat="49.24876" lon="0.00438">
        <ele>40.4</ele>
        <time>2024-09-22T07:10:13Z</time>
      </trkpt>
      <trkpt lat="49.24877" lon="0.0045">
        <ele>40.6</ele>
        <time>2024-09-22T07:10:14Z</time>
      </trkpt>
      <trkpt lat="49.24878" lon="0.00461">
        <ele>40.6</ele>
        <time>2024-09-22T07:10:15Z</time>
      </trkpt>
      <trkpt lat="49.24879" lon="0.00471">
        <ele>40.6</ele>
        <time>2024-09-22T07:10:16Z</time>
      </trkpt>
      <trkpt lat="49.2488" lon="0.00482">
        <ele>40.8</ele>
        <time>2024-09-22T07:10:17Z</time>
      </trkpt>
      <trkpt lat="49.24881" lon="0.00492">
        <ele>40.8</ele>
        <time>2024-09-22T07:10:18Z</time>
      </trkpt>
      <trkpt lat="49.24882" lon="0.00503">
        <ele>40.8</ele>
        <time>2024-09-22T07:10:19Z</time>
      </trkpt>
      <trkpt lat="49.24883" lon="0.00513">
        <ele>40.8</ele>
        <time>2024-09-22T07:10:20Z</time>
      </trkpt>
      <trkpt lat="49.24883" lon="0.00521">
        <ele>40.8</ele>
        <time>2024-09-22T07:10:21Z</time>
      </trkpt>
      <trkpt lat="49.24884" lon="0.00532">
        <ele>41</ele>
        <time>2024-09-22T07:10:22Z</time>
      </trkpt>
      <trkpt lat="49.24884" lon="0.00544">
        <ele>41</ele>
        <time>2024-09-22T07:10:23Z</time>
      </trkpt>
      <trkpt lat="49.24885" lon="0.00554">
        <ele>41.2</ele>
        <time>2024-09-22T07:10:24Z</time>
      </trkpt>
      <trkpt lat="49.24886" lon="0.00565">
        <ele>41.2</ele>
        <time>2024-09-22T07:10:25Z</time>
      </trkpt>
      <trkpt lat="49.24886" lon="0.00575">
        <ele>41.4</ele>
        <time>2024-09-22T07:10:26Z</time>
      </trkpt>
      <trkpt lat="49.24887" lon="0.00585">
        <ele>41.4</ele>
        <time>2024-09-22T07:10:27Z</time>
      </trkpt>
      <trkpt lat="49.24888" lon="0.00596">
        <ele>41.6</ele>
        <time>2024-09-22T07:10:28Z</time>
      </trkpt>
      <trkpt lat="49.24889" lon="0.00606">
        <ele>41.6</ele>
        <time>2024-09-22T07:10:29Z</time>
      </trkpt>
      <trkpt lat="49.24889" lon="0.00617">
        <ele>41.8</ele>
        <time>2024-09-22T07:10:30Z</time>
      </trkpt>
      <trkpt lat="49.2489" lon="0.00627">
        <ele>42</ele>
        <time>2024-09-22T07:10:31Z</time>
      </trkpt>
      <trkpt lat="49.2489" lon="0.00637">
        <ele>42.2</ele>
        <time>2024-09-22T07:10:32Z</time>
      </trkpt>
      <trkpt lat="49.24891" lon="0.00647">
        <ele>42.4</ele>
        <time>2024-09-22T07:10:33Z</time>
      </trkpt>
      <trkpt lat="49.24891" lon="0.00657">
        <ele>42.4</ele>
        <time>2024-09-22T07:10:34Z</time>
      </trkpt>
      <trkpt lat="49.24892" lon="0.00667">
        <ele>42.6</ele>
        <time>2024-09-22T07:10:35Z</time>
      </trkpt>
      <trkpt lat="49.24892" lon="0.00678">
        <ele>42.6</ele>
        <time>2024-09-22T07:10:36Z</time>
      </trkpt>
      <trkpt lat="49.24893" lon="0.00688">
        <ele>42.8</ele>
        <time>2024-09-22T07:10:37Z</time>
      </trkpt>
      <trkpt lat="49.24894" lon="0.00698">
        <ele>42.8</ele>
        <time>2024-09-22T07:10:38Z</time>
      </trkpt>
      <trkpt lat="49.24895" lon="0.00708">
        <ele>43</ele>
        <time>2024-09-22T07:10:39Z</time>
      </trkpt>
      <trkpt lat="49.24895" lon="0.00718">
        <ele>43</ele>
        <time>2024-09-22T07:10:40Z</time>
      </trkpt>
      <trkpt lat="49.24896" lon="0.00729">
        <ele>43</ele>
        <time>2024-09-22T07:10:41Z</time>
      </trkpt>
      <trkpt lat="49.24897" lon="0.00737">
        <ele>43.2</ele>
        <time>2024-09-22T07:10:42Z</time>
      </trkpt>
      <trkpt lat="49.24898" lon="0.00748">
        <ele>43.2</ele>
        <time>2024-09-22T07:10:43Z</time>
      </trkpt>
      <trkpt lat="49.24899" lon="0.00759">
        <ele>43.2</ele>
        <time>2024-09-22T07:10:44Z</time>
      </trkpt>
      <trkpt lat="49.24899" lon="0.00771">
        <ele>43.4</ele>
        <time>2024-09-22T07:10:45Z</time>
      </trkpt>
      <trkpt lat="49.249" lon="0.00781">
        <ele>43.6</ele>
        <time>2024-09-22T07:10:46Z</time>
      </trkpt>
      <trkpt lat="49.24901" lon="0.00792">
        <ele>43.6</ele>
        <time>2024-09-22T07:10:47Z</time>
      </trkpt>
      <trkpt lat="49.24901" lon="0.00799">
        <ele>43.6</ele>
        <time>2024-09-22T07:10:48Z</time>
      </trkpt>
      <trkpt lat="49.24902" lon="0.00812">
        <ele>43.6</ele>
        <time>2024-09-22T07:10:49Z</time>
      </trkpt>
      <trkpt lat="49.24903" lon="0.00822">
        <ele>43.6</ele>
        <time>2024-09-22T07:10:50Z</time>
      </trkpt>
      <trkpt lat="49.24903" lon="0.00832">
        <ele>43.6</ele>
        <time>2024-09-22T07:10:51Z</time>
      </trkpt>
      <trkpt lat="49.24904" lon="0.00843">
        <ele>43.6</ele>
        <time>2024-09-22T07:10:52Z</time>
      </trkpt>
      <trkpt lat="49.24905" lon="0.00853">
        <ele>43.8</ele>
        <time>2024-09-22T07:10:53Z</time>
      </trkpt>
      <trkpt lat="49.24906" lon="0.00861">
        <ele>43.8</ele>
        <time>2024-09-22T07:10:54Z</time>
      </trkpt>
      <trkpt lat="49.24906" lon="0.00874">
        <ele>44</ele>
        <time>2024-09-22T07:10:55Z</time>
      </trkpt>
      <trkpt lat="49.24907" lon="0.00884">
        <ele>44.2</ele>
        <time>2024-09-22T07:10:56Z</time>
      </trkpt>
      <trkpt lat="49.24908" lon="0.00894">
        <ele>44.2</ele>
        <time>2024-09-22T07:10:57Z</time>
      </trkpt>
      <trkpt lat="49.24909" lon="0.00905">
        <ele>44.4</ele>
        <time>2024-09-22T07:10:58Z</time>
      </trkpt>
      <trkpt lat="49.24909" lon="0.00915">
        <ele>44.6</ele>
        <time>2024-09-22T07:10:59Z</time>
      </trkpt>
      <trkpt lat="49.2491" lon="0.00925">
        <ele>44.6</ele>
        <time>2024-09-22T07:11:00Z</time>
      </trkpt>
      <trkpt lat="49.24911" lon="0.00935">
        <ele>44.8</ele>
        <time>2024-09-22T07:11:01Z</time>
      </trkpt>
      <trkpt lat="49.24912" lon="0.00945">
        <ele>45</ele>
        <time>2024-09-22T07:11:02Z</time>
      </trkpt>
      <trkpt lat="49.24913" lon="0.00956">
        <ele>45.2</ele>
        <time>2024-09-22T07:11:03Z</time>
      </trkpt>
      <trkpt lat="49.24913" lon="0.00967">
        <ele>45.2</ele>
        <time>2024-09-22T07:11:04Z</time>
      </trkpt>
      <trkpt lat="49.24914" lon="0.00975">
        <ele>45.4</ele>
        <time>2024-09-22T07:11:05Z</time>
      </trkpt>
      <trkpt lat="49.24915" lon="0.00988">
        <ele>45.6</ele>
        <time>2024-09-22T07:11:06Z</time>
      </trkpt>
      <trkpt lat="49.24915" lon="0.00999">
        <ele>45.8</ele>
        <time>2024-09-22T07:11:07Z</time>
      </trkpt>
      <trkpt lat="49.24917" lon="0.0101">
        <ele>46</ele>
        <time>2024-09-22T07:11:08Z</time>
      </trkpt>
      <trkpt lat="49.24917" lon="0.0102">
        <ele>46</ele>
        <time>2024-09-22T07:11:09Z</time>
      </trkpt>
      <trkpt lat="49.24919" lon="0.01031">
        <ele>46</ele>
        <time>2024-09-22T07:11:10Z</time>
      </trkpt>
      <trkpt lat="49.2492" lon="0.01043">
        <ele>46.2</ele>
        <time>2024-09-22T07:11:11Z</time>
      </trkpt>
      <trkpt lat="49.24921" lon="0.01054">
        <ele>46.2</ele>
        <time>2024-09-22T07:11:12Z</time>
      </trkpt>
      <trkpt lat="49.24922" lon="0.01066">
        <ele>46.2</ele>
        <time>2024-09-22T07:11:13Z</time>
      </trkpt>
      <trkpt lat="49.24922" lon="0.01074">
        <ele>46.4</ele>
        <time>2024-09-22T07:11:14Z</time>
      </trkpt>
      <trkpt lat="49.24923" lon="0.01088">
        <ele>46.4</ele>
        <time>2024-09-22T07:11:15Z</time>
      </trkpt>
      <trkpt lat="49.24924" lon="0.01099">
        <ele>46.4</ele>
        <time>2024-09-22T07:11:16Z</time>
      </trkpt>
      <trkpt lat="49.24924" lon="0.0111">
        <ele>46.4</ele>
        <time>2024-09-22T07:11:17Z</time>
      </trkpt>
      <trkpt lat="49.24925" lon="0.01121">
        <ele>46.4</ele>
        <time>2024-09-22T07:11:18Z</time>
      </trkpt>
      <trkpt lat="49.24925" lon="0.01133">
        <ele>46.4</ele>
        <time>2024-09-22T07:11:19Z</time>
      </trkpt>
      <trkpt lat="49.24926" lon="0.01142">
        <ele>46.4</ele>
        <time>2024-09-22T07:11:20Z</time>
      </trkpt>
      <trkpt lat="49.24927" lon="0.01156">
        <ele>46.4</ele>
        <time>2024-09-22T07:11:21Z</time>
      </trkpt>
      <trkpt lat="49.24927" lon="0.01167">
        <ele>46.4</ele>
        <time>2024-09-22T07:11:22Z</time>
      </trkpt>
      <trkpt lat="49.24928" lon="0.01176">
        <ele>46.4</ele>
        <time>2024-09-22T07:11:23Z</time>
      </trkpt>
      <trkpt lat="49.24928" lon="0.0119">
        <ele>46.4</ele>
        <time>2024-09-22T07:11:24Z</time>
      </trkpt>
      <trkpt lat="49.24929" lon="0.01202">
        <ele>46.4</ele>
        <time>2024-09-22T07:11:25Z</time>
      </trkpt>
      <trkpt lat="49.2493" lon="0.01211">
        <ele>46.2</ele>
        <time>2024-09-22T07:11:26Z</time>
      </trkpt>
      <trkpt lat="49.2493" lon="0.01223">
        <ele>46</ele>
        <time>2024-09-22T07:11:27Z</time>
      </trkpt>
      <trkpt lat="49.24932" lon="0.01237">
        <ele>45.8</ele>
        <time>2024-09-22T07:11:28Z</time>
      </trkpt>
      <trkpt lat="49.24933" lon="0.01249">
        <ele>45.6</ele>
        <time>2024-09-22T07:11:29Z</time>
      </trkpt>
      <trkpt lat="49.24934" lon="0.01261">
        <ele>45.8</ele>
        <time>2024-09-22T07:11:30Z</time>
      </trkpt>
      <trkpt lat="49.24935" lon="0.01273">
        <ele>45.4</ele>
        <time>2024-09-22T07:11:31Z</time>
      </trkpt>
      <trkpt lat="49.24935" lon="0.01284">
        <ele>45</ele>
        <time>2024-09-22T07:11:32Z</time>
      </trkpt>
      <trkpt lat="49.24936" lon="0.01296">
        <ele>45</ele>
        <time>2024-09-22T07:11:33Z</time>
      </trkpt>
      <trkpt lat="49.24937" lon="0.01308">
        <ele>44.6</ele>
        <time>2024-09-22T07:11:34Z</time>
      </trkpt>
      <trkpt lat="49.24938" lon="0.0132">
        <ele>44.4</ele>
        <time>2024-09-22T07:11:35Z</time>
      </trkpt>
      <trkpt lat="49.24938" lon="0.01331">
        <ele>44.4</ele>
        <time>2024-09-22T07:11:36Z</time>
      </trkpt>
      <trkpt lat="49.24939" lon="0.01343">
        <ele>44.2</ele>
        <time>2024-09-22T07:11:37Z</time>
      </trkpt>
      <trkpt lat="49.2494" lon="0.01353">
        <ele>44</ele>
        <time>2024-09-22T07:11:38Z</time>
      </trkpt>
      <trkpt lat="49.24941" lon="0.01367">
        <ele>44</ele>
        <time>2024-09-22T07:11:39Z</time>
      </trkpt>
      <trkpt lat="49.24942" lon="0.0138">
        <ele>44</ele>
        <time>2024-09-22T07:11:40Z</time>
      </trkpt>
      <trkpt lat="49.24942" lon="0.01389">
        <ele>43.8</ele>
        <time>2024-09-22T07:11:41Z</time>
      </trkpt>
      <trkpt lat="49.24942" lon="0.01403">
        <ele>43.6</ele>
        <time>2024-09-22T07:11:42Z</time>
      </trkpt>
      <trkpt lat="49.24943" lon="0.01415">
        <ele>43.2</ele>
        <time>2024-09-22T07:11:43Z</time>
      </trkpt>
      <trkpt lat="49.24944" lon="0.01425">
        <ele>43</ele>
        <time>2024-09-22T07:11:44Z</time>
      </trkpt>
      <trkpt lat="49.24945" lon="0.01439">
        <ele>42.8</ele>
        <time>2024-09-22T07:11:45Z</time>
      </trkpt>
      <trkpt lat="49.24946" lon="0.01451">
        <ele>42.6</ele>
        <time>2024-09-22T07:11:46Z</time>
      </trkpt>
      <trkpt lat="49.24946" lon="0.01463">
        <ele>42.6</ele>
        <time>2024-09-22T07:11:47Z</time>
      </trkpt>
      <trkpt lat="49.24947" lon="0.01475">
        <ele>42.4</ele>
        <time>2024-09-22T07:11:48Z</time>
      </trkpt>
      <trkpt lat="49.24949" lon="0.01486">
        <ele>42.2</ele>
        <time>2024-09-22T07:11:49Z</time>
      </trkpt>
      <trkpt lat="49.2495" lon="0.01498">
        <ele>42</ele>
        <time>2024-09-22T07:11:50Z</time>
      </trkpt>
      <trkpt lat="49.2495" lon="0.0151">
        <ele>42</ele>
        <time>2024-09-22T07:11:51Z</time>
      </trkpt>
      <trkpt lat="49.24951" lon="0.01521">
        <ele>41.8</ele>
        <time>2024-09-22T07:11:52Z</time>
      </trkpt>
      <trkpt lat="49.24952" lon="0.0153">
        <ele>41.6</ele>
        <time>2024-09-22T07:11:53Z</time>
      </trkpt>
      <trkpt lat="49.24953" lon="0.01544">
        <ele>41.4</ele>
        <time>2024-09-22T07:11:54Z</time>
      </trkpt>
      <trkpt lat="49.24954" lon="0.01556">
        <ele>41.2</ele>
        <time>2024-09-22T07:11:55Z</time>
      </trkpt>
      <trkpt lat="49.24955" lon="0.01565">
        <ele>41.2</ele>
        <time>2024-09-22T07:11:56Z</time>
      </trkpt>
      <trkpt lat="49.24956" lon="0.01579">
        <ele>41</ele>
        <time>2024-09-22T07:11:57Z</time>
      </trkpt>
      <trkpt lat="49.24957" lon="0.0159">
        <ele>41</ele>
        <time>2024-09-22T07:11:58Z</time>
      </trkpt>
      <trkpt lat="49.24957" lon="0.01601">
        <ele>41</ele>
        <time>2024-09-22T07:11:59Z</time>
      </trkpt>
      <trkpt lat="49.24958" lon="0.01612">
        <ele>41</ele>
        <time>2024-09-22T07:12:00Z</time>
      </trkpt>
      <trkpt lat="49.24959" lon="0.01623">
        <ele>41</ele>
        <time>2024-09-22T07:12:01Z</time>
      </trkpt>
      <trkpt lat="49.2496" lon="0.01634">
        <ele>40.8</ele>
        <time>2024-09-22T07:12:02Z</time>
      </trkpt>
      <trkpt lat="49.2496" lon="0.01644">
        <ele>40.8</ele>
        <time>2024-09-22T07:12:03Z</time>
      </trkpt>
      <trkpt lat="49.24961" lon="0.01655">
        <ele>40.8</ele>
        <time>2024-09-22T07:12:04Z</time>
      </trkpt>
      <trkpt lat="49.24962" lon="0.01665">
        <ele>40.8</ele>
        <time>2024-09-22T07:12:05Z</time>
      </trkpt>
      <trkpt lat="49.24962" lon="0.01676">
        <ele>40.8</ele>
        <time>2024-09-22T07:12:06Z</time>
      </trkpt>
      <trkpt lat="49.24962" lon="0.01686">
        <ele>40.8</ele>
        <time>2024-09-22T07:12:07Z</time>
      </trkpt>
      <trkpt lat="49.24963" lon="0.01697">
        <ele>40.8</ele>
        <time>2024-09-22T07:12:08Z</time>
      </trkpt>
      <trkpt lat="49.24963" lon="0.01705">
        <ele>40.8</ele>
        <time>2024-09-22T07:12:09Z</time>
      </trkpt>
      <trkpt lat="49.24964" lon="0.01715">
        <ele>40.8</ele>
        <time>2024-09-22T07:12:10Z</time>
      </trkpt>
      <trkpt lat="49.24964" lon="0.01727">
        <ele>41</ele>
        <time>2024-09-22T07:12:11Z</time>
      </trkpt>
      <trkpt lat="49.24965" lon="0.01737">
        <ele>41</ele>
        <time>2024-09-22T07:12:12Z</time>
      </trkpt>
      <trkpt lat="49.24966" lon="0.01747">
        <ele>41.2</ele>
        <time>2024-09-22T07:12:13Z</time>
      </trkpt>
      <trkpt lat="49.24967" lon="0.01758">
        <ele>41.4</ele>
        <time>2024-09-22T07:12:14Z</time>
      </trkpt>
      <trkpt lat="49.24967" lon="0.01768">
        <ele>41.4</ele>
        <time>2024-09-22T07:12:15Z</time>
      </trkpt>
      <trkpt lat="49.24968" lon="0.01778">
        <ele>41.6</ele>
        <time>2024-09-22T07:12:16Z</time>
      </trkpt>
      <trkpt lat="49.24969" lon="0.01788">
        <ele>41.8</ele>
        <time>2024-09-22T07:12:17Z</time>
      </trkpt>
      <trkpt lat="49.2497" lon="0.01798">
        <ele>42</ele>
        <time>2024-09-22T07:12:18Z</time>
      </trkpt>
      <trkpt lat="49.24971" lon="0.01806">
        <ele>42.2</ele>
        <time>2024-09-22T07:12:19Z</time>
      </trkpt>
      <trkpt lat="49.24972" lon="0.01818">
        <ele>42.2</ele>
        <time>2024-09-22T07:12:20Z</time>
      </trkpt>
      <trkpt lat="49.24973" lon="0.01827">
        <ele>42.6</ele>
        <time>2024-09-22T07:12:21Z</time>
      </trkpt>
      <trkpt lat="49.24974" lon="0.01835">
        <ele>42.8</ele>
        <time>2024-09-22T07:12:22Z</time>
      </trkpt>
      <trkpt lat="49.24975" lon="0.01846">
        <ele>43</ele>
        <time>2024-09-22T07:12:23Z</time>
      </trkpt>
      <trkpt lat="49.24975" lon="0.01856">
        <ele>43.4</ele>
        <time>2024-09-22T07:12:24Z</time>
      </trkpt>
      <trkpt lat="49.24976" lon="0.01866">
        <ele>43.6</ele>
        <time>2024-09-22T07:12:25Z</time>
      </trkpt>
      <trkpt lat="49.24977" lon="0.01875">
        <ele>43.8</ele>
        <time>2024-09-22T07:12:26Z</time>
      </trkpt>
      <trkpt lat="49.24978" lon="0.01885">
        <ele>44.2</ele>
        <time>2024-09-22T07:12:27Z</time>
      </trkpt>
      <trkpt lat="49.24979" lon="0.01892">
        <ele>44.6</ele>
        <time>2024-09-22T07:12:28Z</time>
      </trkpt>
      <trkpt lat="49.2498" lon="0.01904">
        <ele>45</ele>
        <time>2024-09-22T07:12:29Z</time>
      </trkpt>
      <trkpt lat="49.2498" lon="0.01914">
        <ele>45</ele>
        <time>2024-09-22T07:12:30Z</time>
      </trkpt>
      <trkpt lat="49.24981" lon="0.01922">
        <ele>45.4</ele>
        <time>2024-09-22T07:12:31Z</time>
      </trkpt>
      <trkpt lat="49.24982" lon="0.01934">
        <ele>45.6</ele>
        <time>2024-09-22T07:12:32Z</time>
      </trkpt>
      <trkpt lat="49.24982" lon="0.01944">
        <ele>45.8</ele>
        <time>2024-09-22T07:12:33Z</time>
      </trkpt>
      <trkpt lat="49.24983" lon="0.01952">
        <ele>46</ele>
        <time>2024-09-22T07:12:34Z</time>
      </trkpt>
      <trkpt lat="49.24984" lon="0.01965">
        <ele>46</ele>
        <time>2024-09-22T07:12:35Z</time>
      </trkpt>
      <trkpt lat="49.24984" lon="0.01975">
        <ele>46.2</ele>
        <time>2024-09-22T07:12:36Z</time>
      </trkpt>
      <trkpt lat="49.24985" lon="0.01985">
        <ele>46.4</ele>
        <time>2024-09-22T07:12:37Z</time>
      </trkpt>
      <trkpt lat="49.24986" lon="0.01996">
        <ele>46.6</ele>
        <time>2024-09-22T07:12:38Z</time>
      </trkpt>
      <trkpt lat="49.24986" lon="0.02006">
        <ele>46.6</ele>
        <time>2024-09-22T07:12:39Z</time>
      </trkpt>
      <trkpt lat="49.24987" lon="0.02017">
        <ele>46.6</ele>
        <time>2024-09-22T07:12:40Z</time>
      </trkpt>
      <trkpt lat="49.24988" lon="0.02028">
        <ele>46.6</ele>
        <time>2024-09-22T07:12:41Z</time>
      </trkpt>
      <trkpt lat="49.24988" lon="0.02038">
        <ele>46.8</ele>
        <time>2024-09-22T07:12:42Z</time>
      </trkpt>
      <trkpt lat="49.24989" lon="0.02049">
        <ele>46.8</ele>
        <time>2024-09-22T07:12:43Z</time>
      </trkpt>
      <trkpt lat="49.2499" lon="0.02059">
        <ele>46.8</ele>
        <time>2024-09-22T07:12:44Z</time>
      </trkpt>
      <trkpt lat="49.24991" lon="0.0207">
        <ele>46.8</ele>
        <time>2024-09-22T07:12:45Z</time>
      </trkpt>
      <trkpt lat="49.24992" lon="0.02081">
        <ele>46.8</ele>
        <time>2024-09-22T07:12:46Z</time>
      </trkpt>
      <trkpt lat="49.24992" lon="0.02092">
        <ele>46.8</ele>
        <time>2024-09-22T07:12:47Z</time>
      </trkpt>
      <trkpt lat="49.24993" lon="0.02102">
        <ele>46.8</ele>
        <time>2024-09-22T07:12:48Z</time>
      </trkpt>
      <trkpt lat="49.24994" lon="0.02113">
        <ele>46.8</ele>
        <time>2024-09-22T07:12:49Z</time>
      </trkpt>
      <trkpt lat="49.24995" lon="0.02124">
        <ele>46.8</ele>
        <time>2024-09-22T07:12:50Z</time>
      </trkpt>
      <trkpt lat="49.24996" lon="0.02135">
        <ele>46.8</ele>
        <time>2024-09-22T07:12:51Z</time>
      </trkpt>
      <trkpt lat="49.24997" lon="0.02146">
        <ele>46.8</ele>
        <time>2024-09-22T07:12:52Z</time>
      </trkpt>
      <trkpt lat="49.24998" lon="0.02157">
        <ele>46.8</ele>
        <time>2024-09-22T07:12:53Z</time>
      </trkpt>
      <trkpt lat="49.24999" lon="0.02168">
        <ele>46.8</ele>
        <time>2024-09-22T07:12:54Z</time>
      </trkpt>
      <trkpt lat="49.24999" lon="0.02179">
        <ele>46.8</ele>
        <time>2024-09-22T07:12:55Z</time>
      </trkpt>
      <trkpt lat="49.25" lon="0.0219">
        <ele>46.8</ele>
        <time>2024-09-22T07:12:56Z</time>
      </trkpt>
      <trkpt lat="49.25001" lon="0.02201">
        <ele>46.6</ele>
        <time>2024-09-22T07:12:57Z</time>
      </trkpt>
      <trkpt lat="49.25002" lon="0.02213">
        <ele>46.6</ele>
        <time>2024-09-22T07:12:58Z</time>
      </trkpt>
      <trkpt lat="49.25004" lon="0.02224">
        <ele>46.6</ele>
        <time>2024-09-22T07:12:59Z</time>
      </trkpt>
      <trkpt lat="49.25004" lon="0.02235">
        <ele>46.6</ele>
        <time>2024-09-22T07:13:00Z</time>
      </trkpt>
      <trkpt lat="49.25005" lon="0.02245">
        <ele>46.6</ele>
        <time>2024-09-22T07:13:01Z</time>
      </trkpt>
      <trkpt lat="49.25006" lon="0.02256">
        <ele>46.4</ele>
        <time>2024-09-22T07:13:02Z</time>
      </trkpt>
      <trkpt lat="49.25006" lon="0.02267">
        <ele>46.4</ele>
        <time>2024-09-22T07:13:03Z</time>
      </trkpt>
      <trkpt lat="49.25007" lon="0.02278">
        <ele>46.4</ele>
        <time>2024-09-22T07:13:04Z</time>
      </trkpt>
      <trkpt lat="49.25008" lon="0.02288">
        <ele>46.4</ele>
        <time>2024-09-22T07:13:05Z</time>
      </trkpt>
      <trkpt lat="49.25009" lon="0.02299">
        <ele>46.4</ele>
        <time>2024-09-22T07:13:06Z</time>
      </trkpt>
      <trkpt lat="49.25009" lon="0.02309">
        <ele>46.4</ele>
        <time>2024-09-22T07:13:07Z</time>
      </trkpt>
      <trkpt lat="49.2501" lon="0.0232">
        <ele>46.4</ele>
        <time>2024-09-22T07:13:08Z</time>
      </trkpt>
      <trkpt lat="49.25011" lon="0.02331">
        <ele>46.4</ele>
        <time>2024-09-22T07:13:09Z</time>
      </trkpt>
      <trkpt lat="49.25012" lon="0.02341">
        <ele>46.4</ele>
        <time>2024-09-22T07:13:10Z</time>
      </trkpt>
      <trkpt lat="49.25012" lon="0.02352">
        <ele>46.4</ele>
        <time>2024-09-22T07:13:11Z</time>
      </trkpt>
      <trkpt lat="49.25013" lon="0.02362">
        <ele>46.6</ele>
        <time>2024-09-22T07:13:12Z</time>
      </trkpt>
      <trkpt lat="49.25014" lon="0.02372">
        <ele>46.6</ele>
        <time>2024-09-22T07:13:13Z</time>
      </trkpt>
      <trkpt lat="49.25015" lon="0.02383">
        <ele>46.8</ele>
        <time>2024-09-22T07:13:14Z</time>
      </trkpt>
      <trkpt lat="49.25016" lon="0.02393">
        <ele>47</ele>
        <time>2024-09-22T07:13:15Z</time>
      </trkpt>
      <trkpt lat="49.25016" lon="0.02403">
        <ele>47.2</ele>
        <time>2024-09-22T07:13:16Z</time>
      </trkpt>
      <trkpt lat="49.25017" lon="0.02414">
        <ele>47.4</ele>
        <time>2024-09-22T07:13:17Z</time>
      </trkpt>
      <trkpt lat="49.25018" lon="0.02424">
        <ele>47.6</ele>
        <time>2024-09-22T07:13:18Z</time>
      </trkpt>
      <trkpt lat="49.25019" lon="0.02434">
        <ele>47.8</ele>
        <time>2024-09-22T07:13:19Z</time>
      </trkpt>
      <trkpt lat="49.25019" lon="0.02445">
        <ele>47.8</ele>
        <time>2024-09-22T07:13:20Z</time>
      </trkpt>
      <trkpt lat="49.2502" lon="0.02455">
        <ele>48</ele>
        <time>2024-09-22T07:13:21Z</time>
      </trkpt>
      <trkpt lat="49.25021" lon="0.02465">
        <ele>48.2</ele>
        <time>2024-09-22T07:13:22Z</time>
      </trkpt>
      <trkpt lat="49.25021" lon="0.02476">
        <ele>48.2</ele>
        <time>2024-09-22T07:13:23Z</time>
      </trkpt>
      <trkpt lat="49.25022" lon="0.02486">
        <ele>48.4</ele>
        <time>2024-09-22T07:13:24Z</time>
      </trkpt>
      <trkpt lat="49.25022" lon="0.02496">
        <ele>48.2</ele>
        <time>2024-09-22T07:13:25Z</time>
      </trkpt>
      <trkpt lat="49.25023" lon="0.02506">
        <ele>48.4</ele>
        <time>2024-09-22T07:13:26Z</time>
      </trkpt>
      <trkpt lat="49.25024" lon="0.02516">
        <ele>48.4</ele>
        <time>2024-09-22T07:13:27Z</time>
      </trkpt>
      <trkpt lat="49.25024" lon="0.02526">
        <ele>48.4</ele>
        <time>2024-09-22T07:13:28Z</time>
      </trkpt>
      <trkpt lat="49.25025" lon="0.02536">
        <ele>48.4</ele>
        <time>2024-09-22T07:13:29Z</time>
      </trkpt>
      <trkpt lat="49.25026" lon="0.02546">
        <ele>48.6</ele>
        <time>2024-09-22T07:13:30Z</time>
      </trkpt>
      <trkpt lat="49.25027" lon="0.02556">
        <ele>48.6</ele>
        <time>2024-09-22T07:13:31Z</time>
      </trkpt>
      <trkpt lat="49.25028" lon="0.02566">
        <ele>48.8</ele>
        <time>2024-09-22T07:13:32Z</time>
      </trkpt>
      <trkpt lat="49.25028" lon="0.02576">
        <ele>49</ele>
        <time>2024-09-22T07:13:33Z</time>
      </trkpt>
      <trkpt lat="49.25029" lon="0.02585">
        <ele>49.2</ele>
        <time>2024-09-22T07:13:34Z</time>
      </trkpt>
      <trkpt lat="49.25029" lon="0.02594">
        <ele>49.2</ele>
        <time>2024-09-22T07:13:35Z</time>
      </trkpt>
      <trkpt lat="49.2503" lon="0.02602">
        <ele>49.4</ele>
        <time>2024-09-22T07:13:36Z</time>
      </trkpt>
      <trkpt lat="49.25032" lon="0.02613">
        <ele>49.6</ele>
        <time>2024-09-22T07:13:37Z</time>
      </trkpt>
      <trkpt lat="49.25033" lon="0.02622">
        <ele>49.6</ele>
        <time>2024-09-22T07:13:38Z</time>
      </trkpt>
      <trkpt lat="49.25033" lon="0.02631">
        <ele>49.8</ele>
        <time>2024-09-22T07:13:39Z</time>
      </trkpt>
      <trkpt lat="49.25034" lon="0.0264">
        <ele>49.8</ele>
        <time>2024-09-22T07:13:40Z</time>
      </trkpt>
      <trkpt lat="49.25034" lon="0.02648">
        <ele>50</ele>
        <time>2024-09-22T07:13:41Z</time>
      </trkpt>
      <trkpt lat="49.25035" lon="0.02656">
        <ele>50.2</ele>
        <time>2024-09-22T07:13:42Z</time>
      </trkpt>
      <trkpt lat="49.25035" lon="0.02665">
        <ele>50.6</ele>
        <time>2024-09-22T07:13:43Z</time>
      </trkpt>
      <trkpt lat="49.25035" lon="0.02673">
        <ele>50.8</ele>
        <time>2024-09-22T07:13:44Z</time>
      </trkpt>
      <trkpt lat="49.25035" lon="0.02679">
        <ele>51.2</ele>
        <time>2024-09-22T07:13:45Z</time>
      </trkpt>
      <trkpt lat="49.25035" lon="0.02686">
        <ele>51.4</ele>
        <time>2024-09-22T07:13:46Z</time>
      </trkpt>
      <trkpt lat="49.25035" lon="0.02692">
        <ele>51.6</ele>
        <time>2024-09-22T07:13:47Z</time>
      </trkpt>
      <trkpt lat="49.25034" lon="0.02698">
        <ele>51.8</ele>
        <time>2024-09-22T07:13:48Z</time>
      </trkpt>
      <trkpt lat="49.25034" lon="0.02705">
        <ele>52.2</ele>
        <time>2024-09-22T07:13:49Z</time>
      </trkpt>
      <trkpt lat="49.25033" lon="0.02711">
        <ele>52.6</ele>
        <time>2024-09-22T07:13:50Z</time>
      </trkpt>
      <trkpt lat="49.25033" lon="0.02718">
        <ele>52.8</ele>
        <time>2024-09-22T07:13:51Z</time>
      </trkpt>
      <trkpt lat="49.25033" lon="0.02725">
        <ele>53.2</ele>
        <time>2024-09-22T07:13:52Z</time>
      </trkpt>
      <trkpt lat="49.25032" lon="0.02732">
        <ele>53.6</ele>
        <time>2024-09-22T07:13:53Z</time>
      </trkpt>
      <trkpt lat="49.2503" lon="0.02738">
        <ele>54</ele>
        <time>2024-09-22T07:13:54Z</time>
      </trkpt>
      <trkpt lat="49.25029" lon="0.02745">
        <ele>54.4</ele>
        <time>2024-09-22T07:13:55Z</time>
      </trkpt>
      <trkpt lat="49.25028" lon="0.02752">
        <ele>54.6</ele>
        <time>2024-09-22T07:13:56Z</time>
      </trkpt>
      <trkpt lat="49.25027" lon="0.02759">
        <ele>55</ele>
        <time>2024-09-22T07:13:57Z</time>
      </trkpt>
      <trkpt lat="49.25025" lon="0.02766">
        <ele>55.2</ele>
        <time>2024-09-22T07:13:58Z</time>
      </trkpt>
      <trkpt lat="49.25025" lon="0.02773">
        <ele>55.6</ele>
        <time>2024-09-22T07:13:59Z</time>
      </trkpt>
      <trkpt lat="49.25024" lon="0.0278">
        <ele>55.6</ele>
        <time>2024-09-22T07:14:00Z</time>
      </trkpt>
      <trkpt lat="49.25023" lon="0.02786">
        <ele>55.8</ele>
        <time>2024-09-22T07:14:01Z</time>
      </trkpt>
      <trkpt lat="49.25021" lon="0.02793">
        <ele>56</ele>
        <time>2024-09-22T07:14:02Z</time>
      </trkpt>
      <trkpt lat="49.25021" lon="0.02799">
        <ele>56.2</ele>
        <time>2024-09-22T07:14:03Z</time>
      </trkpt>
      <trkpt lat="49.2502" lon="0.02806">
        <ele>56.6</ele>
        <time>2024-09-22T07:14:04Z</time>
      </trkpt>
      <trkpt lat="49.25019" lon="0.02811">
        <ele>56.8</ele>
        <time>2024-09-22T07:14:05Z</time>
      </trkpt>
      <trkpt lat="49.25018" lon="0.0282">
        <ele>57.2</ele>
        <time>2024-09-22T07:14:06Z</time>
      </trkpt>
      <trkpt lat="49.25017" lon="0.02826">
        <ele>57.4</ele>
        <time>2024-09-22T07:14:07Z</time>
      </trkpt>
      <trkpt lat="49.25016" lon="0.02832">
        <ele>57.8</ele>
        <time>2024-09-22T07:14:08Z</time>
      </trkpt>
      <trkpt lat="49.25015" lon="0.02838">
        <ele>58.2</ele>
        <time>2024-09-22T07:14:09Z</time>
      </trkpt>
      <trkpt lat="49.25014" lon="0.02846">
        <ele>58.4</ele>
        <time>2024-09-22T07:14:10Z</time>
      </trkpt>
      <trkpt lat="49.25014" lon="0.02851">
        <ele>58.8</ele>
        <time>2024-09-22T07:14:11Z</time>
      </trkpt>
      <trkpt lat="49.25012" lon="0.02859">
        <ele>59</ele>
        <time>2024-09-22T07:14:12Z</time>
      </trkpt>
      <trkpt lat="49.25011" lon="0.02866">
        <ele>59.2</ele>
        <time>2024-09-22T07:14:13Z</time>
      </trkpt>
      <trkpt lat="49.2501" lon="0.02871">
        <ele>59.6</ele>
        <time>2024-09-22T07:14:14Z</time>
      </trkpt>
      <trkpt lat="49.25009" lon="0.02879">
        <ele>59.8</ele>
        <time>2024-09-22T07:14:15Z</time>
      </trkpt>
      <trkpt lat="49.25008" lon="0.02885">
        <ele>60</ele>
        <time>2024-09-22T07:14:16Z</time>
      </trkpt>
      <trkpt lat="49.25007" lon="0.0289">
        <ele>60.4</ele>
        <time>2024-09-22T07:14:17Z</time>
      </trkpt>
      <trkpt lat="49.25006" lon="0.02896">
        <ele>60.8</ele>
        <time>2024-09-22T07:14:18Z</time>
      </trkpt>
      <trkpt lat="49.25006" lon="0.02902">
        <ele>60.8</ele>
        <time>2024-09-22T07:14:19Z</time>
      </trkpt>
      <trkpt lat="49.25005" lon="0.02909">
        <ele>61.2</ele>
        <time>2024-09-22T07:14:20Z</time>
      </trkpt>
      <trkpt lat="49.25004" lon="0.02916">
        <ele>61.4</ele>
        <time>2024-09-22T07:14:21Z</time>
      </trkpt>
      <trkpt lat="49.25003" lon="0.02923">
        <ele>61.8</ele>
        <time>2024-09-22T07:14:22Z</time>
      </trkpt>
      <trkpt lat="49.25002" lon="0.02928">
        <ele>62</ele>
        <time>2024-09-22T07:14:23Z</time>
      </trkpt>
      <trkpt lat="49.25001" lon="0.02935">
        <ele>62.2</ele>
        <time>2024-09-22T07:14:24Z</time>
      </trkpt>
      <trkpt lat="49.25" lon="0.0294">
        <ele>62.6</ele>
        <time>2024-09-22T07:14:25Z</time>
      </trkpt>
      <trkpt lat="49.25" lon="0.02946">
        <ele>62.8</ele>
        <time>2024-09-22T07:14:26Z</time>
      </trkpt>
      <trkpt lat="49.24999" lon="0.02953">
        <ele>63</ele>
        <time>2024-09-22T07:14:27Z</time>
      </trkpt>
      <trkpt lat="49.24998" lon="0.02958">
        <ele>63.2</ele>
        <time>2024-09-22T07:14:28Z</time>
      </trkpt>
      <trkpt lat="49.24997" lon="0.02964">
        <ele>63.4</ele>
        <time>2024-09-22T07:14:29Z</time>
      </trkpt>
      <trkpt lat="49.24996" lon="0.02971">
        <ele>63.8</ele>
        <time>2024-09-22T07:14:30Z</time>
      </trkpt>
      <trkpt lat="49.24995" lon="0.02977">
        <ele>64</ele>
        <time>2024-09-22T07:14:31Z</time>
      </trkpt>
      <trkpt lat="49.24994" lon="0.02981">
        <ele>64.4</ele>
        <time>2024-09-22T07:14:32Z</time>
      </trkpt>
      <trkpt lat="49.24994" lon="0.02989">
        <ele>64.8</ele>
        <time>2024-09-22T07:14:33Z</time>
      </trkpt>
      <trkpt lat="49.24993" lon="0.02995">
        <ele>65</ele>
        <time>2024-09-22T07:14:34Z</time>
      </trkpt>
      <trkpt lat="49.24993" lon="0.03">
        <ele>65.2</ele>
        <time>2024-09-22T07:14:35Z</time>
      </trkpt>
      <trkpt lat="49.24992" lon="0.03007">
        <ele>65.6</ele>
        <time>2024-09-22T07:14:36Z</time>
      </trkpt>
      <trkpt lat="49.24992" lon="0.03013">
        <ele>65.8</ele>
        <time>2024-09-22T07:14:37Z</time>
      </trkpt>
      <trkpt lat="49.24991" lon="0.03018">
        <ele>66</ele>
        <time>2024-09-22T07:14:38Z</time>
      </trkpt>
      <trkpt lat="49.24991" lon="0.03025">
        <ele>66</ele>
        <time>2024-09-22T07:14:39Z</time>
      </trkpt>
      <trkpt lat="49.2499" lon="0.03031">
        <ele>66.4</ele>
        <time>2024-09-22T07:14:40Z</time>
      </trkpt>
      <trkpt lat="49.24989" lon="0.03036">
        <ele>66.6</ele>
        <time>2024-09-22T07:14:41Z</time>
      </trkpt>
      <trkpt lat="49.24989" lon="0.03042">
        <ele>67</ele>
        <time>2024-09-22T07:14:42Z</time>
      </trkpt>
      <trkpt lat="49.24988" lon="0.03049">
        <ele>67.2</ele>
        <time>2024-09-22T07:14:43Z</time>
      </trkpt>
      <trkpt lat="49.24987" lon="0.03054">
        <ele>67.4</ele>
        <time>2024-09-22T07:14:44Z</time>
      </trkpt>
      <trkpt lat="49.24987" lon="0.03061">
        <ele>67.8</ele>
        <time>2024-09-22T07:14:45Z</time>
      </trkpt>
      <trkpt lat="49.24986" lon="0.03066">
        <ele>68</ele>
        <time>2024-09-22T07:14:46Z</time>
      </trkpt>
      <trkpt lat="49.24986" lon="0.03072">
        <ele>68.4</ele>
        <time>2024-09-22T07:14:47Z</time>
      </trkpt>
      <trkpt lat="49.24986" lon="0.03078">
        <ele>68.6</ele>
        <time>2024-09-22T07:14:48Z</time>
      </trkpt>
      <trkpt lat="49.24985" lon="0.03084">
        <ele>69</ele>
        <time>2024-09-22T07:14:49Z</time>
      </trkpt>
      <trkpt lat="49.24985" lon="0.03089">
        <ele>69.2</ele>
        <time>2024-09-22T07:14:50Z</time>
      </trkpt>
      <trkpt lat="49.24986" lon="0.03096">
        <ele>69.4</ele>
        <time>2024-09-22T07:14:51Z</time>
      </trkpt>
      <trkpt lat="49.24986" lon="0.03102">
        <ele>69.8</ele>
        <time>2024-09-22T07:14:52Z</time>
      </trkpt>
      <trkpt lat="49.24986" lon="0.03107">
        <ele>70</ele>
        <time>2024-09-22T07:14:53Z</time>
      </trkpt>
      <trkpt lat="49.24987" lon="0.03115">
        <ele>70.2</ele>
        <time>2024-09-22T07:14:54Z</time>
      </trkpt>
      <trkpt lat="49.24988" lon="0.03121">
        <ele>70.6</ele>
        <time>2024-09-22T07:14:55Z</time>
      </trkpt>
      <trkpt lat="49.24989" lon="0.03125">
        <ele>70.8</ele>
        <time>2024-09-22T07:14:56Z</time>
      </trkpt>
      <trkpt lat="49.2499" lon="0.03132">
        <ele>71</ele>
        <time>2024-09-22T07:14:57Z</time>
      </trkpt>
      <trkpt lat="49.24991" lon="0.03137">
        <ele>71.2</ele>
        <time>2024-09-22T07:14:58Z</time>
      </trkpt>
      <trkpt lat="49.24992" lon="0.03144">
        <ele>71.2</ele>
        <time>2024-09-22T07:14:59Z</time>
      </trkpt>
      <trkpt lat="49.24994" lon="0.03149">
        <ele>71.6</ele>
        <time>2024-09-22T07:15:00Z</time>
      </trkpt>
      <trkpt lat="49.24995" lon="0.03155">
        <ele>71.8</ele>
        <time>2024-09-22T07:15:01Z</time>
      </trkpt>
      <trkpt lat="49.24996" lon="0.03159">
        <ele>72</ele>
        <time>2024-09-22T07:15:02Z</time>
      </trkpt>
      <trkpt lat="49.24998" lon="0.03166">
        <ele>72.2</ele>
        <time>2024-09-22T07:15:03Z</time>
      </trkpt>
      <trkpt lat="49.24999" lon="0.03171">
        <ele>72.4</ele>
        <time>2024-09-22T07:15:04Z</time>
      </trkpt>
      <trkpt lat="49.25" lon="0.03177">
        <ele>72.8</ele>
        <time>2024-09-22T07:15:05Z</time>
      </trkpt>
      <trkpt lat="49.25002" lon="0.03183">
        <ele>73</ele>
        <time>2024-09-22T07:15:06Z</time>
      </trkpt>
      <trkpt lat="49.25004" lon="0.03188">
        <ele>73.4</ele>
        <time>2024-09-22T07:15:07Z</time>
      </trkpt>
      <trkpt lat="49.25006" lon="0.03193">
        <ele>73.6</ele>
        <time>2024-09-22T07:15:08Z</time>
      </trkpt>
      <trkpt lat="49.25008" lon="0.03199">
        <ele>73.6</ele>
        <time>2024-09-22T07:15:09Z</time>
      </trkpt>
      <trkpt lat="49.2501" lon="0.03205">
        <ele>73.8</ele>
        <time>2024-09-22T07:15:10Z</time>
      </trkpt>
      <trkpt lat="49.25011" lon="0.03209">
        <ele>74.2</ele>
        <time>2024-09-22T07:15:11Z</time>
      </trkpt>
      <trkpt lat="49.25013" lon="0.03216">
        <ele>74.4</ele>
        <time>2024-09-22T07:15:12Z</time>
      </trkpt>
      <trkpt lat="49.25015" lon="0.03221">
        <ele>74.6</ele>
        <time>2024-09-22T07:15:13Z</time>
      </trkpt>
      <trkpt lat="49.25016" lon="0.03226">
        <ele>75</ele>
        <time>2024-09-22T07:15:14Z</time>
      </trkpt>
      <trkpt lat="49.25019" lon="0.03232">
        <ele>75.2</ele>
        <time>2024-09-22T07:15:15Z</time>
      </trkpt>
      <trkpt lat="49.2502" lon="0.03238">
        <ele>75.6</ele>
        <time>2024-09-22T07:15:16Z</time>
      </trkpt>
      <trkpt lat="49.25022" lon="0.03242">
        <ele>76</ele>
        <time>2024-09-22T07:15:17Z</time>
      </trkpt>
      <trkpt lat="49.25024" lon="0.03249">
        <ele>76</ele>
        <time>2024-09-22T07:15:18Z</time>
      </trkpt>
      <trkpt lat="49.25025" lon="0.03254">
        <ele>76</ele>
        <time>2024-09-22T07:15:19Z</time>
      </trkpt>
      <trkpt lat="49.25027" lon="0.03259">
        <ele>76.2</ele>
        <time>2024-09-22T07:15:20Z</time>
      </trkpt>
      <trkpt lat="49.25029" lon="0.03266">
        <ele>76.6</ele>
        <time>2024-09-22T07:15:21Z</time>
      </trkpt>
      <trkpt lat="49.25031" lon="0.03272">
        <ele>77</ele>
        <time>2024-09-22T07:15:22Z</time>
      </trkpt>
      <trkpt lat="49.25032" lon="0.03276">
        <ele>77.2</ele>
        <time>2024-09-22T07:15:23Z</time>
      </trkpt>
      <trkpt lat="49.25034" lon="0.03283">
        <ele>77.6</ele>
        <time>2024-09-22T07:15:24Z</time>
      </trkpt>
      <trkpt lat="49.25036" lon="0.03289">
        <ele>77.6</ele>
        <time>2024-09-22T07:15:25Z</time>
      </trkpt>
      <trkpt lat="49.25038" lon="0.03295">
        <ele>78</ele>
        <time>2024-09-22T07:15:26Z</time>
      </trkpt>
      <trkpt lat="49.2504" lon="0.033">
        <ele>78.2</ele>
        <time>2024-09-22T07:15:27Z</time>
      </trkpt>
      <trkpt lat="49.25041" lon="0.03305">
        <ele>78.6</ele>
        <time>2024-09-22T07:15:28Z</time>
      </trkpt>
      <trkpt lat="49.25043" lon="0.03311">
        <ele>78.8</ele>
        <time>2024-09-22T07:15:29Z</time>
      </trkpt>
      <trkpt lat="49.25045" lon="0.03317">
        <ele>79</ele>
        <time>2024-09-22T07:15:30Z</time>
      </trkpt>
      <trkpt lat="49.25046" lon="0.03322">
        <ele>79.2</ele>
        <time>2024-09-22T07:15:31Z</time>
      </trkpt>
      <trkpt lat="49.25048" lon="0.03327">
        <ele>79.4</ele>
        <time>2024-09-22T07:15:32Z</time>
      </trkpt>
      <trkpt lat="49.2505" lon="0.03333">
        <ele>79.6</ele>
        <time>2024-09-22T07:15:33Z</time>
      </trkpt>
      <trkpt lat="49.25052" lon="0.03339">
        <ele>80</ele>
        <time>2024-09-22T07:15:34Z</time>
      </trkpt>
      <trkpt lat="49.25053" lon="0.03343">
        <ele>80.2</ele>
        <time>2024-09-22T07:15:35Z</time>
      </trkpt>
      <trkpt lat="49.25055" lon="0.03349">
        <ele>80.4</ele>
        <time>2024-09-22T07:15:36Z</time>
      </trkpt>
      <trkpt lat="49.25057" lon="0.03356">
        <ele>80.6</ele>
        <time>2024-09-22T07:15:37Z</time>
      </trkpt>
      <trkpt lat="49.25058" lon="0.0336">
        <ele>81</ele>
        <time>2024-09-22T07:15:38Z</time>
      </trkpt>
      <trkpt lat="49.2506" lon="0.03367">
        <ele>81</ele>
        <time>2024-09-22T07:15:39Z</time>
      </trkpt>
      <trkpt lat="49.25062" lon="0.03373">
        <ele>81.2</ele>
        <time>2024-09-22T07:15:40Z</time>
      </trkpt>
      <trkpt lat="49.25064" lon="0.03378">
        <ele>81.4</ele>
        <time>2024-09-22T07:15:41Z</time>
      </trkpt>
      <trkpt lat="49.25065" lon="0.03384">
        <ele>81.6</ele>
        <time>2024-09-22T07:15:42Z</time>
      </trkpt>
      <trkpt lat="49.25067" lon="0.0339">
        <ele>81.8</ele>
        <time>2024-09-22T07:15:43Z</time>
      </trkpt>
      <trkpt lat="49.25069" lon="0.03394">
        <ele>82</ele>
        <time>2024-09-22T07:15:44Z</time>
      </trkpt>
      <trkpt lat="49.25071" lon="0.034">
        <ele>82.4</ele>
        <time>2024-09-22T07:15:45Z</time>
      </trkpt>
      <trkpt lat="49.25072" lon="0.03406">
        <ele>82.6</ele>
        <time>2024-09-22T07:15:46Z</time>
      </trkpt>
      <trkpt lat="49.25074" lon="0.03412">
        <ele>83</ele>
        <time>2024-09-22T07:15:47Z</time>
      </trkpt>
      <trkpt lat="49.25075" lon="0.03417">
        <ele>83.2</ele>
        <time>2024-09-22T07:15:48Z</time>
      </trkpt>
      <trkpt lat="49.25076" lon="0.03423">
        <ele>83.2</ele>
        <time>2024-09-22T07:15:49Z</time>
      </trkpt>
      <trkpt lat="49.25078" lon="0.03428">
        <ele>83.4</ele>
        <time>2024-09-22T07:15:50Z</time>
      </trkpt>
      <trkpt lat="49.25079" lon="0.03435">
        <ele>83.8</ele>
        <time>2024-09-22T07:15:51Z</time>
      </trkpt>
      <trkpt lat="49.25081" lon="0.0344">
        <ele>84</ele>
        <time>2024-09-22T07:15:52Z</time>
      </trkpt>
      <trkpt lat="49.25082" lon="0.03446">
        <ele>84.2</ele>
        <time>2024-09-22T07:15:53Z</time>
      </trkpt>
      <trkpt lat="49.25084" lon="0.03452">
        <ele>84.4</ele>
        <time>2024-09-22T07:15:54Z</time>
      </trkpt>
      <trkpt lat="49.25085" lon="0.03458">
        <ele>84.8</ele>
        <time>2024-09-22T07:15:55Z</time>
      </trkpt>
      <trkpt lat="49.25087" lon="0.03464">
        <ele>85</ele>
        <time>2024-09-22T07:15:56Z</time>
      </trkpt>
      <trkpt lat="49.25088" lon="0.0347">
        <ele>85.2</ele>
        <time>2024-09-22T07:15:57Z</time>
      </trkpt>
      <trkpt lat="49.25089" lon="0.03476">
        <ele>85.4</ele>
        <time>2024-09-22T07:15:58Z</time>
      </trkpt>
      <trkpt lat="49.25091" lon="0.03481">
        <ele>85.4</ele>
        <time>2024-09-22T07:15:59Z</time>
      </trkpt>
      <trkpt lat="49.25092" lon="0.03487">
        <ele>85.6</ele>
        <time>2024-09-22T07:16:00Z</time>
      </trkpt>
      <trkpt lat="49.25093" lon="0.03493">
        <ele>85.8</ele>
        <time>2024-09-22T07:16:01Z</time>
      </trkpt>
      <trkpt lat="49.25094" lon="0.03499">
        <ele>86.2</ele>
        <time>2024-09-22T07:16:02Z</time>
      </trkpt>
      <trkpt lat="49.25095" lon="0.03504">
        <ele>86.4</ele>
        <time>2024-09-22T07:16:03Z</time>
      </trkpt>
      <trkpt lat="49.25096" lon="0.0351">
        <ele>86.6</ele>
        <time>2024-09-22T07:16:04Z</time>
      </trkpt>
      <trkpt lat="49.25097" lon="0.03515">
        <ele>86.8</ele>
        <time>2024-09-22T07:16:05Z</time>
      </trkpt>
      <trkpt lat="49.25098" lon="0.03521">
        <ele>87</ele>
        <time>2024-09-22T07:16:06Z</time>
      </trkpt>
      <trkpt lat="49.25099" lon="0.03527">
        <ele>87.4</ele>
        <time>2024-09-22T07:16:07Z</time>
      </trkpt>
      <trkpt lat="49.251" lon="0.03533">
        <ele>87.6</ele>
        <time>2024-09-22T07:16:08Z</time>
      </trkpt>
      <trkpt lat="49.25101" lon="0.03539">
        <ele>87.8</ele>
        <time>2024-09-22T07:16:09Z</time>
      </trkpt>
      <trkpt lat="49.25102" lon="0.03545">
        <ele>88</ele>
        <time>2024-09-22T07:16:10Z</time>
      </trkpt>
      <trkpt lat="49.25103" lon="0.03551">
        <ele>88</ele>
        <time>2024-09-22T07:16:11Z</time>
      </trkpt>
      <trkpt lat="49.25104" lon="0.03558">
        <ele>88.4</ele>
        <time>2024-09-22T07:16:12Z</time>
      </trkpt>
      <trkpt lat="49.25105" lon="0.03564">
        <ele>88.8</ele>
        <time>2024-09-22T07:16:13Z</time>
      </trkpt>
      <trkpt lat="49.25105" lon="0.0357">
        <ele>89</ele>
        <time>2024-09-22T07:16:14Z</time>
      </trkpt>
      <trkpt lat="49.25106" lon="0.03576">
        <ele>89.4</ele>
        <time>2024-09-22T07:16:15Z</time>
      </trkpt>
      <trkpt lat="49.25107" lon="0.03582">
        <ele>89.6</ele>
        <time>2024-09-22T07:16:16Z</time>
      </trkpt>
      <trkpt lat="49.25107" lon="0.03588">
        <ele>90</ele>
        <time>2024-09-22T07:16:17Z</time>
      </trkpt>
      <trkpt lat="49.25108" lon="0.03594">
        <ele>90</ele>
        <time>2024-09-22T07:16:18Z</time>
      </trkpt>
      <trkpt lat="49.25109" lon="0.036">
        <ele>90.2</ele>
        <time>2024-09-22T07:16:19Z</time>
      </trkpt>
      <trkpt lat="49.25109" lon="0.03606">
        <ele>90.4</ele>
        <time>2024-09-22T07:16:20Z</time>
      </trkpt>
      <trkpt lat="49.2511" lon="0.03612">
        <ele>90.6</ele>
        <time>2024-09-22T07:16:21Z</time>
      </trkpt>
      <trkpt lat="49.2511" lon="0.03617">
        <ele>90.6</ele>
        <time>2024-09-22T07:16:22Z</time>
      </trkpt>
      <trkpt lat="49.2511" lon="0.03624">
        <ele>90.8</ele>
        <time>2024-09-22T07:16:23Z</time>
      </trkpt>
      <trkpt lat="49.25111" lon="0.03629">
        <ele>91</ele>
        <time>2024-09-22T07:16:24Z</time>
      </trkpt>
      <trkpt lat="49.25111" lon="0.03634">
        <ele>91.2</ele>
        <time>2024-09-22T07:16:25Z</time>
      </trkpt>
      <trkpt lat="49.25112" lon="0.03641">
        <ele>91.6</ele>
        <time>2024-09-22T07:16:26Z</time>
      </trkpt>
      <trkpt lat="49.25112" lon="0.03645">
        <ele>92</ele>
        <time>2024-09-22T07:16:27Z</time>
      </trkpt>
      <trkpt lat="49.25112" lon="0.03651">
        <ele>92.2</ele>
        <time>2024-09-22T07:16:28Z</time>
      </trkpt>
      <trkpt lat="49.25113" lon="0.03657">
        <ele>92.4</ele>
        <time>2024-09-22T07:16:29Z</time>
      </trkpt>
      <trkpt lat="49.25113" lon="0.03663">
        <ele>92.8</ele>
        <time>2024-09-22T07:16:30Z</time>
      </trkpt>
      <trkpt lat="49.25114" lon="0.03669">
        <ele>93.2</ele>
        <time>2024-09-22T07:16:31Z</time>
      </trkpt>
      <trkpt lat="49.25114" lon="0.03674">
        <ele>93.4</ele>
        <time>2024-09-22T07:16:32Z</time>
      </trkpt>
      <trkpt lat="49.25114" lon="0.0368">
        <ele>93.6</ele>
        <time>2024-09-22T07:16:33Z</time>
      </trkpt>
      <trkpt lat="49.25115" lon="0.03684">
        <ele>93.8</ele>
        <time>2024-09-22T07:16:34Z</time>
      </trkpt>
      <trkpt lat="49.25115" lon="0.0369">
        <ele>94</ele>
        <time>2024-09-22T07:16:35Z</time>
      </trkpt>
      <trkpt lat="49.25116" lon="0.03697">
        <ele>94.2</ele>
        <time>2024-09-22T07:16:36Z</time>
      </trkpt>
      <trkpt lat="49.25116" lon="0.03702">
        <ele>94.6</ele>
        <time>2024-09-22T07:16:37Z</time>
      </trkpt>
      <trkpt lat="49.25116" lon="0.03707">
        <ele>94.6</ele>
        <time>2024-09-22T07:16:38Z</time>
      </trkpt>
      <trkpt lat="49.25117" lon="0.03713">
        <ele>95</ele>
        <time>2024-09-22T07:16:39Z</time>
      </trkpt>
      <trkpt lat="49.25117" lon="0.03718">
        <ele>95.2</ele>
        <time>2024-09-22T07:16:40Z</time>
      </trkpt>
      <trkpt lat="49.25117" lon="0.03723">
        <ele>95.4</ele>
        <time>2024-09-22T07:16:41Z</time>
      </trkpt>
      <trkpt lat="49.25118" lon="0.03729">
        <ele>95.8</ele>
        <time>2024-09-22T07:16:42Z</time>
      </trkpt>
      <trkpt lat="49.25118" lon="0.03733">
        <ele>96</ele>
        <time>2024-09-22T07:16:43Z</time>
      </trkpt>
      <trkpt lat="49.25118" lon="0.03739">
        <ele>96.4</ele>
        <time>2024-09-22T07:16:44Z</time>
      </trkpt>
      <trkpt lat="49.25118" lon="0.03744">
        <ele>96.6</ele>
        <time>2024-09-22T07:16:45Z</time>
      </trkpt>
      <trkpt lat="49.25118" lon="0.03748">
        <ele>96.8</ele>
        <time>2024-09-22T07:16:46Z</time>
      </trkpt>
      <trkpt lat="49.25119" lon="0.03755">
        <ele>97</ele>
        <time>2024-09-22T07:16:47Z</time>
      </trkpt>
      <trkpt lat="49.25119" lon="0.0376">
        <ele>97</ele>
        <time>2024-09-22T07:16:48Z</time>
      </trkpt>
      <trkpt lat="49.2512" lon="0.03764">
        <ele>97.4</ele>
        <time>2024-09-22T07:16:49Z</time>
      </trkpt>
      <trkpt lat="49.2512" lon="0.03771">
        <ele>97.4</ele>
        <time>2024-09-22T07:16:50Z</time>
      </trkpt>
      <trkpt lat="49.2512" lon="0.03776">
        <ele>97.8</ele>
        <time>2024-09-22T07:16:51Z</time>
      </trkpt>
      <trkpt lat="49.2512" lon="0.0378">
        <ele>98</ele>
        <time>2024-09-22T07:16:52Z</time>
      </trkpt>
      <trkpt lat="49.25121" lon="0.03786">
        <ele>98.2</ele>
        <time>2024-09-22T07:16:53Z</time>
      </trkpt>
      <trkpt lat="49.25121" lon="0.03792">
        <ele>98.6</ele>
        <time>2024-09-22T07:16:54Z</time>
      </trkpt>
      <trkpt lat="49.25122" lon="0.03797">
        <ele>98.8</ele>
        <time>2024-09-22T07:16:55Z</time>
      </trkpt>
      <trkpt lat="49.25122" lon="0.03803">
        <ele>99</ele>
        <time>2024-09-22T07:16:56Z</time>
      </trkpt>
      <trkpt lat="49.25122" lon="0.03808">
        <ele>99.2</ele>
        <time>2024-09-22T07:16:57Z</time>
      </trkpt>
      <trkpt lat="49.25123" lon="0.03812">
        <ele>99.2</ele>
        <time>2024-09-22T07:16:58Z</time>
      </trkpt>
      <trkpt lat="49.25123" lon="0.03818">
        <ele>99.4</ele>
        <time>2024-09-22T07:16:59Z</time>
      </trkpt>
      <trkpt lat="49.25124" lon="0.03823">
        <ele>99.6</ele>
        <time>2024-09-22T07:17:00Z</time>
      </trkpt>
      <trkpt lat="49.25124" lon="0.03827">
        <ele>100</ele>
        <time>2024-09-22T07:17:01Z</time>
      </trkpt>
      <trkpt lat="49.25124" lon="0.03833">
        <ele>100</ele>
        <time>2024-09-22T07:17:02Z</time>
      </trkpt>
      <trkpt lat="49.25125" lon="0.03838">
        <ele>100.4</ele>
        <time>2024-09-22T07:17:03Z</time>
      </trkpt>
      <trkpt lat="49.25125" lon="0.03844">
        <ele>100.6</ele>
        <time>2024-09-22T07:17:04Z</time>
      </trkpt>
      <trkpt lat="49.25125" lon="0.03849">
        <ele>100.8</ele>
        <time>2024-09-22T07:17:05Z</time>
      </trkpt>
      <trkpt lat="49.25126" lon="0.03854">
        <ele>101.2</ele>
        <time>2024-09-22T07:17:06Z</time>
      </trkpt>
      <trkpt lat="49.25126" lon="0.0386">
        <ele>101.4</ele>
        <time>2024-09-22T07:17:07Z</time>
      </trkpt>
      <trkpt lat="49.25127" lon="0.03865">
        <ele>101.6</ele>
        <time>2024-09-22T07:17:08Z</time>
      </trkpt>
      <trkpt lat="49.25127" lon="0.0387">
        <ele>101.8</ele>
        <time>2024-09-22T07:17:09Z</time>
      </trkpt>
      <trkpt lat="49.25128" lon="0.03875">
        <ele>102</ele>
        <time>2024-09-22T07:17:10Z</time>
      </trkpt>
      <trkpt lat="49.25128" lon="0.0388">
        <ele>102.2</ele>
        <time>2024-09-22T07:17:11Z</time>
      </trkpt>
      <trkpt lat="49.25129" lon="0.03885">
        <ele>102.4</ele>
        <time>2024-09-22T07:17:12Z</time>
      </trkpt>
      <trkpt lat="49.2513" lon="0.03891">
        <ele>102.8</ele>
        <time>2024-09-22T07:17:13Z</time>
      </trkpt>
      <trkpt lat="49.25131" lon="0.03897">
        <ele>103</ele>
        <time>2024-09-22T07:17:14Z</time>
      </trkpt>
      <trkpt lat="49.25131" lon="0.03902">
        <ele>103.2</ele>
        <time>2024-09-22T07:17:15Z</time>
      </trkpt>
      <trkpt lat="49.25131" lon="0.03906">
        <ele>103.6</ele>
        <time>2024-09-22T07:17:16Z</time>
      </trkpt>
      <trkpt lat="49.25132" lon="0.03912">
        <ele>103.8</ele>
        <time>2024-09-22T07:17:17Z</time>
      </trkpt>
      <trkpt lat="49.25133" lon="0.03917">
        <ele>103.8</ele>
        <time>2024-09-22T07:17:18Z</time>
      </trkpt>
      <trkpt lat="49.25134" lon="0.03922">
        <ele>104</ele>
        <time>2024-09-22T07:17:19Z</time>
      </trkpt>
      <trkpt lat="49.25135" lon="0.03928">
        <ele>104.2</ele>
        <time>2024-09-22T07:17:20Z</time>
      </trkpt>
      <trkpt lat="49.25136" lon="0.03933">
        <ele>104.4</ele>
        <time>2024-09-22T07:17:21Z</time>
      </trkpt>
      <trkpt lat="49.25137" lon="0.03938">
        <ele>104.6</ele>
        <time>2024-09-22T07:17:22Z</time>
      </trkpt>
      <trkpt lat="49.25138" lon="0.03944">
        <ele>105</ele>
        <time>2024-09-22T07:17:23Z</time>
      </trkpt>
      <trkpt lat="49.25139" lon="0.03949">
        <ele>105.2</ele>
        <time>2024-09-22T07:17:24Z</time>
      </trkpt>
      <trkpt lat="49.2514" lon="0.03954">
        <ele>105.4</ele>
        <time>2024-09-22T07:17:25Z</time>
      </trkpt>
      <trkpt lat="49.25141" lon="0.0396">
        <ele>105.8</ele>
        <time>2024-09-22T07:17:26Z</time>
      </trkpt>
      <trkpt lat="49.25143" lon="0.03965">
        <ele>106</ele>
        <time>2024-09-22T07:17:27Z</time>
      </trkpt>
      <trkpt lat="49.25144" lon="0.03969">
        <ele>106.2</ele>
        <time>2024-09-22T07:17:28Z</time>
      </trkpt>
      <trkpt lat="49.25146" lon="0.03976">
        <ele>106.6</ele>
        <time>2024-09-22T07:17:29Z</time>
      </trkpt>
      <trkpt lat="49.25148" lon="0.03982">
        <ele>106.8</ele>
        <time>2024-09-22T07:17:30Z</time>
      </trkpt>
      <trkpt lat="49.2515" lon="0.03986">
        <ele>107.2</ele>
        <time>2024-09-22T07:17:31Z</time>
      </trkpt>
      <trkpt lat="49.25152" lon="0.03991">
        <ele>107.4</ele>
        <time>2024-09-22T07:17:32Z</time>
      </trkpt>
      <trkpt lat="49.25154" lon="0.03997">
        <ele>107.6</ele>
        <time>2024-09-22T07:17:33Z</time>
      </trkpt>
      <trkpt lat="49.25156" lon="0.04002">
        <ele>107.8</ele>
        <time>2024-09-22T07:17:34Z</time>
      </trkpt>
      <trkpt lat="49.25158" lon="0.04006">
        <ele>108</ele>
        <time>2024-09-22T07:17:35Z</time>
      </trkpt>
      <trkpt lat="49.25161" lon="0.04012">
        <ele>108.2</ele>
        <time>2024-09-22T07:17:36Z</time>
      </trkpt>
      <trkpt lat="49.25162" lon="0.04016">
        <ele>108.4</ele>
        <time>2024-09-22T07:17:37Z</time>
      </trkpt>
      <trkpt lat="49.25165" lon="0.04022">
        <ele>108.4</ele>
        <time>2024-09-22T07:17:38Z</time>
      </trkpt>
      <trkpt lat="49.25167" lon="0.04028">
        <ele>108.6</ele>
        <time>2024-09-22T07:17:39Z</time>
      </trkpt>
      <trkpt lat="49.25169" lon="0.04032">
        <ele>108.6</ele>
        <time>2024-09-22T07:17:40Z</time>
      </trkpt>
      <trkpt lat="49.25172" lon="0.04039">
        <ele>108.8</ele>
        <time>2024-09-22T07:17:41Z</time>
      </trkpt>
      <trkpt lat="49.25174" lon="0.04045">
        <ele>108.8</ele>
        <time>2024-09-22T07:17:42Z</time>
      </trkpt>
      <trkpt lat="49.25176" lon="0.04049">
        <ele>109</ele>
        <time>2024-09-22T07:17:43Z</time>
      </trkpt>
      <trkpt lat="49.25179" lon="0.04057">
        <ele>109.2</ele>
        <time>2024-09-22T07:17:44Z</time>
      </trkpt>
      <trkpt lat="49.25181" lon="0.04063">
        <ele>109.4</ele>
        <time>2024-09-22T07:17:45Z</time>
      </trkpt>
      <trkpt lat="49.25183" lon="0.04068">
        <ele>109.6</ele>
        <time>2024-09-22T07:17:46Z</time>
      </trkpt>
      <trkpt lat="49.25186" lon="0.04075">
        <ele>109.8</ele>
        <time>2024-09-22T07:17:47Z</time>
      </trkpt>
      <trkpt lat="49.25188" lon="0.04082">
        <ele>110.2</ele>
        <time>2024-09-22T07:17:48Z</time>
      </trkpt>
      <trkpt lat="49.2519" lon="0.04087">
        <ele>110.4</ele>
        <time>2024-09-22T07:17:49Z</time>
      </trkpt>
      <trkpt lat="49.25193" lon="0.04094">
        <ele>110.4</ele>
        <time>2024-09-22T07:17:50Z</time>
      </trkpt>
      <trkpt lat="49.25194" lon="0.04099">
        <ele>110.6</ele>
        <time>2024-09-22T07:17:51Z</time>
      </trkpt>
      <trkpt lat="49.25197" lon="0.04105">
        <ele>110.6</ele>
        <time>2024-09-22T07:17:52Z</time>
      </trkpt>
      <trkpt lat="49.25199" lon="0.04112">
        <ele>110.8</ele>
        <time>2024-09-22T07:17:53Z</time>
      </trkpt>
      <trkpt lat="49.25201" lon="0.04118">
        <ele>110.8</ele>
        <time>2024-09-22T07:17:54Z</time>
      </trkpt>
      <trkpt lat="49.25203" lon="0.04124">
        <ele>111</ele>
        <time>2024-09-22T07:17:55Z</time>
      </trkpt>
      <trkpt lat="49.25206" lon="0.0413">
        <ele>111</ele>
        <time>2024-09-22T07:17:56Z</time>
      </trkpt>
      <trkpt lat="49.25209" lon="0.04136">
        <ele>111.2</ele>
        <time>2024-09-22T07:17:57Z</time>
      </trkpt>
      <trkpt lat="49.25211" lon="0.04141">
        <ele>111.2</ele>
        <time>2024-09-22T07:17:58Z</time>
      </trkpt>
      <trkpt lat="49.25213" lon="0.04147">
        <ele>111.2</ele>
        <time>2024-09-22T07:17:59Z</time>
      </trkpt>
      <trkpt lat="49.25216" lon="0.04154">
        <ele>111.4</ele>
        <time>2024-09-22T07:18:00Z</time>
      </trkpt>
      <trkpt lat="49.25218" lon="0.04159">
        <ele>111.6</ele>
        <time>2024-09-22T07:18:01Z</time>
      </trkpt>
      <trkpt lat="49.2522" lon="0.04165">
        <ele>111.8</ele>
        <time>2024-09-22T07:18:02Z</time>
      </trkpt>
      <trkpt lat="49.25223" lon="0.04172">
        <ele>112</ele>
        <time>2024-09-22T07:18:03Z</time>
      </trkpt>
      <trkpt lat="49.25225" lon="0.04177">
        <ele>112</ele>
        <time>2024-09-22T07:18:04Z</time>
      </trkpt>
      <trkpt lat="49.25228" lon="0.04184">
        <ele>112.2</ele>
        <time>2024-09-22T07:18:05Z</time>
      </trkpt>
      <trkpt lat="49.2523" lon="0.0419">
        <ele>112.4</ele>
        <time>2024-09-22T07:18:06Z</time>
      </trkpt>
      <trkpt lat="49.25232" lon="0.04195">
        <ele>112.8</ele>
        <time>2024-09-22T07:18:07Z</time>
      </trkpt>
      <trkpt lat="49.25235" lon="0.04202">
        <ele>113</ele>
        <time>2024-09-22T07:18:08Z</time>
      </trkpt>
      <trkpt lat="49.25237" lon="0.04208">
        <ele>113.2</ele>
        <time>2024-09-22T07:18:09Z</time>
      </trkpt>
      <trkpt lat="49.25239" lon="0.04213">
        <ele>113.2</ele>
        <time>2024-09-22T07:18:10Z</time>
      </trkpt>
      <trkpt lat="49.25242" lon="0.04219">
        <ele>113.4</ele>
        <time>2024-09-22T07:18:11Z</time>
      </trkpt>
      <trkpt lat="49.25244" lon="0.04226">
        <ele>113.6</ele>
        <time>2024-09-22T07:18:12Z</time>
      </trkpt>
      <trkpt lat="49.25247" lon="0.04232">
        <ele>113.8</ele>
        <time>2024-09-22T07:18:13Z</time>
      </trkpt>
      <trkpt lat="49.25249" lon="0.04239">
        <ele>114</ele>
        <time>2024-09-22T07:18:14Z</time>
      </trkpt>
      <trkpt lat="49.25251" lon="0.04245">
        <ele>114.2</ele>
        <time>2024-09-22T07:18:15Z</time>
      </trkpt>
      <trkpt lat="49.25254" lon="0.04252">
        <ele>114.4</ele>
        <time>2024-09-22T07:18:16Z</time>
      </trkpt>
      <trkpt lat="49.25256" lon="0.04258">
        <ele>114.4</ele>
        <time>2024-09-22T07:18:17Z</time>
      </trkpt>
      <trkpt lat="49.25258" lon="0.04265">
        <ele>114.6</ele>
        <time>2024-09-22T07:18:18Z</time>
      </trkpt>
      <trkpt lat="49.25261" lon="0.04271">
        <ele>115</ele>
        <time>2024-09-22T07:18:19Z</time>
      </trkpt>
      <trkpt lat="49.25264" lon="0.04278">
        <ele>115.2</ele>
        <time>2024-09-22T07:18:20Z</time>
      </trkpt>
      <trkpt lat="49.25266" lon="0.04284">
        <ele>115.4</ele>
        <time>2024-09-22T07:18:21Z</time>
      </trkpt>
      <trkpt lat="49.25268" lon="0.0429">
        <ele>115.6</ele>
        <time>2024-09-22T07:18:22Z</time>
      </trkpt>
      <trkpt lat="49.2527" lon="0.04298">
        <ele>115.8</ele>
        <time>2024-09-22T07:18:23Z</time>
      </trkpt>
      <trkpt lat="49.25273" lon="0.04305">
        <ele>115.8</ele>
        <time>2024-09-22T07:18:24Z</time>
      </trkpt>
      <trkpt lat="49.25274" lon="0.0431">
        <ele>116</ele>
        <time>2024-09-22T07:18:25Z</time>
      </trkpt>
      <trkpt lat="49.25277" lon="0.04318">
        <ele>116</ele>
        <time>2024-09-22T07:18:26Z</time>
      </trkpt>
      <trkpt lat="49.25278" lon="0.04324">
        <ele>116</ele>
        <time>2024-09-22T07:18:27Z</time>
      </trkpt>
      <trkpt lat="49.2528" lon="0.0433">
        <ele>116.2</ele>
        <time>2024-09-22T07:18:28Z</time>
      </trkpt>
      <trkpt lat="49.25283" lon="0.04338">
        <ele>116.2</ele>
        <time>2024-09-22T07:18:29Z</time>
      </trkpt>
      <trkpt lat="49.25285" lon="0.04344">
        <ele>116.4</ele>
        <time>2024-09-22T07:18:30Z</time>
      </trkpt>
      <trkpt lat="49.25287" lon="0.04351">
        <ele>116.8</ele>
        <time>2024-09-22T07:18:31Z</time>
      </trkpt>
      <trkpt lat="49.2529" lon="0.0436">
        <ele>117</ele>
        <time>2024-09-22T07:18:32Z</time>
      </trkpt>
      <trkpt lat="49.25292" lon="0.04367">
        <ele>117.2</ele>
        <time>2024-09-22T07:18:33Z</time>
      </trkpt>
      <trkpt lat="49.25293" lon="0.04372">
        <ele>117.2</ele>
        <time>2024-09-22T07:18:34Z</time>
      </trkpt>
      <trkpt lat="49.25295" lon="0.0438">
        <ele>117.4</ele>
        <time>2024-09-22T07:18:35Z</time>
      </trkpt>
      <trkpt lat="49.25298" lon="0.04387">
        <ele>117.6</ele>
        <time>2024-09-22T07:18:36Z</time>
      </trkpt>
      <trkpt lat="49.253" lon="0.04393">
        <ele>117.6</ele>
        <time>2024-09-22T07:18:37Z</time>
      </trkpt>
      <trkpt lat="49.25301" lon="0.04401">
        <ele>117.8</ele>
        <time>2024-09-22T07:18:38Z</time>
      </trkpt>
      <trkpt lat="49.25304" lon="0.04409">
        <ele>118</ele>
        <time>2024-09-22T07:18:39Z</time>
      </trkpt>
      <trkpt lat="49.25306" lon="0.04415">
        <ele>118.2</ele>
        <time>2024-09-22T07:18:40Z</time>
      </trkpt>
      <trkpt lat="49.25307" lon="0.04423">
        <ele>118.2</ele>
        <time>2024-09-22T07:18:41Z</time>
      </trkpt>
      <trkpt lat="49.2531" lon="0.04432">
        <ele>118.4</ele>
        <time>2024-09-22T07:18:42Z</time>
      </trkpt>
      <trkpt lat="49.25312" lon="0.04438">
        <ele>118.4</ele>
        <time>2024-09-22T07:18:43Z</time>
      </trkpt>
      <trkpt lat="49.25314" lon="0.04446">
        <ele>118.8</ele>
        <time>2024-09-22T07:18:44Z</time>
      </trkpt>
      <trkpt lat="49.25317" lon="0.04455">
        <ele>119</ele>
        <time>2024-09-22T07:18:45Z</time>
      </trkpt>
      <trkpt lat="49.25318" lon="0.04462">
        <ele>119</ele>
        <time>2024-09-22T07:18:46Z</time>
      </trkpt>
      <trkpt lat="49.25321" lon="0.04471">
        <ele>119.2</ele>
        <time>2024-09-22T07:18:47Z</time>
      </trkpt>
      <trkpt lat="49.25323" lon="0.04479">
        <ele>119.4</ele>
        <time>2024-09-22T07:18:48Z</time>
      </trkpt>
      <trkpt lat="49.25324" lon="0.04486">
        <ele>119.4</ele>
        <time>2024-09-22T07:18:49Z</time>
      </trkpt>
      <trkpt lat="49.25327" lon="0.04495">
        <ele>119.6</ele>
        <time>2024-09-22T07:18:50Z</time>
      </trkpt>
      <trkpt lat="49.25329" lon="0.04503">
        <ele>119.6</ele>
        <time>2024-09-22T07:18:51Z</time>
      </trkpt>
      <trkpt lat="49.25331" lon="0.0451">
        <ele>119.6</ele>
        <time>2024-09-22T07:18:52Z</time>
      </trkpt>
      <trkpt lat="49.25334" lon="0.0452">
        <ele>119.8</ele>
        <time>2024-09-22T07:18:53Z</time>
      </trkpt>
      <trkpt lat="49.25336" lon="0.04528">
        <ele>120</ele>
        <time>2024-09-22T07:18:54Z</time>
      </trkpt>
      <trkpt lat="49.25338" lon="0.04535">
        <ele>120.2</ele>
        <time>2024-09-22T07:18:55Z</time>
      </trkpt>
      <trkpt lat="49.25341" lon="0.04543">
        <ele>120.2</ele>
        <time>2024-09-22T07:18:56Z</time>
      </trkpt>
      <trkpt lat="49.25343" lon="0.04552">
        <ele>120.2</ele>
        <time>2024-09-22T07:18:57Z</time>
      </trkpt>
      <trkpt lat="49.25346" lon="0.0456">
        <ele>120.4</ele>
        <time>2024-09-22T07:18:58Z</time>
      </trkpt>
      <trkpt lat="49.25348" lon="0.04569">
        <ele>120.6</ele>
        <time>2024-09-22T07:18:59Z</time>
      </trkpt>
      <trkpt lat="49.25351" lon="0.04579">
        <ele>120.6</ele>
        <time>2024-09-22T07:19:00Z</time>
      </trkpt>
      <trkpt lat="49.25353" lon="0.04586">
        <ele>120.8</ele>
        <time>2024-09-22T07:19:01Z</time>
      </trkpt>
      <trkpt lat="49.25357" lon="0.04596">
        <ele>120.8</ele>
        <time>2024-09-22T07:19:02Z</time>
      </trkpt>
      <trkpt lat="49.25359" lon="0.04605">
        <ele>120.8</ele>
        <time>2024-09-22T07:19:03Z</time>
      </trkpt>
      <trkpt lat="49.25361" lon="0.04612">
        <ele>120.8</ele>
        <time>2024-09-22T07:19:04Z</time>
      </trkpt>
      <trkpt lat="49.25364" lon="0.04623">
        <ele>121</ele>
        <time>2024-09-22T07:19:05Z</time>
      </trkpt>
      <trkpt lat="49.25366" lon="0.04631">
        <ele>121</ele>
        <time>2024-09-22T07:19:06Z</time>
      </trkpt>
      <trkpt lat="49.25368" lon="0.04638">
        <ele>121.2</ele>
        <time>2024-09-22T07:19:07Z</time>
      </trkpt>
      <trkpt lat="49.25371" lon="0.04649">
        <ele>121.2</ele>
        <time>2024-09-22T07:19:08Z</time>
      </trkpt>
      <trkpt lat="49.25373" lon="0.04657">
        <ele>121.2</ele>
        <time>2024-09-22T07:19:09Z</time>
      </trkpt>
      <trkpt lat="49.25375" lon="0.04664">
        <ele>121.2</ele>
        <time>2024-09-22T07:19:10Z</time>
      </trkpt>
      <trkpt lat="49.25378" lon="0.04673">
        <ele>121.2</ele>
        <time>2024-09-22T07:19:11Z</time>
      </trkpt>
      <trkpt lat="49.2538" lon="0.04684">
        <ele>121.4</ele>
        <time>2024-09-22T07:19:12Z</time>
      </trkpt>
      <trkpt lat="49.25382" lon="0.0469">
        <ele>121.4</ele>
        <time>2024-09-22T07:19:13Z</time>
      </trkpt>
      <trkpt lat="49.25385" lon="0.04701">
        <ele>121.4</ele>
        <time>2024-09-22T07:19:14Z</time>
      </trkpt>
      <trkpt lat="49.25388" lon="0.04709">
        <ele>121.6</ele>
        <time>2024-09-22T07:19:15Z</time>
      </trkpt>
      <trkpt lat="49.2539" lon="0.04716">
        <ele>121.6</ele>
        <time>2024-09-22T07:19:16Z</time>
      </trkpt>
      <trkpt lat="49.25393" lon="0.04727">
        <ele>121.6</ele>
        <time>2024-09-22T07:19:17Z</time>
      </trkpt>
      <trkpt lat="49.25395" lon="0.04734">
        <ele>121.6</ele>
        <time>2024-09-22T07:19:18Z</time>
      </trkpt>
      <trkpt lat="49.25398" lon="0.04743">
        <ele>121.8</ele>
        <time>2024-09-22T07:19:19Z</time>
      </trkpt>
      <trkpt lat="49.254" lon="0.04751">
        <ele>121.8</ele>
        <time>2024-09-22T07:19:20Z</time>
      </trkpt>
      <trkpt lat="49.25403" lon="0.0476">
        <ele>121.8</ele>
        <time>2024-09-22T07:19:21Z</time>
      </trkpt>
      <trkpt lat="49.25405" lon="0.04768">
        <ele>121.8</ele>
        <time>2024-09-22T07:19:22Z</time>
      </trkpt>
      <trkpt lat="49.25408" lon="0.04779">
        <ele>122</ele>
        <time>2024-09-22T07:19:23Z</time>
      </trkpt>
      <trkpt lat="49.2541" lon="0.04787">
        <ele>122</ele>
        <time>2024-09-22T07:19:24Z</time>
      </trkpt>
      <trkpt lat="49.25413" lon="0.04796">
        <ele>122.2</ele>
        <time>2024-09-22T07:19:25Z</time>
      </trkpt>
      <trkpt lat="49.25415" lon="0.04804">
        <ele>122.4</ele>
        <time>2024-09-22T07:19:26Z</time>
      </trkpt>
      <trkpt lat="49.25418" lon="0.04813">
        <ele>122.8</ele>
        <time>2024-09-22T07:19:27Z</time>
      </trkpt>
      <trkpt lat="49.2542" lon="0.0482">
        <ele>123</ele>
        <time>2024-09-22T07:19:28Z</time>
      </trkpt>
      <trkpt lat="49.25423" lon="0.04831">
        <ele>123.2</ele>
        <time>2024-09-22T07:19:29Z</time>
      </trkpt>
      <trkpt lat="49.25426" lon="0.04839">
        <ele>123.2</ele>
        <time>2024-09-22T07:19:30Z</time>
      </trkpt>
      <trkpt lat="49.25428" lon="0.04846">
        <ele>123.2</ele>
        <time>2024-09-22T07:19:31Z</time>
      </trkpt>
      <trkpt lat="49.2543" lon="0.04857">
        <ele>123.4</ele>
        <time>2024-09-22T07:19:32Z</time>
      </trkpt>
      <trkpt lat="49.25432" lon="0.04866">
        <ele>123.4</ele>
        <time>2024-09-22T07:19:33Z</time>
      </trkpt>
      <trkpt lat="49.25434" lon="0.04875">
        <ele>123.4</ele>
        <time>2024-09-22T07:19:34Z</time>
      </trkpt>
      <trkpt lat="49.25436" lon="0.04884">
        <ele>123.6</ele>
        <time>2024-09-22T07:19:35Z</time>
      </trkpt>
      <trkpt lat="49.25437" lon="0.04893">
        <ele>123.8</ele>
        <time>2024-09-22T07:19:36Z</time>
      </trkpt>
      <trkpt lat="49.25439" lon="0.049">
        <ele>123.8</ele>
        <time>2024-09-22T07:19:37Z</time>
      </trkpt>
      <trkpt lat="49.25441" lon="0.04911">
        <ele>123.8</ele>
        <time>2024-09-22T07:19:38Z</time>
      </trkpt>
      <trkpt lat="49.25443" lon="0.04921">
        <ele>123.8</ele>
        <time>2024-09-22T07:19:39Z</time>
      </trkpt>
      <trkpt lat="49.25445" lon="0.04929">
        <ele>124</ele>
        <time>2024-09-22T07:19:40Z</time>
      </trkpt>
      <trkpt lat="49.25447" lon="0.04939">
        <ele>124.2</ele>
        <time>2024-09-22T07:19:41Z</time>
      </trkpt>
      <trkpt lat="49.25449" lon="0.04948">
        <ele>124.2</ele>
        <time>2024-09-22T07:19:42Z</time>
      </trkpt>
      <trkpt lat="49.2545" lon="0.04958">
        <ele>124.6</ele>
        <time>2024-09-22T07:19:43Z</time>
      </trkpt>
      <trkpt lat="49.25452" lon="0.0497">
        <ele>124.6</ele>
        <time>2024-09-22T07:19:44Z</time>
      </trkpt>
      <trkpt lat="49.25453" lon="0.04979">
        <ele>124.6</ele>
        <time>2024-09-22T07:19:45Z</time>
      </trkpt>
      <trkpt lat="49.25454" lon="0.04987">
        <ele>124.6</ele>
        <time>2024-09-22T07:19:46Z</time>
      </trkpt>
      <trkpt lat="49.25455" lon="0.04998">
        <ele>124.8</ele>
        <time>2024-09-22T07:19:47Z</time>
      </trkpt>
      <trkpt lat="49.25456" lon="0.05007">
        <ele>124.8</ele>
        <time>2024-09-22T07:19:48Z</time>
      </trkpt>
      <trkpt lat="49.25457" lon="0.05015">
        <ele>124.8</ele>
        <time>2024-09-22T07:19:49Z</time>
      </trkpt>
      <trkpt lat="49.25458" lon="0.05026">
        <ele>124.8</ele>
        <time>2024-09-22T07:19:50Z</time>
      </trkpt>
      <trkpt lat="49.25459" lon="0.05035">
        <ele>124.8</ele>
        <time>2024-09-22T07:19:51Z</time>
      </trkpt>
      <trkpt lat="49.25459" lon="0.05042">
        <ele>125.2</ele>
        <time>2024-09-22T07:19:52Z</time>
      </trkpt>
      <trkpt lat="49.2546" lon="0.05053">
        <ele>125.2</ele>
        <time>2024-09-22T07:19:53Z</time>
      </trkpt>
      <trkpt lat="49.25461" lon="0.05062">
        <ele>125.4</ele>
        <time>2024-09-22T07:19:54Z</time>
      </trkpt>
      <trkpt lat="49.25462" lon="0.05069">
        <ele>125.4</ele>
        <time>2024-09-22T07:19:55Z</time>
      </trkpt>
      <trkpt lat="49.25463" lon="0.05081">
        <ele>125.6</ele>
        <time>2024-09-22T07:19:56Z</time>
      </trkpt>
      <trkpt lat="49.25464" lon="0.0509">
        <ele>125.6</ele>
        <time>2024-09-22T07:19:57Z</time>
      </trkpt>
      <trkpt lat="49.25464" lon="0.05097">
        <ele>125.6</ele>
        <time>2024-09-22T07:19:58Z</time>
      </trkpt>
      <trkpt lat="49.25465" lon="0.05108">
        <ele>125.8</ele>
        <time>2024-09-22T07:19:59Z</time>
      </trkpt>
      <trkpt lat="49.25466" lon="0.05115">
        <ele>126</ele>
        <time>2024-09-22T07:20:00Z</time>
      </trkpt>
      <trkpt lat="49.25467" lon="0.05124">
        <ele>126.2</ele>
        <time>2024-09-22T07:20:01Z</time>
      </trkpt>
      <trkpt lat="49.25468" lon="0.05133">
        <ele>126.2</ele>
        <time>2024-09-22T07:20:02Z</time>
      </trkpt>
      <trkpt lat="49.25469" lon="0.05144">
        <ele>126.4</ele>
        <time>2024-09-22T07:20:03Z</time>
      </trkpt>
      <trkpt lat="49.25469" lon="0.05151">
        <ele>126.4</ele>
        <time>2024-09-22T07:20:04Z</time>
      </trkpt>
      <trkpt lat="49.2547" lon="0.0516">
        <ele>126.6</ele>
        <time>2024-09-22T07:20:05Z</time>
      </trkpt>
      <trkpt lat="49.25471" lon="0.05168">
        <ele>126.8</ele>
        <time>2024-09-22T07:20:06Z</time>
      </trkpt>
      <trkpt lat="49.25472" lon="0.05177">
        <ele>127</ele>
        <time>2024-09-22T07:20:07Z</time>
      </trkpt>
      <trkpt lat="49.25473" lon="0.05188">
        <ele>127</ele>
        <time>2024-09-22T07:20:08Z</time>
      </trkpt>
      <trkpt lat="49.25474" lon="0.05197">
        <ele>127.2</ele>
        <time>2024-09-22T07:20:09Z</time>
      </trkpt>
      <trkpt lat="49.25475" lon="0.05204">
        <ele>127.2</ele>
        <time>2024-09-22T07:20:10Z</time>
      </trkpt>
      <trkpt lat="49.25476" lon="0.05214">
        <ele>127.4</ele>
        <time>2024-09-22T07:20:11Z</time>
      </trkpt>
      <trkpt lat="49.25477" lon="0.05223">
        <ele>127.6</ele>
        <time>2024-09-22T07:20:12Z</time>
      </trkpt>
      <trkpt lat="49.25478" lon="0.05231">
        <ele>127.6</ele>
        <time>2024-09-22T07:20:13Z</time>
      </trkpt>
      <trkpt lat="49.25478" lon="0.0524">
        <ele>127.8</ele>
        <time>2024-09-22T07:20:14Z</time>
      </trkpt>
      <trkpt lat="49.25479" lon="0.05248">
        <ele>128</ele>
        <time>2024-09-22T07:20:15Z</time>
      </trkpt>
      <trkpt lat="49.25479" lon="0.05255">
        <ele>128.4</ele>
        <time>2024-09-22T07:20:16Z</time>
      </trkpt>
      <trkpt lat="49.2548" lon="0.05266">
        <ele>128.4</ele>
        <time>2024-09-22T07:20:17Z</time>
      </trkpt>
      <trkpt lat="49.25481" lon="0.05274">
        <ele>128.4</ele>
        <time>2024-09-22T07:20:18Z</time>
      </trkpt>
      <trkpt lat="49.25482" lon="0.05281">
        <ele>128.6</ele>
        <time>2024-09-22T07:20:19Z</time>
      </trkpt>
      <trkpt lat="49.25483" lon="0.05289">
        <ele>128.6</ele>
        <time>2024-09-22T07:20:20Z</time>
      </trkpt>
      <trkpt lat="49.25483" lon="0.05299">
        <ele>128.8</ele>
        <time>2024-09-22T07:20:21Z</time>
      </trkpt>
      <trkpt lat="49.25484" lon="0.05305">
        <ele>129</ele>
        <time>2024-09-22T07:20:22Z</time>
      </trkpt>
      <trkpt lat="49.25485" lon="0.05313">
        <ele>129.2</ele>
        <time>2024-09-22T07:20:23Z</time>
      </trkpt>
      <trkpt lat="49.25485" lon="0.05322">
        <ele>129.4</ele>
        <time>2024-09-22T07:20:24Z</time>
      </trkpt>
      <trkpt lat="49.25486" lon="0.0533">
        <ele>129.6</ele>
        <time>2024-09-22T07:20:25Z</time>
      </trkpt>
      <trkpt lat="49.25487" lon="0.0534">
        <ele>129.6</ele>
        <time>2024-09-22T07:20:26Z</time>
      </trkpt>
      <trkpt lat="49.25488" lon="0.05349">
        <ele>129.8</ele>
        <time>2024-09-22T07:20:27Z</time>
      </trkpt>
      <trkpt lat="49.25489" lon="0.05356">
        <ele>130</ele>
        <time>2024-09-22T07:20:28Z</time>
      </trkpt>
      <trkpt lat="49.2549" lon="0.05366">
        <ele>130.2</ele>
        <time>2024-09-22T07:20:29Z</time>
      </trkpt>
      <trkpt lat="49.2549" lon="0.05374">
        <ele>130.4</ele>
        <time>2024-09-22T07:20:30Z</time>
      </trkpt>
      <trkpt lat="49.25491" lon="0.05381">
        <ele>130.6</ele>
        <time>2024-09-22T07:20:31Z</time>
      </trkpt>
      <trkpt lat="49.25492" lon="0.0539">
        <ele>130.8</ele>
        <time>2024-09-22T07:20:32Z</time>
      </trkpt>
      <trkpt lat="49.25493" lon="0.054">
        <ele>130.8</ele>
        <time>2024-09-22T07:20:33Z</time>
      </trkpt>
      <trkpt lat="49.25493" lon="0.05406">
        <ele>131</ele>
        <time>2024-09-22T07:20:34Z</time>
      </trkpt>
      <trkpt lat="49.25494" lon="0.05414">
        <ele>131.2</ele>
        <time>2024-09-22T07:20:35Z</time>
      </trkpt>
      <trkpt lat="49.25495" lon="0.05422">
        <ele>131.2</ele>
        <time>2024-09-22T07:20:36Z</time>
      </trkpt>
      <trkpt lat="49.25495" lon="0.05429">
        <ele>131.4</ele>
        <time>2024-09-22T07:20:37Z</time>
      </trkpt>
      <trkpt lat="49.25496" lon="0.05436">
        <ele>131.6</ele>
        <time>2024-09-22T07:20:38Z</time>
      </trkpt>
      <trkpt lat="49.25496" lon="0.05444">
        <ele>131.8</ele>
        <time>2024-09-22T07:20:39Z</time>
      </trkpt>
      <trkpt lat="49.25496" lon="0.05449">
        <ele>132</ele>
        <time>2024-09-22T07:20:40Z</time>
      </trkpt>
      <trkpt lat="49.25497" lon="0.05455">
        <ele>132.2</ele>
        <time>2024-09-22T07:20:41Z</time>
      </trkpt>
      <trkpt lat="49.25498" lon="0.05461">
        <ele>132.4</ele>
        <time>2024-09-22T07:20:42Z</time>
      </trkpt>
      <trkpt lat="49.25498" lon="0.05466">
        <ele>132.8</ele>
        <time>2024-09-22T07:20:43Z</time>
      </trkpt>
      <trkpt lat="49.25498" lon="0.05471">
        <ele>132.8</ele>
        <time>2024-09-22T07:20:44Z</time>
      </trkpt>
      <trkpt lat="49.25498" lon="0.05475">
        <ele>133</ele>
        <time>2024-09-22T07:20:45Z</time>
      </trkpt>
      <trkpt lat="49.25497" lon="0.05479">
        <ele>133.4</ele>
        <time>2024-09-22T07:20:46Z</time>
      </trkpt>
      <trkpt lat="49.25495" lon="0.05483">
        <ele>133.6</ele>
        <time>2024-09-22T07:20:47Z</time>
      </trkpt>
      <trkpt lat="49.25495" lon="0.05485">
        <ele>133.8</ele>
        <time>2024-09-22T07:20:48Z</time>
      </trkpt>
      <trkpt lat="49.25496" lon="0.05486">
        <ele>134</ele>
        <time>2024-09-22T07:20:49Z</time>
      </trkpt>
      <trkpt lat="49.25496" lon="0.05486">
        <ele>134</ele>
        <time>2024-09-22T07:20:50Z</time>
      </trkpt>
      <trkpt lat="49.25497" lon="0.05492">
        <ele>134.8</ele>
        <time>2024-09-22T07:21:08Z</time>
      </trkpt>
      <trkpt lat="49.25498" lon="0.05495">
        <ele>134.8</ele>
        <time>2024-09-22T07:21:09Z</time>
      </trkpt>
      <trkpt lat="49.25498" lon="0.05497">
        <ele>134.8</ele>
        <time>2024-09-22T07:21:10Z</time>
      </trkpt>
      <trkpt lat="49.25499" lon="0.055">
        <ele>134.8</ele>
        <time>2024-09-22T07:21:11Z</time>
      </trkpt>
      <trkpt lat="49.255" lon="0.05503">
        <ele>134.8</ele>
        <time>2024-09-22T07:21:12Z</time>
      </trkpt>
      <trkpt lat="49.25501" lon="0.05507">
        <ele>134.8</ele>
        <time>2024-09-22T07:21:13Z</time>
      </trkpt>
      <trkpt lat="49.25502" lon="0.05511">
        <ele>134.8</ele>
        <time>2024-09-22T07:21:14Z</time>
      </trkpt>
      <trkpt lat="49.25502" lon="0.05516">
        <ele>134.8</ele>
        <time>2024-09-22T07:21:15Z</time>
      </trkpt>
      <trkpt lat="49.25502" lon="0.05519">
        <ele>134.8</ele>
        <time>2024-09-22T07:21:16Z</time>
      </trkpt>
      <trkpt lat="49.25502" lon="0.05523">
        <ele>134.8</ele>
        <time>2024-09-22T07:21:17Z</time>
      </trkpt>
      <trkpt lat="49.25502" lon="0.05527">
        <ele>135</ele>
        <time>2024-09-22T07:21:18Z</time>
      </trkpt>
      <trkpt lat="49.25503" lon="0.05529">
        <ele>135</ele>
        <time>2024-09-22T07:21:19Z</time>
      </trkpt>
      <trkpt lat="49.25503" lon="0.05533">
        <ele>135</ele>
        <time>2024-09-22T07:21:20Z</time>
      </trkpt>
      <trkpt lat="49.25503" lon="0.05536">
        <ele>135</ele>
        <time>2024-09-22T07:21:21Z</time>
      </trkpt>
      <trkpt lat="49.25503" lon="0.05539">
        <ele>135.2</ele>
        <time>2024-09-22T07:21:22Z</time>
      </trkpt>
      <trkpt lat="49.25503" lon="0.05543">
        <ele>135.2</ele>
        <time>2024-09-22T07:21:23Z</time>
      </trkpt>
      <trkpt lat="49.25502" lon="0.05547">
        <ele>135.2</ele>
        <time>2024-09-22T07:21:24Z</time>
      </trkpt>
      <trkpt lat="49.25501" lon="0.05549">
        <ele>135.2</ele>
        <time>2024-09-22T07:21:25Z</time>
      </trkpt>
      <trkpt lat="49.255" lon="0.05553">
        <ele>135.2</ele>
        <time>2024-09-22T07:21:26Z</time>
      </trkpt>
      <trkpt lat="49.25499" lon="0.05556">
        <ele>135.2</ele>
        <time>2024-09-22T07:21:27Z</time>
      </trkpt>
      <trkpt lat="49.25498" lon="0.05559">
        <ele>135.2</ele>
        <time>2024-09-22T07:21:28Z</time>
      </trkpt>
      <trkpt lat="49.25497" lon="0.05562">
        <ele>135.2</ele>
        <time>2024-09-22T07:21:29Z</time>
      </trkpt>
      <trkpt lat="49.25495" lon="0.05566">
        <ele>135.4</ele>
        <time>2024-09-22T07:21:30Z</time>
      </trkpt>
      <trkpt lat="49.25495" lon="0.05568">
        <ele>135.4</ele>
        <time>2024-09-22T07:21:31Z</time>
      </trkpt>
      <trkpt lat="49.25494" lon="0.05571">
        <ele>135.4</ele>
        <time>2024-09-22T07:21:32Z</time>
      </trkpt>
      <trkpt lat="49.25493" lon="0.05575">
        <ele>135.4</ele>
        <time>2024-09-22T07:21:33Z</time>
      </trkpt>
      <trkpt lat="49.25492" lon="0.05577">
        <ele>135.4</ele>
        <time>2024-09-22T07:21:34Z</time>
      </trkpt>
      <trkpt lat="49.2549" lon="0.0558">
        <ele>135.6</ele>
        <time>2024-09-22T07:21:35Z</time>
      </trkpt>
      <trkpt lat="49.25488" lon="0.05582">
        <ele>135.6</ele>
        <time>2024-09-22T07:21:36Z</time>
      </trkpt>
      <trkpt lat="49.25485" lon="0.05584">
        <ele>135.6</ele>
        <time>2024-09-22T07:21:37Z</time>
      </trkpt>
      <trkpt lat="49.25481" lon="0.05587">
        <ele>135.8</ele>
        <time>2024-09-22T07:21:38Z</time>
      </trkpt>
      <trkpt lat="49.25478" lon="0.0559">
        <ele>135.8</ele>
        <time>2024-09-22T07:21:39Z</time>
      </trkpt>
      <trkpt lat="49.25475" lon="0.05593">
        <ele>135.8</ele>
        <time>2024-09-22T07:21:40Z</time>
      </trkpt>
      <trkpt lat="49.25471" lon="0.05597">
        <ele>135.8</ele>
        <time>2024-09-22T07:21:41Z</time>
      </trkpt>
      <trkpt lat="49.25467" lon="0.056">
        <ele>135.8</ele>
        <time>2024-09-22T07:21:42Z</time>
      </trkpt>
      <trkpt lat="49.25464" lon="0.05603">
        <ele>135.8</ele>
        <time>2024-09-22T07:21:43Z</time>
      </trkpt>
      <trkpt lat="49.2546" lon="0.05606">
        <ele>135.8</ele>
        <time>2024-09-22T07:21:44Z</time>
      </trkpt>
      <trkpt lat="49.25456" lon="0.0561">
        <ele>135.8</ele>
        <time>2024-09-22T07:21:45Z</time>
      </trkpt>
      <trkpt lat="49.25453" lon="0.05612">
        <ele>135.8</ele>
        <time>2024-09-22T07:21:46Z</time>
      </trkpt>
      <trkpt lat="49.2483" lon="0.06931">
        <ele>146.2</ele>
        <time>2024-09-22T07:24:35Z</time>
      </trkpt>
      <trkpt lat="49.24829" lon="0.06935">
        <ele>144.6</ele>
        <time>2024-09-22T07:24:36Z</time>
      </trkpt>
      <trkpt lat="49.24826" lon="0.06944">
        <ele>145.4</ele>
        <time>2024-09-22T07:24:37Z</time>
      </trkpt>
      <trkpt lat="49.24823" lon="0.06952">
        <ele>145.6</ele>
        <time>2024-09-22T07:24:38Z</time>
      </trkpt>
      <trkpt lat="49.24819" lon="0.06961">
        <ele>145.6</ele>
        <time>2024-09-22T07:24:39Z</time>
      </trkpt>
      <trkpt lat="49.24816" lon="0.0697">
        <ele>144.6</ele>
        <time>2024-09-22T07:24:40Z</time>
      </trkpt>
      <trkpt lat="49.24813" lon="0.06979">
        <ele>144.2</ele>
        <time>2024-09-22T07:24:41Z</time>
      </trkpt>
      <trkpt lat="49.2481" lon="0.06988">
        <ele>144</ele>
        <time>2024-09-22T07:24:42Z</time>
      </trkpt>
      <trkpt lat="49.24807" lon="0.06997">
        <ele>144</ele>
        <time>2024-09-22T07:24:43Z</time>
      </trkpt>
      <trkpt lat="49.24804" lon="0.07006">
        <ele>144</ele>
        <time>2024-09-22T07:24:44Z</time>
      </trkpt>
      <trkpt lat="49.24801" lon="0.07015">
        <ele>144.8</ele>
        <time>2024-09-22T07:24:45Z</time>
      </trkpt>
      <trkpt lat="49.24797" lon="0.07024">
        <ele>145.4</ele>
        <time>2024-09-22T07:24:46Z</time>
      </trkpt>
      <trkpt lat="49.24794" lon="0.07034">
        <ele>145.6</ele>
        <time>2024-09-22T07:24:47Z</time>
      </trkpt>
      <trkpt lat="49.24791" lon="0.07043">
        <ele>145.8</ele>
        <time>2024-09-22T07:24:48Z</time>
      </trkpt>
      <trkpt lat="49.24788" lon="0.07052">
        <ele>146</ele>
        <time>2024-09-22T07:24:49Z</time>
      </trkpt>
      <trkpt lat="49.24784" lon="0.07067">
        <ele>146.2</ele>
        <time>2024-09-22T07:24:57Z</time>
      </trkpt>
      <trkpt lat="49.24782" lon="0.07072">
        <ele>146.4</ele>
        <time>2024-09-22T07:24:58Z</time>
      </trkpt>
      <trkpt lat="49.24779" lon="0.07081">
        <ele>146.4</ele>
        <time>2024-09-22T07:24:59Z</time>
      </trkpt>
      <trkpt lat="49.24776" lon="0.0709">
        <ele>146.4</ele>
        <time>2024-09-22T07:25:00Z</time>
      </trkpt>
      <trkpt lat="49.24773" lon="0.07099">
        <ele>146.6</ele>
        <time>2024-09-22T07:25:01Z</time>
      </trkpt>
      <trkpt lat="49.2477" lon="0.07108">
        <ele>146.8</ele>
        <time>2024-09-22T07:25:02Z</time>
      </trkpt>
      <trkpt lat="49.24767" lon="0.07117">
        <ele>146.8</ele>
        <time>2024-09-22T07:25:03Z</time>
      </trkpt>
      <trkpt lat="49.24764" lon="0.07127">
        <ele>147</ele>
        <time>2024-09-22T07:25:04Z</time>
      </trkpt>
      <trkpt lat="49.24761" lon="0.07136">
        <ele>147</ele>
        <time>2024-09-22T07:25:05Z</time>
      </trkpt>
      <trkpt lat="49.24758" lon="0.07145">
        <ele>147</ele>
        <time>2024-09-22T07:25:06Z</time>
      </trkpt>
      <trkpt lat="49.24754" lon="0.07154">
        <ele>147.2</ele>
        <time>2024-09-22T07:25:07Z</time>
      </trkpt>
      <trkpt lat="49.24751" lon="0.07163">
        <ele>147.4</ele>
        <time>2024-09-22T07:25:08Z</time>
      </trkpt>
      <trkpt lat="49.24748" lon="0.07172">
        <ele>147.4</ele>
        <time>2024-09-22T07:25:09Z</time>
      </trkpt>
      <trkpt lat="49.24744" lon="0.07181">
        <ele>147.6</ele>
        <time>2024-09-22T07:25:10Z</time>
      </trkpt>
      <trkpt lat="49.24741" lon="0.0719">
        <ele>148</ele>
        <time>2024-09-22T07:25:11Z</time>
      </trkpt>
      <trkpt lat="49.24738" lon="0.07199">
        <ele>148.4</ele>
        <time>2024-09-22T07:25:12Z</time>
      </trkpt>
      <trkpt lat="49.24734" lon="0.07207">
        <ele>148.6</ele>
        <time>2024-09-22T07:25:13Z</time>
      </trkpt>
      <trkpt lat="49.2473" lon="0.07216">
        <ele>148.8</ele>
        <time>2024-09-22T07:25:14Z</time>
      </trkpt>
      <trkpt lat="49.24726" lon="0.07225">
        <ele>149</ele>
        <time>2024-09-22T07:25:15Z</time>
      </trkpt>
      <trkpt lat="49.24722" lon="0.07234">
        <ele>149.2</ele>
        <time>2024-09-22T07:25:16Z</time>
      </trkpt>
      <trkpt lat="49.24718" lon="0.07242">
        <ele>149.4</ele>
        <time>2024-09-22T07:25:17Z</time>
      </trkpt>
      <trkpt lat="49.24713" lon="0.0725">
        <ele>149.4</ele>
        <time>2024-09-22T07:25:18Z</time>
      </trkpt>
      <trkpt lat="49.24709" lon="0.07258">
        <ele>149.6</ele>
        <time>2024-09-22T07:25:19Z</time>
      </trkpt>
      <trkpt lat="49.24704" lon="0.07266">
        <ele>149.8</ele>
        <time>2024-09-22T07:25:20Z</time>
      </trkpt>
      <trkpt lat="49.247" lon="0.07274">
        <ele>149.8</ele>
        <time>2024-09-22T07:25:21Z</time>
      </trkpt>
      <trkpt lat="49.24695" lon="0.07283">
        <ele>150</ele>
        <time>2024-09-22T07:25:22Z</time>
      </trkpt>
      <trkpt lat="49.24691" lon="0.07291">
        <ele>150</ele>
        <time>2024-09-22T07:25:23Z</time>
      </trkpt>
      <trkpt lat="49.24686" lon="0.07298">
        <ele>150.2</ele>
        <time>2024-09-22T07:25:24Z</time>
      </trkpt>
      <trkpt lat="49.2468" lon="0.07306">
        <ele>150.4</ele>
        <time>2024-09-22T07:25:25Z</time>
      </trkpt>
      <trkpt lat="49.24675" lon="0.07314">
        <ele>150.6</ele>
        <time>2024-09-22T07:25:26Z</time>
      </trkpt>
      <trkpt lat="49.2467" lon="0.07322">
        <ele>150.6</ele>
        <time>2024-09-22T07:25:27Z</time>
      </trkpt>
      <trkpt lat="49.24665" lon="0.0733">
        <ele>150.6</ele>
        <time>2024-09-22T07:25:28Z</time>
      </trkpt>
      <trkpt lat="49.2466" lon="0.07337">
        <ele>150.8</ele>
        <time>2024-09-22T07:25:29Z</time>
      </trkpt>
      <trkpt lat="49.24654" lon="0.07346">
        <ele>151</ele>
        <time>2024-09-22T07:25:30Z</time>
      </trkpt>
      <trkpt lat="49.24649" lon="0.07354">
        <ele>151</ele>
        <time>2024-09-22T07:25:31Z</time>
      </trkpt>
      <trkpt lat="49.24644" lon="0.07362">
        <ele>151</ele>
        <time>2024-09-22T07:25:32Z</time>
      </trkpt>
      <trkpt lat="49.24639" lon="0.0737">
        <ele>151.2</ele>
        <time>2024-09-22T07:25:33Z</time>
      </trkpt>
      <trkpt lat="49.24634" lon="0.07378">
        <ele>151.2</ele>
        <time>2024-09-22T07:25:34Z</time>
      </trkpt>
      <trkpt lat="49.24629" lon="0.07387">
        <ele>151.2</ele>
        <time>2024-09-22T07:25:35Z</time>
      </trkpt>
      <trkpt lat="49.24624" lon="0.07395">
        <ele>151.2</ele>
        <time>2024-09-22T07:25:36Z</time>
      </trkpt>
      <trkpt lat="49.24619" lon="0.07402">
        <ele>151.4</ele>
        <time>2024-09-22T07:25:37Z</time>
      </trkpt>
      <trkpt lat="49.24614" lon="0.0741">
        <ele>151.4</ele>
        <time>2024-09-22T07:25:38Z</time>
      </trkpt>
      <trkpt lat="49.24609" lon="0.07417">
        <ele>151.6</ele>
        <time>2024-09-22T07:25:39Z</time>
      </trkpt>
      <trkpt lat="49.24604" lon="0.07425">
        <ele>151.6</ele>
        <time>2024-09-22T07:25:40Z</time>
      </trkpt>
      <trkpt lat="49.246" lon="0.07434">
        <ele>151.6</ele>
        <time>2024-09-22T07:25:41Z</time>
      </trkpt>
      <trkpt lat="49.24594" lon="0.07441">
        <ele>151.8</ele>
        <time>2024-09-22T07:25:42Z</time>
      </trkpt>
      <trkpt lat="49.24589" lon="0.07449">
        <ele>152</ele>
        <time>2024-09-22T07:25:43Z</time>
      </trkpt>
      <trkpt lat="49.24584" lon="0.07457">
        <ele>152.2</ele>
        <time>2024-09-22T07:25:44Z</time>
      </trkpt>
      <trkpt lat="49.24579" lon="0.07465">
        <ele>152.2</ele>
        <time>2024-09-22T07:25:45Z</time>
      </trkpt>
      <trkpt lat="49.24574" lon="0.07473">
        <ele>152.4</ele>
        <time>2024-09-22T07:25:46Z</time>
      </trkpt>
      <trkpt lat="49.2457" lon="0.07481">
        <ele>152.4</ele>
        <time>2024-09-22T07:25:47Z</time>
      </trkpt>
      <trkpt lat="49.24565" lon="0.07489">
        <ele>152.4</ele>
        <time>2024-09-22T07:25:48Z</time>
      </trkpt>
      <trkpt lat="49.2456" lon="0.07497">
        <ele>152.4</ele>
        <time>2024-09-22T07:25:49Z</time>
      </trkpt>
      <trkpt lat="49.24555" lon="0.07506">
        <ele>152.4</ele>
        <time>2024-09-22T07:25:50Z</time>
      </trkpt>
      <trkpt lat="49.2455" lon="0.07514">
        <ele>152.4</ele>
        <time>2024-09-22T07:25:51Z</time>
      </trkpt>
      <trkpt lat="49.24545" lon="0.07523">
        <ele>152.4</ele>
        <time>2024-09-22T07:25:52Z</time>
      </trkpt>
      <trkpt lat="49.2454" lon="0.07532">
        <ele>152.4</ele>
        <time>2024-09-22T07:25:53Z</time>
      </trkpt>
      <trkpt lat="49.24535" lon="0.0754">
        <ele>152.4</ele>
        <time>2024-09-22T07:25:54Z</time>
      </trkpt>
      <trkpt lat="49.2453" lon="0.07549">
        <ele>152.4</ele>
        <time>2024-09-22T07:25:55Z</time>
      </trkpt>
      <trkpt lat="49.24525" lon="0.07558">
        <ele>152.4</ele>
        <time>2024-09-22T07:25:56Z</time>
      </trkpt>
      <trkpt lat="49.2452" lon="0.07567">
        <ele>152.4</ele>
        <time>2024-09-22T07:25:57Z</time>
      </trkpt>
      <trkpt lat="49.24515" lon="0.07576">
        <ele>152.4</ele>
        <time>2024-09-22T07:25:58Z</time>
      </trkpt>
      <trkpt lat="49.2451" lon="0.07586">
        <ele>152.4</ele>
        <time>2024-09-22T07:25:59Z</time>
      </trkpt>
      <trkpt lat="49.24505" lon="0.07595">
        <ele>152.4</ele>
        <time>2024-09-22T07:26:00Z</time>
      </trkpt>
      <trkpt lat="49.245" lon="0.07604">
        <ele>152.2</ele>
        <time>2024-09-22T07:26:01Z</time>
      </trkpt>
      <trkpt lat="49.24494" lon="0.07614">
        <ele>152.2</ele>
        <time>2024-09-22T07:26:02Z</time>
      </trkpt>
      <trkpt lat="49.24488" lon="0.07624">
        <ele>152.2</ele>
        <time>2024-09-22T07:26:03Z</time>
      </trkpt>
      <trkpt lat="49.24483" lon="0.07633">
        <ele>152</ele>
        <time>2024-09-22T07:26:04Z</time>
      </trkpt>
      <trkpt lat="49.24477" lon="0.07643">
        <ele>151.8</ele>
        <time>2024-09-22T07:26:05Z</time>
      </trkpt>
      <trkpt lat="49.24472" lon="0.07652">
        <ele>151.6</ele>
        <time>2024-09-22T07:26:06Z</time>
      </trkpt>
      <trkpt lat="49.24466" lon="0.07662">
        <ele>151.6</ele>
        <time>2024-09-22T07:26:07Z</time>
      </trkpt>
      <trkpt lat="49.2446" lon="0.07672">
        <ele>151.4</ele>
        <time>2024-09-22T07:26:08Z</time>
      </trkpt>
      <trkpt lat="49.24454" lon="0.07681">
        <ele>151.2</ele>
        <time>2024-09-22T07:26:09Z</time>
      </trkpt>
      <trkpt lat="49.24449" lon="0.07691">
        <ele>151.2</ele>
        <time>2024-09-22T07:26:10Z</time>
      </trkpt>
      <trkpt lat="49.24443" lon="0.077">
        <ele>151</ele>
        <time>2024-09-22T07:26:11Z</time>
      </trkpt>
      <trkpt lat="49.24437" lon="0.0771">
        <ele>151</ele>
        <time>2024-09-22T07:26:12Z</time>
      </trkpt>
      <trkpt lat="49.24431" lon="0.0772">
        <ele>151</ele>
        <time>2024-09-22T07:26:13Z</time>
      </trkpt>
      <trkpt lat="49.24426" lon="0.07729">
        <ele>150.8</ele>
        <time>2024-09-22T07:26:14Z</time>
      </trkpt>
      <trkpt lat="49.2442" lon="0.07739">
        <ele>150.6</ele>
        <time>2024-09-22T07:26:15Z</time>
      </trkpt>
      <trkpt lat="49.24414" lon="0.07749">
        <ele>150.2</ele>
        <time>2024-09-22T07:26:16Z</time>
      </trkpt>
      <trkpt lat="49.24408" lon="0.07758">
        <ele>149.8</ele>
        <time>2024-09-22T07:26:17Z</time>
      </trkpt>
      <trkpt lat="49.24402" lon="0.07768">
        <ele>149.6</ele>
        <time>2024-09-22T07:26:18Z</time>
      </trkpt>
      <trkpt lat="49.24396" lon="0.07778">
        <ele>149.4</ele>
        <time>2024-09-22T07:26:19Z</time>
      </trkpt>
      <trkpt lat="49.2439" lon="0.07788">
        <ele>149.4</ele>
        <time>2024-09-22T07:26:20Z</time>
      </trkpt>
      <trkpt lat="49.24385" lon="0.07797">
        <ele>149.4</ele>
        <time>2024-09-22T07:26:21Z</time>
      </trkpt>
      <trkpt lat="49.24379" lon="0.07806">
        <ele>149.4</ele>
        <time>2024-09-22T07:26:22Z</time>
      </trkpt>
      <trkpt lat="49.24373" lon="0.07816">
        <ele>149</ele>
        <time>2024-09-22T07:26:23Z</time>
      </trkpt>
      <trkpt lat="49.24367" lon="0.07825">
        <ele>148.8</ele>
        <time>2024-09-22T07:26:24Z</time>
      </trkpt>
      <trkpt lat="49.24362" lon="0.07834">
        <ele>148.6</ele>
        <time>2024-09-22T07:26:25Z</time>
      </trkpt>
      <trkpt lat="49.24356" lon="0.07844">
        <ele>148.6</ele>
        <time>2024-09-22T07:26:26Z</time>
      </trkpt>
      <trkpt lat="49.2435" lon="0.07853">
        <ele>148.6</ele>
        <time>2024-09-22T07:26:27Z</time>
      </trkpt>
      <trkpt lat="49.24344" lon="0.07862">
        <ele>148.6</ele>
        <time>2024-09-22T07:26:28Z</time>
      </trkpt>
      <trkpt lat="49.24339" lon="0.07872">
        <ele>148.4</ele>
        <time>2024-09-22T07:26:29Z</time>
      </trkpt>
      <trkpt lat="49.24333" lon="0.07881">
        <ele>148.2</ele>
        <time>2024-09-22T07:26:30Z</time>
      </trkpt>
      <trkpt lat="49.24327" lon="0.07891">
        <ele>148.2</ele>
        <time>2024-09-22T07:26:31Z</time>
      </trkpt>
      <trkpt lat="49.24322" lon="0.079">
        <ele>148</ele>
        <time>2024-09-22T07:26:32Z</time>
      </trkpt>
      <trkpt lat="49.24316" lon="0.0791">
        <ele>148</ele>
        <time>2024-09-22T07:26:33Z</time>
      </trkpt>
      <trkpt lat="49.2431" lon="0.07919">
        <ele>147.8</ele>
        <time>2024-09-22T07:26:34Z</time>
      </trkpt>
      <trkpt lat="49.24305" lon="0.07928">
        <ele>147.8</ele>
        <time>2024-09-22T07:26:35Z</time>
      </trkpt>
      <trkpt lat="49.24299" lon="0.07937">
        <ele>147.8</ele>
        <time>2024-09-22T07:26:36Z</time>
      </trkpt>
      <trkpt lat="49.24293" lon="0.07946">
        <ele>147.8</ele>
        <time>2024-09-22T07:26:37Z</time>
      </trkpt>
      <trkpt lat="49.24287" lon="0.07956">
        <ele>147.8</ele>
        <time>2024-09-22T07:26:38Z</time>
      </trkpt>
      <trkpt lat="49.24282" lon="0.07965">
        <ele>147.8</ele>
        <time>2024-09-22T07:26:39Z</time>
      </trkpt>
      <trkpt lat="49.24276" lon="0.07975">
        <ele>147.8</ele>
        <time>2024-09-22T07:26:40Z</time>
      </trkpt>
      <trkpt lat="49.2427" lon="0.07984">
        <ele>147.8</ele>
        <time>2024-09-22T07:26:41Z</time>
      </trkpt>
      <trkpt lat="49.24264" lon="0.07994">
        <ele>147.8</ele>
        <time>2024-09-22T07:26:42Z</time>
      </trkpt>
      <trkpt lat="49.24259" lon="0.08003">
        <ele>147.8</ele>
        <time>2024-09-22T07:26:43Z</time>
      </trkpt>
      <trkpt lat="49.24253" lon="0.08012">
        <ele>147.8</ele>
        <time>2024-09-22T07:26:44Z</time>
      </trkpt>
      <trkpt lat="49.24248" lon="0.08022">
        <ele>147.8</ele>
        <time>2024-09-22T07:26:45Z</time>
      </trkpt>
      <trkpt lat="49.24243" lon="0.08031">
        <ele>147.8</ele>
        <time>2024-09-22T07:26:46Z</time>
      </trkpt>
      <trkpt lat="49.24237" lon="0.0804">
        <ele>147.8</ele>
        <time>2024-09-22T07:26:47Z</time>
      </trkpt>
      <trkpt lat="49.24232" lon="0.08049">
        <ele>147.8</ele>
        <time>2024-09-22T07:26:48Z</time>
      </trkpt>
      <trkpt lat="49.24226" lon="0.08058">
        <ele>147.8</ele>
        <time>2024-09-22T07:26:49Z</time>
      </trkpt>
      <trkpt lat="49.2422" lon="0.08066">
        <ele>147.8</ele>
        <time>2024-09-22T07:26:50Z</time>
      </trkpt>
      <trkpt lat="49.24215" lon="0.08075">
        <ele>147.8</ele>
        <time>2024-09-22T07:26:51Z</time>
      </trkpt>
      <trkpt lat="49.24209" lon="0.08084">
        <ele>147.8</ele>
        <time>2024-09-22T07:26:52Z</time>
      </trkpt>
      <trkpt lat="49.24203" lon="0.08093">
        <ele>147.8</ele>
        <time>2024-09-22T07:26:53Z</time>
      </trkpt>
      <trkpt lat="49.24197" lon="0.08102">
        <ele>147.8</ele>
        <time>2024-09-22T07:26:54Z</time>
      </trkpt>
      <trkpt lat="49.24192" lon="0.08111">
        <ele>148</ele>
        <time>2024-09-22T07:26:55Z</time>
      </trkpt>
      <trkpt lat="49.24187" lon="0.08121">
        <ele>148</ele>
        <time>2024-09-22T07:26:56Z</time>
      </trkpt>
      <trkpt lat="49.24182" lon="0.08131">
        <ele>148</ele>
        <time>2024-09-22T07:26:57Z</time>
      </trkpt>
      <trkpt lat="49.24176" lon="0.0814">
        <ele>147.8</ele>
        <time>2024-09-22T07:26:58Z</time>
      </trkpt>
      <trkpt lat="49.24171" lon="0.08149">
        <ele>147.8</ele>
        <time>2024-09-22T07:26:59Z</time>
      </trkpt>
      <trkpt lat="49.24165" lon="0.08158">
        <ele>147.8</ele>
        <time>2024-09-22T07:27:00Z</time>
      </trkpt>
      <trkpt lat="49.24159" lon="0.08167">
        <ele>147.8</ele>
        <time>2024-09-22T07:27:01Z</time>
      </trkpt>
      <trkpt lat="49.24154" lon="0.08177">
        <ele>147.8</ele>
        <time>2024-09-22T07:27:02Z</time>
      </trkpt>
      <trkpt lat="49.24148" lon="0.08186">
        <ele>147.8</ele>
        <time>2024-09-22T07:27:03Z</time>
      </trkpt>
      <trkpt lat="49.24142" lon="0.08196">
        <ele>147.8</ele>
        <time>2024-09-22T07:27:04Z</time>
      </trkpt>
      <trkpt lat="49.24137" lon="0.08206">
        <ele>147.8</ele>
        <time>2024-09-22T07:27:05Z</time>
      </trkpt>
      <trkpt lat="49.24131" lon="0.08215">
        <ele>147.6</ele>
        <time>2024-09-22T07:27:06Z</time>
      </trkpt>
      <trkpt lat="49.24125" lon="0.08225">
        <ele>147.6</ele>
        <time>2024-09-22T07:27:07Z</time>
      </trkpt>
      <trkpt lat="49.24119" lon="0.08235">
        <ele>147.4</ele>
        <time>2024-09-22T07:27:08Z</time>
      </trkpt>
      <trkpt lat="49.24113" lon="0.08244">
        <ele>147.4</ele>
        <time>2024-09-22T07:27:09Z</time>
      </trkpt>
      <trkpt lat="49.24107" lon="0.08253">
        <ele>147.4</ele>
        <time>2024-09-22T07:27:10Z</time>
      </trkpt>
      <trkpt lat="49.24101" lon="0.08263">
        <ele>147.2</ele>
        <time>2024-09-22T07:27:11Z</time>
      </trkpt>
      <trkpt lat="49.24095" lon="0.08272">
        <ele>147.2</ele>
        <time>2024-09-22T07:27:12Z</time>
      </trkpt>
      <trkpt lat="49.24089" lon="0.08282">
        <ele>147</ele>
        <time>2024-09-22T07:27:13Z</time>
      </trkpt>
      <trkpt lat="49.24083" lon="0.08291">
        <ele>147</ele>
        <time>2024-09-22T07:27:14Z</time>
      </trkpt>
      <trkpt lat="49.24077" lon="0.08301">
        <ele>146.8</ele>
        <time>2024-09-22T07:27:15Z</time>
      </trkpt>
      <trkpt lat="49.24072" lon="0.0831">
        <ele>146.6</ele>
        <time>2024-09-22T07:27:16Z</time>
      </trkpt>
      <trkpt lat="49.24065" lon="0.08319">
        <ele>146.4</ele>
        <time>2024-09-22T07:27:17Z</time>
      </trkpt>
      <trkpt lat="49.2406" lon="0.08328">
        <ele>146.2</ele>
        <time>2024-09-22T07:27:18Z</time>
      </trkpt>
      <trkpt lat="49.24054" lon="0.08337">
        <ele>145.8</ele>
        <time>2024-09-22T07:27:19Z</time>
      </trkpt>
      <trkpt lat="49.24048" lon="0.08345">
        <ele>145.6</ele>
        <time>2024-09-22T07:27:20Z</time>
      </trkpt>
      <trkpt lat="49.24043" lon="0.08354">
        <ele>145.6</ele>
        <time>2024-09-22T07:27:21Z</time>
      </trkpt>
      <trkpt lat="49.24037" lon="0.08363">
        <ele>145.6</ele>
        <time>2024-09-22T07:27:22Z</time>
      </trkpt>
      <trkpt lat="49.24032" lon="0.08371">
        <ele>145.6</ele>
        <time>2024-09-22T07:27:23Z</time>
      </trkpt>
      <trkpt lat="49.24026" lon="0.0838">
        <ele>145.6</ele>
        <time>2024-09-22T07:27:24Z</time>
      </trkpt>
      <trkpt lat="49.24021" lon="0.08388">
        <ele>145.6</ele>
        <time>2024-09-22T07:27:25Z</time>
      </trkpt>
      <trkpt lat="49.24016" lon="0.08396">
        <ele>145.6</ele>
        <time>2024-09-22T07:27:26Z</time>
      </trkpt>
      <trkpt lat="49.2401" lon="0.08404">
        <ele>145.6</ele>
        <time>2024-09-22T07:27:27Z</time>
      </trkpt>
      <trkpt lat="49.24005" lon="0.08412">
        <ele>145.6</ele>
        <time>2024-09-22T07:27:28Z</time>
      </trkpt>
      <trkpt lat="49.23999" lon="0.08421">
        <ele>145.6</ele>
        <time>2024-09-22T07:27:29Z</time>
      </trkpt>
      <trkpt lat="49.23994" lon="0.08429">
        <ele>145.6</ele>
        <time>2024-09-22T07:27:30Z</time>
      </trkpt>
      <trkpt lat="49.23989" lon="0.08437">
        <ele>145.8</ele>
        <time>2024-09-22T07:27:31Z</time>
      </trkpt>
      <trkpt lat="49.23984" lon="0.08445">
        <ele>146</ele>
        <time>2024-09-22T07:27:32Z</time>
      </trkpt>
      <trkpt lat="49.23978" lon="0.08453">
        <ele>146</ele>
        <time>2024-09-22T07:27:33Z</time>
      </trkpt>
      <trkpt lat="49.23973" lon="0.08461">
        <ele>146.2</ele>
        <time>2024-09-22T07:27:34Z</time>
      </trkpt>
      <trkpt lat="49.23968" lon="0.08469">
        <ele>146.6</ele>
        <time>2024-09-22T07:27:35Z</time>
      </trkpt>
      <trkpt lat="49.23963" lon="0.08477">
        <ele>146.8</ele>
        <time>2024-09-22T07:27:36Z</time>
      </trkpt>
      <trkpt lat="49.23957" lon="0.08486">
        <ele>147.2</ele>
        <time>2024-09-22T07:27:37Z</time>
      </trkpt>
      <trkpt lat="49.23952" lon="0.08494">
        <ele>147.6</ele>
        <time>2024-09-22T07:27:38Z</time>
      </trkpt>
      <trkpt lat="49.23946" lon="0.08503">
        <ele>147.8</ele>
        <time>2024-09-22T07:27:39Z</time>
      </trkpt>
      <trkpt lat="49.23941" lon="0.08511">
        <ele>148</ele>
        <time>2024-09-22T07:27:40Z</time>
      </trkpt>
      <trkpt lat="49.23936" lon="0.0852">
        <ele>148</ele>
        <time>2024-09-22T07:27:41Z</time>
      </trkpt>
      <trkpt lat="49.23932" lon="0.08529">
        <ele>148</ele>
        <time>2024-09-22T07:27:42Z</time>
      </trkpt>
      <trkpt lat="49.23927" lon="0.08538">
        <ele>148.2</ele>
        <time>2024-09-22T07:27:43Z</time>
      </trkpt>
      <trkpt lat="49.23923" lon="0.08548">
        <ele>148.2</ele>
        <time>2024-09-22T07:27:44Z</time>
      </trkpt>
      <trkpt lat="49.23919" lon="0.08557">
        <ele>148.2</ele>
        <time>2024-09-22T07:27:45Z</time>
      </trkpt>
      <trkpt lat="49.23914" lon="0.08567">
        <ele>148.2</ele>
        <time>2024-09-22T07:27:46Z</time>
      </trkpt>
      <trkpt lat="49.2391" lon="0.08577">
        <ele>148.2</ele>
        <time>2024-09-22T07:27:47Z</time>
      </trkpt>
      <trkpt lat="49.23906" lon="0.08587">
        <ele>148.2</ele>
        <time>2024-09-22T07:27:48Z</time>
      </trkpt>
      <trkpt lat="49.23902" lon="0.08597">
        <ele>148.2</ele>
        <time>2024-09-22T07:27:49Z</time>
      </trkpt>
      <trkpt lat="49.23898" lon="0.08608">
        <ele>148.2</ele>
        <time>2024-09-22T07:27:50Z</time>
      </trkpt>
      <trkpt lat="49.23894" lon="0.08619">
        <ele>148.2</ele>
        <time>2024-09-22T07:27:51Z</time>
      </trkpt>
      <trkpt lat="49.2389" lon="0.0863">
        <ele>148.2</ele>
        <time>2024-09-22T07:27:52Z</time>
      </trkpt>
      <trkpt lat="49.23886" lon="0.0864">
        <ele>148.2</ele>
        <time>2024-09-22T07:27:53Z</time>
      </trkpt>
      <trkpt lat="49.23881" lon="0.08651">
        <ele>148.2</ele>
        <time>2024-09-22T07:27:54Z</time>
      </trkpt>
      <trkpt lat="49.23876" lon="0.08662">
        <ele>148.2</ele>
        <time>2024-09-22T07:27:55Z</time>
      </trkpt>
      <trkpt lat="49.23872" lon="0.08673">
        <ele>148</ele>
        <time>2024-09-22T07:27:56Z</time>
      </trkpt>
      <trkpt lat="49.23868" lon="0.08684">
        <ele>147.8</ele>
        <time>2024-09-22T07:27:57Z</time>
      </trkpt>
      <trkpt lat="49.23864" lon="0.08695">
        <ele>147.8</ele>
        <time>2024-09-22T07:27:58Z</time>
      </trkpt>
      <trkpt lat="49.2386" lon="0.08706">
        <ele>147.6</ele>
        <time>2024-09-22T07:27:59Z</time>
      </trkpt>
      <trkpt lat="49.23855" lon="0.08717">
        <ele>147.4</ele>
        <time>2024-09-22T07:28:00Z</time>
      </trkpt>
      <trkpt lat="49.23851" lon="0.08728">
        <ele>147.4</ele>
        <time>2024-09-22T07:28:01Z</time>
      </trkpt>
      <trkpt lat="49.23846" lon="0.08739">
        <ele>147.4</ele>
        <time>2024-09-22T07:28:02Z</time>
      </trkpt>
      <trkpt lat="49.23842" lon="0.0875">
        <ele>147.4</ele>
        <time>2024-09-22T07:28:03Z</time>
      </trkpt>
      <trkpt lat="49.23838" lon="0.08761">
        <ele>147.2</ele>
        <time>2024-09-22T07:28:04Z</time>
      </trkpt>
      <trkpt lat="49.23834" lon="0.08772">
        <ele>147.2</ele>
        <time>2024-09-22T07:28:05Z</time>
      </trkpt>
      <trkpt lat="49.23829" lon="0.08782">
        <ele>147.2</ele>
        <time>2024-09-22T07:28:06Z</time>
      </trkpt>
      <trkpt lat="49.23825" lon="0.08793">
        <ele>147</ele>
        <time>2024-09-22T07:28:07Z</time>
      </trkpt>
      <trkpt lat="49.23821" lon="0.08804">
        <ele>146.8</ele>
        <time>2024-09-22T07:28:08Z</time>
      </trkpt>
      <trkpt lat="49.23817" lon="0.08815">
        <ele>146.6</ele>
        <time>2024-09-22T07:28:09Z</time>
      </trkpt>
      <trkpt lat="49.23813" lon="0.08826">
        <ele>146.6</ele>
        <time>2024-09-22T07:28:10Z</time>
      </trkpt>
      <trkpt lat="49.23809" lon="0.08837">
        <ele>146.4</ele>
        <time>2024-09-22T07:28:11Z</time>
      </trkpt>
      <trkpt lat="49.23806" lon="0.08848">
        <ele>146.4</ele>
        <time>2024-09-22T07:28:12Z</time>
      </trkpt>
      <trkpt lat="49.23803" lon="0.08859">
        <ele>146.2</ele>
        <time>2024-09-22T07:28:13Z</time>
      </trkpt>
      <trkpt lat="49.238" lon="0.0887">
        <ele>146</ele>
        <time>2024-09-22T07:28:14Z</time>
      </trkpt>
      <trkpt lat="49.23797" lon="0.08881">
        <ele>145.8</ele>
        <time>2024-09-22T07:28:15Z</time>
      </trkpt>
      <trkpt lat="49.23794" lon="0.08891">
        <ele>145.6</ele>
        <time>2024-09-22T07:28:16Z</time>
      </trkpt>
      <trkpt lat="49.23792" lon="0.08902">
        <ele>145.6</ele>
        <time>2024-09-22T07:28:17Z</time>
      </trkpt>
      <trkpt lat="49.23789" lon="0.08913">
        <ele>145.4</ele>
        <time>2024-09-22T07:28:18Z</time>
      </trkpt>
      <trkpt lat="49.23787" lon="0.08925">
        <ele>145.2</ele>
        <time>2024-09-22T07:28:19Z</time>
      </trkpt>
      <trkpt lat="49.23784" lon="0.08936">
        <ele>145.2</ele>
        <time>2024-09-22T07:28:20Z</time>
      </trkpt>
      <trkpt lat="49.23782" lon="0.08947">
        <ele>145</ele>
        <time>2024-09-22T07:28:21Z</time>
      </trkpt>
      <trkpt lat="49.23779" lon="0.08958">
        <ele>145</ele>
        <time>2024-09-22T07:28:22Z</time>
      </trkpt>
      <trkpt lat="49.23777" lon="0.0897">
        <ele>144.8</ele>
        <time>2024-09-22T07:28:23Z</time>
      </trkpt>
      <trkpt lat="49.23775" lon="0.08981">
        <ele>144.6</ele>
        <time>2024-09-22T07:28:24Z</time>
      </trkpt>
      <trkpt lat="49.23772" lon="0.08992">
        <ele>144.6</ele>
        <time>2024-09-22T07:28:25Z</time>
      </trkpt>
      <trkpt lat="49.2377" lon="0.09004">
        <ele>144.4</ele>
        <time>2024-09-22T07:28:26Z</time>
      </trkpt>
      <trkpt lat="49.23768" lon="0.09015">
        <ele>144.2</ele>
        <time>2024-09-22T07:28:27Z</time>
      </trkpt>
      <trkpt lat="49.23765" lon="0.09026">
        <ele>144.2</ele>
        <time>2024-09-22T07:28:28Z</time>
      </trkpt>
      <trkpt lat="49.23763" lon="0.09036">
        <ele>144.2</ele>
        <time>2024-09-22T07:28:29Z</time>
      </trkpt>
      <trkpt lat="49.23761" lon="0.09048">
        <ele>143.8</ele>
        <time>2024-09-22T07:28:30Z</time>
      </trkpt>
      <trkpt lat="49.23758" lon="0.09059">
        <ele>144</ele>
        <time>2024-09-22T07:28:31Z</time>
      </trkpt>
      <trkpt lat="49.23756" lon="0.0907">
        <ele>143.8</ele>
        <time>2024-09-22T07:28:32Z</time>
      </trkpt>
      <trkpt lat="49.23754" lon="0.09081">
        <ele>143.8</ele>
        <time>2024-09-22T07:28:33Z</time>
      </trkpt>
      <trkpt lat="49.23752" lon="0.09092">
        <ele>143.6</ele>
        <time>2024-09-22T07:28:34Z</time>
      </trkpt>
      <trkpt lat="49.23749" lon="0.09103">
        <ele>143.8</ele>
        <time>2024-09-22T07:28:35Z</time>
      </trkpt>
      <trkpt lat="49.23747" lon="0.09113">
        <ele>143.6</ele>
        <time>2024-09-22T07:28:36Z</time>
      </trkpt>
      <trkpt lat="49.23744" lon="0.09124">
        <ele>143.2</ele>
        <time>2024-09-22T07:28:37Z</time>
      </trkpt>
      <trkpt lat="49.23742" lon="0.09134">
        <ele>143.2</ele>
        <time>2024-09-22T07:28:38Z</time>
      </trkpt>
      <trkpt lat="49.2374" lon="0.09145">
        <ele>143</ele>
        <time>2024-09-22T07:28:39Z</time>
      </trkpt>
      <trkpt lat="49.23737" lon="0.09155">
        <ele>142.8</ele>
        <time>2024-09-22T07:28:40Z</time>
      </trkpt>
      <trkpt lat="49.23735" lon="0.09166">
        <ele>142.6</ele>
        <time>2024-09-22T07:28:41Z</time>
      </trkpt>
      <trkpt lat="49.23732" lon="0.09177">
        <ele>142.6</ele>
        <time>2024-09-22T07:28:42Z</time>
      </trkpt>
      <trkpt lat="49.2373" lon="0.09187">
        <ele>142.4</ele>
        <time>2024-09-22T07:28:43Z</time>
      </trkpt>
      <trkpt lat="49.23728" lon="0.09198">
        <ele>142.4</ele>
        <time>2024-09-22T07:28:44Z</time>
      </trkpt>
      <trkpt lat="49.23726" lon="0.09209">
        <ele>142.4</ele>
        <time>2024-09-22T07:28:45Z</time>
      </trkpt>
      <trkpt lat="49.23723" lon="0.0922">
        <ele>142.4</ele>
        <time>2024-09-22T07:28:46Z</time>
      </trkpt>
      <trkpt lat="49.23721" lon="0.0923">
        <ele>142.4</ele>
        <time>2024-09-22T07:28:47Z</time>
      </trkpt>
      <trkpt lat="49.23718" lon="0.0924">
        <ele>142.4</ele>
        <time>2024-09-22T07:28:48Z</time>
      </trkpt>
      <trkpt lat="49.23714" lon="0.0925">
        <ele>142.4</ele>
        <time>2024-09-22T07:28:49Z</time>
      </trkpt>
      <trkpt lat="49.23711" lon="0.0926">
        <ele>142.4</ele>
        <time>2024-09-22T07:28:50Z</time>
      </trkpt>
      <trkpt lat="49.23708" lon="0.09271">
        <ele>142.4</ele>
        <time>2024-09-22T07:28:51Z</time>
      </trkpt>
      <trkpt lat="49.23705" lon="0.09281">
        <ele>142.4</ele>
        <time>2024-09-22T07:28:52Z</time>
      </trkpt>
      <trkpt lat="49.23702" lon="0.09291">
        <ele>142.4</ele>
        <time>2024-09-22T07:28:53Z</time>
      </trkpt>
      <trkpt lat="49.23698" lon="0.093">
        <ele>142.4</ele>
        <time>2024-09-22T07:28:54Z</time>
      </trkpt>
      <trkpt lat="49.23695" lon="0.0931">
        <ele>142.4</ele>
        <time>2024-09-22T07:28:55Z</time>
      </trkpt>
      <trkpt lat="49.23691" lon="0.09319">
        <ele>142.4</ele>
        <time>2024-09-22T07:28:56Z</time>
      </trkpt>
      <trkpt lat="49.23687" lon="0.09329">
        <ele>142.4</ele>
        <time>2024-09-22T07:28:57Z</time>
      </trkpt>
      <trkpt lat="49.23683" lon="0.09338">
        <ele>142.6</ele>
        <time>2024-09-22T07:28:58Z</time>
      </trkpt>
      <trkpt lat="49.23679" lon="0.09347">
        <ele>142.6</ele>
        <time>2024-09-22T07:28:59Z</time>
      </trkpt>
      <trkpt lat="49.23675" lon="0.09356">
        <ele>142.6</ele>
        <time>2024-09-22T07:29:00Z</time>
      </trkpt>
      <trkpt lat="49.23671" lon="0.09365">
        <ele>142.6</ele>
        <time>2024-09-22T07:29:01Z</time>
      </trkpt>
      <trkpt lat="49.23666" lon="0.09376">
        <ele>142.6</ele>
        <time>2024-09-22T07:29:02Z</time>
      </trkpt>
      <trkpt lat="49.23662" lon="0.09383">
        <ele>142.6</ele>
        <time>2024-09-22T07:29:03Z</time>
      </trkpt>
      <trkpt lat="49.23658" lon="0.09392">
        <ele>142.6</ele>
        <time>2024-09-22T07:29:04Z</time>
      </trkpt>
      <trkpt lat="49.23655" lon="0.09401">
        <ele>142.6</ele>
        <time>2024-09-22T07:29:05Z</time>
      </trkpt>
      <trkpt lat="49.23651" lon="0.0941">
        <ele>142.6</ele>
        <time>2024-09-22T07:29:06Z</time>
      </trkpt>
      <trkpt lat="49.23647" lon="0.09419">
        <ele>142.6</ele>
        <time>2024-09-22T07:29:07Z</time>
      </trkpt>
      <trkpt lat="49.23643" lon="0.09428">
        <ele>142.6</ele>
        <time>2024-09-22T07:29:08Z</time>
      </trkpt>
      <trkpt lat="49.23639" lon="0.09437">
        <ele>142.8</ele>
        <time>2024-09-22T07:29:09Z</time>
      </trkpt>
      <trkpt lat="49.23635" lon="0.09446">
        <ele>142.8</ele>
        <time>2024-09-22T07:29:10Z</time>
      </trkpt>
      <trkpt lat="49.23631" lon="0.09455">
        <ele>142.8</ele>
        <time>2024-09-22T07:29:11Z</time>
      </trkpt>
      <trkpt lat="49.23627" lon="0.09464">
        <ele>142.8</ele>
        <time>2024-09-22T07:29:12Z</time>
      </trkpt>
      <trkpt lat="49.23623" lon="0.09472">
        <ele>143</ele>
        <time>2024-09-22T07:29:13Z</time>
      </trkpt>
      <trkpt lat="49.23618" lon="0.09481">
        <ele>143</ele>
        <time>2024-09-22T07:29:14Z</time>
      </trkpt>
      <trkpt lat="49.23614" lon="0.0949">
        <ele>143</ele>
        <time>2024-09-22T07:29:15Z</time>
      </trkpt>
      <trkpt lat="49.2361" lon="0.09499">
        <ele>143.2</ele>
        <time>2024-09-22T07:29:16Z</time>
      </trkpt>
      <trkpt lat="49.23605" lon="0.09507">
        <ele>143.2</ele>
        <time>2024-09-22T07:29:17Z</time>
      </trkpt>
      <trkpt lat="49.236" lon="0.09516">
        <ele>143.2</ele>
        <time>2024-09-22T07:29:18Z</time>
      </trkpt>
      <trkpt lat="49.23596" lon="0.09524">
        <ele>143.2</ele>
        <time>2024-09-22T07:29:19Z</time>
      </trkpt>
      <trkpt lat="49.23591" lon="0.09533">
        <ele>143.2</ele>
        <time>2024-09-22T07:29:20Z</time>
      </trkpt>
      <trkpt lat="49.23587" lon="0.09542">
        <ele>143.2</ele>
        <time>2024-09-22T07:29:21Z</time>
      </trkpt>
      <trkpt lat="49.23582" lon="0.09551">
        <ele>143.2</ele>
        <time>2024-09-22T07:29:22Z</time>
      </trkpt>
      <trkpt lat="49.23577" lon="0.09559">
        <ele>143.2</ele>
        <time>2024-09-22T07:29:23Z</time>
      </trkpt>
      <trkpt lat="49.23572" lon="0.09568">
        <ele>143.2</ele>
        <time>2024-09-22T07:29:24Z</time>
      </trkpt>
      <trkpt lat="49.23567" lon="0.09577">
        <ele>143.2</ele>
        <time>2024-09-22T07:29:25Z</time>
      </trkpt>
      <trkpt lat="49.23562" lon="0.09586">
        <ele>143.2</ele>
        <time>2024-09-22T07:29:26Z</time>
      </trkpt>
      <trkpt lat="49.23558" lon="0.09594">
        <ele>143.2</ele>
        <time>2024-09-22T07:29:27Z</time>
      </trkpt>
      <trkpt lat="49.23553" lon="0.09602">
        <ele>143.2</ele>
        <time>2024-09-22T07:29:28Z</time>
      </trkpt>
      <trkpt lat="49.23548" lon="0.0961">
        <ele>143.2</ele>
        <time>2024-09-22T07:29:29Z</time>
      </trkpt>
      <trkpt lat="49.23543" lon="0.09618">
        <ele>143</ele>
        <time>2024-09-22T07:29:30Z</time>
      </trkpt>
      <trkpt lat="49.23539" lon="0.09625">
        <ele>143</ele>
        <time>2024-09-22T07:29:31Z</time>
      </trkpt>
      <trkpt lat="49.23535" lon="0.09632">
        <ele>142.8</ele>
        <time>2024-09-22T07:29:32Z</time>
      </trkpt>
      <trkpt lat="49.23532" lon="0.09639">
        <ele>142.4</ele>
        <time>2024-09-22T07:29:33Z</time>
      </trkpt>
      <trkpt lat="49.23528" lon="0.09646">
        <ele>142</ele>
        <time>2024-09-22T07:29:34Z</time>
      </trkpt>
      <trkpt lat="49.23525" lon="0.09651">
        <ele>141.8</ele>
        <time>2024-09-22T07:29:35Z</time>
      </trkpt>
      <trkpt lat="49.23522" lon="0.09656">
        <ele>141.8</ele>
        <time>2024-09-22T07:29:36Z</time>
      </trkpt>
      <trkpt lat="49.23519" lon="0.0966">
        <ele>141.6</ele>
        <time>2024-09-22T07:29:37Z</time>
      </trkpt>
      <trkpt lat="49.23516" lon="0.09663">
        <ele>141.6</ele>
        <time>2024-09-22T07:29:38Z</time>
      </trkpt>
      <trkpt lat="49.23513" lon="0.09665">
        <ele>141.6</ele>
        <time>2024-09-22T07:29:39Z</time>
      </trkpt>
      <trkpt lat="49.2351" lon="0.09667">
        <ele>141.6</ele>
        <time>2024-09-22T07:29:40Z</time>
      </trkpt>
      <trkpt lat="49.23506" lon="0.0967">
        <ele>141.6</ele>
        <time>2024-09-22T07:29:41Z</time>
      </trkpt>
      <trkpt lat="49.23504" lon="0.09673">
        <ele>141.6</ele>
        <time>2024-09-22T07:29:42Z</time>
      </trkpt>
      <trkpt lat="49.23503" lon="0.09678">
        <ele>141.6</ele>
        <time>2024-09-22T07:29:43Z</time>
      </trkpt>
      <trkpt lat="49.23502" lon="0.09683">
        <ele>141.6</ele>
        <time>2024-09-22T07:29:44Z</time>
      </trkpt>
      <trkpt lat="49.23503" lon="0.09689">
        <ele>141.6</ele>
        <time>2024-09-22T07:29:45Z</time>
      </trkpt>
      <trkpt lat="49.23505" lon="0.09692">
        <ele>141.8</ele>
        <time>2024-09-22T07:29:46Z</time>
      </trkpt>
      <trkpt lat="49.23508" lon="0.09694">
        <ele>141.8</ele>
        <time>2024-09-22T07:29:47Z</time>
      </trkpt>
      <trkpt lat="49.23511" lon="0.09695">
        <ele>142</ele>
        <time>2024-09-22T07:29:48Z</time>
      </trkpt>
      <trkpt lat="49.23515" lon="0.09694">
        <ele>142</ele>
        <time>2024-09-22T07:29:49Z</time>
      </trkpt>
      <trkpt lat="49.23517" lon="0.09692">
        <ele>142</ele>
        <time>2024-09-22T07:29:50Z</time>
      </trkpt>
      <trkpt lat="49.2352" lon="0.09689">
        <ele>142</ele>
        <time>2024-09-22T07:29:51Z</time>
      </trkpt>
      <trkpt lat="49.23522" lon="0.09686">
        <ele>142.2</ele>
        <time>2024-09-22T07:29:52Z</time>
      </trkpt>
      <trkpt lat="49.23523" lon="0.09682">
        <ele>142.2</ele>
        <time>2024-09-22T07:29:53Z</time>
      </trkpt>
      <trkpt lat="49.23525" lon="0.09677">
        <ele>142.2</ele>
        <time>2024-09-22T07:29:54Z</time>
      </trkpt>
      <trkpt lat="49.23525" lon="0.09674">
        <ele>142.2</ele>
        <time>2024-09-22T07:29:55Z</time>
      </trkpt>
      <trkpt lat="49.23525" lon="0.09671">
        <ele>142.4</ele>
        <time>2024-09-22T07:29:56Z</time>
      </trkpt>
      <trkpt lat="49.23525" lon="0.09668">
        <ele>142.4</ele>
        <time>2024-09-22T07:29:57Z</time>
      </trkpt>
      <trkpt lat="49.23524" lon="0.09666">
        <ele>142.6</ele>
        <time>2024-09-22T07:29:58Z</time>
      </trkpt>
      <trkpt lat="49.23524" lon="0.09665">
        <ele>142.6</ele>
        <time>2024-09-22T07:29:59Z</time>
      </trkpt>
      <trkpt lat="49.23524" lon="0.09665">
        <ele>142.8</ele>
        <time>2024-09-22T07:30:00Z</time>
      </trkpt>
      <trkpt lat="49.23524" lon="0.09664">
        <ele>142.8</ele>
        <time>2024-09-22T07:30:01Z</time>
      </trkpt>
      <trkpt lat="49.23518" lon="0.09662">
        <ele>143.2</ele>
        <time>2024-09-22T07:30:14Z</time>
      </trkpt>
      <trkpt lat="49.23516" lon="0.09662">
        <ele>143.2</ele>
        <time>2024-09-22T07:30:15Z</time>
      </trkpt>
      <trkpt lat="49.23514" lon="0.09663">
        <ele>143.2</ele>
        <time>2024-09-22T07:30:16Z</time>
      </trkpt>
      <trkpt lat="49.23511" lon="0.09664">
        <ele>143.2</ele>
        <time>2024-09-22T07:30:17Z</time>
      </trkpt>
      <trkpt lat="49.23509" lon="0.09667">
        <ele>143.2</ele>
        <time>2024-09-22T07:30:18Z</time>
      </trkpt>
      <trkpt lat="49.23507" lon="0.0967">
        <ele>143.2</ele>
        <time>2024-09-22T07:30:19Z</time>
      </trkpt>
      <trkpt lat="49.23504" lon="0.09675">
        <ele>143.2</ele>
        <time>2024-09-22T07:30:20Z</time>
      </trkpt>
      <trkpt lat="49.23503" lon="0.0968">
        <ele>143.2</ele>
        <time>2024-09-22T07:30:21Z</time>
      </trkpt>
      <trkpt lat="49.23501" lon="0.09686">
        <ele>143.2</ele>
        <time>2024-09-22T07:30:22Z</time>
      </trkpt>
      <trkpt lat="49.235" lon="0.09693">
        <ele>143.2</ele>
        <time>2024-09-22T07:30:23Z</time>
      </trkpt>
      <trkpt lat="49.23499" lon="0.097">
        <ele>143</ele>
        <time>2024-09-22T07:30:24Z</time>
      </trkpt>
      <trkpt lat="49.23496" lon="0.09707">
        <ele>143</ele>
        <time>2024-09-22T07:30:25Z</time>
      </trkpt>
      <trkpt lat="49.23493" lon="0.09714">
        <ele>142.8</ele>
        <time>2024-09-22T07:30:26Z</time>
      </trkpt>
      <trkpt lat="49.23489" lon="0.0972">
        <ele>142.6</ele>
        <time>2024-09-22T07:30:27Z</time>
      </trkpt>
      <trkpt lat="49.23485" lon="0.09727">
        <ele>142.6</ele>
        <time>2024-09-22T07:30:28Z</time>
      </trkpt>
      <trkpt lat="49.2348" lon="0.09735">
        <ele>142.4</ele>
        <time>2024-09-22T07:30:29Z</time>
      </trkpt>
      <trkpt lat="49.23476" lon="0.09743">
        <ele>142.4</ele>
        <time>2024-09-22T07:30:30Z</time>
      </trkpt>
      <trkpt lat="49.23471" lon="0.0975">
        <ele>142.2</ele>
        <time>2024-09-22T07:30:31Z</time>
      </trkpt>
      <trkpt lat="49.23466" lon="0.09758">
        <ele>142.2</ele>
        <time>2024-09-22T07:30:32Z</time>
      </trkpt>
      <trkpt lat="49.2346" lon="0.09767">
        <ele>142.2</ele>
        <time>2024-09-22T07:30:33Z</time>
      </trkpt>
      <trkpt lat="49.23455" lon="0.09775">
        <ele>142</ele>
        <time>2024-09-22T07:30:34Z</time>
      </trkpt>
      <trkpt lat="49.23449" lon="0.09784">
        <ele>142</ele>
        <time>2024-09-22T07:30:35Z</time>
      </trkpt>
      <trkpt lat="49.23443" lon="0.09793">
        <ele>142</ele>
        <time>2024-09-22T07:30:36Z</time>
      </trkpt>
      <trkpt lat="49.23437" lon="0.09802">
        <ele>141.6</ele>
        <time>2024-09-22T07:30:37Z</time>
      </trkpt>
      <trkpt lat="49.23431" lon="0.09811">
        <ele>141.2</ele>
        <time>2024-09-22T07:30:38Z</time>
      </trkpt>
      <trkpt lat="49.23425" lon="0.0982">
        <ele>140.6</ele>
        <time>2024-09-22T07:30:39Z</time>
      </trkpt>
      <trkpt lat="49.23419" lon="0.09829">
        <ele>140.2</ele>
        <time>2024-09-22T07:30:40Z</time>
      </trkpt>
      <trkpt lat="49.23413" lon="0.09837">
        <ele>140.2</ele>
        <time>2024-09-22T07:30:41Z</time>
      </trkpt>
      <trkpt lat="49.23408" lon="0.09846">
        <ele>139.8</ele>
        <time>2024-09-22T07:30:42Z</time>
      </trkpt>
      <trkpt lat="49.23402" lon="0.09856">
        <ele>139.6</ele>
        <time>2024-09-22T07:30:43Z</time>
      </trkpt>
      <trkpt lat="49.23395" lon="0.09864">
        <ele>139.4</ele>
        <time>2024-09-22T07:30:44Z</time>
      </trkpt>
      <trkpt lat="49.23389" lon="0.09873">
        <ele>139</ele>
        <time>2024-09-22T07:30:45Z</time>
      </trkpt>
      <trkpt lat="49.23382" lon="0.09882">
        <ele>139</ele>
        <time>2024-09-22T07:30:46Z</time>
      </trkpt>
      <trkpt lat="49.23376" lon="0.09891">
        <ele>138.8</ele>
        <time>2024-09-22T07:30:47Z</time>
      </trkpt>
      <trkpt lat="49.23369" lon="0.099">
        <ele>138.6</ele>
        <time>2024-09-22T07:30:48Z</time>
      </trkpt>
      <trkpt lat="49.23363" lon="0.09908">
        <ele>138.6</ele>
        <time>2024-09-22T07:30:49Z</time>
      </trkpt>
      <trkpt lat="49.23357" lon="0.09917">
        <ele>138.4</ele>
        <time>2024-09-22T07:30:50Z</time>
      </trkpt>
      <trkpt lat="49.23351" lon="0.09925">
        <ele>138.2</ele>
        <time>2024-09-22T07:30:51Z</time>
      </trkpt>
      <trkpt lat="49.23344" lon="0.09934">
        <ele>138.2</ele>
        <time>2024-09-22T07:30:52Z</time>
      </trkpt>
      <trkpt lat="49.23338" lon="0.09943">
        <ele>138.2</ele>
        <time>2024-09-22T07:30:53Z</time>
      </trkpt>
      <trkpt lat="49.23331" lon="0.09951">
        <ele>138.2</ele>
        <time>2024-09-22T07:30:54Z</time>
      </trkpt>
      <trkpt lat="49.23325" lon="0.0996">
        <ele>138</ele>
        <time>2024-09-22T07:30:55Z</time>
      </trkpt>
      <trkpt lat="49.23319" lon="0.09968">
        <ele>138</ele>
        <time>2024-09-22T07:30:56Z</time>
      </trkpt>
      <trkpt lat="49.23312" lon="0.09977">
        <ele>137.8</ele>
        <time>2024-09-22T07:30:57Z</time>
      </trkpt>
      <trkpt lat="49.23306" lon="0.09985">
        <ele>137.6</ele>
        <time>2024-09-22T07:30:58Z</time>
      </trkpt>
      <trkpt lat="49.23299" lon="0.09993">
        <ele>137.6</ele>
        <time>2024-09-22T07:30:59Z</time>
      </trkpt>
      <trkpt lat="49.23292" lon="0.10001">
        <ele>137.6</ele>
        <time>2024-09-22T07:31:00Z</time>
      </trkpt>
      <trkpt lat="49.23286" lon="0.1001">
        <ele>137.6</ele>
        <time>2024-09-22T07:31:01Z</time>
      </trkpt>
      <trkpt lat="49.23278" lon="0.10019">
        <ele>137.6</ele>
        <time>2024-09-22T07:31:02Z</time>
      </trkpt>
      <trkpt lat="49.23271" lon="0.10027">
        <ele>137.6</ele>
        <time>2024-09-22T07:31:03Z</time>
      </trkpt>
      <trkpt lat="49.23264" lon="0.10035">
        <ele>137.6</ele>
        <time>2024-09-22T07:31:04Z</time>
      </trkpt>
      <trkpt lat="49.23256" lon="0.10043">
        <ele>137.6</ele>
        <time>2024-09-22T07:31:05Z</time>
      </trkpt>
      <trkpt lat="49.23248" lon="0.10049">
        <ele>137.4</ele>
        <time>2024-09-22T07:31:06Z</time>
      </trkpt>
      <trkpt lat="49.23239" lon="0.10056">
        <ele>137.4</ele>
        <time>2024-09-22T07:31:07Z</time>
      </trkpt>
      <trkpt lat="49.23231" lon="0.10062">
        <ele>137.4</ele>
        <time>2024-09-22T07:31:08Z</time>
      </trkpt>
      <trkpt lat="49.23223" lon="0.10068">
        <ele>137.2</ele>
        <time>2024-09-22T07:31:09Z</time>
      </trkpt>
      <trkpt lat="49.23214" lon="0.10074">
        <ele>137.2</ele>
        <time>2024-09-22T07:31:10Z</time>
      </trkpt>
      <trkpt lat="49.23205" lon="0.10079">
        <ele>137</ele>
        <time>2024-09-22T07:31:11Z</time>
      </trkpt>
      <trkpt lat="49.23195" lon="0.10082">
        <ele>137</ele>
        <time>2024-09-22T07:31:12Z</time>
      </trkpt>
      <trkpt lat="49.23184" lon="0.10085">
        <ele>137</ele>
        <time>2024-09-22T07:31:13Z</time>
      </trkpt>
      <trkpt lat="49.23173" lon="0.10087">
        <ele>136.8</ele>
        <time>2024-09-22T07:31:14Z</time>
      </trkpt>
      <trkpt lat="49.23162" lon="0.1009">
        <ele>136.4</ele>
        <time>2024-09-22T07:31:15Z</time>
      </trkpt>
      <trkpt lat="49.23151" lon="0.10092">
        <ele>136</ele>
        <time>2024-09-22T07:31:16Z</time>
      </trkpt>
      <trkpt lat="49.23139" lon="0.10096">
        <ele>135.6</ele>
        <time>2024-09-22T07:31:17Z</time>
      </trkpt>
      <trkpt lat="49.23125" lon="0.10101">
        <ele>135</ele>
        <time>2024-09-22T07:31:18Z</time>
      </trkpt>
      <trkpt lat="49.23116" lon="0.10106">
        <ele>134.4</ele>
        <time>2024-09-22T07:31:19Z</time>
      </trkpt>
      <trkpt lat="49.23105" lon="0.10113">
        <ele>133.4</ele>
        <time>2024-09-22T07:31:20Z</time>
      </trkpt>
      <trkpt lat="49.23094" lon="0.10121">
        <ele>133.4</ele>
        <time>2024-09-22T07:31:21Z</time>
      </trkpt>
      <trkpt lat="49.23084" lon="0.1013">
        <ele>132.6</ele>
        <time>2024-09-22T07:31:22Z</time>
      </trkpt>
      <trkpt lat="49.23076" lon="0.10139">
        <ele>131.6</ele>
        <time>2024-09-22T07:31:23Z</time>
      </trkpt>
      <trkpt lat="49.23069" lon="0.10148">
        <ele>130.4</ele>
        <time>2024-09-22T07:31:24Z</time>
      </trkpt>
      <trkpt lat="49.23062" lon="0.10157">
        <ele>129.6</ele>
        <time>2024-09-22T07:31:25Z</time>
      </trkpt>
      <trkpt lat="49.23057" lon="0.10167">
        <ele>129.2</ele>
        <time>2024-09-22T07:31:26Z</time>
      </trkpt>
      <trkpt lat="49.23052" lon="0.10176">
        <ele>129</ele>
        <time>2024-09-22T07:31:27Z</time>
      </trkpt>
      <trkpt lat="49.23048" lon="0.10183">
        <ele>129</ele>
        <time>2024-09-22T07:31:28Z</time>
      </trkpt>
      <trkpt lat="49.23045" lon="0.10189">
        <ele>129</ele>
        <time>2024-09-22T07:31:29Z</time>
      </trkpt>
      <trkpt lat="49.23042" lon="0.10195">
        <ele>128.8</ele>
        <time>2024-09-22T07:31:30Z</time>
      </trkpt>
      <trkpt lat="49.2304" lon="0.10202">
        <ele>128.8</ele>
        <time>2024-09-22T07:31:31Z</time>
      </trkpt>
      <trkpt lat="49.23037" lon="0.10208">
        <ele>128.8</ele>
        <time>2024-09-22T07:31:32Z</time>
      </trkpt>
      <trkpt lat="49.23035" lon="0.10215">
        <ele>128.8</ele>
        <time>2024-09-22T07:31:33Z</time>
      </trkpt>
      <trkpt lat="49.23032" lon="0.1022">
        <ele>128.8</ele>
        <time>2024-09-22T07:31:34Z</time>
      </trkpt>
      <trkpt lat="49.23029" lon="0.10226">
        <ele>129.2</ele>
        <time>2024-09-22T07:31:35Z</time>
      </trkpt>
      <trkpt lat="49.23026" lon="0.10233">
        <ele>129.8</ele>
        <time>2024-09-22T07:31:36Z</time>
      </trkpt>
      <trkpt lat="49.23023" lon="0.1024">
        <ele>130.4</ele>
        <time>2024-09-22T07:31:37Z</time>
      </trkpt>
      <trkpt lat="49.2302" lon="0.10247">
        <ele>131</ele>
        <time>2024-09-22T07:31:38Z</time>
      </trkpt>
      <trkpt lat="49.23017" lon="0.10255">
        <ele>131.8</ele>
        <time>2024-09-22T07:31:39Z</time>
      </trkpt>
      <trkpt lat="49.23014" lon="0.10263">
        <ele>132.2</ele>
        <time>2024-09-22T07:31:40Z</time>
      </trkpt>
      <trkpt lat="49.23011" lon="0.1027">
        <ele>132.6</ele>
        <time>2024-09-22T07:31:41Z</time>
      </trkpt>
      <trkpt lat="49.23008" lon="0.10278">
        <ele>132.6</ele>
        <time>2024-09-22T07:31:42Z</time>
      </trkpt>
      <trkpt lat="49.23005" lon="0.10285">
        <ele>133</ele>
        <time>2024-09-22T07:31:43Z</time>
      </trkpt>
      <trkpt lat="49.23002" lon="0.10293">
        <ele>133.4</ele>
        <time>2024-09-22T07:31:44Z</time>
      </trkpt>
      <trkpt lat="49.22999" lon="0.10301">
        <ele>133.8</ele>
        <time>2024-09-22T07:31:45Z</time>
      </trkpt>
      <trkpt lat="49.22996" lon="0.10309">
        <ele>134.2</ele>
        <time>2024-09-22T07:31:46Z</time>
      </trkpt>
      <trkpt lat="49.22993" lon="0.10318">
        <ele>134.6</ele>
        <time>2024-09-22T07:31:47Z</time>
      </trkpt>
      <trkpt lat="49.2299" lon="0.10326">
        <ele>135.2</ele>
        <time>2024-09-22T07:31:48Z</time>
      </trkpt>
      <trkpt lat="49.22987" lon="0.10334">
        <ele>135.4</ele>
        <time>2024-09-22T07:31:49Z</time>
      </trkpt>
      <trkpt lat="49.22985" lon="0.10341">
        <ele>135.8</ele>
        <time>2024-09-22T07:31:50Z</time>
      </trkpt>
      <trkpt lat="49.22982" lon="0.10348">
        <ele>136</ele>
        <time>2024-09-22T07:31:51Z</time>
      </trkpt>
      <trkpt lat="49.2298" lon="0.10355">
        <ele>136.4</ele>
        <time>2024-09-22T07:31:52Z</time>
      </trkpt>
      <trkpt lat="49.22977" lon="0.10362">
        <ele>136.8</ele>
        <time>2024-09-22T07:31:53Z</time>
      </trkpt>
      <trkpt lat="49.22974" lon="0.1037">
        <ele>137.2</ele>
        <time>2024-09-22T07:31:54Z</time>
      </trkpt>
      <trkpt lat="49.22971" lon="0.10377">
        <ele>137.4</ele>
        <time>2024-09-22T07:31:55Z</time>
      </trkpt>
      <trkpt lat="49.22968" lon="0.10385">
        <ele>137.6</ele>
        <time>2024-09-22T07:31:56Z</time>
      </trkpt>
      <trkpt lat="49.22965" lon="0.10393">
        <ele>138.2</ele>
        <time>2024-09-22T07:31:57Z</time>
      </trkpt>
      <trkpt lat="49.22962" lon="0.10401">
        <ele>138.2</ele>
        <time>2024-09-22T07:31:58Z</time>
      </trkpt>
      <trkpt lat="49.22959" lon="0.10409">
        <ele>138.8</ele>
        <time>2024-09-22T07:31:59Z</time>
      </trkpt>
      <trkpt lat="49.22956" lon="0.10417">
        <ele>139.2</ele>
        <time>2024-09-22T07:32:00Z</time>
      </trkpt>
      <trkpt lat="49.22953" lon="0.10425">
        <ele>139.6</ele>
        <time>2024-09-22T07:32:01Z</time>
      </trkpt>
      <trkpt lat="49.2295" lon="0.10432">
        <ele>139.6</ele>
        <time>2024-09-22T07:32:02Z</time>
      </trkpt>
      <trkpt lat="49.22947" lon="0.1044">
        <ele>139.8</ele>
        <time>2024-09-22T07:32:03Z</time>
      </trkpt>
      <trkpt lat="49.22944" lon="0.10447">
        <ele>140</ele>
        <time>2024-09-22T07:32:04Z</time>
      </trkpt>
      <trkpt lat="49.22941" lon="0.10455">
        <ele>140.2</ele>
        <time>2024-09-22T07:32:05Z</time>
      </trkpt>
      <trkpt lat="49.22937" lon="0.10463">
        <ele>140.4</ele>
        <time>2024-09-22T07:32:06Z</time>
      </trkpt>
      <trkpt lat="49.22934" lon="0.10471">
        <ele>140.8</ele>
        <time>2024-09-22T07:32:07Z</time>
      </trkpt>
      <trkpt lat="49.22931" lon="0.10479">
        <ele>141</ele>
        <time>2024-09-22T07:32:08Z</time>
      </trkpt>
      <trkpt lat="49.22928" lon="0.10487">
        <ele>141.2</ele>
        <time>2024-09-22T07:32:09Z</time>
      </trkpt>
      <trkpt lat="49.22924" lon="0.10496">
        <ele>141.2</ele>
        <time>2024-09-22T07:32:10Z</time>
      </trkpt>
      <trkpt lat="49.22921" lon="0.10504">
        <ele>141.2</ele>
        <time>2024-09-22T07:32:11Z</time>
      </trkpt>
      <trkpt lat="49.22918" lon="0.10513">
        <ele>141.4</ele>
        <time>2024-09-22T07:32:12Z</time>
      </trkpt>
      <trkpt lat="49.22915" lon="0.10522">
        <ele>141.6</ele>
        <time>2024-09-22T07:32:13Z</time>
      </trkpt>
      <trkpt lat="49.22912" lon="0.10531">
        <ele>141.6</ele>
        <time>2024-09-22T07:32:14Z</time>
      </trkpt>
      <trkpt lat="49.22908" lon="0.1054">
        <ele>141.6</ele>
        <time>2024-09-22T07:32:15Z</time>
      </trkpt>
      <trkpt lat="49.22905" lon="0.10548">
        <ele>141.6</ele>
        <time>2024-09-22T07:32:16Z</time>
      </trkpt>
      <trkpt lat="49.22901" lon="0.10557">
        <ele>141.6</ele>
        <time>2024-09-22T07:32:17Z</time>
      </trkpt>
      <trkpt lat="49.22898" lon="0.10566">
        <ele>141.6</ele>
        <time>2024-09-22T07:32:18Z</time>
      </trkpt>
      <trkpt lat="49.22894" lon="0.10575">
        <ele>141.6</ele>
        <time>2024-09-22T07:32:19Z</time>
      </trkpt>
      <trkpt lat="49.2289" lon="0.10585">
        <ele>141.6</ele>
        <time>2024-09-22T07:32:20Z</time>
      </trkpt>
      <trkpt lat="49.22887" lon="0.10595">
        <ele>141.6</ele>
        <time>2024-09-22T07:32:21Z</time>
      </trkpt>
      <trkpt lat="49.22883" lon="0.10604">
        <ele>141.6</ele>
        <time>2024-09-22T07:32:22Z</time>
      </trkpt>
      <trkpt lat="49.22879" lon="0.10613">
        <ele>141.6</ele>
        <time>2024-09-22T07:32:23Z</time>
      </trkpt>
      <trkpt lat="49.22876" lon="0.10622">
        <ele>141.6</ele>
        <time>2024-09-22T07:32:24Z</time>
      </trkpt>
      <trkpt lat="49.22872" lon="0.10633">
        <ele>141.6</ele>
        <time>2024-09-22T07:32:25Z</time>
      </trkpt>
      <trkpt lat="49.22868" lon="0.10643">
        <ele>141.6</ele>
        <time>2024-09-22T07:32:26Z</time>
      </trkpt>
      <trkpt lat="49.22865" lon="0.10653">
        <ele>141.4</ele>
        <time>2024-09-22T07:32:27Z</time>
      </trkpt>
      <trkpt lat="49.22861" lon="0.10664">
        <ele>141.2</ele>
        <time>2024-09-22T07:32:28Z</time>
      </trkpt>
      <trkpt lat="49.22857" lon="0.10674">
        <ele>141.2</ele>
        <time>2024-09-22T07:32:29Z</time>
      </trkpt>
      <trkpt lat="49.22853" lon="0.10685">
        <ele>141</ele>
        <time>2024-09-22T07:32:30Z</time>
      </trkpt>
      <trkpt lat="49.22849" lon="0.10695">
        <ele>140.8</ele>
        <time>2024-09-22T07:32:31Z</time>
      </trkpt>
      <trkpt lat="49.22845" lon="0.10706">
        <ele>140.8</ele>
        <time>2024-09-22T07:32:32Z</time>
      </trkpt>
      <trkpt lat="49.22841" lon="0.10717">
        <ele>140.6</ele>
        <time>2024-09-22T07:32:33Z</time>
      </trkpt>
      <trkpt lat="49.22837" lon="0.10727">
        <ele>140.6</ele>
        <time>2024-09-22T07:32:34Z</time>
      </trkpt>
      <trkpt lat="49.22833" lon="0.10738">
        <ele>140.2</ele>
        <time>2024-09-22T07:32:35Z</time>
      </trkpt>
      <trkpt lat="49.22829" lon="0.10749">
        <ele>140</ele>
        <time>2024-09-22T07:32:36Z</time>
      </trkpt>
      <trkpt lat="49.22825" lon="0.1076">
        <ele>139.8</ele>
        <time>2024-09-22T07:32:37Z</time>
      </trkpt>
      <trkpt lat="49.22821" lon="0.10771">
        <ele>139.6</ele>
        <time>2024-09-22T07:32:38Z</time>
      </trkpt>
      <trkpt lat="49.22816" lon="0.10781">
        <ele>139.4</ele>
        <time>2024-09-22T07:32:39Z</time>
      </trkpt>
      <trkpt lat="49.22811" lon="0.10792">
        <ele>139.2</ele>
        <time>2024-09-22T07:32:40Z</time>
      </trkpt>
      <trkpt lat="49.22806" lon="0.10802">
        <ele>139</ele>
        <time>2024-09-22T07:32:41Z</time>
      </trkpt>
      <trkpt lat="49.228" lon="0.10812">
        <ele>139</ele>
        <time>2024-09-22T07:32:42Z</time>
      </trkpt>
      <trkpt lat="49.22795" lon="0.10822">
        <ele>138.8</ele>
        <time>2024-09-22T07:32:43Z</time>
      </trkpt>
      <trkpt lat="49.2279" lon="0.10833">
        <ele>138.6</ele>
        <time>2024-09-22T07:32:44Z</time>
      </trkpt>
      <trkpt lat="49.22785" lon="0.10844">
        <ele>138.4</ele>
        <time>2024-09-22T07:32:45Z</time>
      </trkpt>
      <trkpt lat="49.2278" lon="0.10854">
        <ele>138.2</ele>
        <time>2024-09-22T07:32:46Z</time>
      </trkpt>
      <trkpt lat="49.22775" lon="0.10865">
        <ele>138</ele>
        <time>2024-09-22T07:32:47Z</time>
      </trkpt>
      <trkpt lat="49.22771" lon="0.10875">
        <ele>138</ele>
        <time>2024-09-22T07:32:48Z</time>
      </trkpt>
      <trkpt lat="49.22766" lon="0.10885">
        <ele>137.6</ele>
        <time>2024-09-22T07:32:49Z</time>
      </trkpt>
      <trkpt lat="49.22762" lon="0.10895">
        <ele>137.4</ele>
        <time>2024-09-22T07:32:50Z</time>
      </trkpt>
      <trkpt lat="49.22757" lon="0.10905">
        <ele>137.2</ele>
        <time>2024-09-22T07:32:51Z</time>
      </trkpt>
      <trkpt lat="49.22753" lon="0.10914">
        <ele>137</ele>
        <time>2024-09-22T07:32:52Z</time>
      </trkpt>
      <trkpt lat="49.22749" lon="0.10924">
        <ele>137</ele>
        <time>2024-09-22T07:32:53Z</time>
      </trkpt>
      <trkpt lat="49.22745" lon="0.10933">
        <ele>137</ele>
        <time>2024-09-22T07:32:54Z</time>
      </trkpt>
      <trkpt lat="49.22741" lon="0.10942">
        <ele>137</ele>
        <time>2024-09-22T07:32:55Z</time>
      </trkpt>
      <trkpt lat="49.22736" lon="0.10952">
        <ele>137</ele>
        <time>2024-09-22T07:32:56Z</time>
      </trkpt>
      <trkpt lat="49.22732" lon="0.10961">
        <ele>137</ele>
        <time>2024-09-22T07:32:57Z</time>
      </trkpt>
      <trkpt lat="49.22729" lon="0.10971">
        <ele>137</ele>
        <time>2024-09-22T07:32:58Z</time>
      </trkpt>
      <trkpt lat="49.22726" lon="0.1098">
        <ele>137</ele>
        <time>2024-09-22T07:32:59Z</time>
      </trkpt>
      <trkpt lat="49.22722" lon="0.1099">
        <ele>137</ele>
        <time>2024-09-22T07:33:00Z</time>
      </trkpt>
      <trkpt lat="49.22718" lon="0.10999">
        <ele>137</ele>
        <time>2024-09-22T07:33:01Z</time>
      </trkpt>
      <trkpt lat="49.22715" lon="0.11008">
        <ele>137</ele>
        <time>2024-09-22T07:33:02Z</time>
      </trkpt>
      <trkpt lat="49.22712" lon="0.11017">
        <ele>137</ele>
        <time>2024-09-22T07:33:03Z</time>
      </trkpt>
      <trkpt lat="49.22708" lon="0.11026">
        <ele>137</ele>
        <time>2024-09-22T07:33:04Z</time>
      </trkpt>
      <trkpt lat="49.22704" lon="0.11035">
        <ele>137.2</ele>
        <time>2024-09-22T07:33:05Z</time>
      </trkpt>
      <trkpt lat="49.227" lon="0.11044">
        <ele>137.6</ele>
        <time>2024-09-22T07:33:06Z</time>
      </trkpt>
      <trkpt lat="49.22696" lon="0.11053">
        <ele>137.8</ele>
        <time>2024-09-22T07:33:07Z</time>
      </trkpt>
      <trkpt lat="49.22692" lon="0.11062">
        <ele>138</ele>
        <time>2024-09-22T07:33:08Z</time>
      </trkpt>
      <trkpt lat="49.22687" lon="0.1107">
        <ele>138.4</ele>
        <time>2024-09-22T07:33:09Z</time>
      </trkpt>
      <trkpt lat="49.22683" lon="0.11078">
        <ele>138.6</ele>
        <time>2024-09-22T07:33:10Z</time>
      </trkpt>
      <trkpt lat="49.22679" lon="0.11087">
        <ele>138.8</ele>
        <time>2024-09-22T07:33:11Z</time>
      </trkpt>
      <trkpt lat="49.22676" lon="0.11095">
        <ele>138.8</ele>
        <time>2024-09-22T07:33:12Z</time>
      </trkpt>
      <trkpt lat="49.22672" lon="0.11103">
        <ele>139</ele>
        <time>2024-09-22T07:33:13Z</time>
      </trkpt>
      <trkpt lat="49.22668" lon="0.11112">
        <ele>139</ele>
        <time>2024-09-22T07:33:14Z</time>
      </trkpt>
      <trkpt lat="49.22665" lon="0.1112">
        <ele>139.2</ele>
        <time>2024-09-22T07:33:15Z</time>
      </trkpt>
      <trkpt lat="49.22662" lon="0.11129">
        <ele>139.4</ele>
        <time>2024-09-22T07:33:16Z</time>
      </trkpt>
      <trkpt lat="49.22658" lon="0.11137">
        <ele>139.6</ele>
        <time>2024-09-22T07:33:17Z</time>
      </trkpt>
      <trkpt lat="49.22655" lon="0.11146">
        <ele>139.6</ele>
        <time>2024-09-22T07:33:18Z</time>
      </trkpt>
      <trkpt lat="49.22651" lon="0.11154">
        <ele>139.6</ele>
        <time>2024-09-22T07:33:19Z</time>
      </trkpt>
      <trkpt lat="49.22648" lon="0.11162">
        <ele>139.8</ele>
        <time>2024-09-22T07:33:20Z</time>
      </trkpt>
      <trkpt lat="49.22644" lon="0.11171">
        <ele>139.8</ele>
        <time>2024-09-22T07:33:21Z</time>
      </trkpt>
      <trkpt lat="49.2264" lon="0.11179">
        <ele>139.8</ele>
        <time>2024-09-22T07:33:22Z</time>
      </trkpt>
      <trkpt lat="49.22636" lon="0.11188">
        <ele>139.8</ele>
        <time>2024-09-22T07:33:23Z</time>
      </trkpt>
      <trkpt lat="49.22632" lon="0.11197">
        <ele>139.8</ele>
        <time>2024-09-22T07:33:24Z</time>
      </trkpt>
      <trkpt lat="49.22628" lon="0.11205">
        <ele>139.8</ele>
        <time>2024-09-22T07:33:25Z</time>
      </trkpt>
      <trkpt lat="49.22624" lon="0.11214">
        <ele>139.8</ele>
        <time>2024-09-22T07:33:26Z</time>
      </trkpt>
      <trkpt lat="49.2262" lon="0.11223">
        <ele>139.8</ele>
        <time>2024-09-22T07:33:27Z</time>
      </trkpt>
      <trkpt lat="49.22617" lon="0.11233">
        <ele>139.8</ele>
        <time>2024-09-22T07:33:28Z</time>
      </trkpt>
      <trkpt lat="49.22613" lon="0.11242">
        <ele>139.8</ele>
        <time>2024-09-22T07:33:29Z</time>
      </trkpt>
      <trkpt lat="49.22609" lon="0.11251">
        <ele>139.8</ele>
        <time>2024-09-22T07:33:30Z</time>
      </trkpt>
      <trkpt lat="49.22606" lon="0.11259">
        <ele>139.8</ele>
        <time>2024-09-22T07:33:31Z</time>
      </trkpt>
      <trkpt lat="49.22603" lon="0.11268">
        <ele>139.8</ele>
        <time>2024-09-22T07:33:32Z</time>
      </trkpt>
      <trkpt lat="49.22599" lon="0.11277">
        <ele>139.8</ele>
        <time>2024-09-22T07:33:33Z</time>
      </trkpt>
      <trkpt lat="49.22594" lon="0.11286">
        <ele>139.8</ele>
        <time>2024-09-22T07:33:34Z</time>
      </trkpt>
      <trkpt lat="49.2259" lon="0.11295">
        <ele>139.6</ele>
        <time>2024-09-22T07:33:35Z</time>
      </trkpt>
      <trkpt lat="49.22586" lon="0.11303">
        <ele>139.6</ele>
        <time>2024-09-22T07:33:36Z</time>
      </trkpt>
      <trkpt lat="49.22581" lon="0.11312">
        <ele>139.6</ele>
        <time>2024-09-22T07:33:37Z</time>
      </trkpt>
      <trkpt lat="49.22578" lon="0.1132">
        <ele>139.6</ele>
        <time>2024-09-22T07:33:38Z</time>
      </trkpt>
      <trkpt lat="49.22574" lon="0.11329">
        <ele>139.6</ele>
        <time>2024-09-22T07:33:39Z</time>
      </trkpt>
      <trkpt lat="49.2257" lon="0.11337">
        <ele>139.6</ele>
        <time>2024-09-22T07:33:40Z</time>
      </trkpt>
      <trkpt lat="49.22566" lon="0.11346">
        <ele>139.6</ele>
        <time>2024-09-22T07:33:41Z</time>
      </trkpt>
      <trkpt lat="49.22562" lon="0.11355">
        <ele>139.6</ele>
        <time>2024-09-22T07:33:42Z</time>
      </trkpt>
      <trkpt lat="49.22557" lon="0.11365">
        <ele>139.6</ele>
        <time>2024-09-22T07:33:43Z</time>
      </trkpt>
      <trkpt lat="49.22552" lon="0.11375">
        <ele>139.6</ele>
        <time>2024-09-22T07:33:44Z</time>
      </trkpt>
      <trkpt lat="49.22547" lon="0.11385">
        <ele>139.6</ele>
        <time>2024-09-22T07:33:45Z</time>
      </trkpt>
      <trkpt lat="49.22542" lon="0.11396">
        <ele>139.6</ele>
        <time>2024-09-22T07:33:46Z</time>
      </trkpt>
      <trkpt lat="49.22537" lon="0.11406">
        <ele>139.6</ele>
        <time>2024-09-22T07:33:47Z</time>
      </trkpt>
      <trkpt lat="49.22532" lon="0.11417">
        <ele>139.6</ele>
        <time>2024-09-22T07:33:48Z</time>
      </trkpt>
      <trkpt lat="49.22528" lon="0.11428">
        <ele>139.6</ele>
        <time>2024-09-22T07:33:49Z</time>
      </trkpt>
      <trkpt lat="49.22523" lon="0.11438">
        <ele>139.6</ele>
        <time>2024-09-22T07:33:50Z</time>
      </trkpt>
      <trkpt lat="49.22519" lon="0.11449">
        <ele>139.4</ele>
        <time>2024-09-22T07:33:51Z</time>
      </trkpt>
      <trkpt lat="49.22514" lon="0.11458">
        <ele>139.4</ele>
        <time>2024-09-22T07:33:52Z</time>
      </trkpt>
      <trkpt lat="49.2251" lon="0.11468">
        <ele>139.4</ele>
        <time>2024-09-22T07:33:53Z</time>
      </trkpt>
      <trkpt lat="49.22505" lon="0.11477">
        <ele>139.4</ele>
        <time>2024-09-22T07:33:54Z</time>
      </trkpt>
      <trkpt lat="49.22501" lon="0.11486">
        <ele>139.4</ele>
        <time>2024-09-22T07:33:55Z</time>
      </trkpt>
      <trkpt lat="49.22497" lon="0.11496">
        <ele>139.4</ele>
        <time>2024-09-22T07:33:56Z</time>
      </trkpt>
      <trkpt lat="49.22492" lon="0.11505">
        <ele>139.2</ele>
        <time>2024-09-22T07:33:57Z</time>
      </trkpt>
      <trkpt lat="49.22488" lon="0.11514">
        <ele>139.2</ele>
        <time>2024-09-22T07:33:58Z</time>
      </trkpt>
      <trkpt lat="49.22483" lon="0.11523">
        <ele>139.2</ele>
        <time>2024-09-22T07:33:59Z</time>
      </trkpt>
      <trkpt lat="49.22479" lon="0.11532">
        <ele>139.2</ele>
        <time>2024-09-22T07:34:00Z</time>
      </trkpt>
      <trkpt lat="49.22475" lon="0.11541">
        <ele>139.2</ele>
        <time>2024-09-22T07:34:01Z</time>
      </trkpt>
      <trkpt lat="49.2247" lon="0.1155">
        <ele>139.2</ele>
        <time>2024-09-22T07:34:02Z</time>
      </trkpt>
      <trkpt lat="49.22466" lon="0.11559">
        <ele>139.2</ele>
        <time>2024-09-22T07:34:03Z</time>
      </trkpt>
      <trkpt lat="49.22462" lon="0.11568">
        <ele>139</ele>
        <time>2024-09-22T07:34:04Z</time>
      </trkpt>
      <trkpt lat="49.22457" lon="0.11577">
        <ele>139</ele>
        <time>2024-09-22T07:34:05Z</time>
      </trkpt>
      <trkpt lat="49.22452" lon="0.11586">
        <ele>139</ele>
        <time>2024-09-22T07:34:06Z</time>
      </trkpt>
      <trkpt lat="49.22448" lon="0.11595">
        <ele>138.8</ele>
        <time>2024-09-22T07:34:07Z</time>
      </trkpt>
      <trkpt lat="49.22444" lon="0.11604">
        <ele>138.6</ele>
        <time>2024-09-22T07:34:08Z</time>
      </trkpt>
      <trkpt lat="49.22438" lon="0.11613">
        <ele>138.6</ele>
        <time>2024-09-22T07:34:09Z</time>
      </trkpt>
      <trkpt lat="49.22434" lon="0.11623">
        <ele>138.4</ele>
        <time>2024-09-22T07:34:10Z</time>
      </trkpt>
      <trkpt lat="49.22429" lon="0.11632">
        <ele>138.4</ele>
        <time>2024-09-22T07:34:11Z</time>
      </trkpt>
      <trkpt lat="49.22424" lon="0.11642">
        <ele>138.2</ele>
        <time>2024-09-22T07:34:12Z</time>
      </trkpt>
      <trkpt lat="49.2242" lon="0.11651">
        <ele>138.2</ele>
        <time>2024-09-22T07:34:13Z</time>
      </trkpt>
      <trkpt lat="49.22415" lon="0.11661">
        <ele>138.2</ele>
        <time>2024-09-22T07:34:14Z</time>
      </trkpt>
      <trkpt lat="49.2241" lon="0.1167">
        <ele>138</ele>
        <time>2024-09-22T07:34:15Z</time>
      </trkpt>
      <trkpt lat="49.22405" lon="0.1168">
        <ele>138</ele>
        <time>2024-09-22T07:34:16Z</time>
      </trkpt>
      <trkpt lat="49.224" lon="0.1169">
        <ele>138</ele>
        <time>2024-09-22T07:34:17Z</time>
      </trkpt>
      <trkpt lat="49.22395" lon="0.11699">
        <ele>138</ele>
        <time>2024-09-22T07:34:18Z</time>
      </trkpt>
      <trkpt lat="49.22391" lon="0.11709">
        <ele>137.8</ele>
        <time>2024-09-22T07:34:19Z</time>
      </trkpt>
      <trkpt lat="49.22386" lon="0.1172">
        <ele>137.8</ele>
        <time>2024-09-22T07:34:20Z</time>
      </trkpt>
      <trkpt lat="49.22382" lon="0.11731">
        <ele>137.8</ele>
        <time>2024-09-22T07:34:21Z</time>
      </trkpt>
      <trkpt lat="49.22379" lon="0.11742">
        <ele>137.8</ele>
        <time>2024-09-22T07:34:22Z</time>
      </trkpt>
      <trkpt lat="49.22375" lon="0.11753">
        <ele>137.8</ele>
        <time>2024-09-22T07:34:23Z</time>
      </trkpt>
      <trkpt lat="49.22371" lon="0.11764">
        <ele>137.6</ele>
        <time>2024-09-22T07:34:24Z</time>
      </trkpt>
      <trkpt lat="49.22368" lon="0.11776">
        <ele>137.6</ele>
        <time>2024-09-22T07:34:25Z</time>
      </trkpt>
      <trkpt lat="49.22364" lon="0.11787">
        <ele>137.4</ele>
        <time>2024-09-22T07:34:26Z</time>
      </trkpt>
      <trkpt lat="49.22361" lon="0.11798">
        <ele>137.4</ele>
        <time>2024-09-22T07:34:27Z</time>
      </trkpt>
      <trkpt lat="49.22357" lon="0.11809">
        <ele>137.2</ele>
        <time>2024-09-22T07:34:28Z</time>
      </trkpt>
      <trkpt lat="49.22354" lon="0.1182">
        <ele>137.2</ele>
        <time>2024-09-22T07:34:29Z</time>
      </trkpt>
      <trkpt lat="49.22351" lon="0.1183">
        <ele>137</ele>
        <time>2024-09-22T07:34:30Z</time>
      </trkpt>
      <trkpt lat="49.22348" lon="0.1184">
        <ele>137</ele>
        <time>2024-09-22T07:34:31Z</time>
      </trkpt>
      <trkpt lat="49.22344" lon="0.1185">
        <ele>137</ele>
        <time>2024-09-22T07:34:32Z</time>
      </trkpt>
      <trkpt lat="49.22341" lon="0.1186">
        <ele>137</ele>
        <time>2024-09-22T07:34:33Z</time>
      </trkpt>
      <trkpt lat="49.22337" lon="0.1187">
        <ele>137</ele>
        <time>2024-09-22T07:34:34Z</time>
      </trkpt>
      <trkpt lat="49.22334" lon="0.11881">
        <ele>137</ele>
        <time>2024-09-22T07:34:35Z</time>
      </trkpt>
      <trkpt lat="49.22331" lon="0.11891">
        <ele>137</ele>
        <time>2024-09-22T07:34:36Z</time>
      </trkpt>
      <trkpt lat="49.22328" lon="0.11902">
        <ele>137</ele>
        <time>2024-09-22T07:34:37Z</time>
      </trkpt>
      <trkpt lat="49.22325" lon="0.11912">
        <ele>137</ele>
        <time>2024-09-22T07:34:38Z</time>
      </trkpt>
      <trkpt lat="49.22321" lon="0.11922">
        <ele>137</ele>
        <time>2024-09-22T07:34:39Z</time>
      </trkpt>
      <trkpt lat="49.22318" lon="0.11933">
        <ele>137</ele>
        <time>2024-09-22T07:34:40Z</time>
      </trkpt>
      <trkpt lat="49.22314" lon="0.11943">
        <ele>137</ele>
        <time>2024-09-22T07:34:41Z</time>
      </trkpt>
      <trkpt lat="49.22311" lon="0.11953">
        <ele>137.2</ele>
        <time>2024-09-22T07:34:42Z</time>
      </trkpt>
      <trkpt lat="49.22308" lon="0.11964">
        <ele>137.2</ele>
        <time>2024-09-22T07:34:43Z</time>
      </trkpt>
      <trkpt lat="49.22304" lon="0.11974">
        <ele>137.4</ele>
        <time>2024-09-22T07:34:44Z</time>
      </trkpt>
      <trkpt lat="49.22301" lon="0.11984">
        <ele>137.4</ele>
        <time>2024-09-22T07:34:45Z</time>
      </trkpt>
      <trkpt lat="49.22298" lon="0.11995">
        <ele>137.6</ele>
        <time>2024-09-22T07:34:46Z</time>
      </trkpt>
      <trkpt lat="49.22295" lon="0.12005">
        <ele>137.6</ele>
        <time>2024-09-22T07:34:47Z</time>
      </trkpt>
      <trkpt lat="49.22291" lon="0.12016">
        <ele>137.8</ele>
        <time>2024-09-22T07:34:48Z</time>
      </trkpt>
      <trkpt lat="49.22288" lon="0.12026">
        <ele>137.8</ele>
        <time>2024-09-22T07:34:49Z</time>
      </trkpt>
      <trkpt lat="49.22285" lon="0.12036">
        <ele>138</ele>
        <time>2024-09-22T07:34:50Z</time>
      </trkpt>
      <trkpt lat="49.22281" lon="0.12046">
        <ele>138.2</ele>
        <time>2024-09-22T07:34:51Z</time>
      </trkpt>
      <trkpt lat="49.22278" lon="0.12056">
        <ele>138.2</ele>
        <time>2024-09-22T07:34:52Z</time>
      </trkpt>
      <trkpt lat="49.22275" lon="0.12066">
        <ele>138.4</ele>
        <time>2024-09-22T07:34:53Z</time>
      </trkpt>
      <trkpt lat="49.22272" lon="0.12077">
        <ele>138.6</ele>
        <time>2024-09-22T07:34:54Z</time>
      </trkpt>
      <trkpt lat="49.22268" lon="0.12086">
        <ele>138.6</ele>
        <time>2024-09-22T07:34:55Z</time>
      </trkpt>
      <trkpt lat="49.22265" lon="0.12097">
        <ele>138.8</ele>
        <time>2024-09-22T07:34:56Z</time>
      </trkpt>
      <trkpt lat="49.22262" lon="0.12107">
        <ele>138.8</ele>
        <time>2024-09-22T07:34:57Z</time>
      </trkpt>
      <trkpt lat="49.22259" lon="0.12117">
        <ele>138.8</ele>
        <time>2024-09-22T07:34:58Z</time>
      </trkpt>
      <trkpt lat="49.22256" lon="0.12127">
        <ele>138.8</ele>
        <time>2024-09-22T07:34:59Z</time>
      </trkpt>
      <trkpt lat="49.22253" lon="0.12137">
        <ele>138.8</ele>
        <time>2024-09-22T07:35:00Z</time>
      </trkpt>
      <trkpt lat="49.22249" lon="0.12147">
        <ele>139</ele>
        <time>2024-09-22T07:35:01Z</time>
      </trkpt>
      <trkpt lat="49.22246" lon="0.12157">
        <ele>139</ele>
        <time>2024-09-22T07:35:02Z</time>
      </trkpt>
      <trkpt lat="49.22243" lon="0.12168">
        <ele>139.2</ele>
        <time>2024-09-22T07:35:03Z</time>
      </trkpt>
      <trkpt lat="49.2224" lon="0.12179">
        <ele>139.2</ele>
        <time>2024-09-22T07:35:04Z</time>
      </trkpt>
      <trkpt lat="49.22236" lon="0.1219">
        <ele>139.4</ele>
        <time>2024-09-22T07:35:05Z</time>
      </trkpt>
      <trkpt lat="49.22232" lon="0.12201">
        <ele>139.4</ele>
        <time>2024-09-22T07:35:06Z</time>
      </trkpt>
      <trkpt lat="49.22229" lon="0.12212">
        <ele>139.4</ele>
        <time>2024-09-22T07:35:07Z</time>
      </trkpt>
      <trkpt lat="49.22225" lon="0.12222">
        <ele>139.4</ele>
        <time>2024-09-22T07:35:08Z</time>
      </trkpt>
      <trkpt lat="49.22221" lon="0.12233">
        <ele>139.4</ele>
        <time>2024-09-22T07:35:09Z</time>
      </trkpt>
      <trkpt lat="49.22218" lon="0.12244">
        <ele>139.4</ele>
        <time>2024-09-22T07:35:10Z</time>
      </trkpt>
      <trkpt lat="49.22215" lon="0.12254">
        <ele>139.4</ele>
        <time>2024-09-22T07:35:11Z</time>
      </trkpt>
      <trkpt lat="49.22211" lon="0.12265">
        <ele>139.4</ele>
        <time>2024-09-22T07:35:12Z</time>
      </trkpt>
      <trkpt lat="49.22208" lon="0.12275">
        <ele>139.4</ele>
        <time>2024-09-22T07:35:13Z</time>
      </trkpt>
      <trkpt lat="49.22204" lon="0.12285">
        <ele>139.4</ele>
        <time>2024-09-22T07:35:14Z</time>
      </trkpt>
      <trkpt lat="49.22201" lon="0.12296">
        <ele>139.4</ele>
        <time>2024-09-22T07:35:15Z</time>
      </trkpt>
      <trkpt lat="49.22198" lon="0.12306">
        <ele>139.4</ele>
        <time>2024-09-22T07:35:16Z</time>
      </trkpt>
      <trkpt lat="49.22195" lon="0.12316">
        <ele>139.4</ele>
        <time>2024-09-22T07:35:17Z</time>
      </trkpt>
      <trkpt lat="49.22192" lon="0.12327">
        <ele>139.4</ele>
        <time>2024-09-22T07:35:18Z</time>
      </trkpt>
      <trkpt lat="49.22189" lon="0.12337">
        <ele>139.4</ele>
        <time>2024-09-22T07:35:19Z</time>
      </trkpt>
      <trkpt lat="49.22186" lon="0.12348">
        <ele>139.4</ele>
        <time>2024-09-22T07:35:20Z</time>
      </trkpt>
      <trkpt lat="49.22183" lon="0.12358">
        <ele>139.4</ele>
        <time>2024-09-22T07:35:21Z</time>
      </trkpt>
      <trkpt lat="49.22179" lon="0.12368">
        <ele>139.4</ele>
        <time>2024-09-22T07:35:22Z</time>
      </trkpt>
      <trkpt lat="49.22176" lon="0.12379">
        <ele>139.4</ele>
        <time>2024-09-22T07:35:23Z</time>
      </trkpt>
      <trkpt lat="49.22173" lon="0.12389">
        <ele>139.4</ele>
        <time>2024-09-22T07:35:24Z</time>
      </trkpt>
      <trkpt lat="49.22169" lon="0.124">
        <ele>139.4</ele>
        <time>2024-09-22T07:35:25Z</time>
      </trkpt>
      <trkpt lat="49.22166" lon="0.12411">
        <ele>139.4</ele>
        <time>2024-09-22T07:35:26Z</time>
      </trkpt>
      <trkpt lat="49.22162" lon="0.12421">
        <ele>139.4</ele>
        <time>2024-09-22T07:35:27Z</time>
      </trkpt>
      <trkpt lat="49.22159" lon="0.12432">
        <ele>139.4</ele>
        <time>2024-09-22T07:35:28Z</time>
      </trkpt>
      <trkpt lat="49.22155" lon="0.12442">
        <ele>139.2</ele>
        <time>2024-09-22T07:35:29Z</time>
      </trkpt>
      <trkpt lat="49.22152" lon="0.12453">
        <ele>139.2</ele>
        <time>2024-09-22T07:35:30Z</time>
      </trkpt>
      <trkpt lat="49.22149" lon="0.12465">
        <ele>139.2</ele>
        <time>2024-09-22T07:35:31Z</time>
      </trkpt>
      <trkpt lat="49.22146" lon="0.12476">
        <ele>139</ele>
        <time>2024-09-22T07:35:32Z</time>
      </trkpt>
      <trkpt lat="49.22142" lon="0.12486">
        <ele>139</ele>
        <time>2024-09-22T07:35:33Z</time>
      </trkpt>
      <trkpt lat="49.22138" lon="0.12497">
        <ele>139</ele>
        <time>2024-09-22T07:35:34Z</time>
      </trkpt>
      <trkpt lat="49.22134" lon="0.12508">
        <ele>138.8</ele>
        <time>2024-09-22T07:35:35Z</time>
      </trkpt>
      <trkpt lat="49.2213" lon="0.12519">
        <ele>138.8</ele>
        <time>2024-09-22T07:35:36Z</time>
      </trkpt>
      <trkpt lat="49.22127" lon="0.1253">
        <ele>138.6</ele>
        <time>2024-09-22T07:35:37Z</time>
      </trkpt>
      <trkpt lat="49.22123" lon="0.12541">
        <ele>138.6</ele>
        <time>2024-09-22T07:35:38Z</time>
      </trkpt>
      <trkpt lat="49.2212" lon="0.12552">
        <ele>138.6</ele>
        <time>2024-09-22T07:35:39Z</time>
      </trkpt>
      <trkpt lat="49.22116" lon="0.12564">
        <ele>138.6</ele>
        <time>2024-09-22T07:35:40Z</time>
      </trkpt>
      <trkpt lat="49.22112" lon="0.12575">
        <ele>138.6</ele>
        <time>2024-09-22T07:35:41Z</time>
      </trkpt>
      <trkpt lat="49.22109" lon="0.12587">
        <ele>138.6</ele>
        <time>2024-09-22T07:35:42Z</time>
      </trkpt>
      <trkpt lat="49.22105" lon="0.12598">
        <ele>138.6</ele>
        <time>2024-09-22T07:35:43Z</time>
      </trkpt>
      <trkpt lat="49.22102" lon="0.12609">
        <ele>138.6</ele>
        <time>2024-09-22T07:35:44Z</time>
      </trkpt>
      <trkpt lat="49.22099" lon="0.1262">
        <ele>138.6</ele>
        <time>2024-09-22T07:35:45Z</time>
      </trkpt>
      <trkpt lat="49.22095" lon="0.12631">
        <ele>138.6</ele>
        <time>2024-09-22T07:35:46Z</time>
      </trkpt>
      <trkpt lat="49.22092" lon="0.12641">
        <ele>138.6</ele>
        <time>2024-09-22T07:35:47Z</time>
      </trkpt>
      <trkpt lat="49.22088" lon="0.12652">
        <ele>138.6</ele>
        <time>2024-09-22T07:35:48Z</time>
      </trkpt>
      <trkpt lat="49.22085" lon="0.12663">
        <ele>138.8</ele>
        <time>2024-09-22T07:35:49Z</time>
      </trkpt>
      <trkpt lat="49.22081" lon="0.12674">
        <ele>138.8</ele>
        <time>2024-09-22T07:35:50Z</time>
      </trkpt>
      <trkpt lat="49.22078" lon="0.12684">
        <ele>138.8</ele>
        <time>2024-09-22T07:35:51Z</time>
      </trkpt>
      <trkpt lat="49.22074" lon="0.12695">
        <ele>139</ele>
        <time>2024-09-22T07:35:52Z</time>
      </trkpt>
      <trkpt lat="49.22071" lon="0.12705">
        <ele>139.2</ele>
        <time>2024-09-22T07:35:53Z</time>
      </trkpt>
      <trkpt lat="49.22067" lon="0.12716">
        <ele>139.2</ele>
        <time>2024-09-22T07:35:54Z</time>
      </trkpt>
      <trkpt lat="49.22063" lon="0.12726">
        <ele>139.4</ele>
        <time>2024-09-22T07:35:55Z</time>
      </trkpt>
      <trkpt lat="49.2206" lon="0.12737">
        <ele>139.4</ele>
        <time>2024-09-22T07:35:56Z</time>
      </trkpt>
      <trkpt lat="49.22056" lon="0.12748">
        <ele>139.6</ele>
        <time>2024-09-22T07:35:57Z</time>
      </trkpt>
      <trkpt lat="49.22053" lon="0.12759">
        <ele>139.6</ele>
        <time>2024-09-22T07:35:58Z</time>
      </trkpt>
      <trkpt lat="49.22049" lon="0.1277">
        <ele>139.6</ele>
        <time>2024-09-22T07:35:59Z</time>
      </trkpt>
      <trkpt lat="49.22046" lon="0.12781">
        <ele>139.8</ele>
        <time>2024-09-22T07:36:00Z</time>
      </trkpt>
      <trkpt lat="49.22043" lon="0.12792">
        <ele>139.8</ele>
        <time>2024-09-22T07:36:01Z</time>
      </trkpt>
      <trkpt lat="49.22039" lon="0.12803">
        <ele>139.8</ele>
        <time>2024-09-22T07:36:02Z</time>
      </trkpt>
      <trkpt lat="49.22036" lon="0.12813">
        <ele>140</ele>
        <time>2024-09-22T07:36:03Z</time>
      </trkpt>
      <trkpt lat="49.22032" lon="0.12823">
        <ele>140</ele>
        <time>2024-09-22T07:36:04Z</time>
      </trkpt>
      <trkpt lat="49.22027" lon="0.12833">
        <ele>140</ele>
        <time>2024-09-22T07:36:05Z</time>
      </trkpt>
      <trkpt lat="49.22022" lon="0.12843">
        <ele>140</ele>
        <time>2024-09-22T07:36:06Z</time>
      </trkpt>
      <trkpt lat="49.22018" lon="0.12853">
        <ele>140</ele>
        <time>2024-09-22T07:36:07Z</time>
      </trkpt>
      <trkpt lat="49.22013" lon="0.12863">
        <ele>140</ele>
        <time>2024-09-22T07:36:08Z</time>
      </trkpt>
      <trkpt lat="49.22009" lon="0.12873">
        <ele>140</ele>
        <time>2024-09-22T07:36:09Z</time>
      </trkpt>
      <trkpt lat="49.22004" lon="0.12883">
        <ele>140</ele>
        <time>2024-09-22T07:36:10Z</time>
      </trkpt>
      <trkpt lat="49.21998" lon="0.12893">
        <ele>140</ele>
        <time>2024-09-22T07:36:11Z</time>
      </trkpt>
      <trkpt lat="49.21993" lon="0.12903">
        <ele>140</ele>
        <time>2024-09-22T07:36:12Z</time>
      </trkpt>
      <trkpt lat="49.21988" lon="0.12913">
        <ele>140</ele>
        <time>2024-09-22T07:36:13Z</time>
      </trkpt>
      <trkpt lat="49.21983" lon="0.12922">
        <ele>140</ele>
        <time>2024-09-22T07:36:14Z</time>
      </trkpt>
      <trkpt lat="49.21978" lon="0.12932">
        <ele>140</ele>
        <time>2024-09-22T07:36:15Z</time>
      </trkpt>
      <trkpt lat="49.21972" lon="0.12942">
        <ele>139.8</ele>
        <time>2024-09-22T07:36:16Z</time>
      </trkpt>
      <trkpt lat="49.21967" lon="0.12952">
        <ele>139.8</ele>
        <time>2024-09-22T07:36:17Z</time>
      </trkpt>
      <trkpt lat="49.21961" lon="0.12961">
        <ele>139.6</ele>
        <time>2024-09-22T07:36:18Z</time>
      </trkpt>
      <trkpt lat="49.21956" lon="0.12971">
        <ele>139.6</ele>
        <time>2024-09-22T07:36:19Z</time>
      </trkpt>
      <trkpt lat="49.2195" lon="0.12981">
        <ele>139.4</ele>
        <time>2024-09-22T07:36:20Z</time>
      </trkpt>
      <trkpt lat="49.21944" lon="0.1299">
        <ele>139.4</ele>
        <time>2024-09-22T07:36:21Z</time>
      </trkpt>
      <trkpt lat="49.21939" lon="0.13">
        <ele>139</ele>
        <time>2024-09-22T07:36:22Z</time>
      </trkpt>
      <trkpt lat="49.21933" lon="0.1301">
        <ele>138.8</ele>
        <time>2024-09-22T07:36:23Z</time>
      </trkpt>
      <trkpt lat="49.21928" lon="0.1302">
        <ele>138.6</ele>
        <time>2024-09-22T07:36:24Z</time>
      </trkpt>
      <trkpt lat="49.21922" lon="0.1303">
        <ele>138.4</ele>
        <time>2024-09-22T07:36:25Z</time>
      </trkpt>
      <trkpt lat="49.21917" lon="0.1304">
        <ele>138.2</ele>
        <time>2024-09-22T07:36:26Z</time>
      </trkpt>
      <trkpt lat="49.21912" lon="0.1305">
        <ele>137.8</ele>
        <time>2024-09-22T07:36:27Z</time>
      </trkpt>
      <trkpt lat="49.21906" lon="0.13059">
        <ele>137.8</ele>
        <time>2024-09-22T07:36:28Z</time>
      </trkpt>
      <trkpt lat="49.21901" lon="0.13069">
        <ele>137.4</ele>
        <time>2024-09-22T07:36:29Z</time>
      </trkpt>
      <trkpt lat="49.21896" lon="0.13078">
        <ele>137.2</ele>
        <time>2024-09-22T07:36:30Z</time>
      </trkpt>
      <trkpt lat="49.21891" lon="0.13088">
        <ele>137.2</ele>
        <time>2024-09-22T07:36:31Z</time>
      </trkpt>
      <trkpt lat="49.21886" lon="0.13098">
        <ele>137</ele>
        <time>2024-09-22T07:36:32Z</time>
      </trkpt>
      <trkpt lat="49.21881" lon="0.13108">
        <ele>137</ele>
        <time>2024-09-22T07:36:33Z</time>
      </trkpt>
      <trkpt lat="49.21876" lon="0.13119">
        <ele>136.8</ele>
        <time>2024-09-22T07:36:34Z</time>
      </trkpt>
      <trkpt lat="49.21872" lon="0.13129">
        <ele>136.6</ele>
        <time>2024-09-22T07:36:35Z</time>
      </trkpt>
      <trkpt lat="49.21867" lon="0.1314">
        <ele>136.2</ele>
        <time>2024-09-22T07:36:36Z</time>
      </trkpt>
      <trkpt lat="49.21862" lon="0.1315">
        <ele>136</ele>
        <time>2024-09-22T07:36:37Z</time>
      </trkpt>
      <trkpt lat="49.21857" lon="0.1316">
        <ele>135.8</ele>
        <time>2024-09-22T07:36:38Z</time>
      </trkpt>
      <trkpt lat="49.21853" lon="0.13171">
        <ele>135.8</ele>
        <time>2024-09-22T07:36:39Z</time>
      </trkpt>
      <trkpt lat="49.21848" lon="0.13181">
        <ele>135.6</ele>
        <time>2024-09-22T07:36:40Z</time>
      </trkpt>
      <trkpt lat="49.21844" lon="0.13191">
        <ele>135.4</ele>
        <time>2024-09-22T07:36:41Z</time>
      </trkpt>
      <trkpt lat="49.2184" lon="0.13202">
        <ele>135.4</ele>
        <time>2024-09-22T07:36:42Z</time>
      </trkpt>
      <trkpt lat="49.21835" lon="0.13212">
        <ele>135.2</ele>
        <time>2024-09-22T07:36:43Z</time>
      </trkpt>
      <trkpt lat="49.21831" lon="0.13221">
        <ele>135.2</ele>
        <time>2024-09-22T07:36:44Z</time>
      </trkpt>
      <trkpt lat="49.21826" lon="0.1323">
        <ele>135.2</ele>
        <time>2024-09-22T07:36:45Z</time>
      </trkpt>
      <trkpt lat="49.21821" lon="0.13239">
        <ele>135.2</ele>
        <time>2024-09-22T07:36:46Z</time>
      </trkpt>
      <trkpt lat="49.21817" lon="0.13248">
        <ele>135.2</ele>
        <time>2024-09-22T07:36:47Z</time>
      </trkpt>
      <trkpt lat="49.21813" lon="0.13258">
        <ele>135.2</ele>
        <time>2024-09-22T07:36:48Z</time>
      </trkpt>
      <trkpt lat="49.21808" lon="0.13267">
        <ele>135.2</ele>
        <time>2024-09-22T07:36:49Z</time>
      </trkpt>
      <trkpt lat="49.21804" lon="0.13276">
        <ele>135.2</ele>
        <time>2024-09-22T07:36:50Z</time>
      </trkpt>
      <trkpt lat="49.21799" lon="0.13285">
        <ele>135.2</ele>
        <time>2024-09-22T07:36:51Z</time>
      </trkpt>
      <trkpt lat="49.21795" lon="0.13294">
        <ele>135.2</ele>
        <time>2024-09-22T07:36:52Z</time>
      </trkpt>
      <trkpt lat="49.21791" lon="0.13304">
        <ele>135.4</ele>
        <time>2024-09-22T07:36:53Z</time>
      </trkpt>
      <trkpt lat="49.21787" lon="0.13313">
        <ele>135.4</ele>
        <time>2024-09-22T07:36:54Z</time>
      </trkpt>
      <trkpt lat="49.21783" lon="0.13322">
        <ele>135.6</ele>
        <time>2024-09-22T07:36:55Z</time>
      </trkpt>
      <trkpt lat="49.21778" lon="0.1333">
        <ele>135.6</ele>
        <time>2024-09-22T07:36:56Z</time>
      </trkpt>
      <trkpt lat="49.21774" lon="0.13339">
        <ele>135.6</ele>
        <time>2024-09-22T07:36:57Z</time>
      </trkpt>
      <trkpt lat="49.2177" lon="0.13348">
        <ele>135.6</ele>
        <time>2024-09-22T07:36:58Z</time>
      </trkpt>
      <trkpt lat="49.21766" lon="0.13357">
        <ele>135.6</ele>
        <time>2024-09-22T07:36:59Z</time>
      </trkpt>
      <trkpt lat="49.21761" lon="0.13367">
        <ele>135.6</ele>
        <time>2024-09-22T07:37:00Z</time>
      </trkpt>
      <trkpt lat="49.21757" lon="0.13376">
        <ele>135.8</ele>
        <time>2024-09-22T07:37:01Z</time>
      </trkpt>
      <trkpt lat="49.21753" lon="0.13386">
        <ele>135.8</ele>
        <time>2024-09-22T07:37:02Z</time>
      </trkpt>
      <trkpt lat="49.21748" lon="0.13395">
        <ele>136</ele>
        <time>2024-09-22T07:37:03Z</time>
      </trkpt>
      <trkpt lat="49.21744" lon="0.13405">
        <ele>136</ele>
        <time>2024-09-22T07:37:04Z</time>
      </trkpt>
      <trkpt lat="49.21739" lon="0.13414">
        <ele>136</ele>
        <time>2024-09-22T07:37:05Z</time>
      </trkpt>
      <trkpt lat="49.21734" lon="0.13422">
        <ele>136.2</ele>
        <time>2024-09-22T07:37:06Z</time>
      </trkpt>
      <trkpt lat="49.21729" lon="0.13431">
        <ele>136.2</ele>
        <time>2024-09-22T07:37:07Z</time>
      </trkpt>
      <trkpt lat="49.21724" lon="0.13439">
        <ele>136.6</ele>
        <time>2024-09-22T07:37:08Z</time>
      </trkpt>
      <trkpt lat="49.21718" lon="0.13447">
        <ele>136.8</ele>
        <time>2024-09-22T07:37:09Z</time>
      </trkpt>
      <trkpt lat="49.21713" lon="0.13455">
        <ele>137</ele>
        <time>2024-09-22T07:37:10Z</time>
      </trkpt>
      <trkpt lat="49.21707" lon="0.13463">
        <ele>137.2</ele>
        <time>2024-09-22T07:37:11Z</time>
      </trkpt>
      <trkpt lat="49.21701" lon="0.13471">
        <ele>137.4</ele>
        <time>2024-09-22T07:37:12Z</time>
      </trkpt>
      <trkpt lat="49.21695" lon="0.13478">
        <ele>137.6</ele>
        <time>2024-09-22T07:37:13Z</time>
      </trkpt>
      <trkpt lat="49.21689" lon="0.13486">
        <ele>137.8</ele>
        <time>2024-09-22T07:37:14Z</time>
      </trkpt>
      <trkpt lat="49.21683" lon="0.13494">
        <ele>138</ele>
        <time>2024-09-22T07:37:15Z</time>
      </trkpt>
      <trkpt lat="49.21678" lon="0.13501">
        <ele>138</ele>
        <time>2024-09-22T07:37:16Z</time>
      </trkpt>
      <trkpt lat="49.21672" lon="0.13509">
        <ele>138</ele>
        <time>2024-09-22T07:37:17Z</time>
      </trkpt>
      <trkpt lat="49.21666" lon="0.13516">
        <ele>138</ele>
        <time>2024-09-22T07:37:18Z</time>
      </trkpt>
      <trkpt lat="49.2166" lon="0.13524">
        <ele>138</ele>
        <time>2024-09-22T07:37:19Z</time>
      </trkpt>
      <trkpt lat="49.21655" lon="0.13531">
        <ele>138.2</ele>
        <time>2024-09-22T07:37:20Z</time>
      </trkpt>
      <trkpt lat="49.21649" lon="0.13539">
        <ele>138.2</ele>
        <time>2024-09-22T07:37:21Z</time>
      </trkpt>
      <trkpt lat="49.21644" lon="0.13547">
        <ele>138.2</ele>
        <time>2024-09-22T07:37:22Z</time>
      </trkpt>
      <trkpt lat="49.21638" lon="0.13554">
        <ele>138.2</ele>
        <time>2024-09-22T07:37:23Z</time>
      </trkpt>
      <trkpt lat="49.21632" lon="0.13562">
        <ele>138.2</ele>
        <time>2024-09-22T07:37:24Z</time>
      </trkpt>
      <trkpt lat="49.21627" lon="0.13569">
        <ele>138.2</ele>
        <time>2024-09-22T07:37:25Z</time>
      </trkpt>
      <trkpt lat="49.21621" lon="0.13576">
        <ele>138.2</ele>
        <time>2024-09-22T07:37:26Z</time>
      </trkpt>
      <trkpt lat="49.21615" lon="0.13583">
        <ele>138.2</ele>
        <time>2024-09-22T07:37:27Z</time>
      </trkpt>
      <trkpt lat="49.21609" lon="0.1359">
        <ele>138.2</ele>
        <time>2024-09-22T07:37:28Z</time>
      </trkpt>
      <trkpt lat="49.21604" lon="0.13597">
        <ele>138</ele>
        <time>2024-09-22T07:37:29Z</time>
      </trkpt>
      <trkpt lat="49.21598" lon="0.13605">
        <ele>138</ele>
        <time>2024-09-22T07:37:30Z</time>
      </trkpt>
      <trkpt lat="49.21592" lon="0.13612">
        <ele>138</ele>
        <time>2024-09-22T07:37:31Z</time>
      </trkpt>
      <trkpt lat="49.21585" lon="0.13619">
        <ele>137.6</ele>
        <time>2024-09-22T07:37:32Z</time>
      </trkpt>
      <trkpt lat="49.21579" lon="0.13626">
        <ele>137.4</ele>
        <time>2024-09-22T07:37:33Z</time>
      </trkpt>
      <trkpt lat="49.21573" lon="0.13634">
        <ele>137.2</ele>
        <time>2024-09-22T07:37:34Z</time>
      </trkpt>
      <trkpt lat="49.21567" lon="0.13641">
        <ele>137.2</ele>
        <time>2024-09-22T07:37:35Z</time>
      </trkpt>
      <trkpt lat="49.21561" lon="0.13649">
        <ele>137.2</ele>
        <time>2024-09-22T07:37:36Z</time>
      </trkpt>
      <trkpt lat="49.21555" lon="0.13656">
        <ele>137.2</ele>
        <time>2024-09-22T07:37:37Z</time>
      </trkpt>
      <trkpt lat="49.21549" lon="0.13663">
        <ele>137.2</ele>
        <time>2024-09-22T07:37:38Z</time>
      </trkpt>
      <trkpt lat="49.21543" lon="0.1367">
        <ele>137.2</ele>
        <time>2024-09-22T07:37:39Z</time>
      </trkpt>
      <trkpt lat="49.21537" lon="0.13677">
        <ele>137.2</ele>
        <time>2024-09-22T07:37:40Z</time>
      </trkpt>
      <trkpt lat="49.21531" lon="0.13684">
        <ele>137.2</ele>
        <time>2024-09-22T07:37:41Z</time>
      </trkpt>
      <trkpt lat="49.21526" lon="0.13691">
        <ele>137.2</ele>
        <time>2024-09-22T07:37:42Z</time>
      </trkpt>
      <trkpt lat="49.2152" lon="0.13698">
        <ele>137.2</ele>
        <time>2024-09-22T07:37:43Z</time>
      </trkpt>
      <trkpt lat="49.21514" lon="0.13705">
        <ele>137.2</ele>
        <time>2024-09-22T07:37:44Z</time>
      </trkpt>
      <trkpt lat="49.21508" lon="0.13711">
        <ele>137.2</ele>
        <time>2024-09-22T07:37:45Z</time>
      </trkpt>
      <trkpt lat="49.21502" lon="0.13718">
        <ele>137.2</ele>
        <time>2024-09-22T07:37:46Z</time>
      </trkpt>
      <trkpt lat="49.21497" lon="0.13725">
        <ele>137.4</ele>
        <time>2024-09-22T07:37:47Z</time>
      </trkpt>
      <trkpt lat="49.21491" lon="0.13732">
        <ele>137.4</ele>
        <time>2024-09-22T07:37:48Z</time>
      </trkpt>
      <trkpt lat="49.21485" lon="0.13739">
        <ele>137.6</ele>
        <time>2024-09-22T07:37:49Z</time>
      </trkpt>
      <trkpt lat="49.2148" lon="0.13746">
        <ele>137.8</ele>
        <time>2024-09-22T07:37:50Z</time>
      </trkpt>
      <trkpt lat="49.21474" lon="0.13753">
        <ele>138</ele>
        <time>2024-09-22T07:37:51Z</time>
      </trkpt>
      <trkpt lat="49.21468" lon="0.1376">
        <ele>138.2</ele>
        <time>2024-09-22T07:37:52Z</time>
      </trkpt>
      <trkpt lat="49.21462" lon="0.13767">
        <ele>138.4</ele>
        <time>2024-09-22T07:37:53Z</time>
      </trkpt>
      <trkpt lat="49.21456" lon="0.13774">
        <ele>138.6</ele>
        <time>2024-09-22T07:37:54Z</time>
      </trkpt>
      <trkpt lat="49.21451" lon="0.1378">
        <ele>138.6</ele>
        <time>2024-09-22T07:37:55Z</time>
      </trkpt>
      <trkpt lat="49.21445" lon="0.13787">
        <ele>138.8</ele>
        <time>2024-09-22T07:37:56Z</time>
      </trkpt>
      <trkpt lat="49.21439" lon="0.13794">
        <ele>139</ele>
        <time>2024-09-22T07:37:57Z</time>
      </trkpt>
      <trkpt lat="49.21433" lon="0.138">
        <ele>139.2</ele>
        <time>2024-09-22T07:37:58Z</time>
      </trkpt>
      <trkpt lat="49.21427" lon="0.13807">
        <ele>139.2</ele>
        <time>2024-09-22T07:37:59Z</time>
      </trkpt>
      <trkpt lat="49.21421" lon="0.13814">
        <ele>139.4</ele>
        <time>2024-09-22T07:38:00Z</time>
      </trkpt>
      <trkpt lat="49.21415" lon="0.1382">
        <ele>139.6</ele>
        <time>2024-09-22T07:38:01Z</time>
      </trkpt>
      <trkpt lat="49.21409" lon="0.13826">
        <ele>139.8</ele>
        <time>2024-09-22T07:38:02Z</time>
      </trkpt>
      <trkpt lat="49.21403" lon="0.13833">
        <ele>140</ele>
        <time>2024-09-22T07:38:03Z</time>
      </trkpt>
      <trkpt lat="49.21397" lon="0.13839">
        <ele>140</ele>
        <time>2024-09-22T07:38:04Z</time>
      </trkpt>
      <trkpt lat="49.21391" lon="0.13845">
        <ele>140.2</ele>
        <time>2024-09-22T07:38:05Z</time>
      </trkpt>
      <trkpt lat="49.21385" lon="0.13851">
        <ele>140.4</ele>
        <time>2024-09-22T07:38:06Z</time>
      </trkpt>
      <trkpt lat="49.21379" lon="0.13857">
        <ele>140.4</ele>
        <time>2024-09-22T07:38:07Z</time>
      </trkpt>
      <trkpt lat="49.21373" lon="0.13863">
        <ele>140.6</ele>
        <time>2024-09-22T07:38:08Z</time>
      </trkpt>
      <trkpt lat="49.21367" lon="0.13869">
        <ele>140.8</ele>
        <time>2024-09-22T07:38:09Z</time>
      </trkpt>
      <trkpt lat="49.21361" lon="0.13875">
        <ele>141</ele>
        <time>2024-09-22T07:38:10Z</time>
      </trkpt>
      <trkpt lat="49.21355" lon="0.13881">
        <ele>141.2</ele>
        <time>2024-09-22T07:38:11Z</time>
      </trkpt>
      <trkpt lat="49.21349" lon="0.13886">
        <ele>141.2</ele>
        <time>2024-09-22T07:38:12Z</time>
      </trkpt>
      <trkpt lat="49.21343" lon="0.13892">
        <ele>141.4</ele>
        <time>2024-09-22T07:38:13Z</time>
      </trkpt>
      <trkpt lat="49.21337" lon="0.13898">
        <ele>141.4</ele>
        <time>2024-09-22T07:38:14Z</time>
      </trkpt>
      <trkpt lat="49.21331" lon="0.13904">
        <ele>141.4</ele>
        <time>2024-09-22T07:38:15Z</time>
      </trkpt>
      <trkpt lat="49.21325" lon="0.1391">
        <ele>141.6</ele>
        <time>2024-09-22T07:38:16Z</time>
      </trkpt>
      <trkpt lat="49.21319" lon="0.13915">
        <ele>141.6</ele>
        <time>2024-09-22T07:38:17Z</time>
      </trkpt>
      <trkpt lat="49.21312" lon="0.13921">
        <ele>141.6</ele>
        <time>2024-09-22T07:38:18Z</time>
      </trkpt>
      <trkpt lat="49.21306" lon="0.13927">
        <ele>141.6</ele>
        <time>2024-09-22T07:38:19Z</time>
      </trkpt>
      <trkpt lat="49.213" lon="0.13933">
        <ele>141.6</ele>
        <time>2024-09-22T07:38:20Z</time>
      </trkpt>
      <trkpt lat="49.21294" lon="0.13939">
        <ele>141.6</ele>
        <time>2024-09-22T07:38:21Z</time>
      </trkpt>
      <trkpt lat="49.21287" lon="0.13945">
        <ele>141.6</ele>
        <time>2024-09-22T07:38:22Z</time>
      </trkpt>
      <trkpt lat="49.21281" lon="0.1395">
        <ele>141.6</ele>
        <time>2024-09-22T07:38:23Z</time>
      </trkpt>
      <trkpt lat="49.21275" lon="0.13956">
        <ele>141.8</ele>
        <time>2024-09-22T07:38:24Z</time>
      </trkpt>
      <trkpt lat="49.21269" lon="0.13961">
        <ele>141.8</ele>
        <time>2024-09-22T07:38:25Z</time>
      </trkpt>
      <trkpt lat="49.21263" lon="0.13967">
        <ele>141.8</ele>
        <time>2024-09-22T07:38:26Z</time>
      </trkpt>
      <trkpt lat="49.21257" lon="0.13973">
        <ele>141.8</ele>
        <time>2024-09-22T07:38:27Z</time>
      </trkpt>
      <trkpt lat="49.21251" lon="0.13978">
        <ele>141.8</ele>
        <time>2024-09-22T07:38:28Z</time>
      </trkpt>
      <trkpt lat="49.21245" lon="0.13984">
        <ele>141.8</ele>
        <time>2024-09-22T07:38:29Z</time>
      </trkpt>
      <trkpt lat="49.2124" lon="0.13989">
        <ele>141.8</ele>
        <time>2024-09-22T07:38:30Z</time>
      </trkpt>
      <trkpt lat="49.21234" lon="0.13995">
        <ele>141.8</ele>
        <time>2024-09-22T07:38:31Z</time>
      </trkpt>
      <trkpt lat="49.21228" lon="0.14001">
        <ele>141.8</ele>
        <time>2024-09-22T07:38:32Z</time>
      </trkpt>
      <trkpt lat="49.21222" lon="0.14007">
        <ele>141.8</ele>
        <time>2024-09-22T07:38:33Z</time>
      </trkpt>
      <trkpt lat="49.21216" lon="0.14012">
        <ele>141.8</ele>
        <time>2024-09-22T07:38:34Z</time>
      </trkpt>
      <trkpt lat="49.21211" lon="0.14018">
        <ele>141.8</ele>
        <time>2024-09-22T07:38:35Z</time>
      </trkpt>
      <trkpt lat="49.21205" lon="0.14023">
        <ele>141.8</ele>
        <time>2024-09-22T07:38:36Z</time>
      </trkpt>
      <trkpt lat="49.21199" lon="0.14029">
        <ele>141.6</ele>
        <time>2024-09-22T07:38:37Z</time>
      </trkpt>
      <trkpt lat="49.21193" lon="0.14034">
        <ele>141.6</ele>
        <time>2024-09-22T07:38:38Z</time>
      </trkpt>
      <trkpt lat="49.21188" lon="0.1404">
        <ele>141.6</ele>
        <time>2024-09-22T07:38:39Z</time>
      </trkpt>
      <trkpt lat="49.21182" lon="0.14045">
        <ele>141.6</ele>
        <time>2024-09-22T07:38:40Z</time>
      </trkpt>
      <trkpt lat="49.21176" lon="0.1405">
        <ele>141.6</ele>
        <time>2024-09-22T07:38:41Z</time>
      </trkpt>
      <trkpt lat="49.2117" lon="0.14056">
        <ele>141.6</ele>
        <time>2024-09-22T07:38:42Z</time>
      </trkpt>
      <trkpt lat="49.21164" lon="0.14061">
        <ele>141.6</ele>
        <time>2024-09-22T07:38:43Z</time>
      </trkpt>
      <trkpt lat="49.21158" lon="0.14067">
        <ele>141.6</ele>
        <time>2024-09-22T07:38:44Z</time>
      </trkpt>
      <trkpt lat="49.21152" lon="0.14073">
        <ele>141.6</ele>
        <time>2024-09-22T07:38:45Z</time>
      </trkpt>
      <trkpt lat="49.21146" lon="0.14078">
        <ele>141.6</ele>
        <time>2024-09-22T07:38:46Z</time>
      </trkpt>
      <trkpt lat="49.21141" lon="0.14084">
        <ele>141.6</ele>
        <time>2024-09-22T07:38:47Z</time>
      </trkpt>
      <trkpt lat="49.21135" lon="0.1409">
        <ele>141.6</ele>
        <time>2024-09-22T07:38:48Z</time>
      </trkpt>
      <trkpt lat="49.21129" lon="0.14096">
        <ele>141.6</ele>
        <time>2024-09-22T07:38:49Z</time>
      </trkpt>
      <trkpt lat="49.21123" lon="0.14102">
        <ele>141.6</ele>
        <time>2024-09-22T07:38:50Z</time>
      </trkpt>
      <trkpt lat="49.21118" lon="0.14107">
        <ele>141.6</ele>
        <time>2024-09-22T07:38:51Z</time>
      </trkpt>
      <trkpt lat="49.21112" lon="0.14113">
        <ele>142</ele>
        <time>2024-09-22T07:38:52Z</time>
      </trkpt>
      <trkpt lat="49.21107" lon="0.14119">
        <ele>142</ele>
        <time>2024-09-22T07:38:53Z</time>
      </trkpt>
      <trkpt lat="49.21101" lon="0.14125">
        <ele>142.6</ele>
        <time>2024-09-22T07:38:54Z</time>
      </trkpt>
      <trkpt lat="49.21096" lon="0.14132">
        <ele>143</ele>
        <time>2024-09-22T07:38:55Z</time>
      </trkpt>
      <trkpt lat="49.2109" lon="0.14138">
        <ele>143.2</ele>
        <time>2024-09-22T07:38:56Z</time>
      </trkpt>
      <trkpt lat="49.21085" lon="0.14145">
        <ele>143.4</ele>
        <time>2024-09-22T07:38:57Z</time>
      </trkpt>
      <trkpt lat="49.21079" lon="0.14151">
        <ele>143.4</ele>
        <time>2024-09-22T07:38:58Z</time>
      </trkpt>
      <trkpt lat="49.21074" lon="0.14159">
        <ele>143.6</ele>
        <time>2024-09-22T07:38:59Z</time>
      </trkpt>
      <trkpt lat="49.21069" lon="0.14166">
        <ele>143.6</ele>
        <time>2024-09-22T07:39:00Z</time>
      </trkpt>
      <trkpt lat="49.21065" lon="0.14173">
        <ele>143.6</ele>
        <time>2024-09-22T07:39:01Z</time>
      </trkpt>
      <trkpt lat="49.2106" lon="0.14181">
        <ele>143.8</ele>
        <time>2024-09-22T07:39:02Z</time>
      </trkpt>
      <trkpt lat="49.21055" lon="0.14189">
        <ele>144</ele>
        <time>2024-09-22T07:39:03Z</time>
      </trkpt>
      <trkpt lat="49.2105" lon="0.14198">
        <ele>144</ele>
        <time>2024-09-22T07:39:04Z</time>
      </trkpt>
      <trkpt lat="49.21046" lon="0.14206">
        <ele>144.2</ele>
        <time>2024-09-22T07:39:05Z</time>
      </trkpt>
      <trkpt lat="49.21041" lon="0.14215">
        <ele>144.2</ele>
        <time>2024-09-22T07:39:06Z</time>
      </trkpt>
      <trkpt lat="49.21036" lon="0.14223">
        <ele>144.4</ele>
        <time>2024-09-22T07:39:07Z</time>
      </trkpt>
      <trkpt lat="49.21032" lon="0.14232">
        <ele>144.6</ele>
        <time>2024-09-22T07:39:08Z</time>
      </trkpt>
      <trkpt lat="49.21027" lon="0.14241">
        <ele>144.6</ele>
        <time>2024-09-22T07:39:09Z</time>
      </trkpt>
      <trkpt lat="49.21024" lon="0.1425">
        <ele>144.8</ele>
        <time>2024-09-22T07:39:10Z</time>
      </trkpt>
      <trkpt lat="49.2102" lon="0.1426">
        <ele>144.8</ele>
        <time>2024-09-22T07:39:11Z</time>
      </trkpt>
      <trkpt lat="49.21016" lon="0.14269">
        <ele>144.8</ele>
        <time>2024-09-22T07:39:12Z</time>
      </trkpt>
      <trkpt lat="49.21012" lon="0.14278">
        <ele>144.8</ele>
        <time>2024-09-22T07:39:13Z</time>
      </trkpt>
      <trkpt lat="49.21007" lon="0.14288">
        <ele>144.8</ele>
        <time>2024-09-22T07:39:14Z</time>
      </trkpt>
      <trkpt lat="49.21003" lon="0.14298">
        <ele>144.8</ele>
        <time>2024-09-22T07:39:15Z</time>
      </trkpt>
      <trkpt lat="49.20999" lon="0.14308">
        <ele>144.8</ele>
        <time>2024-09-22T07:39:16Z</time>
      </trkpt>
      <trkpt lat="49.20995" lon="0.14317">
        <ele>144.8</ele>
        <time>2024-09-22T07:39:17Z</time>
      </trkpt>
      <trkpt lat="49.20991" lon="0.14327">
        <ele>144.8</ele>
        <time>2024-09-22T07:39:18Z</time>
      </trkpt>
      <trkpt lat="49.20986" lon="0.14337">
        <ele>144.8</ele>
        <time>2024-09-22T07:39:19Z</time>
      </trkpt>
      <trkpt lat="49.20983" lon="0.14347">
        <ele>144.8</ele>
        <time>2024-09-22T07:39:20Z</time>
      </trkpt>
      <trkpt lat="49.20979" lon="0.14356">
        <ele>144.8</ele>
        <time>2024-09-22T07:39:21Z</time>
      </trkpt>
      <trkpt lat="49.20975" lon="0.14366">
        <ele>144.8</ele>
        <time>2024-09-22T07:39:22Z</time>
      </trkpt>
      <trkpt lat="49.20971" lon="0.14376">
        <ele>144.6</ele>
        <time>2024-09-22T07:39:23Z</time>
      </trkpt>
      <trkpt lat="49.20967" lon="0.14386">
        <ele>144.6</ele>
        <time>2024-09-22T07:39:24Z</time>
      </trkpt>
      <trkpt lat="49.20962" lon="0.14396">
        <ele>144.4</ele>
        <time>2024-09-22T07:39:25Z</time>
      </trkpt>
      <trkpt lat="49.20958" lon="0.14406">
        <ele>144.4</ele>
        <time>2024-09-22T07:39:26Z</time>
      </trkpt>
      <trkpt lat="49.20953" lon="0.14416">
        <ele>144.4</ele>
        <time>2024-09-22T07:39:27Z</time>
      </trkpt>
      <trkpt lat="49.20949" lon="0.14426">
        <ele>144.2</ele>
        <time>2024-09-22T07:39:28Z</time>
      </trkpt>
      <trkpt lat="49.20945" lon="0.14436">
        <ele>144.2</ele>
        <time>2024-09-22T07:39:29Z</time>
      </trkpt>
      <trkpt lat="49.20941" lon="0.14446">
        <ele>144.2</ele>
        <time>2024-09-22T07:39:30Z</time>
      </trkpt>
      <trkpt lat="49.20937" lon="0.14457">
        <ele>144</ele>
        <time>2024-09-22T07:39:31Z</time>
      </trkpt>
      <trkpt lat="49.20933" lon="0.14467">
        <ele>144</ele>
        <time>2024-09-22T07:39:32Z</time>
      </trkpt>
      <trkpt lat="49.20929" lon="0.14476">
        <ele>144</ele>
        <time>2024-09-22T07:39:33Z</time>
      </trkpt>
      <trkpt lat="49.20926" lon="0.14486">
        <ele>143.8</ele>
        <time>2024-09-22T07:39:34Z</time>
      </trkpt>
      <trkpt lat="49.20923" lon="0.14496">
        <ele>143.8</ele>
        <time>2024-09-22T07:39:35Z</time>
      </trkpt>
      <trkpt lat="49.2092" lon="0.14505">
        <ele>143.8</ele>
        <time>2024-09-22T07:39:36Z</time>
      </trkpt>
      <trkpt lat="49.20917" lon="0.14515">
        <ele>143.8</ele>
        <time>2024-09-22T07:39:37Z</time>
      </trkpt>
      <trkpt lat="49.20913" lon="0.14525">
        <ele>143.8</ele>
        <time>2024-09-22T07:39:38Z</time>
      </trkpt>
      <trkpt lat="49.2091" lon="0.14535">
        <ele>143.8</ele>
        <time>2024-09-22T07:39:39Z</time>
      </trkpt>
      <trkpt lat="49.20906" lon="0.14545">
        <ele>143.8</ele>
        <time>2024-09-22T07:39:40Z</time>
      </trkpt>
      <trkpt lat="49.20903" lon="0.14555">
        <ele>143.8</ele>
        <time>2024-09-22T07:39:41Z</time>
      </trkpt>
      <trkpt lat="49.209" lon="0.14566">
        <ele>143.8</ele>
        <time>2024-09-22T07:39:42Z</time>
      </trkpt>
      <trkpt lat="49.20897" lon="0.14576">
        <ele>143.8</ele>
        <time>2024-09-22T07:39:43Z</time>
      </trkpt>
      <trkpt lat="49.20894" lon="0.14586">
        <ele>143.8</ele>
        <time>2024-09-22T07:39:44Z</time>
      </trkpt>
      <trkpt lat="49.20891" lon="0.14597">
        <ele>143.8</ele>
        <time>2024-09-22T07:39:45Z</time>
      </trkpt>
      <trkpt lat="49.20888" lon="0.14607">
        <ele>143.8</ele>
        <time>2024-09-22T07:39:46Z</time>
      </trkpt>
      <trkpt lat="49.20885" lon="0.14618">
        <ele>143.8</ele>
        <time>2024-09-22T07:39:47Z</time>
      </trkpt>
      <trkpt lat="49.20883" lon="0.14629">
        <ele>144</ele>
        <time>2024-09-22T07:39:48Z</time>
      </trkpt>
      <trkpt lat="49.2088" lon="0.1464">
        <ele>144</ele>
        <time>2024-09-22T07:39:49Z</time>
      </trkpt>
      <trkpt lat="49.20878" lon="0.14651">
        <ele>144</ele>
        <time>2024-09-22T07:39:50Z</time>
      </trkpt>
      <trkpt lat="49.20875" lon="0.14661">
        <ele>144</ele>
        <time>2024-09-22T07:39:51Z</time>
      </trkpt>
      <trkpt lat="49.20872" lon="0.14672">
        <ele>144.2</ele>
        <time>2024-09-22T07:39:52Z</time>
      </trkpt>
      <trkpt lat="49.2087" lon="0.14683">
        <ele>144.2</ele>
        <time>2024-09-22T07:39:53Z</time>
      </trkpt>
      <trkpt lat="49.20867" lon="0.14693">
        <ele>144.2</ele>
        <time>2024-09-22T07:39:54Z</time>
      </trkpt>
      <trkpt lat="49.20864" lon="0.14704">
        <ele>144.2</ele>
        <time>2024-09-22T07:39:55Z</time>
      </trkpt>
      <trkpt lat="49.20862" lon="0.14715">
        <ele>144.2</ele>
        <time>2024-09-22T07:39:56Z</time>
      </trkpt>
      <trkpt lat="49.20859" lon="0.14726">
        <ele>144.4</ele>
        <time>2024-09-22T07:39:57Z</time>
      </trkpt>
      <trkpt lat="49.20857" lon="0.14737">
        <ele>144.4</ele>
        <time>2024-09-22T07:39:58Z</time>
      </trkpt>
      <trkpt lat="49.20854" lon="0.14747">
        <ele>144.4</ele>
        <time>2024-09-22T07:39:59Z</time>
      </trkpt>
      <trkpt lat="49.20851" lon="0.14758">
        <ele>144.4</ele>
        <time>2024-09-22T07:40:00Z</time>
      </trkpt>
      <trkpt lat="49.20849" lon="0.14768">
        <ele>144.4</ele>
        <time>2024-09-22T07:40:01Z</time>
      </trkpt>
      <trkpt lat="49.20847" lon="0.14779">
        <ele>144.4</ele>
        <time>2024-09-22T07:40:02Z</time>
      </trkpt>
      <trkpt lat="49.20844" lon="0.1479">
        <ele>144.6</ele>
        <time>2024-09-22T07:40:03Z</time>
      </trkpt>
      <trkpt lat="49.20842" lon="0.148">
        <ele>144.6</ele>
        <time>2024-09-22T07:40:04Z</time>
      </trkpt>
      <trkpt lat="49.2084" lon="0.14811">
        <ele>144.6</ele>
        <time>2024-09-22T07:40:05Z</time>
      </trkpt>
      <trkpt lat="49.20837" lon="0.14822">
        <ele>144.6</ele>
        <time>2024-09-22T07:40:06Z</time>
      </trkpt>
      <trkpt lat="49.20835" lon="0.14832">
        <ele>144.6</ele>
        <time>2024-09-22T07:40:07Z</time>
      </trkpt>
      <trkpt lat="49.20832" lon="0.14844">
        <ele>144.6</ele>
        <time>2024-09-22T07:40:08Z</time>
      </trkpt>
      <trkpt lat="49.2083" lon="0.14855">
        <ele>144.6</ele>
        <time>2024-09-22T07:40:09Z</time>
      </trkpt>
      <trkpt lat="49.20827" lon="0.14865">
        <ele>144.6</ele>
        <time>2024-09-22T07:40:10Z</time>
      </trkpt>
      <trkpt lat="49.20825" lon="0.14876">
        <ele>144.6</ele>
        <time>2024-09-22T07:40:11Z</time>
      </trkpt>
      <trkpt lat="49.20823" lon="0.14887">
        <ele>144.6</ele>
        <time>2024-09-22T07:40:12Z</time>
      </trkpt>
      <trkpt lat="49.20821" lon="0.14898">
        <ele>144.8</ele>
        <time>2024-09-22T07:40:13Z</time>
      </trkpt>
      <trkpt lat="49.20818" lon="0.14909">
        <ele>144.8</ele>
        <time>2024-09-22T07:40:14Z</time>
      </trkpt>
      <trkpt lat="49.20816" lon="0.1492">
        <ele>145</ele>
        <time>2024-09-22T07:40:15Z</time>
      </trkpt>
      <trkpt lat="49.20814" lon="0.14931">
        <ele>145.4</ele>
        <time>2024-09-22T07:40:16Z</time>
      </trkpt>
      <trkpt lat="49.20811" lon="0.14943">
        <ele>145.6</ele>
        <time>2024-09-22T07:40:17Z</time>
      </trkpt>
      <trkpt lat="49.20809" lon="0.14954">
        <ele>145.6</ele>
        <time>2024-09-22T07:40:18Z</time>
      </trkpt>
      <trkpt lat="49.20807" lon="0.14966">
        <ele>145.6</ele>
        <time>2024-09-22T07:40:19Z</time>
      </trkpt>
      <trkpt lat="49.20804" lon="0.14978">
        <ele>145.6</ele>
        <time>2024-09-22T07:40:20Z</time>
      </trkpt>
      <trkpt lat="49.20802" lon="0.14989">
        <ele>145.6</ele>
        <time>2024-09-22T07:40:21Z</time>
      </trkpt>
      <trkpt lat="49.20799" lon="0.15">
        <ele>145.8</ele>
        <time>2024-09-22T07:40:22Z</time>
      </trkpt>
      <trkpt lat="49.20797" lon="0.15012">
        <ele>145.8</ele>
        <time>2024-09-22T07:40:23Z</time>
      </trkpt>
      <trkpt lat="49.20794" lon="0.15024">
        <ele>145.8</ele>
        <time>2024-09-22T07:40:24Z</time>
      </trkpt>
      <trkpt lat="49.20791" lon="0.15035">
        <ele>145.8</ele>
        <time>2024-09-22T07:40:25Z</time>
      </trkpt>
      <trkpt lat="49.20789" lon="0.15047">
        <ele>145.8</ele>
        <time>2024-09-22T07:40:26Z</time>
      </trkpt>
      <trkpt lat="49.20786" lon="0.15058">
        <ele>145.8</ele>
        <time>2024-09-22T07:40:27Z</time>
      </trkpt>
      <trkpt lat="49.20784" lon="0.1507">
        <ele>145.8</ele>
        <time>2024-09-22T07:40:28Z</time>
      </trkpt>
      <trkpt lat="49.20782" lon="0.15081">
        <ele>145.8</ele>
        <time>2024-09-22T07:40:29Z</time>
      </trkpt>
      <trkpt lat="49.2078" lon="0.15092">
        <ele>145.8</ele>
        <time>2024-09-22T07:40:30Z</time>
      </trkpt>
      <trkpt lat="49.20778" lon="0.15104">
        <ele>145.8</ele>
        <time>2024-09-22T07:40:31Z</time>
      </trkpt>
      <trkpt lat="49.20776" lon="0.15115">
        <ele>146</ele>
        <time>2024-09-22T07:40:32Z</time>
      </trkpt>
      <trkpt lat="49.20775" lon="0.15126">
        <ele>146</ele>
        <time>2024-09-22T07:40:33Z</time>
      </trkpt>
      <trkpt lat="49.20773" lon="0.15137">
        <ele>146</ele>
        <time>2024-09-22T07:40:34Z</time>
      </trkpt>
      <trkpt lat="49.20772" lon="0.15149">
        <ele>146</ele>
        <time>2024-09-22T07:40:35Z</time>
      </trkpt>
      <trkpt lat="49.20771" lon="0.1516">
        <ele>146</ele>
        <time>2024-09-22T07:40:36Z</time>
      </trkpt>
      <trkpt lat="49.20769" lon="0.15172">
        <ele>146.2</ele>
        <time>2024-09-22T07:40:37Z</time>
      </trkpt>
      <trkpt lat="49.20768" lon="0.15183">
        <ele>146.2</ele>
        <time>2024-09-22T07:40:38Z</time>
      </trkpt>
      <trkpt lat="49.20767" lon="0.15195">
        <ele>146.2</ele>
        <time>2024-09-22T07:40:39Z</time>
      </trkpt>
      <trkpt lat="49.20765" lon="0.15207">
        <ele>146.2</ele>
        <time>2024-09-22T07:40:40Z</time>
      </trkpt>
      <trkpt lat="49.20764" lon="0.15219">
        <ele>146.2</ele>
        <time>2024-09-22T07:40:41Z</time>
      </trkpt>
      <trkpt lat="49.20763" lon="0.15231">
        <ele>146.4</ele>
        <time>2024-09-22T07:40:42Z</time>
      </trkpt>
      <trkpt lat="49.20762" lon="0.15244">
        <ele>146.6</ele>
        <time>2024-09-22T07:40:43Z</time>
      </trkpt>
      <trkpt lat="49.20761" lon="0.15256">
        <ele>146.6</ele>
        <time>2024-09-22T07:40:44Z</time>
      </trkpt>
      <trkpt lat="49.2076" lon="0.15268">
        <ele>146.8</ele>
        <time>2024-09-22T07:40:45Z</time>
      </trkpt>
      <trkpt lat="49.20759" lon="0.1528">
        <ele>146.8</ele>
        <time>2024-09-22T07:40:46Z</time>
      </trkpt>
      <trkpt lat="49.20757" lon="0.15292">
        <ele>146.8</ele>
        <time>2024-09-22T07:40:47Z</time>
      </trkpt>
      <trkpt lat="49.20755" lon="0.15303">
        <ele>146.8</ele>
        <time>2024-09-22T07:40:48Z</time>
      </trkpt>
      <trkpt lat="49.20753" lon="0.15314">
        <ele>147</ele>
        <time>2024-09-22T07:40:49Z</time>
      </trkpt>
      <trkpt lat="49.20751" lon="0.15326">
        <ele>147</ele>
        <time>2024-09-22T07:40:50Z</time>
      </trkpt>
      <trkpt lat="49.20749" lon="0.15337">
        <ele>147</ele>
        <time>2024-09-22T07:40:51Z</time>
      </trkpt>
      <trkpt lat="49.20747" lon="0.15348">
        <ele>147</ele>
        <time>2024-09-22T07:40:52Z</time>
      </trkpt>
      <trkpt lat="49.20746" lon="0.1536">
        <ele>147</ele>
        <time>2024-09-22T07:40:53Z</time>
      </trkpt>
      <trkpt lat="49.20744" lon="0.15371">
        <ele>147</ele>
        <time>2024-09-22T07:40:54Z</time>
      </trkpt>
      <trkpt lat="49.20742" lon="0.15382">
        <ele>147</ele>
        <time>2024-09-22T07:40:55Z</time>
      </trkpt>
      <trkpt lat="49.2074" lon="0.15394">
        <ele>147.2</ele>
        <time>2024-09-22T07:40:56Z</time>
      </trkpt>
      <trkpt lat="49.20738" lon="0.15406">
        <ele>147.2</ele>
        <time>2024-09-22T07:40:57Z</time>
      </trkpt>
      <trkpt lat="49.20736" lon="0.15417">
        <ele>147.2</ele>
        <time>2024-09-22T07:40:58Z</time>
      </trkpt>
      <trkpt lat="49.20734" lon="0.15429">
        <ele>147.2</ele>
        <time>2024-09-22T07:40:59Z</time>
      </trkpt>
      <trkpt lat="49.20731" lon="0.1544">
        <ele>147.2</ele>
        <time>2024-09-22T07:41:00Z</time>
      </trkpt>
      <trkpt lat="49.20729" lon="0.15451">
        <ele>147.2</ele>
        <time>2024-09-22T07:41:01Z</time>
      </trkpt>
      <trkpt lat="49.20727" lon="0.15463">
        <ele>147.2</ele>
        <time>2024-09-22T07:41:02Z</time>
      </trkpt>
      <trkpt lat="49.20724" lon="0.15475">
        <ele>147.2</ele>
        <time>2024-09-22T07:41:03Z</time>
      </trkpt>
      <trkpt lat="49.20722" lon="0.15486">
        <ele>147.2</ele>
        <time>2024-09-22T07:41:04Z</time>
      </trkpt>
      <trkpt lat="49.2072" lon="0.15497">
        <ele>147.2</ele>
        <time>2024-09-22T07:41:05Z</time>
      </trkpt>
      <trkpt lat="49.20718" lon="0.15508">
        <ele>147.2</ele>
        <time>2024-09-22T07:41:06Z</time>
      </trkpt>
      <trkpt lat="49.20715" lon="0.15519">
        <ele>147</ele>
        <time>2024-09-22T07:41:07Z</time>
      </trkpt>
      <trkpt lat="49.20712" lon="0.1553">
        <ele>146.8</ele>
        <time>2024-09-22T07:41:08Z</time>
      </trkpt>
      <trkpt lat="49.2071" lon="0.15542">
        <ele>146.8</ele>
        <time>2024-09-22T07:41:09Z</time>
      </trkpt>
      <trkpt lat="49.20708" lon="0.15553">
        <ele>146.8</ele>
        <time>2024-09-22T07:41:10Z</time>
      </trkpt>
      <trkpt lat="49.20705" lon="0.15565">
        <ele>146.8</ele>
        <time>2024-09-22T07:41:11Z</time>
      </trkpt>
      <trkpt lat="49.20702" lon="0.15576">
        <ele>146.8</ele>
        <time>2024-09-22T07:41:12Z</time>
      </trkpt>
      <trkpt lat="49.207" lon="0.15588">
        <ele>146.6</ele>
        <time>2024-09-22T07:41:13Z</time>
      </trkpt>
      <trkpt lat="49.20697" lon="0.15599">
        <ele>146.2</ele>
        <time>2024-09-22T07:41:14Z</time>
      </trkpt>
      <trkpt lat="49.20695" lon="0.15611">
        <ele>145.8</ele>
        <time>2024-09-22T07:41:15Z</time>
      </trkpt>
      <trkpt lat="49.20692" lon="0.15623">
        <ele>145.6</ele>
        <time>2024-09-22T07:41:16Z</time>
      </trkpt>
      <trkpt lat="49.2069" lon="0.15635">
        <ele>145.6</ele>
        <time>2024-09-22T07:41:17Z</time>
      </trkpt>
      <trkpt lat="49.20687" lon="0.15647">
        <ele>145.4</ele>
        <time>2024-09-22T07:41:18Z</time>
      </trkpt>
      <trkpt lat="49.20685" lon="0.15659">
        <ele>145.4</ele>
        <time>2024-09-22T07:41:19Z</time>
      </trkpt>
      <trkpt lat="49.20683" lon="0.15671">
        <ele>145.2</ele>
        <time>2024-09-22T07:41:20Z</time>
      </trkpt>
      <trkpt lat="49.2068" lon="0.15683">
        <ele>145.2</ele>
        <time>2024-09-22T07:41:21Z</time>
      </trkpt>
      <trkpt lat="49.20678" lon="0.15696">
        <ele>145.2</ele>
        <time>2024-09-22T07:41:22Z</time>
      </trkpt>
      <trkpt lat="49.20675" lon="0.15709">
        <ele>145</ele>
        <time>2024-09-22T07:41:23Z</time>
      </trkpt>
      <trkpt lat="49.20672" lon="0.15722">
        <ele>145</ele>
        <time>2024-09-22T07:41:24Z</time>
      </trkpt>
      <trkpt lat="49.20669" lon="0.15736">
        <ele>145</ele>
        <time>2024-09-22T07:41:25Z</time>
      </trkpt>
      <trkpt lat="49.20667" lon="0.1575">
        <ele>145</ele>
        <time>2024-09-22T07:41:26Z</time>
      </trkpt>
      <trkpt lat="49.20664" lon="0.15762">
        <ele>145</ele>
        <time>2024-09-22T07:41:27Z</time>
      </trkpt>
      <trkpt lat="49.20662" lon="0.15775">
        <ele>144.8</ele>
        <time>2024-09-22T07:41:28Z</time>
      </trkpt>
      <trkpt lat="49.20659" lon="0.15787">
        <ele>144.8</ele>
        <time>2024-09-22T07:41:29Z</time>
      </trkpt>
      <trkpt lat="49.20656" lon="0.15798">
        <ele>144.6</ele>
        <time>2024-09-22T07:41:30Z</time>
      </trkpt>
      <trkpt lat="49.20653" lon="0.1581">
        <ele>144.2</ele>
        <time>2024-09-22T07:41:31Z</time>
      </trkpt>
      <trkpt lat="49.20651" lon="0.15822">
        <ele>143.4</ele>
        <time>2024-09-22T07:41:32Z</time>
      </trkpt>
      <trkpt lat="49.20648" lon="0.15834">
        <ele>143</ele>
        <time>2024-09-22T07:41:33Z</time>
      </trkpt>
      <trkpt lat="49.20646" lon="0.15846">
        <ele>142.8</ele>
        <time>2024-09-22T07:41:34Z</time>
      </trkpt>
      <trkpt lat="49.20643" lon="0.15859">
        <ele>142.6</ele>
        <time>2024-09-22T07:41:35Z</time>
      </trkpt>
      <trkpt lat="49.2064" lon="0.15871">
        <ele>142.4</ele>
        <time>2024-09-22T07:41:36Z</time>
      </trkpt>
      <trkpt lat="49.20638" lon="0.15884">
        <ele>142.4</ele>
        <time>2024-09-22T07:41:37Z</time>
      </trkpt>
      <trkpt lat="49.20635" lon="0.15897">
        <ele>142.2</ele>
        <time>2024-09-22T07:41:38Z</time>
      </trkpt>
      <trkpt lat="49.20632" lon="0.1591">
        <ele>142</ele>
        <time>2024-09-22T07:41:39Z</time>
      </trkpt>
      <trkpt lat="49.20629" lon="0.15924">
        <ele>141.8</ele>
        <time>2024-09-22T07:41:40Z</time>
      </trkpt>
      <trkpt lat="49.20627" lon="0.15937">
        <ele>141.8</ele>
        <time>2024-09-22T07:41:41Z</time>
      </trkpt>
      <trkpt lat="49.20624" lon="0.15951">
        <ele>141.6</ele>
        <time>2024-09-22T07:41:42Z</time>
      </trkpt>
      <trkpt lat="49.20622" lon="0.15964">
        <ele>141.4</ele>
        <time>2024-09-22T07:41:43Z</time>
      </trkpt>
      <trkpt lat="49.20619" lon="0.15978">
        <ele>141.4</ele>
        <time>2024-09-22T07:41:44Z</time>
      </trkpt>
      <trkpt lat="49.20617" lon="0.15992">
        <ele>141.2</ele>
        <time>2024-09-22T07:41:45Z</time>
      </trkpt>
      <trkpt lat="49.20614" lon="0.16005">
        <ele>141.2</ele>
        <time>2024-09-22T07:41:46Z</time>
      </trkpt>
      <trkpt lat="49.20611" lon="0.16019">
        <ele>141</ele>
        <time>2024-09-22T07:41:47Z</time>
      </trkpt>
      <trkpt lat="49.20608" lon="0.16033">
        <ele>141</ele>
        <time>2024-09-22T07:41:48Z</time>
      </trkpt>
      <trkpt lat="49.20606" lon="0.16046">
        <ele>140.8</ele>
        <time>2024-09-22T07:41:49Z</time>
      </trkpt>
      <trkpt lat="49.20603" lon="0.16059">
        <ele>140.8</ele>
        <time>2024-09-22T07:41:50Z</time>
      </trkpt>
      <trkpt lat="49.206" lon="0.16073">
        <ele>140.8</ele>
        <time>2024-09-22T07:41:51Z</time>
      </trkpt>
      <trkpt lat="49.20597" lon="0.16086">
        <ele>140.6</ele>
        <time>2024-09-22T07:41:52Z</time>
      </trkpt>
      <trkpt lat="49.20594" lon="0.161">
        <ele>140.4</ele>
        <time>2024-09-22T07:41:53Z</time>
      </trkpt>
      <trkpt lat="49.20591" lon="0.16114">
        <ele>140</ele>
        <time>2024-09-22T07:41:54Z</time>
      </trkpt>
      <trkpt lat="49.20589" lon="0.16128">
        <ele>139.6</ele>
        <time>2024-09-22T07:41:55Z</time>
      </trkpt>
      <trkpt lat="49.20586" lon="0.16141">
        <ele>139.4</ele>
        <time>2024-09-22T07:41:56Z</time>
      </trkpt>
      <trkpt lat="49.20583" lon="0.16155">
        <ele>139.4</ele>
        <time>2024-09-22T07:41:57Z</time>
      </trkpt>
      <trkpt lat="49.20581" lon="0.16168">
        <ele>139.4</ele>
        <time>2024-09-22T07:41:58Z</time>
      </trkpt>
      <trkpt lat="49.20578" lon="0.16181">
        <ele>139</ele>
        <time>2024-09-22T07:41:59Z</time>
      </trkpt>
      <trkpt lat="49.20575" lon="0.16195">
        <ele>138.8</ele>
        <time>2024-09-22T07:42:00Z</time>
      </trkpt>
      <trkpt lat="49.20572" lon="0.16208">
        <ele>138.6</ele>
        <time>2024-09-22T07:42:01Z</time>
      </trkpt>
      <trkpt lat="49.2057" lon="0.16222">
        <ele>138.4</ele>
        <time>2024-09-22T07:42:02Z</time>
      </trkpt>
      <trkpt lat="49.20567" lon="0.16235">
        <ele>138.2</ele>
        <time>2024-09-22T07:42:03Z</time>
      </trkpt>
      <trkpt lat="49.20564" lon="0.16248">
        <ele>138</ele>
        <time>2024-09-22T07:42:04Z</time>
      </trkpt>
      <trkpt lat="49.20561" lon="0.16262">
        <ele>137.8</ele>
        <time>2024-09-22T07:42:05Z</time>
      </trkpt>
      <trkpt lat="49.20558" lon="0.16275">
        <ele>137.6</ele>
        <time>2024-09-22T07:42:06Z</time>
      </trkpt>
      <trkpt lat="49.20556" lon="0.16288">
        <ele>137</ele>
        <time>2024-09-22T07:42:07Z</time>
      </trkpt>
      <trkpt lat="49.20553" lon="0.16302">
        <ele>136.8</ele>
        <time>2024-09-22T07:42:08Z</time>
      </trkpt>
      <trkpt lat="49.2055" lon="0.16315">
        <ele>136.6</ele>
        <time>2024-09-22T07:42:09Z</time>
      </trkpt>
      <trkpt lat="49.20547" lon="0.16328">
        <ele>136.6</ele>
        <time>2024-09-22T07:42:10Z</time>
      </trkpt>
      <trkpt lat="49.20544" lon="0.16341">
        <ele>136.4</ele>
        <time>2024-09-22T07:42:11Z</time>
      </trkpt>
      <trkpt lat="49.2054" lon="0.16354">
        <ele>136.2</ele>
        <time>2024-09-22T07:42:12Z</time>
      </trkpt>
      <trkpt lat="49.20537" lon="0.16367">
        <ele>136</ele>
        <time>2024-09-22T07:42:13Z</time>
      </trkpt>
      <trkpt lat="49.20533" lon="0.1638">
        <ele>135.8</ele>
        <time>2024-09-22T07:42:14Z</time>
      </trkpt>
      <trkpt lat="49.2053" lon="0.16392">
        <ele>135.8</ele>
        <time>2024-09-22T07:42:15Z</time>
      </trkpt>
      <trkpt lat="49.20526" lon="0.16405">
        <ele>135.6</ele>
        <time>2024-09-22T07:42:16Z</time>
      </trkpt>
      <trkpt lat="49.20521" lon="0.16416">
        <ele>135.6</ele>
        <time>2024-09-22T07:42:17Z</time>
      </trkpt>
      <trkpt lat="49.20516" lon="0.16428">
        <ele>135.6</ele>
        <time>2024-09-22T07:42:18Z</time>
      </trkpt>
      <trkpt lat="49.20511" lon="0.16439">
        <ele>135.4</ele>
        <time>2024-09-22T07:42:19Z</time>
      </trkpt>
      <trkpt lat="49.20506" lon="0.1645">
        <ele>135.2</ele>
        <time>2024-09-22T07:42:20Z</time>
      </trkpt>
      <trkpt lat="49.20501" lon="0.16462">
        <ele>135.2</ele>
        <time>2024-09-22T07:42:21Z</time>
      </trkpt>
      <trkpt lat="49.20496" lon="0.16474">
        <ele>134.8</ele>
        <time>2024-09-22T07:42:22Z</time>
      </trkpt>
      <trkpt lat="49.20492" lon="0.16486">
        <ele>134.6</ele>
        <time>2024-09-22T07:42:23Z</time>
      </trkpt>
      <trkpt lat="49.20487" lon="0.16498">
        <ele>134.4</ele>
        <time>2024-09-22T07:42:24Z</time>
      </trkpt>
      <trkpt lat="49.20482" lon="0.16511">
        <ele>134.4</ele>
        <time>2024-09-22T07:42:25Z</time>
      </trkpt>
      <trkpt lat="49.20477" lon="0.16523">
        <ele>134.2</ele>
        <time>2024-09-22T07:42:26Z</time>
      </trkpt>
      <trkpt lat="49.20472" lon="0.16534">
        <ele>134.2</ele>
        <time>2024-09-22T07:42:27Z</time>
      </trkpt>
      <trkpt lat="49.20467" lon="0.16545">
        <ele>134</ele>
        <time>2024-09-22T07:42:28Z</time>
      </trkpt>
      <trkpt lat="49.20462" lon="0.16557">
        <ele>134</ele>
        <time>2024-09-22T07:42:29Z</time>
      </trkpt>
      <trkpt lat="49.20457" lon="0.16568">
        <ele>134</ele>
        <time>2024-09-22T07:42:30Z</time>
      </trkpt>
      <trkpt lat="49.20452" lon="0.16579">
        <ele>133.8</ele>
        <time>2024-09-22T07:42:31Z</time>
      </trkpt>
      <trkpt lat="49.20447" lon="0.16591">
        <ele>133.8</ele>
        <time>2024-09-22T07:42:32Z</time>
      </trkpt>
      <trkpt lat="49.20442" lon="0.16602">
        <ele>133.8</ele>
        <time>2024-09-22T07:42:33Z</time>
      </trkpt>
      <trkpt lat="49.20436" lon="0.16613">
        <ele>133.6</ele>
        <time>2024-09-22T07:42:34Z</time>
      </trkpt>
      <trkpt lat="49.20431" lon="0.16624">
        <ele>133.6</ele>
        <time>2024-09-22T07:42:35Z</time>
      </trkpt>
      <trkpt lat="49.20426" lon="0.16635">
        <ele>133.4</ele>
        <time>2024-09-22T07:42:36Z</time>
      </trkpt>
      <trkpt lat="49.20421" lon="0.16647">
        <ele>133.4</ele>
        <time>2024-09-22T07:42:37Z</time>
      </trkpt>
      <trkpt lat="49.20415" lon="0.16658">
        <ele>133.2</ele>
        <time>2024-09-22T07:42:38Z</time>
      </trkpt>
      <trkpt lat="49.20409" lon="0.16668">
        <ele>133.2</ele>
        <time>2024-09-22T07:42:39Z</time>
      </trkpt>
      <trkpt lat="49.20402" lon="0.16677">
        <ele>133</ele>
        <time>2024-09-22T07:42:40Z</time>
      </trkpt>
      <trkpt lat="49.20395" lon="0.16686">
        <ele>133</ele>
        <time>2024-09-22T07:42:41Z</time>
      </trkpt>
      <trkpt lat="49.20388" lon="0.16693">
        <ele>132.8</ele>
        <time>2024-09-22T07:42:42Z</time>
      </trkpt>
      <trkpt lat="49.2038" lon="0.16698">
        <ele>132.6</ele>
        <time>2024-09-22T07:42:43Z</time>
      </trkpt>
      <trkpt lat="49.20371" lon="0.16702">
        <ele>132.6</ele>
        <time>2024-09-22T07:42:44Z</time>
      </trkpt>
      <trkpt lat="49.20363" lon="0.16705">
        <ele>132.4</ele>
        <time>2024-09-22T07:42:45Z</time>
      </trkpt>
      <trkpt lat="49.20354" lon="0.16706">
        <ele>132.4</ele>
        <time>2024-09-22T07:42:46Z</time>
      </trkpt>
      <trkpt lat="49.20344" lon="0.16707">
        <ele>132.4</ele>
        <time>2024-09-22T07:42:47Z</time>
      </trkpt>
      <trkpt lat="49.20335" lon="0.16708">
        <ele>132</ele>
        <time>2024-09-22T07:42:48Z</time>
      </trkpt>
      <trkpt lat="49.20325" lon="0.1671">
        <ele>131.8</ele>
        <time>2024-09-22T07:42:49Z</time>
      </trkpt>
      <trkpt lat="49.20314" lon="0.16711">
        <ele>131.4</ele>
        <time>2024-09-22T07:42:50Z</time>
      </trkpt>
      <trkpt lat="49.20304" lon="0.16713">
        <ele>131.4</ele>
        <time>2024-09-22T07:42:51Z</time>
      </trkpt>
      <trkpt lat="49.20294" lon="0.16714">
        <ele>131.2</ele>
        <time>2024-09-22T07:42:52Z</time>
      </trkpt>
      <trkpt lat="49.20283" lon="0.16715">
        <ele>131</ele>
        <time>2024-09-22T07:42:53Z</time>
      </trkpt>
      <trkpt lat="49.20272" lon="0.16717">
        <ele>130.8</ele>
        <time>2024-09-22T07:42:54Z</time>
      </trkpt>
      <trkpt lat="49.20261" lon="0.16719">
        <ele>130.4</ele>
        <time>2024-09-22T07:42:55Z</time>
      </trkpt>
      <trkpt lat="49.2025" lon="0.16721">
        <ele>130</ele>
        <time>2024-09-22T07:42:56Z</time>
      </trkpt>
      <trkpt lat="49.20238" lon="0.16723">
        <ele>130</ele>
        <time>2024-09-22T07:42:57Z</time>
      </trkpt>
      <trkpt lat="49.20227" lon="0.16726">
        <ele>129.4</ele>
        <time>2024-09-22T07:42:58Z</time>
      </trkpt>
      <trkpt lat="49.20215" lon="0.16728">
        <ele>128.8</ele>
        <time>2024-09-22T07:42:59Z</time>
      </trkpt>
      <trkpt lat="49.20203" lon="0.1673">
        <ele>128.2</ele>
        <time>2024-09-22T07:43:00Z</time>
      </trkpt>
      <trkpt lat="49.20192" lon="0.16732">
        <ele>127.6</ele>
        <time>2024-09-22T07:43:01Z</time>
      </trkpt>
      <trkpt lat="49.20181" lon="0.16734">
        <ele>126.8</ele>
        <time>2024-09-22T07:43:02Z</time>
      </trkpt>
      <trkpt lat="49.20169" lon="0.16736">
        <ele>126</ele>
        <time>2024-09-22T07:43:03Z</time>
      </trkpt>
      <trkpt lat="49.20157" lon="0.16737">
        <ele>125</ele>
        <time>2024-09-22T07:43:04Z</time>
      </trkpt>
      <trkpt lat="49.20145" lon="0.16739">
        <ele>123.6</ele>
        <time>2024-09-22T07:43:05Z</time>
      </trkpt>
      <trkpt lat="49.20132" lon="0.16741">
        <ele>122.6</ele>
        <time>2024-09-22T07:43:06Z</time>
      </trkpt>
      <trkpt lat="49.2012" lon="0.16744">
        <ele>121.6</ele>
        <time>2024-09-22T07:43:07Z</time>
      </trkpt>
      <trkpt lat="49.20108" lon="0.16746">
        <ele>120.6</ele>
        <time>2024-09-22T07:43:08Z</time>
      </trkpt>
      <trkpt lat="49.20096" lon="0.1675">
        <ele>119.6</ele>
        <time>2024-09-22T07:43:09Z</time>
      </trkpt>
      <trkpt lat="49.20084" lon="0.16755">
        <ele>118.6</ele>
        <time>2024-09-22T07:43:10Z</time>
      </trkpt>
      <trkpt lat="49.20072" lon="0.16761">
        <ele>117.6</ele>
        <time>2024-09-22T07:43:11Z</time>
      </trkpt>
      <trkpt lat="49.20061" lon="0.16768">
        <ele>116.4</ele>
        <time>2024-09-22T07:43:12Z</time>
      </trkpt>
      <trkpt lat="49.20048" lon="0.16776">
        <ele>115.4</ele>
        <time>2024-09-22T07:43:13Z</time>
      </trkpt>
      <trkpt lat="49.20034" lon="0.16786">
        <ele>114.2</ele>
        <time>2024-09-22T07:43:14Z</time>
      </trkpt>
      <trkpt lat="49.20022" lon="0.16795">
        <ele>113.2</ele>
        <time>2024-09-22T07:43:15Z</time>
      </trkpt>
      <trkpt lat="49.20012" lon="0.16801">
        <ele>112</ele>
        <time>2024-09-22T07:43:16Z</time>
      </trkpt>
      <trkpt lat="49.2" lon="0.1681">
        <ele>112</ele>
        <time>2024-09-22T07:43:17Z</time>
      </trkpt>
      <trkpt lat="49.19989" lon="0.16818">
        <ele>111</ele>
        <time>2024-09-22T07:43:18Z</time>
      </trkpt>
      <trkpt lat="49.19978" lon="0.16826">
        <ele>109.8</ele>
        <time>2024-09-22T07:43:19Z</time>
      </trkpt>
      <trkpt lat="49.19966" lon="0.16834">
        <ele>108.6</ele>
        <time>2024-09-22T07:43:20Z</time>
      </trkpt>
      <trkpt lat="49.19955" lon="0.16842">
        <ele>107.4</ele>
        <time>2024-09-22T07:43:21Z</time>
      </trkpt>
      <trkpt lat="49.19944" lon="0.16851">
        <ele>106.4</ele>
        <time>2024-09-22T07:43:22Z</time>
      </trkpt>
      <trkpt lat="49.19933" lon="0.16861">
        <ele>105.2</ele>
        <time>2024-09-22T07:43:23Z</time>
      </trkpt>
      <trkpt lat="49.19922" lon="0.16871">
        <ele>104</ele>
        <time>2024-09-22T07:43:24Z</time>
      </trkpt>
      <trkpt lat="49.1991" lon="0.1688">
        <ele>103</ele>
        <time>2024-09-22T07:43:25Z</time>
      </trkpt>
      <trkpt lat="49.19899" lon="0.1689">
        <ele>101.8</ele>
        <time>2024-09-22T07:43:26Z</time>
      </trkpt>
      <trkpt lat="49.19887" lon="0.16901">
        <ele>100.8</ele>
        <time>2024-09-22T07:43:27Z</time>
      </trkpt>
      <trkpt lat="49.19876" lon="0.16913">
        <ele>99.8</ele>
        <time>2024-09-22T07:43:28Z</time>
      </trkpt>
      <trkpt lat="49.19866" lon="0.16925">
        <ele>98.8</ele>
        <time>2024-09-22T07:43:29Z</time>
      </trkpt>
      <trkpt lat="49.19855" lon="0.16939">
        <ele>97.6</ele>
        <time>2024-09-22T07:43:30Z</time>
      </trkpt>
      <trkpt lat="49.19845" lon="0.16953">
        <ele>96.4</ele>
        <time>2024-09-22T07:43:31Z</time>
      </trkpt>
      <trkpt lat="49.19835" lon="0.16966">
        <ele>95</ele>
        <time>2024-09-22T07:43:32Z</time>
      </trkpt>
      <trkpt lat="49.19825" lon="0.1698">
        <ele>93.6</ele>
        <time>2024-09-22T07:43:33Z</time>
      </trkpt>
      <trkpt lat="49.19816" lon="0.16994">
        <ele>92.4</ele>
        <time>2024-09-22T07:43:34Z</time>
      </trkpt>
      <trkpt lat="49.19808" lon="0.17009">
        <ele>91.4</ele>
        <time>2024-09-22T07:43:35Z</time>
      </trkpt>
      <trkpt lat="49.19799" lon="0.17024">
        <ele>91.4</ele>
        <time>2024-09-22T07:43:36Z</time>
      </trkpt>
      <trkpt lat="49.19791" lon="0.1704">
        <ele>90.4</ele>
        <time>2024-09-22T07:43:37Z</time>
      </trkpt>
      <trkpt lat="49.19783" lon="0.17056">
        <ele>89.2</ele>
        <time>2024-09-22T07:43:38Z</time>
      </trkpt>
      <trkpt lat="49.19775" lon="0.17072">
        <ele>88</ele>
        <time>2024-09-22T07:43:39Z</time>
      </trkpt>
      <trkpt lat="49.19768" lon="0.17089">
        <ele>87</ele>
        <time>2024-09-22T07:43:40Z</time>
      </trkpt>
      <trkpt lat="49.19761" lon="0.17106">
        <ele>86.4</ele>
        <time>2024-09-22T07:43:41Z</time>
      </trkpt>
      <trkpt lat="49.19757" lon="0.1712">
        <ele>85.8</ele>
        <time>2024-09-22T07:43:42Z</time>
      </trkpt>
      <trkpt lat="49.19751" lon="0.17143">
        <ele>85.2</ele>
        <time>2024-09-22T07:43:43Z</time>
      </trkpt>
      <trkpt lat="49.19747" lon="0.17161">
        <ele>84.6</ele>
        <time>2024-09-22T07:43:44Z</time>
      </trkpt>
      <trkpt lat="49.19743" lon="0.1718">
        <ele>83.6</ele>
        <time>2024-09-22T07:43:45Z</time>
      </trkpt>
      <trkpt lat="49.19739" lon="0.17198">
        <ele>82.6</ele>
        <time>2024-09-22T07:43:46Z</time>
      </trkpt>
      <trkpt lat="49.19734" lon="0.17216">
        <ele>81.4</ele>
        <time>2024-09-22T07:43:47Z</time>
      </trkpt>
      <trkpt lat="49.1973" lon="0.17234">
        <ele>80.4</ele>
        <time>2024-09-22T07:43:48Z</time>
      </trkpt>
      <trkpt lat="49.19726" lon="0.17252">
        <ele>79.4</ele>
        <time>2024-09-22T07:43:49Z</time>
      </trkpt>
      <trkpt lat="49.19722" lon="0.1727">
        <ele>78.2</ele>
        <time>2024-09-22T07:43:50Z</time>
      </trkpt>
      <trkpt lat="49.19718" lon="0.17287">
        <ele>77</ele>
        <time>2024-09-22T07:43:51Z</time>
      </trkpt>
      <trkpt lat="49.19711" lon="0.17307">
        <ele>75.8</ele>
        <time>2024-09-22T07:43:52Z</time>
      </trkpt>
      <trkpt lat="49.19705" lon="0.17319">
        <ele>74.6</ele>
        <time>2024-09-22T07:43:53Z</time>
      </trkpt>
      <trkpt lat="49.19696" lon="0.17333">
        <ele>73.4</ele>
        <time>2024-09-22T07:43:54Z</time>
      </trkpt>
      <trkpt lat="49.19686" lon="0.17346">
        <ele>72</ele>
        <time>2024-09-22T07:43:55Z</time>
      </trkpt>
      <trkpt lat="49.19676" lon="0.17358">
        <ele>72</ele>
        <time>2024-09-22T07:43:56Z</time>
      </trkpt>
      <trkpt lat="49.19665" lon="0.1737">
        <ele>70.6</ele>
        <time>2024-09-22T07:43:57Z</time>
      </trkpt>
      <trkpt lat="49.19654" lon="0.17381">
        <ele>69.8</ele>
        <time>2024-09-22T07:43:58Z</time>
      </trkpt>
      <trkpt lat="49.19645" lon="0.17392">
        <ele>69</ele>
        <time>2024-09-22T07:43:59Z</time>
      </trkpt>
      <trkpt lat="49.19635" lon="0.17402">
        <ele>67.8</ele>
        <time>2024-09-22T07:44:00Z</time>
      </trkpt>
      <trkpt lat="49.19626" lon="0.17412">
        <ele>66.4</ele>
        <time>2024-09-22T07:44:01Z</time>
      </trkpt>
      <trkpt lat="49.19618" lon="0.17421">
        <ele>65.6</ele>
        <time>2024-09-22T07:44:02Z</time>
      </trkpt>
      <trkpt lat="49.1961" lon="0.1743">
        <ele>64.6</ele>
        <time>2024-09-22T07:44:03Z</time>
      </trkpt>
      <trkpt lat="49.19602" lon="0.17439">
        <ele>64.2</ele>
        <time>2024-09-22T07:44:04Z</time>
      </trkpt>
      <trkpt lat="49.19594" lon="0.17447">
        <ele>64</ele>
        <time>2024-09-22T07:44:05Z</time>
      </trkpt>
      <trkpt lat="49.19587" lon="0.17456">
        <ele>63.8</ele>
        <time>2024-09-22T07:44:06Z</time>
      </trkpt>
      <trkpt lat="49.19581" lon="0.17466">
        <ele>63.8</ele>
        <time>2024-09-22T07:44:07Z</time>
      </trkpt>
      <trkpt lat="49.19575" lon="0.17476">
        <ele>63.8</ele>
        <time>2024-09-22T07:44:08Z</time>
      </trkpt>
      <trkpt lat="49.19569" lon="0.17486">
        <ele>63.8</ele>
        <time>2024-09-22T07:44:09Z</time>
      </trkpt>
      <trkpt lat="49.19563" lon="0.17495">
        <ele>63.8</ele>
        <time>2024-09-22T07:44:10Z</time>
      </trkpt>
      <trkpt lat="49.19557" lon="0.17505">
        <ele>63.8</ele>
        <time>2024-09-22T07:44:11Z</time>
      </trkpt>
      <trkpt lat="49.19552" lon="0.17515">
        <ele>63.8</ele>
        <time>2024-09-22T07:44:12Z</time>
      </trkpt>
      <trkpt lat="49.19548" lon="0.17525">
        <ele>63.8</ele>
        <time>2024-09-22T07:44:13Z</time>
      </trkpt>
      <trkpt lat="49.19543" lon="0.17534">
        <ele>64.2</ele>
        <time>2024-09-22T07:44:14Z</time>
      </trkpt>
      <trkpt lat="49.19537" lon="0.17543">
        <ele>64.8</ele>
        <time>2024-09-22T07:44:15Z</time>
      </trkpt>
      <trkpt lat="49.19532" lon="0.17553">
        <ele>64.8</ele>
        <time>2024-09-22T07:44:16Z</time>
      </trkpt>
      <trkpt lat="49.19527" lon="0.17562">
        <ele>65.2</ele>
        <time>2024-09-22T07:44:17Z</time>
      </trkpt>
      <trkpt lat="49.19522" lon="0.17572">
        <ele>65.4</ele>
        <time>2024-09-22T07:44:18Z</time>
      </trkpt>
      <trkpt lat="49.19518" lon="0.17582">
        <ele>65.6</ele>
        <time>2024-09-22T07:44:19Z</time>
      </trkpt>
      <trkpt lat="49.19513" lon="0.17591">
        <ele>65.8</ele>
        <time>2024-09-22T07:44:20Z</time>
      </trkpt>
      <trkpt lat="49.19509" lon="0.17601">
        <ele>65.8</ele>
        <time>2024-09-22T07:44:21Z</time>
      </trkpt>
      <trkpt lat="49.19504" lon="0.1761">
        <ele>66</ele>
        <time>2024-09-22T07:44:22Z</time>
      </trkpt>
      <trkpt lat="49.195" lon="0.17619">
        <ele>66.4</ele>
        <time>2024-09-22T07:44:23Z</time>
      </trkpt>
      <trkpt lat="49.19495" lon="0.17628">
        <ele>66.6</ele>
        <time>2024-09-22T07:44:24Z</time>
      </trkpt>
      <trkpt lat="49.19491" lon="0.17638">
        <ele>66.8</ele>
        <time>2024-09-22T07:44:25Z</time>
      </trkpt>
      <trkpt lat="49.19487" lon="0.17646">
        <ele>67</ele>
        <time>2024-09-22T07:44:26Z</time>
      </trkpt>
      <trkpt lat="49.19483" lon="0.17655">
        <ele>67</ele>
        <time>2024-09-22T07:44:27Z</time>
      </trkpt>
      <trkpt lat="49.19479" lon="0.17664">
        <ele>67</ele>
        <time>2024-09-22T07:44:28Z</time>
      </trkpt>
      <trkpt lat="49.19474" lon="0.17673">
        <ele>67.4</ele>
        <time>2024-09-22T07:44:29Z</time>
      </trkpt>
      <trkpt lat="49.1947" lon="0.17681">
        <ele>67.8</ele>
        <time>2024-09-22T07:44:30Z</time>
      </trkpt>
      <trkpt lat="49.19466" lon="0.1769">
        <ele>68.4</ele>
        <time>2024-09-22T07:44:31Z</time>
      </trkpt>
      <trkpt lat="49.19462" lon="0.17698">
        <ele>68.6</ele>
        <time>2024-09-22T07:44:32Z</time>
      </trkpt>
      <trkpt lat="49.19458" lon="0.17707">
        <ele>68.8</ele>
        <time>2024-09-22T07:44:33Z</time>
      </trkpt>
      <trkpt lat="49.19454" lon="0.17715">
        <ele>69</ele>
        <time>2024-09-22T07:44:34Z</time>
      </trkpt>
      <trkpt lat="49.19451" lon="0.17724">
        <ele>69.2</ele>
        <time>2024-09-22T07:44:35Z</time>
      </trkpt>
      <trkpt lat="49.19447" lon="0.17733">
        <ele>69.2</ele>
        <time>2024-09-22T07:44:36Z</time>
      </trkpt>
      <trkpt lat="49.19444" lon="0.17742">
        <ele>69.2</ele>
        <time>2024-09-22T07:44:37Z</time>
      </trkpt>
      <trkpt lat="49.1944" lon="0.17751">
        <ele>69.4</ele>
        <time>2024-09-22T07:44:38Z</time>
      </trkpt>
      <trkpt lat="49.19436" lon="0.1776">
        <ele>69.8</ele>
        <time>2024-09-22T07:44:39Z</time>
      </trkpt>
      <trkpt lat="49.19433" lon="0.17769">
        <ele>70</ele>
        <time>2024-09-22T07:44:40Z</time>
      </trkpt>
      <trkpt lat="49.1943" lon="0.17778">
        <ele>70.2</ele>
        <time>2024-09-22T07:44:41Z</time>
      </trkpt>
      <trkpt lat="49.19427" lon="0.17787">
        <ele>70.4</ele>
        <time>2024-09-22T07:44:42Z</time>
      </trkpt>
      <trkpt lat="49.19423" lon="0.17796">
        <ele>70.8</ele>
        <time>2024-09-22T07:44:43Z</time>
      </trkpt>
      <trkpt lat="49.1942" lon="0.17805">
        <ele>70.8</ele>
        <time>2024-09-22T07:44:44Z</time>
      </trkpt>
      <trkpt lat="49.19417" lon="0.17814">
        <ele>71</ele>
        <time>2024-09-22T07:44:45Z</time>
      </trkpt>
      <trkpt lat="49.19413" lon="0.17823">
        <ele>71</ele>
        <time>2024-09-22T07:44:46Z</time>
      </trkpt>
      <trkpt lat="49.19409" lon="0.17831">
        <ele>71.4</ele>
        <time>2024-09-22T07:44:47Z</time>
      </trkpt>
      <trkpt lat="49.19404" lon="0.17839">
        <ele>71.6</ele>
        <time>2024-09-22T07:44:48Z</time>
      </trkpt>
      <trkpt lat="49.194" lon="0.17846">
        <ele>71.8</ele>
        <time>2024-09-22T07:44:49Z</time>
      </trkpt>
      <trkpt lat="49.19395" lon="0.17853">
        <ele>72</ele>
        <time>2024-09-22T07:44:50Z</time>
      </trkpt>
      <trkpt lat="49.1939" lon="0.1786">
        <ele>72.2</ele>
        <time>2024-09-22T07:44:51Z</time>
      </trkpt>
      <trkpt lat="49.19384" lon="0.17867">
        <ele>72.4</ele>
        <time>2024-09-22T07:44:52Z</time>
      </trkpt>
      <trkpt lat="49.19379" lon="0.17874">
        <ele>72.6</ele>
        <time>2024-09-22T07:44:53Z</time>
      </trkpt>
      <trkpt lat="49.19374" lon="0.1788">
        <ele>72.8</ele>
        <time>2024-09-22T07:44:54Z</time>
      </trkpt>
      <trkpt lat="49.19369" lon="0.17886">
        <ele>73</ele>
        <time>2024-09-22T07:44:55Z</time>
      </trkpt>
      <trkpt lat="49.19363" lon="0.17891">
        <ele>73</ele>
        <time>2024-09-22T07:44:56Z</time>
      </trkpt>
      <trkpt lat="49.19357" lon="0.17895">
        <ele>73.2</ele>
        <time>2024-09-22T07:44:57Z</time>
      </trkpt>
      <trkpt lat="49.19351" lon="0.179">
        <ele>73.2</ele>
        <time>2024-09-22T07:44:58Z</time>
      </trkpt>
      <trkpt lat="49.19345" lon="0.17904">
        <ele>73.6</ele>
        <time>2024-09-22T07:44:59Z</time>
      </trkpt>
      <trkpt lat="49.19338" lon="0.17907">
        <ele>73.8</ele>
        <time>2024-09-22T07:45:00Z</time>
      </trkpt>
      <trkpt lat="49.19332" lon="0.1791">
        <ele>74</ele>
        <time>2024-09-22T07:45:01Z</time>
      </trkpt>
      <trkpt lat="49.19325" lon="0.17912">
        <ele>74</ele>
        <time>2024-09-22T07:45:02Z</time>
      </trkpt>
      <trkpt lat="49.19317" lon="0.17914">
        <ele>74.2</ele>
        <time>2024-09-22T07:45:03Z</time>
      </trkpt>
      <trkpt lat="49.1931" lon="0.17916">
        <ele>74.2</ele>
        <time>2024-09-22T07:45:04Z</time>
      </trkpt>
      <trkpt lat="49.19302" lon="0.17917">
        <ele>74.2</ele>
        <time>2024-09-22T07:45:05Z</time>
      </trkpt>
      <trkpt lat="49.19294" lon="0.17917">
        <ele>74.2</ele>
        <time>2024-09-22T07:45:06Z</time>
      </trkpt>
      <trkpt lat="49.19286" lon="0.17917">
        <ele>74.2</ele>
        <time>2024-09-22T07:45:07Z</time>
      </trkpt>
      <trkpt lat="49.19279" lon="0.17917">
        <ele>74.2</ele>
        <time>2024-09-22T07:45:08Z</time>
      </trkpt>
      <trkpt lat="49.19271" lon="0.17916">
        <ele>74.2</ele>
        <time>2024-09-22T07:45:09Z</time>
      </trkpt>
      <trkpt lat="49.19263" lon="0.17914">
        <ele>74.2</ele>
        <time>2024-09-22T07:45:10Z</time>
      </trkpt>
      <trkpt lat="49.19255" lon="0.17912">
        <ele>74.2</ele>
        <time>2024-09-22T07:45:11Z</time>
      </trkpt>
      <trkpt lat="49.19247" lon="0.17908">
        <ele>74.2</ele>
        <time>2024-09-22T07:45:12Z</time>
      </trkpt>
      <trkpt lat="49.19239" lon="0.17904">
        <ele>74</ele>
        <time>2024-09-22T07:45:13Z</time>
      </trkpt>
      <trkpt lat="49.19231" lon="0.17899">
        <ele>74</ele>
        <time>2024-09-22T07:45:14Z</time>
      </trkpt>
      <trkpt lat="49.19222" lon="0.17894">
        <ele>73.8</ele>
        <time>2024-09-22T07:45:15Z</time>
      </trkpt>
      <trkpt lat="49.19214" lon="0.17889">
        <ele>73.8</ele>
        <time>2024-09-22T07:45:16Z</time>
      </trkpt>
      <trkpt lat="49.19204" lon="0.17883">
        <ele>73.8</ele>
        <time>2024-09-22T07:45:17Z</time>
      </trkpt>
      <trkpt lat="49.19196" lon="0.17877">
        <ele>73.6</ele>
        <time>2024-09-22T07:45:18Z</time>
      </trkpt>
      <trkpt lat="49.19187" lon="0.17871">
        <ele>73.6</ele>
        <time>2024-09-22T07:45:19Z</time>
      </trkpt>
      <trkpt lat="49.19178" lon="0.17865">
        <ele>73.4</ele>
        <time>2024-09-22T07:45:20Z</time>
      </trkpt>
      <trkpt lat="49.19169" lon="0.17859">
        <ele>73.4</ele>
        <time>2024-09-22T07:45:21Z</time>
      </trkpt>
      <trkpt lat="49.1916" lon="0.17852">
        <ele>73.2</ele>
        <time>2024-09-22T07:45:22Z</time>
      </trkpt>
      <trkpt lat="49.19151" lon="0.17846">
        <ele>73</ele>
        <time>2024-09-22T07:45:23Z</time>
      </trkpt>
      <trkpt lat="49.19142" lon="0.1784">
        <ele>72.8</ele>
        <time>2024-09-22T07:45:24Z</time>
      </trkpt>
      <trkpt lat="49.19135" lon="0.17835">
        <ele>72.4</ele>
        <time>2024-09-22T07:45:25Z</time>
      </trkpt>
      <trkpt lat="49.19126" lon="0.17829">
        <ele>72</ele>
        <time>2024-09-22T07:45:26Z</time>
      </trkpt>
      <trkpt lat="49.19116" lon="0.17823">
        <ele>71.4</ele>
        <time>2024-09-22T07:45:27Z</time>
      </trkpt>
      <trkpt lat="49.19107" lon="0.17818">
        <ele>71</ele>
        <time>2024-09-22T07:45:28Z</time>
      </trkpt>
      <trkpt lat="49.19095" lon="0.1781">
        <ele>70.4</ele>
        <time>2024-09-22T07:45:29Z</time>
      </trkpt>
      <trkpt lat="49.19086" lon="0.17804">
        <ele>69.8</ele>
        <time>2024-09-22T07:45:30Z</time>
      </trkpt>
      <trkpt lat="49.19077" lon="0.17797">
        <ele>69.4</ele>
        <time>2024-09-22T07:45:31Z</time>
      </trkpt>
      <trkpt lat="49.19067" lon="0.17791">
        <ele>69</ele>
        <time>2024-09-22T07:45:32Z</time>
      </trkpt>
      <trkpt lat="49.19057" lon="0.17784">
        <ele>68.4</ele>
        <time>2024-09-22T07:45:33Z</time>
      </trkpt>
      <trkpt lat="49.19047" lon="0.17778">
        <ele>67.8</ele>
        <time>2024-09-22T07:45:34Z</time>
      </trkpt>
      <trkpt lat="49.19038" lon="0.17771">
        <ele>67.4</ele>
        <time>2024-09-22T07:45:35Z</time>
      </trkpt>
      <trkpt lat="49.19028" lon="0.17764">
        <ele>67.4</ele>
        <time>2024-09-22T07:45:36Z</time>
      </trkpt>
      <trkpt lat="49.19018" lon="0.17758">
        <ele>67</ele>
        <time>2024-09-22T07:45:37Z</time>
      </trkpt>
      <trkpt lat="49.19009" lon="0.17751">
        <ele>66.4</ele>
        <time>2024-09-22T07:45:38Z</time>
      </trkpt>
      <trkpt lat="49.19" lon="0.17745">
        <ele>66</ele>
        <time>2024-09-22T07:45:39Z</time>
      </trkpt>
      <trkpt lat="49.1899" lon="0.17738">
        <ele>65.6</ele>
        <time>2024-09-22T07:45:40Z</time>
      </trkpt>
      <trkpt lat="49.18981" lon="0.17732">
        <ele>65.2</ele>
        <time>2024-09-22T07:45:41Z</time>
      </trkpt>
      <trkpt lat="49.18971" lon="0.17726">
        <ele>64.8</ele>
        <time>2024-09-22T07:45:42Z</time>
      </trkpt>
      <trkpt lat="49.18962" lon="0.1772">
        <ele>64.2</ele>
        <time>2024-09-22T07:45:43Z</time>
      </trkpt>
      <trkpt lat="49.18954" lon="0.17715">
        <ele>64</ele>
        <time>2024-09-22T07:45:44Z</time>
      </trkpt>
      <trkpt lat="49.18943" lon="0.17707">
        <ele>63.8</ele>
        <time>2024-09-22T07:45:45Z</time>
      </trkpt>
      <trkpt lat="49.18933" lon="0.17701">
        <ele>63.4</ele>
        <time>2024-09-22T07:45:46Z</time>
      </trkpt>
      <trkpt lat="49.18923" lon="0.17695">
        <ele>63.2</ele>
        <time>2024-09-22T07:45:47Z</time>
      </trkpt>
      <trkpt lat="49.18914" lon="0.17689">
        <ele>62.8</ele>
        <time>2024-09-22T07:45:48Z</time>
      </trkpt>
      <trkpt lat="49.18904" lon="0.17682">
        <ele>62.4</ele>
        <time>2024-09-22T07:45:49Z</time>
      </trkpt>
      <trkpt lat="49.18894" lon="0.17676">
        <ele>62.4</ele>
        <time>2024-09-22T07:45:50Z</time>
      </trkpt>
      <trkpt lat="49.18884" lon="0.17669">
        <ele>62.2</ele>
        <time>2024-09-22T07:45:51Z</time>
      </trkpt>
      <trkpt lat="49.18874" lon="0.17663">
        <ele>62</ele>
        <time>2024-09-22T07:45:52Z</time>
      </trkpt>
      <trkpt lat="49.18867" lon="0.17658">
        <ele>61.8</ele>
        <time>2024-09-22T07:45:53Z</time>
      </trkpt>
      <trkpt lat="49.18855" lon="0.17651">
        <ele>61.8</ele>
        <time>2024-09-22T07:45:54Z</time>
      </trkpt>
      <trkpt lat="49.18847" lon="0.17646">
        <ele>61.6</ele>
        <time>2024-09-22T07:45:55Z</time>
      </trkpt>
      <trkpt lat="49.18838" lon="0.1764">
        <ele>61.6</ele>
        <time>2024-09-22T07:45:56Z</time>
      </trkpt>
      <trkpt lat="49.18828" lon="0.17633">
        <ele>61.4</ele>
        <time>2024-09-22T07:45:57Z</time>
      </trkpt>
      <trkpt lat="49.18819" lon="0.17626">
        <ele>61</ele>
        <time>2024-09-22T07:45:58Z</time>
      </trkpt>
      <trkpt lat="49.18809" lon="0.17619">
        <ele>60.6</ele>
        <time>2024-09-22T07:45:59Z</time>
      </trkpt>
      <trkpt lat="49.188" lon="0.17613">
        <ele>60.2</ele>
        <time>2024-09-22T07:46:00Z</time>
      </trkpt>
      <trkpt lat="49.1879" lon="0.17607">
        <ele>59.8</ele>
        <time>2024-09-22T07:46:01Z</time>
      </trkpt>
      <trkpt lat="49.18781" lon="0.17601">
        <ele>59.4</ele>
        <time>2024-09-22T07:46:02Z</time>
      </trkpt>
      <trkpt lat="49.18769" lon="0.17594">
        <ele>59</ele>
        <time>2024-09-22T07:46:03Z</time>
      </trkpt>
      <trkpt lat="49.18762" lon="0.17589">
        <ele>59</ele>
        <time>2024-09-22T07:46:04Z</time>
      </trkpt>
      <trkpt lat="49.18751" lon="0.17582">
        <ele>58.8</ele>
        <time>2024-09-22T07:46:05Z</time>
      </trkpt>
      <trkpt lat="49.18744" lon="0.17577">
        <ele>58.4</ele>
        <time>2024-09-22T07:46:06Z</time>
      </trkpt>
      <trkpt lat="49.18733" lon="0.1757">
        <ele>58.4</ele>
        <time>2024-09-22T07:46:07Z</time>
      </trkpt>
      <trkpt lat="49.18725" lon="0.17566">
        <ele>58.4</ele>
        <time>2024-09-22T07:46:08Z</time>
      </trkpt>
      <trkpt lat="49.18714" lon="0.1756">
        <ele>58.4</ele>
        <time>2024-09-22T07:46:09Z</time>
      </trkpt>
      <trkpt lat="49.18704" lon="0.17555">
        <ele>58.4</ele>
        <time>2024-09-22T07:46:10Z</time>
      </trkpt>
      <trkpt lat="49.18696" lon="0.17552">
        <ele>58</ele>
        <time>2024-09-22T07:46:11Z</time>
      </trkpt>
      <trkpt lat="49.18684" lon="0.17547">
        <ele>58</ele>
        <time>2024-09-22T07:46:12Z</time>
      </trkpt>
      <trkpt lat="49.18675" lon="0.17544">
        <ele>57.6</ele>
        <time>2024-09-22T07:46:13Z</time>
      </trkpt>
      <trkpt lat="49.18665" lon="0.17541">
        <ele>57.4</ele>
        <time>2024-09-22T07:46:14Z</time>
      </trkpt>
      <trkpt lat="49.18655" lon="0.17539">
        <ele>57.2</ele>
        <time>2024-09-22T07:46:15Z</time>
      </trkpt>
      <trkpt lat="49.18645" lon="0.17537">
        <ele>57.2</ele>
        <time>2024-09-22T07:46:16Z</time>
      </trkpt>
      <trkpt lat="49.18636" lon="0.17535">
        <ele>57</ele>
        <time>2024-09-22T07:46:17Z</time>
      </trkpt>
      <trkpt lat="49.18627" lon="0.17533">
        <ele>56.6</ele>
        <time>2024-09-22T07:46:18Z</time>
      </trkpt>
      <trkpt lat="49.18618" lon="0.17532">
        <ele>56.6</ele>
        <time>2024-09-22T07:46:19Z</time>
      </trkpt>
      <trkpt lat="49.18608" lon="0.1753">
        <ele>56.2</ele>
        <time>2024-09-22T07:46:20Z</time>
      </trkpt>
      <trkpt lat="49.18601" lon="0.1753">
        <ele>56.2</ele>
        <time>2024-09-22T07:46:21Z</time>
      </trkpt>
      <trkpt lat="49.18593" lon="0.17528">
        <ele>55.8</ele>
        <time>2024-09-22T07:46:22Z</time>
      </trkpt>
      <trkpt lat="49.18582" lon="0.17527">
        <ele>55.8</ele>
        <time>2024-09-22T07:46:23Z</time>
      </trkpt>
      <trkpt lat="49.18575" lon="0.17525">
        <ele>55.8</ele>
        <time>2024-09-22T07:46:24Z</time>
      </trkpt>
      <trkpt lat="49.18565" lon="0.17524">
        <ele>55.8</ele>
        <time>2024-09-22T07:46:25Z</time>
      </trkpt>
      <trkpt lat="49.18558" lon="0.17523">
        <ele>55.8</ele>
        <time>2024-09-22T07:46:26Z</time>
      </trkpt>
      <trkpt lat="49.18549" lon="0.17522">
        <ele>55.8</ele>
        <time>2024-09-22T07:46:27Z</time>
      </trkpt>
      <trkpt lat="49.18539" lon="0.17521">
        <ele>55.8</ele>
        <time>2024-09-22T07:46:28Z</time>
      </trkpt>
      <trkpt lat="49.18531" lon="0.17519">
        <ele>55.8</ele>
        <time>2024-09-22T07:46:29Z</time>
      </trkpt>
      <trkpt lat="49.18522" lon="0.17518">
        <ele>55.8</ele>
        <time>2024-09-22T07:46:30Z</time>
      </trkpt>
      <trkpt lat="49.18514" lon="0.17517">
        <ele>55.6</ele>
        <time>2024-09-22T07:46:31Z</time>
      </trkpt>
      <trkpt lat="49.18507" lon="0.17516">
        <ele>55.8</ele>
        <time>2024-09-22T07:46:32Z</time>
      </trkpt>
      <trkpt lat="49.18499" lon="0.17514">
        <ele>55.8</ele>
        <time>2024-09-22T07:46:33Z</time>
      </trkpt>
      <trkpt lat="49.18491" lon="0.17513">
        <ele>55.8</ele>
        <time>2024-09-22T07:46:34Z</time>
      </trkpt>
      <trkpt lat="49.18481" lon="0.17512">
        <ele>55.8</ele>
        <time>2024-09-22T07:46:35Z</time>
      </trkpt>
      <trkpt lat="49.18473" lon="0.17513">
        <ele>55.8</ele>
        <time>2024-09-22T07:46:36Z</time>
      </trkpt>
      <trkpt lat="49.18466" lon="0.17513">
        <ele>55.8</ele>
        <time>2024-09-22T07:46:37Z</time>
      </trkpt>
      <trkpt lat="49.18459" lon="0.17513">
        <ele>55.8</ele>
        <time>2024-09-22T07:46:38Z</time>
      </trkpt>
      <trkpt lat="49.1845" lon="0.17514">
        <ele>55.8</ele>
        <time>2024-09-22T07:46:39Z</time>
      </trkpt>
      <trkpt lat="49.18443" lon="0.17515">
        <ele>55.8</ele>
        <time>2024-09-22T07:46:40Z</time>
      </trkpt>
      <trkpt lat="49.18437" lon="0.17515">
        <ele>55.8</ele>
        <time>2024-09-22T07:46:41Z</time>
      </trkpt>
      <trkpt lat="49.18428" lon="0.17516">
        <ele>55.8</ele>
        <time>2024-09-22T07:46:42Z</time>
      </trkpt>
      <trkpt lat="49.18422" lon="0.17518">
        <ele>56</ele>
        <time>2024-09-22T07:46:43Z</time>
      </trkpt>
      <trkpt lat="49.18415" lon="0.17519">
        <ele>56</ele>
        <time>2024-09-22T07:46:44Z</time>
      </trkpt>
      <trkpt lat="49.18409" lon="0.17521">
        <ele>56</ele>
        <time>2024-09-22T07:46:45Z</time>
      </trkpt>
      <trkpt lat="49.18404" lon="0.17523">
        <ele>56</ele>
        <time>2024-09-22T07:46:46Z</time>
      </trkpt>
      <trkpt lat="49.18399" lon="0.17525">
        <ele>56.2</ele>
        <time>2024-09-22T07:46:47Z</time>
      </trkpt>
      <trkpt lat="49.18394" lon="0.17527">
        <ele>56.4</ele>
        <time>2024-09-22T07:46:48Z</time>
      </trkpt>
      <trkpt lat="49.18389" lon="0.17529">
        <ele>56.6</ele>
        <time>2024-09-22T07:46:49Z</time>
      </trkpt>
      <trkpt lat="49.18386" lon="0.17531">
        <ele>56.8</ele>
        <time>2024-09-22T07:46:50Z</time>
      </trkpt>
      <trkpt lat="49.18382" lon="0.17533">
        <ele>57.4</ele>
        <time>2024-09-22T07:46:51Z</time>
      </trkpt>
      <trkpt lat="49.18377" lon="0.17536">
        <ele>57.8</ele>
        <time>2024-09-22T07:46:52Z</time>
      </trkpt>
      <trkpt lat="49.18374" lon="0.17539">
        <ele>58.2</ele>
        <time>2024-09-22T07:46:53Z</time>
      </trkpt>
      <trkpt lat="49.1837" lon="0.17541">
        <ele>58.6</ele>
        <time>2024-09-22T07:46:54Z</time>
      </trkpt>
      <trkpt lat="49.18366" lon="0.17543">
        <ele>58.6</ele>
        <time>2024-09-22T07:46:55Z</time>
      </trkpt>
      <trkpt lat="49.18363" lon="0.17546">
        <ele>59.2</ele>
        <time>2024-09-22T07:46:56Z</time>
      </trkpt>
      <trkpt lat="49.18361" lon="0.17548">
        <ele>59.8</ele>
        <time>2024-09-22T07:46:57Z</time>
      </trkpt>
      <trkpt lat="49.18358" lon="0.1755">
        <ele>60.2</ele>
        <time>2024-09-22T07:46:58Z</time>
      </trkpt>
      <trkpt lat="49.18354" lon="0.17552">
        <ele>60.8</ele>
        <time>2024-09-22T07:46:59Z</time>
      </trkpt>
      <trkpt lat="49.18352" lon="0.17554">
        <ele>61.4</ele>
        <time>2024-09-22T07:47:00Z</time>
      </trkpt>
      <trkpt lat="49.18348" lon="0.17557">
        <ele>61.8</ele>
        <time>2024-09-22T07:47:01Z</time>
      </trkpt>
      <trkpt lat="49.18345" lon="0.17559">
        <ele>62.4</ele>
        <time>2024-09-22T07:47:02Z</time>
      </trkpt>
      <trkpt lat="49.18342" lon="0.17563">
        <ele>63</ele>
        <time>2024-09-22T07:47:03Z</time>
      </trkpt>
      <trkpt lat="49.18338" lon="0.17565">
        <ele>63.4</ele>
        <time>2024-09-22T07:47:04Z</time>
      </trkpt>
      <trkpt lat="49.18335" lon="0.17568">
        <ele>63.8</ele>
        <time>2024-09-22T07:47:05Z</time>
      </trkpt>
      <trkpt lat="49.1833" lon="0.17569">
        <ele>64</ele>
        <time>2024-09-22T07:47:06Z</time>
      </trkpt>
      <trkpt lat="49.18327" lon="0.17572">
        <ele>64.4</ele>
        <time>2024-09-22T07:47:07Z</time>
      </trkpt>
      <trkpt lat="49.18324" lon="0.17574">
        <ele>64.8</ele>
        <time>2024-09-22T07:47:08Z</time>
      </trkpt>
      <trkpt lat="49.1832" lon="0.17577">
        <ele>65.2</ele>
        <time>2024-09-22T07:47:09Z</time>
      </trkpt>
      <trkpt lat="49.18317" lon="0.1758">
        <ele>65.4</ele>
        <time>2024-09-22T07:47:10Z</time>
      </trkpt>
      <trkpt lat="49.18315" lon="0.17582">
        <ele>65.8</ele>
        <time>2024-09-22T07:47:11Z</time>
      </trkpt>
      <trkpt lat="49.18312" lon="0.17585">
        <ele>66.2</ele>
        <time>2024-09-22T07:47:12Z</time>
      </trkpt>
      <trkpt lat="49.18309" lon="0.17587">
        <ele>66.4</ele>
        <time>2024-09-22T07:47:13Z</time>
      </trkpt>
      <trkpt lat="49.18306" lon="0.1759">
        <ele>66.6</ele>
        <time>2024-09-22T07:47:14Z</time>
      </trkpt>
      <trkpt lat="49.18303" lon="0.17592">
        <ele>66.6</ele>
        <time>2024-09-22T07:47:15Z</time>
      </trkpt>
      <trkpt lat="49.18299" lon="0.17595">
        <ele>67</ele>
        <time>2024-09-22T07:47:16Z</time>
      </trkpt>
      <trkpt lat="49.18297" lon="0.17598">
        <ele>67.2</ele>
        <time>2024-09-22T07:47:17Z</time>
      </trkpt>
      <trkpt lat="49.18294" lon="0.17601">
        <ele>67.6</ele>
        <time>2024-09-22T07:47:18Z</time>
      </trkpt>
      <trkpt lat="49.18291" lon="0.17603">
        <ele>67.8</ele>
        <time>2024-09-22T07:47:19Z</time>
      </trkpt>
      <trkpt lat="49.18288" lon="0.17605">
        <ele>68.2</ele>
        <time>2024-09-22T07:47:20Z</time>
      </trkpt>
      <trkpt lat="49.18285" lon="0.17607">
        <ele>68.4</ele>
        <time>2024-09-22T07:47:21Z</time>
      </trkpt>
      <trkpt lat="49.18282" lon="0.1761">
        <ele>68.8</ele>
        <time>2024-09-22T07:47:22Z</time>
      </trkpt>
      <trkpt lat="49.18279" lon="0.17613">
        <ele>69</ele>
        <time>2024-09-22T07:47:23Z</time>
      </trkpt>
      <trkpt lat="49.18276" lon="0.17616">
        <ele>69.2</ele>
        <time>2024-09-22T07:47:24Z</time>
      </trkpt>
      <trkpt lat="49.18273" lon="0.17618">
        <ele>69.6</ele>
        <time>2024-09-22T07:47:25Z</time>
      </trkpt>
      <trkpt lat="49.1827" lon="0.17621">
        <ele>69.8</ele>
        <time>2024-09-22T07:47:26Z</time>
      </trkpt>
      <trkpt lat="49.18268" lon="0.17625">
        <ele>70</ele>
        <time>2024-09-22T07:47:27Z</time>
      </trkpt>
      <trkpt lat="49.18266" lon="0.17628">
        <ele>70.4</ele>
        <time>2024-09-22T07:47:28Z</time>
      </trkpt>
      <trkpt lat="49.18264" lon="0.17631">
        <ele>70.8</ele>
        <time>2024-09-22T07:47:29Z</time>
      </trkpt>
      <trkpt lat="49.18261" lon="0.17634">
        <ele>71</ele>
        <time>2024-09-22T07:47:30Z</time>
      </trkpt>
      <trkpt lat="49.18258" lon="0.17637">
        <ele>71.2</ele>
        <time>2024-09-22T07:47:31Z</time>
      </trkpt>
      <trkpt lat="49.18256" lon="0.1764">
        <ele>71.6</ele>
        <time>2024-09-22T07:47:32Z</time>
      </trkpt>
      <trkpt lat="49.18253" lon="0.17643">
        <ele>72</ele>
        <time>2024-09-22T07:47:33Z</time>
      </trkpt>
      <trkpt lat="49.1825" lon="0.17646">
        <ele>72.2</ele>
        <time>2024-09-22T07:47:34Z</time>
      </trkpt>
      <trkpt lat="49.18247" lon="0.17649">
        <ele>72.2</ele>
        <time>2024-09-22T07:47:35Z</time>
      </trkpt>
      <trkpt lat="49.18244" lon="0.17652">
        <ele>72.6</ele>
        <time>2024-09-22T07:47:36Z</time>
      </trkpt>
      <trkpt lat="49.18241" lon="0.17654">
        <ele>73</ele>
        <time>2024-09-22T07:47:37Z</time>
      </trkpt>
      <trkpt lat="49.18238" lon="0.17657">
        <ele>73.4</ele>
        <time>2024-09-22T07:47:38Z</time>
      </trkpt>
      <trkpt lat="49.18235" lon="0.1766">
        <ele>73.6</ele>
        <time>2024-09-22T07:47:39Z</time>
      </trkpt>
      <trkpt lat="49.18232" lon="0.17663">
        <ele>74</ele>
        <time>2024-09-22T07:47:40Z</time>
      </trkpt>
      <trkpt lat="49.18229" lon="0.17667">
        <ele>74.2</ele>
        <time>2024-09-22T07:47:41Z</time>
      </trkpt>
      <trkpt lat="49.18226" lon="0.17669">
        <ele>74.4</ele>
        <time>2024-09-22T07:47:42Z</time>
      </trkpt>
      <trkpt lat="49.18223" lon="0.17672">
        <ele>74.8</ele>
        <time>2024-09-22T07:47:43Z</time>
      </trkpt>
      <trkpt lat="49.1822" lon="0.17675">
        <ele>75</ele>
        <time>2024-09-22T07:47:44Z</time>
      </trkpt>
      <trkpt lat="49.18217" lon="0.17678">
        <ele>75.4</ele>
        <time>2024-09-22T07:47:45Z</time>
      </trkpt>
      <trkpt lat="49.18214" lon="0.17681">
        <ele>75.6</ele>
        <time>2024-09-22T07:47:46Z</time>
      </trkpt>
      <trkpt lat="49.18212" lon="0.17684">
        <ele>76</ele>
        <time>2024-09-22T07:47:47Z</time>
      </trkpt>
      <trkpt lat="49.18209" lon="0.17687">
        <ele>76.4</ele>
        <time>2024-09-22T07:47:48Z</time>
      </trkpt>
      <trkpt lat="49.18207" lon="0.17689">
        <ele>76.8</ele>
        <time>2024-09-22T07:47:49Z</time>
      </trkpt>
      <trkpt lat="49.18204" lon="0.17692">
        <ele>77</ele>
        <time>2024-09-22T07:47:50Z</time>
      </trkpt>
      <trkpt lat="49.18201" lon="0.17694">
        <ele>77.4</ele>
        <time>2024-09-22T07:47:51Z</time>
      </trkpt>
      <trkpt lat="49.18198" lon="0.17697">
        <ele>77.8</ele>
        <time>2024-09-22T07:47:52Z</time>
      </trkpt>
      <trkpt lat="49.18196" lon="0.177">
        <ele>78</ele>
        <time>2024-09-22T07:47:53Z</time>
      </trkpt>
      <trkpt lat="49.18193" lon="0.17703">
        <ele>78.2</ele>
        <time>2024-09-22T07:47:54Z</time>
      </trkpt>
      <trkpt lat="49.1819" lon="0.17705">
        <ele>78.2</ele>
        <time>2024-09-22T07:47:55Z</time>
      </trkpt>
      <trkpt lat="49.18187" lon="0.17707">
        <ele>78.6</ele>
        <time>2024-09-22T07:47:56Z</time>
      </trkpt>
      <trkpt lat="49.18184" lon="0.1771">
        <ele>78.8</ele>
        <time>2024-09-22T07:47:57Z</time>
      </trkpt>
      <trkpt lat="49.18182" lon="0.17711">
        <ele>79.2</ele>
        <time>2024-09-22T07:47:58Z</time>
      </trkpt>
      <trkpt lat="49.18179" lon="0.17714">
        <ele>79.4</ele>
        <time>2024-09-22T07:47:59Z</time>
      </trkpt>
      <trkpt lat="49.18176" lon="0.17716">
        <ele>79.8</ele>
        <time>2024-09-22T07:48:00Z</time>
      </trkpt>
      <trkpt lat="49.18173" lon="0.17719">
        <ele>80</ele>
        <time>2024-09-22T07:48:01Z</time>
      </trkpt>
      <trkpt lat="49.18171" lon="0.17722">
        <ele>80.4</ele>
        <time>2024-09-22T07:48:02Z</time>
      </trkpt>
      <trkpt lat="49.18167" lon="0.17724">
        <ele>80.6</ele>
        <time>2024-09-22T07:48:03Z</time>
      </trkpt>
      <trkpt lat="49.18164" lon="0.17726">
        <ele>81</ele>
        <time>2024-09-22T07:48:04Z</time>
      </trkpt>
      <trkpt lat="49.18161" lon="0.17728">
        <ele>81.4</ele>
        <time>2024-09-22T07:48:05Z</time>
      </trkpt>
      <trkpt lat="49.18157" lon="0.1773">
        <ele>81.6</ele>
        <time>2024-09-22T07:48:06Z</time>
      </trkpt>
      <trkpt lat="49.18153" lon="0.17731">
        <ele>82</ele>
        <time>2024-09-22T07:48:07Z</time>
      </trkpt>
      <trkpt lat="49.1815" lon="0.17733">
        <ele>82.2</ele>
        <time>2024-09-22T07:48:08Z</time>
      </trkpt>
      <trkpt lat="49.18147" lon="0.17734">
        <ele>82.6</ele>
        <time>2024-09-22T07:48:09Z</time>
      </trkpt>
      <trkpt lat="49.18144" lon="0.17737">
        <ele>82.8</ele>
        <time>2024-09-22T07:48:10Z</time>
      </trkpt>
      <trkpt lat="49.18141" lon="0.17739">
        <ele>83.2</ele>
        <time>2024-09-22T07:48:11Z</time>
      </trkpt>
      <trkpt lat="49.18138" lon="0.1774">
        <ele>83.4</ele>
        <time>2024-09-22T07:48:12Z</time>
      </trkpt>
      <trkpt lat="49.18134" lon="0.17741">
        <ele>83.6</ele>
        <time>2024-09-22T07:48:13Z</time>
      </trkpt>
      <trkpt lat="49.18131" lon="0.17743">
        <ele>83.8</ele>
        <time>2024-09-22T07:48:14Z</time>
      </trkpt>
      <trkpt lat="49.18128" lon="0.17745">
        <ele>83.8</ele>
        <time>2024-09-22T07:48:15Z</time>
      </trkpt>
      <trkpt lat="49.18125" lon="0.17747">
        <ele>84</ele>
        <time>2024-09-22T07:48:16Z</time>
      </trkpt>
      <trkpt lat="49.18121" lon="0.17749">
        <ele>84.4</ele>
        <time>2024-09-22T07:48:17Z</time>
      </trkpt>
      <trkpt lat="49.18118" lon="0.17751">
        <ele>84.6</ele>
        <time>2024-09-22T07:48:18Z</time>
      </trkpt>
      <trkpt lat="49.18115" lon="0.17752">
        <ele>84.8</ele>
        <time>2024-09-22T07:48:19Z</time>
      </trkpt>
      <trkpt lat="49.18111" lon="0.17753">
        <ele>85</ele>
        <time>2024-09-22T07:48:20Z</time>
      </trkpt>
      <trkpt lat="49.18107" lon="0.17753">
        <ele>85.4</ele>
        <time>2024-09-22T07:48:21Z</time>
      </trkpt>
      <trkpt lat="49.18104" lon="0.17753">
        <ele>85.6</ele>
        <time>2024-09-22T07:48:22Z</time>
      </trkpt>
      <trkpt lat="49.181" lon="0.17753">
        <ele>86</ele>
        <time>2024-09-22T07:48:23Z</time>
      </trkpt>
      <trkpt lat="49.18096" lon="0.17752">
        <ele>86.2</ele>
        <time>2024-09-22T07:48:24Z</time>
      </trkpt>
      <trkpt lat="49.18092" lon="0.17753">
        <ele>86.4</ele>
        <time>2024-09-22T07:48:25Z</time>
      </trkpt>
      <trkpt lat="49.18089" lon="0.17753">
        <ele>86.6</ele>
        <time>2024-09-22T07:48:26Z</time>
      </trkpt>
      <trkpt lat="49.18086" lon="0.17753">
        <ele>86.8</ele>
        <time>2024-09-22T07:48:27Z</time>
      </trkpt>
      <trkpt lat="49.18082" lon="0.17753">
        <ele>87.2</ele>
        <time>2024-09-22T07:48:28Z</time>
      </trkpt>
      <trkpt lat="49.18078" lon="0.17753">
        <ele>87.2</ele>
        <time>2024-09-22T07:48:29Z</time>
      </trkpt>
      <trkpt lat="49.18075" lon="0.17753">
        <ele>87.4</ele>
        <time>2024-09-22T07:48:30Z</time>
      </trkpt>
      <trkpt lat="49.18071" lon="0.17754">
        <ele>87.8</ele>
        <time>2024-09-22T07:48:31Z</time>
      </trkpt>
      <trkpt lat="49.18067" lon="0.17755">
        <ele>88</ele>
        <time>2024-09-22T07:48:32Z</time>
      </trkpt>
      <trkpt lat="49.18063" lon="0.17754">
        <ele>88.2</ele>
        <time>2024-09-22T07:48:33Z</time>
      </trkpt>
      <trkpt lat="49.18058" lon="0.17754">
        <ele>88.6</ele>
        <time>2024-09-22T07:48:34Z</time>
      </trkpt>
      <trkpt lat="49.18055" lon="0.17754">
        <ele>88.6</ele>
        <time>2024-09-22T07:48:35Z</time>
      </trkpt>
      <trkpt lat="49.18052" lon="0.17754">
        <ele>88.8</ele>
        <time>2024-09-22T07:48:36Z</time>
      </trkpt>
      <trkpt lat="49.18048" lon="0.17754">
        <ele>89</ele>
        <time>2024-09-22T07:48:37Z</time>
      </trkpt>
      <trkpt lat="49.18045" lon="0.17755">
        <ele>89.2</ele>
        <time>2024-09-22T07:48:38Z</time>
      </trkpt>
      <trkpt lat="49.18041" lon="0.17757">
        <ele>89.6</ele>
        <time>2024-09-22T07:48:39Z</time>
      </trkpt>
      <trkpt lat="49.18036" lon="0.17757">
        <ele>89.8</ele>
        <time>2024-09-22T07:48:40Z</time>
      </trkpt>
      <trkpt lat="49.18032" lon="0.17758">
        <ele>90.2</ele>
        <time>2024-09-22T07:48:41Z</time>
      </trkpt>
      <trkpt lat="49.18029" lon="0.17759">
        <ele>90.4</ele>
        <time>2024-09-22T07:48:42Z</time>
      </trkpt>
      <trkpt lat="49.18025" lon="0.1776">
        <ele>90.6</ele>
        <time>2024-09-22T07:48:43Z</time>
      </trkpt>
      <trkpt lat="49.18022" lon="0.17762">
        <ele>90.8</ele>
        <time>2024-09-22T07:48:44Z</time>
      </trkpt>
      <trkpt lat="49.18017" lon="0.17762">
        <ele>91</ele>
        <time>2024-09-22T07:48:45Z</time>
      </trkpt>
      <trkpt lat="49.18013" lon="0.17761">
        <ele>91.2</ele>
        <time>2024-09-22T07:48:46Z</time>
      </trkpt>
      <trkpt lat="49.18009" lon="0.17761">
        <ele>91.6</ele>
        <time>2024-09-22T07:48:47Z</time>
      </trkpt>
      <trkpt lat="49.18006" lon="0.17761">
        <ele>91.6</ele>
        <time>2024-09-22T07:48:48Z</time>
      </trkpt>
      <trkpt lat="49.18002" lon="0.17761">
        <ele>92</ele>
        <time>2024-09-22T07:48:49Z</time>
      </trkpt>
      <trkpt lat="49.17999" lon="0.17762">
        <ele>92.2</ele>
        <time>2024-09-22T07:48:50Z</time>
      </trkpt>
      <trkpt lat="49.17995" lon="0.17762">
        <ele>92.2</ele>
        <time>2024-09-22T07:48:51Z</time>
      </trkpt>
      <trkpt lat="49.17991" lon="0.17761">
        <ele>92.6</ele>
        <time>2024-09-22T07:48:52Z</time>
      </trkpt>
      <trkpt lat="49.17987" lon="0.17762">
        <ele>92.8</ele>
        <time>2024-09-22T07:48:53Z</time>
      </trkpt>
      <trkpt lat="49.17983" lon="0.17763">
        <ele>92.8</ele>
        <time>2024-09-22T07:48:54Z</time>
      </trkpt>
      <trkpt lat="49.1798" lon="0.17765">
        <ele>93</ele>
        <time>2024-09-22T07:48:55Z</time>
      </trkpt>
      <trkpt lat="49.17977" lon="0.17767">
        <ele>93.2</ele>
        <time>2024-09-22T07:48:56Z</time>
      </trkpt>
      <trkpt lat="49.17974" lon="0.17769">
        <ele>93.4</ele>
        <time>2024-09-22T07:48:57Z</time>
      </trkpt>
      <trkpt lat="49.1797" lon="0.17773">
        <ele>93.6</ele>
        <time>2024-09-22T07:48:58Z</time>
      </trkpt>
      <trkpt lat="49.17967" lon="0.17776">
        <ele>93.8</ele>
        <time>2024-09-22T07:48:59Z</time>
      </trkpt>
      <trkpt lat="49.17964" lon="0.17779">
        <ele>94</ele>
        <time>2024-09-22T07:49:00Z</time>
      </trkpt>
      <trkpt lat="49.17961" lon="0.17782">
        <ele>94.4</ele>
        <time>2024-09-22T07:49:01Z</time>
      </trkpt>
      <trkpt lat="49.17959" lon="0.17786">
        <ele>94.6</ele>
        <time>2024-09-22T07:49:02Z</time>
      </trkpt>
      <trkpt lat="49.17956" lon="0.1779">
        <ele>94.8</ele>
        <time>2024-09-22T07:49:03Z</time>
      </trkpt>
      <trkpt lat="49.17954" lon="0.17794">
        <ele>95</ele>
        <time>2024-09-22T07:49:04Z</time>
      </trkpt>
      <trkpt lat="49.17952" lon="0.17796">
        <ele>95.4</ele>
        <time>2024-09-22T07:49:05Z</time>
      </trkpt>
      <trkpt lat="49.17947" lon="0.17801">
        <ele>95.6</ele>
        <time>2024-09-22T07:49:06Z</time>
      </trkpt>
      <trkpt lat="49.17944" lon="0.17805">
        <ele>95.8</ele>
        <time>2024-09-22T07:49:07Z</time>
      </trkpt>
      <trkpt lat="49.17942" lon="0.1781">
        <ele>96</ele>
        <time>2024-09-22T07:49:08Z</time>
      </trkpt>
      <trkpt lat="49.1794" lon="0.17814">
        <ele>96.2</ele>
        <time>2024-09-22T07:49:09Z</time>
      </trkpt>
      <trkpt lat="49.17938" lon="0.17818">
        <ele>96.4</ele>
        <time>2024-09-22T07:49:10Z</time>
      </trkpt>
      <trkpt lat="49.17935" lon="0.17825">
        <ele>96.6</ele>
        <time>2024-09-22T07:49:11Z</time>
      </trkpt>
      <trkpt lat="49.17932" lon="0.17828">
        <ele>96.8</ele>
        <time>2024-09-22T07:49:12Z</time>
      </trkpt>
      <trkpt lat="49.17929" lon="0.17831">
        <ele>97</ele>
        <time>2024-09-22T07:49:13Z</time>
      </trkpt>
      <trkpt lat="49.17927" lon="0.17836">
        <ele>97</ele>
        <time>2024-09-22T07:49:14Z</time>
      </trkpt>
      <trkpt lat="49.17926" lon="0.17841">
        <ele>97.2</ele>
        <time>2024-09-22T07:49:15Z</time>
      </trkpt>
      <trkpt lat="49.17927" lon="0.17848">
        <ele>97.6</ele>
        <time>2024-09-22T07:49:16Z</time>
      </trkpt>
      <trkpt lat="49.17928" lon="0.17855">
        <ele>97.8</ele>
        <time>2024-09-22T07:49:17Z</time>
      </trkpt>
      <trkpt lat="49.1793" lon="0.17863">
        <ele>98.2</ele>
        <time>2024-09-22T07:49:18Z</time>
      </trkpt>
      <trkpt lat="49.17928" lon="0.17869">
        <ele>98.4</ele>
        <time>2024-09-22T07:49:19Z</time>
      </trkpt>
      <trkpt lat="49.1792" lon="0.17869">
        <ele>98.8</ele>
        <time>2024-09-22T07:49:20Z</time>
      </trkpt>
      <trkpt lat="49.17916" lon="0.1787">
        <ele>99.2</ele>
        <time>2024-09-22T07:49:21Z</time>
      </trkpt>
      <trkpt lat="49.17913" lon="0.17873">
        <ele>99.4</ele>
        <time>2024-09-22T07:49:22Z</time>
      </trkpt>
      <trkpt lat="49.17911" lon="0.17878">
        <ele>99.6</ele>
        <time>2024-09-22T07:49:23Z</time>
      </trkpt>
      <trkpt lat="49.1791" lon="0.17882">
        <ele>100</ele>
        <time>2024-09-22T07:49:24Z</time>
      </trkpt>
      <trkpt lat="49.17909" lon="0.17887">
        <ele>100.2</ele>
        <time>2024-09-22T07:49:25Z</time>
      </trkpt>
      <trkpt lat="49.17906" lon="0.17892">
        <ele>100.6</ele>
        <time>2024-09-22T07:49:26Z</time>
      </trkpt>
      <trkpt lat="49.17903" lon="0.17896">
        <ele>100.8</ele>
        <time>2024-09-22T07:49:27Z</time>
      </trkpt>
      <trkpt lat="49.17901" lon="0.17899">
        <ele>100.8</ele>
        <time>2024-09-22T07:49:28Z</time>
      </trkpt>
      <trkpt lat="49.179" lon="0.17903">
        <ele>101</ele>
        <time>2024-09-22T07:49:29Z</time>
      </trkpt>
      <trkpt lat="49.17898" lon="0.17908">
        <ele>101.2</ele>
        <time>2024-09-22T07:49:30Z</time>
      </trkpt>
      <trkpt lat="49.17897" lon="0.17913">
        <ele>101.4</ele>
        <time>2024-09-22T07:49:31Z</time>
      </trkpt>
      <trkpt lat="49.17897" lon="0.17918">
        <ele>101.6</ele>
        <time>2024-09-22T07:49:32Z</time>
      </trkpt>
      <trkpt lat="49.17896" lon="0.17923">
        <ele>101.8</ele>
        <time>2024-09-22T07:49:33Z</time>
      </trkpt>
      <trkpt lat="49.17895" lon="0.17928">
        <ele>101.8</ele>
        <time>2024-09-22T07:49:34Z</time>
      </trkpt>
      <trkpt lat="49.17895" lon="0.17934">
        <ele>102.2</ele>
        <time>2024-09-22T07:49:35Z</time>
      </trkpt>
      <trkpt lat="49.17896" lon="0.17942">
        <ele>102.4</ele>
        <time>2024-09-22T07:49:36Z</time>
      </trkpt>
      <trkpt lat="49.17896" lon="0.17947">
        <ele>102.8</ele>
        <time>2024-09-22T07:49:37Z</time>
      </trkpt>
      <trkpt lat="49.17895" lon="0.17954">
        <ele>103</ele>
        <time>2024-09-22T07:49:38Z</time>
      </trkpt>
      <trkpt lat="49.17894" lon="0.17958">
        <ele>103.2</ele>
        <time>2024-09-22T07:49:39Z</time>
      </trkpt>
      <trkpt lat="49.17894" lon="0.17964">
        <ele>103.4</ele>
        <time>2024-09-22T07:49:40Z</time>
      </trkpt>
      <trkpt lat="49.17894" lon="0.17968">
        <ele>103.8</ele>
        <time>2024-09-22T07:49:41Z</time>
      </trkpt>
      <trkpt lat="49.17894" lon="0.17973">
        <ele>104</ele>
        <time>2024-09-22T07:49:42Z</time>
      </trkpt>
      <trkpt lat="49.17893" lon="0.17979">
        <ele>104.2</ele>
        <time>2024-09-22T07:49:43Z</time>
      </trkpt>
      <trkpt lat="49.17893" lon="0.17985">
        <ele>104.4</ele>
        <time>2024-09-22T07:49:44Z</time>
      </trkpt>
      <trkpt lat="49.17894" lon="0.17992">
        <ele>104.6</ele>
        <time>2024-09-22T07:49:45Z</time>
      </trkpt>
      <trkpt lat="49.17895" lon="0.17997">
        <ele>104.8</ele>
        <time>2024-09-22T07:49:46Z</time>
      </trkpt>
      <trkpt lat="49.17895" lon="0.18003">
        <ele>105</ele>
        <time>2024-09-22T07:49:47Z</time>
      </trkpt>
      <trkpt lat="49.17894" lon="0.1801">
        <ele>105.2</ele>
        <time>2024-09-22T07:49:48Z</time>
      </trkpt>
      <trkpt lat="49.17893" lon="0.18015">
        <ele>105.4</ele>
        <time>2024-09-22T07:49:49Z</time>
      </trkpt>
      <trkpt lat="49.17892" lon="0.1802">
        <ele>105.6</ele>
        <time>2024-09-22T07:49:50Z</time>
      </trkpt>
      <trkpt lat="49.17891" lon="0.18026">
        <ele>105.8</ele>
        <time>2024-09-22T07:49:51Z</time>
      </trkpt>
      <trkpt lat="49.17891" lon="0.18031">
        <ele>106</ele>
        <time>2024-09-22T07:49:52Z</time>
      </trkpt>
      <trkpt lat="49.17891" lon="0.18038">
        <ele>106.4</ele>
        <time>2024-09-22T07:49:53Z</time>
      </trkpt>
      <trkpt lat="49.17891" lon="0.18044">
        <ele>106.6</ele>
        <time>2024-09-22T07:49:54Z</time>
      </trkpt>
      <trkpt lat="49.1789" lon="0.1805">
        <ele>106.6</ele>
        <time>2024-09-22T07:49:55Z</time>
      </trkpt>
      <trkpt lat="49.17889" lon="0.18055">
        <ele>106.8</ele>
        <time>2024-09-22T07:49:56Z</time>
      </trkpt>
      <trkpt lat="49.17888" lon="0.1806">
        <ele>107.2</ele>
        <time>2024-09-22T07:49:57Z</time>
      </trkpt>
      <trkpt lat="49.17886" lon="0.18065">
        <ele>107.2</ele>
        <time>2024-09-22T07:49:58Z</time>
      </trkpt>
      <trkpt lat="49.17882" lon="0.1807">
        <ele>107.4</ele>
        <time>2024-09-22T07:49:59Z</time>
      </trkpt>
      <trkpt lat="49.1788" lon="0.18075">
        <ele>107.6</ele>
        <time>2024-09-22T07:50:00Z</time>
      </trkpt>
      <trkpt lat="49.17878" lon="0.18081">
        <ele>107.8</ele>
        <time>2024-09-22T07:50:01Z</time>
      </trkpt>
      <trkpt lat="49.17877" lon="0.18086">
        <ele>108</ele>
        <time>2024-09-22T07:50:02Z</time>
      </trkpt>
      <trkpt lat="49.17876" lon="0.18092">
        <ele>108.2</ele>
        <time>2024-09-22T07:50:03Z</time>
      </trkpt>
      <trkpt lat="49.17875" lon="0.18097">
        <ele>108.6</ele>
        <time>2024-09-22T07:50:04Z</time>
      </trkpt>
      <trkpt lat="49.17874" lon="0.18103">
        <ele>108.8</ele>
        <time>2024-09-22T07:50:05Z</time>
      </trkpt>
      <trkpt lat="49.17873" lon="0.18108">
        <ele>109</ele>
        <time>2024-09-22T07:50:06Z</time>
      </trkpt>
      <trkpt lat="49.17871" lon="0.18113">
        <ele>109.4</ele>
        <time>2024-09-22T07:50:07Z</time>
      </trkpt>
      <trkpt lat="49.1787" lon="0.18118">
        <ele>109.6</ele>
        <time>2024-09-22T07:50:08Z</time>
      </trkpt>
      <trkpt lat="49.17869" lon="0.18124">
        <ele>109.8</ele>
        <time>2024-09-22T07:50:09Z</time>
      </trkpt>
      <trkpt lat="49.17869" lon="0.18128">
        <ele>110</ele>
        <time>2024-09-22T07:50:10Z</time>
      </trkpt>
      <trkpt lat="49.17867" lon="0.18133">
        <ele>110.2</ele>
        <time>2024-09-22T07:50:11Z</time>
      </trkpt>
      <trkpt lat="49.17864" lon="0.18137">
        <ele>110.4</ele>
        <time>2024-09-22T07:50:12Z</time>
      </trkpt>
      <trkpt lat="49.17862" lon="0.18141">
        <ele>110.6</ele>
        <time>2024-09-22T07:50:13Z</time>
      </trkpt>
      <trkpt lat="49.1786" lon="0.18145">
        <ele>110.8</ele>
        <time>2024-09-22T07:50:14Z</time>
      </trkpt>
      <trkpt lat="49.17858" lon="0.1815">
        <ele>111.2</ele>
        <time>2024-09-22T07:50:15Z</time>
      </trkpt>
      <trkpt lat="49.17857" lon="0.18154">
        <ele>111.4</ele>
        <time>2024-09-22T07:50:16Z</time>
      </trkpt>
      <trkpt lat="49.17855" lon="0.18159">
        <ele>111.4</ele>
        <time>2024-09-22T07:50:17Z</time>
      </trkpt>
      <trkpt lat="49.17854" lon="0.18163">
        <ele>111.6</ele>
        <time>2024-09-22T07:50:18Z</time>
      </trkpt>
      <trkpt lat="49.17852" lon="0.18167">
        <ele>111.8</ele>
        <time>2024-09-22T07:50:19Z</time>
      </trkpt>
      <trkpt lat="49.1785" lon="0.18171">
        <ele>112</ele>
        <time>2024-09-22T07:50:20Z</time>
      </trkpt>
      <trkpt lat="49.17848" lon="0.18175">
        <ele>112.2</ele>
        <time>2024-09-22T07:50:21Z</time>
      </trkpt>
      <trkpt lat="49.17845" lon="0.18178">
        <ele>112.4</ele>
        <time>2024-09-22T07:50:22Z</time>
      </trkpt>
      <trkpt lat="49.17841" lon="0.18181">
        <ele>112.8</ele>
        <time>2024-09-22T07:50:23Z</time>
      </trkpt>
      <trkpt lat="49.17839" lon="0.18185">
        <ele>113</ele>
        <time>2024-09-22T07:50:24Z</time>
      </trkpt>
      <trkpt lat="49.17836" lon="0.18188">
        <ele>113.2</ele>
        <time>2024-09-22T07:50:25Z</time>
      </trkpt>
      <trkpt lat="49.17834" lon="0.18192">
        <ele>113.4</ele>
        <time>2024-09-22T07:50:26Z</time>
      </trkpt>
      <trkpt lat="49.17833" lon="0.18196">
        <ele>113.6</ele>
        <time>2024-09-22T07:50:27Z</time>
      </trkpt>
      <trkpt lat="49.1783" lon="0.182">
        <ele>113.8</ele>
        <time>2024-09-22T07:50:28Z</time>
      </trkpt>
      <trkpt lat="49.17828" lon="0.18204">
        <ele>113.8</ele>
        <time>2024-09-22T07:50:29Z</time>
      </trkpt>
      <trkpt lat="49.17826" lon="0.18208">
        <ele>114.4</ele>
        <time>2024-09-22T07:50:30Z</time>
      </trkpt>
      <trkpt lat="49.17825" lon="0.18212">
        <ele>114.4</ele>
        <time>2024-09-22T07:50:31Z</time>
      </trkpt>
      <trkpt lat="49.17823" lon="0.18216">
        <ele>114.8</ele>
        <time>2024-09-22T07:50:32Z</time>
      </trkpt>
      <trkpt lat="49.17821" lon="0.1822">
        <ele>115</ele>
        <time>2024-09-22T07:50:33Z</time>
      </trkpt>
      <trkpt lat="49.17819" lon="0.18223">
        <ele>115.4</ele>
        <time>2024-09-22T07:50:34Z</time>
      </trkpt>
      <trkpt lat="49.17816" lon="0.18226">
        <ele>115.6</ele>
        <time>2024-09-22T07:50:35Z</time>
      </trkpt>
      <trkpt lat="49.17814" lon="0.1823">
        <ele>115.6</ele>
        <time>2024-09-22T07:50:36Z</time>
      </trkpt>
      <trkpt lat="49.17811" lon="0.18234">
        <ele>115.8</ele>
        <time>2024-09-22T07:50:37Z</time>
      </trkpt>
      <trkpt lat="49.17809" lon="0.18237">
        <ele>116</ele>
        <time>2024-09-22T07:50:38Z</time>
      </trkpt>
      <trkpt lat="49.17806" lon="0.18241">
        <ele>116.4</ele>
        <time>2024-09-22T07:50:39Z</time>
      </trkpt>
      <trkpt lat="49.17804" lon="0.18245">
        <ele>116.6</ele>
        <time>2024-09-22T07:50:40Z</time>
      </trkpt>
      <trkpt lat="49.17802" lon="0.18248">
        <ele>116.8</ele>
        <time>2024-09-22T07:50:41Z</time>
      </trkpt>
      <trkpt lat="49.178" lon="0.18252">
        <ele>117</ele>
        <time>2024-09-22T07:50:42Z</time>
      </trkpt>
      <trkpt lat="49.17798" lon="0.18255">
        <ele>117.2</ele>
        <time>2024-09-22T07:50:43Z</time>
      </trkpt>
      <trkpt lat="49.17795" lon="0.1826">
        <ele>117.4</ele>
        <time>2024-09-22T07:50:44Z</time>
      </trkpt>
      <trkpt lat="49.17792" lon="0.18263">
        <ele>117.6</ele>
        <time>2024-09-22T07:50:45Z</time>
      </trkpt>
      <trkpt lat="49.1779" lon="0.18267">
        <ele>118</ele>
        <time>2024-09-22T07:50:46Z</time>
      </trkpt>
      <trkpt lat="49.17788" lon="0.18269">
        <ele>118.2</ele>
        <time>2024-09-22T07:50:47Z</time>
      </trkpt>
      <trkpt lat="49.17785" lon="0.18273">
        <ele>118.4</ele>
        <time>2024-09-22T07:50:48Z</time>
      </trkpt>
      <trkpt lat="49.17783" lon="0.18276">
        <ele>118.8</ele>
        <time>2024-09-22T07:50:49Z</time>
      </trkpt>
      <trkpt lat="49.1778" lon="0.18279">
        <ele>119</ele>
        <time>2024-09-22T07:50:50Z</time>
      </trkpt>
      <trkpt lat="49.17778" lon="0.18283">
        <ele>119.2</ele>
        <time>2024-09-22T07:50:51Z</time>
      </trkpt>
      <trkpt lat="49.17776" lon="0.18286">
        <ele>119.6</ele>
        <time>2024-09-22T07:50:52Z</time>
      </trkpt>
      <trkpt lat="49.17773" lon="0.18289">
        <ele>119.8</ele>
        <time>2024-09-22T07:50:53Z</time>
      </trkpt>
      <trkpt lat="49.1777" lon="0.18293">
        <ele>120.2</ele>
        <time>2024-09-22T07:50:54Z</time>
      </trkpt>
      <trkpt lat="49.17768" lon="0.18295">
        <ele>120.4</ele>
        <time>2024-09-22T07:50:55Z</time>
      </trkpt>
      <trkpt lat="49.17766" lon="0.18298">
        <ele>120.4</ele>
        <time>2024-09-22T07:50:56Z</time>
      </trkpt>
      <trkpt lat="49.17763" lon="0.18302">
        <ele>120.8</ele>
        <time>2024-09-22T07:50:57Z</time>
      </trkpt>
      <trkpt lat="49.1776" lon="0.18305">
        <ele>121</ele>
        <time>2024-09-22T07:50:58Z</time>
      </trkpt>
      <trkpt lat="49.17758" lon="0.18309">
        <ele>121.2</ele>
        <time>2024-09-22T07:50:59Z</time>
      </trkpt>
      <trkpt lat="49.17755" lon="0.18312">
        <ele>121.4</ele>
        <time>2024-09-22T07:51:00Z</time>
      </trkpt>
      <trkpt lat="49.17753" lon="0.18314">
        <ele>121.6</ele>
        <time>2024-09-22T07:51:01Z</time>
      </trkpt>
      <trkpt lat="49.1775" lon="0.18317">
        <ele>121.8</ele>
        <time>2024-09-22T07:51:02Z</time>
      </trkpt>
      <trkpt lat="49.17747" lon="0.18319">
        <ele>122</ele>
        <time>2024-09-22T07:51:03Z</time>
      </trkpt>
      <trkpt lat="49.17745" lon="0.18322">
        <ele>122.4</ele>
        <time>2024-09-22T07:51:04Z</time>
      </trkpt>
      <trkpt lat="49.17742" lon="0.18325">
        <ele>122.8</ele>
        <time>2024-09-22T07:51:05Z</time>
      </trkpt>
      <trkpt lat="49.17739" lon="0.18328">
        <ele>123</ele>
        <time>2024-09-22T07:51:06Z</time>
      </trkpt>
      <trkpt lat="49.17736" lon="0.18331">
        <ele>123.2</ele>
        <time>2024-09-22T07:51:07Z</time>
      </trkpt>
      <trkpt lat="49.17733" lon="0.18334">
        <ele>123.6</ele>
        <time>2024-09-22T07:51:08Z</time>
      </trkpt>
      <trkpt lat="49.1773" lon="0.18337">
        <ele>123.8</ele>
        <time>2024-09-22T07:51:09Z</time>
      </trkpt>
      <trkpt lat="49.17726" lon="0.18339">
        <ele>124</ele>
        <time>2024-09-22T07:51:10Z</time>
      </trkpt>
      <trkpt lat="49.17723" lon="0.18342">
        <ele>124.2</ele>
        <time>2024-09-22T07:51:11Z</time>
      </trkpt>
      <trkpt lat="49.17719" lon="0.18345">
        <ele>124.4</ele>
        <time>2024-09-22T07:51:12Z</time>
      </trkpt>
      <trkpt lat="49.17716" lon="0.18348">
        <ele>124.8</ele>
        <time>2024-09-22T07:51:13Z</time>
      </trkpt>
      <trkpt lat="49.17712" lon="0.18351">
        <ele>125</ele>
        <time>2024-09-22T07:51:14Z</time>
      </trkpt>
      <trkpt lat="49.17708" lon="0.18354">
        <ele>125.2</ele>
        <time>2024-09-22T07:51:15Z</time>
      </trkpt>
      <trkpt lat="49.17704" lon="0.18357">
        <ele>125.2</ele>
        <time>2024-09-22T07:51:16Z</time>
      </trkpt>
      <trkpt lat="49.177" lon="0.1836">
        <ele>125.4</ele>
        <time>2024-09-22T07:51:17Z</time>
      </trkpt>
      <trkpt lat="49.17696" lon="0.18362">
        <ele>125.6</ele>
        <time>2024-09-22T07:51:18Z</time>
      </trkpt>
      <trkpt lat="49.17691" lon="0.18365">
        <ele>125.8</ele>
        <time>2024-09-22T07:51:19Z</time>
      </trkpt>
      <trkpt lat="49.17687" lon="0.18367">
        <ele>125.8</ele>
        <time>2024-09-22T07:51:20Z</time>
      </trkpt>
      <trkpt lat="49.17682" lon="0.1837">
        <ele>126</ele>
        <time>2024-09-22T07:51:21Z</time>
      </trkpt>
      <trkpt lat="49.17677" lon="0.18372">
        <ele>126.2</ele>
        <time>2024-09-22T07:51:22Z</time>
      </trkpt>
      <trkpt lat="49.17673" lon="0.18375">
        <ele>126.2</ele>
        <time>2024-09-22T07:51:23Z</time>
      </trkpt>
      <trkpt lat="49.17669" lon="0.18378">
        <ele>126.4</ele>
        <time>2024-09-22T07:51:24Z</time>
      </trkpt>
      <trkpt lat="49.17665" lon="0.1838">
        <ele>126.6</ele>
        <time>2024-09-22T07:51:25Z</time>
      </trkpt>
      <trkpt lat="49.1766" lon="0.18382">
        <ele>126.6</ele>
        <time>2024-09-22T07:51:26Z</time>
      </trkpt>
      <trkpt lat="49.17656" lon="0.18384">
        <ele>126.8</ele>
        <time>2024-09-22T07:51:27Z</time>
      </trkpt>
      <trkpt lat="49.17651" lon="0.18387">
        <ele>126.8</ele>
        <time>2024-09-22T07:51:28Z</time>
      </trkpt>
      <trkpt lat="49.17647" lon="0.18389">
        <ele>126.8</ele>
        <time>2024-09-22T07:51:29Z</time>
      </trkpt>
      <trkpt lat="49.17642" lon="0.18392">
        <ele>127</ele>
        <time>2024-09-22T07:51:30Z</time>
      </trkpt>
      <trkpt lat="49.17637" lon="0.18394">
        <ele>127.2</ele>
        <time>2024-09-22T07:51:31Z</time>
      </trkpt>
      <trkpt lat="49.17632" lon="0.18397">
        <ele>127.2</ele>
        <time>2024-09-22T07:51:32Z</time>
      </trkpt>
      <trkpt lat="49.17628" lon="0.184">
        <ele>127.4</ele>
        <time>2024-09-22T07:51:33Z</time>
      </trkpt>
      <trkpt lat="49.17623" lon="0.18403">
        <ele>127.4</ele>
        <time>2024-09-22T07:51:34Z</time>
      </trkpt>
      <trkpt lat="49.17619" lon="0.18405">
        <ele>127.4</ele>
        <time>2024-09-22T07:51:35Z</time>
      </trkpt>
      <trkpt lat="49.17614" lon="0.18407">
        <ele>127.4</ele>
        <time>2024-09-22T07:51:36Z</time>
      </trkpt>
      <trkpt lat="49.1761" lon="0.1841">
        <ele>127.6</ele>
        <time>2024-09-22T07:51:37Z</time>
      </trkpt>
      <trkpt lat="49.17606" lon="0.18412">
        <ele>127.6</ele>
        <time>2024-09-22T07:51:38Z</time>
      </trkpt>
      <trkpt lat="49.17602" lon="0.18415">
        <ele>127.8</ele>
        <time>2024-09-22T07:51:39Z</time>
      </trkpt>
      <trkpt lat="49.17597" lon="0.18417">
        <ele>128</ele>
        <time>2024-09-22T07:51:40Z</time>
      </trkpt>
      <trkpt lat="49.17593" lon="0.1842">
        <ele>128</ele>
        <time>2024-09-22T07:51:41Z</time>
      </trkpt>
      <trkpt lat="49.17588" lon="0.18422">
        <ele>128</ele>
        <time>2024-09-22T07:51:42Z</time>
      </trkpt>
      <trkpt lat="49.17583" lon="0.18424">
        <ele>128.2</ele>
        <time>2024-09-22T07:51:43Z</time>
      </trkpt>
      <trkpt lat="49.17578" lon="0.18426">
        <ele>128.4</ele>
        <time>2024-09-22T07:51:44Z</time>
      </trkpt>
      <trkpt lat="49.17573" lon="0.18428">
        <ele>128.4</ele>
        <time>2024-09-22T07:51:45Z</time>
      </trkpt>
      <trkpt lat="49.17567" lon="0.18431">
        <ele>128.6</ele>
        <time>2024-09-22T07:51:46Z</time>
      </trkpt>
      <trkpt lat="49.17562" lon="0.18433">
        <ele>128.8</ele>
        <time>2024-09-22T07:51:47Z</time>
      </trkpt>
      <trkpt lat="49.17556" lon="0.18436">
        <ele>128.8</ele>
        <time>2024-09-22T07:51:48Z</time>
      </trkpt>
      <trkpt lat="49.17551" lon="0.18438">
        <ele>129</ele>
        <time>2024-09-22T07:51:49Z</time>
      </trkpt>
      <trkpt lat="49.17545" lon="0.18441">
        <ele>129</ele>
        <time>2024-09-22T07:51:50Z</time>
      </trkpt>
      <trkpt lat="49.1754" lon="0.18444">
        <ele>129</ele>
        <time>2024-09-22T07:51:51Z</time>
      </trkpt>
      <trkpt lat="49.17534" lon="0.18447">
        <ele>129</ele>
        <time>2024-09-22T07:51:52Z</time>
      </trkpt>
      <trkpt lat="49.17528" lon="0.1845">
        <ele>129</ele>
        <time>2024-09-22T07:51:53Z</time>
      </trkpt>
      <trkpt lat="49.17523" lon="0.18453">
        <ele>129</ele>
        <time>2024-09-22T07:51:54Z</time>
      </trkpt>
      <trkpt lat="49.17517" lon="0.18456">
        <ele>129</ele>
        <time>2024-09-22T07:51:55Z</time>
      </trkpt>
      <trkpt lat="49.17511" lon="0.18458">
        <ele>129</ele>
        <time>2024-09-22T07:51:56Z</time>
      </trkpt>
      <trkpt lat="49.17506" lon="0.18461">
        <ele>129</ele>
        <time>2024-09-22T07:51:57Z</time>
      </trkpt>
      <trkpt lat="49.175" lon="0.18464">
        <ele>129</ele>
        <time>2024-09-22T07:51:58Z</time>
      </trkpt>
      <trkpt lat="49.17494" lon="0.18467">
        <ele>129</ele>
        <time>2024-09-22T07:51:59Z</time>
      </trkpt>
      <trkpt lat="49.17489" lon="0.1847">
        <ele>129</ele>
        <time>2024-09-22T07:52:00Z</time>
      </trkpt>
      <trkpt lat="49.17483" lon="0.18473">
        <ele>129</ele>
        <time>2024-09-22T07:52:01Z</time>
      </trkpt>
      <trkpt lat="49.17478" lon="0.18476">
        <ele>129</ele>
        <time>2024-09-22T07:52:02Z</time>
      </trkpt>
      <trkpt lat="49.17472" lon="0.18479">
        <ele>129</ele>
        <time>2024-09-22T07:52:03Z</time>
      </trkpt>
      <trkpt lat="49.17466" lon="0.18482">
        <ele>129.2</ele>
        <time>2024-09-22T07:52:04Z</time>
      </trkpt>
      <trkpt lat="49.1746" lon="0.18485">
        <ele>129.2</ele>
        <time>2024-09-22T07:52:05Z</time>
      </trkpt>
      <trkpt lat="49.17455" lon="0.18488">
        <ele>129.2</ele>
        <time>2024-09-22T07:52:06Z</time>
      </trkpt>
      <trkpt lat="49.17449" lon="0.1849">
        <ele>129.2</ele>
        <time>2024-09-22T07:52:07Z</time>
      </trkpt>
      <trkpt lat="49.17443" lon="0.18493">
        <ele>129.2</ele>
        <time>2024-09-22T07:52:08Z</time>
      </trkpt>
      <trkpt lat="49.17437" lon="0.18496">
        <ele>129.2</ele>
        <time>2024-09-22T07:52:09Z</time>
      </trkpt>
      <trkpt lat="49.17432" lon="0.18499">
        <ele>129.2</ele>
        <time>2024-09-22T07:52:10Z</time>
      </trkpt>
      <trkpt lat="49.17426" lon="0.18502">
        <ele>129.2</ele>
        <time>2024-09-22T07:52:11Z</time>
      </trkpt>
      <trkpt lat="49.1742" lon="0.18505">
        <ele>129.4</ele>
        <time>2024-09-22T07:52:12Z</time>
      </trkpt>
      <trkpt lat="49.17414" lon="0.18508">
        <ele>129.4</ele>
        <time>2024-09-22T07:52:13Z</time>
      </trkpt>
      <trkpt lat="49.17408" lon="0.18511">
        <ele>129.4</ele>
        <time>2024-09-22T07:52:14Z</time>
      </trkpt>
      <trkpt lat="49.17402" lon="0.18514">
        <ele>129.4</ele>
        <time>2024-09-22T07:52:15Z</time>
      </trkpt>
      <trkpt lat="49.17396" lon="0.18517">
        <ele>129.6</ele>
        <time>2024-09-22T07:52:16Z</time>
      </trkpt>
      <trkpt lat="49.1739" lon="0.1852">
        <ele>129.6</ele>
        <time>2024-09-22T07:52:17Z</time>
      </trkpt>
      <trkpt lat="49.17384" lon="0.18523">
        <ele>129.8</ele>
        <time>2024-09-22T07:52:18Z</time>
      </trkpt>
      <trkpt lat="49.17379" lon="0.18526">
        <ele>129.8</ele>
        <time>2024-09-22T07:52:19Z</time>
      </trkpt>
      <trkpt lat="49.17373" lon="0.18529">
        <ele>130</ele>
        <time>2024-09-22T07:52:20Z</time>
      </trkpt>
      <trkpt lat="49.17367" lon="0.18532">
        <ele>130</ele>
        <time>2024-09-22T07:52:21Z</time>
      </trkpt>
      <trkpt lat="49.17361" lon="0.18535">
        <ele>130</ele>
        <time>2024-09-22T07:52:22Z</time>
      </trkpt>
      <trkpt lat="49.17355" lon="0.18537">
        <ele>130</ele>
        <time>2024-09-22T07:52:23Z</time>
      </trkpt>
      <trkpt lat="49.17349" lon="0.18541">
        <ele>130</ele>
        <time>2024-09-22T07:52:24Z</time>
      </trkpt>
      <trkpt lat="49.17343" lon="0.18544">
        <ele>130</ele>
        <time>2024-09-22T07:52:25Z</time>
      </trkpt>
      <trkpt lat="49.17337" lon="0.18547">
        <ele>130</ele>
        <time>2024-09-22T07:52:26Z</time>
      </trkpt>
      <trkpt lat="49.17331" lon="0.1855">
        <ele>130</ele>
        <time>2024-09-22T07:52:27Z</time>
      </trkpt>
      <trkpt lat="49.17325" lon="0.18552">
        <ele>130</ele>
        <time>2024-09-22T07:52:28Z</time>
      </trkpt>
      <trkpt lat="49.17319" lon="0.18555">
        <ele>130.2</ele>
        <time>2024-09-22T07:52:29Z</time>
      </trkpt>
      <trkpt lat="49.17314" lon="0.18558">
        <ele>130.2</ele>
        <time>2024-09-22T07:52:30Z</time>
      </trkpt>
      <trkpt lat="49.17308" lon="0.18561">
        <ele>130.4</ele>
        <time>2024-09-22T07:52:31Z</time>
      </trkpt>
      <trkpt lat="49.17302" lon="0.18564">
        <ele>130.4</ele>
        <time>2024-09-22T07:52:32Z</time>
      </trkpt>
      <trkpt lat="49.17297" lon="0.18567">
        <ele>130.4</ele>
        <time>2024-09-22T07:52:33Z</time>
      </trkpt>
      <trkpt lat="49.17291" lon="0.1857">
        <ele>130.6</ele>
        <time>2024-09-22T07:52:34Z</time>
      </trkpt>
      <trkpt lat="49.17285" lon="0.18573">
        <ele>130.6</ele>
        <time>2024-09-22T07:52:35Z</time>
      </trkpt>
      <trkpt lat="49.17279" lon="0.18576">
        <ele>130.6</ele>
        <time>2024-09-22T07:52:36Z</time>
      </trkpt>
      <trkpt lat="49.17273" lon="0.18578">
        <ele>130.6</ele>
        <time>2024-09-22T07:52:37Z</time>
      </trkpt>
      <trkpt lat="49.17268" lon="0.18581">
        <ele>130.8</ele>
        <time>2024-09-22T07:52:38Z</time>
      </trkpt>
      <trkpt lat="49.17262" lon="0.18584">
        <ele>130.8</ele>
        <time>2024-09-22T07:52:39Z</time>
      </trkpt>
      <trkpt lat="49.17256" lon="0.18587">
        <ele>131</ele>
        <time>2024-09-22T07:52:40Z</time>
      </trkpt>
      <trkpt lat="49.17251" lon="0.18589">
        <ele>131.2</ele>
        <time>2024-09-22T07:52:41Z</time>
      </trkpt>
      <trkpt lat="49.17245" lon="0.18592">
        <ele>131.4</ele>
        <time>2024-09-22T07:52:42Z</time>
      </trkpt>
      <trkpt lat="49.1724" lon="0.18594">
        <ele>131.6</ele>
        <time>2024-09-22T07:52:43Z</time>
      </trkpt>
      <trkpt lat="49.17234" lon="0.18597">
        <ele>131.6</ele>
        <time>2024-09-22T07:52:44Z</time>
      </trkpt>
      <trkpt lat="49.17229" lon="0.186">
        <ele>131.6</ele>
        <time>2024-09-22T07:52:45Z</time>
      </trkpt>
      <trkpt lat="49.17224" lon="0.18603">
        <ele>131.8</ele>
        <time>2024-09-22T07:52:46Z</time>
      </trkpt>
      <trkpt lat="49.17218" lon="0.18606">
        <ele>131.8</ele>
        <time>2024-09-22T07:52:47Z</time>
      </trkpt>
      <trkpt lat="49.17213" lon="0.18609">
        <ele>132</ele>
        <time>2024-09-22T07:52:48Z</time>
      </trkpt>
      <trkpt lat="49.17207" lon="0.18612">
        <ele>132.2</ele>
        <time>2024-09-22T07:52:49Z</time>
      </trkpt>
      <trkpt lat="49.17202" lon="0.18615">
        <ele>132.2</ele>
        <time>2024-09-22T07:52:50Z</time>
      </trkpt>
      <trkpt lat="49.17196" lon="0.18618">
        <ele>132.4</ele>
        <time>2024-09-22T07:52:51Z</time>
      </trkpt>
      <trkpt lat="49.17191" lon="0.18621">
        <ele>132.6</ele>
        <time>2024-09-22T07:52:52Z</time>
      </trkpt>
      <trkpt lat="49.17185" lon="0.18624">
        <ele>132.6</ele>
        <time>2024-09-22T07:52:53Z</time>
      </trkpt>
      <trkpt lat="49.1718" lon="0.18627">
        <ele>132.6</ele>
        <time>2024-09-22T07:52:54Z</time>
      </trkpt>
      <trkpt lat="49.17175" lon="0.1863">
        <ele>132.6</ele>
        <time>2024-09-22T07:52:55Z</time>
      </trkpt>
      <trkpt lat="49.17169" lon="0.18632">
        <ele>132.6</ele>
        <time>2024-09-22T07:52:56Z</time>
      </trkpt>
      <trkpt lat="49.17164" lon="0.18635">
        <ele>132.8</ele>
        <time>2024-09-22T07:52:57Z</time>
      </trkpt>
      <trkpt lat="49.17158" lon="0.18638">
        <ele>133</ele>
        <time>2024-09-22T07:52:58Z</time>
      </trkpt>
      <trkpt lat="49.17153" lon="0.1864">
        <ele>133</ele>
        <time>2024-09-22T07:52:59Z</time>
      </trkpt>
      <trkpt lat="49.17148" lon="0.18643">
        <ele>133.2</ele>
        <time>2024-09-22T07:53:00Z</time>
      </trkpt>
      <trkpt lat="49.17142" lon="0.18645">
        <ele>133.2</ele>
        <time>2024-09-22T07:53:01Z</time>
      </trkpt>
      <trkpt lat="49.17137" lon="0.18648">
        <ele>133.4</ele>
        <time>2024-09-22T07:53:02Z</time>
      </trkpt>
      <trkpt lat="49.17131" lon="0.1865">
        <ele>133.4</ele>
        <time>2024-09-22T07:53:03Z</time>
      </trkpt>
      <trkpt lat="49.17126" lon="0.18653">
        <ele>133.4</ele>
        <time>2024-09-22T07:53:04Z</time>
      </trkpt>
      <trkpt lat="49.1712" lon="0.18655">
        <ele>133.6</ele>
        <time>2024-09-22T07:53:05Z</time>
      </trkpt>
      <trkpt lat="49.17114" lon="0.18658">
        <ele>133.8</ele>
        <time>2024-09-22T07:53:06Z</time>
      </trkpt>
      <trkpt lat="49.17108" lon="0.18661">
        <ele>133.8</ele>
        <time>2024-09-22T07:53:07Z</time>
      </trkpt>
      <trkpt lat="49.17103" lon="0.18664">
        <ele>134</ele>
        <time>2024-09-22T07:53:08Z</time>
      </trkpt>
      <trkpt lat="49.17097" lon="0.18667">
        <ele>134</ele>
        <time>2024-09-22T07:53:09Z</time>
      </trkpt>
      <trkpt lat="49.17092" lon="0.1867">
        <ele>134.2</ele>
        <time>2024-09-22T07:53:10Z</time>
      </trkpt>
      <trkpt lat="49.17086" lon="0.18673">
        <ele>134.2</ele>
        <time>2024-09-22T07:53:11Z</time>
      </trkpt>
      <trkpt lat="49.1708" lon="0.18676">
        <ele>134.2</ele>
        <time>2024-09-22T07:53:12Z</time>
      </trkpt>
      <trkpt lat="49.17074" lon="0.18679">
        <ele>134.2</ele>
        <time>2024-09-22T07:53:13Z</time>
      </trkpt>
      <trkpt lat="49.17068" lon="0.18681">
        <ele>134.4</ele>
        <time>2024-09-22T07:53:14Z</time>
      </trkpt>
      <trkpt lat="49.17063" lon="0.18685">
        <ele>134.4</ele>
        <time>2024-09-22T07:53:15Z</time>
      </trkpt>
      <trkpt lat="49.17057" lon="0.18687">
        <ele>134.6</ele>
        <time>2024-09-22T07:53:16Z</time>
      </trkpt>
      <trkpt lat="49.17051" lon="0.18691">
        <ele>134.6</ele>
        <time>2024-09-22T07:53:17Z</time>
      </trkpt>
      <trkpt lat="49.17045" lon="0.18693">
        <ele>134.8</ele>
        <time>2024-09-22T07:53:18Z</time>
      </trkpt>
      <trkpt lat="49.17039" lon="0.18696">
        <ele>134.8</ele>
        <time>2024-09-22T07:53:19Z</time>
      </trkpt>
      <trkpt lat="49.17033" lon="0.18699">
        <ele>135</ele>
        <time>2024-09-22T07:53:20Z</time>
      </trkpt>
      <trkpt lat="49.17027" lon="0.18702">
        <ele>135</ele>
        <time>2024-09-22T07:53:21Z</time>
      </trkpt>
      <trkpt lat="49.17021" lon="0.18705">
        <ele>135</ele>
        <time>2024-09-22T07:53:22Z</time>
      </trkpt>
      <trkpt lat="49.17015" lon="0.18707">
        <ele>135</ele>
        <time>2024-09-22T07:53:23Z</time>
      </trkpt>
      <trkpt lat="49.1701" lon="0.1871">
        <ele>135</ele>
        <time>2024-09-22T07:53:24Z</time>
      </trkpt>
      <trkpt lat="49.17004" lon="0.18713">
        <ele>135.2</ele>
        <time>2024-09-22T07:53:25Z</time>
      </trkpt>
      <trkpt lat="49.16999" lon="0.18715">
        <ele>135.2</ele>
        <time>2024-09-22T07:53:26Z</time>
      </trkpt>
      <trkpt lat="49.16993" lon="0.18718">
        <ele>135.2</ele>
        <time>2024-09-22T07:53:27Z</time>
      </trkpt>
      <trkpt lat="49.16987" lon="0.18721">
        <ele>135.6</ele>
        <time>2024-09-22T07:53:28Z</time>
      </trkpt>
      <trkpt lat="49.16982" lon="0.18723">
        <ele>136</ele>
        <time>2024-09-22T07:53:29Z</time>
      </trkpt>
      <trkpt lat="49.16976" lon="0.18726">
        <ele>136.4</ele>
        <time>2024-09-22T07:53:30Z</time>
      </trkpt>
      <trkpt lat="49.16971" lon="0.18729">
        <ele>136.6</ele>
        <time>2024-09-22T07:53:31Z</time>
      </trkpt>
      <trkpt lat="49.16965" lon="0.18733">
        <ele>136.8</ele>
        <time>2024-09-22T07:53:32Z</time>
      </trkpt>
      <trkpt lat="49.16959" lon="0.18735">
        <ele>137</ele>
        <time>2024-09-22T07:53:33Z</time>
      </trkpt>
      <trkpt lat="49.16953" lon="0.18738">
        <ele>137.2</ele>
        <time>2024-09-22T07:53:34Z</time>
      </trkpt>
      <trkpt lat="49.16948" lon="0.18741">
        <ele>137.2</ele>
        <time>2024-09-22T07:53:35Z</time>
      </trkpt>
      <trkpt lat="49.16943" lon="0.18744">
        <ele>137.4</ele>
        <time>2024-09-22T07:53:36Z</time>
      </trkpt>
      <trkpt lat="49.16936" lon="0.18747">
        <ele>137.6</ele>
        <time>2024-09-22T07:53:37Z</time>
      </trkpt>
      <trkpt lat="49.1693" lon="0.1875">
        <ele>137.6</ele>
        <time>2024-09-22T07:53:38Z</time>
      </trkpt>
      <trkpt lat="49.16925" lon="0.18752">
        <ele>137.6</ele>
        <time>2024-09-22T07:53:39Z</time>
      </trkpt>
      <trkpt lat="49.16918" lon="0.18755">
        <ele>137.6</ele>
        <time>2024-09-22T07:53:40Z</time>
      </trkpt>
      <trkpt lat="49.16912" lon="0.18758">
        <ele>137.6</ele>
        <time>2024-09-22T07:53:41Z</time>
      </trkpt>
      <trkpt lat="49.16906" lon="0.18761">
        <ele>137.8</ele>
        <time>2024-09-22T07:53:42Z</time>
      </trkpt>
      <trkpt lat="49.169" lon="0.18765">
        <ele>137.8</ele>
        <time>2024-09-22T07:53:43Z</time>
      </trkpt>
      <trkpt lat="49.16893" lon="0.18768">
        <ele>137.8</ele>
        <time>2024-09-22T07:53:44Z</time>
      </trkpt>
      <trkpt lat="49.16887" lon="0.18771">
        <ele>137.8</ele>
        <time>2024-09-22T07:53:45Z</time>
      </trkpt>
      <trkpt lat="49.1688" lon="0.18773">
        <ele>138</ele>
        <time>2024-09-22T07:53:46Z</time>
      </trkpt>
      <trkpt lat="49.16873" lon="0.18775">
        <ele>138.2</ele>
        <time>2024-09-22T07:53:47Z</time>
      </trkpt>
      <trkpt lat="49.16867" lon="0.18778">
        <ele>138.4</ele>
        <time>2024-09-22T07:53:48Z</time>
      </trkpt>
      <trkpt lat="49.1686" lon="0.18779">
        <ele>138.8</ele>
        <time>2024-09-22T07:53:49Z</time>
      </trkpt>
      <trkpt lat="49.16855" lon="0.1878">
        <ele>139.2</ele>
        <time>2024-09-22T07:53:50Z</time>
      </trkpt>
      <trkpt lat="49.16847" lon="0.18782">
        <ele>139.6</ele>
        <time>2024-09-22T07:53:51Z</time>
      </trkpt>
      <trkpt lat="49.1684" lon="0.18783">
        <ele>139.8</ele>
        <time>2024-09-22T07:53:52Z</time>
      </trkpt>
      <trkpt lat="49.16834" lon="0.18784">
        <ele>140.2</ele>
        <time>2024-09-22T07:53:53Z</time>
      </trkpt>
      <trkpt lat="49.16827" lon="0.18785">
        <ele>140.2</ele>
        <time>2024-09-22T07:53:54Z</time>
      </trkpt>
      <trkpt lat="49.1682" lon="0.18785">
        <ele>140.2</ele>
        <time>2024-09-22T07:53:55Z</time>
      </trkpt>
      <trkpt lat="49.16813" lon="0.18785">
        <ele>140.4</ele>
        <time>2024-09-22T07:53:56Z</time>
      </trkpt>
      <trkpt lat="49.16806" lon="0.18785">
        <ele>140.6</ele>
        <time>2024-09-22T07:53:57Z</time>
      </trkpt>
      <trkpt lat="49.16799" lon="0.18785">
        <ele>140.8</ele>
        <time>2024-09-22T07:53:58Z</time>
      </trkpt>
      <trkpt lat="49.16792" lon="0.18784">
        <ele>140.8</ele>
        <time>2024-09-22T07:53:59Z</time>
      </trkpt>
      <trkpt lat="49.16785" lon="0.18783">
        <ele>141</ele>
        <time>2024-09-22T07:54:00Z</time>
      </trkpt>
      <trkpt lat="49.16778" lon="0.18783">
        <ele>141.2</ele>
        <time>2024-09-22T07:54:01Z</time>
      </trkpt>
      <trkpt lat="49.16771" lon="0.18782">
        <ele>141.2</ele>
        <time>2024-09-22T07:54:02Z</time>
      </trkpt>
      <trkpt lat="49.16764" lon="0.18782">
        <ele>141.4</ele>
        <time>2024-09-22T07:54:03Z</time>
      </trkpt>
      <trkpt lat="49.16757" lon="0.18781">
        <ele>141.4</ele>
        <time>2024-09-22T07:54:04Z</time>
      </trkpt>
      <trkpt lat="49.16749" lon="0.18781">
        <ele>141.6</ele>
        <time>2024-09-22T07:54:05Z</time>
      </trkpt>
      <trkpt lat="49.16742" lon="0.1878">
        <ele>141.6</ele>
        <time>2024-09-22T07:54:06Z</time>
      </trkpt>
      <trkpt lat="49.16735" lon="0.18779">
        <ele>141.8</ele>
        <time>2024-09-22T07:54:07Z</time>
      </trkpt>
      <trkpt lat="49.16728" lon="0.18779">
        <ele>141.8</ele>
        <time>2024-09-22T07:54:08Z</time>
      </trkpt>
      <trkpt lat="49.16721" lon="0.18779">
        <ele>141.8</ele>
        <time>2024-09-22T07:54:09Z</time>
      </trkpt>
      <trkpt lat="49.16713" lon="0.18778">
        <ele>141.8</ele>
        <time>2024-09-22T07:54:10Z</time>
      </trkpt>
      <trkpt lat="49.16706" lon="0.18778">
        <ele>142.2</ele>
        <time>2024-09-22T07:54:11Z</time>
      </trkpt>
      <trkpt lat="49.16699" lon="0.18777">
        <ele>142.2</ele>
        <time>2024-09-22T07:54:12Z</time>
      </trkpt>
      <trkpt lat="49.16692" lon="0.18777">
        <ele>142.4</ele>
        <time>2024-09-22T07:54:13Z</time>
      </trkpt>
      <trkpt lat="49.16685" lon="0.18776">
        <ele>142.4</ele>
        <time>2024-09-22T07:54:14Z</time>
      </trkpt>
      <trkpt lat="49.16677" lon="0.18776">
        <ele>142.4</ele>
        <time>2024-09-22T07:54:15Z</time>
      </trkpt>
      <trkpt lat="49.1667" lon="0.18776">
        <ele>142.4</ele>
        <time>2024-09-22T07:54:16Z</time>
      </trkpt>
      <trkpt lat="49.16664" lon="0.18776">
        <ele>142.6</ele>
        <time>2024-09-22T07:54:17Z</time>
      </trkpt>
      <trkpt lat="49.16657" lon="0.18777">
        <ele>142.8</ele>
        <time>2024-09-22T07:54:18Z</time>
      </trkpt>
      <trkpt lat="49.16651" lon="0.18777">
        <ele>143</ele>
        <time>2024-09-22T07:54:19Z</time>
      </trkpt>
      <trkpt lat="49.16645" lon="0.18777">
        <ele>143.2</ele>
        <time>2024-09-22T07:54:20Z</time>
      </trkpt>
      <trkpt lat="49.1664" lon="0.18777">
        <ele>143.4</ele>
        <time>2024-09-22T07:54:21Z</time>
      </trkpt>
      <trkpt lat="49.16635" lon="0.18777">
        <ele>143.6</ele>
        <time>2024-09-22T07:54:22Z</time>
      </trkpt>
      <trkpt lat="49.16629" lon="0.18776">
        <ele>143.6</ele>
        <time>2024-09-22T07:54:23Z</time>
      </trkpt>
      <trkpt lat="49.16624" lon="0.18775">
        <ele>143.6</ele>
        <time>2024-09-22T07:54:24Z</time>
      </trkpt>
      <trkpt lat="49.16618" lon="0.18775">
        <ele>143.6</ele>
        <time>2024-09-22T07:54:25Z</time>
      </trkpt>
      <trkpt lat="49.16612" lon="0.18775">
        <ele>143.8</ele>
        <time>2024-09-22T07:54:26Z</time>
      </trkpt>
      <trkpt lat="49.16606" lon="0.18774">
        <ele>143.8</ele>
        <time>2024-09-22T07:54:27Z</time>
      </trkpt>
      <trkpt lat="49.16601" lon="0.18774">
        <ele>143.8</ele>
        <time>2024-09-22T07:54:28Z</time>
      </trkpt>
      <trkpt lat="49.16595" lon="0.18774">
        <ele>143.8</ele>
        <time>2024-09-22T07:54:29Z</time>
      </trkpt>
      <trkpt lat="49.16589" lon="0.18774">
        <ele>144</ele>
        <time>2024-09-22T07:54:30Z</time>
      </trkpt>
      <trkpt lat="49.16583" lon="0.18773">
        <ele>144.2</ele>
        <time>2024-09-22T07:54:31Z</time>
      </trkpt>
      <trkpt lat="49.16576" lon="0.18773">
        <ele>144.4</ele>
        <time>2024-09-22T07:54:32Z</time>
      </trkpt>
      <trkpt lat="49.1657" lon="0.18773">
        <ele>144.6</ele>
        <time>2024-09-22T07:54:33Z</time>
      </trkpt>
      <trkpt lat="49.16564" lon="0.18772">
        <ele>144.6</ele>
        <time>2024-09-22T07:54:34Z</time>
      </trkpt>
      <trkpt lat="49.16559" lon="0.18772">
        <ele>144.8</ele>
        <time>2024-09-22T07:54:35Z</time>
      </trkpt>
      <trkpt lat="49.16553" lon="0.18772">
        <ele>144.8</ele>
        <time>2024-09-22T07:54:36Z</time>
      </trkpt>
      <trkpt lat="49.16548" lon="0.18772">
        <ele>145</ele>
        <time>2024-09-22T07:54:37Z</time>
      </trkpt>
      <trkpt lat="49.16543" lon="0.18771">
        <ele>145</ele>
        <time>2024-09-22T07:54:38Z</time>
      </trkpt>
      <trkpt lat="49.16539" lon="0.18771">
        <ele>145</ele>
        <time>2024-09-22T07:54:39Z</time>
      </trkpt>
      <trkpt lat="49.16534" lon="0.1877">
        <ele>145</ele>
        <time>2024-09-22T07:54:40Z</time>
      </trkpt>
      <trkpt lat="49.1653" lon="0.1877">
        <ele>145.2</ele>
        <time>2024-09-22T07:54:41Z</time>
      </trkpt>
      <trkpt lat="49.16526" lon="0.1877">
        <ele>145.2</ele>
        <time>2024-09-22T07:54:42Z</time>
      </trkpt>
      <trkpt lat="49.16522" lon="0.1877">
        <ele>145.4</ele>
        <time>2024-09-22T07:54:43Z</time>
      </trkpt>
      <trkpt lat="49.16519" lon="0.18771">
        <ele>145.4</ele>
        <time>2024-09-22T07:54:44Z</time>
      </trkpt>
      <trkpt lat="49.16517" lon="0.18771">
        <ele>145.4</ele>
        <time>2024-09-22T07:54:45Z</time>
      </trkpt>
      <trkpt lat="49.16514" lon="0.1877">
        <ele>145.8</ele>
        <time>2024-09-22T07:54:46Z</time>
      </trkpt>
      <trkpt lat="49.16512" lon="0.1877">
        <ele>145.8</ele>
        <time>2024-09-22T07:54:47Z</time>
      </trkpt>
      <trkpt lat="49.16509" lon="0.1877">
        <ele>146.2</ele>
        <time>2024-09-22T07:54:48Z</time>
      </trkpt>
      <trkpt lat="49.16507" lon="0.1877">
        <ele>146.4</ele>
        <time>2024-09-22T07:54:49Z</time>
      </trkpt>
      <trkpt lat="49.16504" lon="0.1877">
        <ele>146.4</ele>
        <time>2024-09-22T07:54:50Z</time>
      </trkpt>
      <trkpt lat="49.16501" lon="0.18769">
        <ele>146.6</ele>
        <time>2024-09-22T07:54:51Z</time>
      </trkpt>
      <trkpt lat="49.16499" lon="0.18769">
        <ele>146.8</ele>
        <time>2024-09-22T07:54:52Z</time>
      </trkpt>
      <trkpt lat="49.16497" lon="0.18768">
        <ele>146.8</ele>
        <time>2024-09-22T07:54:53Z</time>
      </trkpt>
      <trkpt lat="49.16495" lon="0.18768">
        <ele>146.8</ele>
        <time>2024-09-22T07:54:54Z</time>
      </trkpt>
      <trkpt lat="49.16493" lon="0.18768">
        <ele>147</ele>
        <time>2024-09-22T07:54:55Z</time>
      </trkpt>
      <trkpt lat="49.16491" lon="0.18767">
        <ele>147</ele>
        <time>2024-09-22T07:54:56Z</time>
      </trkpt>
      <trkpt lat="49.1649" lon="0.18766">
        <ele>147</ele>
        <time>2024-09-22T07:54:57Z</time>
      </trkpt>
      <trkpt lat="49.16488" lon="0.18765">
        <ele>147</ele>
        <time>2024-09-22T07:54:58Z</time>
      </trkpt>
      <trkpt lat="49.16488" lon="0.18765">
        <ele>147</ele>
        <time>2024-09-22T07:54:59Z</time>
      </trkpt>
      <trkpt lat="49.16488" lon="0.18765">
        <ele>147</ele>
        <time>2024-09-22T07:55:00Z</time>
      </trkpt>
      <trkpt lat="49.16478" lon="0.18768">
        <ele>147.4</ele>
        <time>2024-09-22T07:58:39Z</time>
      </trkpt>
      <trkpt lat="49.16476" lon="0.18769">
        <ele>147.4</ele>
        <time>2024-09-22T07:58:40Z</time>
      </trkpt>
      <trkpt lat="49.16474" lon="0.1877">
        <ele>147.4</ele>
        <time>2024-09-22T07:58:41Z</time>
      </trkpt>
      <trkpt lat="49.16471" lon="0.1877">
        <ele>147.4</ele>
        <time>2024-09-22T07:58:42Z</time>
      </trkpt>
      <trkpt lat="49.16468" lon="0.1877">
        <ele>147.4</ele>
        <time>2024-09-22T07:58:43Z</time>
      </trkpt>
      <trkpt lat="49.16465" lon="0.18769">
        <ele>147.4</ele>
        <time>2024-09-22T07:58:44Z</time>
      </trkpt>
      <trkpt lat="49.16461" lon="0.18769">
        <ele>147.4</ele>
        <time>2024-09-22T07:58:45Z</time>
      </trkpt>
      <trkpt lat="49.16457" lon="0.18769">
        <ele>147.4</ele>
        <time>2024-09-22T07:58:46Z</time>
      </trkpt>
      <trkpt lat="49.16453" lon="0.18769">
        <ele>147.4</ele>
        <time>2024-09-22T07:58:47Z</time>
      </trkpt>
      <trkpt lat="49.16448" lon="0.1877">
        <ele>147.2</ele>
        <time>2024-09-22T07:58:48Z</time>
      </trkpt>
      <trkpt lat="49.16443" lon="0.18771">
        <ele>147.2</ele>
        <time>2024-09-22T07:58:49Z</time>
      </trkpt>
      <trkpt lat="49.16438" lon="0.18773">
        <ele>147.2</ele>
        <time>2024-09-22T07:58:50Z</time>
      </trkpt>
      <trkpt lat="49.16433" lon="0.18774">
        <ele>147.2</ele>
        <time>2024-09-22T07:58:51Z</time>
      </trkpt>
      <trkpt lat="49.16428" lon="0.18776">
        <ele>147.2</ele>
        <time>2024-09-22T07:58:52Z</time>
      </trkpt>
      <trkpt lat="49.16423" lon="0.18779">
        <ele>147.2</ele>
        <time>2024-09-22T07:58:53Z</time>
      </trkpt>
      <trkpt lat="49.16418" lon="0.18781">
        <ele>147</ele>
        <time>2024-09-22T07:58:54Z</time>
      </trkpt>
      <trkpt lat="49.16413" lon="0.18784">
        <ele>147</ele>
        <time>2024-09-22T07:58:55Z</time>
      </trkpt>
      <trkpt lat="49.16409" lon="0.18787">
        <ele>146.8</ele>
        <time>2024-09-22T07:58:56Z</time>
      </trkpt>
      <trkpt lat="49.16404" lon="0.1879">
        <ele>146.8</ele>
        <time>2024-09-22T07:58:57Z</time>
      </trkpt>
      <trkpt lat="49.164" lon="0.18793">
        <ele>146.8</ele>
        <time>2024-09-22T07:58:58Z</time>
      </trkpt>
      <trkpt lat="49.16394" lon="0.18797">
        <ele>146.8</ele>
        <time>2024-09-22T07:58:59Z</time>
      </trkpt>
      <trkpt lat="49.16388" lon="0.18801">
        <ele>146.8</ele>
        <time>2024-09-22T07:59:00Z</time>
      </trkpt>
      <trkpt lat="49.16384" lon="0.18804">
        <ele>146.8</ele>
        <time>2024-09-22T07:59:01Z</time>
      </trkpt>
      <trkpt lat="49.16378" lon="0.18808">
        <ele>146.8</ele>
        <time>2024-09-22T07:59:02Z</time>
      </trkpt>
      <trkpt lat="49.16373" lon="0.18812">
        <ele>146.6</ele>
        <time>2024-09-22T07:59:03Z</time>
      </trkpt>
      <trkpt lat="49.16367" lon="0.18817">
        <ele>146.6</ele>
        <time>2024-09-22T07:59:04Z</time>
      </trkpt>
      <trkpt lat="49.16362" lon="0.18821">
        <ele>146.6</ele>
        <time>2024-09-22T07:59:05Z</time>
      </trkpt>
      <trkpt lat="49.16357" lon="0.18825">
        <ele>146.6</ele>
        <time>2024-09-22T07:59:06Z</time>
      </trkpt>
      <trkpt lat="49.16351" lon="0.1883">
        <ele>146.6</ele>
        <time>2024-09-22T07:59:07Z</time>
      </trkpt>
      <trkpt lat="49.16345" lon="0.18834">
        <ele>146.6</ele>
        <time>2024-09-22T07:59:08Z</time>
      </trkpt>
      <trkpt lat="49.1634" lon="0.18839">
        <ele>146.6</ele>
        <time>2024-09-22T07:59:09Z</time>
      </trkpt>
      <trkpt lat="49.16334" lon="0.18844">
        <ele>146.4</ele>
        <time>2024-09-22T07:59:10Z</time>
      </trkpt>
      <trkpt lat="49.16328" lon="0.18848">
        <ele>146.4</ele>
        <time>2024-09-22T07:59:11Z</time>
      </trkpt>
      <trkpt lat="49.16323" lon="0.18853">
        <ele>146.4</ele>
        <time>2024-09-22T07:59:12Z</time>
      </trkpt>
      <trkpt lat="49.16317" lon="0.18857">
        <ele>146.4</ele>
        <time>2024-09-22T07:59:13Z</time>
      </trkpt>
      <trkpt lat="49.16311" lon="0.18862">
        <ele>146.2</ele>
        <time>2024-09-22T07:59:14Z</time>
      </trkpt>
      <trkpt lat="49.16305" lon="0.18867">
        <ele>146.2</ele>
        <time>2024-09-22T07:59:15Z</time>
      </trkpt>
      <trkpt lat="49.163" lon="0.18871">
        <ele>146</ele>
        <time>2024-09-22T07:59:16Z</time>
      </trkpt>
      <trkpt lat="49.16293" lon="0.18877">
        <ele>146</ele>
        <time>2024-09-22T07:59:17Z</time>
      </trkpt>
      <trkpt lat="49.16288" lon="0.18881">
        <ele>146</ele>
        <time>2024-09-22T07:59:18Z</time>
      </trkpt>
      <trkpt lat="49.16282" lon="0.18886">
        <ele>146</ele>
        <time>2024-09-22T07:59:19Z</time>
      </trkpt>
      <trkpt lat="49.16277" lon="0.18892">
        <ele>146</ele>
        <time>2024-09-22T07:59:20Z</time>
      </trkpt>
      <trkpt lat="49.16271" lon="0.18897">
        <ele>146</ele>
        <time>2024-09-22T07:59:21Z</time>
      </trkpt>
      <trkpt lat="49.16265" lon="0.18902">
        <ele>146</ele>
        <time>2024-09-22T07:59:22Z</time>
      </trkpt>
      <trkpt lat="49.16259" lon="0.18908">
        <ele>146</ele>
        <time>2024-09-22T07:59:23Z</time>
      </trkpt>
      <trkpt lat="49.16253" lon="0.18914">
        <ele>146</ele>
        <time>2024-09-22T07:59:24Z</time>
      </trkpt>
      <trkpt lat="49.16247" lon="0.1892">
        <ele>145.8</ele>
        <time>2024-09-22T07:59:25Z</time>
      </trkpt>
      <trkpt lat="49.16241" lon="0.18926">
        <ele>145.8</ele>
        <time>2024-09-22T07:59:26Z</time>
      </trkpt>
      <trkpt lat="49.16235" lon="0.18933">
        <ele>145.8</ele>
        <time>2024-09-22T07:59:27Z</time>
      </trkpt>
      <trkpt lat="49.16229" lon="0.18939">
        <ele>145.8</ele>
        <time>2024-09-22T07:59:28Z</time>
      </trkpt>
      <trkpt lat="49.16224" lon="0.18946">
        <ele>145.8</ele>
        <time>2024-09-22T07:59:29Z</time>
      </trkpt>
      <trkpt lat="49.16218" lon="0.18953">
        <ele>145.8</ele>
        <time>2024-09-22T07:59:30Z</time>
      </trkpt>
      <trkpt lat="49.16212" lon="0.1896">
        <ele>145.6</ele>
        <time>2024-09-22T07:59:31Z</time>
      </trkpt>
      <trkpt lat="49.16206" lon="0.18967">
        <ele>145.6</ele>
        <time>2024-09-22T07:59:32Z</time>
      </trkpt>
      <trkpt lat="49.162" lon="0.18973">
        <ele>145.6</ele>
        <time>2024-09-22T07:59:33Z</time>
      </trkpt>
      <trkpt lat="49.16194" lon="0.1898">
        <ele>145.6</ele>
        <time>2024-09-22T07:59:34Z</time>
      </trkpt>
      <trkpt lat="49.16188" lon="0.18986">
        <ele>145.6</ele>
        <time>2024-09-22T07:59:35Z</time>
      </trkpt>
      <trkpt lat="49.16184" lon="0.18992">
        <ele>145.4</ele>
        <time>2024-09-22T07:59:36Z</time>
      </trkpt>
      <trkpt lat="49.16178" lon="0.18999">
        <ele>145.4</ele>
        <time>2024-09-22T07:59:37Z</time>
      </trkpt>
      <trkpt lat="49.16171" lon="0.19007">
        <ele>145.4</ele>
        <time>2024-09-22T07:59:38Z</time>
      </trkpt>
      <trkpt lat="49.16165" lon="0.19014">
        <ele>145.4</ele>
        <time>2024-09-22T07:59:39Z</time>
      </trkpt>
      <trkpt lat="49.16159" lon="0.19021">
        <ele>145.4</ele>
        <time>2024-09-22T07:59:40Z</time>
      </trkpt>
      <trkpt lat="49.16154" lon="0.19027">
        <ele>145.4</ele>
        <time>2024-09-22T07:59:41Z</time>
      </trkpt>
      <trkpt lat="49.16148" lon="0.19036">
        <ele>145.4</ele>
        <time>2024-09-22T07:59:42Z</time>
      </trkpt>
      <trkpt lat="49.16142" lon="0.19043">
        <ele>145.4</ele>
        <time>2024-09-22T07:59:43Z</time>
      </trkpt>
      <trkpt lat="49.16136" lon="0.1905">
        <ele>145.4</ele>
        <time>2024-09-22T07:59:44Z</time>
      </trkpt>
      <trkpt lat="49.16131" lon="0.19058">
        <ele>145.4</ele>
        <time>2024-09-22T07:59:45Z</time>
      </trkpt>
      <trkpt lat="49.16125" lon="0.19065">
        <ele>145.4</ele>
        <time>2024-09-22T07:59:46Z</time>
      </trkpt>
      <trkpt lat="49.1612" lon="0.19073">
        <ele>145.4</ele>
        <time>2024-09-22T07:59:47Z</time>
      </trkpt>
      <trkpt lat="49.16114" lon="0.19081">
        <ele>145.2</ele>
        <time>2024-09-22T07:59:48Z</time>
      </trkpt>
      <trkpt lat="49.16108" lon="0.19089">
        <ele>145</ele>
        <time>2024-09-22T07:59:49Z</time>
      </trkpt>
      <trkpt lat="49.16104" lon="0.19096">
        <ele>145.2</ele>
        <time>2024-09-22T07:59:50Z</time>
      </trkpt>
      <trkpt lat="49.16097" lon="0.19106">
        <ele>145.2</ele>
        <time>2024-09-22T07:59:51Z</time>
      </trkpt>
      <trkpt lat="49.16092" lon="0.19114">
        <ele>145.2</ele>
        <time>2024-09-22T07:59:52Z</time>
      </trkpt>
      <trkpt lat="49.16086" lon="0.19122">
        <ele>145.2</ele>
        <time>2024-09-22T07:59:53Z</time>
      </trkpt>
      <trkpt lat="49.16081" lon="0.1913">
        <ele>145.2</ele>
        <time>2024-09-22T07:59:54Z</time>
      </trkpt>
      <trkpt lat="49.16076" lon="0.19139">
        <ele>145.2</ele>
        <time>2024-09-22T07:59:55Z</time>
      </trkpt>
      <trkpt lat="49.1607" lon="0.19148">
        <ele>145.2</ele>
        <time>2024-09-22T07:59:56Z</time>
      </trkpt>
      <trkpt lat="49.16066" lon="0.19156">
        <ele>144.8</ele>
        <time>2024-09-22T07:59:57Z</time>
      </trkpt>
      <trkpt lat="49.1606" lon="0.19166">
        <ele>144.8</ele>
        <time>2024-09-22T07:59:58Z</time>
      </trkpt>
      <trkpt lat="49.16056" lon="0.19173">
        <ele>144.8</ele>
        <time>2024-09-22T07:59:59Z</time>
      </trkpt>
      <trkpt lat="49.1605" lon="0.19184">
        <ele>144.6</ele>
        <time>2024-09-22T08:00:00Z</time>
      </trkpt>
      <trkpt lat="49.16045" lon="0.19194">
        <ele>144.6</ele>
        <time>2024-09-22T08:00:01Z</time>
      </trkpt>
      <trkpt lat="49.1604" lon="0.19203">
        <ele>144.6</ele>
        <time>2024-09-22T08:00:02Z</time>
      </trkpt>
      <trkpt lat="49.16035" lon="0.19212">
        <ele>144.4</ele>
        <time>2024-09-22T08:00:03Z</time>
      </trkpt>
      <trkpt lat="49.1603" lon="0.19221">
        <ele>144.4</ele>
        <time>2024-09-22T08:00:04Z</time>
      </trkpt>
      <trkpt lat="49.16026" lon="0.1923">
        <ele>144.4</ele>
        <time>2024-09-22T08:00:05Z</time>
      </trkpt>
      <trkpt lat="49.16021" lon="0.1924">
        <ele>144.2</ele>
        <time>2024-09-22T08:00:06Z</time>
      </trkpt>
      <trkpt lat="49.16017" lon="0.19248">
        <ele>144.2</ele>
        <time>2024-09-22T08:00:07Z</time>
      </trkpt>
      <trkpt lat="49.16012" lon="0.19258">
        <ele>144.2</ele>
        <time>2024-09-22T08:00:08Z</time>
      </trkpt>
      <trkpt lat="49.16007" lon="0.19269">
        <ele>144.2</ele>
        <time>2024-09-22T08:00:09Z</time>
      </trkpt>
      <trkpt lat="49.16002" lon="0.1928">
        <ele>144.2</ele>
        <time>2024-09-22T08:00:10Z</time>
      </trkpt>
      <trkpt lat="49.15998" lon="0.1929">
        <ele>144</ele>
        <time>2024-09-22T08:00:11Z</time>
      </trkpt>
      <trkpt lat="49.15994" lon="0.193">
        <ele>144</ele>
        <time>2024-09-22T08:00:12Z</time>
      </trkpt>
      <trkpt lat="49.1599" lon="0.19311">
        <ele>144</ele>
        <time>2024-09-22T08:00:13Z</time>
      </trkpt>
      <trkpt lat="49.15986" lon="0.19319">
        <ele>144</ele>
        <time>2024-09-22T08:00:14Z</time>
      </trkpt>
      <trkpt lat="49.15982" lon="0.1933">
        <ele>143.8</ele>
        <time>2024-09-22T08:00:15Z</time>
      </trkpt>
      <trkpt lat="49.15978" lon="0.19343">
        <ele>143.8</ele>
        <time>2024-09-22T08:00:16Z</time>
      </trkpt>
      <trkpt lat="49.15974" lon="0.19351">
        <ele>143.6</ele>
        <time>2024-09-22T08:00:17Z</time>
      </trkpt>
      <trkpt lat="49.1597" lon="0.19364">
        <ele>143.4</ele>
        <time>2024-09-22T08:00:18Z</time>
      </trkpt>
      <trkpt lat="49.15966" lon="0.19374">
        <ele>143.2</ele>
        <time>2024-09-22T08:00:19Z</time>
      </trkpt>
      <trkpt lat="49.15963" lon="0.19383">
        <ele>143.2</ele>
        <time>2024-09-22T08:00:20Z</time>
      </trkpt>
      <trkpt lat="49.15958" lon="0.19395">
        <ele>143</ele>
        <time>2024-09-22T08:00:21Z</time>
      </trkpt>
      <trkpt lat="49.15954" lon="0.19406">
        <ele>143</ele>
        <time>2024-09-22T08:00:22Z</time>
      </trkpt>
      <trkpt lat="49.1595" lon="0.19417">
        <ele>142.8</ele>
        <time>2024-09-22T08:00:23Z</time>
      </trkpt>
      <trkpt lat="49.15946" lon="0.19428">
        <ele>142.8</ele>
        <time>2024-09-22T08:00:24Z</time>
      </trkpt>
      <trkpt lat="49.15942" lon="0.19438">
        <ele>142.8</ele>
        <time>2024-09-22T08:00:25Z</time>
      </trkpt>
      <trkpt lat="49.15939" lon="0.19448">
        <ele>142.6</ele>
        <time>2024-09-22T08:00:26Z</time>
      </trkpt>
      <trkpt lat="49.15935" lon="0.19459">
        <ele>142.6</ele>
        <time>2024-09-22T08:00:27Z</time>
      </trkpt>
      <trkpt lat="49.15931" lon="0.19469">
        <ele>142.6</ele>
        <time>2024-09-22T08:00:28Z</time>
      </trkpt>
      <trkpt lat="49.15927" lon="0.1948">
        <ele>142.6</ele>
        <time>2024-09-22T08:00:29Z</time>
      </trkpt>
      <trkpt lat="49.15923" lon="0.1949">
        <ele>142.4</ele>
        <time>2024-09-22T08:00:30Z</time>
      </trkpt>
      <trkpt lat="49.15919" lon="0.19501">
        <ele>142.4</ele>
        <time>2024-09-22T08:00:31Z</time>
      </trkpt>
      <trkpt lat="49.15915" lon="0.19511">
        <ele>142.4</ele>
        <time>2024-09-22T08:00:32Z</time>
      </trkpt>
      <trkpt lat="49.15911" lon="0.19522">
        <ele>142.4</ele>
        <time>2024-09-22T08:00:33Z</time>
      </trkpt>
      <trkpt lat="49.15907" lon="0.19532">
        <ele>142.4</ele>
        <time>2024-09-22T08:00:34Z</time>
      </trkpt>
      <trkpt lat="49.15902" lon="0.19542">
        <ele>142.4</ele>
        <time>2024-09-22T08:00:35Z</time>
      </trkpt>
      <trkpt lat="49.15898" lon="0.19551">
        <ele>142.2</ele>
        <time>2024-09-22T08:00:36Z</time>
      </trkpt>
      <trkpt lat="49.15893" lon="0.19561">
        <ele>142.2</ele>
        <time>2024-09-22T08:00:37Z</time>
      </trkpt>
      <trkpt lat="49.15888" lon="0.19571">
        <ele>142.2</ele>
        <time>2024-09-22T08:00:38Z</time>
      </trkpt>
      <trkpt lat="49.15883" lon="0.19582">
        <ele>142.2</ele>
        <time>2024-09-22T08:00:39Z</time>
      </trkpt>
      <trkpt lat="49.15877" lon="0.19591">
        <ele>142.2</ele>
        <time>2024-09-22T08:00:40Z</time>
      </trkpt>
      <trkpt lat="49.15871" lon="0.19601">
        <ele>142.2</ele>
        <time>2024-09-22T08:00:41Z</time>
      </trkpt>
      <trkpt lat="49.15865" lon="0.1961">
        <ele>142.2</ele>
        <time>2024-09-22T08:00:42Z</time>
      </trkpt>
      <trkpt lat="49.15858" lon="0.19618">
        <ele>142</ele>
        <time>2024-09-22T08:00:43Z</time>
      </trkpt>
      <trkpt lat="49.15851" lon="0.19626">
        <ele>141.8</ele>
        <time>2024-09-22T08:00:44Z</time>
      </trkpt>
      <trkpt lat="49.15844" lon="0.19633">
        <ele>141.6</ele>
        <time>2024-09-22T08:00:45Z</time>
      </trkpt>
      <trkpt lat="49.15836" lon="0.19639">
        <ele>141.2</ele>
        <time>2024-09-22T08:00:46Z</time>
      </trkpt>
      <trkpt lat="49.15828" lon="0.19645">
        <ele>141</ele>
        <time>2024-09-22T08:00:47Z</time>
      </trkpt>
      <trkpt lat="49.1582" lon="0.19651">
        <ele>141</ele>
        <time>2024-09-22T08:00:48Z</time>
      </trkpt>
      <trkpt lat="49.15811" lon="0.19657">
        <ele>140.8</ele>
        <time>2024-09-22T08:00:49Z</time>
      </trkpt>
      <trkpt lat="49.15803" lon="0.19663">
        <ele>140.4</ele>
        <time>2024-09-22T08:00:50Z</time>
      </trkpt>
      <trkpt lat="49.15794" lon="0.19669">
        <ele>140.2</ele>
        <time>2024-09-22T08:00:51Z</time>
      </trkpt>
      <trkpt lat="49.15785" lon="0.19674">
        <ele>140</ele>
        <time>2024-09-22T08:00:52Z</time>
      </trkpt>
      <trkpt lat="49.15777" lon="0.1968">
        <ele>140</ele>
        <time>2024-09-22T08:00:53Z</time>
      </trkpt>
      <trkpt lat="49.15768" lon="0.19687">
        <ele>139.4</ele>
        <time>2024-09-22T08:00:54Z</time>
      </trkpt>
      <trkpt lat="49.15759" lon="0.19693">
        <ele>139.2</ele>
        <time>2024-09-22T08:00:55Z</time>
      </trkpt>
      <trkpt lat="49.1575" lon="0.19699">
        <ele>139</ele>
        <time>2024-09-22T08:00:56Z</time>
      </trkpt>
      <trkpt lat="49.15741" lon="0.19705">
        <ele>138.6</ele>
        <time>2024-09-22T08:00:57Z</time>
      </trkpt>
      <trkpt lat="49.15732" lon="0.19712">
        <ele>138.2</ele>
        <time>2024-09-22T08:00:58Z</time>
      </trkpt>
      <trkpt lat="49.15723" lon="0.19718">
        <ele>137.6</ele>
        <time>2024-09-22T08:00:59Z</time>
      </trkpt>
      <trkpt lat="49.15714" lon="0.19725">
        <ele>137.2</ele>
        <time>2024-09-22T08:01:00Z</time>
      </trkpt>
      <trkpt lat="49.15705" lon="0.19731">
        <ele>136.8</ele>
        <time>2024-09-22T08:01:01Z</time>
      </trkpt>
      <trkpt lat="49.15698" lon="0.19736">
        <ele>136.4</ele>
        <time>2024-09-22T08:01:02Z</time>
      </trkpt>
      <trkpt lat="49.15687" lon="0.19744">
        <ele>136</ele>
        <time>2024-09-22T08:01:03Z</time>
      </trkpt>
      <trkpt lat="49.15677" lon="0.1975">
        <ele>135.6</ele>
        <time>2024-09-22T08:01:04Z</time>
      </trkpt>
      <trkpt lat="49.15668" lon="0.19756">
        <ele>135</ele>
        <time>2024-09-22T08:01:05Z</time>
      </trkpt>
      <trkpt lat="49.15661" lon="0.19762">
        <ele>134.6</ele>
        <time>2024-09-22T08:01:06Z</time>
      </trkpt>
      <trkpt lat="49.15651" lon="0.19768">
        <ele>134.2</ele>
        <time>2024-09-22T08:01:07Z</time>
      </trkpt>
      <trkpt lat="49.15642" lon="0.19775">
        <ele>133.8</ele>
        <time>2024-09-22T08:01:08Z</time>
      </trkpt>
      <trkpt lat="49.15633" lon="0.19781">
        <ele>133.4</ele>
        <time>2024-09-22T08:01:09Z</time>
      </trkpt>
      <trkpt lat="49.15624" lon="0.19788">
        <ele>133</ele>
        <time>2024-09-22T08:01:10Z</time>
      </trkpt>
      <trkpt lat="49.15615" lon="0.19794">
        <ele>132.8</ele>
        <time>2024-09-22T08:01:11Z</time>
      </trkpt>
      <trkpt lat="49.15606" lon="0.198">
        <ele>132.8</ele>
        <time>2024-09-22T08:01:12Z</time>
      </trkpt>
      <trkpt lat="49.15598" lon="0.19805">
        <ele>132.4</ele>
        <time>2024-09-22T08:01:13Z</time>
      </trkpt>
      <trkpt lat="49.1559" lon="0.19811">
        <ele>132</ele>
        <time>2024-09-22T08:01:14Z</time>
      </trkpt>
      <trkpt lat="49.15583" lon="0.19816">
        <ele>131.8</ele>
        <time>2024-09-22T08:01:15Z</time>
      </trkpt>
      <trkpt lat="49.15574" lon="0.19822">
        <ele>131.8</ele>
        <time>2024-09-22T08:01:16Z</time>
      </trkpt>
      <trkpt lat="49.15568" lon="0.19826">
        <ele>131.8</ele>
        <time>2024-09-22T08:01:17Z</time>
      </trkpt>
      <trkpt lat="49.15561" lon="0.19831">
        <ele>131.8</ele>
        <time>2024-09-22T08:01:18Z</time>
      </trkpt>
      <trkpt lat="49.15554" lon="0.19835">
        <ele>131.8</ele>
        <time>2024-09-22T08:01:19Z</time>
      </trkpt>
      <trkpt lat="49.15547" lon="0.1984">
        <ele>131.8</ele>
        <time>2024-09-22T08:01:20Z</time>
      </trkpt>
      <trkpt lat="49.1554" lon="0.19845">
        <ele>131.8</ele>
        <time>2024-09-22T08:01:21Z</time>
      </trkpt>
      <trkpt lat="49.15533" lon="0.1985">
        <ele>131.8</ele>
        <time>2024-09-22T08:01:22Z</time>
      </trkpt>
      <trkpt lat="49.15526" lon="0.19855">
        <ele>131.8</ele>
        <time>2024-09-22T08:01:23Z</time>
      </trkpt>
      <trkpt lat="49.15519" lon="0.1986">
        <ele>132.2</ele>
        <time>2024-09-22T08:01:24Z</time>
      </trkpt>
      <trkpt lat="49.15512" lon="0.19864">
        <ele>132.4</ele>
        <time>2024-09-22T08:01:25Z</time>
      </trkpt>
      <trkpt lat="49.15505" lon="0.19869">
        <ele>133</ele>
        <time>2024-09-22T08:01:26Z</time>
      </trkpt>
      <trkpt lat="49.15498" lon="0.19874">
        <ele>133.4</ele>
        <time>2024-09-22T08:01:27Z</time>
      </trkpt>
      <trkpt lat="49.15491" lon="0.19879">
        <ele>133.8</ele>
        <time>2024-09-22T08:01:28Z</time>
      </trkpt>
      <trkpt lat="49.15483" lon="0.19885">
        <ele>134</ele>
        <time>2024-09-22T08:01:29Z</time>
      </trkpt>
      <trkpt lat="49.15476" lon="0.1989">
        <ele>134.2</ele>
        <time>2024-09-22T08:01:30Z</time>
      </trkpt>
      <trkpt lat="49.15468" lon="0.19896">
        <ele>134.2</ele>
        <time>2024-09-22T08:01:31Z</time>
      </trkpt>
      <trkpt lat="49.1546" lon="0.19901">
        <ele>134.2</ele>
        <time>2024-09-22T08:01:32Z</time>
      </trkpt>
      <trkpt lat="49.1545" lon="0.19908">
        <ele>134.2</ele>
        <time>2024-09-22T08:01:33Z</time>
      </trkpt>
      <trkpt lat="49.15442" lon="0.19913">
        <ele>134.2</ele>
        <time>2024-09-22T08:01:34Z</time>
      </trkpt>
      <trkpt lat="49.15434" lon="0.19919">
        <ele>134.2</ele>
        <time>2024-09-22T08:01:35Z</time>
      </trkpt>
      <trkpt lat="49.15426" lon="0.19925">
        <ele>134.2</ele>
        <time>2024-09-22T08:01:36Z</time>
      </trkpt>
      <trkpt lat="49.1542" lon="0.1993">
        <ele>134.2</ele>
        <time>2024-09-22T08:01:37Z</time>
      </trkpt>
      <trkpt lat="49.15412" lon="0.19935">
        <ele>134.2</ele>
        <time>2024-09-22T08:01:38Z</time>
      </trkpt>
      <trkpt lat="49.15404" lon="0.19941">
        <ele>134.2</ele>
        <time>2024-09-22T08:01:39Z</time>
      </trkpt>
      <trkpt lat="49.15395" lon="0.19947">
        <ele>134.2</ele>
        <time>2024-09-22T08:01:40Z</time>
      </trkpt>
      <trkpt lat="49.15387" lon="0.19952">
        <ele>133.8</ele>
        <time>2024-09-22T08:01:41Z</time>
      </trkpt>
      <trkpt lat="49.15379" lon="0.19958">
        <ele>133.6</ele>
        <time>2024-09-22T08:01:42Z</time>
      </trkpt>
      <trkpt lat="49.1537" lon="0.19964">
        <ele>133.4</ele>
        <time>2024-09-22T08:01:43Z</time>
      </trkpt>
      <trkpt lat="49.15361" lon="0.1997">
        <ele>133.2</ele>
        <time>2024-09-22T08:01:44Z</time>
      </trkpt>
      <trkpt lat="49.15353" lon="0.19977">
        <ele>133</ele>
        <time>2024-09-22T08:01:45Z</time>
      </trkpt>
      <trkpt lat="49.15344" lon="0.19983">
        <ele>132.6</ele>
        <time>2024-09-22T08:01:46Z</time>
      </trkpt>
      <trkpt lat="49.15336" lon="0.1999">
        <ele>132.4</ele>
        <time>2024-09-22T08:01:47Z</time>
      </trkpt>
      <trkpt lat="49.15327" lon="0.19998">
        <ele>132</ele>
        <time>2024-09-22T08:01:48Z</time>
      </trkpt>
      <trkpt lat="49.15319" lon="0.20006">
        <ele>131.6</ele>
        <time>2024-09-22T08:01:49Z</time>
      </trkpt>
      <trkpt lat="49.15311" lon="0.20014">
        <ele>131.2</ele>
        <time>2024-09-22T08:01:50Z</time>
      </trkpt>
      <trkpt lat="49.15303" lon="0.20023">
        <ele>130.8</ele>
        <time>2024-09-22T08:01:51Z</time>
      </trkpt>
      <trkpt lat="49.15296" lon="0.20033">
        <ele>130.8</ele>
        <time>2024-09-22T08:01:52Z</time>
      </trkpt>
      <trkpt lat="49.15288" lon="0.20043">
        <ele>130.2</ele>
        <time>2024-09-22T08:01:53Z</time>
      </trkpt>
      <trkpt lat="49.15281" lon="0.20054">
        <ele>129.8</ele>
        <time>2024-09-22T08:01:54Z</time>
      </trkpt>
      <trkpt lat="49.15273" lon="0.20064">
        <ele>129.4</ele>
        <time>2024-09-22T08:01:55Z</time>
      </trkpt>
      <trkpt lat="49.15266" lon="0.20075">
        <ele>129</ele>
        <time>2024-09-22T08:01:56Z</time>
      </trkpt>
      <trkpt lat="49.15258" lon="0.20085">
        <ele>128.4</ele>
        <time>2024-09-22T08:01:57Z</time>
      </trkpt>
      <trkpt lat="49.1525" lon="0.20096">
        <ele>128</ele>
        <time>2024-09-22T08:01:58Z</time>
      </trkpt>
      <trkpt lat="49.15243" lon="0.20106">
        <ele>127.4</ele>
        <time>2024-09-22T08:01:59Z</time>
      </trkpt>
      <trkpt lat="49.15236" lon="0.20116">
        <ele>127</ele>
        <time>2024-09-22T08:02:00Z</time>
      </trkpt>
      <trkpt lat="49.15228" lon="0.20126">
        <ele>126.8</ele>
        <time>2024-09-22T08:02:01Z</time>
      </trkpt>
      <trkpt lat="49.1522" lon="0.20138">
        <ele>126.4</ele>
        <time>2024-09-22T08:02:02Z</time>
      </trkpt>
      <trkpt lat="49.15213" lon="0.20147">
        <ele>125.8</ele>
        <time>2024-09-22T08:02:03Z</time>
      </trkpt>
      <trkpt lat="49.15206" lon="0.20157">
        <ele>125.2</ele>
        <time>2024-09-22T08:02:04Z</time>
      </trkpt>
      <trkpt lat="49.15199" lon="0.20166">
        <ele>124.8</ele>
        <time>2024-09-22T08:02:05Z</time>
      </trkpt>
      <trkpt lat="49.15192" lon="0.20176">
        <ele>124.4</ele>
        <time>2024-09-22T08:02:06Z</time>
      </trkpt>
      <trkpt lat="49.15187" lon="0.20183">
        <ele>124.2</ele>
        <time>2024-09-22T08:02:07Z</time>
      </trkpt>
      <trkpt lat="49.1518" lon="0.20192">
        <ele>123.8</ele>
        <time>2024-09-22T08:02:08Z</time>
      </trkpt>
      <trkpt lat="49.15173" lon="0.20201">
        <ele>123.6</ele>
        <time>2024-09-22T08:02:09Z</time>
      </trkpt>
      <trkpt lat="49.15166" lon="0.20211">
        <ele>123.6</ele>
        <time>2024-09-22T08:02:10Z</time>
      </trkpt>
      <trkpt lat="49.15159" lon="0.2022">
        <ele>123.4</ele>
        <time>2024-09-22T08:02:11Z</time>
      </trkpt>
      <trkpt lat="49.15153" lon="0.2023">
        <ele>123.4</ele>
        <time>2024-09-22T08:02:12Z</time>
      </trkpt>
      <trkpt lat="49.15146" lon="0.20239">
        <ele>123.4</ele>
        <time>2024-09-22T08:02:13Z</time>
      </trkpt>
      <trkpt lat="49.15139" lon="0.20248">
        <ele>123.4</ele>
        <time>2024-09-22T08:02:14Z</time>
      </trkpt>
      <trkpt lat="49.15132" lon="0.20258">
        <ele>123.2</ele>
        <time>2024-09-22T08:02:15Z</time>
      </trkpt>
      <trkpt lat="49.15125" lon="0.20268">
        <ele>123.2</ele>
        <time>2024-09-22T08:02:16Z</time>
      </trkpt>
      <trkpt lat="49.15118" lon="0.20277">
        <ele>123</ele>
        <time>2024-09-22T08:02:17Z</time>
      </trkpt>
      <trkpt lat="49.15112" lon="0.20287">
        <ele>123</ele>
        <time>2024-09-22T08:02:18Z</time>
      </trkpt>
      <trkpt lat="49.15105" lon="0.20298">
        <ele>123</ele>
        <time>2024-09-22T08:02:19Z</time>
      </trkpt>
      <trkpt lat="49.15098" lon="0.20308">
        <ele>123</ele>
        <time>2024-09-22T08:02:20Z</time>
      </trkpt>
      <trkpt lat="49.15091" lon="0.20319">
        <ele>123</ele>
        <time>2024-09-22T08:02:21Z</time>
      </trkpt>
      <trkpt lat="49.15084" lon="0.2033">
        <ele>122.8</ele>
        <time>2024-09-22T08:02:22Z</time>
      </trkpt>
      <trkpt lat="49.15077" lon="0.20341">
        <ele>122.8</ele>
        <time>2024-09-22T08:02:23Z</time>
      </trkpt>
      <trkpt lat="49.1507" lon="0.20352">
        <ele>122.8</ele>
        <time>2024-09-22T08:02:24Z</time>
      </trkpt>
      <trkpt lat="49.15063" lon="0.20364">
        <ele>122.4</ele>
        <time>2024-09-22T08:02:25Z</time>
      </trkpt>
      <trkpt lat="49.15055" lon="0.20375">
        <ele>122</ele>
        <time>2024-09-22T08:02:26Z</time>
      </trkpt>
      <trkpt lat="49.15048" lon="0.20387">
        <ele>121.6</ele>
        <time>2024-09-22T08:02:27Z</time>
      </trkpt>
      <trkpt lat="49.15041" lon="0.20398">
        <ele>121.2</ele>
        <time>2024-09-22T08:02:28Z</time>
      </trkpt>
      <trkpt lat="49.15033" lon="0.2041">
        <ele>120.6</ele>
        <time>2024-09-22T08:02:29Z</time>
      </trkpt>
      <trkpt lat="49.15026" lon="0.20422">
        <ele>120</ele>
        <time>2024-09-22T08:02:30Z</time>
      </trkpt>
      <trkpt lat="49.15018" lon="0.20433">
        <ele>119.6</ele>
        <time>2024-09-22T08:02:31Z</time>
      </trkpt>
      <trkpt lat="49.1501" lon="0.20445">
        <ele>119.6</ele>
        <time>2024-09-22T08:02:32Z</time>
      </trkpt>
      <trkpt lat="49.15003" lon="0.20457">
        <ele>119</ele>
        <time>2024-09-22T08:02:33Z</time>
      </trkpt>
      <trkpt lat="49.14995" lon="0.2047">
        <ele>118.4</ele>
        <time>2024-09-22T08:02:34Z</time>
      </trkpt>
      <trkpt lat="49.14987" lon="0.20482">
        <ele>117.6</ele>
        <time>2024-09-22T08:02:35Z</time>
      </trkpt>
      <trkpt lat="49.14979" lon="0.20494">
        <ele>117.2</ele>
        <time>2024-09-22T08:02:36Z</time>
      </trkpt>
      <trkpt lat="49.14971" lon="0.20507">
        <ele>116.4</ele>
        <time>2024-09-22T08:02:37Z</time>
      </trkpt>
      <trkpt lat="49.14963" lon="0.20519">
        <ele>115.6</ele>
        <time>2024-09-22T08:02:38Z</time>
      </trkpt>
      <trkpt lat="49.14955" lon="0.20532">
        <ele>114.8</ele>
        <time>2024-09-22T08:02:39Z</time>
      </trkpt>
      <trkpt lat="49.14947" lon="0.20544">
        <ele>114</ele>
        <time>2024-09-22T08:02:40Z</time>
      </trkpt>
      <trkpt lat="49.14939" lon="0.20557">
        <ele>113.4</ele>
        <time>2024-09-22T08:02:41Z</time>
      </trkpt>
      <trkpt lat="49.14931" lon="0.2057">
        <ele>112.4</ele>
        <time>2024-09-22T08:02:42Z</time>
      </trkpt>
      <trkpt lat="49.14923" lon="0.20583">
        <ele>111.8</ele>
        <time>2024-09-22T08:02:43Z</time>
      </trkpt>
      <trkpt lat="49.14915" lon="0.20596">
        <ele>111.2</ele>
        <time>2024-09-22T08:02:44Z</time>
      </trkpt>
      <trkpt lat="49.14907" lon="0.20609">
        <ele>110.6</ele>
        <time>2024-09-22T08:02:45Z</time>
      </trkpt>
      <trkpt lat="49.14899" lon="0.20622">
        <ele>109.6</ele>
        <time>2024-09-22T08:02:46Z</time>
      </trkpt>
      <trkpt lat="49.14891" lon="0.20635">
        <ele>109</ele>
        <time>2024-09-22T08:02:47Z</time>
      </trkpt>
      <trkpt lat="49.14883" lon="0.20648">
        <ele>108</ele>
        <time>2024-09-22T08:02:48Z</time>
      </trkpt>
      <trkpt lat="49.14874" lon="0.20661">
        <ele>107.2</ele>
        <time>2024-09-22T08:02:49Z</time>
      </trkpt>
      <trkpt lat="49.14866" lon="0.20674">
        <ele>106.6</ele>
        <time>2024-09-22T08:02:50Z</time>
      </trkpt>
      <trkpt lat="49.14857" lon="0.20687">
        <ele>106.2</ele>
        <time>2024-09-22T08:02:51Z</time>
      </trkpt>
      <trkpt lat="49.14849" lon="0.207">
        <ele>106.2</ele>
        <time>2024-09-22T08:02:52Z</time>
      </trkpt>
      <trkpt lat="49.14841" lon="0.20714">
        <ele>105.4</ele>
        <time>2024-09-22T08:02:53Z</time>
      </trkpt>
      <trkpt lat="49.14833" lon="0.20727">
        <ele>104.8</ele>
        <time>2024-09-22T08:02:54Z</time>
      </trkpt>
      <trkpt lat="49.14825" lon="0.2074">
        <ele>104</ele>
        <time>2024-09-22T08:02:55Z</time>
      </trkpt>
      <trkpt lat="49.14816" lon="0.20753">
        <ele>103.6</ele>
        <time>2024-09-22T08:02:56Z</time>
      </trkpt>
      <trkpt lat="49.14809" lon="0.20766">
        <ele>103.2</ele>
        <time>2024-09-22T08:02:57Z</time>
      </trkpt>
      <trkpt lat="49.14801" lon="0.20778">
        <ele>102.6</ele>
        <time>2024-09-22T08:02:58Z</time>
      </trkpt>
      <trkpt lat="49.14793" lon="0.20791">
        <ele>102</ele>
        <time>2024-09-22T08:02:59Z</time>
      </trkpt>
      <trkpt lat="49.14785" lon="0.20803">
        <ele>101.4</ele>
        <time>2024-09-22T08:03:00Z</time>
      </trkpt>
      <trkpt lat="49.14777" lon="0.20816">
        <ele>100.8</ele>
        <time>2024-09-22T08:03:01Z</time>
      </trkpt>
      <trkpt lat="49.14768" lon="0.20831">
        <ele>100</ele>
        <time>2024-09-22T08:03:02Z</time>
      </trkpt>
      <trkpt lat="49.14762" lon="0.2084">
        <ele>99.4</ele>
        <time>2024-09-22T08:03:03Z</time>
      </trkpt>
      <trkpt lat="49.14753" lon="0.20855">
        <ele>99</ele>
        <time>2024-09-22T08:03:04Z</time>
      </trkpt>
      <trkpt lat="49.14747" lon="0.20865">
        <ele>98.6</ele>
        <time>2024-09-22T08:03:05Z</time>
      </trkpt>
      <trkpt lat="49.14739" lon="0.20876">
        <ele>98.4</ele>
        <time>2024-09-22T08:03:06Z</time>
      </trkpt>
      <trkpt lat="49.1473" lon="0.20891">
        <ele>98.2</ele>
        <time>2024-09-22T08:03:07Z</time>
      </trkpt>
      <trkpt lat="49.14723" lon="0.20901">
        <ele>98</ele>
        <time>2024-09-22T08:03:08Z</time>
      </trkpt>
      <trkpt lat="49.14714" lon="0.20915">
        <ele>97.8</ele>
        <time>2024-09-22T08:03:09Z</time>
      </trkpt>
      <trkpt lat="49.14707" lon="0.20927">
        <ele>97.4</ele>
        <time>2024-09-22T08:03:10Z</time>
      </trkpt>
      <trkpt lat="49.147" lon="0.2094">
        <ele>97.4</ele>
        <time>2024-09-22T08:03:11Z</time>
      </trkpt>
      <trkpt lat="49.14693" lon="0.20951">
        <ele>97.2</ele>
        <time>2024-09-22T08:03:12Z</time>
      </trkpt>
      <trkpt lat="49.14686" lon="0.20963">
        <ele>96.8</ele>
        <time>2024-09-22T08:03:13Z</time>
      </trkpt>
      <trkpt lat="49.14678" lon="0.20974">
        <ele>96.6</ele>
        <time>2024-09-22T08:03:14Z</time>
      </trkpt>
      <trkpt lat="49.14671" lon="0.20984">
        <ele>96.4</ele>
        <time>2024-09-22T08:03:15Z</time>
      </trkpt>
      <trkpt lat="49.14665" lon="0.20993">
        <ele>96.2</ele>
        <time>2024-09-22T08:03:16Z</time>
      </trkpt>
      <trkpt lat="49.14657" lon="0.21007">
        <ele>96</ele>
        <time>2024-09-22T08:03:17Z</time>
      </trkpt>
      <trkpt lat="49.1465" lon="0.21019">
        <ele>95.4</ele>
        <time>2024-09-22T08:03:18Z</time>
      </trkpt>
      <trkpt lat="49.14643" lon="0.2103">
        <ele>95.2</ele>
        <time>2024-09-22T08:03:19Z</time>
      </trkpt>
      <trkpt lat="49.14637" lon="0.2104">
        <ele>94.8</ele>
        <time>2024-09-22T08:03:20Z</time>
      </trkpt>
      <trkpt lat="49.14629" lon="0.21054">
        <ele>94.2</ele>
        <time>2024-09-22T08:03:21Z</time>
      </trkpt>
      <trkpt lat="49.14622" lon="0.21067">
        <ele>93.8</ele>
        <time>2024-09-22T08:03:22Z</time>
      </trkpt>
      <trkpt lat="49.14615" lon="0.21079">
        <ele>93.6</ele>
        <time>2024-09-22T08:03:23Z</time>
      </trkpt>
      <trkpt lat="49.14609" lon="0.21089">
        <ele>93.4</ele>
        <time>2024-09-22T08:03:24Z</time>
      </trkpt>
      <trkpt lat="49.146" lon="0.21104">
        <ele>93</ele>
        <time>2024-09-22T08:03:25Z</time>
      </trkpt>
      <trkpt lat="49.14595" lon="0.21115">
        <ele>92.6</ele>
        <time>2024-09-22T08:03:26Z</time>
      </trkpt>
      <trkpt lat="49.14587" lon="0.21131">
        <ele>91.8</ele>
        <time>2024-09-22T08:03:27Z</time>
      </trkpt>
      <trkpt lat="49.1458" lon="0.21145">
        <ele>91.4</ele>
        <time>2024-09-22T08:03:28Z</time>
      </trkpt>
      <trkpt lat="49.14573" lon="0.2116">
        <ele>90.6</ele>
        <time>2024-09-22T08:03:29Z</time>
      </trkpt>
      <trkpt lat="49.14568" lon="0.21175">
        <ele>89.8</ele>
        <time>2024-09-22T08:03:30Z</time>
      </trkpt>
      <trkpt lat="49.14564" lon="0.21192">
        <ele>89.8</ele>
        <time>2024-09-22T08:03:31Z</time>
      </trkpt>
      <trkpt lat="49.1456" lon="0.21208">
        <ele>89</ele>
        <time>2024-09-22T08:03:32Z</time>
      </trkpt>
      <trkpt lat="49.14557" lon="0.21225">
        <ele>88.2</ele>
        <time>2024-09-22T08:03:33Z</time>
      </trkpt>
      <trkpt lat="49.14555" lon="0.21243">
        <ele>87.4</ele>
        <time>2024-09-22T08:03:34Z</time>
      </trkpt>
      <trkpt lat="49.14552" lon="0.21261">
        <ele>86.4</ele>
        <time>2024-09-22T08:03:35Z</time>
      </trkpt>
      <trkpt lat="49.1455" lon="0.21278">
        <ele>85.6</ele>
        <time>2024-09-22T08:03:36Z</time>
      </trkpt>
      <trkpt lat="49.14548" lon="0.21296">
        <ele>84.6</ele>
        <time>2024-09-22T08:03:37Z</time>
      </trkpt>
      <trkpt lat="49.14546" lon="0.21314">
        <ele>83.8</ele>
        <time>2024-09-22T08:03:38Z</time>
      </trkpt>
      <trkpt lat="49.14546" lon="0.21333">
        <ele>83</ele>
        <time>2024-09-22T08:03:39Z</time>
      </trkpt>
      <trkpt lat="49.14545" lon="0.21351">
        <ele>82</ele>
        <time>2024-09-22T08:03:40Z</time>
      </trkpt>
      <trkpt lat="49.14543" lon="0.21368">
        <ele>81</ele>
        <time>2024-09-22T08:03:41Z</time>
      </trkpt>
      <trkpt lat="49.14543" lon="0.21384">
        <ele>79.8</ele>
        <time>2024-09-22T08:03:42Z</time>
      </trkpt>
      <trkpt lat="49.14541" lon="0.21399">
        <ele>78.6</ele>
        <time>2024-09-22T08:03:43Z</time>
      </trkpt>
      <trkpt lat="49.1454" lon="0.21413">
        <ele>77.8</ele>
        <time>2024-09-22T08:03:44Z</time>
      </trkpt>
      <trkpt lat="49.14537" lon="0.21427">
        <ele>76.6</ele>
        <time>2024-09-22T08:03:45Z</time>
      </trkpt>
      <trkpt lat="49.14533" lon="0.21441">
        <ele>76</ele>
        <time>2024-09-22T08:03:46Z</time>
      </trkpt>
      <trkpt lat="49.14529" lon="0.21455">
        <ele>75</ele>
        <time>2024-09-22T08:03:47Z</time>
      </trkpt>
      <trkpt lat="49.14525" lon="0.2147">
        <ele>74.4</ele>
        <time>2024-09-22T08:03:48Z</time>
      </trkpt>
      <trkpt lat="49.14521" lon="0.21484">
        <ele>73.2</ele>
        <time>2024-09-22T08:03:49Z</time>
      </trkpt>
      <trkpt lat="49.14516" lon="0.21498">
        <ele>72.4</ele>
        <time>2024-09-22T08:03:50Z</time>
      </trkpt>
      <trkpt lat="49.14511" lon="0.21512">
        <ele>72.4</ele>
        <time>2024-09-22T08:03:51Z</time>
      </trkpt>
      <trkpt lat="49.14506" lon="0.21526">
        <ele>72</ele>
        <time>2024-09-22T08:03:52Z</time>
      </trkpt>
      <trkpt lat="49.145" lon="0.21539">
        <ele>71.6</ele>
        <time>2024-09-22T08:03:53Z</time>
      </trkpt>
      <trkpt lat="49.14494" lon="0.21552">
        <ele>71.2</ele>
        <time>2024-09-22T08:03:54Z</time>
      </trkpt>
      <trkpt lat="49.14488" lon="0.21564">
        <ele>70.8</ele>
        <time>2024-09-22T08:03:55Z</time>
      </trkpt>
      <trkpt lat="49.14482" lon="0.21576">
        <ele>70</ele>
        <time>2024-09-22T08:03:56Z</time>
      </trkpt>
      <trkpt lat="49.14476" lon="0.21588">
        <ele>69.2</ele>
        <time>2024-09-22T08:03:57Z</time>
      </trkpt>
      <trkpt lat="49.1447" lon="0.216">
        <ele>68.2</ele>
        <time>2024-09-22T08:03:58Z</time>
      </trkpt>
      <trkpt lat="49.14463" lon="0.21612">
        <ele>67.4</ele>
        <time>2024-09-22T08:03:59Z</time>
      </trkpt>
      <trkpt lat="49.14457" lon="0.21624">
        <ele>66.4</ele>
        <time>2024-09-22T08:04:00Z</time>
      </trkpt>
      <trkpt lat="49.14451" lon="0.21636">
        <ele>65.6</ele>
        <time>2024-09-22T08:04:01Z</time>
      </trkpt>
      <trkpt lat="49.14444" lon="0.21648">
        <ele>64.8</ele>
        <time>2024-09-22T08:04:02Z</time>
      </trkpt>
      <trkpt lat="49.14437" lon="0.2166">
        <ele>64.2</ele>
        <time>2024-09-22T08:04:03Z</time>
      </trkpt>
      <trkpt lat="49.1443" lon="0.21672">
        <ele>63.6</ele>
        <time>2024-09-22T08:04:04Z</time>
      </trkpt>
      <trkpt lat="49.14423" lon="0.21684">
        <ele>63</ele>
        <time>2024-09-22T08:04:05Z</time>
      </trkpt>
      <trkpt lat="49.14417" lon="0.21697">
        <ele>62.2</ele>
        <time>2024-09-22T08:04:06Z</time>
      </trkpt>
      <trkpt lat="49.14411" lon="0.21709">
        <ele>61.6</ele>
        <time>2024-09-22T08:04:07Z</time>
      </trkpt>
      <trkpt lat="49.14404" lon="0.21721">
        <ele>60.8</ele>
        <time>2024-09-22T08:04:08Z</time>
      </trkpt>
      <trkpt lat="49.14398" lon="0.21734">
        <ele>60.2</ele>
        <time>2024-09-22T08:04:09Z</time>
      </trkpt>
      <trkpt lat="49.14393" lon="0.21743">
        <ele>59.4</ele>
        <time>2024-09-22T08:04:10Z</time>
      </trkpt>
      <trkpt lat="49.14385" lon="0.21758">
        <ele>59.4</ele>
        <time>2024-09-22T08:04:11Z</time>
      </trkpt>
      <trkpt lat="49.14379" lon="0.21769">
        <ele>58.8</ele>
        <time>2024-09-22T08:04:12Z</time>
      </trkpt>
      <trkpt lat="49.14373" lon="0.2178">
        <ele>57.8</ele>
        <time>2024-09-22T08:04:13Z</time>
      </trkpt>
      <trkpt lat="49.14368" lon="0.21789">
        <ele>57</ele>
        <time>2024-09-22T08:04:14Z</time>
      </trkpt>
      <trkpt lat="49.14363" lon="0.21797">
        <ele>56.2</ele>
        <time>2024-09-22T08:04:15Z</time>
      </trkpt>
      <trkpt lat="49.14358" lon="0.21805">
        <ele>55.4</ele>
        <time>2024-09-22T08:04:16Z</time>
      </trkpt>
      <trkpt lat="49.14355" lon="0.21812">
        <ele>55</ele>
        <time>2024-09-22T08:04:17Z</time>
      </trkpt>
      <trkpt lat="49.14352" lon="0.21819">
        <ele>54.2</ele>
        <time>2024-09-22T08:04:18Z</time>
      </trkpt>
      <trkpt lat="49.14348" lon="0.21825">
        <ele>53.6</ele>
        <time>2024-09-22T08:04:19Z</time>
      </trkpt>
      <trkpt lat="49.14345" lon="0.2183">
        <ele>52.8</ele>
        <time>2024-09-22T08:04:20Z</time>
      </trkpt>
      <trkpt lat="49.14342" lon="0.21833">
        <ele>52.2</ele>
        <time>2024-09-22T08:04:21Z</time>
      </trkpt>
      <trkpt lat="49.14339" lon="0.21835">
        <ele>51.8</ele>
        <time>2024-09-22T08:04:22Z</time>
      </trkpt>
      <trkpt lat="49.14335" lon="0.21835">
        <ele>51.6</ele>
        <time>2024-09-22T08:04:23Z</time>
      </trkpt>
      <trkpt lat="49.14333" lon="0.21833">
        <ele>51.4</ele>
        <time>2024-09-22T08:04:24Z</time>
      </trkpt>
      <trkpt lat="49.14329" lon="0.21829">
        <ele>51.4</ele>
        <time>2024-09-22T08:04:25Z</time>
      </trkpt>
      <trkpt lat="49.14327" lon="0.21824">
        <ele>51.2</ele>
        <time>2024-09-22T08:04:26Z</time>
      </trkpt>
      <trkpt lat="49.14325" lon="0.21818">
        <ele>51.2</ele>
        <time>2024-09-22T08:04:27Z</time>
      </trkpt>
      <trkpt lat="49.14323" lon="0.21812">
        <ele>51</ele>
        <time>2024-09-22T08:04:28Z</time>
      </trkpt>
      <trkpt lat="49.14322" lon="0.21805">
        <ele>50.8</ele>
        <time>2024-09-22T08:04:29Z</time>
      </trkpt>
      <trkpt lat="49.14321" lon="0.21799">
        <ele>50.6</ele>
        <time>2024-09-22T08:04:30Z</time>
      </trkpt>
      <trkpt lat="49.14319" lon="0.21792">
        <ele>50.6</ele>
        <time>2024-09-22T08:04:31Z</time>
      </trkpt>
      <trkpt lat="49.14317" lon="0.21786">
        <ele>50.4</ele>
        <time>2024-09-22T08:04:32Z</time>
      </trkpt>
      <trkpt lat="49.14316" lon="0.21779">
        <ele>50</ele>
        <time>2024-09-22T08:04:33Z</time>
      </trkpt>
      <trkpt lat="49.14315" lon="0.21772">
        <ele>50</ele>
        <time>2024-09-22T08:04:34Z</time>
      </trkpt>
      <trkpt lat="49.14313" lon="0.21764">
        <ele>50</ele>
        <time>2024-09-22T08:04:35Z</time>
      </trkpt>
      <trkpt lat="49.14311" lon="0.21757">
        <ele>50</ele>
        <time>2024-09-22T08:04:36Z</time>
      </trkpt>
      <trkpt lat="49.1431" lon="0.2175">
        <ele>50</ele>
        <time>2024-09-22T08:04:37Z</time>
      </trkpt>
      <trkpt lat="49.14308" lon="0.21743">
        <ele>50</ele>
        <time>2024-09-22T08:04:38Z</time>
      </trkpt>
      <trkpt lat="49.14307" lon="0.21735">
        <ele>50</ele>
        <time>2024-09-22T08:04:39Z</time>
      </trkpt>
      <trkpt lat="49.14306" lon="0.21728">
        <ele>50</ele>
        <time>2024-09-22T08:04:40Z</time>
      </trkpt>
      <trkpt lat="49.14305" lon="0.2172">
        <ele>50</ele>
        <time>2024-09-22T08:04:41Z</time>
      </trkpt>
      <trkpt lat="49.14304" lon="0.21712">
        <ele>50</ele>
        <time>2024-09-22T08:04:42Z</time>
      </trkpt>
      <trkpt lat="49.14303" lon="0.21704">
        <ele>50</ele>
        <time>2024-09-22T08:04:43Z</time>
      </trkpt>
      <trkpt lat="49.143" lon="0.21696">
        <ele>50</ele>
        <time>2024-09-22T08:04:44Z</time>
      </trkpt>
      <trkpt lat="49.14298" lon="0.21689">
        <ele>50.2</ele>
        <time>2024-09-22T08:04:45Z</time>
      </trkpt>
      <trkpt lat="49.14296" lon="0.21681">
        <ele>50.2</ele>
        <time>2024-09-22T08:04:46Z</time>
      </trkpt>
      <trkpt lat="49.14294" lon="0.21673">
        <ele>50.2</ele>
        <time>2024-09-22T08:04:47Z</time>
      </trkpt>
      <trkpt lat="49.14292" lon="0.21665">
        <ele>50.4</ele>
        <time>2024-09-22T08:04:48Z</time>
      </trkpt>
      <trkpt lat="49.1429" lon="0.21658">
        <ele>50.4</ele>
        <time>2024-09-22T08:04:49Z</time>
      </trkpt>
      <trkpt lat="49.14288" lon="0.2165">
        <ele>50.6</ele>
        <time>2024-09-22T08:04:50Z</time>
      </trkpt>
      <trkpt lat="49.14285" lon="0.21642">
        <ele>50.6</ele>
        <time>2024-09-22T08:04:51Z</time>
      </trkpt>
      <trkpt lat="49.14283" lon="0.21634">
        <ele>50.6</ele>
        <time>2024-09-22T08:04:52Z</time>
      </trkpt>
      <trkpt lat="49.14281" lon="0.21626">
        <ele>50.6</ele>
        <time>2024-09-22T08:04:53Z</time>
      </trkpt>
      <trkpt lat="49.14279" lon="0.21618">
        <ele>50.8</ele>
        <time>2024-09-22T08:04:54Z</time>
      </trkpt>
      <trkpt lat="49.14277" lon="0.2161">
        <ele>50.8</ele>
        <time>2024-09-22T08:04:55Z</time>
      </trkpt>
      <trkpt lat="49.14275" lon="0.21603">
        <ele>50.8</ele>
        <time>2024-09-22T08:04:56Z</time>
      </trkpt>
      <trkpt lat="49.14273" lon="0.21595">
        <ele>50.8</ele>
        <time>2024-09-22T08:04:57Z</time>
      </trkpt>
      <trkpt lat="49.14271" lon="0.21587">
        <ele>51</ele>
        <time>2024-09-22T08:04:58Z</time>
      </trkpt>
      <trkpt lat="49.14268" lon="0.21579">
        <ele>51.2</ele>
        <time>2024-09-22T08:04:59Z</time>
      </trkpt>
      <trkpt lat="49.14266" lon="0.21572">
        <ele>51.4</ele>
        <time>2024-09-22T08:05:00Z</time>
      </trkpt>
      <trkpt lat="49.14264" lon="0.21564">
        <ele>51.4</ele>
        <time>2024-09-22T08:05:01Z</time>
      </trkpt>
      <trkpt lat="49.14261" lon="0.21556">
        <ele>51.6</ele>
        <time>2024-09-22T08:05:02Z</time>
      </trkpt>
      <trkpt lat="49.14258" lon="0.21548">
        <ele>51.6</ele>
        <time>2024-09-22T08:05:03Z</time>
      </trkpt>
      <trkpt lat="49.14254" lon="0.21541">
        <ele>51.6</ele>
        <time>2024-09-22T08:05:04Z</time>
      </trkpt>
      <trkpt lat="49.14251" lon="0.21533">
        <ele>51.8</ele>
        <time>2024-09-22T08:05:05Z</time>
      </trkpt>
      <trkpt lat="49.14248" lon="0.21527">
        <ele>51.8</ele>
        <time>2024-09-22T08:05:06Z</time>
      </trkpt>
      <trkpt lat="49.14244" lon="0.21518">
        <ele>52</ele>
        <time>2024-09-22T08:05:07Z</time>
      </trkpt>
      <trkpt lat="49.1424" lon="0.21511">
        <ele>52</ele>
        <time>2024-09-22T08:05:08Z</time>
      </trkpt>
      <trkpt lat="49.14236" lon="0.21504">
        <ele>52</ele>
        <time>2024-09-22T08:05:09Z</time>
      </trkpt>
      <trkpt lat="49.14233" lon="0.21498">
        <ele>52.2</ele>
        <time>2024-09-22T08:05:10Z</time>
      </trkpt>
      <trkpt lat="49.1423" lon="0.2149">
        <ele>52.2</ele>
        <time>2024-09-22T08:05:11Z</time>
      </trkpt>
      <trkpt lat="49.14225" lon="0.21481">
        <ele>52.2</ele>
        <time>2024-09-22T08:05:12Z</time>
      </trkpt>
      <trkpt lat="49.14222" lon="0.21476">
        <ele>52.4</ele>
        <time>2024-09-22T08:05:13Z</time>
      </trkpt>
      <trkpt lat="49.14218" lon="0.21468">
        <ele>52.6</ele>
        <time>2024-09-22T08:05:14Z</time>
      </trkpt>
      <trkpt lat="49.14214" lon="0.2146">
        <ele>52.8</ele>
        <time>2024-09-22T08:05:15Z</time>
      </trkpt>
      <trkpt lat="49.14211" lon="0.21454">
        <ele>52.8</ele>
        <time>2024-09-22T08:05:16Z</time>
      </trkpt>
      <trkpt lat="49.14207" lon="0.21446">
        <ele>53</ele>
        <time>2024-09-22T08:05:17Z</time>
      </trkpt>
      <trkpt lat="49.14203" lon="0.21438">
        <ele>53</ele>
        <time>2024-09-22T08:05:18Z</time>
      </trkpt>
      <trkpt lat="49.14199" lon="0.2143">
        <ele>53</ele>
        <time>2024-09-22T08:05:19Z</time>
      </trkpt>
      <trkpt lat="49.14195" lon="0.21423">
        <ele>53</ele>
        <time>2024-09-22T08:05:20Z</time>
      </trkpt>
      <trkpt lat="49.14191" lon="0.21416">
        <ele>53</ele>
        <time>2024-09-22T08:05:21Z</time>
      </trkpt>
      <trkpt lat="49.14188" lon="0.21409">
        <ele>53</ele>
        <time>2024-09-22T08:05:22Z</time>
      </trkpt>
      <trkpt lat="49.14184" lon="0.21402">
        <ele>53</ele>
        <time>2024-09-22T08:05:23Z</time>
      </trkpt>
      <trkpt lat="49.14181" lon="0.21395">
        <ele>53.2</ele>
        <time>2024-09-22T08:05:24Z</time>
      </trkpt>
      <trkpt lat="49.14178" lon="0.21388">
        <ele>53.2</ele>
        <time>2024-09-22T08:05:25Z</time>
      </trkpt>
      <trkpt lat="49.14174" lon="0.2138">
        <ele>53.2</ele>
        <time>2024-09-22T08:05:26Z</time>
      </trkpt>
      <trkpt lat="49.1417" lon="0.21373">
        <ele>53.2</ele>
        <time>2024-09-22T08:05:27Z</time>
      </trkpt>
      <trkpt lat="49.14167" lon="0.21365">
        <ele>53.2</ele>
        <time>2024-09-22T08:05:28Z</time>
      </trkpt>
      <trkpt lat="49.14164" lon="0.21357">
        <ele>53.4</ele>
        <time>2024-09-22T08:05:29Z</time>
      </trkpt>
      <trkpt lat="49.14161" lon="0.21349">
        <ele>53.4</ele>
        <time>2024-09-22T08:05:30Z</time>
      </trkpt>
      <trkpt lat="49.14159" lon="0.21341">
        <ele>53.4</ele>
        <time>2024-09-22T08:05:31Z</time>
      </trkpt>
      <trkpt lat="49.14156" lon="0.21333">
        <ele>53.6</ele>
        <time>2024-09-22T08:05:32Z</time>
      </trkpt>
      <trkpt lat="49.14153" lon="0.21324">
        <ele>53.6</ele>
        <time>2024-09-22T08:05:33Z</time>
      </trkpt>
      <trkpt lat="49.1415" lon="0.21316">
        <ele>53.4</ele>
        <time>2024-09-22T08:05:34Z</time>
      </trkpt>
      <trkpt lat="49.14148" lon="0.2131">
        <ele>53.8</ele>
        <time>2024-09-22T08:05:35Z</time>
      </trkpt>
      <trkpt lat="49.14145" lon="0.213">
        <ele>53.8</ele>
        <time>2024-09-22T08:05:36Z</time>
      </trkpt>
      <trkpt lat="49.14142" lon="0.21291">
        <ele>53.8</ele>
        <time>2024-09-22T08:05:37Z</time>
      </trkpt>
      <trkpt lat="49.14139" lon="0.21283">
        <ele>53.8</ele>
        <time>2024-09-22T08:05:38Z</time>
      </trkpt>
      <trkpt lat="49.14136" lon="0.21275">
        <ele>53.6</ele>
        <time>2024-09-22T08:05:39Z</time>
      </trkpt>
      <trkpt lat="49.14133" lon="0.21266">
        <ele>53.8</ele>
        <time>2024-09-22T08:05:40Z</time>
      </trkpt>
      <trkpt lat="49.14131" lon="0.21258">
        <ele>53.8</ele>
        <time>2024-09-22T08:05:41Z</time>
      </trkpt>
      <trkpt lat="49.14128" lon="0.21249">
        <ele>54.2</ele>
        <time>2024-09-22T08:05:42Z</time>
      </trkpt>
      <trkpt lat="49.14125" lon="0.21241">
        <ele>54</ele>
        <time>2024-09-22T08:05:43Z</time>
      </trkpt>
      <trkpt lat="49.14122" lon="0.21232">
        <ele>54</ele>
        <time>2024-09-22T08:05:44Z</time>
      </trkpt>
      <trkpt lat="49.14119" lon="0.21223">
        <ele>54</ele>
        <time>2024-09-22T08:05:45Z</time>
      </trkpt>
      <trkpt lat="49.14116" lon="0.21215">
        <ele>54</ele>
        <time>2024-09-22T08:05:46Z</time>
      </trkpt>
      <trkpt lat="49.14113" lon="0.21206">
        <ele>54.2</ele>
        <time>2024-09-22T08:05:47Z</time>
      </trkpt>
      <trkpt lat="49.1411" lon="0.21197">
        <ele>54.2</ele>
        <time>2024-09-22T08:05:48Z</time>
      </trkpt>
      <trkpt lat="49.14108" lon="0.21189">
        <ele>54.2</ele>
        <time>2024-09-22T08:05:49Z</time>
      </trkpt>
      <trkpt lat="49.14105" lon="0.2118">
        <ele>54.2</ele>
        <time>2024-09-22T08:05:50Z</time>
      </trkpt>
      <trkpt lat="49.14102" lon="0.21172">
        <ele>54.2</ele>
        <time>2024-09-22T08:05:51Z</time>
      </trkpt>
      <trkpt lat="49.14099" lon="0.21164">
        <ele>54.2</ele>
        <time>2024-09-22T08:05:52Z</time>
      </trkpt>
      <trkpt lat="49.14096" lon="0.21156">
        <ele>54.2</ele>
        <time>2024-09-22T08:05:53Z</time>
      </trkpt>
      <trkpt lat="49.14092" lon="0.21149">
        <ele>54.2</ele>
        <time>2024-09-22T08:05:54Z</time>
      </trkpt>
      <trkpt lat="49.14089" lon="0.21141">
        <ele>54.2</ele>
        <time>2024-09-22T08:05:55Z</time>
      </trkpt>
      <trkpt lat="49.14087" lon="0.21135">
        <ele>54.4</ele>
        <time>2024-09-22T08:05:56Z</time>
      </trkpt>
      <trkpt lat="49.14083" lon="0.21126">
        <ele>54.4</ele>
        <time>2024-09-22T08:05:57Z</time>
      </trkpt>
      <trkpt lat="49.14081" lon="0.2112">
        <ele>54.4</ele>
        <time>2024-09-22T08:05:58Z</time>
      </trkpt>
      <trkpt lat="49.14078" lon="0.21113">
        <ele>54.6</ele>
        <time>2024-09-22T08:05:59Z</time>
      </trkpt>
      <trkpt lat="49.14075" lon="0.21105">
        <ele>54.8</ele>
        <time>2024-09-22T08:06:00Z</time>
      </trkpt>
      <trkpt lat="49.14071" lon="0.21099">
        <ele>54.8</ele>
        <time>2024-09-22T08:06:01Z</time>
      </trkpt>
      <trkpt lat="49.14067" lon="0.21095">
        <ele>55.2</ele>
        <time>2024-09-22T08:06:02Z</time>
      </trkpt>
      <trkpt lat="49.14062" lon="0.21092">
        <ele>55.4</ele>
        <time>2024-09-22T08:06:03Z</time>
      </trkpt>
      <trkpt lat="49.14056" lon="0.21088">
        <ele>55.6</ele>
        <time>2024-09-22T08:06:04Z</time>
      </trkpt>
      <trkpt lat="49.14051" lon="0.21084">
        <ele>55.8</ele>
        <time>2024-09-22T08:06:05Z</time>
      </trkpt>
      <trkpt lat="49.14045" lon="0.2108">
        <ele>55.8</ele>
        <time>2024-09-22T08:06:06Z</time>
      </trkpt>
      <trkpt lat="49.1404" lon="0.21075">
        <ele>56</ele>
        <time>2024-09-22T08:06:07Z</time>
      </trkpt>
      <trkpt lat="49.14034" lon="0.2107">
        <ele>56</ele>
        <time>2024-09-22T08:06:08Z</time>
      </trkpt>
      <trkpt lat="49.14028" lon="0.21064">
        <ele>56.2</ele>
        <time>2024-09-22T08:06:09Z</time>
      </trkpt>
      <trkpt lat="49.14024" lon="0.2106">
        <ele>56.2</ele>
        <time>2024-09-22T08:06:10Z</time>
      </trkpt>
      <trkpt lat="49.14017" lon="0.21053">
        <ele>56.2</ele>
        <time>2024-09-22T08:06:11Z</time>
      </trkpt>
      <trkpt lat="49.14012" lon="0.21048">
        <ele>56.2</ele>
        <time>2024-09-22T08:06:12Z</time>
      </trkpt>
      <trkpt lat="49.14006" lon="0.21043">
        <ele>56.2</ele>
        <time>2024-09-22T08:06:13Z</time>
      </trkpt>
      <trkpt lat="49.14001" lon="0.21037">
        <ele>56.2</ele>
        <time>2024-09-22T08:06:14Z</time>
      </trkpt>
      <trkpt lat="49.13995" lon="0.21032">
        <ele>56.2</ele>
        <time>2024-09-22T08:06:15Z</time>
      </trkpt>
      <trkpt lat="49.1399" lon="0.21027">
        <ele>56.2</ele>
        <time>2024-09-22T08:06:16Z</time>
      </trkpt>
      <trkpt lat="49.13984" lon="0.21022">
        <ele>56.2</ele>
        <time>2024-09-22T08:06:17Z</time>
      </trkpt>
      <trkpt lat="49.13978" lon="0.21016">
        <ele>56.2</ele>
        <time>2024-09-22T08:06:18Z</time>
      </trkpt>
      <trkpt lat="49.13974" lon="0.21012">
        <ele>56</ele>
        <time>2024-09-22T08:06:19Z</time>
      </trkpt>
      <trkpt lat="49.13967" lon="0.21006">
        <ele>55.8</ele>
        <time>2024-09-22T08:06:20Z</time>
      </trkpt>
      <trkpt lat="49.13961" lon="0.21">
        <ele>55.8</ele>
        <time>2024-09-22T08:06:21Z</time>
      </trkpt>
      <trkpt lat="49.13956" lon="0.20996">
        <ele>55.4</ele>
        <time>2024-09-22T08:06:22Z</time>
      </trkpt>
      <trkpt lat="49.13949" lon="0.2099">
        <ele>55.4</ele>
        <time>2024-09-22T08:06:23Z</time>
      </trkpt>
      <trkpt lat="49.13943" lon="0.20984">
        <ele>55.2</ele>
        <time>2024-09-22T08:06:24Z</time>
      </trkpt>
      <trkpt lat="49.13938" lon="0.2098">
        <ele>55.2</ele>
        <time>2024-09-22T08:06:25Z</time>
      </trkpt>
      <trkpt lat="49.13932" lon="0.20975">
        <ele>55</ele>
        <time>2024-09-22T08:06:26Z</time>
      </trkpt>
      <trkpt lat="49.13925" lon="0.20968">
        <ele>55</ele>
        <time>2024-09-22T08:06:27Z</time>
      </trkpt>
      <trkpt lat="49.13919" lon="0.20962">
        <ele>55</ele>
        <time>2024-09-22T08:06:28Z</time>
      </trkpt>
      <trkpt lat="49.13913" lon="0.20956">
        <ele>54.8</ele>
        <time>2024-09-22T08:06:29Z</time>
      </trkpt>
      <trkpt lat="49.13907" lon="0.2095">
        <ele>54.8</ele>
        <time>2024-09-22T08:06:30Z</time>
      </trkpt>
      <trkpt lat="49.13901" lon="0.20944">
        <ele>54.8</ele>
        <time>2024-09-22T08:06:31Z</time>
      </trkpt>
      <trkpt lat="49.13895" lon="0.20938">
        <ele>54.6</ele>
        <time>2024-09-22T08:06:32Z</time>
      </trkpt>
      <trkpt lat="49.13891" lon="0.20933">
        <ele>54.4</ele>
        <time>2024-09-22T08:06:33Z</time>
      </trkpt>
      <trkpt lat="49.13884" lon="0.20926">
        <ele>54.2</ele>
        <time>2024-09-22T08:06:34Z</time>
      </trkpt>
      <trkpt lat="49.13877" lon="0.20919">
        <ele>54.2</ele>
        <time>2024-09-22T08:06:35Z</time>
      </trkpt>
      <trkpt lat="49.13872" lon="0.20913">
        <ele>54</ele>
        <time>2024-09-22T08:06:36Z</time>
      </trkpt>
      <trkpt lat="49.13867" lon="0.20908">
        <ele>54</ele>
        <time>2024-09-22T08:06:37Z</time>
      </trkpt>
      <trkpt lat="49.1386" lon="0.209">
        <ele>53.8</ele>
        <time>2024-09-22T08:06:38Z</time>
      </trkpt>
      <trkpt lat="49.13854" lon="0.20894">
        <ele>53.8</ele>
        <time>2024-09-22T08:06:39Z</time>
      </trkpt>
      <trkpt lat="49.13848" lon="0.20888">
        <ele>53.6</ele>
        <time>2024-09-22T08:06:40Z</time>
      </trkpt>
      <trkpt lat="49.13842" lon="0.20881">
        <ele>53.6</ele>
        <time>2024-09-22T08:06:41Z</time>
      </trkpt>
      <trkpt lat="49.13835" lon="0.20875">
        <ele>53.6</ele>
        <time>2024-09-22T08:06:42Z</time>
      </trkpt>
      <trkpt lat="49.13831" lon="0.2087">
        <ele>53.6</ele>
        <time>2024-09-22T08:06:43Z</time>
      </trkpt>
      <trkpt lat="49.13825" lon="0.20864">
        <ele>53.6</ele>
        <time>2024-09-22T08:06:44Z</time>
      </trkpt>
      <trkpt lat="49.13819" lon="0.20858">
        <ele>53.4</ele>
        <time>2024-09-22T08:06:45Z</time>
      </trkpt>
      <trkpt lat="49.13813" lon="0.20852">
        <ele>53.4</ele>
        <time>2024-09-22T08:06:46Z</time>
      </trkpt>
      <trkpt lat="49.13808" lon="0.20846">
        <ele>53.4</ele>
        <time>2024-09-22T08:06:47Z</time>
      </trkpt>
      <trkpt lat="49.13802" lon="0.2084">
        <ele>53.4</ele>
        <time>2024-09-22T08:06:48Z</time>
      </trkpt>
      <trkpt lat="49.13795" lon="0.20833">
        <ele>53.4</ele>
        <time>2024-09-22T08:06:49Z</time>
      </trkpt>
      <trkpt lat="49.1379" lon="0.20827">
        <ele>53.4</ele>
        <time>2024-09-22T08:06:50Z</time>
      </trkpt>
      <trkpt lat="49.13784" lon="0.20821">
        <ele>53.4</ele>
        <time>2024-09-22T08:06:51Z</time>
      </trkpt>
      <trkpt lat="49.13778" lon="0.20815">
        <ele>53.4</ele>
        <time>2024-09-22T08:06:52Z</time>
      </trkpt>
      <trkpt lat="49.13773" lon="0.2081">
        <ele>53.4</ele>
        <time>2024-09-22T08:06:53Z</time>
      </trkpt>
      <trkpt lat="49.13766" lon="0.20802">
        <ele>53.4</ele>
        <time>2024-09-22T08:06:54Z</time>
      </trkpt>
      <trkpt lat="49.13762" lon="0.20797">
        <ele>53.4</ele>
        <time>2024-09-22T08:06:55Z</time>
      </trkpt>
      <trkpt lat="49.13756" lon="0.2079">
        <ele>53.4</ele>
        <time>2024-09-22T08:06:56Z</time>
      </trkpt>
      <trkpt lat="49.13749" lon="0.20782">
        <ele>53.4</ele>
        <time>2024-09-22T08:06:57Z</time>
      </trkpt>
      <trkpt lat="49.13744" lon="0.20777">
        <ele>53.4</ele>
        <time>2024-09-22T08:06:58Z</time>
      </trkpt>
      <trkpt lat="49.13736" lon="0.2077">
        <ele>53.4</ele>
        <time>2024-09-22T08:06:59Z</time>
      </trkpt>
      <trkpt lat="49.13731" lon="0.20765">
        <ele>53.4</ele>
        <time>2024-09-22T08:07:00Z</time>
      </trkpt>
      <trkpt lat="49.13725" lon="0.20759">
        <ele>53.4</ele>
        <time>2024-09-22T08:07:01Z</time>
      </trkpt>
      <trkpt lat="49.13718" lon="0.20752">
        <ele>53.4</ele>
        <time>2024-09-22T08:07:02Z</time>
      </trkpt>
      <trkpt lat="49.13713" lon="0.20748">
        <ele>53.4</ele>
        <time>2024-09-22T08:07:03Z</time>
      </trkpt>
      <trkpt lat="49.13707" lon="0.20742">
        <ele>53.4</ele>
        <time>2024-09-22T08:07:04Z</time>
      </trkpt>
      <trkpt lat="49.137" lon="0.20735">
        <ele>53.4</ele>
        <time>2024-09-22T08:07:05Z</time>
      </trkpt>
      <trkpt lat="49.13695" lon="0.20731">
        <ele>53.4</ele>
        <time>2024-09-22T08:07:06Z</time>
      </trkpt>
      <trkpt lat="49.13688" lon="0.20724">
        <ele>53.4</ele>
        <time>2024-09-22T08:07:07Z</time>
      </trkpt>
      <trkpt lat="49.13682" lon="0.20719">
        <ele>53.4</ele>
        <time>2024-09-22T08:07:08Z</time>
      </trkpt>
      <trkpt lat="49.13676" lon="0.20713">
        <ele>53.4</ele>
        <time>2024-09-22T08:07:09Z</time>
      </trkpt>
      <trkpt lat="49.1367" lon="0.20708">
        <ele>53.4</ele>
        <time>2024-09-22T08:07:10Z</time>
      </trkpt>
      <trkpt lat="49.13664" lon="0.20703">
        <ele>53.4</ele>
        <time>2024-09-22T08:07:11Z</time>
      </trkpt>
      <trkpt lat="49.13658" lon="0.20697">
        <ele>53.4</ele>
        <time>2024-09-22T08:07:12Z</time>
      </trkpt>
      <trkpt lat="49.13652" lon="0.20692">
        <ele>53.6</ele>
        <time>2024-09-22T08:07:13Z</time>
      </trkpt>
      <trkpt lat="49.13646" lon="0.20686">
        <ele>53.6</ele>
        <time>2024-09-22T08:07:14Z</time>
      </trkpt>
      <trkpt lat="49.1364" lon="0.20681">
        <ele>53.6</ele>
        <time>2024-09-22T08:07:15Z</time>
      </trkpt>
      <trkpt lat="49.13633" lon="0.20677">
        <ele>53.8</ele>
        <time>2024-09-22T08:07:16Z</time>
      </trkpt>
      <trkpt lat="49.13627" lon="0.20672">
        <ele>53.8</ele>
        <time>2024-09-22T08:07:17Z</time>
      </trkpt>
      <trkpt lat="49.13621" lon="0.20667">
        <ele>54</ele>
        <time>2024-09-22T08:07:18Z</time>
      </trkpt>
      <trkpt lat="49.13614" lon="0.20662">
        <ele>54</ele>
        <time>2024-09-22T08:07:19Z</time>
      </trkpt>
      <trkpt lat="49.13609" lon="0.20658">
        <ele>54</ele>
        <time>2024-09-22T08:07:20Z</time>
      </trkpt>
      <trkpt lat="49.13603" lon="0.20653">
        <ele>54.2</ele>
        <time>2024-09-22T08:07:21Z</time>
      </trkpt>
      <trkpt lat="49.13596" lon="0.20649">
        <ele>54.2</ele>
        <time>2024-09-22T08:07:22Z</time>
      </trkpt>
      <trkpt lat="49.1359" lon="0.20644">
        <ele>54.2</ele>
        <time>2024-09-22T08:07:23Z</time>
      </trkpt>
      <trkpt lat="49.13584" lon="0.20639">
        <ele>54.2</ele>
        <time>2024-09-22T08:07:24Z</time>
      </trkpt>
      <trkpt lat="49.13577" lon="0.20634">
        <ele>54.2</ele>
        <time>2024-09-22T08:07:25Z</time>
      </trkpt>
      <trkpt lat="49.1357" lon="0.20629">
        <ele>54.2</ele>
        <time>2024-09-22T08:07:26Z</time>
      </trkpt>
      <trkpt lat="49.13564" lon="0.20624">
        <ele>54.4</ele>
        <time>2024-09-22T08:07:27Z</time>
      </trkpt>
      <trkpt lat="49.13556" lon="0.20618">
        <ele>54.4</ele>
        <time>2024-09-22T08:07:28Z</time>
      </trkpt>
      <trkpt lat="49.13551" lon="0.20615">
        <ele>54.4</ele>
        <time>2024-09-22T08:07:29Z</time>
      </trkpt>
      <trkpt lat="49.13544" lon="0.2061">
        <ele>54.4</ele>
        <time>2024-09-22T08:07:30Z</time>
      </trkpt>
      <trkpt lat="49.13536" lon="0.20604">
        <ele>54.6</ele>
        <time>2024-09-22T08:07:31Z</time>
      </trkpt>
      <trkpt lat="49.1353" lon="0.20599">
        <ele>54.6</ele>
        <time>2024-09-22T08:07:32Z</time>
      </trkpt>
      <trkpt lat="49.13524" lon="0.20595">
        <ele>54.6</ele>
        <time>2024-09-22T08:07:33Z</time>
      </trkpt>
      <trkpt lat="49.13518" lon="0.2059">
        <ele>54.8</ele>
        <time>2024-09-22T08:07:34Z</time>
      </trkpt>
      <trkpt lat="49.13511" lon="0.20585">
        <ele>54.8</ele>
        <time>2024-09-22T08:07:35Z</time>
      </trkpt>
      <trkpt lat="49.13505" lon="0.20581">
        <ele>54.8</ele>
        <time>2024-09-22T08:07:36Z</time>
      </trkpt>
      <trkpt lat="49.13498" lon="0.20576">
        <ele>55</ele>
        <time>2024-09-22T08:07:37Z</time>
      </trkpt>
      <trkpt lat="49.13492" lon="0.20572">
        <ele>55</ele>
        <time>2024-09-22T08:07:38Z</time>
      </trkpt>
      <trkpt lat="49.13483" lon="0.20566">
        <ele>55</ele>
        <time>2024-09-22T08:07:39Z</time>
      </trkpt>
      <trkpt lat="49.13478" lon="0.20563">
        <ele>55</ele>
        <time>2024-09-22T08:07:40Z</time>
      </trkpt>
      <trkpt lat="49.1347" lon="0.20559">
        <ele>55.2</ele>
        <time>2024-09-22T08:07:41Z</time>
      </trkpt>
      <trkpt lat="49.13465" lon="0.20556">
        <ele>55.2</ele>
        <time>2024-09-22T08:07:42Z</time>
      </trkpt>
      <trkpt lat="49.13458" lon="0.20553">
        <ele>55.2</ele>
        <time>2024-09-22T08:07:43Z</time>
      </trkpt>
      <trkpt lat="49.13451" lon="0.2055">
        <ele>55.2</ele>
        <time>2024-09-22T08:07:44Z</time>
      </trkpt>
      <trkpt lat="49.13444" lon="0.20547">
        <ele>55.2</ele>
        <time>2024-09-22T08:07:45Z</time>
      </trkpt>
      <trkpt lat="49.13438" lon="0.20544">
        <ele>55.4</ele>
        <time>2024-09-22T08:07:46Z</time>
      </trkpt>
      <trkpt lat="49.13431" lon="0.20542">
        <ele>55.4</ele>
        <time>2024-09-22T08:07:47Z</time>
      </trkpt>
      <trkpt lat="49.13423" lon="0.2054">
        <ele>55.4</ele>
        <time>2024-09-22T08:07:48Z</time>
      </trkpt>
      <trkpt lat="49.13416" lon="0.20538">
        <ele>55.6</ele>
        <time>2024-09-22T08:07:49Z</time>
      </trkpt>
      <trkpt lat="49.13411" lon="0.20536">
        <ele>55.6</ele>
        <time>2024-09-22T08:07:50Z</time>
      </trkpt>
      <trkpt lat="49.13404" lon="0.20534">
        <ele>55.6</ele>
        <time>2024-09-22T08:07:51Z</time>
      </trkpt>
      <trkpt lat="49.13398" lon="0.20532">
        <ele>55.8</ele>
        <time>2024-09-22T08:07:52Z</time>
      </trkpt>
      <trkpt lat="49.1339" lon="0.2053">
        <ele>56</ele>
        <time>2024-09-22T08:07:53Z</time>
      </trkpt>
      <trkpt lat="49.13383" lon="0.20529">
        <ele>56.2</ele>
        <time>2024-09-22T08:07:54Z</time>
      </trkpt>
      <trkpt lat="49.13378" lon="0.20528">
        <ele>56.2</ele>
        <time>2024-09-22T08:07:55Z</time>
      </trkpt>
      <trkpt lat="49.13372" lon="0.20527">
        <ele>56.4</ele>
        <time>2024-09-22T08:07:56Z</time>
      </trkpt>
      <trkpt lat="49.13366" lon="0.20524">
        <ele>56.6</ele>
        <time>2024-09-22T08:07:57Z</time>
      </trkpt>
      <trkpt lat="49.1336" lon="0.20522">
        <ele>56.6</ele>
        <time>2024-09-22T08:07:58Z</time>
      </trkpt>
      <trkpt lat="49.13354" lon="0.20518">
        <ele>56.8</ele>
        <time>2024-09-22T08:07:59Z</time>
      </trkpt>
      <trkpt lat="49.13348" lon="0.20515">
        <ele>57</ele>
        <time>2024-09-22T08:08:00Z</time>
      </trkpt>
      <trkpt lat="49.13342" lon="0.20512">
        <ele>57</ele>
        <time>2024-09-22T08:08:01Z</time>
      </trkpt>
      <trkpt lat="49.13336" lon="0.20509">
        <ele>57.2</ele>
        <time>2024-09-22T08:08:02Z</time>
      </trkpt>
      <trkpt lat="49.13331" lon="0.20505">
        <ele>57.4</ele>
        <time>2024-09-22T08:08:03Z</time>
      </trkpt>
      <trkpt lat="49.13325" lon="0.20501">
        <ele>57.6</ele>
        <time>2024-09-22T08:08:04Z</time>
      </trkpt>
      <trkpt lat="49.1332" lon="0.20498">
        <ele>57.6</ele>
        <time>2024-09-22T08:08:05Z</time>
      </trkpt>
      <trkpt lat="49.13314" lon="0.20495">
        <ele>57.8</ele>
        <time>2024-09-22T08:08:06Z</time>
      </trkpt>
      <trkpt lat="49.13309" lon="0.20491">
        <ele>58</ele>
        <time>2024-09-22T08:08:07Z</time>
      </trkpt>
      <trkpt lat="49.13304" lon="0.20487">
        <ele>58.2</ele>
        <time>2024-09-22T08:08:08Z</time>
      </trkpt>
      <trkpt lat="49.13298" lon="0.20484">
        <ele>58.6</ele>
        <time>2024-09-22T08:08:09Z</time>
      </trkpt>
      <trkpt lat="49.13293" lon="0.2048">
        <ele>58.6</ele>
        <time>2024-09-22T08:08:10Z</time>
      </trkpt>
      <trkpt lat="49.13288" lon="0.20477">
        <ele>58.8</ele>
        <time>2024-09-22T08:08:11Z</time>
      </trkpt>
      <trkpt lat="49.13282" lon="0.20474">
        <ele>59</ele>
        <time>2024-09-22T08:08:12Z</time>
      </trkpt>
      <trkpt lat="49.13277" lon="0.2047">
        <ele>59.2</ele>
        <time>2024-09-22T08:08:13Z</time>
      </trkpt>
      <trkpt lat="49.13272" lon="0.20467">
        <ele>59.4</ele>
        <time>2024-09-22T08:08:14Z</time>
      </trkpt>
      <trkpt lat="49.13266" lon="0.20463">
        <ele>59.8</ele>
        <time>2024-09-22T08:08:15Z</time>
      </trkpt>
      <trkpt lat="49.13261" lon="0.20459">
        <ele>60</ele>
        <time>2024-09-22T08:08:16Z</time>
      </trkpt>
      <trkpt lat="49.13256" lon="0.20457">
        <ele>60.4</ele>
        <time>2024-09-22T08:08:17Z</time>
      </trkpt>
      <trkpt lat="49.13251" lon="0.20453">
        <ele>60.4</ele>
        <time>2024-09-22T08:08:18Z</time>
      </trkpt>
      <trkpt lat="49.13246" lon="0.2045">
        <ele>60.8</ele>
        <time>2024-09-22T08:08:19Z</time>
      </trkpt>
      <trkpt lat="49.1324" lon="0.20446">
        <ele>61.2</ele>
        <time>2024-09-22T08:08:20Z</time>
      </trkpt>
      <trkpt lat="49.13235" lon="0.20442">
        <ele>61.6</ele>
        <time>2024-09-22T08:08:21Z</time>
      </trkpt>
      <trkpt lat="49.1323" lon="0.20439">
        <ele>61.8</ele>
        <time>2024-09-22T08:08:22Z</time>
      </trkpt>
      <trkpt lat="49.13225" lon="0.20434">
        <ele>62</ele>
        <time>2024-09-22T08:08:23Z</time>
      </trkpt>
      <trkpt lat="49.13219" lon="0.2043">
        <ele>62.2</ele>
        <time>2024-09-22T08:08:24Z</time>
      </trkpt>
      <trkpt lat="49.13215" lon="0.20425">
        <ele>62.4</ele>
        <time>2024-09-22T08:08:25Z</time>
      </trkpt>
      <trkpt lat="49.1321" lon="0.2042">
        <ele>62.4</ele>
        <time>2024-09-22T08:08:26Z</time>
      </trkpt>
      <trkpt lat="49.13205" lon="0.20414">
        <ele>62.6</ele>
        <time>2024-09-22T08:08:27Z</time>
      </trkpt>
      <trkpt lat="49.13201" lon="0.20408">
        <ele>62.8</ele>
        <time>2024-09-22T08:08:28Z</time>
      </trkpt>
      <trkpt lat="49.13196" lon="0.20403">
        <ele>63</ele>
        <time>2024-09-22T08:08:29Z</time>
      </trkpt>
      <trkpt lat="49.13192" lon="0.20397">
        <ele>63</ele>
        <time>2024-09-22T08:08:30Z</time>
      </trkpt>
      <trkpt lat="49.13187" lon="0.20389">
        <ele>63.4</ele>
        <time>2024-09-22T08:08:31Z</time>
      </trkpt>
      <trkpt lat="49.13184" lon="0.20384">
        <ele>63.6</ele>
        <time>2024-09-22T08:08:32Z</time>
      </trkpt>
      <trkpt lat="49.1318" lon="0.20377">
        <ele>63.6</ele>
        <time>2024-09-22T08:08:33Z</time>
      </trkpt>
      <trkpt lat="49.13176" lon="0.2037">
        <ele>63.8</ele>
        <time>2024-09-22T08:08:34Z</time>
      </trkpt>
      <trkpt lat="49.13172" lon="0.20363">
        <ele>64</ele>
        <time>2024-09-22T08:08:35Z</time>
      </trkpt>
      <trkpt lat="49.13168" lon="0.20355">
        <ele>64.2</ele>
        <time>2024-09-22T08:08:36Z</time>
      </trkpt>
      <trkpt lat="49.13164" lon="0.20348">
        <ele>64.4</ele>
        <time>2024-09-22T08:08:37Z</time>
      </trkpt>
      <trkpt lat="49.1316" lon="0.2034">
        <ele>64.4</ele>
        <time>2024-09-22T08:08:38Z</time>
      </trkpt>
      <trkpt lat="49.13156" lon="0.20333">
        <ele>64.6</ele>
        <time>2024-09-22T08:08:39Z</time>
      </trkpt>
      <trkpt lat="49.13151" lon="0.20324">
        <ele>64.8</ele>
        <time>2024-09-22T08:08:40Z</time>
      </trkpt>
      <trkpt lat="49.13148" lon="0.20318">
        <ele>65</ele>
        <time>2024-09-22T08:08:41Z</time>
      </trkpt>
      <trkpt lat="49.13144" lon="0.20311">
        <ele>65.2</ele>
        <time>2024-09-22T08:08:42Z</time>
      </trkpt>
      <trkpt lat="49.1314" lon="0.20303">
        <ele>65.4</ele>
        <time>2024-09-22T08:08:43Z</time>
      </trkpt>
      <trkpt lat="49.13137" lon="0.20296">
        <ele>65.4</ele>
        <time>2024-09-22T08:08:44Z</time>
      </trkpt>
      <trkpt lat="49.13133" lon="0.20288">
        <ele>65.6</ele>
        <time>2024-09-22T08:08:45Z</time>
      </trkpt>
      <trkpt lat="49.13129" lon="0.2028">
        <ele>65.6</ele>
        <time>2024-09-22T08:08:46Z</time>
      </trkpt>
      <trkpt lat="49.13126" lon="0.20273">
        <ele>65.8</ele>
        <time>2024-09-22T08:08:47Z</time>
      </trkpt>
      <trkpt lat="49.13122" lon="0.20265">
        <ele>65.8</ele>
        <time>2024-09-22T08:08:48Z</time>
      </trkpt>
      <trkpt lat="49.13118" lon="0.20255">
        <ele>65.8</ele>
        <time>2024-09-22T08:08:49Z</time>
      </trkpt>
      <trkpt lat="49.13115" lon="0.20249">
        <ele>65.8</ele>
        <time>2024-09-22T08:08:50Z</time>
      </trkpt>
      <trkpt lat="49.13111" lon="0.20241">
        <ele>66</ele>
        <time>2024-09-22T08:08:51Z</time>
      </trkpt>
      <trkpt lat="49.13107" lon="0.20234">
        <ele>66</ele>
        <time>2024-09-22T08:08:52Z</time>
      </trkpt>
      <trkpt lat="49.13103" lon="0.20226">
        <ele>66</ele>
        <time>2024-09-22T08:08:53Z</time>
      </trkpt>
      <trkpt lat="49.13099" lon="0.20219">
        <ele>66.2</ele>
        <time>2024-09-22T08:08:54Z</time>
      </trkpt>
      <trkpt lat="49.13095" lon="0.20211">
        <ele>66.2</ele>
        <time>2024-09-22T08:08:55Z</time>
      </trkpt>
      <trkpt lat="49.13092" lon="0.20204">
        <ele>66.2</ele>
        <time>2024-09-22T08:08:56Z</time>
      </trkpt>
      <trkpt lat="49.13088" lon="0.20195">
        <ele>66.2</ele>
        <time>2024-09-22T08:08:57Z</time>
      </trkpt>
      <trkpt lat="49.13085" lon="0.20187">
        <ele>66.2</ele>
        <time>2024-09-22T08:08:58Z</time>
      </trkpt>
      <trkpt lat="49.13081" lon="0.20179">
        <ele>66.4</ele>
        <time>2024-09-22T08:08:59Z</time>
      </trkpt>
      <trkpt lat="49.13077" lon="0.20171">
        <ele>66.4</ele>
        <time>2024-09-22T08:09:00Z</time>
      </trkpt>
      <trkpt lat="49.13073" lon="0.20163">
        <ele>66.6</ele>
        <time>2024-09-22T08:09:01Z</time>
      </trkpt>
      <trkpt lat="49.13069" lon="0.20155">
        <ele>66.6</ele>
        <time>2024-09-22T08:09:02Z</time>
      </trkpt>
      <trkpt lat="49.13065" lon="0.20147">
        <ele>66.8</ele>
        <time>2024-09-22T08:09:03Z</time>
      </trkpt>
      <trkpt lat="49.13061" lon="0.20139">
        <ele>67</ele>
        <time>2024-09-22T08:09:04Z</time>
      </trkpt>
      <trkpt lat="49.13057" lon="0.20131">
        <ele>67</ele>
        <time>2024-09-22T08:09:05Z</time>
      </trkpt>
      <trkpt lat="49.13053" lon="0.20123">
        <ele>67.2</ele>
        <time>2024-09-22T08:09:06Z</time>
      </trkpt>
      <trkpt lat="49.13049" lon="0.20115">
        <ele>67.6</ele>
        <time>2024-09-22T08:09:07Z</time>
      </trkpt>
      <trkpt lat="49.13045" lon="0.20107">
        <ele>67.8</ele>
        <time>2024-09-22T08:09:08Z</time>
      </trkpt>
      <trkpt lat="49.13041" lon="0.20099">
        <ele>68</ele>
        <time>2024-09-22T08:09:09Z</time>
      </trkpt>
      <trkpt lat="49.13037" lon="0.2009">
        <ele>68</ele>
        <time>2024-09-22T08:09:10Z</time>
      </trkpt>
      <trkpt lat="49.13033" lon="0.20082">
        <ele>68.2</ele>
        <time>2024-09-22T08:09:11Z</time>
      </trkpt>
      <trkpt lat="49.13028" lon="0.20073">
        <ele>68.2</ele>
        <time>2024-09-22T08:09:12Z</time>
      </trkpt>
      <trkpt lat="49.13024" lon="0.20064">
        <ele>68.4</ele>
        <time>2024-09-22T08:09:13Z</time>
      </trkpt>
      <trkpt lat="49.1302" lon="0.20056">
        <ele>68.6</ele>
        <time>2024-09-22T08:09:14Z</time>
      </trkpt>
      <trkpt lat="49.13015" lon="0.20047">
        <ele>68.6</ele>
        <time>2024-09-22T08:09:15Z</time>
      </trkpt>
      <trkpt lat="49.13011" lon="0.20038">
        <ele>68.6</ele>
        <time>2024-09-22T08:09:16Z</time>
      </trkpt>
      <trkpt lat="49.13006" lon="0.20029">
        <ele>68.8</ele>
        <time>2024-09-22T08:09:17Z</time>
      </trkpt>
      <trkpt lat="49.13002" lon="0.2002">
        <ele>68.8</ele>
        <time>2024-09-22T08:09:18Z</time>
      </trkpt>
      <trkpt lat="49.12997" lon="0.20011">
        <ele>69</ele>
        <time>2024-09-22T08:09:19Z</time>
      </trkpt>
      <trkpt lat="49.12993" lon="0.20003">
        <ele>69</ele>
        <time>2024-09-22T08:09:20Z</time>
      </trkpt>
      <trkpt lat="49.12988" lon="0.19994">
        <ele>69.2</ele>
        <time>2024-09-22T08:09:21Z</time>
      </trkpt>
      <trkpt lat="49.12984" lon="0.19985">
        <ele>69.2</ele>
        <time>2024-09-22T08:09:22Z</time>
      </trkpt>
      <trkpt lat="49.1298" lon="0.19976">
        <ele>69.2</ele>
        <time>2024-09-22T08:09:23Z</time>
      </trkpt>
      <trkpt lat="49.12975" lon="0.19967">
        <ele>69.2</ele>
        <time>2024-09-22T08:09:24Z</time>
      </trkpt>
      <trkpt lat="49.12971" lon="0.19958">
        <ele>69.2</ele>
        <time>2024-09-22T08:09:25Z</time>
      </trkpt>
      <trkpt lat="49.12967" lon="0.1995">
        <ele>69.2</ele>
        <time>2024-09-22T08:09:26Z</time>
      </trkpt>
      <trkpt lat="49.12963" lon="0.19941">
        <ele>69.2</ele>
        <time>2024-09-22T08:09:27Z</time>
      </trkpt>
      <trkpt lat="49.12958" lon="0.19933">
        <ele>69.2</ele>
        <time>2024-09-22T08:09:28Z</time>
      </trkpt>
      <trkpt lat="49.12953" lon="0.19924">
        <ele>69.2</ele>
        <time>2024-09-22T08:09:29Z</time>
      </trkpt>
      <trkpt lat="49.12948" lon="0.19916">
        <ele>69.2</ele>
        <time>2024-09-22T08:09:30Z</time>
      </trkpt>
      <trkpt lat="49.12944" lon="0.19908">
        <ele>69.2</ele>
        <time>2024-09-22T08:09:31Z</time>
      </trkpt>
      <trkpt lat="49.12939" lon="0.199">
        <ele>69.2</ele>
        <time>2024-09-22T08:09:32Z</time>
      </trkpt>
      <trkpt lat="49.12935" lon="0.19892">
        <ele>69.2</ele>
        <time>2024-09-22T08:09:33Z</time>
      </trkpt>
      <trkpt lat="49.1293" lon="0.19884">
        <ele>69.2</ele>
        <time>2024-09-22T08:09:34Z</time>
      </trkpt>
      <trkpt lat="49.12926" lon="0.19875">
        <ele>69.2</ele>
        <time>2024-09-22T08:09:35Z</time>
      </trkpt>
      <trkpt lat="49.12922" lon="0.19866">
        <ele>69.2</ele>
        <time>2024-09-22T08:09:36Z</time>
      </trkpt>
      <trkpt lat="49.12918" lon="0.19857">
        <ele>69.4</ele>
        <time>2024-09-22T08:09:37Z</time>
      </trkpt>
      <trkpt lat="49.12914" lon="0.19848">
        <ele>69.4</ele>
        <time>2024-09-22T08:09:38Z</time>
      </trkpt>
      <trkpt lat="49.12909" lon="0.19839">
        <ele>69.4</ele>
        <time>2024-09-22T08:09:39Z</time>
      </trkpt>
      <trkpt lat="49.12905" lon="0.19831">
        <ele>69.4</ele>
        <time>2024-09-22T08:09:40Z</time>
      </trkpt>
      <trkpt lat="49.129" lon="0.19822">
        <ele>69.4</ele>
        <time>2024-09-22T08:09:41Z</time>
      </trkpt>
      <trkpt lat="49.12896" lon="0.19814">
        <ele>69.4</ele>
        <time>2024-09-22T08:09:42Z</time>
      </trkpt>
      <trkpt lat="49.12891" lon="0.19805">
        <ele>69.4</ele>
        <time>2024-09-22T08:09:43Z</time>
      </trkpt>
      <trkpt lat="49.12887" lon="0.19797">
        <ele>69.6</ele>
        <time>2024-09-22T08:09:44Z</time>
      </trkpt>
      <trkpt lat="49.12883" lon="0.19788">
        <ele>69.6</ele>
        <time>2024-09-22T08:09:45Z</time>
      </trkpt>
      <trkpt lat="49.12879" lon="0.1978">
        <ele>70</ele>
        <time>2024-09-22T08:09:46Z</time>
      </trkpt>
      <trkpt lat="49.12874" lon="0.19771">
        <ele>70</ele>
        <time>2024-09-22T08:09:47Z</time>
      </trkpt>
      <trkpt lat="49.1287" lon="0.19763">
        <ele>70.2</ele>
        <time>2024-09-22T08:09:48Z</time>
      </trkpt>
      <trkpt lat="49.12866" lon="0.19754">
        <ele>70.2</ele>
        <time>2024-09-22T08:09:49Z</time>
      </trkpt>
      <trkpt lat="49.12862" lon="0.19746">
        <ele>70.6</ele>
        <time>2024-09-22T08:09:50Z</time>
      </trkpt>
      <trkpt lat="49.12858" lon="0.19738">
        <ele>70.6</ele>
        <time>2024-09-22T08:09:51Z</time>
      </trkpt>
      <trkpt lat="49.12854" lon="0.1973">
        <ele>70.8</ele>
        <time>2024-09-22T08:09:52Z</time>
      </trkpt>
      <trkpt lat="49.1285" lon="0.19721">
        <ele>70.8</ele>
        <time>2024-09-22T08:09:53Z</time>
      </trkpt>
      <trkpt lat="49.12846" lon="0.19713">
        <ele>71</ele>
        <time>2024-09-22T08:09:54Z</time>
      </trkpt>
      <trkpt lat="49.12842" lon="0.19705">
        <ele>71.2</ele>
        <time>2024-09-22T08:09:55Z</time>
      </trkpt>
      <trkpt lat="49.12838" lon="0.19697">
        <ele>71.4</ele>
        <time>2024-09-22T08:09:56Z</time>
      </trkpt>
      <trkpt lat="49.12834" lon="0.19689">
        <ele>71.6</ele>
        <time>2024-09-22T08:09:57Z</time>
      </trkpt>
      <trkpt lat="49.1283" lon="0.1968">
        <ele>71.6</ele>
        <time>2024-09-22T08:09:58Z</time>
      </trkpt>
      <trkpt lat="49.12827" lon="0.19674">
        <ele>71.8</ele>
        <time>2024-09-22T08:09:59Z</time>
      </trkpt>
      <trkpt lat="49.12822" lon="0.19665">
        <ele>71.8</ele>
        <time>2024-09-22T08:10:00Z</time>
      </trkpt>
      <trkpt lat="49.12818" lon="0.19657">
        <ele>72</ele>
        <time>2024-09-22T08:10:01Z</time>
      </trkpt>
      <trkpt lat="49.12813" lon="0.19647">
        <ele>72</ele>
        <time>2024-09-22T08:10:02Z</time>
      </trkpt>
      <trkpt lat="49.12809" lon="0.19639">
        <ele>72</ele>
        <time>2024-09-22T08:10:03Z</time>
      </trkpt>
      <trkpt lat="49.12805" lon="0.19631">
        <ele>72.2</ele>
        <time>2024-09-22T08:10:04Z</time>
      </trkpt>
      <trkpt lat="49.12801" lon="0.19621">
        <ele>72.4</ele>
        <time>2024-09-22T08:10:05Z</time>
      </trkpt>
      <trkpt lat="49.12797" lon="0.19615">
        <ele>72.4</ele>
        <time>2024-09-22T08:10:06Z</time>
      </trkpt>
      <trkpt lat="49.12793" lon="0.19607">
        <ele>72.6</ele>
        <time>2024-09-22T08:10:07Z</time>
      </trkpt>
      <trkpt lat="49.12789" lon="0.19597">
        <ele>72.8</ele>
        <time>2024-09-22T08:10:08Z</time>
      </trkpt>
      <trkpt lat="49.12786" lon="0.19591">
        <ele>72.8</ele>
        <time>2024-09-22T08:10:09Z</time>
      </trkpt>
      <trkpt lat="49.12781" lon="0.19583">
        <ele>73</ele>
        <time>2024-09-22T08:10:10Z</time>
      </trkpt>
      <trkpt lat="49.12778" lon="0.19575">
        <ele>73</ele>
        <time>2024-09-22T08:10:11Z</time>
      </trkpt>
      <trkpt lat="49.12774" lon="0.19567">
        <ele>73.2</ele>
        <time>2024-09-22T08:10:12Z</time>
      </trkpt>
      <trkpt lat="49.1277" lon="0.19559">
        <ele>73.2</ele>
        <time>2024-09-22T08:10:13Z</time>
      </trkpt>
      <trkpt lat="49.12766" lon="0.19551">
        <ele>73.6</ele>
        <time>2024-09-22T08:10:14Z</time>
      </trkpt>
      <trkpt lat="49.12761" lon="0.19543">
        <ele>73.8</ele>
        <time>2024-09-22T08:10:15Z</time>
      </trkpt>
      <trkpt lat="49.12757" lon="0.19535">
        <ele>74</ele>
        <time>2024-09-22T08:10:16Z</time>
      </trkpt>
      <trkpt lat="49.12753" lon="0.19526">
        <ele>74.2</ele>
        <time>2024-09-22T08:10:17Z</time>
      </trkpt>
      <trkpt lat="49.12749" lon="0.19518">
        <ele>74.4</ele>
        <time>2024-09-22T08:10:18Z</time>
      </trkpt>
      <trkpt lat="49.12745" lon="0.1951">
        <ele>74.6</ele>
        <time>2024-09-22T08:10:19Z</time>
      </trkpt>
      <trkpt lat="49.12741" lon="0.19502">
        <ele>74.8</ele>
        <time>2024-09-22T08:10:20Z</time>
      </trkpt>
      <trkpt lat="49.12737" lon="0.19495">
        <ele>75</ele>
        <time>2024-09-22T08:10:21Z</time>
      </trkpt>
      <trkpt lat="49.12733" lon="0.19486">
        <ele>75.2</ele>
        <time>2024-09-22T08:10:22Z</time>
      </trkpt>
      <trkpt lat="49.1273" lon="0.19479">
        <ele>75.4</ele>
        <time>2024-09-22T08:10:23Z</time>
      </trkpt>
      <trkpt lat="49.12725" lon="0.1947">
        <ele>75.4</ele>
        <time>2024-09-22T08:10:24Z</time>
      </trkpt>
      <trkpt lat="49.12721" lon="0.19461">
        <ele>75.6</ele>
        <time>2024-09-22T08:10:25Z</time>
      </trkpt>
      <trkpt lat="49.12717" lon="0.19453">
        <ele>75.8</ele>
        <time>2024-09-22T08:10:26Z</time>
      </trkpt>
      <trkpt lat="49.12713" lon="0.19446">
        <ele>75.8</ele>
        <time>2024-09-22T08:10:27Z</time>
      </trkpt>
      <trkpt lat="49.1271" lon="0.19438">
        <ele>76</ele>
        <time>2024-09-22T08:10:28Z</time>
      </trkpt>
      <trkpt lat="49.12705" lon="0.19428">
        <ele>76</ele>
        <time>2024-09-22T08:10:29Z</time>
      </trkpt>
      <trkpt lat="49.127" lon="0.19419">
        <ele>76</ele>
        <time>2024-09-22T08:10:30Z</time>
      </trkpt>
      <trkpt lat="49.12696" lon="0.19411">
        <ele>76.2</ele>
        <time>2024-09-22T08:10:31Z</time>
      </trkpt>
      <trkpt lat="49.12692" lon="0.19402">
        <ele>76.2</ele>
        <time>2024-09-22T08:10:32Z</time>
      </trkpt>
      <trkpt lat="49.12688" lon="0.19393">
        <ele>76.4</ele>
        <time>2024-09-22T08:10:33Z</time>
      </trkpt>
      <trkpt lat="49.12683" lon="0.19384">
        <ele>76.4</ele>
        <time>2024-09-22T08:10:34Z</time>
      </trkpt>
      <trkpt lat="49.12679" lon="0.19375">
        <ele>76.4</ele>
        <time>2024-09-22T08:10:35Z</time>
      </trkpt>
      <trkpt lat="49.12675" lon="0.19366">
        <ele>76.4</ele>
        <time>2024-09-22T08:10:36Z</time>
      </trkpt>
      <trkpt lat="49.12671" lon="0.19357">
        <ele>76.4</ele>
        <time>2024-09-22T08:10:37Z</time>
      </trkpt>
      <trkpt lat="49.12667" lon="0.19348">
        <ele>76.6</ele>
        <time>2024-09-22T08:10:38Z</time>
      </trkpt>
      <trkpt lat="49.12663" lon="0.19339">
        <ele>76.6</ele>
        <time>2024-09-22T08:10:39Z</time>
      </trkpt>
      <trkpt lat="49.1266" lon="0.1933">
        <ele>76.6</ele>
        <time>2024-09-22T08:10:40Z</time>
      </trkpt>
      <trkpt lat="49.12656" lon="0.19321">
        <ele>76.6</ele>
        <time>2024-09-22T08:10:41Z</time>
      </trkpt>
      <trkpt lat="49.12653" lon="0.19312">
        <ele>76.6</ele>
        <time>2024-09-22T08:10:42Z</time>
      </trkpt>
      <trkpt lat="49.12649" lon="0.19303">
        <ele>76.6</ele>
        <time>2024-09-22T08:10:43Z</time>
      </trkpt>
      <trkpt lat="49.12646" lon="0.19294">
        <ele>76.6</ele>
        <time>2024-09-22T08:10:44Z</time>
      </trkpt>
      <trkpt lat="49.12643" lon="0.19287">
        <ele>76.6</ele>
        <time>2024-09-22T08:10:45Z</time>
      </trkpt>
      <trkpt lat="49.1264" lon="0.19279">
        <ele>76.6</ele>
        <time>2024-09-22T08:10:46Z</time>
      </trkpt>
      <trkpt lat="49.12637" lon="0.19272">
        <ele>76.8</ele>
        <time>2024-09-22T08:10:47Z</time>
      </trkpt>
      <trkpt lat="49.12634" lon="0.19265">
        <ele>76.8</ele>
        <time>2024-09-22T08:10:48Z</time>
      </trkpt>
      <trkpt lat="49.12631" lon="0.19257">
        <ele>76.8</ele>
        <time>2024-09-22T08:10:49Z</time>
      </trkpt>
      <trkpt lat="49.12627" lon="0.19247">
        <ele>76.8</ele>
        <time>2024-09-22T08:10:50Z</time>
      </trkpt>
      <trkpt lat="49.12625" lon="0.19238">
        <ele>76.8</ele>
        <time>2024-09-22T08:10:51Z</time>
      </trkpt>
      <trkpt lat="49.12623" lon="0.19229">
        <ele>76.8</ele>
        <time>2024-09-22T08:10:52Z</time>
      </trkpt>
      <trkpt lat="49.12621" lon="0.1922">
        <ele>76.8</ele>
        <time>2024-09-22T08:10:53Z</time>
      </trkpt>
      <trkpt lat="49.12619" lon="0.19212">
        <ele>76.8</ele>
        <time>2024-09-22T08:10:54Z</time>
      </trkpt>
      <trkpt lat="49.12616" lon="0.19203">
        <ele>76.8</ele>
        <time>2024-09-22T08:10:55Z</time>
      </trkpt>
      <trkpt lat="49.12614" lon="0.19195">
        <ele>77</ele>
        <time>2024-09-22T08:10:56Z</time>
      </trkpt>
      <trkpt lat="49.12613" lon="0.19187">
        <ele>77.4</ele>
        <time>2024-09-22T08:10:57Z</time>
      </trkpt>
      <trkpt lat="49.12611" lon="0.19179">
        <ele>77.6</ele>
        <time>2024-09-22T08:10:58Z</time>
      </trkpt>
      <trkpt lat="49.12609" lon="0.19171">
        <ele>77.8</ele>
        <time>2024-09-22T08:10:59Z</time>
      </trkpt>
      <trkpt lat="49.12608" lon="0.19163">
        <ele>78</ele>
        <time>2024-09-22T08:11:00Z</time>
      </trkpt>
      <trkpt lat="49.12606" lon="0.19156">
        <ele>78.2</ele>
        <time>2024-09-22T08:11:01Z</time>
      </trkpt>
      <trkpt lat="49.12606" lon="0.19149">
        <ele>78.6</ele>
        <time>2024-09-22T08:11:02Z</time>
      </trkpt>
      <trkpt lat="49.12606" lon="0.19142">
        <ele>78.8</ele>
        <time>2024-09-22T08:11:03Z</time>
      </trkpt>
      <trkpt lat="49.12607" lon="0.19136">
        <ele>79.2</ele>
        <time>2024-09-22T08:11:04Z</time>
      </trkpt>
      <trkpt lat="49.12608" lon="0.19129">
        <ele>79.6</ele>
        <time>2024-09-22T08:11:05Z</time>
      </trkpt>
      <trkpt lat="49.1261" lon="0.19123">
        <ele>79.8</ele>
        <time>2024-09-22T08:11:06Z</time>
      </trkpt>
      <trkpt lat="49.12612" lon="0.19116">
        <ele>80.2</ele>
        <time>2024-09-22T08:11:07Z</time>
      </trkpt>
      <trkpt lat="49.12614" lon="0.19108">
        <ele>80.4</ele>
        <time>2024-09-22T08:11:08Z</time>
      </trkpt>
      <trkpt lat="49.12616" lon="0.191">
        <ele>81</ele>
        <time>2024-09-22T08:11:09Z</time>
      </trkpt>
      <trkpt lat="49.12616" lon="0.19093">
        <ele>81</ele>
        <time>2024-09-22T08:11:10Z</time>
      </trkpt>
      <trkpt lat="49.12615" lon="0.19084">
        <ele>81.4</ele>
        <time>2024-09-22T08:11:11Z</time>
      </trkpt>
      <trkpt lat="49.12614" lon="0.19076">
        <ele>81.6</ele>
        <time>2024-09-22T08:11:12Z</time>
      </trkpt>
      <trkpt lat="49.12611" lon="0.1907">
        <ele>82</ele>
        <time>2024-09-22T08:11:13Z</time>
      </trkpt>
      <trkpt lat="49.12607" lon="0.19064">
        <ele>82.2</ele>
        <time>2024-09-22T08:11:14Z</time>
      </trkpt>
      <trkpt lat="49.12603" lon="0.19059">
        <ele>82.6</ele>
        <time>2024-09-22T08:11:15Z</time>
      </trkpt>
      <trkpt lat="49.12598" lon="0.19055">
        <ele>82.8</ele>
        <time>2024-09-22T08:11:16Z</time>
      </trkpt>
      <trkpt lat="49.12593" lon="0.19051">
        <ele>82.8</ele>
        <time>2024-09-22T08:11:17Z</time>
      </trkpt>
      <trkpt lat="49.12588" lon="0.19045">
        <ele>83.2</ele>
        <time>2024-09-22T08:11:18Z</time>
      </trkpt>
      <trkpt lat="49.12584" lon="0.19039">
        <ele>83.4</ele>
        <time>2024-09-22T08:11:19Z</time>
      </trkpt>
      <trkpt lat="49.12581" lon="0.19032">
        <ele>83.6</ele>
        <time>2024-09-22T08:11:20Z</time>
      </trkpt>
      <trkpt lat="49.12579" lon="0.19026">
        <ele>83.8</ele>
        <time>2024-09-22T08:11:21Z</time>
      </trkpt>
      <trkpt lat="49.12576" lon="0.19016">
        <ele>84</ele>
        <time>2024-09-22T08:11:22Z</time>
      </trkpt>
      <trkpt lat="49.12574" lon="0.19009">
        <ele>84</ele>
        <time>2024-09-22T08:11:23Z</time>
      </trkpt>
      <trkpt lat="49.12572" lon="0.19001">
        <ele>84.2</ele>
        <time>2024-09-22T08:11:24Z</time>
      </trkpt>
      <trkpt lat="49.1257" lon="0.18994">
        <ele>84.2</ele>
        <time>2024-09-22T08:11:25Z</time>
      </trkpt>
      <trkpt lat="49.12568" lon="0.18986">
        <ele>84.4</ele>
        <time>2024-09-22T08:11:26Z</time>
      </trkpt>
      <trkpt lat="49.12566" lon="0.18978">
        <ele>84.4</ele>
        <time>2024-09-22T08:11:27Z</time>
      </trkpt>
      <trkpt lat="49.12563" lon="0.1897">
        <ele>84.6</ele>
        <time>2024-09-22T08:11:28Z</time>
      </trkpt>
      <trkpt lat="49.12561" lon="0.18962">
        <ele>84.8</ele>
        <time>2024-09-22T08:11:29Z</time>
      </trkpt>
      <trkpt lat="49.12559" lon="0.18955">
        <ele>84.8</ele>
        <time>2024-09-22T08:11:30Z</time>
      </trkpt>
      <trkpt lat="49.12557" lon="0.18947">
        <ele>85.2</ele>
        <time>2024-09-22T08:11:31Z</time>
      </trkpt>
      <trkpt lat="49.12554" lon="0.1894">
        <ele>85.4</ele>
        <time>2024-09-22T08:11:32Z</time>
      </trkpt>
      <trkpt lat="49.12552" lon="0.18932">
        <ele>85.8</ele>
        <time>2024-09-22T08:11:33Z</time>
      </trkpt>
      <trkpt lat="49.12549" lon="0.18924">
        <ele>86</ele>
        <time>2024-09-22T08:11:34Z</time>
      </trkpt>
      <trkpt lat="49.12545" lon="0.18916">
        <ele>86.4</ele>
        <time>2024-09-22T08:11:35Z</time>
      </trkpt>
      <trkpt lat="49.12543" lon="0.1891">
        <ele>86.8</ele>
        <time>2024-09-22T08:11:36Z</time>
      </trkpt>
      <trkpt lat="49.12539" lon="0.18901">
        <ele>87</ele>
        <time>2024-09-22T08:11:37Z</time>
      </trkpt>
      <trkpt lat="49.12535" lon="0.18893">
        <ele>87.2</ele>
        <time>2024-09-22T08:11:38Z</time>
      </trkpt>
      <trkpt lat="49.12532" lon="0.18885">
        <ele>87.6</ele>
        <time>2024-09-22T08:11:39Z</time>
      </trkpt>
      <trkpt lat="49.12529" lon="0.18877">
        <ele>87.8</ele>
        <time>2024-09-22T08:11:40Z</time>
      </trkpt>
      <trkpt lat="49.12526" lon="0.1887">
        <ele>88</ele>
        <time>2024-09-22T08:11:41Z</time>
      </trkpt>
      <trkpt lat="49.12522" lon="0.18861">
        <ele>88</ele>
        <time>2024-09-22T08:11:42Z</time>
      </trkpt>
      <trkpt lat="49.12519" lon="0.18854">
        <ele>88.4</ele>
        <time>2024-09-22T08:11:43Z</time>
      </trkpt>
      <trkpt lat="49.12516" lon="0.18846">
        <ele>88.6</ele>
        <time>2024-09-22T08:11:44Z</time>
      </trkpt>
      <trkpt lat="49.12511" lon="0.18836">
        <ele>88.6</ele>
        <time>2024-09-22T08:11:45Z</time>
      </trkpt>
      <trkpt lat="49.12508" lon="0.18828">
        <ele>88.8</ele>
        <time>2024-09-22T08:11:46Z</time>
      </trkpt>
      <trkpt lat="49.12505" lon="0.18821">
        <ele>88.8</ele>
        <time>2024-09-22T08:11:47Z</time>
      </trkpt>
      <trkpt lat="49.12501" lon="0.18811">
        <ele>89</ele>
        <time>2024-09-22T08:11:48Z</time>
      </trkpt>
      <trkpt lat="49.12498" lon="0.18803">
        <ele>89.4</ele>
        <time>2024-09-22T08:11:49Z</time>
      </trkpt>
      <trkpt lat="49.12494" lon="0.18794">
        <ele>89.4</ele>
        <time>2024-09-22T08:11:50Z</time>
      </trkpt>
      <trkpt lat="49.12491" lon="0.18785">
        <ele>89.4</ele>
        <time>2024-09-22T08:11:51Z</time>
      </trkpt>
      <trkpt lat="49.12487" lon="0.18777">
        <ele>89.6</ele>
        <time>2024-09-22T08:11:52Z</time>
      </trkpt>
      <trkpt lat="49.12483" lon="0.18768">
        <ele>89.6</ele>
        <time>2024-09-22T08:11:53Z</time>
      </trkpt>
      <trkpt lat="49.1248" lon="0.1876">
        <ele>89.8</ele>
        <time>2024-09-22T08:11:54Z</time>
      </trkpt>
      <trkpt lat="49.12476" lon="0.18751">
        <ele>89.8</ele>
        <time>2024-09-22T08:11:55Z</time>
      </trkpt>
      <trkpt lat="49.12473" lon="0.18743">
        <ele>89.8</ele>
        <time>2024-09-22T08:11:56Z</time>
      </trkpt>
      <trkpt lat="49.1247" lon="0.18734">
        <ele>89.8</ele>
        <time>2024-09-22T08:11:57Z</time>
      </trkpt>
      <trkpt lat="49.12466" lon="0.18725">
        <ele>90</ele>
        <time>2024-09-22T08:11:58Z</time>
      </trkpt>
      <trkpt lat="49.12463" lon="0.18715">
        <ele>90</ele>
        <time>2024-09-22T08:11:59Z</time>
      </trkpt>
      <trkpt lat="49.12459" lon="0.18706">
        <ele>90</ele>
        <time>2024-09-22T08:12:00Z</time>
      </trkpt>
      <trkpt lat="49.12456" lon="0.18697">
        <ele>90</ele>
        <time>2024-09-22T08:12:01Z</time>
      </trkpt>
      <trkpt lat="49.12453" lon="0.18687">
        <ele>90</ele>
        <time>2024-09-22T08:12:02Z</time>
      </trkpt>
      <trkpt lat="49.12449" lon="0.18678">
        <ele>90</ele>
        <time>2024-09-22T08:12:03Z</time>
      </trkpt>
      <trkpt lat="49.12446" lon="0.18668">
        <ele>90.2</ele>
        <time>2024-09-22T08:12:04Z</time>
      </trkpt>
      <trkpt lat="49.12443" lon="0.18659">
        <ele>90.2</ele>
        <time>2024-09-22T08:12:05Z</time>
      </trkpt>
      <trkpt lat="49.1244" lon="0.18649">
        <ele>90.2</ele>
        <time>2024-09-22T08:12:06Z</time>
      </trkpt>
      <trkpt lat="49.12438" lon="0.18639">
        <ele>90.6</ele>
        <time>2024-09-22T08:12:07Z</time>
      </trkpt>
      <trkpt lat="49.12435" lon="0.18629">
        <ele>90.8</ele>
        <time>2024-09-22T08:12:08Z</time>
      </trkpt>
      <trkpt lat="49.12432" lon="0.18619">
        <ele>91</ele>
        <time>2024-09-22T08:12:09Z</time>
      </trkpt>
      <trkpt lat="49.12429" lon="0.18609">
        <ele>91</ele>
        <time>2024-09-22T08:12:10Z</time>
      </trkpt>
      <trkpt lat="49.12427" lon="0.18599">
        <ele>91</ele>
        <time>2024-09-22T08:12:11Z</time>
      </trkpt>
      <trkpt lat="49.12424" lon="0.18589">
        <ele>91.2</ele>
        <time>2024-09-22T08:12:12Z</time>
      </trkpt>
      <trkpt lat="49.12422" lon="0.18578">
        <ele>91.2</ele>
        <time>2024-09-22T08:12:13Z</time>
      </trkpt>
      <trkpt lat="49.1242" lon="0.18568">
        <ele>91.2</ele>
        <time>2024-09-22T08:12:14Z</time>
      </trkpt>
      <trkpt lat="49.12418" lon="0.18559">
        <ele>91.4</ele>
        <time>2024-09-22T08:12:15Z</time>
      </trkpt>
      <trkpt lat="49.12416" lon="0.1855">
        <ele>91.4</ele>
        <time>2024-09-22T08:12:16Z</time>
      </trkpt>
      <trkpt lat="49.12413" lon="0.1854">
        <ele>91.6</ele>
        <time>2024-09-22T08:12:17Z</time>
      </trkpt>
      <trkpt lat="49.1241" lon="0.1853">
        <ele>91.6</ele>
        <time>2024-09-22T08:12:18Z</time>
      </trkpt>
      <trkpt lat="49.12407" lon="0.1852">
        <ele>91.6</ele>
        <time>2024-09-22T08:12:19Z</time>
      </trkpt>
      <trkpt lat="49.12405" lon="0.18512">
        <ele>91.8</ele>
        <time>2024-09-22T08:12:20Z</time>
      </trkpt>
      <trkpt lat="49.12402" lon="0.185">
        <ele>91.8</ele>
        <time>2024-09-22T08:12:21Z</time>
      </trkpt>
      <trkpt lat="49.124" lon="0.1849">
        <ele>91.8</ele>
        <time>2024-09-22T08:12:22Z</time>
      </trkpt>
      <trkpt lat="49.12397" lon="0.1848">
        <ele>91.8</ele>
        <time>2024-09-22T08:12:23Z</time>
      </trkpt>
      <trkpt lat="49.12395" lon="0.18469">
        <ele>92</ele>
        <time>2024-09-22T08:12:24Z</time>
      </trkpt>
      <trkpt lat="49.12392" lon="0.18459">
        <ele>92</ele>
        <time>2024-09-22T08:12:25Z</time>
      </trkpt>
      <trkpt lat="49.1239" lon="0.18448">
        <ele>92</ele>
        <time>2024-09-22T08:12:26Z</time>
      </trkpt>
      <trkpt lat="49.12387" lon="0.18438">
        <ele>92.2</ele>
        <time>2024-09-22T08:12:27Z</time>
      </trkpt>
      <trkpt lat="49.12384" lon="0.18427">
        <ele>92.2</ele>
        <time>2024-09-22T08:12:28Z</time>
      </trkpt>
      <trkpt lat="49.12381" lon="0.18416">
        <ele>92.4</ele>
        <time>2024-09-22T08:12:29Z</time>
      </trkpt>
      <trkpt lat="49.12378" lon="0.18405">
        <ele>92.4</ele>
        <time>2024-09-22T08:12:30Z</time>
      </trkpt>
      <trkpt lat="49.12375" lon="0.18395">
        <ele>92.4</ele>
        <time>2024-09-22T08:12:31Z</time>
      </trkpt>
      <trkpt lat="49.12372" lon="0.18384">
        <ele>92.4</ele>
        <time>2024-09-22T08:12:32Z</time>
      </trkpt>
      <trkpt lat="49.12369" lon="0.18373">
        <ele>92.6</ele>
        <time>2024-09-22T08:12:33Z</time>
      </trkpt>
      <trkpt lat="49.12366" lon="0.18362">
        <ele>92.6</ele>
        <time>2024-09-22T08:12:34Z</time>
      </trkpt>
      <trkpt lat="49.12363" lon="0.18351">
        <ele>92.6</ele>
        <time>2024-09-22T08:12:35Z</time>
      </trkpt>
      <trkpt lat="49.12361" lon="0.18341">
        <ele>92.8</ele>
        <time>2024-09-22T08:12:36Z</time>
      </trkpt>
      <trkpt lat="49.12358" lon="0.1833">
        <ele>92.8</ele>
        <time>2024-09-22T08:12:37Z</time>
      </trkpt>
      <trkpt lat="49.12355" lon="0.18319">
        <ele>92.8</ele>
        <time>2024-09-22T08:12:38Z</time>
      </trkpt>
      <trkpt lat="49.12352" lon="0.18308">
        <ele>92.8</ele>
        <time>2024-09-22T08:12:39Z</time>
      </trkpt>
      <trkpt lat="49.1235" lon="0.18297">
        <ele>92.8</ele>
        <time>2024-09-22T08:12:40Z</time>
      </trkpt>
      <trkpt lat="49.12346" lon="0.18286">
        <ele>92.8</ele>
        <time>2024-09-22T08:12:41Z</time>
      </trkpt>
      <trkpt lat="49.12343" lon="0.18275">
        <ele>92.8</ele>
        <time>2024-09-22T08:12:42Z</time>
      </trkpt>
      <trkpt lat="49.1234" lon="0.18263">
        <ele>92.8</ele>
        <time>2024-09-22T08:12:43Z</time>
      </trkpt>
      <trkpt lat="49.12337" lon="0.18252">
        <ele>92.8</ele>
        <time>2024-09-22T08:12:44Z</time>
      </trkpt>
      <trkpt lat="49.12334" lon="0.18241">
        <ele>92.8</ele>
        <time>2024-09-22T08:12:45Z</time>
      </trkpt>
      <trkpt lat="49.12332" lon="0.1823">
        <ele>92.8</ele>
        <time>2024-09-22T08:12:46Z</time>
      </trkpt>
      <trkpt lat="49.12329" lon="0.18219">
        <ele>92.8</ele>
        <time>2024-09-22T08:12:47Z</time>
      </trkpt>
      <trkpt lat="49.12326" lon="0.18208">
        <ele>92.8</ele>
        <time>2024-09-22T08:12:48Z</time>
      </trkpt>
      <trkpt lat="49.12323" lon="0.18198">
        <ele>92.8</ele>
        <time>2024-09-22T08:12:49Z</time>
      </trkpt>
      <trkpt lat="49.12321" lon="0.18187">
        <ele>92.8</ele>
        <time>2024-09-22T08:12:50Z</time>
      </trkpt>
      <trkpt lat="49.12318" lon="0.18176">
        <ele>92.8</ele>
        <time>2024-09-22T08:12:51Z</time>
      </trkpt>
      <trkpt lat="49.12316" lon="0.18165">
        <ele>92.8</ele>
        <time>2024-09-22T08:12:52Z</time>
      </trkpt>
      <trkpt lat="49.12313" lon="0.18154">
        <ele>92.8</ele>
        <time>2024-09-22T08:12:53Z</time>
      </trkpt>
      <trkpt lat="49.1231" lon="0.18143">
        <ele>92.8</ele>
        <time>2024-09-22T08:12:54Z</time>
      </trkpt>
      <trkpt lat="49.12307" lon="0.18132">
        <ele>92.8</ele>
        <time>2024-09-22T08:12:55Z</time>
      </trkpt>
      <trkpt lat="49.12304" lon="0.18121">
        <ele>92.6</ele>
        <time>2024-09-22T08:12:56Z</time>
      </trkpt>
      <trkpt lat="49.12301" lon="0.18111">
        <ele>92.6</ele>
        <time>2024-09-22T08:12:57Z</time>
      </trkpt>
      <trkpt lat="49.12298" lon="0.181">
        <ele>92.6</ele>
        <time>2024-09-22T08:12:58Z</time>
      </trkpt>
      <trkpt lat="49.12295" lon="0.18089">
        <ele>92.6</ele>
        <time>2024-09-22T08:12:59Z</time>
      </trkpt>
      <trkpt lat="49.12292" lon="0.18078">
        <ele>92.6</ele>
        <time>2024-09-22T08:13:00Z</time>
      </trkpt>
      <trkpt lat="49.12289" lon="0.18067">
        <ele>92.6</ele>
        <time>2024-09-22T08:13:01Z</time>
      </trkpt>
      <trkpt lat="49.12287" lon="0.18056">
        <ele>92.6</ele>
        <time>2024-09-22T08:13:02Z</time>
      </trkpt>
      <trkpt lat="49.12284" lon="0.18044">
        <ele>92.6</ele>
        <time>2024-09-22T08:13:03Z</time>
      </trkpt>
      <trkpt lat="49.12281" lon="0.18032">
        <ele>92.6</ele>
        <time>2024-09-22T08:13:04Z</time>
      </trkpt>
      <trkpt lat="49.12278" lon="0.1802">
        <ele>92.6</ele>
        <time>2024-09-22T08:13:05Z</time>
      </trkpt>
      <trkpt lat="49.12275" lon="0.18008">
        <ele>92.4</ele>
        <time>2024-09-22T08:13:06Z</time>
      </trkpt>
      <trkpt lat="49.12272" lon="0.17996">
        <ele>92.4</ele>
        <time>2024-09-22T08:13:07Z</time>
      </trkpt>
      <trkpt lat="49.12268" lon="0.17984">
        <ele>92.4</ele>
        <time>2024-09-22T08:13:08Z</time>
      </trkpt>
      <trkpt lat="49.12265" lon="0.17972">
        <ele>92.2</ele>
        <time>2024-09-22T08:13:09Z</time>
      </trkpt>
      <trkpt lat="49.12261" lon="0.17959">
        <ele>92.2</ele>
        <time>2024-09-22T08:13:10Z</time>
      </trkpt>
      <trkpt lat="49.12258" lon="0.17947">
        <ele>92.2</ele>
        <time>2024-09-22T08:13:11Z</time>
      </trkpt>
      <trkpt lat="49.12254" lon="0.17934">
        <ele>92.2</ele>
        <time>2024-09-22T08:13:12Z</time>
      </trkpt>
      <trkpt lat="49.12251" lon="0.17922">
        <ele>92</ele>
        <time>2024-09-22T08:13:13Z</time>
      </trkpt>
      <trkpt lat="49.12247" lon="0.17909">
        <ele>91.8</ele>
        <time>2024-09-22T08:13:14Z</time>
      </trkpt>
      <trkpt lat="49.12243" lon="0.17897">
        <ele>91.6</ele>
        <time>2024-09-22T08:13:15Z</time>
      </trkpt>
      <trkpt lat="49.1224" lon="0.17884">
        <ele>91.4</ele>
        <time>2024-09-22T08:13:16Z</time>
      </trkpt>
      <trkpt lat="49.12236" lon="0.17872">
        <ele>91</ele>
        <time>2024-09-22T08:13:17Z</time>
      </trkpt>
      <trkpt lat="49.12233" lon="0.17859">
        <ele>90.6</ele>
        <time>2024-09-22T08:13:18Z</time>
      </trkpt>
      <trkpt lat="49.12229" lon="0.17848">
        <ele>90.2</ele>
        <time>2024-09-22T08:13:19Z</time>
      </trkpt>
      <trkpt lat="49.12226" lon="0.17836">
        <ele>90</ele>
        <time>2024-09-22T08:13:20Z</time>
      </trkpt>
      <trkpt lat="49.12223" lon="0.17824">
        <ele>89.8</ele>
        <time>2024-09-22T08:13:21Z</time>
      </trkpt>
      <trkpt lat="49.12219" lon="0.17813">
        <ele>89.6</ele>
        <time>2024-09-22T08:13:22Z</time>
      </trkpt>
      <trkpt lat="49.12216" lon="0.17802">
        <ele>89.4</ele>
        <time>2024-09-22T08:13:23Z</time>
      </trkpt>
      <trkpt lat="49.12213" lon="0.1779">
        <ele>89.2</ele>
        <time>2024-09-22T08:13:24Z</time>
      </trkpt>
      <trkpt lat="49.1221" lon="0.17779">
        <ele>89</ele>
        <time>2024-09-22T08:13:25Z</time>
      </trkpt>
      <trkpt lat="49.12206" lon="0.17767">
        <ele>89</ele>
        <time>2024-09-22T08:13:26Z</time>
      </trkpt>
      <trkpt lat="49.12203" lon="0.17756">
        <ele>89</ele>
        <time>2024-09-22T08:13:27Z</time>
      </trkpt>
      <trkpt lat="49.122" lon="0.17745">
        <ele>89</ele>
        <time>2024-09-22T08:13:28Z</time>
      </trkpt>
      <trkpt lat="49.12197" lon="0.17734">
        <ele>89</ele>
        <time>2024-09-22T08:13:29Z</time>
      </trkpt>
      <trkpt lat="49.12193" lon="0.17722">
        <ele>89</ele>
        <time>2024-09-22T08:13:30Z</time>
      </trkpt>
      <trkpt lat="49.1219" lon="0.17711">
        <ele>89</ele>
        <time>2024-09-22T08:13:31Z</time>
      </trkpt>
      <trkpt lat="49.12187" lon="0.177">
        <ele>89</ele>
        <time>2024-09-22T08:13:32Z</time>
      </trkpt>
      <trkpt lat="49.12184" lon="0.17689">
        <ele>89</ele>
        <time>2024-09-22T08:13:33Z</time>
      </trkpt>
      <trkpt lat="49.12181" lon="0.17679">
        <ele>89</ele>
        <time>2024-09-22T08:13:34Z</time>
      </trkpt>
      <trkpt lat="49.12178" lon="0.17668">
        <ele>89</ele>
        <time>2024-09-22T08:13:35Z</time>
      </trkpt>
      <trkpt lat="49.12175" lon="0.17657">
        <ele>89</ele>
        <time>2024-09-22T08:13:36Z</time>
      </trkpt>
      <trkpt lat="49.12172" lon="0.17647">
        <ele>89</ele>
        <time>2024-09-22T08:13:37Z</time>
      </trkpt>
      <trkpt lat="49.12169" lon="0.17636">
        <ele>89.2</ele>
        <time>2024-09-22T08:13:38Z</time>
      </trkpt>
      <trkpt lat="49.12166" lon="0.17625">
        <ele>89.2</ele>
        <time>2024-09-22T08:13:39Z</time>
      </trkpt>
      <trkpt lat="49.12163" lon="0.17615">
        <ele>89.2</ele>
        <time>2024-09-22T08:13:40Z</time>
      </trkpt>
      <trkpt lat="49.1216" lon="0.17604">
        <ele>89.2</ele>
        <time>2024-09-22T08:13:41Z</time>
      </trkpt>
      <trkpt lat="49.12157" lon="0.17594">
        <ele>89.4</ele>
        <time>2024-09-22T08:13:42Z</time>
      </trkpt>
      <trkpt lat="49.12154" lon="0.17584">
        <ele>89.6</ele>
        <time>2024-09-22T08:13:43Z</time>
      </trkpt>
      <trkpt lat="49.12151" lon="0.17574">
        <ele>89.6</ele>
        <time>2024-09-22T08:13:44Z</time>
      </trkpt>
      <trkpt lat="49.12148" lon="0.17564">
        <ele>89.6</ele>
        <time>2024-09-22T08:13:45Z</time>
      </trkpt>
      <trkpt lat="49.12145" lon="0.17554">
        <ele>89.6</ele>
        <time>2024-09-22T08:13:46Z</time>
      </trkpt>
      <trkpt lat="49.12142" lon="0.17544">
        <ele>89.8</ele>
        <time>2024-09-22T08:13:47Z</time>
      </trkpt>
      <trkpt lat="49.1214" lon="0.17534">
        <ele>89.8</ele>
        <time>2024-09-22T08:13:48Z</time>
      </trkpt>
      <trkpt lat="49.12137" lon="0.17524">
        <ele>90</ele>
        <time>2024-09-22T08:13:49Z</time>
      </trkpt>
      <trkpt lat="49.12134" lon="0.17514">
        <ele>90</ele>
        <time>2024-09-22T08:13:50Z</time>
      </trkpt>
      <trkpt lat="49.12131" lon="0.17503">
        <ele>90</ele>
        <time>2024-09-22T08:13:51Z</time>
      </trkpt>
      <trkpt lat="49.12128" lon="0.17493">
        <ele>90.2</ele>
        <time>2024-09-22T08:13:52Z</time>
      </trkpt>
      <trkpt lat="49.12125" lon="0.17483">
        <ele>90.2</ele>
        <time>2024-09-22T08:13:53Z</time>
      </trkpt>
      <trkpt lat="49.12122" lon="0.17472">
        <ele>90.2</ele>
        <time>2024-09-22T08:13:54Z</time>
      </trkpt>
      <trkpt lat="49.12119" lon="0.17462">
        <ele>90.2</ele>
        <time>2024-09-22T08:13:55Z</time>
      </trkpt>
      <trkpt lat="49.12116" lon="0.17452">
        <ele>90.4</ele>
        <time>2024-09-22T08:13:56Z</time>
      </trkpt>
      <trkpt lat="49.12113" lon="0.17441">
        <ele>90.4</ele>
        <time>2024-09-22T08:13:57Z</time>
      </trkpt>
      <trkpt lat="49.1211" lon="0.17431">
        <ele>90.4</ele>
        <time>2024-09-22T08:13:58Z</time>
      </trkpt>
      <trkpt lat="49.12107" lon="0.17421">
        <ele>90.6</ele>
        <time>2024-09-22T08:13:59Z</time>
      </trkpt>
      <trkpt lat="49.12104" lon="0.1741">
        <ele>90.6</ele>
        <time>2024-09-22T08:14:00Z</time>
      </trkpt>
      <trkpt lat="49.12101" lon="0.174">
        <ele>90.6</ele>
        <time>2024-09-22T08:14:01Z</time>
      </trkpt>
      <trkpt lat="49.12098" lon="0.17389">
        <ele>90.8</ele>
        <time>2024-09-22T08:14:02Z</time>
      </trkpt>
      <trkpt lat="49.12095" lon="0.17379">
        <ele>91</ele>
        <time>2024-09-22T08:14:03Z</time>
      </trkpt>
      <trkpt lat="49.12093" lon="0.17369">
        <ele>91.2</ele>
        <time>2024-09-22T08:14:04Z</time>
      </trkpt>
      <trkpt lat="49.1209" lon="0.17359">
        <ele>91.4</ele>
        <time>2024-09-22T08:14:05Z</time>
      </trkpt>
      <trkpt lat="49.12087" lon="0.17348">
        <ele>91.6</ele>
        <time>2024-09-22T08:14:06Z</time>
      </trkpt>
      <trkpt lat="49.12084" lon="0.17339">
        <ele>91.6</ele>
        <time>2024-09-22T08:14:07Z</time>
      </trkpt>
      <trkpt lat="49.12081" lon="0.17329">
        <ele>91.8</ele>
        <time>2024-09-22T08:14:08Z</time>
      </trkpt>
      <trkpt lat="49.12079" lon="0.17319">
        <ele>91.8</ele>
        <time>2024-09-22T08:14:09Z</time>
      </trkpt>
      <trkpt lat="49.12076" lon="0.1731">
        <ele>91.8</ele>
        <time>2024-09-22T08:14:10Z</time>
      </trkpt>
      <trkpt lat="49.12074" lon="0.173">
        <ele>91.8</ele>
        <time>2024-09-22T08:14:11Z</time>
      </trkpt>
      <trkpt lat="49.12071" lon="0.1729">
        <ele>91.8</ele>
        <time>2024-09-22T08:14:12Z</time>
      </trkpt>
      <trkpt lat="49.12068" lon="0.17281">
        <ele>92</ele>
        <time>2024-09-22T08:14:13Z</time>
      </trkpt>
      <trkpt lat="49.12066" lon="0.17273">
        <ele>92</ele>
        <time>2024-09-22T08:14:14Z</time>
      </trkpt>
      <trkpt lat="49.12063" lon="0.17262">
        <ele>92.2</ele>
        <time>2024-09-22T08:14:15Z</time>
      </trkpt>
      <trkpt lat="49.1206" lon="0.17253">
        <ele>92.4</ele>
        <time>2024-09-22T08:14:16Z</time>
      </trkpt>
      <trkpt lat="49.12058" lon="0.17244">
        <ele>92.4</ele>
        <time>2024-09-22T08:14:17Z</time>
      </trkpt>
      <trkpt lat="49.12055" lon="0.17235">
        <ele>92.6</ele>
        <time>2024-09-22T08:14:18Z</time>
      </trkpt>
      <trkpt lat="49.12051" lon="0.17227">
        <ele>92.6</ele>
        <time>2024-09-22T08:14:19Z</time>
      </trkpt>
      <trkpt lat="49.12047" lon="0.17219">
        <ele>92.8</ele>
        <time>2024-09-22T08:14:20Z</time>
      </trkpt>
      <trkpt lat="49.12043" lon="0.17212">
        <ele>93</ele>
        <time>2024-09-22T08:14:21Z</time>
      </trkpt>
      <trkpt lat="49.12038" lon="0.17205">
        <ele>93.2</ele>
        <time>2024-09-22T08:14:22Z</time>
      </trkpt>
      <trkpt lat="49.12034" lon="0.17199">
        <ele>93.4</ele>
        <time>2024-09-22T08:14:23Z</time>
      </trkpt>
      <trkpt lat="49.12029" lon="0.17193">
        <ele>93.6</ele>
        <time>2024-09-22T08:14:24Z</time>
      </trkpt>
      <trkpt lat="49.12025" lon="0.17187">
        <ele>93.8</ele>
        <time>2024-09-22T08:14:25Z</time>
      </trkpt>
      <trkpt lat="49.1202" lon="0.17181">
        <ele>93.8</ele>
        <time>2024-09-22T08:14:26Z</time>
      </trkpt>
      <trkpt lat="49.12016" lon="0.17174">
        <ele>94.2</ele>
        <time>2024-09-22T08:14:27Z</time>
      </trkpt>
      <trkpt lat="49.12012" lon="0.17167">
        <ele>94.4</ele>
        <time>2024-09-22T08:14:28Z</time>
      </trkpt>
      <trkpt lat="49.12009" lon="0.17159">
        <ele>94.8</ele>
        <time>2024-09-22T08:14:29Z</time>
      </trkpt>
      <trkpt lat="49.12007" lon="0.1715">
        <ele>94.8</ele>
        <time>2024-09-22T08:14:30Z</time>
      </trkpt>
      <trkpt lat="49.12006" lon="0.17142">
        <ele>95</ele>
        <time>2024-09-22T08:14:31Z</time>
      </trkpt>
      <trkpt lat="49.12004" lon="0.17133">
        <ele>95.2</ele>
        <time>2024-09-22T08:14:32Z</time>
      </trkpt>
      <trkpt lat="49.12004" lon="0.17125">
        <ele>95.2</ele>
        <time>2024-09-22T08:14:33Z</time>
      </trkpt>
      <trkpt lat="49.12003" lon="0.17116">
        <ele>95.4</ele>
        <time>2024-09-22T08:14:34Z</time>
      </trkpt>
      <trkpt lat="49.12002" lon="0.17108">
        <ele>95.6</ele>
        <time>2024-09-22T08:14:35Z</time>
      </trkpt>
      <trkpt lat="49.12001" lon="0.17101">
        <ele>95.8</ele>
        <time>2024-09-22T08:14:36Z</time>
      </trkpt>
      <trkpt lat="49.12" lon="0.17091">
        <ele>96.2</ele>
        <time>2024-09-22T08:14:37Z</time>
      </trkpt>
      <trkpt lat="49.12" lon="0.17083">
        <ele>96.4</ele>
        <time>2024-09-22T08:14:38Z</time>
      </trkpt>
      <trkpt lat="49.11999" lon="0.17075">
        <ele>96.8</ele>
        <time>2024-09-22T08:14:39Z</time>
      </trkpt>
      <trkpt lat="49.11998" lon="0.17066">
        <ele>97</ele>
        <time>2024-09-22T08:14:40Z</time>
      </trkpt>
      <trkpt lat="49.11997" lon="0.17058">
        <ele>97.4</ele>
        <time>2024-09-22T08:14:41Z</time>
      </trkpt>
      <trkpt lat="49.11996" lon="0.1705">
        <ele>97.6</ele>
        <time>2024-09-22T08:14:42Z</time>
      </trkpt>
      <trkpt lat="49.11996" lon="0.17042">
        <ele>97.8</ele>
        <time>2024-09-22T08:14:43Z</time>
      </trkpt>
      <trkpt lat="49.11995" lon="0.17033">
        <ele>98</ele>
        <time>2024-09-22T08:14:44Z</time>
      </trkpt>
      <trkpt lat="49.11994" lon="0.17025">
        <ele>98.2</ele>
        <time>2024-09-22T08:14:45Z</time>
      </trkpt>
      <trkpt lat="49.11994" lon="0.17017">
        <ele>98.6</ele>
        <time>2024-09-22T08:14:46Z</time>
      </trkpt>
      <trkpt lat="49.11993" lon="0.17009">
        <ele>98.8</ele>
        <time>2024-09-22T08:14:47Z</time>
      </trkpt>
      <trkpt lat="49.11992" lon="0.17001">
        <ele>99</ele>
        <time>2024-09-22T08:14:48Z</time>
      </trkpt>
      <trkpt lat="49.11991" lon="0.16993">
        <ele>99.4</ele>
        <time>2024-09-22T08:14:49Z</time>
      </trkpt>
      <trkpt lat="49.1199" lon="0.16985">
        <ele>99.4</ele>
        <time>2024-09-22T08:14:50Z</time>
      </trkpt>
      <trkpt lat="49.1199" lon="0.16977">
        <ele>99.6</ele>
        <time>2024-09-22T08:14:51Z</time>
      </trkpt>
      <trkpt lat="49.11989" lon="0.16969">
        <ele>100</ele>
        <time>2024-09-22T08:14:52Z</time>
      </trkpt>
      <trkpt lat="49.11988" lon="0.16961">
        <ele>100.2</ele>
        <time>2024-09-22T08:14:53Z</time>
      </trkpt>
      <trkpt lat="49.11988" lon="0.16954">
        <ele>100.4</ele>
        <time>2024-09-22T08:14:54Z</time>
      </trkpt>
      <trkpt lat="49.11987" lon="0.16945">
        <ele>100.6</ele>
        <time>2024-09-22T08:14:55Z</time>
      </trkpt>
      <trkpt lat="49.11987" lon="0.16937">
        <ele>100.8</ele>
        <time>2024-09-22T08:14:56Z</time>
      </trkpt>
      <trkpt lat="49.11986" lon="0.1693">
        <ele>101.2</ele>
        <time>2024-09-22T08:14:57Z</time>
      </trkpt>
      <trkpt lat="49.11985" lon="0.16922">
        <ele>101.4</ele>
        <time>2024-09-22T08:14:58Z</time>
      </trkpt>
      <trkpt lat="49.11984" lon="0.16915">
        <ele>101.8</ele>
        <time>2024-09-22T08:14:59Z</time>
      </trkpt>
      <trkpt lat="49.11983" lon="0.16907">
        <ele>102</ele>
        <time>2024-09-22T08:15:00Z</time>
      </trkpt>
      <trkpt lat="49.11982" lon="0.169">
        <ele>102.2</ele>
        <time>2024-09-22T08:15:01Z</time>
      </trkpt>
      <trkpt lat="49.11981" lon="0.16893">
        <ele>102.6</ele>
        <time>2024-09-22T08:15:02Z</time>
      </trkpt>
      <trkpt lat="49.1198" lon="0.16887">
        <ele>102.6</ele>
        <time>2024-09-22T08:15:03Z</time>
      </trkpt>
      <trkpt lat="49.11978" lon="0.16878">
        <ele>103</ele>
        <time>2024-09-22T08:15:04Z</time>
      </trkpt>
      <trkpt lat="49.11976" lon="0.16871">
        <ele>103.2</ele>
        <time>2024-09-22T08:15:05Z</time>
      </trkpt>
      <trkpt lat="49.11974" lon="0.16864">
        <ele>103.4</ele>
        <time>2024-09-22T08:15:06Z</time>
      </trkpt>
      <trkpt lat="49.11972" lon="0.16857">
        <ele>103.8</ele>
        <time>2024-09-22T08:15:07Z</time>
      </trkpt>
      <trkpt lat="49.11969" lon="0.1685">
        <ele>104.2</ele>
        <time>2024-09-22T08:15:08Z</time>
      </trkpt>
      <trkpt lat="49.11967" lon="0.16843">
        <ele>104.6</ele>
        <time>2024-09-22T08:15:09Z</time>
      </trkpt>
      <trkpt lat="49.11964" lon="0.16837">
        <ele>104.6</ele>
        <time>2024-09-22T08:15:10Z</time>
      </trkpt>
      <trkpt lat="49.11962" lon="0.1683">
        <ele>104.8</ele>
        <time>2024-09-22T08:15:11Z</time>
      </trkpt>
      <trkpt lat="49.11959" lon="0.16823">
        <ele>105</ele>
        <time>2024-09-22T08:15:12Z</time>
      </trkpt>
      <trkpt lat="49.11957" lon="0.16817">
        <ele>105.2</ele>
        <time>2024-09-22T08:15:13Z</time>
      </trkpt>
      <trkpt lat="49.11954" lon="0.16811">
        <ele>105.6</ele>
        <time>2024-09-22T08:15:14Z</time>
      </trkpt>
      <trkpt lat="49.11951" lon="0.16805">
        <ele>105.8</ele>
        <time>2024-09-22T08:15:15Z</time>
      </trkpt>
      <trkpt lat="49.11949" lon="0.16799">
        <ele>106</ele>
        <time>2024-09-22T08:15:16Z</time>
      </trkpt>
      <trkpt lat="49.11946" lon="0.16793">
        <ele>106.4</ele>
        <time>2024-09-22T08:15:17Z</time>
      </trkpt>
      <trkpt lat="49.11944" lon="0.16788">
        <ele>106.8</ele>
        <time>2024-09-22T08:15:18Z</time>
      </trkpt>
      <trkpt lat="49.11941" lon="0.16782">
        <ele>107</ele>
        <time>2024-09-22T08:15:19Z</time>
      </trkpt>
      <trkpt lat="49.11939" lon="0.16777">
        <ele>107.2</ele>
        <time>2024-09-22T08:15:20Z</time>
      </trkpt>
      <trkpt lat="49.11937" lon="0.16771">
        <ele>107.6</ele>
        <time>2024-09-22T08:15:21Z</time>
      </trkpt>
      <trkpt lat="49.11934" lon="0.16766">
        <ele>107.8</ele>
        <time>2024-09-22T08:15:22Z</time>
      </trkpt>
      <trkpt lat="49.11931" lon="0.16759">
        <ele>108</ele>
        <time>2024-09-22T08:15:23Z</time>
      </trkpt>
      <trkpt lat="49.11929" lon="0.16753">
        <ele>108.4</ele>
        <time>2024-09-22T08:15:24Z</time>
      </trkpt>
      <trkpt lat="49.11926" lon="0.16747">
        <ele>108.8</ele>
        <time>2024-09-22T08:15:25Z</time>
      </trkpt>
      <trkpt lat="49.11923" lon="0.16741">
        <ele>109.2</ele>
        <time>2024-09-22T08:15:26Z</time>
      </trkpt>
      <trkpt lat="49.11919" lon="0.16734">
        <ele>109.4</ele>
        <time>2024-09-22T08:15:27Z</time>
      </trkpt>
      <trkpt lat="49.11917" lon="0.16728">
        <ele>109.6</ele>
        <time>2024-09-22T08:15:28Z</time>
      </trkpt>
      <trkpt lat="49.11914" lon="0.16721">
        <ele>110</ele>
        <time>2024-09-22T08:15:29Z</time>
      </trkpt>
      <trkpt lat="49.11912" lon="0.16715">
        <ele>110</ele>
        <time>2024-09-22T08:15:30Z</time>
      </trkpt>
      <trkpt lat="49.11908" lon="0.16709">
        <ele>110.4</ele>
        <time>2024-09-22T08:15:31Z</time>
      </trkpt>
      <trkpt lat="49.11905" lon="0.16703">
        <ele>110.6</ele>
        <time>2024-09-22T08:15:32Z</time>
      </trkpt>
      <trkpt lat="49.11903" lon="0.16698">
        <ele>110.8</ele>
        <time>2024-09-22T08:15:33Z</time>
      </trkpt>
      <trkpt lat="49.119" lon="0.1669">
        <ele>111.2</ele>
        <time>2024-09-22T08:15:34Z</time>
      </trkpt>
      <trkpt lat="49.11897" lon="0.16684">
        <ele>111.4</ele>
        <time>2024-09-22T08:15:35Z</time>
      </trkpt>
      <trkpt lat="49.11895" lon="0.16678">
        <ele>111.8</ele>
        <time>2024-09-22T08:15:36Z</time>
      </trkpt>
      <trkpt lat="49.11892" lon="0.16672">
        <ele>112</ele>
        <time>2024-09-22T08:15:37Z</time>
      </trkpt>
      <trkpt lat="49.11889" lon="0.16667">
        <ele>112.2</ele>
        <time>2024-09-22T08:15:38Z</time>
      </trkpt>
      <trkpt lat="49.11887" lon="0.16661">
        <ele>112.6</ele>
        <time>2024-09-22T08:15:39Z</time>
      </trkpt>
      <trkpt lat="49.11884" lon="0.16656">
        <ele>112.8</ele>
        <time>2024-09-22T08:15:40Z</time>
      </trkpt>
      <trkpt lat="49.11882" lon="0.1665">
        <ele>113.2</ele>
        <time>2024-09-22T08:15:41Z</time>
      </trkpt>
      <trkpt lat="49.11879" lon="0.16645">
        <ele>113.6</ele>
        <time>2024-09-22T08:15:42Z</time>
      </trkpt>
      <trkpt lat="49.11876" lon="0.16639">
        <ele>113.8</ele>
        <time>2024-09-22T08:15:43Z</time>
      </trkpt>
      <trkpt lat="49.11873" lon="0.16633">
        <ele>114</ele>
        <time>2024-09-22T08:15:44Z</time>
      </trkpt>
      <trkpt lat="49.1187" lon="0.16626">
        <ele>114.4</ele>
        <time>2024-09-22T08:15:45Z</time>
      </trkpt>
      <trkpt lat="49.11867" lon="0.1662">
        <ele>114.6</ele>
        <time>2024-09-22T08:15:46Z</time>
      </trkpt>
      <trkpt lat="49.11865" lon="0.16614">
        <ele>114.8</ele>
        <time>2024-09-22T08:15:47Z</time>
      </trkpt>
      <trkpt lat="49.11862" lon="0.16608">
        <ele>115.2</ele>
        <time>2024-09-22T08:15:48Z</time>
      </trkpt>
      <trkpt lat="49.11859" lon="0.16602">
        <ele>115.6</ele>
        <time>2024-09-22T08:15:49Z</time>
      </trkpt>
      <trkpt lat="49.11857" lon="0.16597">
        <ele>115.6</ele>
        <time>2024-09-22T08:15:50Z</time>
      </trkpt>
      <trkpt lat="49.11854" lon="0.16589">
        <ele>115.8</ele>
        <time>2024-09-22T08:15:51Z</time>
      </trkpt>
      <trkpt lat="49.11851" lon="0.16583">
        <ele>116.2</ele>
        <time>2024-09-22T08:15:52Z</time>
      </trkpt>
      <trkpt lat="49.11849" lon="0.16577">
        <ele>116.4</ele>
        <time>2024-09-22T08:15:53Z</time>
      </trkpt>
      <trkpt lat="49.11847" lon="0.16571">
        <ele>116.6</ele>
        <time>2024-09-22T08:15:54Z</time>
      </trkpt>
      <trkpt lat="49.11844" lon="0.16564">
        <ele>117</ele>
        <time>2024-09-22T08:15:55Z</time>
      </trkpt>
      <trkpt lat="49.11843" lon="0.16558">
        <ele>117.2</ele>
        <time>2024-09-22T08:15:56Z</time>
      </trkpt>
      <trkpt lat="49.11842" lon="0.16553">
        <ele>117.4</ele>
        <time>2024-09-22T08:15:57Z</time>
      </trkpt>
      <trkpt lat="49.1184" lon="0.16545">
        <ele>117.8</ele>
        <time>2024-09-22T08:15:58Z</time>
      </trkpt>
      <trkpt lat="49.11838" lon="0.16539">
        <ele>118</ele>
        <time>2024-09-22T08:15:59Z</time>
      </trkpt>
      <trkpt lat="49.11836" lon="0.16531">
        <ele>118.2</ele>
        <time>2024-09-22T08:16:00Z</time>
      </trkpt>
      <trkpt lat="49.11833" lon="0.16524">
        <ele>118.4</ele>
        <time>2024-09-22T08:16:01Z</time>
      </trkpt>
      <trkpt lat="49.11831" lon="0.16518">
        <ele>118.8</ele>
        <time>2024-09-22T08:16:02Z</time>
      </trkpt>
      <trkpt lat="49.11829" lon="0.16511">
        <ele>119</ele>
        <time>2024-09-22T08:16:03Z</time>
      </trkpt>
      <trkpt lat="49.11827" lon="0.16504">
        <ele>119.4</ele>
        <time>2024-09-22T08:16:04Z</time>
      </trkpt>
      <trkpt lat="49.11826" lon="0.16497">
        <ele>119.6</ele>
        <time>2024-09-22T08:16:05Z</time>
      </trkpt>
      <trkpt lat="49.11825" lon="0.16491">
        <ele>119.8</ele>
        <time>2024-09-22T08:16:06Z</time>
      </trkpt>
      <trkpt lat="49.11824" lon="0.16483">
        <ele>120.2</ele>
        <time>2024-09-22T08:16:07Z</time>
      </trkpt>
      <trkpt lat="49.11823" lon="0.16476">
        <ele>120.4</ele>
        <time>2024-09-22T08:16:08Z</time>
      </trkpt>
      <trkpt lat="49.11821" lon="0.16469">
        <ele>120.6</ele>
        <time>2024-09-22T08:16:09Z</time>
      </trkpt>
      <trkpt lat="49.11819" lon="0.16462">
        <ele>120.6</ele>
        <time>2024-09-22T08:16:10Z</time>
      </trkpt>
      <trkpt lat="49.11818" lon="0.16455">
        <ele>121</ele>
        <time>2024-09-22T08:16:11Z</time>
      </trkpt>
      <trkpt lat="49.11817" lon="0.16448">
        <ele>121.2</ele>
        <time>2024-09-22T08:16:12Z</time>
      </trkpt>
      <trkpt lat="49.11816" lon="0.16442">
        <ele>121.4</ele>
        <time>2024-09-22T08:16:13Z</time>
      </trkpt>
      <trkpt lat="49.11815" lon="0.16435">
        <ele>121.6</ele>
        <time>2024-09-22T08:16:14Z</time>
      </trkpt>
      <trkpt lat="49.11814" lon="0.16428">
        <ele>121.8</ele>
        <time>2024-09-22T08:16:15Z</time>
      </trkpt>
      <trkpt lat="49.11813" lon="0.16423">
        <ele>122.2</ele>
        <time>2024-09-22T08:16:16Z</time>
      </trkpt>
      <trkpt lat="49.11812" lon="0.16415">
        <ele>122.4</ele>
        <time>2024-09-22T08:16:17Z</time>
      </trkpt>
      <trkpt lat="49.11811" lon="0.16409">
        <ele>122.6</ele>
        <time>2024-09-22T08:16:18Z</time>
      </trkpt>
      <trkpt lat="49.1181" lon="0.16402">
        <ele>122.8</ele>
        <time>2024-09-22T08:16:19Z</time>
      </trkpt>
      <trkpt lat="49.11809" lon="0.16396">
        <ele>123</ele>
        <time>2024-09-22T08:16:20Z</time>
      </trkpt>
      <trkpt lat="49.11808" lon="0.1639">
        <ele>123.4</ele>
        <time>2024-09-22T08:16:21Z</time>
      </trkpt>
      <trkpt lat="49.11807" lon="0.16383">
        <ele>123.6</ele>
        <time>2024-09-22T08:16:22Z</time>
      </trkpt>
      <trkpt lat="49.11805" lon="0.16376">
        <ele>124</ele>
        <time>2024-09-22T08:16:23Z</time>
      </trkpt>
      <trkpt lat="49.11804" lon="0.16369">
        <ele>124.2</ele>
        <time>2024-09-22T08:16:24Z</time>
      </trkpt>
      <trkpt lat="49.11803" lon="0.16363">
        <ele>124.4</ele>
        <time>2024-09-22T08:16:25Z</time>
      </trkpt>
      <trkpt lat="49.11802" lon="0.16356">
        <ele>124.6</ele>
        <time>2024-09-22T08:16:26Z</time>
      </trkpt>
      <trkpt lat="49.118" lon="0.1635">
        <ele>125</ele>
        <time>2024-09-22T08:16:27Z</time>
      </trkpt>
      <trkpt lat="49.11799" lon="0.16343">
        <ele>125.2</ele>
        <time>2024-09-22T08:16:28Z</time>
      </trkpt>
      <trkpt lat="49.11798" lon="0.16337">
        <ele>125.4</ele>
        <time>2024-09-22T08:16:29Z</time>
      </trkpt>
      <trkpt lat="49.11797" lon="0.1633">
        <ele>125.4</ele>
        <time>2024-09-22T08:16:30Z</time>
      </trkpt>
      <trkpt lat="49.11795" lon="0.16324">
        <ele>125.6</ele>
        <time>2024-09-22T08:16:31Z</time>
      </trkpt>
      <trkpt lat="49.11794" lon="0.16318">
        <ele>125.8</ele>
        <time>2024-09-22T08:16:32Z</time>
      </trkpt>
      <trkpt lat="49.11792" lon="0.16311">
        <ele>126.2</ele>
        <time>2024-09-22T08:16:33Z</time>
      </trkpt>
      <trkpt lat="49.11791" lon="0.16308">
        <ele>126.4</ele>
        <time>2024-09-22T08:16:34Z</time>
      </trkpt>
      <trkpt lat="49.11789" lon="0.163">
        <ele>126.8</ele>
        <time>2024-09-22T08:16:35Z</time>
      </trkpt>
      <trkpt lat="49.11787" lon="0.16294">
        <ele>127</ele>
        <time>2024-09-22T08:16:36Z</time>
      </trkpt>
      <trkpt lat="49.11785" lon="0.16288">
        <ele>127.4</ele>
        <time>2024-09-22T08:16:37Z</time>
      </trkpt>
      <trkpt lat="49.11782" lon="0.16282">
        <ele>127.6</ele>
        <time>2024-09-22T08:16:38Z</time>
      </trkpt>
      <trkpt lat="49.1178" lon="0.16276">
        <ele>127.6</ele>
        <time>2024-09-22T08:16:39Z</time>
      </trkpt>
      <trkpt lat="49.11778" lon="0.16271">
        <ele>128</ele>
        <time>2024-09-22T08:16:40Z</time>
      </trkpt>
      <trkpt lat="49.11776" lon="0.16264">
        <ele>128.2</ele>
        <time>2024-09-22T08:16:41Z</time>
      </trkpt>
      <trkpt lat="49.11773" lon="0.16258">
        <ele>128.4</ele>
        <time>2024-09-22T08:16:42Z</time>
      </trkpt>
      <trkpt lat="49.1177" lon="0.16253">
        <ele>128.8</ele>
        <time>2024-09-22T08:16:43Z</time>
      </trkpt>
      <trkpt lat="49.11767" lon="0.16248">
        <ele>129</ele>
        <time>2024-09-22T08:16:44Z</time>
      </trkpt>
      <trkpt lat="49.11764" lon="0.16243">
        <ele>129.2</ele>
        <time>2024-09-22T08:16:45Z</time>
      </trkpt>
      <trkpt lat="49.1176" lon="0.16238">
        <ele>129.6</ele>
        <time>2024-09-22T08:16:46Z</time>
      </trkpt>
      <trkpt lat="49.11757" lon="0.16233">
        <ele>129.8</ele>
        <time>2024-09-22T08:16:47Z</time>
      </trkpt>
      <trkpt lat="49.11753" lon="0.16229">
        <ele>130</ele>
        <time>2024-09-22T08:16:48Z</time>
      </trkpt>
      <trkpt lat="49.1175" lon="0.16224">
        <ele>130.4</ele>
        <time>2024-09-22T08:16:49Z</time>
      </trkpt>
      <trkpt lat="49.11746" lon="0.1622">
        <ele>130.6</ele>
        <time>2024-09-22T08:16:50Z</time>
      </trkpt>
      <trkpt lat="49.11743" lon="0.16216">
        <ele>130.8</ele>
        <time>2024-09-22T08:16:51Z</time>
      </trkpt>
      <trkpt lat="49.1174" lon="0.16213">
        <ele>130.8</ele>
        <time>2024-09-22T08:16:52Z</time>
      </trkpt>
      <trkpt lat="49.11737" lon="0.16209">
        <ele>131</ele>
        <time>2024-09-22T08:16:53Z</time>
      </trkpt>
      <trkpt lat="49.11732" lon="0.16204">
        <ele>131.2</ele>
        <time>2024-09-22T08:16:54Z</time>
      </trkpt>
      <trkpt lat="49.11729" lon="0.162">
        <ele>131.6</ele>
        <time>2024-09-22T08:16:55Z</time>
      </trkpt>
      <trkpt lat="49.11725" lon="0.16196">
        <ele>131.8</ele>
        <time>2024-09-22T08:16:56Z</time>
      </trkpt>
      <trkpt lat="49.11721" lon="0.16192">
        <ele>132</ele>
        <time>2024-09-22T08:16:57Z</time>
      </trkpt>
      <trkpt lat="49.11717" lon="0.16188">
        <ele>132.2</ele>
        <time>2024-09-22T08:16:58Z</time>
      </trkpt>
      <trkpt lat="49.11713" lon="0.16184">
        <ele>132.4</ele>
        <time>2024-09-22T08:16:59Z</time>
      </trkpt>
      <trkpt lat="49.1171" lon="0.16181">
        <ele>132.8</ele>
        <time>2024-09-22T08:17:00Z</time>
      </trkpt>
      <trkpt lat="49.11706" lon="0.16177">
        <ele>133</ele>
        <time>2024-09-22T08:17:01Z</time>
      </trkpt>
      <trkpt lat="49.11702" lon="0.16174">
        <ele>133.2</ele>
        <time>2024-09-22T08:17:02Z</time>
      </trkpt>
      <trkpt lat="49.11698" lon="0.1617">
        <ele>133.4</ele>
        <time>2024-09-22T08:17:03Z</time>
      </trkpt>
      <trkpt lat="49.11694" lon="0.16166">
        <ele>133.6</ele>
        <time>2024-09-22T08:17:04Z</time>
      </trkpt>
      <trkpt lat="49.1169" lon="0.16163">
        <ele>133.8</ele>
        <time>2024-09-22T08:17:05Z</time>
      </trkpt>
      <trkpt lat="49.11686" lon="0.16159">
        <ele>134</ele>
        <time>2024-09-22T08:17:06Z</time>
      </trkpt>
      <trkpt lat="49.11682" lon="0.16155">
        <ele>134.4</ele>
        <time>2024-09-22T08:17:07Z</time>
      </trkpt>
      <trkpt lat="49.11678" lon="0.16152">
        <ele>134.4</ele>
        <time>2024-09-22T08:17:08Z</time>
      </trkpt>
      <trkpt lat="49.11675" lon="0.16149">
        <ele>134.8</ele>
        <time>2024-09-22T08:17:09Z</time>
      </trkpt>
      <trkpt lat="49.11671" lon="0.16146">
        <ele>134.8</ele>
        <time>2024-09-22T08:17:10Z</time>
      </trkpt>
      <trkpt lat="49.11668" lon="0.16143">
        <ele>135</ele>
        <time>2024-09-22T08:17:11Z</time>
      </trkpt>
      <trkpt lat="49.11663" lon="0.16138">
        <ele>135</ele>
        <time>2024-09-22T08:17:12Z</time>
      </trkpt>
      <trkpt lat="49.11659" lon="0.16135">
        <ele>135.2</ele>
        <time>2024-09-22T08:17:13Z</time>
      </trkpt>
      <trkpt lat="49.11655" lon="0.16131">
        <ele>135.4</ele>
        <time>2024-09-22T08:17:14Z</time>
      </trkpt>
      <trkpt lat="49.11651" lon="0.16128">
        <ele>135.6</ele>
        <time>2024-09-22T08:17:15Z</time>
      </trkpt>
      <trkpt lat="49.11647" lon="0.16125">
        <ele>135.8</ele>
        <time>2024-09-22T08:17:16Z</time>
      </trkpt>
      <trkpt lat="49.11644" lon="0.16121">
        <ele>136</ele>
        <time>2024-09-22T08:17:17Z</time>
      </trkpt>
      <trkpt lat="49.1164" lon="0.16117">
        <ele>136.2</ele>
        <time>2024-09-22T08:17:18Z</time>
      </trkpt>
      <trkpt lat="49.11637" lon="0.16114">
        <ele>136.4</ele>
        <time>2024-09-22T08:17:19Z</time>
      </trkpt>
      <trkpt lat="49.11633" lon="0.16109">
        <ele>136.4</ele>
        <time>2024-09-22T08:17:20Z</time>
      </trkpt>
      <trkpt lat="49.11629" lon="0.16105">
        <ele>136.6</ele>
        <time>2024-09-22T08:17:21Z</time>
      </trkpt>
      <trkpt lat="49.11626" lon="0.161">
        <ele>137</ele>
        <time>2024-09-22T08:17:22Z</time>
      </trkpt>
      <trkpt lat="49.11622" lon="0.16096">
        <ele>137.2</ele>
        <time>2024-09-22T08:17:23Z</time>
      </trkpt>
      <trkpt lat="49.11619" lon="0.16091">
        <ele>137.6</ele>
        <time>2024-09-22T08:17:24Z</time>
      </trkpt>
      <trkpt lat="49.11616" lon="0.16087">
        <ele>137.8</ele>
        <time>2024-09-22T08:17:25Z</time>
      </trkpt>
      <trkpt lat="49.11613" lon="0.16082">
        <ele>138</ele>
        <time>2024-09-22T08:17:26Z</time>
      </trkpt>
      <trkpt lat="49.1161" lon="0.16077">
        <ele>138.2</ele>
        <time>2024-09-22T08:17:27Z</time>
      </trkpt>
      <trkpt lat="49.11607" lon="0.16071">
        <ele>138.4</ele>
        <time>2024-09-22T08:17:28Z</time>
      </trkpt>
      <trkpt lat="49.11604" lon="0.16066">
        <ele>138.6</ele>
        <time>2024-09-22T08:17:29Z</time>
      </trkpt>
      <trkpt lat="49.11601" lon="0.1606">
        <ele>139</ele>
        <time>2024-09-22T08:17:30Z</time>
      </trkpt>
      <trkpt lat="49.11599" lon="0.16056">
        <ele>139.2</ele>
        <time>2024-09-22T08:17:31Z</time>
      </trkpt>
      <trkpt lat="49.11596" lon="0.1605">
        <ele>139.2</ele>
        <time>2024-09-22T08:17:32Z</time>
      </trkpt>
      <trkpt lat="49.11593" lon="0.16045">
        <ele>139.4</ele>
        <time>2024-09-22T08:17:33Z</time>
      </trkpt>
      <trkpt lat="49.11591" lon="0.16039">
        <ele>139.6</ele>
        <time>2024-09-22T08:17:34Z</time>
      </trkpt>
      <trkpt lat="49.11589" lon="0.16034">
        <ele>139.8</ele>
        <time>2024-09-22T08:17:35Z</time>
      </trkpt>
      <trkpt lat="49.11587" lon="0.16029">
        <ele>140</ele>
        <time>2024-09-22T08:17:36Z</time>
      </trkpt>
      <trkpt lat="49.11585" lon="0.16024">
        <ele>140.2</ele>
        <time>2024-09-22T08:17:37Z</time>
      </trkpt>
      <trkpt lat="49.11582" lon="0.16019">
        <ele>140.4</ele>
        <time>2024-09-22T08:17:38Z</time>
      </trkpt>
      <trkpt lat="49.1158" lon="0.16014">
        <ele>140.6</ele>
        <time>2024-09-22T08:17:39Z</time>
      </trkpt>
      <trkpt lat="49.11577" lon="0.16009">
        <ele>140.8</ele>
        <time>2024-09-22T08:17:40Z</time>
      </trkpt>
      <trkpt lat="49.11575" lon="0.16004">
        <ele>141.2</ele>
        <time>2024-09-22T08:17:41Z</time>
      </trkpt>
      <trkpt lat="49.11573" lon="0.15999">
        <ele>141.4</ele>
        <time>2024-09-22T08:17:42Z</time>
      </trkpt>
      <trkpt lat="49.11571" lon="0.15995">
        <ele>141.6</ele>
        <time>2024-09-22T08:17:43Z</time>
      </trkpt>
      <trkpt lat="49.11568" lon="0.1599">
        <ele>141.8</ele>
        <time>2024-09-22T08:17:44Z</time>
      </trkpt>
      <trkpt lat="49.11565" lon="0.15985">
        <ele>142.2</ele>
        <time>2024-09-22T08:17:45Z</time>
      </trkpt>
      <trkpt lat="49.11563" lon="0.15982">
        <ele>142.6</ele>
        <time>2024-09-22T08:17:46Z</time>
      </trkpt>
      <trkpt lat="49.11559" lon="0.15975">
        <ele>142.8</ele>
        <time>2024-09-22T08:17:47Z</time>
      </trkpt>
      <trkpt lat="49.11557" lon="0.15971">
        <ele>142.8</ele>
        <time>2024-09-22T08:17:48Z</time>
      </trkpt>
      <trkpt lat="49.11554" lon="0.15966">
        <ele>143</ele>
        <time>2024-09-22T08:17:49Z</time>
      </trkpt>
      <trkpt lat="49.11551" lon="0.15961">
        <ele>143.2</ele>
        <time>2024-09-22T08:17:50Z</time>
      </trkpt>
      <trkpt lat="49.11549" lon="0.15957">
        <ele>143.4</ele>
        <time>2024-09-22T08:17:51Z</time>
      </trkpt>
      <trkpt lat="49.11547" lon="0.15953">
        <ele>143.4</ele>
        <time>2024-09-22T08:17:52Z</time>
      </trkpt>
      <trkpt lat="49.11543" lon="0.15948">
        <ele>143.8</ele>
        <time>2024-09-22T08:17:53Z</time>
      </trkpt>
      <trkpt lat="49.1154" lon="0.15944">
        <ele>144</ele>
        <time>2024-09-22T08:17:54Z</time>
      </trkpt>
      <trkpt lat="49.11537" lon="0.15941">
        <ele>144.4</ele>
        <time>2024-09-22T08:17:55Z</time>
      </trkpt>
      <trkpt lat="49.11534" lon="0.15937">
        <ele>144.6</ele>
        <time>2024-09-22T08:17:56Z</time>
      </trkpt>
      <trkpt lat="49.11531" lon="0.15933">
        <ele>144.6</ele>
        <time>2024-09-22T08:17:57Z</time>
      </trkpt>
      <trkpt lat="49.11528" lon="0.1593">
        <ele>144.8</ele>
        <time>2024-09-22T08:17:58Z</time>
      </trkpt>
      <trkpt lat="49.11525" lon="0.15926">
        <ele>145</ele>
        <time>2024-09-22T08:17:59Z</time>
      </trkpt>
      <trkpt lat="49.11521" lon="0.15923">
        <ele>145.2</ele>
        <time>2024-09-22T08:18:00Z</time>
      </trkpt>
      <trkpt lat="49.11518" lon="0.15921">
        <ele>145.4</ele>
        <time>2024-09-22T08:18:01Z</time>
      </trkpt>
      <trkpt lat="49.11514" lon="0.15917">
        <ele>145.8</ele>
        <time>2024-09-22T08:18:02Z</time>
      </trkpt>
      <trkpt lat="49.11511" lon="0.15913">
        <ele>146</ele>
        <time>2024-09-22T08:18:03Z</time>
      </trkpt>
      <trkpt lat="49.11508" lon="0.15909">
        <ele>146.2</ele>
        <time>2024-09-22T08:18:04Z</time>
      </trkpt>
      <trkpt lat="49.11505" lon="0.15905">
        <ele>146.4</ele>
        <time>2024-09-22T08:18:05Z</time>
      </trkpt>
      <trkpt lat="49.11502" lon="0.15902">
        <ele>146.4</ele>
        <time>2024-09-22T08:18:06Z</time>
      </trkpt>
      <trkpt lat="49.11498" lon="0.15898">
        <ele>146.6</ele>
        <time>2024-09-22T08:18:07Z</time>
      </trkpt>
      <trkpt lat="49.11495" lon="0.15894">
        <ele>146.8</ele>
        <time>2024-09-22T08:18:08Z</time>
      </trkpt>
      <trkpt lat="49.11491" lon="0.15891">
        <ele>147</ele>
        <time>2024-09-22T08:18:09Z</time>
      </trkpt>
      <trkpt lat="49.11489" lon="0.15889">
        <ele>147.2</ele>
        <time>2024-09-22T08:18:10Z</time>
      </trkpt>
      <trkpt lat="49.11485" lon="0.15884">
        <ele>147.4</ele>
        <time>2024-09-22T08:18:11Z</time>
      </trkpt>
      <trkpt lat="49.11481" lon="0.1588">
        <ele>147.4</ele>
        <time>2024-09-22T08:18:12Z</time>
      </trkpt>
      <trkpt lat="49.11477" lon="0.15877">
        <ele>147.6</ele>
        <time>2024-09-22T08:18:13Z</time>
      </trkpt>
      <trkpt lat="49.11473" lon="0.15873">
        <ele>147.8</ele>
        <time>2024-09-22T08:18:14Z</time>
      </trkpt>
      <trkpt lat="49.11471" lon="0.1587">
        <ele>147.8</ele>
        <time>2024-09-22T08:18:15Z</time>
      </trkpt>
      <trkpt lat="49.11466" lon="0.15866">
        <ele>148</ele>
        <time>2024-09-22T08:18:16Z</time>
      </trkpt>
      <trkpt lat="49.11463" lon="0.15862">
        <ele>148.2</ele>
        <time>2024-09-22T08:18:17Z</time>
      </trkpt>
      <trkpt lat="49.11459" lon="0.15859">
        <ele>148.4</ele>
        <time>2024-09-22T08:18:18Z</time>
      </trkpt>
      <trkpt lat="49.11456" lon="0.15855">
        <ele>148.6</ele>
        <time>2024-09-22T08:18:19Z</time>
      </trkpt>
      <trkpt lat="49.11452" lon="0.15852">
        <ele>148.6</ele>
        <time>2024-09-22T08:18:20Z</time>
      </trkpt>
      <trkpt lat="49.11449" lon="0.15849">
        <ele>148.8</ele>
        <time>2024-09-22T08:18:21Z</time>
      </trkpt>
      <trkpt lat="49.11445" lon="0.15845">
        <ele>149</ele>
        <time>2024-09-22T08:18:22Z</time>
      </trkpt>
      <trkpt lat="49.11441" lon="0.15842">
        <ele>149.2</ele>
        <time>2024-09-22T08:18:23Z</time>
      </trkpt>
      <trkpt lat="49.11438" lon="0.15839">
        <ele>149.4</ele>
        <time>2024-09-22T08:18:24Z</time>
      </trkpt>
      <trkpt lat="49.11434" lon="0.15835">
        <ele>149.6</ele>
        <time>2024-09-22T08:18:25Z</time>
      </trkpt>
      <trkpt lat="49.11431" lon="0.15831">
        <ele>149.8</ele>
        <time>2024-09-22T08:18:26Z</time>
      </trkpt>
      <trkpt lat="49.11427" lon="0.15827">
        <ele>150.2</ele>
        <time>2024-09-22T08:18:27Z</time>
      </trkpt>
      <trkpt lat="49.11424" lon="0.15824">
        <ele>150.4</ele>
        <time>2024-09-22T08:18:28Z</time>
      </trkpt>
      <trkpt lat="49.1142" lon="0.1582">
        <ele>150.6</ele>
        <time>2024-09-22T08:18:29Z</time>
      </trkpt>
      <trkpt lat="49.11417" lon="0.15816">
        <ele>151</ele>
        <time>2024-09-22T08:18:30Z</time>
      </trkpt>
      <trkpt lat="49.11413" lon="0.15813">
        <ele>151</ele>
        <time>2024-09-22T08:18:31Z</time>
      </trkpt>
      <trkpt lat="49.11409" lon="0.15809">
        <ele>151</ele>
        <time>2024-09-22T08:18:32Z</time>
      </trkpt>
      <trkpt lat="49.11405" lon="0.15806">
        <ele>151.2</ele>
        <time>2024-09-22T08:18:33Z</time>
      </trkpt>
      <trkpt lat="49.11403" lon="0.15803">
        <ele>151.4</ele>
        <time>2024-09-22T08:18:34Z</time>
      </trkpt>
      <trkpt lat="49.11399" lon="0.15799">
        <ele>151.4</ele>
        <time>2024-09-22T08:18:35Z</time>
      </trkpt>
      <trkpt lat="49.11395" lon="0.15795">
        <ele>151.6</ele>
        <time>2024-09-22T08:18:36Z</time>
      </trkpt>
      <trkpt lat="49.11391" lon="0.15792">
        <ele>151.8</ele>
        <time>2024-09-22T08:18:37Z</time>
      </trkpt>
      <trkpt lat="49.11387" lon="0.15787">
        <ele>152</ele>
        <time>2024-09-22T08:18:38Z</time>
      </trkpt>
      <trkpt lat="49.11384" lon="0.15783">
        <ele>152.2</ele>
        <time>2024-09-22T08:18:39Z</time>
      </trkpt>
      <trkpt lat="49.1138" lon="0.1578">
        <ele>152.4</ele>
        <time>2024-09-22T08:18:40Z</time>
      </trkpt>
      <trkpt lat="49.11376" lon="0.15776">
        <ele>152.6</ele>
        <time>2024-09-22T08:18:41Z</time>
      </trkpt>
      <trkpt lat="49.11373" lon="0.15773">
        <ele>152.6</ele>
        <time>2024-09-22T08:18:42Z</time>
      </trkpt>
      <trkpt lat="49.11369" lon="0.15769">
        <ele>152.8</ele>
        <time>2024-09-22T08:18:43Z</time>
      </trkpt>
      <trkpt lat="49.11366" lon="0.15765">
        <ele>153.2</ele>
        <time>2024-09-22T08:18:44Z</time>
      </trkpt>
      <trkpt lat="49.11363" lon="0.15762">
        <ele>153.4</ele>
        <time>2024-09-22T08:18:45Z</time>
      </trkpt>
      <trkpt lat="49.1136" lon="0.15758">
        <ele>153.4</ele>
        <time>2024-09-22T08:18:46Z</time>
      </trkpt>
      <trkpt lat="49.11356" lon="0.15755">
        <ele>153.6</ele>
        <time>2024-09-22T08:18:47Z</time>
      </trkpt>
      <trkpt lat="49.11353" lon="0.15751">
        <ele>153.8</ele>
        <time>2024-09-22T08:18:48Z</time>
      </trkpt>
      <trkpt lat="49.1135" lon="0.15748">
        <ele>154</ele>
        <time>2024-09-22T08:18:49Z</time>
      </trkpt>
      <trkpt lat="49.11345" lon="0.15744">
        <ele>154.2</ele>
        <time>2024-09-22T08:18:50Z</time>
      </trkpt>
      <trkpt lat="49.11342" lon="0.1574">
        <ele>154.6</ele>
        <time>2024-09-22T08:18:51Z</time>
      </trkpt>
      <trkpt lat="49.11338" lon="0.15736">
        <ele>154.6</ele>
        <time>2024-09-22T08:18:52Z</time>
      </trkpt>
      <trkpt lat="49.11335" lon="0.15732">
        <ele>154.8</ele>
        <time>2024-09-22T08:18:53Z</time>
      </trkpt>
      <trkpt lat="49.11331" lon="0.15729">
        <ele>155</ele>
        <time>2024-09-22T08:18:54Z</time>
      </trkpt>
      <trkpt lat="49.11327" lon="0.15726">
        <ele>155.4</ele>
        <time>2024-09-22T08:18:55Z</time>
      </trkpt>
      <trkpt lat="49.11324" lon="0.15722">
        <ele>155.6</ele>
        <time>2024-09-22T08:18:56Z</time>
      </trkpt>
      <trkpt lat="49.11321" lon="0.15719">
        <ele>155.6</ele>
        <time>2024-09-22T08:18:57Z</time>
      </trkpt>
      <trkpt lat="49.11317" lon="0.15716">
        <ele>156</ele>
        <time>2024-09-22T08:18:58Z</time>
      </trkpt>
      <trkpt lat="49.11314" lon="0.15713">
        <ele>156.2</ele>
        <time>2024-09-22T08:18:59Z</time>
      </trkpt>
      <trkpt lat="49.11311" lon="0.1571">
        <ele>156.4</ele>
        <time>2024-09-22T08:19:00Z</time>
      </trkpt>
      <trkpt lat="49.11308" lon="0.15706">
        <ele>156.6</ele>
        <time>2024-09-22T08:19:01Z</time>
      </trkpt>
      <trkpt lat="49.11305" lon="0.15703">
        <ele>156.6</ele>
        <time>2024-09-22T08:19:02Z</time>
      </trkpt>
      <trkpt lat="49.11302" lon="0.157">
        <ele>156.8</ele>
        <time>2024-09-22T08:19:03Z</time>
      </trkpt>
      <trkpt lat="49.11298" lon="0.15696">
        <ele>157</ele>
        <time>2024-09-22T08:19:04Z</time>
      </trkpt>
      <trkpt lat="49.11295" lon="0.15693">
        <ele>157.2</ele>
        <time>2024-09-22T08:19:05Z</time>
      </trkpt>
      <trkpt lat="49.11292" lon="0.1569">
        <ele>157.4</ele>
        <time>2024-09-22T08:19:06Z</time>
      </trkpt>
      <trkpt lat="49.11289" lon="0.15687">
        <ele>157.6</ele>
        <time>2024-09-22T08:19:07Z</time>
      </trkpt>
      <trkpt lat="49.11286" lon="0.15684">
        <ele>157.8</ele>
        <time>2024-09-22T08:19:08Z</time>
      </trkpt>
      <trkpt lat="49.11282" lon="0.15681">
        <ele>157.8</ele>
        <time>2024-09-22T08:19:09Z</time>
      </trkpt>
      <trkpt lat="49.11279" lon="0.15677">
        <ele>158</ele>
        <time>2024-09-22T08:19:10Z</time>
      </trkpt>
      <trkpt lat="49.11276" lon="0.15674">
        <ele>158.2</ele>
        <time>2024-09-22T08:19:11Z</time>
      </trkpt>
      <trkpt lat="49.11273" lon="0.15672">
        <ele>158.2</ele>
        <time>2024-09-22T08:19:12Z</time>
      </trkpt>
      <trkpt lat="49.1127" lon="0.15669">
        <ele>158.2</ele>
        <time>2024-09-22T08:19:13Z</time>
      </trkpt>
      <trkpt lat="49.11267" lon="0.15666">
        <ele>158.4</ele>
        <time>2024-09-22T08:19:14Z</time>
      </trkpt>
      <trkpt lat="49.11264" lon="0.15663">
        <ele>158.6</ele>
        <time>2024-09-22T08:19:15Z</time>
      </trkpt>
      <trkpt lat="49.11261" lon="0.15659">
        <ele>158.6</ele>
        <time>2024-09-22T08:19:16Z</time>
      </trkpt>
      <trkpt lat="49.11258" lon="0.15656">
        <ele>158.6</ele>
        <time>2024-09-22T08:19:17Z</time>
      </trkpt>
      <trkpt lat="49.11255" lon="0.15653">
        <ele>158.8</ele>
        <time>2024-09-22T08:19:18Z</time>
      </trkpt>
      <trkpt lat="49.11252" lon="0.1565">
        <ele>159</ele>
        <time>2024-09-22T08:19:19Z</time>
      </trkpt>
      <trkpt lat="49.11249" lon="0.15647">
        <ele>159.2</ele>
        <time>2024-09-22T08:19:20Z</time>
      </trkpt>
      <trkpt lat="49.11246" lon="0.15644">
        <ele>159.4</ele>
        <time>2024-09-22T08:19:21Z</time>
      </trkpt>
      <trkpt lat="49.11243" lon="0.1564">
        <ele>159.6</ele>
        <time>2024-09-22T08:19:22Z</time>
      </trkpt>
      <trkpt lat="49.1124" lon="0.15637">
        <ele>159.8</ele>
        <time>2024-09-22T08:19:23Z</time>
      </trkpt>
      <trkpt lat="49.11237" lon="0.15633">
        <ele>159.8</ele>
        <time>2024-09-22T08:19:24Z</time>
      </trkpt>
      <trkpt lat="49.11234" lon="0.1563">
        <ele>160</ele>
        <time>2024-09-22T08:19:25Z</time>
      </trkpt>
      <trkpt lat="49.11231" lon="0.15628">
        <ele>160</ele>
        <time>2024-09-22T08:19:26Z</time>
      </trkpt>
      <trkpt lat="49.11228" lon="0.15625">
        <ele>160</ele>
        <time>2024-09-22T08:19:27Z</time>
      </trkpt>
      <trkpt lat="49.11226" lon="0.15621">
        <ele>160.2</ele>
        <time>2024-09-22T08:19:28Z</time>
      </trkpt>
      <trkpt lat="49.11223" lon="0.15618">
        <ele>160.4</ele>
        <time>2024-09-22T08:19:29Z</time>
      </trkpt>
      <trkpt lat="49.11221" lon="0.15614">
        <ele>160.4</ele>
        <time>2024-09-22T08:19:30Z</time>
      </trkpt>
      <trkpt lat="49.11218" lon="0.15611">
        <ele>160.4</ele>
        <time>2024-09-22T08:19:31Z</time>
      </trkpt>
      <trkpt lat="49.11216" lon="0.15608">
        <ele>160.4</ele>
        <time>2024-09-22T08:19:32Z</time>
      </trkpt>
      <trkpt lat="49.11214" lon="0.15605">
        <ele>160.6</ele>
        <time>2024-09-22T08:19:33Z</time>
      </trkpt>
      <trkpt lat="49.11211" lon="0.15602">
        <ele>160.6</ele>
        <time>2024-09-22T08:19:34Z</time>
      </trkpt>
      <trkpt lat="49.11209" lon="0.15598">
        <ele>160.8</ele>
        <time>2024-09-22T08:19:35Z</time>
      </trkpt>
      <trkpt lat="49.11206" lon="0.15594">
        <ele>161</ele>
        <time>2024-09-22T08:19:36Z</time>
      </trkpt>
      <trkpt lat="49.11204" lon="0.1559">
        <ele>161.2</ele>
        <time>2024-09-22T08:19:37Z</time>
      </trkpt>
      <trkpt lat="49.11202" lon="0.15586">
        <ele>161.4</ele>
        <time>2024-09-22T08:19:38Z</time>
      </trkpt>
      <trkpt lat="49.11199" lon="0.15582">
        <ele>161.4</ele>
        <time>2024-09-22T08:19:39Z</time>
      </trkpt>
      <trkpt lat="49.11197" lon="0.15579">
        <ele>161.6</ele>
        <time>2024-09-22T08:19:40Z</time>
      </trkpt>
      <trkpt lat="49.11195" lon="0.15575">
        <ele>161.8</ele>
        <time>2024-09-22T08:19:41Z</time>
      </trkpt>
      <trkpt lat="49.11193" lon="0.15572">
        <ele>161.8</ele>
        <time>2024-09-22T08:19:42Z</time>
      </trkpt>
      <trkpt lat="49.11191" lon="0.15567">
        <ele>161.8</ele>
        <time>2024-09-22T08:19:43Z</time>
      </trkpt>
      <trkpt lat="49.11189" lon="0.15563">
        <ele>161.8</ele>
        <time>2024-09-22T08:19:44Z</time>
      </trkpt>
      <trkpt lat="49.11187" lon="0.15558">
        <ele>161.8</ele>
        <time>2024-09-22T08:19:45Z</time>
      </trkpt>
      <trkpt lat="49.11185" lon="0.15555">
        <ele>161.8</ele>
        <time>2024-09-22T08:19:46Z</time>
      </trkpt>
      <trkpt lat="49.11183" lon="0.15549">
        <ele>162</ele>
        <time>2024-09-22T08:19:47Z</time>
      </trkpt>
      <trkpt lat="49.11181" lon="0.15545">
        <ele>162</ele>
        <time>2024-09-22T08:19:48Z</time>
      </trkpt>
      <trkpt lat="49.11179" lon="0.1554">
        <ele>162</ele>
        <time>2024-09-22T08:19:49Z</time>
      </trkpt>
      <trkpt lat="49.11177" lon="0.15535">
        <ele>162</ele>
        <time>2024-09-22T08:19:50Z</time>
      </trkpt>
      <trkpt lat="49.11175" lon="0.1553">
        <ele>162</ele>
        <time>2024-09-22T08:19:51Z</time>
      </trkpt>
      <trkpt lat="49.11173" lon="0.15525">
        <ele>162</ele>
        <time>2024-09-22T08:19:52Z</time>
      </trkpt>
      <trkpt lat="49.11171" lon="0.1552">
        <ele>162</ele>
        <time>2024-09-22T08:19:53Z</time>
      </trkpt>
      <trkpt lat="49.11169" lon="0.15515">
        <ele>162.2</ele>
        <time>2024-09-22T08:19:54Z</time>
      </trkpt>
      <trkpt lat="49.11167" lon="0.1551">
        <ele>162.2</ele>
        <time>2024-09-22T08:19:55Z</time>
      </trkpt>
      <trkpt lat="49.11166" lon="0.15505">
        <ele>162.2</ele>
        <time>2024-09-22T08:19:56Z</time>
      </trkpt>
      <trkpt lat="49.11164" lon="0.155">
        <ele>162.2</ele>
        <time>2024-09-22T08:19:57Z</time>
      </trkpt>
      <trkpt lat="49.11162" lon="0.15495">
        <ele>162.2</ele>
        <time>2024-09-22T08:19:58Z</time>
      </trkpt>
      <trkpt lat="49.1116" lon="0.1549">
        <ele>162.2</ele>
        <time>2024-09-22T08:19:59Z</time>
      </trkpt>
      <trkpt lat="49.11158" lon="0.15485">
        <ele>162.2</ele>
        <time>2024-09-22T08:20:00Z</time>
      </trkpt>
      <trkpt lat="49.11157" lon="0.1548">
        <ele>162.2</ele>
        <time>2024-09-22T08:20:01Z</time>
      </trkpt>
      <trkpt lat="49.11156" lon="0.15475">
        <ele>162.2</ele>
        <time>2024-09-22T08:20:02Z</time>
      </trkpt>
      <trkpt lat="49.11154" lon="0.15469">
        <ele>162.2</ele>
        <time>2024-09-22T08:20:03Z</time>
      </trkpt>
      <trkpt lat="49.11152" lon="0.15463">
        <ele>162.2</ele>
        <time>2024-09-22T08:20:04Z</time>
      </trkpt>
      <trkpt lat="49.1115" lon="0.15458">
        <ele>162.2</ele>
        <time>2024-09-22T08:20:05Z</time>
      </trkpt>
      <trkpt lat="49.11148" lon="0.15452">
        <ele>162.4</ele>
        <time>2024-09-22T08:20:06Z</time>
      </trkpt>
      <trkpt lat="49.11146" lon="0.15446">
        <ele>162.4</ele>
        <time>2024-09-22T08:20:07Z</time>
      </trkpt>
      <trkpt lat="49.11144" lon="0.1544">
        <ele>162.4</ele>
        <time>2024-09-22T08:20:08Z</time>
      </trkpt>
      <trkpt lat="49.11142" lon="0.15435">
        <ele>162.4</ele>
        <time>2024-09-22T08:20:09Z</time>
      </trkpt>
      <trkpt lat="49.1114" lon="0.15431">
        <ele>162.4</ele>
        <time>2024-09-22T08:20:10Z</time>
      </trkpt>
      <trkpt lat="49.11138" lon="0.15424">
        <ele>162.4</ele>
        <time>2024-09-22T08:20:11Z</time>
      </trkpt>
      <trkpt lat="49.11137" lon="0.1542">
        <ele>162.4</ele>
        <time>2024-09-22T08:20:12Z</time>
      </trkpt>
      <trkpt lat="49.11135" lon="0.15413">
        <ele>162.4</ele>
        <time>2024-09-22T08:20:13Z</time>
      </trkpt>
      <trkpt lat="49.11134" lon="0.15409">
        <ele>162.4</ele>
        <time>2024-09-22T08:20:14Z</time>
      </trkpt>
      <trkpt lat="49.11132" lon="0.15401">
        <ele>162.4</ele>
        <time>2024-09-22T08:20:15Z</time>
      </trkpt>
      <trkpt lat="49.1113" lon="0.15396">
        <ele>162.6</ele>
        <time>2024-09-22T08:20:16Z</time>
      </trkpt>
      <trkpt lat="49.11128" lon="0.15389">
        <ele>162.6</ele>
        <time>2024-09-22T08:20:17Z</time>
      </trkpt>
      <trkpt lat="49.11126" lon="0.15383">
        <ele>162.6</ele>
        <time>2024-09-22T08:20:18Z</time>
      </trkpt>
      <trkpt lat="49.11125" lon="0.15377">
        <ele>162.6</ele>
        <time>2024-09-22T08:20:19Z</time>
      </trkpt>
      <trkpt lat="49.11123" lon="0.15371">
        <ele>162.6</ele>
        <time>2024-09-22T08:20:20Z</time>
      </trkpt>
      <trkpt lat="49.11121" lon="0.15365">
        <ele>162.6</ele>
        <time>2024-09-22T08:20:21Z</time>
      </trkpt>
      <trkpt lat="49.11119" lon="0.15359">
        <ele>162.6</ele>
        <time>2024-09-22T08:20:22Z</time>
      </trkpt>
      <trkpt lat="49.11117" lon="0.15353">
        <ele>162.8</ele>
        <time>2024-09-22T08:20:23Z</time>
      </trkpt>
      <trkpt lat="49.11116" lon="0.15347">
        <ele>162.8</ele>
        <time>2024-09-22T08:20:24Z</time>
      </trkpt>
      <trkpt lat="49.11114" lon="0.15342">
        <ele>162.8</ele>
        <time>2024-09-22T08:20:25Z</time>
      </trkpt>
      <trkpt lat="49.11113" lon="0.15336">
        <ele>162.8</ele>
        <time>2024-09-22T08:20:26Z</time>
      </trkpt>
      <trkpt lat="49.11112" lon="0.1533">
        <ele>162.8</ele>
        <time>2024-09-22T08:20:27Z</time>
      </trkpt>
      <trkpt lat="49.11111" lon="0.15324">
        <ele>163</ele>
        <time>2024-09-22T08:20:28Z</time>
      </trkpt>
      <trkpt lat="49.11109" lon="0.15318">
        <ele>163</ele>
        <time>2024-09-22T08:20:29Z</time>
      </trkpt>
      <trkpt lat="49.11108" lon="0.15312">
        <ele>163</ele>
        <time>2024-09-22T08:20:30Z</time>
      </trkpt>
      <trkpt lat="49.11106" lon="0.15306">
        <ele>163</ele>
        <time>2024-09-22T08:20:31Z</time>
      </trkpt>
      <trkpt lat="49.11104" lon="0.153">
        <ele>163</ele>
        <time>2024-09-22T08:20:32Z</time>
      </trkpt>
      <trkpt lat="49.11103" lon="0.15294">
        <ele>163.2</ele>
        <time>2024-09-22T08:20:33Z</time>
      </trkpt>
      <trkpt lat="49.11102" lon="0.15288">
        <ele>163.2</ele>
        <time>2024-09-22T08:20:34Z</time>
      </trkpt>
      <trkpt lat="49.11101" lon="0.15282">
        <ele>163.2</ele>
        <time>2024-09-22T08:20:35Z</time>
      </trkpt>
      <trkpt lat="49.11099" lon="0.15275">
        <ele>163.2</ele>
        <time>2024-09-22T08:20:36Z</time>
      </trkpt>
      <trkpt lat="49.11098" lon="0.15268">
        <ele>163.4</ele>
        <time>2024-09-22T08:20:37Z</time>
      </trkpt>
      <trkpt lat="49.11096" lon="0.15261">
        <ele>163.4</ele>
        <time>2024-09-22T08:20:38Z</time>
      </trkpt>
      <trkpt lat="49.11095" lon="0.15254">
        <ele>163.4</ele>
        <time>2024-09-22T08:20:39Z</time>
      </trkpt>
      <trkpt lat="49.11093" lon="0.15246">
        <ele>163.4</ele>
        <time>2024-09-22T08:20:40Z</time>
      </trkpt>
      <trkpt lat="49.11092" lon="0.15239">
        <ele>163.4</ele>
        <time>2024-09-22T08:20:41Z</time>
      </trkpt>
      <trkpt lat="49.1109" lon="0.15232">
        <ele>163.4</ele>
        <time>2024-09-22T08:20:42Z</time>
      </trkpt>
      <trkpt lat="49.11088" lon="0.15224">
        <ele>163.4</ele>
        <time>2024-09-22T08:20:43Z</time>
      </trkpt>
      <trkpt lat="49.11086" lon="0.15216">
        <ele>163.4</ele>
        <time>2024-09-22T08:20:44Z</time>
      </trkpt>
      <trkpt lat="49.11085" lon="0.1521">
        <ele>163.4</ele>
        <time>2024-09-22T08:20:45Z</time>
      </trkpt>
      <trkpt lat="49.11083" lon="0.15201">
        <ele>163.4</ele>
        <time>2024-09-22T08:20:46Z</time>
      </trkpt>
      <trkpt lat="49.11082" lon="0.15193">
        <ele>163.4</ele>
        <time>2024-09-22T08:20:47Z</time>
      </trkpt>
      <trkpt lat="49.1108" lon="0.15185">
        <ele>163.4</ele>
        <time>2024-09-22T08:20:48Z</time>
      </trkpt>
      <trkpt lat="49.11079" lon="0.15177">
        <ele>163.4</ele>
        <time>2024-09-22T08:20:49Z</time>
      </trkpt>
      <trkpt lat="49.11077" lon="0.15168">
        <ele>163.4</ele>
        <time>2024-09-22T08:20:50Z</time>
      </trkpt>
      <trkpt lat="49.11076" lon="0.15159">
        <ele>163.4</ele>
        <time>2024-09-22T08:20:51Z</time>
      </trkpt>
      <trkpt lat="49.11074" lon="0.1515">
        <ele>163.4</ele>
        <time>2024-09-22T08:20:52Z</time>
      </trkpt>
      <trkpt lat="49.11072" lon="0.15141">
        <ele>163.4</ele>
        <time>2024-09-22T08:20:53Z</time>
      </trkpt>
      <trkpt lat="49.11071" lon="0.15132">
        <ele>163.4</ele>
        <time>2024-09-22T08:20:54Z</time>
      </trkpt>
      <trkpt lat="49.11069" lon="0.15123">
        <ele>163.4</ele>
        <time>2024-09-22T08:20:55Z</time>
      </trkpt>
      <trkpt lat="49.11067" lon="0.15114">
        <ele>163.4</ele>
        <time>2024-09-22T08:20:56Z</time>
      </trkpt>
      <trkpt lat="49.11065" lon="0.15106">
        <ele>163.4</ele>
        <time>2024-09-22T08:20:57Z</time>
      </trkpt>
      <trkpt lat="49.11063" lon="0.15097">
        <ele>163.6</ele>
        <time>2024-09-22T08:20:58Z</time>
      </trkpt>
      <trkpt lat="49.11062" lon="0.15088">
        <ele>163.6</ele>
        <time>2024-09-22T08:20:59Z</time>
      </trkpt>
      <trkpt lat="49.1106" lon="0.15079">
        <ele>163.6</ele>
        <time>2024-09-22T08:21:00Z</time>
      </trkpt>
      <trkpt lat="49.11058" lon="0.1507">
        <ele>163.6</ele>
        <time>2024-09-22T08:21:01Z</time>
      </trkpt>
      <trkpt lat="49.11056" lon="0.15061">
        <ele>163.6</ele>
        <time>2024-09-22T08:21:02Z</time>
      </trkpt>
      <trkpt lat="49.11053" lon="0.15052">
        <ele>163.8</ele>
        <time>2024-09-22T08:21:03Z</time>
      </trkpt>
      <trkpt lat="49.11052" lon="0.15045">
        <ele>163.8</ele>
        <time>2024-09-22T08:21:04Z</time>
      </trkpt>
      <trkpt lat="49.11049" lon="0.15034">
        <ele>163.8</ele>
        <time>2024-09-22T08:21:05Z</time>
      </trkpt>
      <trkpt lat="49.11047" lon="0.15025">
        <ele>164</ele>
        <time>2024-09-22T08:21:06Z</time>
      </trkpt>
      <trkpt lat="49.11044" lon="0.15015">
        <ele>164</ele>
        <time>2024-09-22T08:21:07Z</time>
      </trkpt>
      <trkpt lat="49.11041" lon="0.15006">
        <ele>164</ele>
        <time>2024-09-22T08:21:08Z</time>
      </trkpt>
      <trkpt lat="49.11038" lon="0.14997">
        <ele>164.2</ele>
        <time>2024-09-22T08:21:09Z</time>
      </trkpt>
      <trkpt lat="49.11036" lon="0.14987">
        <ele>164.4</ele>
        <time>2024-09-22T08:21:10Z</time>
      </trkpt>
      <trkpt lat="49.11033" lon="0.14978">
        <ele>164.4</ele>
        <time>2024-09-22T08:21:11Z</time>
      </trkpt>
      <trkpt lat="49.1103" lon="0.14969">
        <ele>164.4</ele>
        <time>2024-09-22T08:21:12Z</time>
      </trkpt>
      <trkpt lat="49.11026" lon="0.1496">
        <ele>164.4</ele>
        <time>2024-09-22T08:21:13Z</time>
      </trkpt>
      <trkpt lat="49.11022" lon="0.14951">
        <ele>164.4</ele>
        <time>2024-09-22T08:21:14Z</time>
      </trkpt>
      <trkpt lat="49.11019" lon="0.14942">
        <ele>164.6</ele>
        <time>2024-09-22T08:21:15Z</time>
      </trkpt>
      <trkpt lat="49.11016" lon="0.14935">
        <ele>164.6</ele>
        <time>2024-09-22T08:21:16Z</time>
      </trkpt>
      <trkpt lat="49.11011" lon="0.14925">
        <ele>164.6</ele>
        <time>2024-09-22T08:21:17Z</time>
      </trkpt>
      <trkpt lat="49.11007" lon="0.14916">
        <ele>164.6</ele>
        <time>2024-09-22T08:21:18Z</time>
      </trkpt>
      <trkpt lat="49.11003" lon="0.14908">
        <ele>164.6</ele>
        <time>2024-09-22T08:21:19Z</time>
      </trkpt>
      <trkpt lat="49.10999" lon="0.14899">
        <ele>165</ele>
        <time>2024-09-22T08:21:20Z</time>
      </trkpt>
      <trkpt lat="49.10994" lon="0.14891">
        <ele>165.2</ele>
        <time>2024-09-22T08:21:21Z</time>
      </trkpt>
      <trkpt lat="49.10989" lon="0.14883">
        <ele>165.2</ele>
        <time>2024-09-22T08:21:22Z</time>
      </trkpt>
      <trkpt lat="49.10985" lon="0.14875">
        <ele>165.4</ele>
        <time>2024-09-22T08:21:23Z</time>
      </trkpt>
      <trkpt lat="49.1098" lon="0.14867">
        <ele>165.6</ele>
        <time>2024-09-22T08:21:24Z</time>
      </trkpt>
      <trkpt lat="49.10976" lon="0.1486">
        <ele>165.6</ele>
        <time>2024-09-22T08:21:25Z</time>
      </trkpt>
      <trkpt lat="49.10971" lon="0.1485">
        <ele>165.6</ele>
        <time>2024-09-22T08:21:26Z</time>
      </trkpt>
      <trkpt lat="49.10966" lon="0.14842">
        <ele>165.8</ele>
        <time>2024-09-22T08:21:27Z</time>
      </trkpt>
      <trkpt lat="49.10961" lon="0.14834">
        <ele>165.8</ele>
        <time>2024-09-22T08:21:28Z</time>
      </trkpt>
      <trkpt lat="49.10957" lon="0.14825">
        <ele>165.8</ele>
        <time>2024-09-22T08:21:29Z</time>
      </trkpt>
      <trkpt lat="49.10952" lon="0.14817">
        <ele>165.8</ele>
        <time>2024-09-22T08:21:30Z</time>
      </trkpt>
      <trkpt lat="49.10947" lon="0.14809">
        <ele>165.8</ele>
        <time>2024-09-22T08:21:31Z</time>
      </trkpt>
      <trkpt lat="49.10942" lon="0.14801">
        <ele>165.8</ele>
        <time>2024-09-22T08:21:32Z</time>
      </trkpt>
      <trkpt lat="49.10938" lon="0.14793">
        <ele>166</ele>
        <time>2024-09-22T08:21:33Z</time>
      </trkpt>
      <trkpt lat="49.10933" lon="0.14785">
        <ele>166</ele>
        <time>2024-09-22T08:21:34Z</time>
      </trkpt>
      <trkpt lat="49.10928" lon="0.14777">
        <ele>166</ele>
        <time>2024-09-22T08:21:35Z</time>
      </trkpt>
      <trkpt lat="49.10924" lon="0.14769">
        <ele>166</ele>
        <time>2024-09-22T08:21:36Z</time>
      </trkpt>
      <trkpt lat="49.1092" lon="0.14762">
        <ele>166</ele>
        <time>2024-09-22T08:21:37Z</time>
      </trkpt>
      <trkpt lat="49.10915" lon="0.14753">
        <ele>166.2</ele>
        <time>2024-09-22T08:21:38Z</time>
      </trkpt>
      <trkpt lat="49.1091" lon="0.14744">
        <ele>166.2</ele>
        <time>2024-09-22T08:21:39Z</time>
      </trkpt>
      <trkpt lat="49.10905" lon="0.14736">
        <ele>166.4</ele>
        <time>2024-09-22T08:21:40Z</time>
      </trkpt>
      <trkpt lat="49.10901" lon="0.14728">
        <ele>166.4</ele>
        <time>2024-09-22T08:21:41Z</time>
      </trkpt>
      <trkpt lat="49.10897" lon="0.1472">
        <ele>166.6</ele>
        <time>2024-09-22T08:21:42Z</time>
      </trkpt>
      <trkpt lat="49.10892" lon="0.14711">
        <ele>166.6</ele>
        <time>2024-09-22T08:21:43Z</time>
      </trkpt>
      <trkpt lat="49.10888" lon="0.14703">
        <ele>166.8</ele>
        <time>2024-09-22T08:21:44Z</time>
      </trkpt>
      <trkpt lat="49.10884" lon="0.14694">
        <ele>167</ele>
        <time>2024-09-22T08:21:45Z</time>
      </trkpt>
      <trkpt lat="49.1088" lon="0.14686">
        <ele>167</ele>
        <time>2024-09-22T08:21:46Z</time>
      </trkpt>
      <trkpt lat="49.10876" lon="0.14677">
        <ele>167.2</ele>
        <time>2024-09-22T08:21:47Z</time>
      </trkpt>
      <trkpt lat="49.10873" lon="0.14668">
        <ele>167.2</ele>
        <time>2024-09-22T08:21:48Z</time>
      </trkpt>
      <trkpt lat="49.10869" lon="0.14659">
        <ele>167.2</ele>
        <time>2024-09-22T08:21:49Z</time>
      </trkpt>
      <trkpt lat="49.10866" lon="0.1465">
        <ele>167.2</ele>
        <time>2024-09-22T08:21:50Z</time>
      </trkpt>
      <trkpt lat="49.10862" lon="0.14641">
        <ele>167.2</ele>
        <time>2024-09-22T08:21:51Z</time>
      </trkpt>
      <trkpt lat="49.10859" lon="0.14632">
        <ele>167.2</ele>
        <time>2024-09-22T08:21:52Z</time>
      </trkpt>
      <trkpt lat="49.10856" lon="0.14624">
        <ele>167.4</ele>
        <time>2024-09-22T08:21:53Z</time>
      </trkpt>
      <trkpt lat="49.10853" lon="0.14615">
        <ele>167.6</ele>
        <time>2024-09-22T08:21:54Z</time>
      </trkpt>
      <trkpt lat="49.10849" lon="0.14606">
        <ele>167.6</ele>
        <time>2024-09-22T08:21:55Z</time>
      </trkpt>
      <trkpt lat="49.10846" lon="0.14597">
        <ele>167.6</ele>
        <time>2024-09-22T08:21:56Z</time>
      </trkpt>
      <trkpt lat="49.10843" lon="0.14589">
        <ele>167.8</ele>
        <time>2024-09-22T08:21:57Z</time>
      </trkpt>
      <trkpt lat="49.10841" lon="0.14583">
        <ele>167.8</ele>
        <time>2024-09-22T08:21:58Z</time>
      </trkpt>
      <trkpt lat="49.10837" lon="0.14573">
        <ele>168</ele>
        <time>2024-09-22T08:21:59Z</time>
      </trkpt>
      <trkpt lat="49.10834" lon="0.14565">
        <ele>168.2</ele>
        <time>2024-09-22T08:22:00Z</time>
      </trkpt>
      <trkpt lat="49.10831" lon="0.14556">
        <ele>168.2</ele>
        <time>2024-09-22T08:22:01Z</time>
      </trkpt>
      <trkpt lat="49.10828" lon="0.14548">
        <ele>168.4</ele>
        <time>2024-09-22T08:22:02Z</time>
      </trkpt>
      <trkpt lat="49.10825" lon="0.1454">
        <ele>168.6</ele>
        <time>2024-09-22T08:22:03Z</time>
      </trkpt>
      <trkpt lat="49.10822" lon="0.14531">
        <ele>169</ele>
        <time>2024-09-22T08:22:04Z</time>
      </trkpt>
      <trkpt lat="49.10819" lon="0.14523">
        <ele>169.2</ele>
        <time>2024-09-22T08:22:05Z</time>
      </trkpt>
      <trkpt lat="49.10816" lon="0.14515">
        <ele>169.4</ele>
        <time>2024-09-22T08:22:06Z</time>
      </trkpt>
      <trkpt lat="49.10813" lon="0.14506">
        <ele>169.6</ele>
        <time>2024-09-22T08:22:07Z</time>
      </trkpt>
      <trkpt lat="49.1081" lon="0.14498">
        <ele>169.8</ele>
        <time>2024-09-22T08:22:08Z</time>
      </trkpt>
      <trkpt lat="49.10808" lon="0.14491">
        <ele>170.2</ele>
        <time>2024-09-22T08:22:09Z</time>
      </trkpt>
      <trkpt lat="49.10805" lon="0.14483">
        <ele>170.4</ele>
        <time>2024-09-22T08:22:10Z</time>
      </trkpt>
      <trkpt lat="49.10801" lon="0.14473">
        <ele>170.8</ele>
        <time>2024-09-22T08:22:11Z</time>
      </trkpt>
      <trkpt lat="49.10798" lon="0.14465">
        <ele>170.8</ele>
        <time>2024-09-22T08:22:12Z</time>
      </trkpt>
      <trkpt lat="49.10795" lon="0.14457">
        <ele>171</ele>
        <time>2024-09-22T08:22:13Z</time>
      </trkpt>
      <trkpt lat="49.10791" lon="0.14449">
        <ele>171.4</ele>
        <time>2024-09-22T08:22:14Z</time>
      </trkpt>
      <trkpt lat="49.10787" lon="0.14441">
        <ele>171.6</ele>
        <time>2024-09-22T08:22:15Z</time>
      </trkpt>
      <trkpt lat="49.10783" lon="0.14434">
        <ele>171.8</ele>
        <time>2024-09-22T08:22:16Z</time>
      </trkpt>
      <trkpt lat="49.1078" lon="0.14428">
        <ele>172</ele>
        <time>2024-09-22T08:22:17Z</time>
      </trkpt>
      <trkpt lat="49.10775" lon="0.14419">
        <ele>172.2</ele>
        <time>2024-09-22T08:22:18Z</time>
      </trkpt>
      <trkpt lat="49.1077" lon="0.14412">
        <ele>172.4</ele>
        <time>2024-09-22T08:22:19Z</time>
      </trkpt>
      <trkpt lat="49.10765" lon="0.14404">
        <ele>172.6</ele>
        <time>2024-09-22T08:22:20Z</time>
      </trkpt>
      <trkpt lat="49.1076" lon="0.14397">
        <ele>172.8</ele>
        <time>2024-09-22T08:22:21Z</time>
      </trkpt>
      <trkpt lat="49.10755" lon="0.1439">
        <ele>173</ele>
        <time>2024-09-22T08:22:22Z</time>
      </trkpt>
      <trkpt lat="49.1075" lon="0.14383">
        <ele>173</ele>
        <time>2024-09-22T08:22:23Z</time>
      </trkpt>
      <trkpt lat="49.10745" lon="0.14376">
        <ele>173</ele>
        <time>2024-09-22T08:22:24Z</time>
      </trkpt>
      <trkpt lat="49.1074" lon="0.14369">
        <ele>173</ele>
        <time>2024-09-22T08:22:25Z</time>
      </trkpt>
      <trkpt lat="49.10735" lon="0.14362">
        <ele>173</ele>
        <time>2024-09-22T08:22:26Z</time>
      </trkpt>
      <trkpt lat="49.10729" lon="0.14355">
        <ele>173.2</ele>
        <time>2024-09-22T08:22:27Z</time>
      </trkpt>
      <trkpt lat="49.10724" lon="0.14348">
        <ele>173.2</ele>
        <time>2024-09-22T08:22:28Z</time>
      </trkpt>
      <trkpt lat="49.10719" lon="0.14341">
        <ele>173.2</ele>
        <time>2024-09-22T08:22:29Z</time>
      </trkpt>
      <trkpt lat="49.10713" lon="0.14334">
        <ele>173.2</ele>
        <time>2024-09-22T08:22:30Z</time>
      </trkpt>
      <trkpt lat="49.10708" lon="0.14326">
        <ele>173.2</ele>
        <time>2024-09-22T08:22:31Z</time>
      </trkpt>
      <trkpt lat="49.10703" lon="0.14319">
        <ele>173.2</ele>
        <time>2024-09-22T08:22:32Z</time>
      </trkpt>
      <trkpt lat="49.10697" lon="0.14312">
        <ele>173.4</ele>
        <time>2024-09-22T08:22:33Z</time>
      </trkpt>
      <trkpt lat="49.10692" lon="0.14305">
        <ele>173.4</ele>
        <time>2024-09-22T08:22:34Z</time>
      </trkpt>
      <trkpt lat="49.10687" lon="0.14297">
        <ele>173.6</ele>
        <time>2024-09-22T08:22:35Z</time>
      </trkpt>
      <trkpt lat="49.10681" lon="0.1429">
        <ele>173.6</ele>
        <time>2024-09-22T08:22:36Z</time>
      </trkpt>
      <trkpt lat="49.10676" lon="0.14282">
        <ele>173.8</ele>
        <time>2024-09-22T08:22:37Z</time>
      </trkpt>
      <trkpt lat="49.10671" lon="0.14275">
        <ele>173.8</ele>
        <time>2024-09-22T08:22:38Z</time>
      </trkpt>
      <trkpt lat="49.10665" lon="0.14267">
        <ele>173.8</ele>
        <time>2024-09-22T08:22:39Z</time>
      </trkpt>
      <trkpt lat="49.1066" lon="0.1426">
        <ele>173.8</ele>
        <time>2024-09-22T08:22:40Z</time>
      </trkpt>
      <trkpt lat="49.10654" lon="0.14252">
        <ele>173.8</ele>
        <time>2024-09-22T08:22:41Z</time>
      </trkpt>
      <trkpt lat="49.10649" lon="0.14244">
        <ele>173.8</ele>
        <time>2024-09-22T08:22:42Z</time>
      </trkpt>
      <trkpt lat="49.10643" lon="0.14236">
        <ele>173.8</ele>
        <time>2024-09-22T08:22:43Z</time>
      </trkpt>
      <trkpt lat="49.10637" lon="0.14228">
        <ele>173.8</ele>
        <time>2024-09-22T08:22:44Z</time>
      </trkpt>
      <trkpt lat="49.10631" lon="0.1422">
        <ele>173.8</ele>
        <time>2024-09-22T08:22:45Z</time>
      </trkpt>
      <trkpt lat="49.10625" lon="0.14213">
        <ele>173.8</ele>
        <time>2024-09-22T08:22:46Z</time>
      </trkpt>
      <trkpt lat="49.1062" lon="0.14206">
        <ele>173.8</ele>
        <time>2024-09-22T08:22:47Z</time>
      </trkpt>
      <trkpt lat="49.10614" lon="0.14198">
        <ele>173.6</ele>
        <time>2024-09-22T08:22:48Z</time>
      </trkpt>
      <trkpt lat="49.10608" lon="0.14191">
        <ele>173.6</ele>
        <time>2024-09-22T08:22:49Z</time>
      </trkpt>
      <trkpt lat="49.10602" lon="0.14184">
        <ele>173.6</ele>
        <time>2024-09-22T08:22:50Z</time>
      </trkpt>
      <trkpt lat="49.10596" lon="0.14177">
        <ele>173.6</ele>
        <time>2024-09-22T08:22:51Z</time>
      </trkpt>
      <trkpt lat="49.1059" lon="0.14171">
        <ele>173.6</ele>
        <time>2024-09-22T08:22:52Z</time>
      </trkpt>
      <trkpt lat="49.10585" lon="0.14164">
        <ele>173.6</ele>
        <time>2024-09-22T08:22:53Z</time>
      </trkpt>
      <trkpt lat="49.1058" lon="0.14158">
        <ele>173.4</ele>
        <time>2024-09-22T08:22:54Z</time>
      </trkpt>
      <trkpt lat="49.10576" lon="0.14152">
        <ele>173.4</ele>
        <time>2024-09-22T08:22:55Z</time>
      </trkpt>
      <trkpt lat="49.10571" lon="0.14146">
        <ele>173.4</ele>
        <time>2024-09-22T08:22:56Z</time>
      </trkpt>
      <trkpt lat="49.10567" lon="0.1414">
        <ele>173.4</ele>
        <time>2024-09-22T08:22:57Z</time>
      </trkpt>
      <trkpt lat="49.10563" lon="0.14135">
        <ele>173.4</ele>
        <time>2024-09-22T08:22:58Z</time>
      </trkpt>
      <trkpt lat="49.10559" lon="0.14129">
        <ele>173.2</ele>
        <time>2024-09-22T08:22:59Z</time>
      </trkpt>
      <trkpt lat="49.10554" lon="0.14123">
        <ele>173.2</ele>
        <time>2024-09-22T08:23:00Z</time>
      </trkpt>
      <trkpt lat="49.1055" lon="0.14118">
        <ele>173</ele>
        <time>2024-09-22T08:23:01Z</time>
      </trkpt>
      <trkpt lat="49.10545" lon="0.14113">
        <ele>173</ele>
        <time>2024-09-22T08:23:02Z</time>
      </trkpt>
      <trkpt lat="49.1054" lon="0.14107">
        <ele>173</ele>
        <time>2024-09-22T08:23:03Z</time>
      </trkpt>
      <trkpt lat="49.10536" lon="0.14101">
        <ele>173</ele>
        <time>2024-09-22T08:23:04Z</time>
      </trkpt>
      <trkpt lat="49.10531" lon="0.14095">
        <ele>173</ele>
        <time>2024-09-22T08:23:05Z</time>
      </trkpt>
      <trkpt lat="49.10526" lon="0.14089">
        <ele>173</ele>
        <time>2024-09-22T08:23:06Z</time>
      </trkpt>
      <trkpt lat="49.10521" lon="0.14083">
        <ele>172.8</ele>
        <time>2024-09-22T08:23:07Z</time>
      </trkpt>
      <trkpt lat="49.10517" lon="0.14077">
        <ele>172.6</ele>
        <time>2024-09-22T08:23:08Z</time>
      </trkpt>
      <trkpt lat="49.10512" lon="0.14072">
        <ele>172.4</ele>
        <time>2024-09-22T08:23:09Z</time>
      </trkpt>
      <trkpt lat="49.10507" lon="0.14066">
        <ele>172.2</ele>
        <time>2024-09-22T08:23:10Z</time>
      </trkpt>
      <trkpt lat="49.10502" lon="0.1406">
        <ele>172.2</ele>
        <time>2024-09-22T08:23:11Z</time>
      </trkpt>
      <trkpt lat="49.10497" lon="0.14054">
        <ele>172.2</ele>
        <time>2024-09-22T08:23:12Z</time>
      </trkpt>
      <trkpt lat="49.10493" lon="0.14048">
        <ele>172</ele>
        <time>2024-09-22T08:23:13Z</time>
      </trkpt>
      <trkpt lat="49.10488" lon="0.14042">
        <ele>171.8</ele>
        <time>2024-09-22T08:23:14Z</time>
      </trkpt>
      <trkpt lat="49.10483" lon="0.14036">
        <ele>171.8</ele>
        <time>2024-09-22T08:23:15Z</time>
      </trkpt>
      <trkpt lat="49.10478" lon="0.1403">
        <ele>171.6</ele>
        <time>2024-09-22T08:23:16Z</time>
      </trkpt>
      <trkpt lat="49.10472" lon="0.14025">
        <ele>171.4</ele>
        <time>2024-09-22T08:23:17Z</time>
      </trkpt>
      <trkpt lat="49.10467" lon="0.14019">
        <ele>171.4</ele>
        <time>2024-09-22T08:23:18Z</time>
      </trkpt>
      <trkpt lat="49.10462" lon="0.14013">
        <ele>171.2</ele>
        <time>2024-09-22T08:23:19Z</time>
      </trkpt>
      <trkpt lat="49.10456" lon="0.14007">
        <ele>171.2</ele>
        <time>2024-09-22T08:23:20Z</time>
      </trkpt>
      <trkpt lat="49.10451" lon="0.14001">
        <ele>171.2</ele>
        <time>2024-09-22T08:23:21Z</time>
      </trkpt>
      <trkpt lat="49.10446" lon="0.13995">
        <ele>171</ele>
        <time>2024-09-22T08:23:22Z</time>
      </trkpt>
      <trkpt lat="49.10441" lon="0.13989">
        <ele>171</ele>
        <time>2024-09-22T08:23:23Z</time>
      </trkpt>
      <trkpt lat="49.10436" lon="0.13982">
        <ele>171</ele>
        <time>2024-09-22T08:23:24Z</time>
      </trkpt>
      <trkpt lat="49.10431" lon="0.13976">
        <ele>171</ele>
        <time>2024-09-22T08:23:25Z</time>
      </trkpt>
      <trkpt lat="49.10426" lon="0.13969">
        <ele>170.8</ele>
        <time>2024-09-22T08:23:26Z</time>
      </trkpt>
      <trkpt lat="49.1042" lon="0.13963">
        <ele>170.8</ele>
        <time>2024-09-22T08:23:27Z</time>
      </trkpt>
      <trkpt lat="49.10415" lon="0.13956">
        <ele>170.6</ele>
        <time>2024-09-22T08:23:28Z</time>
      </trkpt>
      <trkpt lat="49.1041" lon="0.1395">
        <ele>170.6</ele>
        <time>2024-09-22T08:23:29Z</time>
      </trkpt>
      <trkpt lat="49.10404" lon="0.13943">
        <ele>170.6</ele>
        <time>2024-09-22T08:23:30Z</time>
      </trkpt>
      <trkpt lat="49.10399" lon="0.13936">
        <ele>170.6</ele>
        <time>2024-09-22T08:23:31Z</time>
      </trkpt>
      <trkpt lat="49.10394" lon="0.1393">
        <ele>170.6</ele>
        <time>2024-09-22T08:23:32Z</time>
      </trkpt>
      <trkpt lat="49.10388" lon="0.13923">
        <ele>170.4</ele>
        <time>2024-09-22T08:23:33Z</time>
      </trkpt>
      <trkpt lat="49.10383" lon="0.13917">
        <ele>170.4</ele>
        <time>2024-09-22T08:23:34Z</time>
      </trkpt>
      <trkpt lat="49.10377" lon="0.1391">
        <ele>170.4</ele>
        <time>2024-09-22T08:23:35Z</time>
      </trkpt>
      <trkpt lat="49.10372" lon="0.13904">
        <ele>170.4</ele>
        <time>2024-09-22T08:23:36Z</time>
      </trkpt>
      <trkpt lat="49.10366" lon="0.13897">
        <ele>170.2</ele>
        <time>2024-09-22T08:23:37Z</time>
      </trkpt>
      <trkpt lat="49.10361" lon="0.1389">
        <ele>170.2</ele>
        <time>2024-09-22T08:23:38Z</time>
      </trkpt>
      <trkpt lat="49.10355" lon="0.13883">
        <ele>170.2</ele>
        <time>2024-09-22T08:23:39Z</time>
      </trkpt>
      <trkpt lat="49.1035" lon="0.13876">
        <ele>170.2</ele>
        <time>2024-09-22T08:23:40Z</time>
      </trkpt>
      <trkpt lat="49.10345" lon="0.1387">
        <ele>170</ele>
        <time>2024-09-22T08:23:41Z</time>
      </trkpt>
      <trkpt lat="49.1034" lon="0.13863">
        <ele>170</ele>
        <time>2024-09-22T08:23:42Z</time>
      </trkpt>
      <trkpt lat="49.10334" lon="0.13856">
        <ele>170</ele>
        <time>2024-09-22T08:23:43Z</time>
      </trkpt>
      <trkpt lat="49.1033" lon="0.1385">
        <ele>170</ele>
        <time>2024-09-22T08:23:44Z</time>
      </trkpt>
      <trkpt lat="49.10325" lon="0.13843">
        <ele>170</ele>
        <time>2024-09-22T08:23:45Z</time>
      </trkpt>
      <trkpt lat="49.10319" lon="0.13833">
        <ele>170</ele>
        <time>2024-09-22T08:23:46Z</time>
      </trkpt>
      <trkpt lat="49.10313" lon="0.13825">
        <ele>169.8</ele>
        <time>2024-09-22T08:23:47Z</time>
      </trkpt>
      <trkpt lat="49.10309" lon="0.13819">
        <ele>169.8</ele>
        <time>2024-09-22T08:23:48Z</time>
      </trkpt>
      <trkpt lat="49.10303" lon="0.13809">
        <ele>169.8</ele>
        <time>2024-09-22T08:23:49Z</time>
      </trkpt>
      <trkpt lat="49.10298" lon="0.13801">
        <ele>169.6</ele>
        <time>2024-09-22T08:23:50Z</time>
      </trkpt>
      <trkpt lat="49.10292" lon="0.13793">
        <ele>169.6</ele>
        <time>2024-09-22T08:23:51Z</time>
      </trkpt>
      <trkpt lat="49.10287" lon="0.13785">
        <ele>169.6</ele>
        <time>2024-09-22T08:23:52Z</time>
      </trkpt>
      <trkpt lat="49.10282" lon="0.13777">
        <ele>169.6</ele>
        <time>2024-09-22T08:23:53Z</time>
      </trkpt>
      <trkpt lat="49.10277" lon="0.13769">
        <ele>169.4</ele>
        <time>2024-09-22T08:23:54Z</time>
      </trkpt>
      <trkpt lat="49.10272" lon="0.13761">
        <ele>169.2</ele>
        <time>2024-09-22T08:23:55Z</time>
      </trkpt>
      <trkpt lat="49.10267" lon="0.13753">
        <ele>169.2</ele>
        <time>2024-09-22T08:23:56Z</time>
      </trkpt>
      <trkpt lat="49.10261" lon="0.13744">
        <ele>169</ele>
        <time>2024-09-22T08:23:57Z</time>
      </trkpt>
      <trkpt lat="49.10255" lon="0.13736">
        <ele>168.8</ele>
        <time>2024-09-22T08:23:58Z</time>
      </trkpt>
      <trkpt lat="49.1025" lon="0.13727">
        <ele>168.6</ele>
        <time>2024-09-22T08:23:59Z</time>
      </trkpt>
      <trkpt lat="49.10246" lon="0.1372">
        <ele>168.4</ele>
        <time>2024-09-22T08:24:00Z</time>
      </trkpt>
      <trkpt lat="49.10239" lon="0.1371">
        <ele>168</ele>
        <time>2024-09-22T08:24:01Z</time>
      </trkpt>
      <trkpt lat="49.10234" lon="0.13701">
        <ele>167.8</ele>
        <time>2024-09-22T08:24:02Z</time>
      </trkpt>
      <trkpt lat="49.10229" lon="0.13692">
        <ele>167.6</ele>
        <time>2024-09-22T08:24:03Z</time>
      </trkpt>
      <trkpt lat="49.10223" lon="0.13683">
        <ele>167.6</ele>
        <time>2024-09-22T08:24:04Z</time>
      </trkpt>
      <trkpt lat="49.10219" lon="0.13674">
        <ele>167.4</ele>
        <time>2024-09-22T08:24:05Z</time>
      </trkpt>
      <trkpt lat="49.10215" lon="0.13666">
        <ele>167.4</ele>
        <time>2024-09-22T08:24:06Z</time>
      </trkpt>
      <trkpt lat="49.10209" lon="0.13655">
        <ele>167.2</ele>
        <time>2024-09-22T08:24:07Z</time>
      </trkpt>
      <trkpt lat="49.10205" lon="0.13644">
        <ele>167</ele>
        <time>2024-09-22T08:24:08Z</time>
      </trkpt>
      <trkpt lat="49.10201" lon="0.13634">
        <ele>166.8</ele>
        <time>2024-09-22T08:24:09Z</time>
      </trkpt>
      <trkpt lat="49.10196" lon="0.13623">
        <ele>166.4</ele>
        <time>2024-09-22T08:24:10Z</time>
      </trkpt>
      <trkpt lat="49.10192" lon="0.13613">
        <ele>166</ele>
        <time>2024-09-22T08:24:11Z</time>
      </trkpt>
      <trkpt lat="49.10188" lon="0.13602">
        <ele>166</ele>
        <time>2024-09-22T08:24:12Z</time>
      </trkpt>
      <trkpt lat="49.10184" lon="0.13592">
        <ele>165.8</ele>
        <time>2024-09-22T08:24:13Z</time>
      </trkpt>
      <trkpt lat="49.1018" lon="0.13581">
        <ele>165.6</ele>
        <time>2024-09-22T08:24:14Z</time>
      </trkpt>
      <trkpt lat="49.10177" lon="0.13572">
        <ele>165.2</ele>
        <time>2024-09-22T08:24:15Z</time>
      </trkpt>
      <trkpt lat="49.10173" lon="0.13561">
        <ele>165</ele>
        <time>2024-09-22T08:24:16Z</time>
      </trkpt>
      <trkpt lat="49.10168" lon="0.13548">
        <ele>164.8</ele>
        <time>2024-09-22T08:24:17Z</time>
      </trkpt>
      <trkpt lat="49.10164" lon="0.13537">
        <ele>164.6</ele>
        <time>2024-09-22T08:24:18Z</time>
      </trkpt>
      <trkpt lat="49.1016" lon="0.13526">
        <ele>164.6</ele>
        <time>2024-09-22T08:24:19Z</time>
      </trkpt>
      <trkpt lat="49.10157" lon="0.13515">
        <ele>164.6</ele>
        <time>2024-09-22T08:24:20Z</time>
      </trkpt>
      <trkpt lat="49.10153" lon="0.13504">
        <ele>164.4</ele>
        <time>2024-09-22T08:24:21Z</time>
      </trkpt>
      <trkpt lat="49.10149" lon="0.13493">
        <ele>164.4</ele>
        <time>2024-09-22T08:24:22Z</time>
      </trkpt>
      <trkpt lat="49.10145" lon="0.13482">
        <ele>164.4</ele>
        <time>2024-09-22T08:24:23Z</time>
      </trkpt>
      <trkpt lat="49.10142" lon="0.13473">
        <ele>164.4</ele>
        <time>2024-09-22T08:24:24Z</time>
      </trkpt>
      <trkpt lat="49.10138" lon="0.13459">
        <ele>164.4</ele>
        <time>2024-09-22T08:24:25Z</time>
      </trkpt>
      <trkpt lat="49.10134" lon="0.13447">
        <ele>164.4</ele>
        <time>2024-09-22T08:24:26Z</time>
      </trkpt>
      <trkpt lat="49.10132" lon="0.13437">
        <ele>164.4</ele>
        <time>2024-09-22T08:24:27Z</time>
      </trkpt>
      <trkpt lat="49.10128" lon="0.13425">
        <ele>164.4</ele>
        <time>2024-09-22T08:24:28Z</time>
      </trkpt>
      <trkpt lat="49.10124" lon="0.13411">
        <ele>164.4</ele>
        <time>2024-09-22T08:24:29Z</time>
      </trkpt>
      <trkpt lat="49.10121" lon="0.13399">
        <ele>164.4</ele>
        <time>2024-09-22T08:24:30Z</time>
      </trkpt>
      <trkpt lat="49.10118" lon="0.13387">
        <ele>164.4</ele>
        <time>2024-09-22T08:24:31Z</time>
      </trkpt>
      <trkpt lat="49.10115" lon="0.13377">
        <ele>164.4</ele>
        <time>2024-09-22T08:24:32Z</time>
      </trkpt>
      <trkpt lat="49.10111" lon="0.13363">
        <ele>164.4</ele>
        <time>2024-09-22T08:24:33Z</time>
      </trkpt>
      <trkpt lat="49.10108" lon="0.13351">
        <ele>164.4</ele>
        <time>2024-09-22T08:24:34Z</time>
      </trkpt>
      <trkpt lat="49.10105" lon="0.13339">
        <ele>164.4</ele>
        <time>2024-09-22T08:24:35Z</time>
      </trkpt>
      <trkpt lat="49.10101" lon="0.13327">
        <ele>164.4</ele>
        <time>2024-09-22T08:24:36Z</time>
      </trkpt>
      <trkpt lat="49.10098" lon="0.13315">
        <ele>164.4</ele>
        <time>2024-09-22T08:24:37Z</time>
      </trkpt>
      <trkpt lat="49.10095" lon="0.13303">
        <ele>164.4</ele>
        <time>2024-09-22T08:24:38Z</time>
      </trkpt>
      <trkpt lat="49.10091" lon="0.13292">
        <ele>164.4</ele>
        <time>2024-09-22T08:24:39Z</time>
      </trkpt>
      <trkpt lat="49.10089" lon="0.13282">
        <ele>164.4</ele>
        <time>2024-09-22T08:24:40Z</time>
      </trkpt>
      <trkpt lat="49.10085" lon="0.13268">
        <ele>164.4</ele>
        <time>2024-09-22T08:24:41Z</time>
      </trkpt>
      <trkpt lat="49.10083" lon="0.13259">
        <ele>164.4</ele>
        <time>2024-09-22T08:24:42Z</time>
      </trkpt>
      <trkpt lat="49.1008" lon="0.13247">
        <ele>164.4</ele>
        <time>2024-09-22T08:24:43Z</time>
      </trkpt>
      <trkpt lat="49.10076" lon="0.13236">
        <ele>164.2</ele>
        <time>2024-09-22T08:24:44Z</time>
      </trkpt>
      <trkpt lat="49.10073" lon="0.13224">
        <ele>164</ele>
        <time>2024-09-22T08:24:45Z</time>
      </trkpt>
      <trkpt lat="49.1007" lon="0.13213">
        <ele>163.6</ele>
        <time>2024-09-22T08:24:46Z</time>
      </trkpt>
      <trkpt lat="49.10067" lon="0.13201">
        <ele>163.4</ele>
        <time>2024-09-22T08:24:47Z</time>
      </trkpt>
      <trkpt lat="49.10064" lon="0.13189">
        <ele>163.2</ele>
        <time>2024-09-22T08:24:48Z</time>
      </trkpt>
      <trkpt lat="49.10061" lon="0.13178">
        <ele>163</ele>
        <time>2024-09-22T08:24:49Z</time>
      </trkpt>
      <trkpt lat="49.10058" lon="0.13166">
        <ele>163</ele>
        <time>2024-09-22T08:24:50Z</time>
      </trkpt>
      <trkpt lat="49.10054" lon="0.13155">
        <ele>162.8</ele>
        <time>2024-09-22T08:24:51Z</time>
      </trkpt>
      <trkpt lat="49.10051" lon="0.13144">
        <ele>162.8</ele>
        <time>2024-09-22T08:24:52Z</time>
      </trkpt>
      <trkpt lat="49.10047" lon="0.13133">
        <ele>162.6</ele>
        <time>2024-09-22T08:24:53Z</time>
      </trkpt>
      <trkpt lat="49.10044" lon="0.13122">
        <ele>162.2</ele>
        <time>2024-09-22T08:24:54Z</time>
      </trkpt>
      <trkpt lat="49.10041" lon="0.13111">
        <ele>162.2</ele>
        <time>2024-09-22T08:24:55Z</time>
      </trkpt>
      <trkpt lat="49.10038" lon="0.131">
        <ele>162</ele>
        <time>2024-09-22T08:24:56Z</time>
      </trkpt>
      <trkpt lat="49.10035" lon="0.13089">
        <ele>162</ele>
        <time>2024-09-22T08:24:57Z</time>
      </trkpt>
      <trkpt lat="49.10033" lon="0.13079">
        <ele>161.8</ele>
        <time>2024-09-22T08:24:58Z</time>
      </trkpt>
      <trkpt lat="49.1003" lon="0.13068">
        <ele>161.8</ele>
        <time>2024-09-22T08:24:59Z</time>
      </trkpt>
      <trkpt lat="49.10026" lon="0.13058">
        <ele>161.6</ele>
        <time>2024-09-22T08:25:00Z</time>
      </trkpt>
      <trkpt lat="49.10023" lon="0.13047">
        <ele>161.2</ele>
        <time>2024-09-22T08:25:01Z</time>
      </trkpt>
      <trkpt lat="49.1002" lon="0.13036">
        <ele>161</ele>
        <time>2024-09-22T08:25:02Z</time>
      </trkpt>
      <trkpt lat="49.10017" lon="0.13025">
        <ele>160.8</ele>
        <time>2024-09-22T08:25:03Z</time>
      </trkpt>
      <trkpt lat="49.10014" lon="0.13014">
        <ele>160.6</ele>
        <time>2024-09-22T08:25:04Z</time>
      </trkpt>
      <trkpt lat="49.1001" lon="0.12999">
        <ele>160.4</ele>
        <time>2024-09-22T08:25:05Z</time>
      </trkpt>
      <trkpt lat="49.10006" lon="0.12986">
        <ele>160.2</ele>
        <time>2024-09-22T08:25:06Z</time>
      </trkpt>
      <trkpt lat="49.10003" lon="0.12976">
        <ele>160.2</ele>
        <time>2024-09-22T08:25:07Z</time>
      </trkpt>
      <trkpt lat="49.09999" lon="0.12963">
        <ele>160</ele>
        <time>2024-09-22T08:25:08Z</time>
      </trkpt>
      <trkpt lat="49.09995" lon="0.1295">
        <ele>160</ele>
        <time>2024-09-22T08:25:09Z</time>
      </trkpt>
      <trkpt lat="49.0999" lon="0.12937">
        <ele>159.8</ele>
        <time>2024-09-22T08:25:10Z</time>
      </trkpt>
      <trkpt lat="49.09984" lon="0.12922">
        <ele>159.8</ele>
        <time>2024-09-22T08:25:11Z</time>
      </trkpt>
      <trkpt lat="49.09978" lon="0.1291">
        <ele>159.8</ele>
        <time>2024-09-22T08:25:12Z</time>
      </trkpt>
      <trkpt lat="49.09973" lon="0.12898">
        <ele>159.4</ele>
        <time>2024-09-22T08:25:13Z</time>
      </trkpt>
      <trkpt lat="49.09968" lon="0.12886">
        <ele>159</ele>
        <time>2024-09-22T08:25:14Z</time>
      </trkpt>
      <trkpt lat="49.09963" lon="0.12876">
        <ele>158.8</ele>
        <time>2024-09-22T08:25:15Z</time>
      </trkpt>
      <trkpt lat="49.09957" lon="0.12865">
        <ele>158.6</ele>
        <time>2024-09-22T08:25:16Z</time>
      </trkpt>
      <trkpt lat="49.09952" lon="0.12854">
        <ele>158.4</ele>
        <time>2024-09-22T08:25:17Z</time>
      </trkpt>
      <trkpt lat="49.09946" lon="0.12843">
        <ele>158.4</ele>
        <time>2024-09-22T08:25:18Z</time>
      </trkpt>
      <trkpt lat="49.0994" lon="0.12832">
        <ele>158.2</ele>
        <time>2024-09-22T08:25:19Z</time>
      </trkpt>
      <trkpt lat="49.09935" lon="0.12821">
        <ele>158.2</ele>
        <time>2024-09-22T08:25:20Z</time>
      </trkpt>
      <trkpt lat="49.09929" lon="0.1281">
        <ele>157.8</ele>
        <time>2024-09-22T08:25:21Z</time>
      </trkpt>
      <trkpt lat="49.09924" lon="0.128">
        <ele>157.6</ele>
        <time>2024-09-22T08:25:22Z</time>
      </trkpt>
      <trkpt lat="49.09919" lon="0.12792">
        <ele>157.4</ele>
        <time>2024-09-22T08:25:23Z</time>
      </trkpt>
      <trkpt lat="49.09914" lon="0.12781">
        <ele>157.2</ele>
        <time>2024-09-22T08:25:24Z</time>
      </trkpt>
      <trkpt lat="49.09907" lon="0.12768">
        <ele>157</ele>
        <time>2024-09-22T08:25:25Z</time>
      </trkpt>
      <trkpt lat="49.09901" lon="0.12758">
        <ele>156.8</ele>
        <time>2024-09-22T08:25:26Z</time>
      </trkpt>
      <trkpt lat="49.09896" lon="0.12747">
        <ele>156.6</ele>
        <time>2024-09-22T08:25:27Z</time>
      </trkpt>
      <trkpt lat="49.0989" lon="0.12736">
        <ele>156.4</ele>
        <time>2024-09-22T08:25:28Z</time>
      </trkpt>
      <trkpt lat="49.09885" lon="0.12724">
        <ele>156.4</ele>
        <time>2024-09-22T08:25:29Z</time>
      </trkpt>
      <trkpt lat="49.0988" lon="0.12713">
        <ele>156.2</ele>
        <time>2024-09-22T08:25:30Z</time>
      </trkpt>
      <trkpt lat="49.09875" lon="0.12702">
        <ele>156.2</ele>
        <time>2024-09-22T08:25:31Z</time>
      </trkpt>
      <trkpt lat="49.09871" lon="0.12693">
        <ele>156.2</ele>
        <time>2024-09-22T08:25:32Z</time>
      </trkpt>
      <trkpt lat="49.09865" lon="0.12679">
        <ele>156</ele>
        <time>2024-09-22T08:25:33Z</time>
      </trkpt>
      <trkpt lat="49.09861" lon="0.12667">
        <ele>155.8</ele>
        <time>2024-09-22T08:25:34Z</time>
      </trkpt>
      <trkpt lat="49.09856" lon="0.12656">
        <ele>155.6</ele>
        <time>2024-09-22T08:25:35Z</time>
      </trkpt>
      <trkpt lat="49.09851" lon="0.12644">
        <ele>155.4</ele>
        <time>2024-09-22T08:25:36Z</time>
      </trkpt>
      <trkpt lat="49.09847" lon="0.12632">
        <ele>155</ele>
        <time>2024-09-22T08:25:37Z</time>
      </trkpt>
      <trkpt lat="49.09842" lon="0.1262">
        <ele>154.8</ele>
        <time>2024-09-22T08:25:38Z</time>
      </trkpt>
      <trkpt lat="49.09838" lon="0.12608">
        <ele>154.6</ele>
        <time>2024-09-22T08:25:39Z</time>
      </trkpt>
      <trkpt lat="49.09835" lon="0.12598">
        <ele>154.4</ele>
        <time>2024-09-22T08:25:40Z</time>
      </trkpt>
      <trkpt lat="49.09829" lon="0.12584">
        <ele>154.4</ele>
        <time>2024-09-22T08:25:41Z</time>
      </trkpt>
      <trkpt lat="49.09825" lon="0.12571">
        <ele>154.4</ele>
        <time>2024-09-22T08:25:42Z</time>
      </trkpt>
      <trkpt lat="49.0982" lon="0.12559">
        <ele>154.2</ele>
        <time>2024-09-22T08:25:43Z</time>
      </trkpt>
      <trkpt lat="49.09815" lon="0.12547">
        <ele>154.2</ele>
        <time>2024-09-22T08:25:44Z</time>
      </trkpt>
      <trkpt lat="49.09811" lon="0.12535">
        <ele>154.2</ele>
        <time>2024-09-22T08:25:45Z</time>
      </trkpt>
      <trkpt lat="49.09806" lon="0.12523">
        <ele>154</ele>
        <time>2024-09-22T08:25:46Z</time>
      </trkpt>
      <trkpt lat="49.09801" lon="0.12511">
        <ele>154</ele>
        <time>2024-09-22T08:25:47Z</time>
      </trkpt>
      <trkpt lat="49.09797" lon="0.12502">
        <ele>154</ele>
        <time>2024-09-22T08:25:48Z</time>
      </trkpt>
      <trkpt lat="49.09791" lon="0.12487">
        <ele>154</ele>
        <time>2024-09-22T08:25:49Z</time>
      </trkpt>
      <trkpt lat="49.09786" lon="0.12476">
        <ele>153.8</ele>
        <time>2024-09-22T08:25:50Z</time>
      </trkpt>
      <trkpt lat="49.09781" lon="0.12466">
        <ele>153.6</ele>
        <time>2024-09-22T08:25:51Z</time>
      </trkpt>
      <trkpt lat="49.09776" lon="0.12454">
        <ele>153.6</ele>
        <time>2024-09-22T08:25:52Z</time>
      </trkpt>
      <trkpt lat="49.09769" lon="0.1244">
        <ele>153.2</ele>
        <time>2024-09-22T08:25:53Z</time>
      </trkpt>
      <trkpt lat="49.09763" lon="0.12429">
        <ele>153</ele>
        <time>2024-09-22T08:25:54Z</time>
      </trkpt>
      <trkpt lat="49.09757" lon="0.12417">
        <ele>152.6</ele>
        <time>2024-09-22T08:25:55Z</time>
      </trkpt>
      <trkpt lat="49.09751" lon="0.12406">
        <ele>152.4</ele>
        <time>2024-09-22T08:25:56Z</time>
      </trkpt>
      <trkpt lat="49.09745" lon="0.12395">
        <ele>152.4</ele>
        <time>2024-09-22T08:25:57Z</time>
      </trkpt>
      <trkpt lat="49.0974" lon="0.12385">
        <ele>152.2</ele>
        <time>2024-09-22T08:25:58Z</time>
      </trkpt>
      <trkpt lat="49.09734" lon="0.12374">
        <ele>152.2</ele>
        <time>2024-09-22T08:25:59Z</time>
      </trkpt>
      <trkpt lat="49.09728" lon="0.12364">
        <ele>152</ele>
        <time>2024-09-22T08:26:00Z</time>
      </trkpt>
      <trkpt lat="49.09722" lon="0.12353">
        <ele>152</ele>
        <time>2024-09-22T08:26:01Z</time>
      </trkpt>
      <trkpt lat="49.09716" lon="0.12342">
        <ele>151.8</ele>
        <time>2024-09-22T08:26:02Z</time>
      </trkpt>
      <trkpt lat="49.09711" lon="0.12332">
        <ele>151.8</ele>
        <time>2024-09-22T08:26:03Z</time>
      </trkpt>
      <trkpt lat="49.09705" lon="0.12321">
        <ele>151.6</ele>
        <time>2024-09-22T08:26:04Z</time>
      </trkpt>
      <trkpt lat="49.09699" lon="0.12309">
        <ele>151.6</ele>
        <time>2024-09-22T08:26:05Z</time>
      </trkpt>
      <trkpt lat="49.09693" lon="0.12298">
        <ele>151.4</ele>
        <time>2024-09-22T08:26:06Z</time>
      </trkpt>
      <trkpt lat="49.09688" lon="0.12287">
        <ele>151.4</ele>
        <time>2024-09-22T08:26:07Z</time>
      </trkpt>
      <trkpt lat="49.09683" lon="0.12279">
        <ele>151.4</ele>
        <time>2024-09-22T08:26:08Z</time>
      </trkpt>
      <trkpt lat="49.09676" lon="0.12266">
        <ele>151.2</ele>
        <time>2024-09-22T08:26:09Z</time>
      </trkpt>
      <trkpt lat="49.0967" lon="0.12257">
        <ele>151</ele>
        <time>2024-09-22T08:26:10Z</time>
      </trkpt>
      <trkpt lat="49.09664" lon="0.12247">
        <ele>150.6</ele>
        <time>2024-09-22T08:26:11Z</time>
      </trkpt>
      <trkpt lat="49.09658" lon="0.12237">
        <ele>150.6</ele>
        <time>2024-09-22T08:26:12Z</time>
      </trkpt>
      <trkpt lat="49.09652" lon="0.12228">
        <ele>150.6</ele>
        <time>2024-09-22T08:26:13Z</time>
      </trkpt>
      <trkpt lat="49.09646" lon="0.12219">
        <ele>150.4</ele>
        <time>2024-09-22T08:26:14Z</time>
      </trkpt>
      <trkpt lat="49.0964" lon="0.1221">
        <ele>150.4</ele>
        <time>2024-09-22T08:26:15Z</time>
      </trkpt>
      <trkpt lat="49.09634" lon="0.12204">
        <ele>150.4</ele>
        <time>2024-09-22T08:26:16Z</time>
      </trkpt>
      <trkpt lat="49.09626" lon="0.12194">
        <ele>150.4</ele>
        <time>2024-09-22T08:26:17Z</time>
      </trkpt>
      <trkpt lat="49.09619" lon="0.12187">
        <ele>150.4</ele>
        <time>2024-09-22T08:26:18Z</time>
      </trkpt>
      <trkpt lat="49.09612" lon="0.12181">
        <ele>150.2</ele>
        <time>2024-09-22T08:26:19Z</time>
      </trkpt>
      <trkpt lat="49.09604" lon="0.12175">
        <ele>150.2</ele>
        <time>2024-09-22T08:26:20Z</time>
      </trkpt>
      <trkpt lat="49.09597" lon="0.12169">
        <ele>150.2</ele>
        <time>2024-09-22T08:26:21Z</time>
      </trkpt>
      <trkpt lat="49.09589" lon="0.12163">
        <ele>150.2</ele>
        <time>2024-09-22T08:26:22Z</time>
      </trkpt>
      <trkpt lat="49.09582" lon="0.12158">
        <ele>150</ele>
        <time>2024-09-22T08:26:23Z</time>
      </trkpt>
      <trkpt lat="49.09575" lon="0.12154">
        <ele>150</ele>
        <time>2024-09-22T08:26:24Z</time>
      </trkpt>
      <trkpt lat="49.09566" lon="0.12148">
        <ele>150</ele>
        <time>2024-09-22T08:26:25Z</time>
      </trkpt>
      <trkpt lat="49.09557" lon="0.12144">
        <ele>150</ele>
        <time>2024-09-22T08:26:26Z</time>
      </trkpt>
      <trkpt lat="49.09548" lon="0.12139">
        <ele>149.8</ele>
        <time>2024-09-22T08:26:27Z</time>
      </trkpt>
      <trkpt lat="49.09539" lon="0.12135">
        <ele>149.6</ele>
        <time>2024-09-22T08:26:28Z</time>
      </trkpt>
      <trkpt lat="49.0953" lon="0.1213">
        <ele>149.6</ele>
        <time>2024-09-22T08:26:29Z</time>
      </trkpt>
      <trkpt lat="49.0952" lon="0.12125">
        <ele>149.4</ele>
        <time>2024-09-22T08:26:30Z</time>
      </trkpt>
      <trkpt lat="49.0951" lon="0.1212">
        <ele>149</ele>
        <time>2024-09-22T08:26:31Z</time>
      </trkpt>
      <trkpt lat="49.09502" lon="0.12116">
        <ele>149</ele>
        <time>2024-09-22T08:26:32Z</time>
      </trkpt>
      <trkpt lat="49.09492" lon="0.1211">
        <ele>148.8</ele>
        <time>2024-09-22T08:26:33Z</time>
      </trkpt>
      <trkpt lat="49.09482" lon="0.12105">
        <ele>148.4</ele>
        <time>2024-09-22T08:26:34Z</time>
      </trkpt>
      <trkpt lat="49.09471" lon="0.12099">
        <ele>148</ele>
        <time>2024-09-22T08:26:35Z</time>
      </trkpt>
      <trkpt lat="49.09458" lon="0.12092">
        <ele>147.4</ele>
        <time>2024-09-22T08:26:36Z</time>
      </trkpt>
      <trkpt lat="49.09448" lon="0.12087">
        <ele>146.8</ele>
        <time>2024-09-22T08:26:37Z</time>
      </trkpt>
      <trkpt lat="49.09438" lon="0.12081">
        <ele>146.2</ele>
        <time>2024-09-22T08:26:38Z</time>
      </trkpt>
      <trkpt lat="49.09427" lon="0.12075">
        <ele>145.4</ele>
        <time>2024-09-22T08:26:39Z</time>
      </trkpt>
      <trkpt lat="49.09418" lon="0.12071">
        <ele>144.6</ele>
        <time>2024-09-22T08:26:40Z</time>
      </trkpt>
      <trkpt lat="49.09405" lon="0.12064">
        <ele>143.8</ele>
        <time>2024-09-22T08:26:41Z</time>
      </trkpt>
      <trkpt lat="49.09394" lon="0.12058">
        <ele>143</ele>
        <time>2024-09-22T08:26:42Z</time>
      </trkpt>
      <trkpt lat="49.09383" lon="0.12053">
        <ele>142.2</ele>
        <time>2024-09-22T08:26:43Z</time>
      </trkpt>
      <trkpt lat="49.09372" lon="0.12047">
        <ele>141.6</ele>
        <time>2024-09-22T08:26:44Z</time>
      </trkpt>
      <trkpt lat="49.09361" lon="0.12042">
        <ele>140.6</ele>
        <time>2024-09-22T08:26:45Z</time>
      </trkpt>
      <trkpt lat="49.0935" lon="0.12039">
        <ele>139.8</ele>
        <time>2024-09-22T08:26:46Z</time>
      </trkpt>
      <trkpt lat="49.09338" lon="0.12037">
        <ele>139</ele>
        <time>2024-09-22T08:26:47Z</time>
      </trkpt>
      <trkpt lat="49.09328" lon="0.12037">
        <ele>138.2</ele>
        <time>2024-09-22T08:26:48Z</time>
      </trkpt>
      <trkpt lat="49.09316" lon="0.12038">
        <ele>137.4</ele>
        <time>2024-09-22T08:26:49Z</time>
      </trkpt>
      <trkpt lat="49.09302" lon="0.12042">
        <ele>136.4</ele>
        <time>2024-09-22T08:26:50Z</time>
      </trkpt>
      <trkpt lat="49.09289" lon="0.12045">
        <ele>135.6</ele>
        <time>2024-09-22T08:26:51Z</time>
      </trkpt>
      <trkpt lat="49.09277" lon="0.12048">
        <ele>135.6</ele>
        <time>2024-09-22T08:26:52Z</time>
      </trkpt>
      <trkpt lat="49.09264" lon="0.12051">
        <ele>134.6</ele>
        <time>2024-09-22T08:26:53Z</time>
      </trkpt>
      <trkpt lat="49.09251" lon="0.12054">
        <ele>133.8</ele>
        <time>2024-09-22T08:26:54Z</time>
      </trkpt>
      <trkpt lat="49.09238" lon="0.12058">
        <ele>133</ele>
        <time>2024-09-22T08:26:55Z</time>
      </trkpt>
      <trkpt lat="49.09225" lon="0.12061">
        <ele>132</ele>
        <time>2024-09-22T08:26:56Z</time>
      </trkpt>
      <trkpt lat="49.09212" lon="0.12063">
        <ele>131.2</ele>
        <time>2024-09-22T08:26:57Z</time>
      </trkpt>
      <trkpt lat="49.09199" lon="0.12064">
        <ele>130.2</ele>
        <time>2024-09-22T08:26:58Z</time>
      </trkpt>
      <trkpt lat="49.09185" lon="0.12064">
        <ele>129.2</ele>
        <time>2024-09-22T08:26:59Z</time>
      </trkpt>
      <trkpt lat="49.09172" lon="0.12062">
        <ele>128.2</ele>
        <time>2024-09-22T08:27:00Z</time>
      </trkpt>
      <trkpt lat="49.09159" lon="0.12057">
        <ele>127.2</ele>
        <time>2024-09-22T08:27:01Z</time>
      </trkpt>
      <trkpt lat="49.09147" lon="0.12049">
        <ele>126.4</ele>
        <time>2024-09-22T08:27:02Z</time>
      </trkpt>
      <trkpt lat="49.09135" lon="0.12038">
        <ele>125.6</ele>
        <time>2024-09-22T08:27:03Z</time>
      </trkpt>
      <trkpt lat="49.09126" lon="0.12024">
        <ele>124.6</ele>
        <time>2024-09-22T08:27:04Z</time>
      </trkpt>
      <trkpt lat="49.09117" lon="0.12008">
        <ele>123.8</ele>
        <time>2024-09-22T08:27:05Z</time>
      </trkpt>
      <trkpt lat="49.0911" lon="0.11991">
        <ele>122.6</ele>
        <time>2024-09-22T08:27:06Z</time>
      </trkpt>
      <trkpt lat="49.09103" lon="0.11973">
        <ele>121.8</ele>
        <time>2024-09-22T08:27:07Z</time>
      </trkpt>
      <trkpt lat="49.09097" lon="0.11954">
        <ele>120.8</ele>
        <time>2024-09-22T08:27:08Z</time>
      </trkpt>
      <trkpt lat="49.09092" lon="0.11935">
        <ele>120.2</ele>
        <time>2024-09-22T08:27:09Z</time>
      </trkpt>
      <trkpt lat="49.09086" lon="0.11916">
        <ele>119.4</ele>
        <time>2024-09-22T08:27:10Z</time>
      </trkpt>
      <trkpt lat="49.09081" lon="0.11896">
        <ele>118.4</ele>
        <time>2024-09-22T08:27:11Z</time>
      </trkpt>
      <trkpt lat="49.09075" lon="0.11877">
        <ele>118.4</ele>
        <time>2024-09-22T08:27:12Z</time>
      </trkpt>
      <trkpt lat="49.0907" lon="0.11858">
        <ele>116.8</ele>
        <time>2024-09-22T08:27:13Z</time>
      </trkpt>
      <trkpt lat="49.09064" lon="0.11839">
        <ele>115.8</ele>
        <time>2024-09-22T08:27:14Z</time>
      </trkpt>
      <trkpt lat="49.09059" lon="0.1182">
        <ele>114.2</ele>
        <time>2024-09-22T08:27:15Z</time>
      </trkpt>
      <trkpt lat="49.09054" lon="0.118">
        <ele>112.6</ele>
        <time>2024-09-22T08:27:16Z</time>
      </trkpt>
      <trkpt lat="49.09049" lon="0.11781">
        <ele>111.4</ele>
        <time>2024-09-22T08:27:17Z</time>
      </trkpt>
      <trkpt lat="49.09044" lon="0.1176">
        <ele>110.4</ele>
        <time>2024-09-22T08:27:18Z</time>
      </trkpt>
      <trkpt lat="49.09039" lon="0.1174">
        <ele>109.8</ele>
        <time>2024-09-22T08:27:19Z</time>
      </trkpt>
      <trkpt lat="49.09034" lon="0.1172">
        <ele>109</ele>
        <time>2024-09-22T08:27:20Z</time>
      </trkpt>
      <trkpt lat="49.09029" lon="0.11701">
        <ele>108.2</ele>
        <time>2024-09-22T08:27:21Z</time>
      </trkpt>
      <trkpt lat="49.09024" lon="0.11682">
        <ele>107.6</ele>
        <time>2024-09-22T08:27:22Z</time>
      </trkpt>
      <trkpt lat="49.09018" lon="0.11663">
        <ele>106.8</ele>
        <time>2024-09-22T08:27:23Z</time>
      </trkpt>
      <trkpt lat="49.09012" lon="0.11644">
        <ele>106</ele>
        <time>2024-09-22T08:27:24Z</time>
      </trkpt>
      <trkpt lat="49.09005" lon="0.11626">
        <ele>105.2</ele>
        <time>2024-09-22T08:27:25Z</time>
      </trkpt>
      <trkpt lat="49.08998" lon="0.11608">
        <ele>104</ele>
        <time>2024-09-22T08:27:26Z</time>
      </trkpt>
      <trkpt lat="49.08992" lon="0.1159">
        <ele>103.2</ele>
        <time>2024-09-22T08:27:27Z</time>
      </trkpt>
      <trkpt lat="49.08985" lon="0.11572">
        <ele>102.2</ele>
        <time>2024-09-22T08:27:28Z</time>
      </trkpt>
      <trkpt lat="49.08978" lon="0.11553">
        <ele>101.4</ele>
        <time>2024-09-22T08:27:29Z</time>
      </trkpt>
      <trkpt lat="49.08971" lon="0.11535">
        <ele>100.4</ele>
        <time>2024-09-22T08:27:30Z</time>
      </trkpt>
      <trkpt lat="49.08964" lon="0.11516">
        <ele>99.4</ele>
        <time>2024-09-22T08:27:31Z</time>
      </trkpt>
      <trkpt lat="49.08958" lon="0.11497">
        <ele>99.4</ele>
        <time>2024-09-22T08:27:32Z</time>
      </trkpt>
      <trkpt lat="49.08951" lon="0.11478">
        <ele>98.6</ele>
        <time>2024-09-22T08:27:33Z</time>
      </trkpt>
      <trkpt lat="49.08944" lon="0.1146">
        <ele>97.6</ele>
        <time>2024-09-22T08:27:34Z</time>
      </trkpt>
      <trkpt lat="49.08937" lon="0.11441">
        <ele>96.6</ele>
        <time>2024-09-22T08:27:35Z</time>
      </trkpt>
      <trkpt lat="49.08931" lon="0.11422">
        <ele>96</ele>
        <time>2024-09-22T08:27:36Z</time>
      </trkpt>
      <trkpt lat="49.08924" lon="0.11404">
        <ele>95.4</ele>
        <time>2024-09-22T08:27:37Z</time>
      </trkpt>
      <trkpt lat="49.08917" lon="0.11385">
        <ele>94.8</ele>
        <time>2024-09-22T08:27:38Z</time>
      </trkpt>
      <trkpt lat="49.0891" lon="0.11367">
        <ele>94</ele>
        <time>2024-09-22T08:27:39Z</time>
      </trkpt>
      <trkpt lat="49.08903" lon="0.11354">
        <ele>93</ele>
        <time>2024-09-22T08:27:40Z</time>
      </trkpt>
      <trkpt lat="49.08893" lon="0.11334">
        <ele>92</ele>
        <time>2024-09-22T08:27:41Z</time>
      </trkpt>
      <trkpt lat="49.08882" lon="0.11318">
        <ele>91</ele>
        <time>2024-09-22T08:27:42Z</time>
      </trkpt>
      <trkpt lat="49.08871" lon="0.11304">
        <ele>89.8</ele>
        <time>2024-09-22T08:27:43Z</time>
      </trkpt>
      <trkpt lat="49.0886" lon="0.11292">
        <ele>89</ele>
        <time>2024-09-22T08:27:44Z</time>
      </trkpt>
      <trkpt lat="49.08849" lon="0.11279">
        <ele>88</ele>
        <time>2024-09-22T08:27:45Z</time>
      </trkpt>
      <trkpt lat="49.08837" lon="0.11266">
        <ele>87</ele>
        <time>2024-09-22T08:27:46Z</time>
      </trkpt>
      <trkpt lat="49.08826" lon="0.11254">
        <ele>86.2</ele>
        <time>2024-09-22T08:27:47Z</time>
      </trkpt>
      <trkpt lat="49.08815" lon="0.11241">
        <ele>85.2</ele>
        <time>2024-09-22T08:27:48Z</time>
      </trkpt>
      <trkpt lat="49.08804" lon="0.11229">
        <ele>84.4</ele>
        <time>2024-09-22T08:27:49Z</time>
      </trkpt>
      <trkpt lat="49.08793" lon="0.11217">
        <ele>83.2</ele>
        <time>2024-09-22T08:27:50Z</time>
      </trkpt>
      <trkpt lat="49.08781" lon="0.11204">
        <ele>82.4</ele>
        <time>2024-09-22T08:27:51Z</time>
      </trkpt>
      <trkpt lat="49.08769" lon="0.11191">
        <ele>82.4</ele>
        <time>2024-09-22T08:27:52Z</time>
      </trkpt>
      <trkpt lat="49.08758" lon="0.11178">
        <ele>81.4</ele>
        <time>2024-09-22T08:27:53Z</time>
      </trkpt>
      <trkpt lat="49.08746" lon="0.11165">
        <ele>80.8</ele>
        <time>2024-09-22T08:27:54Z</time>
      </trkpt>
      <trkpt lat="49.08734" lon="0.11153">
        <ele>80</ele>
        <time>2024-09-22T08:27:55Z</time>
      </trkpt>
      <trkpt lat="49.08722" lon="0.1114">
        <ele>79</ele>
        <time>2024-09-22T08:27:56Z</time>
      </trkpt>
      <trkpt lat="49.08711" lon="0.11127">
        <ele>78.4</ele>
        <time>2024-09-22T08:27:57Z</time>
      </trkpt>
      <trkpt lat="49.087" lon="0.11115">
        <ele>77.6</ele>
        <time>2024-09-22T08:27:58Z</time>
      </trkpt>
      <trkpt lat="49.08688" lon="0.11102">
        <ele>76.4</ele>
        <time>2024-09-22T08:27:59Z</time>
      </trkpt>
      <trkpt lat="49.08677" lon="0.1109">
        <ele>75.2</ele>
        <time>2024-09-22T08:28:00Z</time>
      </trkpt>
      <trkpt lat="49.08666" lon="0.11078">
        <ele>74.2</ele>
        <time>2024-09-22T08:28:01Z</time>
      </trkpt>
      <trkpt lat="49.08656" lon="0.11066">
        <ele>73</ele>
        <time>2024-09-22T08:28:02Z</time>
      </trkpt>
      <trkpt lat="49.08645" lon="0.11054">
        <ele>72</ele>
        <time>2024-09-22T08:28:03Z</time>
      </trkpt>
      <trkpt lat="49.08635" lon="0.11043">
        <ele>71.4</ele>
        <time>2024-09-22T08:28:04Z</time>
      </trkpt>
      <trkpt lat="49.08626" lon="0.11033">
        <ele>70.6</ele>
        <time>2024-09-22T08:28:05Z</time>
      </trkpt>
      <trkpt lat="49.08617" lon="0.11023">
        <ele>69.6</ele>
        <time>2024-09-22T08:28:06Z</time>
      </trkpt>
      <trkpt lat="49.08608" lon="0.11013">
        <ele>69.2</ele>
        <time>2024-09-22T08:28:07Z</time>
      </trkpt>
      <trkpt lat="49.08599" lon="0.11004">
        <ele>69</ele>
        <time>2024-09-22T08:28:08Z</time>
      </trkpt>
      <trkpt lat="49.08591" lon="0.10995">
        <ele>68.8</ele>
        <time>2024-09-22T08:28:09Z</time>
      </trkpt>
      <trkpt lat="49.08584" lon="0.10987">
        <ele>68.8</ele>
        <time>2024-09-22T08:28:10Z</time>
      </trkpt>
      <trkpt lat="49.08576" lon="0.10979">
        <ele>68.8</ele>
        <time>2024-09-22T08:28:11Z</time>
      </trkpt>
      <trkpt lat="49.08569" lon="0.10971">
        <ele>68.8</ele>
        <time>2024-09-22T08:28:12Z</time>
      </trkpt>
      <trkpt lat="49.08562" lon="0.10963">
        <ele>68.8</ele>
        <time>2024-09-22T08:28:13Z</time>
      </trkpt>
      <trkpt lat="49.08555" lon="0.10955">
        <ele>68.8</ele>
        <time>2024-09-22T08:28:14Z</time>
      </trkpt>
      <trkpt lat="49.08548" lon="0.10947">
        <ele>68.8</ele>
        <time>2024-09-22T08:28:15Z</time>
      </trkpt>
      <trkpt lat="49.08542" lon="0.1094">
        <ele>68.8</ele>
        <time>2024-09-22T08:28:16Z</time>
      </trkpt>
      <trkpt lat="49.08535" lon="0.10932">
        <ele>69.2</ele>
        <time>2024-09-22T08:28:17Z</time>
      </trkpt>
      <trkpt lat="49.08529" lon="0.10925">
        <ele>70.2</ele>
        <time>2024-09-22T08:28:18Z</time>
      </trkpt>
      <trkpt lat="49.08522" lon="0.10918">
        <ele>71.2</ele>
        <time>2024-09-22T08:28:19Z</time>
      </trkpt>
      <trkpt lat="49.08516" lon="0.10912">
        <ele>72.2</ele>
        <time>2024-09-22T08:28:20Z</time>
      </trkpt>
      <trkpt lat="49.08509" lon="0.10906">
        <ele>73</ele>
        <time>2024-09-22T08:28:21Z</time>
      </trkpt>
      <trkpt lat="49.08503" lon="0.10899">
        <ele>74</ele>
        <time>2024-09-22T08:28:22Z</time>
      </trkpt>
      <trkpt lat="49.08497" lon="0.10893">
        <ele>74.8</ele>
        <time>2024-09-22T08:28:23Z</time>
      </trkpt>
      <trkpt lat="49.08492" lon="0.10887">
        <ele>75.4</ele>
        <time>2024-09-22T08:28:24Z</time>
      </trkpt>
      <trkpt lat="49.08486" lon="0.10881">
        <ele>76</ele>
        <time>2024-09-22T08:28:25Z</time>
      </trkpt>
      <trkpt lat="49.0848" lon="0.10875">
        <ele>76.6</ele>
        <time>2024-09-22T08:28:26Z</time>
      </trkpt>
      <trkpt lat="49.08475" lon="0.10869">
        <ele>77.2</ele>
        <time>2024-09-22T08:28:27Z</time>
      </trkpt>
      <trkpt lat="49.0847" lon="0.10863">
        <ele>77.8</ele>
        <time>2024-09-22T08:28:28Z</time>
      </trkpt>
      <trkpt lat="49.08464" lon="0.10856">
        <ele>78.2</ele>
        <time>2024-09-22T08:28:29Z</time>
      </trkpt>
      <trkpt lat="49.08459" lon="0.1085">
        <ele>78.8</ele>
        <time>2024-09-22T08:28:30Z</time>
      </trkpt>
      <trkpt lat="49.08453" lon="0.10843">
        <ele>79.2</ele>
        <time>2024-09-22T08:28:31Z</time>
      </trkpt>
      <trkpt lat="49.08447" lon="0.10837">
        <ele>79.2</ele>
        <time>2024-09-22T08:28:32Z</time>
      </trkpt>
      <trkpt lat="49.08441" lon="0.1083">
        <ele>79.8</ele>
        <time>2024-09-22T08:28:33Z</time>
      </trkpt>
      <trkpt lat="49.08435" lon="0.10823">
        <ele>80.2</ele>
        <time>2024-09-22T08:28:34Z</time>
      </trkpt>
      <trkpt lat="49.08428" lon="0.10816">
        <ele>80.4</ele>
        <time>2024-09-22T08:28:35Z</time>
      </trkpt>
      <trkpt lat="49.08422" lon="0.10809">
        <ele>80.4</ele>
        <time>2024-09-22T08:28:36Z</time>
      </trkpt>
      <trkpt lat="49.08415" lon="0.10801">
        <ele>80.4</ele>
        <time>2024-09-22T08:28:37Z</time>
      </trkpt>
      <trkpt lat="49.08408" lon="0.10793">
        <ele>80.6</ele>
        <time>2024-09-22T08:28:38Z</time>
      </trkpt>
      <trkpt lat="49.08401" lon="0.10785">
        <ele>80.6</ele>
        <time>2024-09-22T08:28:39Z</time>
      </trkpt>
      <trkpt lat="49.08393" lon="0.10777">
        <ele>80.6</ele>
        <time>2024-09-22T08:28:40Z</time>
      </trkpt>
      <trkpt lat="49.08386" lon="0.10769">
        <ele>80.6</ele>
        <time>2024-09-22T08:28:41Z</time>
      </trkpt>
      <trkpt lat="49.08378" lon="0.10761">
        <ele>80.6</ele>
        <time>2024-09-22T08:28:42Z</time>
      </trkpt>
      <trkpt lat="49.08372" lon="0.10755">
        <ele>80.6</ele>
        <time>2024-09-22T08:28:43Z</time>
      </trkpt>
      <trkpt lat="49.08363" lon="0.10745">
        <ele>80.4</ele>
        <time>2024-09-22T08:28:44Z</time>
      </trkpt>
      <trkpt lat="49.08356" lon="0.10737">
        <ele>80</ele>
        <time>2024-09-22T08:28:45Z</time>
      </trkpt>
      <trkpt lat="49.08348" lon="0.10728">
        <ele>79.6</ele>
        <time>2024-09-22T08:28:46Z</time>
      </trkpt>
      <trkpt lat="49.08341" lon="0.1072">
        <ele>79.6</ele>
        <time>2024-09-22T08:28:47Z</time>
      </trkpt>
      <trkpt lat="49.08333" lon="0.10712">
        <ele>79.2</ele>
        <time>2024-09-22T08:28:48Z</time>
      </trkpt>
      <trkpt lat="49.08326" lon="0.10703">
        <ele>78.8</ele>
        <time>2024-09-22T08:28:49Z</time>
      </trkpt>
      <trkpt lat="49.08318" lon="0.10696">
        <ele>78.2</ele>
        <time>2024-09-22T08:28:50Z</time>
      </trkpt>
      <trkpt lat="49.08311" lon="0.10688">
        <ele>77.8</ele>
        <time>2024-09-22T08:28:51Z</time>
      </trkpt>
      <trkpt lat="49.08304" lon="0.1068">
        <ele>77.8</ele>
        <time>2024-09-22T08:28:52Z</time>
      </trkpt>
      <trkpt lat="49.08297" lon="0.10672">
        <ele>77.2</ele>
        <time>2024-09-22T08:28:53Z</time>
      </trkpt>
      <trkpt lat="49.0829" lon="0.10664">
        <ele>76.8</ele>
        <time>2024-09-22T08:28:54Z</time>
      </trkpt>
      <trkpt lat="49.08283" lon="0.10656">
        <ele>76.4</ele>
        <time>2024-09-22T08:28:55Z</time>
      </trkpt>
      <trkpt lat="49.08276" lon="0.10649">
        <ele>75.8</ele>
        <time>2024-09-22T08:28:56Z</time>
      </trkpt>
      <trkpt lat="49.08269" lon="0.10642">
        <ele>75.6</ele>
        <time>2024-09-22T08:28:57Z</time>
      </trkpt>
      <trkpt lat="49.08262" lon="0.10634">
        <ele>75.2</ele>
        <time>2024-09-22T08:28:58Z</time>
      </trkpt>
      <trkpt lat="49.08256" lon="0.10627">
        <ele>74.8</ele>
        <time>2024-09-22T08:28:59Z</time>
      </trkpt>
      <trkpt lat="49.08249" lon="0.10619">
        <ele>74.6</ele>
        <time>2024-09-22T08:29:00Z</time>
      </trkpt>
      <trkpt lat="49.08243" lon="0.10612">
        <ele>74.4</ele>
        <time>2024-09-22T08:29:01Z</time>
      </trkpt>
      <trkpt lat="49.08236" lon="0.10604">
        <ele>74.2</ele>
        <time>2024-09-22T08:29:02Z</time>
      </trkpt>
      <trkpt lat="49.0823" lon="0.10596">
        <ele>74.2</ele>
        <time>2024-09-22T08:29:03Z</time>
      </trkpt>
      <trkpt lat="49.08223" lon="0.10588">
        <ele>74.2</ele>
        <time>2024-09-22T08:29:04Z</time>
      </trkpt>
      <trkpt lat="49.08216" lon="0.1058">
        <ele>74</ele>
        <time>2024-09-22T08:29:05Z</time>
      </trkpt>
      <trkpt lat="49.08209" lon="0.10571">
        <ele>74</ele>
        <time>2024-09-22T08:29:06Z</time>
      </trkpt>
      <trkpt lat="49.08203" lon="0.10561">
        <ele>74</ele>
        <time>2024-09-22T08:29:07Z</time>
      </trkpt>
      <trkpt lat="49.08197" lon="0.10551">
        <ele>73.8</ele>
        <time>2024-09-22T08:29:08Z</time>
      </trkpt>
      <trkpt lat="49.08192" lon="0.10542">
        <ele>73.8</ele>
        <time>2024-09-22T08:29:09Z</time>
      </trkpt>
      <trkpt lat="49.08186" lon="0.10531">
        <ele>73.6</ele>
        <time>2024-09-22T08:29:10Z</time>
      </trkpt>
      <trkpt lat="49.0818" lon="0.10516">
        <ele>73.4</ele>
        <time>2024-09-22T08:29:11Z</time>
      </trkpt>
      <trkpt lat="49.08175" lon="0.10503">
        <ele>73.4</ele>
        <time>2024-09-22T08:29:12Z</time>
      </trkpt>
      <trkpt lat="49.0817" lon="0.1049">
        <ele>73</ele>
        <time>2024-09-22T08:29:13Z</time>
      </trkpt>
      <trkpt lat="49.08166" lon="0.10476">
        <ele>72.6</ele>
        <time>2024-09-22T08:29:14Z</time>
      </trkpt>
      <trkpt lat="49.08162" lon="0.10462">
        <ele>72.2</ele>
        <time>2024-09-22T08:29:15Z</time>
      </trkpt>
      <trkpt lat="49.08158" lon="0.10448">
        <ele>71.8</ele>
        <time>2024-09-22T08:29:16Z</time>
      </trkpt>
      <trkpt lat="49.08154" lon="0.10434">
        <ele>71.2</ele>
        <time>2024-09-22T08:29:17Z</time>
      </trkpt>
      <trkpt lat="49.0815" lon="0.1042">
        <ele>70.6</ele>
        <time>2024-09-22T08:29:18Z</time>
      </trkpt>
      <trkpt lat="49.08147" lon="0.10406">
        <ele>70</ele>
        <time>2024-09-22T08:29:19Z</time>
      </trkpt>
      <trkpt lat="49.08143" lon="0.10392">
        <ele>69.4</ele>
        <time>2024-09-22T08:29:20Z</time>
      </trkpt>
      <trkpt lat="49.0814" lon="0.10378">
        <ele>68.8</ele>
        <time>2024-09-22T08:29:21Z</time>
      </trkpt>
      <trkpt lat="49.08136" lon="0.10365">
        <ele>68.2</ele>
        <time>2024-09-22T08:29:22Z</time>
      </trkpt>
      <trkpt lat="49.08133" lon="0.10352">
        <ele>67.6</ele>
        <time>2024-09-22T08:29:23Z</time>
      </trkpt>
      <trkpt lat="49.0813" lon="0.10339">
        <ele>67</ele>
        <time>2024-09-22T08:29:24Z</time>
      </trkpt>
      <trkpt lat="49.08127" lon="0.10326">
        <ele>66.4</ele>
        <time>2024-09-22T08:29:25Z</time>
      </trkpt>
      <trkpt lat="49.08124" lon="0.10316">
        <ele>66</ele>
        <time>2024-09-22T08:29:26Z</time>
      </trkpt>
      <trkpt lat="49.0812" lon="0.10302">
        <ele>65.6</ele>
        <time>2024-09-22T08:29:27Z</time>
      </trkpt>
      <trkpt lat="49.08117" lon="0.1029">
        <ele>65.2</ele>
        <time>2024-09-22T08:29:28Z</time>
      </trkpt>
      <trkpt lat="49.08114" lon="0.10278">
        <ele>64.8</ele>
        <time>2024-09-22T08:29:29Z</time>
      </trkpt>
      <trkpt lat="49.08111" lon="0.10266">
        <ele>64.6</ele>
        <time>2024-09-22T08:29:30Z</time>
      </trkpt>
      <trkpt lat="49.08107" lon="0.10255">
        <ele>64.6</ele>
        <time>2024-09-22T08:29:31Z</time>
      </trkpt>
      <trkpt lat="49.08104" lon="0.10243">
        <ele>64.6</ele>
        <time>2024-09-22T08:29:32Z</time>
      </trkpt>
      <trkpt lat="49.08101" lon="0.10231">
        <ele>64.6</ele>
        <time>2024-09-22T08:29:33Z</time>
      </trkpt>
      <trkpt lat="49.08098" lon="0.10219">
        <ele>64.4</ele>
        <time>2024-09-22T08:29:34Z</time>
      </trkpt>
      <trkpt lat="49.08094" lon="0.10207">
        <ele>64.4</ele>
        <time>2024-09-22T08:29:35Z</time>
      </trkpt>
      <trkpt lat="49.08091" lon="0.10196">
        <ele>64.4</ele>
        <time>2024-09-22T08:29:36Z</time>
      </trkpt>
      <trkpt lat="49.08088" lon="0.10184">
        <ele>64.4</ele>
        <time>2024-09-22T08:29:37Z</time>
      </trkpt>
      <trkpt lat="49.08086" lon="0.10173">
        <ele>64.4</ele>
        <time>2024-09-22T08:29:38Z</time>
      </trkpt>
      <trkpt lat="49.08083" lon="0.10162">
        <ele>64.4</ele>
        <time>2024-09-22T08:29:39Z</time>
      </trkpt>
      <trkpt lat="49.0808" lon="0.10151">
        <ele>64.4</ele>
        <time>2024-09-22T08:29:40Z</time>
      </trkpt>
      <trkpt lat="49.08077" lon="0.1014">
        <ele>64.4</ele>
        <time>2024-09-22T08:29:41Z</time>
      </trkpt>
      <trkpt lat="49.08074" lon="0.10129">
        <ele>64.6</ele>
        <time>2024-09-22T08:29:42Z</time>
      </trkpt>
      <trkpt lat="49.0807" lon="0.10117">
        <ele>64.6</ele>
        <time>2024-09-22T08:29:43Z</time>
      </trkpt>
      <trkpt lat="49.08067" lon="0.10106">
        <ele>64.6</ele>
        <time>2024-09-22T08:29:44Z</time>
      </trkpt>
      <trkpt lat="49.08064" lon="0.10095">
        <ele>64.8</ele>
        <time>2024-09-22T08:29:45Z</time>
      </trkpt>
      <trkpt lat="49.08061" lon="0.10083">
        <ele>65</ele>
        <time>2024-09-22T08:29:46Z</time>
      </trkpt>
      <trkpt lat="49.08057" lon="0.10071">
        <ele>65</ele>
        <time>2024-09-22T08:29:47Z</time>
      </trkpt>
      <trkpt lat="49.08054" lon="0.10059">
        <ele>65</ele>
        <time>2024-09-22T08:29:48Z</time>
      </trkpt>
      <trkpt lat="49.08051" lon="0.10047">
        <ele>65</ele>
        <time>2024-09-22T08:29:49Z</time>
      </trkpt>
      <trkpt lat="49.08047" lon="0.10035">
        <ele>65</ele>
        <time>2024-09-22T08:29:50Z</time>
      </trkpt>
      <trkpt lat="49.08044" lon="0.10023">
        <ele>65</ele>
        <time>2024-09-22T08:29:51Z</time>
      </trkpt>
      <trkpt lat="49.08041" lon="0.10011">
        <ele>65</ele>
        <time>2024-09-22T08:29:52Z</time>
      </trkpt>
      <trkpt lat="49.08037" lon="0.09999">
        <ele>65</ele>
        <time>2024-09-22T08:29:53Z</time>
      </trkpt>
      <trkpt lat="49.08034" lon="0.09987">
        <ele>65</ele>
        <time>2024-09-22T08:29:54Z</time>
      </trkpt>
      <trkpt lat="49.0803" lon="0.09975">
        <ele>65</ele>
        <time>2024-09-22T08:29:55Z</time>
      </trkpt>
      <trkpt lat="49.08026" lon="0.09963">
        <ele>65</ele>
        <time>2024-09-22T08:29:56Z</time>
      </trkpt>
      <trkpt lat="49.08022" lon="0.09951">
        <ele>65</ele>
        <time>2024-09-22T08:29:57Z</time>
      </trkpt>
      <trkpt lat="49.08017" lon="0.0994">
        <ele>65</ele>
        <time>2024-09-22T08:29:58Z</time>
      </trkpt>
      <trkpt lat="49.08013" lon="0.09928">
        <ele>65</ele>
        <time>2024-09-22T08:29:59Z</time>
      </trkpt>
      <trkpt lat="49.08008" lon="0.09917">
        <ele>64.8</ele>
        <time>2024-09-22T08:30:00Z</time>
      </trkpt>
      <trkpt lat="49.08003" lon="0.09906">
        <ele>64.4</ele>
        <time>2024-09-22T08:30:01Z</time>
      </trkpt>
      <trkpt lat="49.07997" lon="0.09895">
        <ele>64.2</ele>
        <time>2024-09-22T08:30:02Z</time>
      </trkpt>
      <trkpt lat="49.07991" lon="0.09884">
        <ele>63.8</ele>
        <time>2024-09-22T08:30:03Z</time>
      </trkpt>
      <trkpt lat="49.07985" lon="0.09872">
        <ele>63.6</ele>
        <time>2024-09-22T08:30:04Z</time>
      </trkpt>
      <trkpt lat="49.07979" lon="0.09861">
        <ele>63.4</ele>
        <time>2024-09-22T08:30:05Z</time>
      </trkpt>
      <trkpt lat="49.07972" lon="0.09849">
        <ele>63</ele>
        <time>2024-09-22T08:30:06Z</time>
      </trkpt>
      <trkpt lat="49.07966" lon="0.09837">
        <ele>62.8</ele>
        <time>2024-09-22T08:30:07Z</time>
      </trkpt>
      <trkpt lat="49.07959" lon="0.09825">
        <ele>62.4</ele>
        <time>2024-09-22T08:30:08Z</time>
      </trkpt>
      <trkpt lat="49.07952" lon="0.09812">
        <ele>61.8</ele>
        <time>2024-09-22T08:30:09Z</time>
      </trkpt>
      <trkpt lat="49.07946" lon="0.09799">
        <ele>61.4</ele>
        <time>2024-09-22T08:30:10Z</time>
      </trkpt>
      <trkpt lat="49.0794" lon="0.09786">
        <ele>61.2</ele>
        <time>2024-09-22T08:30:11Z</time>
      </trkpt>
      <trkpt lat="49.07933" lon="0.09773">
        <ele>61.2</ele>
        <time>2024-09-22T08:30:12Z</time>
      </trkpt>
      <trkpt lat="49.07927" lon="0.09759">
        <ele>60.8</ele>
        <time>2024-09-22T08:30:13Z</time>
      </trkpt>
      <trkpt lat="49.07921" lon="0.09745">
        <ele>60.4</ele>
        <time>2024-09-22T08:30:14Z</time>
      </trkpt>
      <trkpt lat="49.07915" lon="0.09731">
        <ele>60.2</ele>
        <time>2024-09-22T08:30:15Z</time>
      </trkpt>
      <trkpt lat="49.07909" lon="0.09717">
        <ele>60.2</ele>
        <time>2024-09-22T08:30:16Z</time>
      </trkpt>
      <trkpt lat="49.07904" lon="0.09702">
        <ele>59.8</ele>
        <time>2024-09-22T08:30:17Z</time>
      </trkpt>
      <trkpt lat="49.07898" lon="0.09688">
        <ele>59.4</ele>
        <time>2024-09-22T08:30:18Z</time>
      </trkpt>
      <trkpt lat="49.07893" lon="0.09674">
        <ele>58.4</ele>
        <time>2024-09-22T08:30:19Z</time>
      </trkpt>
      <trkpt lat="49.07888" lon="0.0966">
        <ele>57.6</ele>
        <time>2024-09-22T08:30:20Z</time>
      </trkpt>
      <trkpt lat="49.07883" lon="0.09646">
        <ele>57</ele>
        <time>2024-09-22T08:30:21Z</time>
      </trkpt>
      <trkpt lat="49.07878" lon="0.09633">
        <ele>56.2</ele>
        <time>2024-09-22T08:30:22Z</time>
      </trkpt>
      <trkpt lat="49.07873" lon="0.0962">
        <ele>55.8</ele>
        <time>2024-09-22T08:30:23Z</time>
      </trkpt>
      <trkpt lat="49.07868" lon="0.09607">
        <ele>55.4</ele>
        <time>2024-09-22T08:30:24Z</time>
      </trkpt>
      <trkpt lat="49.07863" lon="0.09594">
        <ele>55</ele>
        <time>2024-09-22T08:30:25Z</time>
      </trkpt>
      <trkpt lat="49.07857" lon="0.09581">
        <ele>54.8</ele>
        <time>2024-09-22T08:30:26Z</time>
      </trkpt>
      <trkpt lat="49.07852" lon="0.09569">
        <ele>54.6</ele>
        <time>2024-09-22T08:30:27Z</time>
      </trkpt>
      <trkpt lat="49.07845" lon="0.09557">
        <ele>54.4</ele>
        <time>2024-09-22T08:30:28Z</time>
      </trkpt>
      <trkpt lat="49.07839" lon="0.09545">
        <ele>54.4</ele>
        <time>2024-09-22T08:30:29Z</time>
      </trkpt>
      <trkpt lat="49.07833" lon="0.09533">
        <ele>54.4</ele>
        <time>2024-09-22T08:30:30Z</time>
      </trkpt>
      <trkpt lat="49.07826" lon="0.09522">
        <ele>54.2</ele>
        <time>2024-09-22T08:30:31Z</time>
      </trkpt>
      <trkpt lat="49.07819" lon="0.09512">
        <ele>54.2</ele>
        <time>2024-09-22T08:30:32Z</time>
      </trkpt>
      <trkpt lat="49.07811" lon="0.09502">
        <ele>54.2</ele>
        <time>2024-09-22T08:30:33Z</time>
      </trkpt>
      <trkpt lat="49.07803" lon="0.09493">
        <ele>54.2</ele>
        <time>2024-09-22T08:30:34Z</time>
      </trkpt>
      <trkpt lat="49.07795" lon="0.09485">
        <ele>54.2</ele>
        <time>2024-09-22T08:30:35Z</time>
      </trkpt>
      <trkpt lat="49.07787" lon="0.09477">
        <ele>54</ele>
        <time>2024-09-22T08:30:36Z</time>
      </trkpt>
      <trkpt lat="49.07779" lon="0.0947">
        <ele>54</ele>
        <time>2024-09-22T08:30:37Z</time>
      </trkpt>
      <trkpt lat="49.0777" lon="0.09463">
        <ele>54</ele>
        <time>2024-09-22T08:30:38Z</time>
      </trkpt>
      <trkpt lat="49.07762" lon="0.09457">
        <ele>54</ele>
        <time>2024-09-22T08:30:39Z</time>
      </trkpt>
      <trkpt lat="49.07755" lon="0.09452">
        <ele>54</ele>
        <time>2024-09-22T08:30:40Z</time>
      </trkpt>
      <trkpt lat="49.07745" lon="0.09444">
        <ele>54</ele>
        <time>2024-09-22T08:30:41Z</time>
      </trkpt>
      <trkpt lat="49.07736" lon="0.09438">
        <ele>54</ele>
        <time>2024-09-22T08:30:42Z</time>
      </trkpt>
      <trkpt lat="49.07728" lon="0.09432">
        <ele>54</ele>
        <time>2024-09-22T08:30:43Z</time>
      </trkpt>
      <trkpt lat="49.07719" lon="0.09427">
        <ele>54</ele>
        <time>2024-09-22T08:30:44Z</time>
      </trkpt>
      <trkpt lat="49.0771" lon="0.09422">
        <ele>54</ele>
        <time>2024-09-22T08:30:45Z</time>
      </trkpt>
      <trkpt lat="49.07701" lon="0.09416">
        <ele>54</ele>
        <time>2024-09-22T08:30:46Z</time>
      </trkpt>
      <trkpt lat="49.07692" lon="0.09412">
        <ele>54</ele>
        <time>2024-09-22T08:30:47Z</time>
      </trkpt>
      <trkpt lat="49.07683" lon="0.09407">
        <ele>54</ele>
        <time>2024-09-22T08:30:48Z</time>
      </trkpt>
      <trkpt lat="49.07673" lon="0.09402">
        <ele>53.8</ele>
        <time>2024-09-22T08:30:49Z</time>
      </trkpt>
      <trkpt lat="49.07664" lon="0.09397">
        <ele>53.8</ele>
        <time>2024-09-22T08:30:50Z</time>
      </trkpt>
      <trkpt lat="49.07657" lon="0.09393">
        <ele>53.6</ele>
        <time>2024-09-22T08:30:51Z</time>
      </trkpt>
      <trkpt lat="49.07645" lon="0.09388">
        <ele>53.6</ele>
        <time>2024-09-22T08:30:52Z</time>
      </trkpt>
      <trkpt lat="49.07636" lon="0.09383">
        <ele>53.6</ele>
        <time>2024-09-22T08:30:53Z</time>
      </trkpt>
      <trkpt lat="49.07627" lon="0.09378">
        <ele>53.6</ele>
        <time>2024-09-22T08:30:54Z</time>
      </trkpt>
      <trkpt lat="49.07618" lon="0.09374">
        <ele>53.4</ele>
        <time>2024-09-22T08:30:55Z</time>
      </trkpt>
      <trkpt lat="49.07609" lon="0.09369">
        <ele>53</ele>
        <time>2024-09-22T08:30:56Z</time>
      </trkpt>
      <trkpt lat="49.07599" lon="0.09365">
        <ele>52.6</ele>
        <time>2024-09-22T08:30:57Z</time>
      </trkpt>
      <trkpt lat="49.07592" lon="0.09361">
        <ele>52.4</ele>
        <time>2024-09-22T08:30:58Z</time>
      </trkpt>
      <trkpt lat="49.07581" lon="0.09355">
        <ele>52.4</ele>
        <time>2024-09-22T08:30:59Z</time>
      </trkpt>
      <trkpt lat="49.07572" lon="0.09349">
        <ele>52.2</ele>
        <time>2024-09-22T08:31:00Z</time>
      </trkpt>
      <trkpt lat="49.07562" lon="0.09344">
        <ele>52</ele>
        <time>2024-09-22T08:31:01Z</time>
      </trkpt>
      <trkpt lat="49.07552" lon="0.09338">
        <ele>51.8</ele>
        <time>2024-09-22T08:31:02Z</time>
      </trkpt>
      <trkpt lat="49.07542" lon="0.09332">
        <ele>51.4</ele>
        <time>2024-09-22T08:31:03Z</time>
      </trkpt>
      <trkpt lat="49.07532" lon="0.09327">
        <ele>51.2</ele>
        <time>2024-09-22T08:31:04Z</time>
      </trkpt>
      <trkpt lat="49.07522" lon="0.09321">
        <ele>51</ele>
        <time>2024-09-22T08:31:05Z</time>
      </trkpt>
      <trkpt lat="49.07511" lon="0.09315">
        <ele>50.4</ele>
        <time>2024-09-22T08:31:06Z</time>
      </trkpt>
      <trkpt lat="49.07501" lon="0.09309">
        <ele>49.6</ele>
        <time>2024-09-22T08:31:07Z</time>
      </trkpt>
      <trkpt lat="49.0749" lon="0.09303">
        <ele>49.2</ele>
        <time>2024-09-22T08:31:08Z</time>
      </trkpt>
      <trkpt lat="49.0748" lon="0.09297">
        <ele>48.8</ele>
        <time>2024-09-22T08:31:09Z</time>
      </trkpt>
      <trkpt lat="49.0747" lon="0.09291">
        <ele>48.6</ele>
        <time>2024-09-22T08:31:10Z</time>
      </trkpt>
      <trkpt lat="49.0746" lon="0.09284">
        <ele>48.4</ele>
        <time>2024-09-22T08:31:11Z</time>
      </trkpt>
      <trkpt lat="49.0745" lon="0.09277">
        <ele>47.8</ele>
        <time>2024-09-22T08:31:12Z</time>
      </trkpt>
      <trkpt lat="49.0744" lon="0.09271">
        <ele>47</ele>
        <time>2024-09-22T08:31:13Z</time>
      </trkpt>
      <trkpt lat="49.07429" lon="0.09264">
        <ele>46.2</ele>
        <time>2024-09-22T08:31:14Z</time>
      </trkpt>
      <trkpt lat="49.07419" lon="0.09256">
        <ele>46.2</ele>
        <time>2024-09-22T08:31:15Z</time>
      </trkpt>
      <trkpt lat="49.07409" lon="0.09249">
        <ele>44.6</ele>
        <time>2024-09-22T08:31:16Z</time>
      </trkpt>
      <trkpt lat="49.074" lon="0.09243">
        <ele>43.4</ele>
        <time>2024-09-22T08:31:17Z</time>
      </trkpt>
      <trkpt lat="49.07388" lon="0.09234">
        <ele>42.6</ele>
        <time>2024-09-22T08:31:18Z</time>
      </trkpt>
      <trkpt lat="49.07377" lon="0.09226">
        <ele>42</ele>
        <time>2024-09-22T08:31:19Z</time>
      </trkpt>
      <trkpt lat="49.07367" lon="0.09218">
        <ele>41.2</ele>
        <time>2024-09-22T08:31:20Z</time>
      </trkpt>
      <trkpt lat="49.07357" lon="0.0921">
        <ele>40.8</ele>
        <time>2024-09-22T08:31:21Z</time>
      </trkpt>
      <trkpt lat="49.07346" lon="0.09203">
        <ele>40.4</ele>
        <time>2024-09-22T08:31:22Z</time>
      </trkpt>
      <trkpt lat="49.07337" lon="0.09195">
        <ele>40</ele>
        <time>2024-09-22T08:31:23Z</time>
      </trkpt>
      <trkpt lat="49.07327" lon="0.09188">
        <ele>39.4</ele>
        <time>2024-09-22T08:31:24Z</time>
      </trkpt>
      <trkpt lat="49.07317" lon="0.0918">
        <ele>38.4</ele>
        <time>2024-09-22T08:31:25Z</time>
      </trkpt>
      <trkpt lat="49.07307" lon="0.09172">
        <ele>37.6</ele>
        <time>2024-09-22T08:31:26Z</time>
      </trkpt>
      <trkpt lat="49.07298" lon="0.09165">
        <ele>37</ele>
        <time>2024-09-22T08:31:27Z</time>
      </trkpt>
      <trkpt lat="49.07288" lon="0.09157">
        <ele>36.4</ele>
        <time>2024-09-22T08:31:28Z</time>
      </trkpt>
      <trkpt lat="49.07279" lon="0.09149">
        <ele>36.2</ele>
        <time>2024-09-22T08:31:29Z</time>
      </trkpt>
      <trkpt lat="49.0727" lon="0.09141">
        <ele>36</ele>
        <time>2024-09-22T08:31:30Z</time>
      </trkpt>
      <trkpt lat="49.07261" lon="0.09134">
        <ele>35.8</ele>
        <time>2024-09-22T08:31:31Z</time>
      </trkpt>
      <trkpt lat="49.07252" lon="0.09126">
        <ele>35.6</ele>
        <time>2024-09-22T08:31:32Z</time>
      </trkpt>
      <trkpt lat="49.07245" lon="0.0912">
        <ele>35.6</ele>
        <time>2024-09-22T08:31:33Z</time>
      </trkpt>
      <trkpt lat="49.07237" lon="0.09112">
        <ele>35.6</ele>
        <time>2024-09-22T08:31:34Z</time>
      </trkpt>
      <trkpt lat="49.07227" lon="0.09103">
        <ele>35.6</ele>
        <time>2024-09-22T08:31:35Z</time>
      </trkpt>
      <trkpt lat="49.07218" lon="0.09096">
        <ele>35.6</ele>
        <time>2024-09-22T08:31:36Z</time>
      </trkpt>
      <trkpt lat="49.0721" lon="0.09088">
        <ele>35.6</ele>
        <time>2024-09-22T08:31:37Z</time>
      </trkpt>
      <trkpt lat="49.07202" lon="0.09081">
        <ele>35.6</ele>
        <time>2024-09-22T08:31:38Z</time>
      </trkpt>
      <trkpt lat="49.07194" lon="0.09074">
        <ele>35.6</ele>
        <time>2024-09-22T08:31:39Z</time>
      </trkpt>
      <trkpt lat="49.07187" lon="0.09067">
        <ele>35.6</ele>
        <time>2024-09-22T08:31:40Z</time>
      </trkpt>
      <trkpt lat="49.07179" lon="0.0906">
        <ele>35.6</ele>
        <time>2024-09-22T08:31:41Z</time>
      </trkpt>
      <trkpt lat="49.07171" lon="0.09053">
        <ele>35.6</ele>
        <time>2024-09-22T08:31:42Z</time>
      </trkpt>
      <trkpt lat="49.07163" lon="0.09046">
        <ele>35.6</ele>
        <time>2024-09-22T08:31:43Z</time>
      </trkpt>
      <trkpt lat="49.07156" lon="0.09039">
        <ele>35.6</ele>
        <time>2024-09-22T08:31:44Z</time>
      </trkpt>
      <trkpt lat="49.07148" lon="0.09032">
        <ele>35.6</ele>
        <time>2024-09-22T08:31:45Z</time>
      </trkpt>
      <trkpt lat="49.0714" lon="0.09025">
        <ele>35.6</ele>
        <time>2024-09-22T08:31:46Z</time>
      </trkpt>
      <trkpt lat="49.07133" lon="0.09018">
        <ele>35.6</ele>
        <time>2024-09-22T08:31:47Z</time>
      </trkpt>
      <trkpt lat="49.07126" lon="0.09011">
        <ele>35.6</ele>
        <time>2024-09-22T08:31:48Z</time>
      </trkpt>
      <trkpt lat="49.07118" lon="0.09004">
        <ele>35.6</ele>
        <time>2024-09-22T08:31:49Z</time>
      </trkpt>
      <trkpt lat="49.07113" lon="0.08999">
        <ele>35.6</ele>
        <time>2024-09-22T08:31:50Z</time>
      </trkpt>
      <trkpt lat="49.07104" lon="0.08991">
        <ele>35.6</ele>
        <time>2024-09-22T08:31:51Z</time>
      </trkpt>
      <trkpt lat="49.07097" lon="0.08984">
        <ele>35.6</ele>
        <time>2024-09-22T08:31:52Z</time>
      </trkpt>
      <trkpt lat="49.0709" lon="0.08976">
        <ele>35.6</ele>
        <time>2024-09-22T08:31:53Z</time>
      </trkpt>
      <trkpt lat="49.07083" lon="0.08969">
        <ele>35.6</ele>
        <time>2024-09-22T08:31:54Z</time>
      </trkpt>
      <trkpt lat="49.07077" lon="0.08961">
        <ele>35.6</ele>
        <time>2024-09-22T08:31:55Z</time>
      </trkpt>
      <trkpt lat="49.07072" lon="0.08955">
        <ele>35.6</ele>
        <time>2024-09-22T08:31:56Z</time>
      </trkpt>
      <trkpt lat="49.07064" lon="0.08945">
        <ele>35.6</ele>
        <time>2024-09-22T08:31:57Z</time>
      </trkpt>
      <trkpt lat="49.07058" lon="0.08937">
        <ele>35.6</ele>
        <time>2024-09-22T08:31:58Z</time>
      </trkpt>
      <trkpt lat="49.07052" lon="0.08929">
        <ele>35.6</ele>
        <time>2024-09-22T08:31:59Z</time>
      </trkpt>
      <trkpt lat="49.07046" lon="0.08922">
        <ele>35.6</ele>
        <time>2024-09-22T08:32:00Z</time>
      </trkpt>
      <trkpt lat="49.0704" lon="0.08914">
        <ele>35.6</ele>
        <time>2024-09-22T08:32:01Z</time>
      </trkpt>
      <trkpt lat="49.07035" lon="0.08906">
        <ele>35.6</ele>
        <time>2024-09-22T08:32:02Z</time>
      </trkpt>
      <trkpt lat="49.07029" lon="0.08898">
        <ele>35.6</ele>
        <time>2024-09-22T08:32:03Z</time>
      </trkpt>
      <trkpt lat="49.07023" lon="0.0889">
        <ele>35.6</ele>
        <time>2024-09-22T08:32:04Z</time>
      </trkpt>
      <trkpt lat="49.07018" lon="0.08883">
        <ele>35.8</ele>
        <time>2024-09-22T08:32:05Z</time>
      </trkpt>
      <trkpt lat="49.07014" lon="0.08875">
        <ele>35.8</ele>
        <time>2024-09-22T08:32:06Z</time>
      </trkpt>
      <trkpt lat="49.07009" lon="0.08867">
        <ele>35.8</ele>
        <time>2024-09-22T08:32:07Z</time>
      </trkpt>
      <trkpt lat="49.07005" lon="0.08858">
        <ele>36</ele>
        <time>2024-09-22T08:32:08Z</time>
      </trkpt>
      <trkpt lat="49.07003" lon="0.08849">
        <ele>36.2</ele>
        <time>2024-09-22T08:32:09Z</time>
      </trkpt>
      <trkpt lat="49.07001" lon="0.0884">
        <ele>36.4</ele>
        <time>2024-09-22T08:32:10Z</time>
      </trkpt>
      <trkpt lat="49.06999" lon="0.0883">
        <ele>36.4</ele>
        <time>2024-09-22T08:32:11Z</time>
      </trkpt>
      <trkpt lat="49.06997" lon="0.0882">
        <ele>36.6</ele>
        <time>2024-09-22T08:32:12Z</time>
      </trkpt>
      <trkpt lat="49.06995" lon="0.08811">
        <ele>36.8</ele>
        <time>2024-09-22T08:32:13Z</time>
      </trkpt>
      <trkpt lat="49.06993" lon="0.08802">
        <ele>37</ele>
        <time>2024-09-22T08:32:14Z</time>
      </trkpt>
      <trkpt lat="49.06992" lon="0.08792">
        <ele>37</ele>
        <time>2024-09-22T08:32:15Z</time>
      </trkpt>
      <trkpt lat="49.0699" lon="0.08783">
        <ele>37.2</ele>
        <time>2024-09-22T08:32:16Z</time>
      </trkpt>
      <trkpt lat="49.06989" lon="0.08773">
        <ele>37.4</ele>
        <time>2024-09-22T08:32:17Z</time>
      </trkpt>
      <trkpt lat="49.06988" lon="0.08766">
        <ele>37.8</ele>
        <time>2024-09-22T08:32:18Z</time>
      </trkpt>
      <trkpt lat="49.06987" lon="0.08754">
        <ele>38</ele>
        <time>2024-09-22T08:32:19Z</time>
      </trkpt>
      <trkpt lat="49.06985" lon="0.08745">
        <ele>38.4</ele>
        <time>2024-09-22T08:32:20Z</time>
      </trkpt>
      <trkpt lat="49.06983" lon="0.08735">
        <ele>38.6</ele>
        <time>2024-09-22T08:32:21Z</time>
      </trkpt>
      <trkpt lat="49.06981" lon="0.08725">
        <ele>38.8</ele>
        <time>2024-09-22T08:32:22Z</time>
      </trkpt>
      <trkpt lat="49.06979" lon="0.08716">
        <ele>39</ele>
        <time>2024-09-22T08:32:23Z</time>
      </trkpt>
      <trkpt lat="49.06978" lon="0.08706">
        <ele>39.6</ele>
        <time>2024-09-22T08:32:24Z</time>
      </trkpt>
      <trkpt lat="49.06976" lon="0.08696">
        <ele>39.6</ele>
        <time>2024-09-22T08:32:25Z</time>
      </trkpt>
      <trkpt lat="49.06974" lon="0.08686">
        <ele>39.8</ele>
        <time>2024-09-22T08:32:26Z</time>
      </trkpt>
      <trkpt lat="49.06973" lon="0.08676">
        <ele>40</ele>
        <time>2024-09-22T08:32:27Z</time>
      </trkpt>
      <trkpt lat="49.06971" lon="0.08667">
        <ele>40</ele>
        <time>2024-09-22T08:32:28Z</time>
      </trkpt>
      <trkpt lat="49.06969" lon="0.08657">
        <ele>40.2</ele>
        <time>2024-09-22T08:32:29Z</time>
      </trkpt>
      <trkpt lat="49.06967" lon="0.08647">
        <ele>40.2</ele>
        <time>2024-09-22T08:32:30Z</time>
      </trkpt>
      <trkpt lat="49.06966" lon="0.08638">
        <ele>40.2</ele>
        <time>2024-09-22T08:32:31Z</time>
      </trkpt>
      <trkpt lat="49.06965" lon="0.08628">
        <ele>40.2</ele>
        <time>2024-09-22T08:32:32Z</time>
      </trkpt>
      <trkpt lat="49.06963" lon="0.08619">
        <ele>40.2</ele>
        <time>2024-09-22T08:32:33Z</time>
      </trkpt>
      <trkpt lat="49.06961" lon="0.0861">
        <ele>40.2</ele>
        <time>2024-09-22T08:32:34Z</time>
      </trkpt>
      <trkpt lat="49.06959" lon="0.08601">
        <ele>40.2</ele>
        <time>2024-09-22T08:32:35Z</time>
      </trkpt>
      <trkpt lat="49.06957" lon="0.08591">
        <ele>40.2</ele>
        <time>2024-09-22T08:32:36Z</time>
      </trkpt>
      <trkpt lat="49.06955" lon="0.08581">
        <ele>40.2</ele>
        <time>2024-09-22T08:32:37Z</time>
      </trkpt>
      <trkpt lat="49.06953" lon="0.08571">
        <ele>40.2</ele>
        <time>2024-09-22T08:32:38Z</time>
      </trkpt>
      <trkpt lat="49.06951" lon="0.0856">
        <ele>40.2</ele>
        <time>2024-09-22T08:32:39Z</time>
      </trkpt>
      <trkpt lat="49.06949" lon="0.0855">
        <ele>40.2</ele>
        <time>2024-09-22T08:32:40Z</time>
      </trkpt>
      <trkpt lat="49.06947" lon="0.08539">
        <ele>40.2</ele>
        <time>2024-09-22T08:32:41Z</time>
      </trkpt>
      <trkpt lat="49.06946" lon="0.0853">
        <ele>40</ele>
        <time>2024-09-22T08:32:42Z</time>
      </trkpt>
      <trkpt lat="49.06944" lon="0.08518">
        <ele>40.2</ele>
        <time>2024-09-22T08:32:43Z</time>
      </trkpt>
      <trkpt lat="49.06942" lon="0.08507">
        <ele>40</ele>
        <time>2024-09-22T08:32:44Z</time>
      </trkpt>
      <trkpt lat="49.06941" lon="0.08496">
        <ele>40</ele>
        <time>2024-09-22T08:32:45Z</time>
      </trkpt>
      <trkpt lat="49.06938" lon="0.08486">
        <ele>40</ele>
        <time>2024-09-22T08:32:46Z</time>
      </trkpt>
      <trkpt lat="49.06936" lon="0.08476">
        <ele>40</ele>
        <time>2024-09-22T08:32:47Z</time>
      </trkpt>
      <trkpt lat="49.06934" lon="0.08466">
        <ele>40</ele>
        <time>2024-09-22T08:32:48Z</time>
      </trkpt>
      <trkpt lat="49.06932" lon="0.08455">
        <ele>39.8</ele>
        <time>2024-09-22T08:32:49Z</time>
      </trkpt>
      <trkpt lat="49.06931" lon="0.08447">
        <ele>39.8</ele>
        <time>2024-09-22T08:32:50Z</time>
      </trkpt>
      <trkpt lat="49.06929" lon="0.08435">
        <ele>39.8</ele>
        <time>2024-09-22T08:32:51Z</time>
      </trkpt>
      <trkpt lat="49.06927" lon="0.08425">
        <ele>39.8</ele>
        <time>2024-09-22T08:32:52Z</time>
      </trkpt>
      <trkpt lat="49.06925" lon="0.08416">
        <ele>39.8</ele>
        <time>2024-09-22T08:32:53Z</time>
      </trkpt>
      <trkpt lat="49.06923" lon="0.08408">
        <ele>39.8</ele>
        <time>2024-09-22T08:32:54Z</time>
      </trkpt>
      <trkpt lat="49.06921" lon="0.08399">
        <ele>39.8</ele>
        <time>2024-09-22T08:32:55Z</time>
      </trkpt>
      <trkpt lat="49.0692" lon="0.0839">
        <ele>39.8</ele>
        <time>2024-09-22T08:32:56Z</time>
      </trkpt>
      <trkpt lat="49.06918" lon="0.08381">
        <ele>40</ele>
        <time>2024-09-22T08:32:57Z</time>
      </trkpt>
      <trkpt lat="49.06917" lon="0.08373">
        <ele>40</ele>
        <time>2024-09-22T08:32:58Z</time>
      </trkpt>
      <trkpt lat="49.06915" lon="0.08364">
        <ele>40</ele>
        <time>2024-09-22T08:32:59Z</time>
      </trkpt>
      <trkpt lat="49.06913" lon="0.08356">
        <ele>40.2</ele>
        <time>2024-09-22T08:33:00Z</time>
      </trkpt>
      <trkpt lat="49.06912" lon="0.08349">
        <ele>40.2</ele>
        <time>2024-09-22T08:33:01Z</time>
      </trkpt>
      <trkpt lat="49.0691" lon="0.08338">
        <ele>40.6</ele>
        <time>2024-09-22T08:33:02Z</time>
      </trkpt>
      <trkpt lat="49.06909" lon="0.08329">
        <ele>41</ele>
        <time>2024-09-22T08:33:03Z</time>
      </trkpt>
      <trkpt lat="49.06907" lon="0.08319">
        <ele>41.2</ele>
        <time>2024-09-22T08:33:04Z</time>
      </trkpt>
      <trkpt lat="49.06906" lon="0.0831">
        <ele>41.4</ele>
        <time>2024-09-22T08:33:05Z</time>
      </trkpt>
      <trkpt lat="49.06904" lon="0.08299">
        <ele>41.4</ele>
        <time>2024-09-22T08:33:06Z</time>
      </trkpt>
      <trkpt lat="49.06902" lon="0.08289">
        <ele>41.8</ele>
        <time>2024-09-22T08:33:07Z</time>
      </trkpt>
      <trkpt lat="49.069" lon="0.08279">
        <ele>42</ele>
        <time>2024-09-22T08:33:08Z</time>
      </trkpt>
      <trkpt lat="49.06898" lon="0.0827">
        <ele>42</ele>
        <time>2024-09-22T08:33:09Z</time>
      </trkpt>
      <trkpt lat="49.06897" lon="0.08262">
        <ele>42.2</ele>
        <time>2024-09-22T08:33:10Z</time>
      </trkpt>
      <trkpt lat="49.06895" lon="0.0825">
        <ele>42.2</ele>
        <time>2024-09-22T08:33:11Z</time>
      </trkpt>
      <trkpt lat="49.06893" lon="0.0824">
        <ele>42.4</ele>
        <time>2024-09-22T08:33:12Z</time>
      </trkpt>
      <trkpt lat="49.06891" lon="0.0823">
        <ele>42.6</ele>
        <time>2024-09-22T08:33:13Z</time>
      </trkpt>
      <trkpt lat="49.06889" lon="0.0822">
        <ele>42.6</ele>
        <time>2024-09-22T08:33:14Z</time>
      </trkpt>
      <trkpt lat="49.06887" lon="0.0821">
        <ele>42.6</ele>
        <time>2024-09-22T08:33:15Z</time>
      </trkpt>
      <trkpt lat="49.06885" lon="0.08199">
        <ele>42.6</ele>
        <time>2024-09-22T08:33:16Z</time>
      </trkpt>
      <trkpt lat="49.06884" lon="0.0819">
        <ele>42.6</ele>
        <time>2024-09-22T08:33:17Z</time>
      </trkpt>
      <trkpt lat="49.06882" lon="0.08182">
        <ele>42.6</ele>
        <time>2024-09-22T08:33:18Z</time>
      </trkpt>
      <trkpt lat="49.0688" lon="0.0817">
        <ele>42.6</ele>
        <time>2024-09-22T08:33:19Z</time>
      </trkpt>
      <trkpt lat="49.06878" lon="0.08161">
        <ele>42.8</ele>
        <time>2024-09-22T08:33:20Z</time>
      </trkpt>
      <trkpt lat="49.06875" lon="0.08151">
        <ele>42.8</ele>
        <time>2024-09-22T08:33:21Z</time>
      </trkpt>
      <trkpt lat="49.06873" lon="0.08142">
        <ele>42.8</ele>
        <time>2024-09-22T08:33:22Z</time>
      </trkpt>
      <trkpt lat="49.0687" lon="0.08133">
        <ele>43</ele>
        <time>2024-09-22T08:33:23Z</time>
      </trkpt>
      <trkpt lat="49.06867" lon="0.08125">
        <ele>43</ele>
        <time>2024-09-22T08:33:24Z</time>
      </trkpt>
      <trkpt lat="49.06865" lon="0.08116">
        <ele>43</ele>
        <time>2024-09-22T08:33:25Z</time>
      </trkpt>
      <trkpt lat="49.06863" lon="0.08109">
        <ele>43</ele>
        <time>2024-09-22T08:33:26Z</time>
      </trkpt>
      <trkpt lat="49.06859" lon="0.08099">
        <ele>43.2</ele>
        <time>2024-09-22T08:33:27Z</time>
      </trkpt>
      <trkpt lat="49.06857" lon="0.08091">
        <ele>43.4</ele>
        <time>2024-09-22T08:33:28Z</time>
      </trkpt>
      <trkpt lat="49.06854" lon="0.08083">
        <ele>43.4</ele>
        <time>2024-09-22T08:33:29Z</time>
      </trkpt>
      <trkpt lat="49.06852" lon="0.08075">
        <ele>43.6</ele>
        <time>2024-09-22T08:33:30Z</time>
      </trkpt>
      <trkpt lat="49.06849" lon="0.08067">
        <ele>43.8</ele>
        <time>2024-09-22T08:33:31Z</time>
      </trkpt>
      <trkpt lat="49.06847" lon="0.08059">
        <ele>44</ele>
        <time>2024-09-22T08:33:32Z</time>
      </trkpt>
      <trkpt lat="49.06844" lon="0.08051">
        <ele>44</ele>
        <time>2024-09-22T08:33:33Z</time>
      </trkpt>
      <trkpt lat="49.06842" lon="0.08045">
        <ele>44.2</ele>
        <time>2024-09-22T08:33:34Z</time>
      </trkpt>
      <trkpt lat="49.06839" lon="0.08036">
        <ele>44.2</ele>
        <time>2024-09-22T08:33:35Z</time>
      </trkpt>
      <trkpt lat="49.06836" lon="0.08028">
        <ele>44.4</ele>
        <time>2024-09-22T08:33:36Z</time>
      </trkpt>
      <trkpt lat="49.06834" lon="0.08021">
        <ele>44.4</ele>
        <time>2024-09-22T08:33:37Z</time>
      </trkpt>
      <trkpt lat="49.06832" lon="0.08013">
        <ele>44.4</ele>
        <time>2024-09-22T08:33:38Z</time>
      </trkpt>
      <trkpt lat="49.0683" lon="0.08006">
        <ele>44.4</ele>
        <time>2024-09-22T08:33:39Z</time>
      </trkpt>
      <trkpt lat="49.06827" lon="0.07999">
        <ele>44.6</ele>
        <time>2024-09-22T08:33:40Z</time>
      </trkpt>
      <trkpt lat="49.06825" lon="0.07993">
        <ele>44.8</ele>
        <time>2024-09-22T08:33:41Z</time>
      </trkpt>
      <trkpt lat="49.06823" lon="0.07986">
        <ele>45</ele>
        <time>2024-09-22T08:33:42Z</time>
      </trkpt>
      <trkpt lat="49.0682" lon="0.07978">
        <ele>45.2</ele>
        <time>2024-09-22T08:33:43Z</time>
      </trkpt>
      <trkpt lat="49.06817" lon="0.07969">
        <ele>45.4</ele>
        <time>2024-09-22T08:33:44Z</time>
      </trkpt>
      <trkpt lat="49.06815" lon="0.07961">
        <ele>45.6</ele>
        <time>2024-09-22T08:33:45Z</time>
      </trkpt>
      <trkpt lat="49.06813" lon="0.07953">
        <ele>45.8</ele>
        <time>2024-09-22T08:33:46Z</time>
      </trkpt>
      <trkpt lat="49.06811" lon="0.07945">
        <ele>46.2</ele>
        <time>2024-09-22T08:33:47Z</time>
      </trkpt>
      <trkpt lat="49.06809" lon="0.07939">
        <ele>46.6</ele>
        <time>2024-09-22T08:33:48Z</time>
      </trkpt>
      <trkpt lat="49.06806" lon="0.07929">
        <ele>47</ele>
        <time>2024-09-22T08:33:49Z</time>
      </trkpt>
      <trkpt lat="49.06803" lon="0.07921">
        <ele>47.2</ele>
        <time>2024-09-22T08:33:50Z</time>
      </trkpt>
      <trkpt lat="49.06801" lon="0.07913">
        <ele>47.6</ele>
        <time>2024-09-22T08:33:51Z</time>
      </trkpt>
      <trkpt lat="49.06799" lon="0.07905">
        <ele>47.8</ele>
        <time>2024-09-22T08:33:52Z</time>
      </trkpt>
      <trkpt lat="49.06796" lon="0.07897">
        <ele>48</ele>
        <time>2024-09-22T08:33:53Z</time>
      </trkpt>
      <trkpt lat="49.06794" lon="0.07889">
        <ele>48.2</ele>
        <time>2024-09-22T08:33:54Z</time>
      </trkpt>
      <trkpt lat="49.06792" lon="0.07881">
        <ele>48.6</ele>
        <time>2024-09-22T08:33:55Z</time>
      </trkpt>
      <trkpt lat="49.06789" lon="0.07873">
        <ele>48.8</ele>
        <time>2024-09-22T08:33:56Z</time>
      </trkpt>
      <trkpt lat="49.06787" lon="0.07866">
        <ele>48.8</ele>
        <time>2024-09-22T08:33:57Z</time>
      </trkpt>
      <trkpt lat="49.06784" lon="0.07857">
        <ele>49</ele>
        <time>2024-09-22T08:33:58Z</time>
      </trkpt>
      <trkpt lat="49.06782" lon="0.07849">
        <ele>49.2</ele>
        <time>2024-09-22T08:33:59Z</time>
      </trkpt>
      <trkpt lat="49.06779" lon="0.07841">
        <ele>49.4</ele>
        <time>2024-09-22T08:34:00Z</time>
      </trkpt>
      <trkpt lat="49.06777" lon="0.07833">
        <ele>49.6</ele>
        <time>2024-09-22T08:34:01Z</time>
      </trkpt>
      <trkpt lat="49.06774" lon="0.07825">
        <ele>49.8</ele>
        <time>2024-09-22T08:34:02Z</time>
      </trkpt>
      <trkpt lat="49.06772" lon="0.07819">
        <ele>50</ele>
        <time>2024-09-22T08:34:03Z</time>
      </trkpt>
      <trkpt lat="49.06769" lon="0.07811">
        <ele>50.2</ele>
        <time>2024-09-22T08:34:04Z</time>
      </trkpt>
      <trkpt lat="49.06766" lon="0.07801">
        <ele>50.4</ele>
        <time>2024-09-22T08:34:05Z</time>
      </trkpt>
      <trkpt lat="49.06764" lon="0.07794">
        <ele>50.6</ele>
        <time>2024-09-22T08:34:06Z</time>
      </trkpt>
      <trkpt lat="49.06762" lon="0.07786">
        <ele>50.8</ele>
        <time>2024-09-22T08:34:07Z</time>
      </trkpt>
      <trkpt lat="49.0676" lon="0.07778">
        <ele>51</ele>
        <time>2024-09-22T08:34:08Z</time>
      </trkpt>
      <trkpt lat="49.06757" lon="0.0777">
        <ele>51</ele>
        <time>2024-09-22T08:34:09Z</time>
      </trkpt>
      <trkpt lat="49.06754" lon="0.07763">
        <ele>51.2</ele>
        <time>2024-09-22T08:34:10Z</time>
      </trkpt>
      <trkpt lat="49.06752" lon="0.07755">
        <ele>51.4</ele>
        <time>2024-09-22T08:34:11Z</time>
      </trkpt>
      <trkpt lat="49.0675" lon="0.07747">
        <ele>51.6</ele>
        <time>2024-09-22T08:34:12Z</time>
      </trkpt>
      <trkpt lat="49.06748" lon="0.07739">
        <ele>51.8</ele>
        <time>2024-09-22T08:34:13Z</time>
      </trkpt>
      <trkpt lat="49.06745" lon="0.07732">
        <ele>52</ele>
        <time>2024-09-22T08:34:14Z</time>
      </trkpt>
      <trkpt lat="49.06743" lon="0.07724">
        <ele>52.4</ele>
        <time>2024-09-22T08:34:15Z</time>
      </trkpt>
      <trkpt lat="49.0674" lon="0.07716">
        <ele>52.6</ele>
        <time>2024-09-22T08:34:16Z</time>
      </trkpt>
      <trkpt lat="49.06737" lon="0.07708">
        <ele>52.8</ele>
        <time>2024-09-22T08:34:17Z</time>
      </trkpt>
      <trkpt lat="49.06736" lon="0.07703">
        <ele>52.8</ele>
        <time>2024-09-22T08:34:18Z</time>
      </trkpt>
      <trkpt lat="49.06733" lon="0.07695">
        <ele>53</ele>
        <time>2024-09-22T08:34:19Z</time>
      </trkpt>
      <trkpt lat="49.0673" lon="0.07685">
        <ele>53.2</ele>
        <time>2024-09-22T08:34:20Z</time>
      </trkpt>
      <trkpt lat="49.06728" lon="0.07677">
        <ele>53.4</ele>
        <time>2024-09-22T08:34:21Z</time>
      </trkpt>
      <trkpt lat="49.06726" lon="0.07671">
        <ele>53.6</ele>
        <time>2024-09-22T08:34:22Z</time>
      </trkpt>
      <trkpt lat="49.06723" lon="0.07661">
        <ele>53.8</ele>
        <time>2024-09-22T08:34:23Z</time>
      </trkpt>
      <trkpt lat="49.06721" lon="0.07655">
        <ele>53.8</ele>
        <time>2024-09-22T08:34:24Z</time>
      </trkpt>
      <trkpt lat="49.06718" lon="0.07646">
        <ele>54</ele>
        <time>2024-09-22T08:34:25Z</time>
      </trkpt>
      <trkpt lat="49.06715" lon="0.07637">
        <ele>54.4</ele>
        <time>2024-09-22T08:34:26Z</time>
      </trkpt>
      <trkpt lat="49.06713" lon="0.0763">
        <ele>54.6</ele>
        <time>2024-09-22T08:34:27Z</time>
      </trkpt>
      <trkpt lat="49.0671" lon="0.0762">
        <ele>54.8</ele>
        <time>2024-09-22T08:34:28Z</time>
      </trkpt>
      <trkpt lat="49.06707" lon="0.07612">
        <ele>55.2</ele>
        <time>2024-09-22T08:34:29Z</time>
      </trkpt>
      <trkpt lat="49.06705" lon="0.07604">
        <ele>55.4</ele>
        <time>2024-09-22T08:34:30Z</time>
      </trkpt>
      <trkpt lat="49.06702" lon="0.07596">
        <ele>55.8</ele>
        <time>2024-09-22T08:34:31Z</time>
      </trkpt>
      <trkpt lat="49.06699" lon="0.07587">
        <ele>56</ele>
        <time>2024-09-22T08:34:32Z</time>
      </trkpt>
      <trkpt lat="49.06697" lon="0.07578">
        <ele>56.2</ele>
        <time>2024-09-22T08:34:33Z</time>
      </trkpt>
      <trkpt lat="49.06694" lon="0.07569">
        <ele>56.6</ele>
        <time>2024-09-22T08:34:34Z</time>
      </trkpt>
      <trkpt lat="49.06692" lon="0.07561">
        <ele>56.8</ele>
        <time>2024-09-22T08:34:35Z</time>
      </trkpt>
      <trkpt lat="49.06689" lon="0.07552">
        <ele>57</ele>
        <time>2024-09-22T08:34:36Z</time>
      </trkpt>
      <trkpt lat="49.06687" lon="0.07544">
        <ele>57.2</ele>
        <time>2024-09-22T08:34:37Z</time>
      </trkpt>
      <trkpt lat="49.06685" lon="0.07535">
        <ele>57.2</ele>
        <time>2024-09-22T08:34:38Z</time>
      </trkpt>
      <trkpt lat="49.06682" lon="0.07527">
        <ele>57.6</ele>
        <time>2024-09-22T08:34:39Z</time>
      </trkpt>
      <trkpt lat="49.06679" lon="0.07518">
        <ele>57.8</ele>
        <time>2024-09-22T08:34:40Z</time>
      </trkpt>
      <trkpt lat="49.06676" lon="0.0751">
        <ele>58.2</ele>
        <time>2024-09-22T08:34:41Z</time>
      </trkpt>
      <trkpt lat="49.06674" lon="0.07501">
        <ele>58.4</ele>
        <time>2024-09-22T08:34:42Z</time>
      </trkpt>
      <trkpt lat="49.06672" lon="0.07494">
        <ele>58.6</ele>
        <time>2024-09-22T08:34:43Z</time>
      </trkpt>
      <trkpt lat="49.06668" lon="0.07484">
        <ele>59</ele>
        <time>2024-09-22T08:34:44Z</time>
      </trkpt>
      <trkpt lat="49.06665" lon="0.07475">
        <ele>59</ele>
        <time>2024-09-22T08:34:45Z</time>
      </trkpt>
      <trkpt lat="49.06663" lon="0.07468">
        <ele>59.4</ele>
        <time>2024-09-22T08:34:46Z</time>
      </trkpt>
      <trkpt lat="49.0666" lon="0.07457">
        <ele>59.6</ele>
        <time>2024-09-22T08:34:47Z</time>
      </trkpt>
      <trkpt lat="49.06657" lon="0.07448">
        <ele>59.8</ele>
        <time>2024-09-22T08:34:48Z</time>
      </trkpt>
      <trkpt lat="49.06655" lon="0.07439">
        <ele>60</ele>
        <time>2024-09-22T08:34:49Z</time>
      </trkpt>
      <trkpt lat="49.06652" lon="0.0743">
        <ele>60.2</ele>
        <time>2024-09-22T08:34:50Z</time>
      </trkpt>
      <trkpt lat="49.06649" lon="0.07421">
        <ele>60.4</ele>
        <time>2024-09-22T08:34:51Z</time>
      </trkpt>
      <trkpt lat="49.06646" lon="0.07412">
        <ele>60.4</ele>
        <time>2024-09-22T08:34:52Z</time>
      </trkpt>
      <trkpt lat="49.06644" lon="0.07403">
        <ele>60.6</ele>
        <time>2024-09-22T08:34:53Z</time>
      </trkpt>
      <trkpt lat="49.06641" lon="0.07394">
        <ele>60.6</ele>
        <time>2024-09-22T08:34:54Z</time>
      </trkpt>
      <trkpt lat="49.06639" lon="0.07385">
        <ele>60.8</ele>
        <time>2024-09-22T08:34:55Z</time>
      </trkpt>
      <trkpt lat="49.06636" lon="0.07376">
        <ele>61</ele>
        <time>2024-09-22T08:34:56Z</time>
      </trkpt>
      <trkpt lat="49.06633" lon="0.07367">
        <ele>61</ele>
        <time>2024-09-22T08:34:57Z</time>
      </trkpt>
      <trkpt lat="49.0663" lon="0.07358">
        <ele>61.2</ele>
        <time>2024-09-22T08:34:58Z</time>
      </trkpt>
      <trkpt lat="49.06627" lon="0.07349">
        <ele>61.2</ele>
        <time>2024-09-22T08:34:59Z</time>
      </trkpt>
      <trkpt lat="49.06624" lon="0.0734">
        <ele>61.2</ele>
        <time>2024-09-22T08:35:00Z</time>
      </trkpt>
      <trkpt lat="49.06622" lon="0.07333">
        <ele>61.4</ele>
        <time>2024-09-22T08:35:01Z</time>
      </trkpt>
      <trkpt lat="49.06618" lon="0.07323">
        <ele>61.4</ele>
        <time>2024-09-22T08:35:02Z</time>
      </trkpt>
      <trkpt lat="49.06615" lon="0.07314">
        <ele>61.6</ele>
        <time>2024-09-22T08:35:03Z</time>
      </trkpt>
      <trkpt lat="49.06613" lon="0.07305">
        <ele>61.8</ele>
        <time>2024-09-22T08:35:04Z</time>
      </trkpt>
      <trkpt lat="49.0661" lon="0.07297">
        <ele>62</ele>
        <time>2024-09-22T08:35:05Z</time>
      </trkpt>
      <trkpt lat="49.06607" lon="0.07288">
        <ele>62</ele>
        <time>2024-09-22T08:35:06Z</time>
      </trkpt>
      <trkpt lat="49.06605" lon="0.0728">
        <ele>62.2</ele>
        <time>2024-09-22T08:35:07Z</time>
      </trkpt>
      <trkpt lat="49.06602" lon="0.07271">
        <ele>62.4</ele>
        <time>2024-09-22T08:35:08Z</time>
      </trkpt>
      <trkpt lat="49.06598" lon="0.0726">
        <ele>62.4</ele>
        <time>2024-09-22T08:35:09Z</time>
      </trkpt>
      <trkpt lat="49.06596" lon="0.07253">
        <ele>62.6</ele>
        <time>2024-09-22T08:35:10Z</time>
      </trkpt>
      <trkpt lat="49.06592" lon="0.07242">
        <ele>62.6</ele>
        <time>2024-09-22T08:35:11Z</time>
      </trkpt>
      <trkpt lat="49.06589" lon="0.07234">
        <ele>62.6</ele>
        <time>2024-09-22T08:35:12Z</time>
      </trkpt>
      <trkpt lat="49.06586" lon="0.07226">
        <ele>62.8</ele>
        <time>2024-09-22T08:35:13Z</time>
      </trkpt>
      <trkpt lat="49.06584" lon="0.07219">
        <ele>62.8</ele>
        <time>2024-09-22T08:35:14Z</time>
      </trkpt>
      <trkpt lat="49.06582" lon="0.07211">
        <ele>63</ele>
        <time>2024-09-22T08:35:15Z</time>
      </trkpt>
      <trkpt lat="49.0658" lon="0.07203">
        <ele>63.2</ele>
        <time>2024-09-22T08:35:16Z</time>
      </trkpt>
      <trkpt lat="49.06578" lon="0.07194">
        <ele>63.4</ele>
        <time>2024-09-22T08:35:17Z</time>
      </trkpt>
      <trkpt lat="49.06575" lon="0.07186">
        <ele>63.4</ele>
        <time>2024-09-22T08:35:18Z</time>
      </trkpt>
      <trkpt lat="49.06573" lon="0.07178">
        <ele>63.6</ele>
        <time>2024-09-22T08:35:19Z</time>
      </trkpt>
      <trkpt lat="49.06571" lon="0.0717">
        <ele>63.6</ele>
        <time>2024-09-22T08:35:20Z</time>
      </trkpt>
      <trkpt lat="49.06568" lon="0.07163">
        <ele>63.6</ele>
        <time>2024-09-22T08:35:21Z</time>
      </trkpt>
      <trkpt lat="49.06566" lon="0.07155">
        <ele>63.6</ele>
        <time>2024-09-22T08:35:22Z</time>
      </trkpt>
      <trkpt lat="49.06564" lon="0.07148">
        <ele>63.8</ele>
        <time>2024-09-22T08:35:23Z</time>
      </trkpt>
      <trkpt lat="49.06561" lon="0.07142">
        <ele>64</ele>
        <time>2024-09-22T08:35:24Z</time>
      </trkpt>
      <trkpt lat="49.06559" lon="0.07135">
        <ele>64</ele>
        <time>2024-09-22T08:35:25Z</time>
      </trkpt>
      <trkpt lat="49.06557" lon="0.07129">
        <ele>64.2</ele>
        <time>2024-09-22T08:35:26Z</time>
      </trkpt>
      <trkpt lat="49.06555" lon="0.07123">
        <ele>64.4</ele>
        <time>2024-09-22T08:35:27Z</time>
      </trkpt>
      <trkpt lat="49.06554" lon="0.07117">
        <ele>64.6</ele>
        <time>2024-09-22T08:35:28Z</time>
      </trkpt>
      <trkpt lat="49.06553" lon="0.07111">
        <ele>64.8</ele>
        <time>2024-09-22T08:35:29Z</time>
      </trkpt>
      <trkpt lat="49.06552" lon="0.07104">
        <ele>64.8</ele>
        <time>2024-09-22T08:35:30Z</time>
      </trkpt>
      <trkpt lat="49.06553" lon="0.07097">
        <ele>65</ele>
        <time>2024-09-22T08:35:31Z</time>
      </trkpt>
      <trkpt lat="49.06555" lon="0.07091">
        <ele>65</ele>
        <time>2024-09-22T08:35:32Z</time>
      </trkpt>
      <trkpt lat="49.06556" lon="0.07086">
        <ele>65.2</ele>
        <time>2024-09-22T08:35:33Z</time>
      </trkpt>
      <trkpt lat="49.06559" lon="0.07081">
        <ele>65.2</ele>
        <time>2024-09-22T08:35:34Z</time>
      </trkpt>
      <trkpt lat="49.06561" lon="0.07077">
        <ele>65.2</ele>
        <time>2024-09-22T08:35:35Z</time>
      </trkpt>
      <trkpt lat="49.06564" lon="0.07073">
        <ele>65.2</ele>
        <time>2024-09-22T08:35:36Z</time>
      </trkpt>
      <trkpt lat="49.06567" lon="0.07069">
        <ele>65.4</ele>
        <time>2024-09-22T08:35:37Z</time>
      </trkpt>
      <trkpt lat="49.06569" lon="0.07065">
        <ele>65.4</ele>
        <time>2024-09-22T08:35:38Z</time>
      </trkpt>
      <trkpt lat="49.06571" lon="0.07062">
        <ele>65.4</ele>
        <time>2024-09-22T08:35:39Z</time>
      </trkpt>
      <trkpt lat="49.06574" lon="0.07057">
        <ele>65.4</ele>
        <time>2024-09-22T08:35:40Z</time>
      </trkpt>
      <trkpt lat="49.06577" lon="0.07053">
        <ele>65.6</ele>
        <time>2024-09-22T08:35:41Z</time>
      </trkpt>
      <trkpt lat="49.06579" lon="0.07049">
        <ele>65.8</ele>
        <time>2024-09-22T08:35:42Z</time>
      </trkpt>
      <trkpt lat="49.06582" lon="0.07045">
        <ele>66</ele>
        <time>2024-09-22T08:35:43Z</time>
      </trkpt>
      <trkpt lat="49.06585" lon="0.0704">
        <ele>66.2</ele>
        <time>2024-09-22T08:35:44Z</time>
      </trkpt>
      <trkpt lat="49.06587" lon="0.07036">
        <ele>66.4</ele>
        <time>2024-09-22T08:35:45Z</time>
      </trkpt>
      <trkpt lat="49.0659" lon="0.07031">
        <ele>66.4</ele>
        <time>2024-09-22T08:35:46Z</time>
      </trkpt>
      <trkpt lat="49.06593" lon="0.07027">
        <ele>66.6</ele>
        <time>2024-09-22T08:35:47Z</time>
      </trkpt>
      <trkpt lat="49.06595" lon="0.07023">
        <ele>66.6</ele>
        <time>2024-09-22T08:35:48Z</time>
      </trkpt>
      <trkpt lat="49.06598" lon="0.07018">
        <ele>66.6</ele>
        <time>2024-09-22T08:35:49Z</time>
      </trkpt>
      <trkpt lat="49.066" lon="0.07015">
        <ele>66.8</ele>
        <time>2024-09-22T08:35:50Z</time>
      </trkpt>
      <trkpt lat="49.06603" lon="0.07011">
        <ele>66.8</ele>
        <time>2024-09-22T08:35:51Z</time>
      </trkpt>
      <trkpt lat="49.06606" lon="0.07005">
        <ele>67</ele>
        <time>2024-09-22T08:35:52Z</time>
      </trkpt>
      <trkpt lat="49.06609" lon="0.07001">
        <ele>67.2</ele>
        <time>2024-09-22T08:35:53Z</time>
      </trkpt>
      <trkpt lat="49.06612" lon="0.06996">
        <ele>67.2</ele>
        <time>2024-09-22T08:35:54Z</time>
      </trkpt>
      <trkpt lat="49.06615" lon="0.06992">
        <ele>67.4</ele>
        <time>2024-09-22T08:35:55Z</time>
      </trkpt>
      <trkpt lat="49.06617" lon="0.06987">
        <ele>67.4</ele>
        <time>2024-09-22T08:35:56Z</time>
      </trkpt>
      <trkpt lat="49.06619" lon="0.06983">
        <ele>67.4</ele>
        <time>2024-09-22T08:35:57Z</time>
      </trkpt>
      <trkpt lat="49.06622" lon="0.06979">
        <ele>67.6</ele>
        <time>2024-09-22T08:35:58Z</time>
      </trkpt>
      <trkpt lat="49.06624" lon="0.06974">
        <ele>67.6</ele>
        <time>2024-09-22T08:35:59Z</time>
      </trkpt>
      <trkpt lat="49.06626" lon="0.0697">
        <ele>67.6</ele>
        <time>2024-09-22T08:36:00Z</time>
      </trkpt>
      <trkpt lat="49.06629" lon="0.06966">
        <ele>67.6</ele>
        <time>2024-09-22T08:36:01Z</time>
      </trkpt>
      <trkpt lat="49.06631" lon="0.06963">
        <ele>67.8</ele>
        <time>2024-09-22T08:36:02Z</time>
      </trkpt>
      <trkpt lat="49.06635" lon="0.06957">
        <ele>67.8</ele>
        <time>2024-09-22T08:36:03Z</time>
      </trkpt>
      <trkpt lat="49.06638" lon="0.06951">
        <ele>67.8</ele>
        <time>2024-09-22T08:36:04Z</time>
      </trkpt>
      <trkpt lat="49.06641" lon="0.06945">
        <ele>68</ele>
        <time>2024-09-22T08:36:05Z</time>
      </trkpt>
      <trkpt lat="49.06645" lon="0.06938">
        <ele>68</ele>
        <time>2024-09-22T08:36:06Z</time>
      </trkpt>
      <trkpt lat="49.06648" lon="0.0693">
        <ele>68.2</ele>
        <time>2024-09-22T08:36:07Z</time>
      </trkpt>
      <trkpt lat="49.06652" lon="0.06922">
        <ele>68.2</ele>
        <time>2024-09-22T08:36:08Z</time>
      </trkpt>
      <trkpt lat="49.06655" lon="0.06914">
        <ele>68.2</ele>
        <time>2024-09-22T08:36:09Z</time>
      </trkpt>
      <trkpt lat="49.06658" lon="0.06905">
        <ele>68.2</ele>
        <time>2024-09-22T08:36:10Z</time>
      </trkpt>
      <trkpt lat="49.0666" lon="0.06892">
        <ele>68.2</ele>
        <time>2024-09-22T08:36:11Z</time>
      </trkpt>
      <trkpt lat="49.06662" lon="0.06884">
        <ele>68.2</ele>
        <time>2024-09-22T08:36:12Z</time>
      </trkpt>
      <trkpt lat="49.06664" lon="0.06871">
        <ele>68.2</ele>
        <time>2024-09-22T08:36:13Z</time>
      </trkpt>
      <trkpt lat="49.06665" lon="0.0686">
        <ele>68.2</ele>
        <time>2024-09-22T08:36:14Z</time>
      </trkpt>
      <trkpt lat="49.06666" lon="0.06849">
        <ele>68.2</ele>
        <time>2024-09-22T08:36:15Z</time>
      </trkpt>
      <trkpt lat="49.06667" lon="0.06838">
        <ele>68.2</ele>
        <time>2024-09-22T08:36:16Z</time>
      </trkpt>
      <trkpt lat="49.06668" lon="0.06827">
        <ele>68.2</ele>
        <time>2024-09-22T08:36:17Z</time>
      </trkpt>
      <trkpt lat="49.06669" lon="0.06817">
        <ele>68.2</ele>
        <time>2024-09-22T08:36:18Z</time>
      </trkpt>
      <trkpt lat="49.06669" lon="0.06804">
        <ele>68.2</ele>
        <time>2024-09-22T08:36:19Z</time>
      </trkpt>
      <trkpt lat="49.0667" lon="0.06794">
        <ele>68</ele>
        <time>2024-09-22T08:36:20Z</time>
      </trkpt>
      <trkpt lat="49.0667" lon="0.06783">
        <ele>68</ele>
        <time>2024-09-22T08:36:21Z</time>
      </trkpt>
      <trkpt lat="49.06671" lon="0.06772">
        <ele>68.2</ele>
        <time>2024-09-22T08:36:22Z</time>
      </trkpt>
      <trkpt lat="49.06671" lon="0.06761">
        <ele>68</ele>
        <time>2024-09-22T08:36:23Z</time>
      </trkpt>
      <trkpt lat="49.06672" lon="0.0675">
        <ele>68.2</ele>
        <time>2024-09-22T08:36:24Z</time>
      </trkpt>
      <trkpt lat="49.06672" lon="0.06739">
        <ele>68.2</ele>
        <time>2024-09-22T08:36:25Z</time>
      </trkpt>
      <trkpt lat="49.06673" lon="0.06727">
        <ele>68.2</ele>
        <time>2024-09-22T08:36:26Z</time>
      </trkpt>
      <trkpt lat="49.06674" lon="0.06717">
        <ele>68.2</ele>
        <time>2024-09-22T08:36:27Z</time>
      </trkpt>
      <trkpt lat="49.06675" lon="0.06706">
        <ele>68</ele>
        <time>2024-09-22T08:36:28Z</time>
      </trkpt>
      <trkpt lat="49.06676" lon="0.06696">
        <ele>68</ele>
        <time>2024-09-22T08:36:29Z</time>
      </trkpt>
      <trkpt lat="49.06677" lon="0.06685">
        <ele>68</ele>
        <time>2024-09-22T08:36:30Z</time>
      </trkpt>
      <trkpt lat="49.06677" lon="0.06674">
        <ele>68</ele>
        <time>2024-09-22T08:36:31Z</time>
      </trkpt>
      <trkpt lat="49.06678" lon="0.06664">
        <ele>68</ele>
        <time>2024-09-22T08:36:32Z</time>
      </trkpt>
      <trkpt lat="49.06678" lon="0.06655">
        <ele>68</ele>
        <time>2024-09-22T08:36:33Z</time>
      </trkpt>
      <trkpt lat="49.06679" lon="0.06641">
        <ele>68</ele>
        <time>2024-09-22T08:36:34Z</time>
      </trkpt>
      <trkpt lat="49.06679" lon="0.06632">
        <ele>68</ele>
        <time>2024-09-22T08:36:35Z</time>
      </trkpt>
      <trkpt lat="49.06679" lon="0.06619">
        <ele>68</ele>
        <time>2024-09-22T08:36:36Z</time>
      </trkpt>
      <trkpt lat="49.0668" lon="0.06608">
        <ele>68</ele>
        <time>2024-09-22T08:36:37Z</time>
      </trkpt>
      <trkpt lat="49.0668" lon="0.06597">
        <ele>68</ele>
        <time>2024-09-22T08:36:38Z</time>
      </trkpt>
      <trkpt lat="49.06681" lon="0.06586">
        <ele>68</ele>
        <time>2024-09-22T08:36:39Z</time>
      </trkpt>
      <trkpt lat="49.06681" lon="0.06576">
        <ele>68</ele>
        <time>2024-09-22T08:36:40Z</time>
      </trkpt>
      <trkpt lat="49.06682" lon="0.06566">
        <ele>68</ele>
        <time>2024-09-22T08:36:41Z</time>
      </trkpt>
      <trkpt lat="49.06683" lon="0.06556">
        <ele>68</ele>
        <time>2024-09-22T08:36:42Z</time>
      </trkpt>
      <trkpt lat="49.06683" lon="0.06548">
        <ele>68</ele>
        <time>2024-09-22T08:36:43Z</time>
      </trkpt>
      <trkpt lat="49.06684" lon="0.06536">
        <ele>68</ele>
        <time>2024-09-22T08:36:44Z</time>
      </trkpt>
      <trkpt lat="49.06684" lon="0.06526">
        <ele>68</ele>
        <time>2024-09-22T08:36:45Z</time>
      </trkpt>
      <trkpt lat="49.06685" lon="0.06516">
        <ele>68</ele>
        <time>2024-09-22T08:36:46Z</time>
      </trkpt>
      <trkpt lat="49.06685" lon="0.06507">
        <ele>68</ele>
        <time>2024-09-22T08:36:47Z</time>
      </trkpt>
      <trkpt lat="49.06686" lon="0.06497">
        <ele>68</ele>
        <time>2024-09-22T08:36:48Z</time>
      </trkpt>
      <trkpt lat="49.06687" lon="0.06487">
        <ele>68</ele>
        <time>2024-09-22T08:36:49Z</time>
      </trkpt>
      <trkpt lat="49.06687" lon="0.06479">
        <ele>68</ele>
        <time>2024-09-22T08:36:50Z</time>
      </trkpt>
      <trkpt lat="49.06688" lon="0.06469">
        <ele>68</ele>
        <time>2024-09-22T08:36:51Z</time>
      </trkpt>
      <trkpt lat="49.06688" lon="0.06457">
        <ele>68</ele>
        <time>2024-09-22T08:36:52Z</time>
      </trkpt>
      <trkpt lat="49.06689" lon="0.06448">
        <ele>68</ele>
        <time>2024-09-22T08:36:53Z</time>
      </trkpt>
      <trkpt lat="49.06689" lon="0.06438">
        <ele>68</ele>
        <time>2024-09-22T08:36:54Z</time>
      </trkpt>
      <trkpt lat="49.0669" lon="0.06428">
        <ele>68</ele>
        <time>2024-09-22T08:36:55Z</time>
      </trkpt>
      <trkpt lat="49.0669" lon="0.06418">
        <ele>68</ele>
        <time>2024-09-22T08:36:56Z</time>
      </trkpt>
      <trkpt lat="49.0669" lon="0.06409">
        <ele>68.2</ele>
        <time>2024-09-22T08:36:57Z</time>
      </trkpt>
      <trkpt lat="49.0669" lon="0.06399">
        <ele>68.2</ele>
        <time>2024-09-22T08:36:58Z</time>
      </trkpt>
      <trkpt lat="49.0669" lon="0.0639">
        <ele>68.2</ele>
        <time>2024-09-22T08:36:59Z</time>
      </trkpt>
      <trkpt lat="49.0669" lon="0.0638">
        <ele>68.2</ele>
        <time>2024-09-22T08:37:00Z</time>
      </trkpt>
      <trkpt lat="49.06689" lon="0.0637">
        <ele>68.2</ele>
        <time>2024-09-22T08:37:01Z</time>
      </trkpt>
      <trkpt lat="49.06689" lon="0.06363">
        <ele>68.2</ele>
        <time>2024-09-22T08:37:02Z</time>
      </trkpt>
      <trkpt lat="49.06688" lon="0.06351">
        <ele>68.2</ele>
        <time>2024-09-22T08:37:03Z</time>
      </trkpt>
      <trkpt lat="49.06688" lon="0.06342">
        <ele>68.2</ele>
        <time>2024-09-22T08:37:04Z</time>
      </trkpt>
      <trkpt lat="49.06687" lon="0.06334">
        <ele>68.2</ele>
        <time>2024-09-22T08:37:05Z</time>
      </trkpt>
      <trkpt lat="49.06687" lon="0.06324">
        <ele>68.2</ele>
        <time>2024-09-22T08:37:06Z</time>
      </trkpt>
      <trkpt lat="49.06687" lon="0.06315">
        <ele>68.2</ele>
        <time>2024-09-22T08:37:07Z</time>
      </trkpt>
      <trkpt lat="49.06686" lon="0.06306">
        <ele>68.2</ele>
        <time>2024-09-22T08:37:08Z</time>
      </trkpt>
      <trkpt lat="49.06686" lon="0.06297">
        <ele>68.2</ele>
        <time>2024-09-22T08:37:09Z</time>
      </trkpt>
      <trkpt lat="49.06686" lon="0.06288">
        <ele>68.2</ele>
        <time>2024-09-22T08:37:10Z</time>
      </trkpt>
      <trkpt lat="49.06686" lon="0.06279">
        <ele>68.4</ele>
        <time>2024-09-22T08:37:11Z</time>
      </trkpt>
      <trkpt lat="49.06687" lon="0.0627">
        <ele>68.4</ele>
        <time>2024-09-22T08:37:12Z</time>
      </trkpt>
      <trkpt lat="49.06688" lon="0.06262">
        <ele>68.4</ele>
        <time>2024-09-22T08:37:13Z</time>
      </trkpt>
      <trkpt lat="49.06689" lon="0.06253">
        <ele>68.4</ele>
        <time>2024-09-22T08:37:14Z</time>
      </trkpt>
      <trkpt lat="49.06689" lon="0.06245">
        <ele>68.6</ele>
        <time>2024-09-22T08:37:15Z</time>
      </trkpt>
      <trkpt lat="49.0669" lon="0.06236">
        <ele>68.6</ele>
        <time>2024-09-22T08:37:16Z</time>
      </trkpt>
      <trkpt lat="49.06692" lon="0.06225">
        <ele>68.6</ele>
        <time>2024-09-22T08:37:17Z</time>
      </trkpt>
      <trkpt lat="49.06694" lon="0.06216">
        <ele>68.8</ele>
        <time>2024-09-22T08:37:18Z</time>
      </trkpt>
      <trkpt lat="49.06695" lon="0.06206">
        <ele>69</ele>
        <time>2024-09-22T08:37:19Z</time>
      </trkpt>
      <trkpt lat="49.06697" lon="0.06196">
        <ele>69.2</ele>
        <time>2024-09-22T08:37:20Z</time>
      </trkpt>
      <trkpt lat="49.06698" lon="0.06186">
        <ele>69.4</ele>
        <time>2024-09-22T08:37:21Z</time>
      </trkpt>
      <trkpt lat="49.067" lon="0.06176">
        <ele>69.8</ele>
        <time>2024-09-22T08:37:22Z</time>
      </trkpt>
      <trkpt lat="49.06701" lon="0.06166">
        <ele>69.8</ele>
        <time>2024-09-22T08:37:23Z</time>
      </trkpt>
      <trkpt lat="49.06703" lon="0.06155">
        <ele>70.2</ele>
        <time>2024-09-22T08:37:24Z</time>
      </trkpt>
      <trkpt lat="49.06704" lon="0.06144">
        <ele>70.4</ele>
        <time>2024-09-22T08:37:25Z</time>
      </trkpt>
      <trkpt lat="49.06706" lon="0.06134">
        <ele>70.4</ele>
        <time>2024-09-22T08:37:26Z</time>
      </trkpt>
      <trkpt lat="49.06707" lon="0.06123">
        <ele>70.6</ele>
        <time>2024-09-22T08:37:27Z</time>
      </trkpt>
      <trkpt lat="49.06708" lon="0.06112">
        <ele>70.8</ele>
        <time>2024-09-22T08:37:28Z</time>
      </trkpt>
      <trkpt lat="49.06709" lon="0.06101">
        <ele>70.8</ele>
        <time>2024-09-22T08:37:29Z</time>
      </trkpt>
      <trkpt lat="49.0671" lon="0.06091">
        <ele>71</ele>
        <time>2024-09-22T08:37:30Z</time>
      </trkpt>
      <trkpt lat="49.06712" lon="0.0608">
        <ele>71</ele>
        <time>2024-09-22T08:37:31Z</time>
      </trkpt>
      <trkpt lat="49.06713" lon="0.06069">
        <ele>71.2</ele>
        <time>2024-09-22T08:37:32Z</time>
      </trkpt>
      <trkpt lat="49.06714" lon="0.06059">
        <ele>71.2</ele>
        <time>2024-09-22T08:37:33Z</time>
      </trkpt>
      <trkpt lat="49.06716" lon="0.06048">
        <ele>71.2</ele>
        <time>2024-09-22T08:37:34Z</time>
      </trkpt>
      <trkpt lat="49.06717" lon="0.06037">
        <ele>71.2</ele>
        <time>2024-09-22T08:37:35Z</time>
      </trkpt>
      <trkpt lat="49.06719" lon="0.06027">
        <ele>71.2</ele>
        <time>2024-09-22T08:37:36Z</time>
      </trkpt>
      <trkpt lat="49.0672" lon="0.06018">
        <ele>71.4</ele>
        <time>2024-09-22T08:37:37Z</time>
      </trkpt>
      <trkpt lat="49.06722" lon="0.06005">
        <ele>71.4</ele>
        <time>2024-09-22T08:37:38Z</time>
      </trkpt>
      <trkpt lat="49.06724" lon="0.05994">
        <ele>71.4</ele>
        <time>2024-09-22T08:37:39Z</time>
      </trkpt>
      <trkpt lat="49.06725" lon="0.05984">
        <ele>71.6</ele>
        <time>2024-09-22T08:37:40Z</time>
      </trkpt>
      <trkpt lat="49.06727" lon="0.05973">
        <ele>71.6</ele>
        <time>2024-09-22T08:37:41Z</time>
      </trkpt>
      <trkpt lat="49.06728" lon="0.05963">
        <ele>71.6</ele>
        <time>2024-09-22T08:37:42Z</time>
      </trkpt>
      <trkpt lat="49.0673" lon="0.05953">
        <ele>71.6</ele>
        <time>2024-09-22T08:37:43Z</time>
      </trkpt>
      <trkpt lat="49.06732" lon="0.05943">
        <ele>71.6</ele>
        <time>2024-09-22T08:37:44Z</time>
      </trkpt>
      <trkpt lat="49.06733" lon="0.05933">
        <ele>71.6</ele>
        <time>2024-09-22T08:37:45Z</time>
      </trkpt>
      <trkpt lat="49.06735" lon="0.05922">
        <ele>71.8</ele>
        <time>2024-09-22T08:37:46Z</time>
      </trkpt>
      <trkpt lat="49.06736" lon="0.05912">
        <ele>71.8</ele>
        <time>2024-09-22T08:37:47Z</time>
      </trkpt>
      <trkpt lat="49.06738" lon="0.05901">
        <ele>71.8</ele>
        <time>2024-09-22T08:37:48Z</time>
      </trkpt>
      <trkpt lat="49.06739" lon="0.05889">
        <ele>71.8</ele>
        <time>2024-09-22T08:37:49Z</time>
      </trkpt>
      <trkpt lat="49.06741" lon="0.05878">
        <ele>72</ele>
        <time>2024-09-22T08:37:50Z</time>
      </trkpt>
      <trkpt lat="49.06742" lon="0.05866">
        <ele>72</ele>
        <time>2024-09-22T08:37:51Z</time>
      </trkpt>
      <trkpt lat="49.06744" lon="0.05855">
        <ele>72</ele>
        <time>2024-09-22T08:37:52Z</time>
      </trkpt>
      <trkpt lat="49.06746" lon="0.05843">
        <ele>72</ele>
        <time>2024-09-22T08:37:53Z</time>
      </trkpt>
      <trkpt lat="49.06747" lon="0.05832">
        <ele>72</ele>
        <time>2024-09-22T08:37:54Z</time>
      </trkpt>
      <trkpt lat="49.06749" lon="0.0582">
        <ele>72.2</ele>
        <time>2024-09-22T08:37:55Z</time>
      </trkpt>
      <trkpt lat="49.0675" lon="0.05808">
        <ele>72.2</ele>
        <time>2024-09-22T08:37:56Z</time>
      </trkpt>
      <trkpt lat="49.06752" lon="0.05797">
        <ele>72.2</ele>
        <time>2024-09-22T08:37:57Z</time>
      </trkpt>
      <trkpt lat="49.06754" lon="0.05785">
        <ele>72.2</ele>
        <time>2024-09-22T08:37:58Z</time>
      </trkpt>
      <trkpt lat="49.06756" lon="0.05775">
        <ele>72.2</ele>
        <time>2024-09-22T08:37:59Z</time>
      </trkpt>
      <trkpt lat="49.06757" lon="0.05764">
        <ele>72.2</ele>
        <time>2024-09-22T08:38:00Z</time>
      </trkpt>
      <trkpt lat="49.06759" lon="0.05753">
        <ele>72.2</ele>
        <time>2024-09-22T08:38:01Z</time>
      </trkpt>
      <trkpt lat="49.06761" lon="0.05742">
        <ele>72.2</ele>
        <time>2024-09-22T08:38:02Z</time>
      </trkpt>
      <trkpt lat="49.06762" lon="0.05732">
        <ele>72.2</ele>
        <time>2024-09-22T08:38:03Z</time>
      </trkpt>
      <trkpt lat="49.06763" lon="0.05721">
        <ele>72.2</ele>
        <time>2024-09-22T08:38:04Z</time>
      </trkpt>
      <trkpt lat="49.06764" lon="0.0571">
        <ele>72.2</ele>
        <time>2024-09-22T08:38:05Z</time>
      </trkpt>
      <trkpt lat="49.06766" lon="0.057">
        <ele>72.2</ele>
        <time>2024-09-22T08:38:06Z</time>
      </trkpt>
      <trkpt lat="49.06767" lon="0.05689">
        <ele>72.2</ele>
        <time>2024-09-22T08:38:07Z</time>
      </trkpt>
      <trkpt lat="49.06769" lon="0.05678">
        <ele>72.2</ele>
        <time>2024-09-22T08:38:08Z</time>
      </trkpt>
      <trkpt lat="49.06771" lon="0.05667">
        <ele>72.2</ele>
        <time>2024-09-22T08:38:09Z</time>
      </trkpt>
      <trkpt lat="49.06773" lon="0.05656">
        <ele>72.2</ele>
        <time>2024-09-22T08:38:10Z</time>
      </trkpt>
      <trkpt lat="49.06774" lon="0.05645">
        <ele>72.4</ele>
        <time>2024-09-22T08:38:11Z</time>
      </trkpt>
      <trkpt lat="49.06776" lon="0.05633">
        <ele>72.4</ele>
        <time>2024-09-22T08:38:12Z</time>
      </trkpt>
      <trkpt lat="49.06777" lon="0.05622">
        <ele>72.4</ele>
        <time>2024-09-22T08:38:13Z</time>
      </trkpt>
      <trkpt lat="49.06779" lon="0.0561">
        <ele>72.4</ele>
        <time>2024-09-22T08:38:14Z</time>
      </trkpt>
      <trkpt lat="49.0678" lon="0.05599">
        <ele>72.4</ele>
        <time>2024-09-22T08:38:15Z</time>
      </trkpt>
      <trkpt lat="49.06782" lon="0.05587">
        <ele>72.4</ele>
        <time>2024-09-22T08:38:16Z</time>
      </trkpt>
      <trkpt lat="49.06783" lon="0.05575">
        <ele>72.4</ele>
        <time>2024-09-22T08:38:17Z</time>
      </trkpt>
      <trkpt lat="49.06784" lon="0.05564">
        <ele>72.4</ele>
        <time>2024-09-22T08:38:18Z</time>
      </trkpt>
      <trkpt lat="49.06785" lon="0.05553">
        <ele>72.4</ele>
        <time>2024-09-22T08:38:19Z</time>
      </trkpt>
      <trkpt lat="49.06787" lon="0.05541">
        <ele>72.4</ele>
        <time>2024-09-22T08:38:20Z</time>
      </trkpt>
      <trkpt lat="49.06788" lon="0.0553">
        <ele>72.4</ele>
        <time>2024-09-22T08:38:21Z</time>
      </trkpt>
      <trkpt lat="49.0679" lon="0.05519">
        <ele>72.4</ele>
        <time>2024-09-22T08:38:22Z</time>
      </trkpt>
      <trkpt lat="49.06792" lon="0.05507">
        <ele>72.4</ele>
        <time>2024-09-22T08:38:23Z</time>
      </trkpt>
      <trkpt lat="49.06794" lon="0.05496">
        <ele>72.4</ele>
        <time>2024-09-22T08:38:24Z</time>
      </trkpt>
      <trkpt lat="49.06797" lon="0.05484">
        <ele>72.2</ele>
        <time>2024-09-22T08:38:25Z</time>
      </trkpt>
      <trkpt lat="49.06799" lon="0.05472">
        <ele>72.2</ele>
        <time>2024-09-22T08:38:26Z</time>
      </trkpt>
      <trkpt lat="49.06802" lon="0.0546">
        <ele>72.2</ele>
        <time>2024-09-22T08:38:27Z</time>
      </trkpt>
      <trkpt lat="49.06806" lon="0.05449">
        <ele>72.2</ele>
        <time>2024-09-22T08:38:28Z</time>
      </trkpt>
      <trkpt lat="49.0681" lon="0.05437">
        <ele>72</ele>
        <time>2024-09-22T08:38:29Z</time>
      </trkpt>
      <trkpt lat="49.06813" lon="0.05425">
        <ele>72</ele>
        <time>2024-09-22T08:38:30Z</time>
      </trkpt>
      <trkpt lat="49.06817" lon="0.05413">
        <ele>71.8</ele>
        <time>2024-09-22T08:38:31Z</time>
      </trkpt>
      <trkpt lat="49.06821" lon="0.05401">
        <ele>71.8</ele>
        <time>2024-09-22T08:38:32Z</time>
      </trkpt>
      <trkpt lat="49.06825" lon="0.0539">
        <ele>71.8</ele>
        <time>2024-09-22T08:38:33Z</time>
      </trkpt>
      <trkpt lat="49.06829" lon="0.05378">
        <ele>71.6</ele>
        <time>2024-09-22T08:38:34Z</time>
      </trkpt>
      <trkpt lat="49.06833" lon="0.05366">
        <ele>71.4</ele>
        <time>2024-09-22T08:38:35Z</time>
      </trkpt>
      <trkpt lat="49.06837" lon="0.05355">
        <ele>71.4</ele>
        <time>2024-09-22T08:38:36Z</time>
      </trkpt>
      <trkpt lat="49.06842" lon="0.05344">
        <ele>71.2</ele>
        <time>2024-09-22T08:38:37Z</time>
      </trkpt>
      <trkpt lat="49.06846" lon="0.05332">
        <ele>71.2</ele>
        <time>2024-09-22T08:38:38Z</time>
      </trkpt>
      <trkpt lat="49.06851" lon="0.05321">
        <ele>71</ele>
        <time>2024-09-22T08:38:39Z</time>
      </trkpt>
      <trkpt lat="49.06855" lon="0.05309">
        <ele>71</ele>
        <time>2024-09-22T08:38:40Z</time>
      </trkpt>
      <trkpt lat="49.0686" lon="0.05298">
        <ele>70.8</ele>
        <time>2024-09-22T08:38:41Z</time>
      </trkpt>
      <trkpt lat="49.06864" lon="0.05287">
        <ele>70.8</ele>
        <time>2024-09-22T08:38:42Z</time>
      </trkpt>
      <trkpt lat="49.06868" lon="0.05276">
        <ele>70.6</ele>
        <time>2024-09-22T08:38:43Z</time>
      </trkpt>
      <trkpt lat="49.06872" lon="0.05265">
        <ele>70.2</ele>
        <time>2024-09-22T08:38:44Z</time>
      </trkpt>
      <trkpt lat="49.06876" lon="0.05255">
        <ele>70.2</ele>
        <time>2024-09-22T08:38:45Z</time>
      </trkpt>
      <trkpt lat="49.06881" lon="0.05244">
        <ele>69.8</ele>
        <time>2024-09-22T08:38:46Z</time>
      </trkpt>
      <trkpt lat="49.06885" lon="0.05233">
        <ele>69.8</ele>
        <time>2024-09-22T08:38:47Z</time>
      </trkpt>
      <trkpt lat="49.06889" lon="0.05222">
        <ele>69.6</ele>
        <time>2024-09-22T08:38:48Z</time>
      </trkpt>
      <trkpt lat="49.06893" lon="0.05211">
        <ele>69.6</ele>
        <time>2024-09-22T08:38:49Z</time>
      </trkpt>
      <trkpt lat="49.06898" lon="0.052">
        <ele>69.6</ele>
        <time>2024-09-22T08:38:50Z</time>
      </trkpt>
      <trkpt lat="49.06902" lon="0.05189">
        <ele>69.6</ele>
        <time>2024-09-22T08:38:51Z</time>
      </trkpt>
      <trkpt lat="49.06906" lon="0.05178">
        <ele>69.6</ele>
        <time>2024-09-22T08:38:52Z</time>
      </trkpt>
      <trkpt lat="49.0691" lon="0.05166">
        <ele>69.6</ele>
        <time>2024-09-22T08:38:53Z</time>
      </trkpt>
      <trkpt lat="49.06915" lon="0.05155">
        <ele>69.6</ele>
        <time>2024-09-22T08:38:54Z</time>
      </trkpt>
      <trkpt lat="49.06919" lon="0.05144">
        <ele>69.6</ele>
        <time>2024-09-22T08:38:55Z</time>
      </trkpt>
      <trkpt lat="49.06924" lon="0.05132">
        <ele>69.6</ele>
        <time>2024-09-22T08:38:56Z</time>
      </trkpt>
      <trkpt lat="49.06928" lon="0.05121">
        <ele>69.8</ele>
        <time>2024-09-22T08:38:57Z</time>
      </trkpt>
      <trkpt lat="49.06932" lon="0.0511">
        <ele>69.8</ele>
        <time>2024-09-22T08:38:58Z</time>
      </trkpt>
      <trkpt lat="49.06936" lon="0.05099">
        <ele>70</ele>
        <time>2024-09-22T08:38:59Z</time>
      </trkpt>
      <trkpt lat="49.0694" lon="0.05088">
        <ele>70</ele>
        <time>2024-09-22T08:39:00Z</time>
      </trkpt>
      <trkpt lat="49.06945" lon="0.05077">
        <ele>70.2</ele>
        <time>2024-09-22T08:39:01Z</time>
      </trkpt>
      <trkpt lat="49.06949" lon="0.05065">
        <ele>70.4</ele>
        <time>2024-09-22T08:39:02Z</time>
      </trkpt>
      <trkpt lat="49.06953" lon="0.05054">
        <ele>70.4</ele>
        <time>2024-09-22T08:39:03Z</time>
      </trkpt>
      <trkpt lat="49.06957" lon="0.05043">
        <ele>70.4</ele>
        <time>2024-09-22T08:39:04Z</time>
      </trkpt>
      <trkpt lat="49.06962" lon="0.05032">
        <ele>70.4</ele>
        <time>2024-09-22T08:39:05Z</time>
      </trkpt>
      <trkpt lat="49.06966" lon="0.0502">
        <ele>70.4</ele>
        <time>2024-09-22T08:39:06Z</time>
      </trkpt>
      <trkpt lat="49.06971" lon="0.05009">
        <ele>70.6</ele>
        <time>2024-09-22T08:39:07Z</time>
      </trkpt>
      <trkpt lat="49.06975" lon="0.04997">
        <ele>70.6</ele>
        <time>2024-09-22T08:39:08Z</time>
      </trkpt>
      <trkpt lat="49.06979" lon="0.04988">
        <ele>70.6</ele>
        <time>2024-09-22T08:39:09Z</time>
      </trkpt>
      <trkpt lat="49.06984" lon="0.04974">
        <ele>70.6</ele>
        <time>2024-09-22T08:39:10Z</time>
      </trkpt>
      <trkpt lat="49.06988" lon="0.04962">
        <ele>70.6</ele>
        <time>2024-09-22T08:39:11Z</time>
      </trkpt>
      <trkpt lat="49.06993" lon="0.0495">
        <ele>70.6</ele>
        <time>2024-09-22T08:39:12Z</time>
      </trkpt>
      <trkpt lat="49.06997" lon="0.04938">
        <ele>70.6</ele>
        <time>2024-09-22T08:39:13Z</time>
      </trkpt>
      <trkpt lat="49.07002" lon="0.04926">
        <ele>70.6</ele>
        <time>2024-09-22T08:39:14Z</time>
      </trkpt>
      <trkpt lat="49.07007" lon="0.04914">
        <ele>70.6</ele>
        <time>2024-09-22T08:39:15Z</time>
      </trkpt>
      <trkpt lat="49.07011" lon="0.04902">
        <ele>70.6</ele>
        <time>2024-09-22T08:39:16Z</time>
      </trkpt>
      <trkpt lat="49.07016" lon="0.0489">
        <ele>70.6</ele>
        <time>2024-09-22T08:39:17Z</time>
      </trkpt>
      <trkpt lat="49.07021" lon="0.04877">
        <ele>70.6</ele>
        <time>2024-09-22T08:39:18Z</time>
      </trkpt>
      <trkpt lat="49.07025" lon="0.04865">
        <ele>70.4</ele>
        <time>2024-09-22T08:39:19Z</time>
      </trkpt>
      <trkpt lat="49.0703" lon="0.04853">
        <ele>70.4</ele>
        <time>2024-09-22T08:39:20Z</time>
      </trkpt>
      <trkpt lat="49.07035" lon="0.0484">
        <ele>70.2</ele>
        <time>2024-09-22T08:39:21Z</time>
      </trkpt>
      <trkpt lat="49.07039" lon="0.04828">
        <ele>70.2</ele>
        <time>2024-09-22T08:39:22Z</time>
      </trkpt>
      <trkpt lat="49.07044" lon="0.04816">
        <ele>70</ele>
        <time>2024-09-22T08:39:23Z</time>
      </trkpt>
      <trkpt lat="49.07048" lon="0.04804">
        <ele>69.8</ele>
        <time>2024-09-22T08:39:24Z</time>
      </trkpt>
      <trkpt lat="49.07053" lon="0.04792">
        <ele>69.8</ele>
        <time>2024-09-22T08:39:25Z</time>
      </trkpt>
      <trkpt lat="49.07057" lon="0.0478">
        <ele>69.8</ele>
        <time>2024-09-22T08:39:26Z</time>
      </trkpt>
      <trkpt lat="49.07062" lon="0.04768">
        <ele>69.8</ele>
        <time>2024-09-22T08:39:27Z</time>
      </trkpt>
      <trkpt lat="49.07066" lon="0.04757">
        <ele>69.8</ele>
        <time>2024-09-22T08:39:28Z</time>
      </trkpt>
      <trkpt lat="49.07071" lon="0.04745">
        <ele>69.6</ele>
        <time>2024-09-22T08:39:29Z</time>
      </trkpt>
      <trkpt lat="49.07076" lon="0.04733">
        <ele>69.6</ele>
        <time>2024-09-22T08:39:30Z</time>
      </trkpt>
      <trkpt lat="49.0708" lon="0.04721">
        <ele>69.6</ele>
        <time>2024-09-22T08:39:31Z</time>
      </trkpt>
      <trkpt lat="49.07085" lon="0.04709">
        <ele>69.6</ele>
        <time>2024-09-22T08:39:32Z</time>
      </trkpt>
      <trkpt lat="49.07089" lon="0.04698">
        <ele>69.6</ele>
        <time>2024-09-22T08:39:33Z</time>
      </trkpt>
      <trkpt lat="49.07094" lon="0.04686">
        <ele>69.4</ele>
        <time>2024-09-22T08:39:34Z</time>
      </trkpt>
      <trkpt lat="49.07098" lon="0.04674">
        <ele>69.4</ele>
        <time>2024-09-22T08:39:35Z</time>
      </trkpt>
      <trkpt lat="49.07102" lon="0.04662">
        <ele>69.4</ele>
        <time>2024-09-22T08:39:36Z</time>
      </trkpt>
      <trkpt lat="49.07107" lon="0.0465">
        <ele>69.2</ele>
        <time>2024-09-22T08:39:37Z</time>
      </trkpt>
      <trkpt lat="49.07112" lon="0.04638">
        <ele>69.2</ele>
        <time>2024-09-22T08:39:38Z</time>
      </trkpt>
      <trkpt lat="49.07116" lon="0.04626">
        <ele>69.2</ele>
        <time>2024-09-22T08:39:39Z</time>
      </trkpt>
      <trkpt lat="49.07121" lon="0.04614">
        <ele>69</ele>
        <time>2024-09-22T08:39:40Z</time>
      </trkpt>
      <trkpt lat="49.07125" lon="0.04602">
        <ele>69</ele>
        <time>2024-09-22T08:39:41Z</time>
      </trkpt>
      <trkpt lat="49.0713" lon="0.04589">
        <ele>69</ele>
        <time>2024-09-22T08:39:42Z</time>
      </trkpt>
      <trkpt lat="49.07135" lon="0.04577">
        <ele>68.8</ele>
        <time>2024-09-22T08:39:43Z</time>
      </trkpt>
      <trkpt lat="49.07139" lon="0.04564">
        <ele>68.8</ele>
        <time>2024-09-22T08:39:44Z</time>
      </trkpt>
      <trkpt lat="49.07144" lon="0.04552">
        <ele>68.6</ele>
        <time>2024-09-22T08:39:45Z</time>
      </trkpt>
      <trkpt lat="49.07148" lon="0.0454">
        <ele>68.6</ele>
        <time>2024-09-22T08:39:46Z</time>
      </trkpt>
      <trkpt lat="49.07153" lon="0.04528">
        <ele>68.6</ele>
        <time>2024-09-22T08:39:47Z</time>
      </trkpt>
      <trkpt lat="49.07158" lon="0.04515">
        <ele>68.6</ele>
        <time>2024-09-22T08:39:48Z</time>
      </trkpt>
      <trkpt lat="49.07163" lon="0.04503">
        <ele>68.6</ele>
        <time>2024-09-22T08:39:49Z</time>
      </trkpt>
      <trkpt lat="49.07167" lon="0.0449">
        <ele>68.6</ele>
        <time>2024-09-22T08:39:50Z</time>
      </trkpt>
      <trkpt lat="49.07172" lon="0.04478">
        <ele>68.4</ele>
        <time>2024-09-22T08:39:51Z</time>
      </trkpt>
      <trkpt lat="49.07177" lon="0.04465">
        <ele>68.4</ele>
        <time>2024-09-22T08:39:52Z</time>
      </trkpt>
      <trkpt lat="49.07182" lon="0.04453">
        <ele>68.4</ele>
        <time>2024-09-22T08:39:53Z</time>
      </trkpt>
      <trkpt lat="49.07186" lon="0.0444">
        <ele>68.2</ele>
        <time>2024-09-22T08:39:54Z</time>
      </trkpt>
      <trkpt lat="49.07191" lon="0.04427">
        <ele>68.2</ele>
        <time>2024-09-22T08:39:55Z</time>
      </trkpt>
      <trkpt lat="49.07196" lon="0.04415">
        <ele>68.2</ele>
        <time>2024-09-22T08:39:56Z</time>
      </trkpt>
      <trkpt lat="49.07201" lon="0.04402">
        <ele>68</ele>
        <time>2024-09-22T08:39:57Z</time>
      </trkpt>
      <trkpt lat="49.07205" lon="0.0439">
        <ele>68</ele>
        <time>2024-09-22T08:39:58Z</time>
      </trkpt>
      <trkpt lat="49.0721" lon="0.04378">
        <ele>67.8</ele>
        <time>2024-09-22T08:39:59Z</time>
      </trkpt>
      <trkpt lat="49.07215" lon="0.04365">
        <ele>67.8</ele>
        <time>2024-09-22T08:40:00Z</time>
      </trkpt>
      <trkpt lat="49.07219" lon="0.04352">
        <ele>67.6</ele>
        <time>2024-09-22T08:40:01Z</time>
      </trkpt>
      <trkpt lat="49.07224" lon="0.04339">
        <ele>67.4</ele>
        <time>2024-09-22T08:40:02Z</time>
      </trkpt>
      <trkpt lat="49.07228" lon="0.04329">
        <ele>67.4</ele>
        <time>2024-09-22T08:40:03Z</time>
      </trkpt>
      <trkpt lat="49.07234" lon="0.04313">
        <ele>67.2</ele>
        <time>2024-09-22T08:40:04Z</time>
      </trkpt>
      <trkpt lat="49.07239" lon="0.043">
        <ele>67.2</ele>
        <time>2024-09-22T08:40:05Z</time>
      </trkpt>
      <trkpt lat="49.07244" lon="0.04287">
        <ele>67</ele>
        <time>2024-09-22T08:40:06Z</time>
      </trkpt>
      <trkpt lat="49.07249" lon="0.04275">
        <ele>67</ele>
        <time>2024-09-22T08:40:07Z</time>
      </trkpt>
      <trkpt lat="49.07253" lon="0.04262">
        <ele>67</ele>
        <time>2024-09-22T08:40:08Z</time>
      </trkpt>
      <trkpt lat="49.07258" lon="0.04249">
        <ele>66.8</ele>
        <time>2024-09-22T08:40:09Z</time>
      </trkpt>
      <trkpt lat="49.07263" lon="0.04236">
        <ele>66.6</ele>
        <time>2024-09-22T08:40:10Z</time>
      </trkpt>
      <trkpt lat="49.07268" lon="0.04224">
        <ele>66.4</ele>
        <time>2024-09-22T08:40:11Z</time>
      </trkpt>
      <trkpt lat="49.07273" lon="0.04211">
        <ele>66.2</ele>
        <time>2024-09-22T08:40:12Z</time>
      </trkpt>
      <trkpt lat="49.07278" lon="0.04199">
        <ele>66.2</ele>
        <time>2024-09-22T08:40:13Z</time>
      </trkpt>
      <trkpt lat="49.07282" lon="0.04186">
        <ele>66.2</ele>
        <time>2024-09-22T08:40:14Z</time>
      </trkpt>
      <trkpt lat="49.07287" lon="0.04173">
        <ele>66</ele>
        <time>2024-09-22T08:40:15Z</time>
      </trkpt>
      <trkpt lat="49.07292" lon="0.0416">
        <ele>66</ele>
        <time>2024-09-22T08:40:16Z</time>
      </trkpt>
      <trkpt lat="49.07297" lon="0.04148">
        <ele>66</ele>
        <time>2024-09-22T08:40:17Z</time>
      </trkpt>
      <trkpt lat="49.07301" lon="0.04135">
        <ele>65.8</ele>
        <time>2024-09-22T08:40:18Z</time>
      </trkpt>
      <trkpt lat="49.07306" lon="0.04123">
        <ele>65.8</ele>
        <time>2024-09-22T08:40:19Z</time>
      </trkpt>
      <trkpt lat="49.07311" lon="0.0411">
        <ele>65.6</ele>
        <time>2024-09-22T08:40:20Z</time>
      </trkpt>
      <trkpt lat="49.07315" lon="0.04098">
        <ele>65.4</ele>
        <time>2024-09-22T08:40:21Z</time>
      </trkpt>
      <trkpt lat="49.0732" lon="0.04086">
        <ele>65.2</ele>
        <time>2024-09-22T08:40:22Z</time>
      </trkpt>
      <trkpt lat="49.07324" lon="0.04074">
        <ele>65.2</ele>
        <time>2024-09-22T08:40:23Z</time>
      </trkpt>
      <trkpt lat="49.07329" lon="0.04062">
        <ele>65</ele>
        <time>2024-09-22T08:40:24Z</time>
      </trkpt>
      <trkpt lat="49.07334" lon="0.04049">
        <ele>64.8</ele>
        <time>2024-09-22T08:40:25Z</time>
      </trkpt>
      <trkpt lat="49.07339" lon="0.04037">
        <ele>64.6</ele>
        <time>2024-09-22T08:40:26Z</time>
      </trkpt>
      <trkpt lat="49.07343" lon="0.04024">
        <ele>64.4</ele>
        <time>2024-09-22T08:40:27Z</time>
      </trkpt>
      <trkpt lat="49.07348" lon="0.04012">
        <ele>64.4</ele>
        <time>2024-09-22T08:40:28Z</time>
      </trkpt>
      <trkpt lat="49.07353" lon="0.03999">
        <ele>64.4</ele>
        <time>2024-09-22T08:40:29Z</time>
      </trkpt>
      <trkpt lat="49.07358" lon="0.03987">
        <ele>64.2</ele>
        <time>2024-09-22T08:40:30Z</time>
      </trkpt>
      <trkpt lat="49.07362" lon="0.03974">
        <ele>64.2</ele>
        <time>2024-09-22T08:40:31Z</time>
      </trkpt>
      <trkpt lat="49.07367" lon="0.03962">
        <ele>64.2</ele>
        <time>2024-09-22T08:40:32Z</time>
      </trkpt>
      <trkpt lat="49.07372" lon="0.0395">
        <ele>64</ele>
        <time>2024-09-22T08:40:33Z</time>
      </trkpt>
      <trkpt lat="49.07376" lon="0.03937">
        <ele>63.8</ele>
        <time>2024-09-22T08:40:34Z</time>
      </trkpt>
      <trkpt lat="49.07381" lon="0.03925">
        <ele>63.8</ele>
        <time>2024-09-22T08:40:35Z</time>
      </trkpt>
      <trkpt lat="49.07386" lon="0.03912">
        <ele>63.6</ele>
        <time>2024-09-22T08:40:36Z</time>
      </trkpt>
      <trkpt lat="49.0739" lon="0.039">
        <ele>63.4</ele>
        <time>2024-09-22T08:40:37Z</time>
      </trkpt>
      <trkpt lat="49.07395" lon="0.03887">
        <ele>63.2</ele>
        <time>2024-09-22T08:40:38Z</time>
      </trkpt>
      <trkpt lat="49.074" lon="0.03875">
        <ele>63</ele>
        <time>2024-09-22T08:40:39Z</time>
      </trkpt>
      <trkpt lat="49.07404" lon="0.03862">
        <ele>63</ele>
        <time>2024-09-22T08:40:40Z</time>
      </trkpt>
      <trkpt lat="49.07409" lon="0.0385">
        <ele>62.8</ele>
        <time>2024-09-22T08:40:41Z</time>
      </trkpt>
      <trkpt lat="49.07414" lon="0.03837">
        <ele>62.8</ele>
        <time>2024-09-22T08:40:42Z</time>
      </trkpt>
      <trkpt lat="49.07419" lon="0.03824">
        <ele>62.6</ele>
        <time>2024-09-22T08:40:43Z</time>
      </trkpt>
      <trkpt lat="49.07423" lon="0.03811">
        <ele>62.6</ele>
        <time>2024-09-22T08:40:44Z</time>
      </trkpt>
      <trkpt lat="49.07428" lon="0.03798">
        <ele>62.6</ele>
        <time>2024-09-22T08:40:45Z</time>
      </trkpt>
      <trkpt lat="49.07433" lon="0.03785">
        <ele>62.4</ele>
        <time>2024-09-22T08:40:46Z</time>
      </trkpt>
      <trkpt lat="49.07437" lon="0.03775">
        <ele>62.4</ele>
        <time>2024-09-22T08:40:47Z</time>
      </trkpt>
      <trkpt lat="49.07443" lon="0.03759">
        <ele>62.2</ele>
        <time>2024-09-22T08:40:48Z</time>
      </trkpt>
      <trkpt lat="49.07448" lon="0.03746">
        <ele>62.2</ele>
        <time>2024-09-22T08:40:49Z</time>
      </trkpt>
      <trkpt lat="49.07453" lon="0.03733">
        <ele>62</ele>
        <time>2024-09-22T08:40:50Z</time>
      </trkpt>
      <trkpt lat="49.07458" lon="0.0372">
        <ele>61.8</ele>
        <time>2024-09-22T08:40:51Z</time>
      </trkpt>
      <trkpt lat="49.07463" lon="0.03707">
        <ele>61.6</ele>
        <time>2024-09-22T08:40:52Z</time>
      </trkpt>
      <trkpt lat="49.07468" lon="0.03694">
        <ele>61.4</ele>
        <time>2024-09-22T08:40:53Z</time>
      </trkpt>
      <trkpt lat="49.07473" lon="0.03681">
        <ele>61.2</ele>
        <time>2024-09-22T08:40:54Z</time>
      </trkpt>
      <trkpt lat="49.07478" lon="0.03668">
        <ele>61.2</ele>
        <time>2024-09-22T08:40:55Z</time>
      </trkpt>
      <trkpt lat="49.07483" lon="0.03655">
        <ele>61</ele>
        <time>2024-09-22T08:40:56Z</time>
      </trkpt>
      <trkpt lat="49.07487" lon="0.03643">
        <ele>60.6</ele>
        <time>2024-09-22T08:40:57Z</time>
      </trkpt>
      <trkpt lat="49.07492" lon="0.0363">
        <ele>60.4</ele>
        <time>2024-09-22T08:40:58Z</time>
      </trkpt>
      <trkpt lat="49.07497" lon="0.03617">
        <ele>60.4</ele>
        <time>2024-09-22T08:40:59Z</time>
      </trkpt>
      <trkpt lat="49.07502" lon="0.03604">
        <ele>60</ele>
        <time>2024-09-22T08:41:00Z</time>
      </trkpt>
      <trkpt lat="49.07507" lon="0.03591">
        <ele>59.8</ele>
        <time>2024-09-22T08:41:01Z</time>
      </trkpt>
      <trkpt lat="49.07512" lon="0.03578">
        <ele>59.6</ele>
        <time>2024-09-22T08:41:02Z</time>
      </trkpt>
      <trkpt lat="49.07516" lon="0.03565">
        <ele>59.4</ele>
        <time>2024-09-22T08:41:03Z</time>
      </trkpt>
      <trkpt lat="49.07521" lon="0.03553">
        <ele>59.4</ele>
        <time>2024-09-22T08:41:04Z</time>
      </trkpt>
      <trkpt lat="49.07526" lon="0.0354">
        <ele>59.2</ele>
        <time>2024-09-22T08:41:05Z</time>
      </trkpt>
      <trkpt lat="49.07531" lon="0.03527">
        <ele>59</ele>
        <time>2024-09-22T08:41:06Z</time>
      </trkpt>
      <trkpt lat="49.07536" lon="0.03513">
        <ele>59</ele>
        <time>2024-09-22T08:41:07Z</time>
      </trkpt>
      <trkpt lat="49.07541" lon="0.035">
        <ele>58.8</ele>
        <time>2024-09-22T08:41:08Z</time>
      </trkpt>
      <trkpt lat="49.07545" lon="0.03487">
        <ele>58.6</ele>
        <time>2024-09-22T08:41:09Z</time>
      </trkpt>
      <trkpt lat="49.0755" lon="0.03473">
        <ele>58.6</ele>
        <time>2024-09-22T08:41:10Z</time>
      </trkpt>
      <trkpt lat="49.07555" lon="0.0346">
        <ele>58.4</ele>
        <time>2024-09-22T08:41:11Z</time>
      </trkpt>
      <trkpt lat="49.0756" lon="0.03447">
        <ele>58.2</ele>
        <time>2024-09-22T08:41:12Z</time>
      </trkpt>
      <trkpt lat="49.07565" lon="0.03434">
        <ele>58</ele>
        <time>2024-09-22T08:41:13Z</time>
      </trkpt>
      <trkpt lat="49.0757" lon="0.03422">
        <ele>58</ele>
        <time>2024-09-22T08:41:14Z</time>
      </trkpt>
      <trkpt lat="49.07575" lon="0.03409">
        <ele>57.8</ele>
        <time>2024-09-22T08:41:15Z</time>
      </trkpt>
      <trkpt lat="49.0758" lon="0.03396">
        <ele>57.8</ele>
        <time>2024-09-22T08:41:16Z</time>
      </trkpt>
      <trkpt lat="49.07585" lon="0.03383">
        <ele>57.6</ele>
        <time>2024-09-22T08:41:17Z</time>
      </trkpt>
      <trkpt lat="49.07589" lon="0.03371">
        <ele>57.4</ele>
        <time>2024-09-22T08:41:18Z</time>
      </trkpt>
      <trkpt lat="49.07594" lon="0.03358">
        <ele>57.4</ele>
        <time>2024-09-22T08:41:19Z</time>
      </trkpt>
      <trkpt lat="49.07599" lon="0.03345">
        <ele>57.2</ele>
        <time>2024-09-22T08:41:20Z</time>
      </trkpt>
      <trkpt lat="49.07604" lon="0.03332">
        <ele>57</ele>
        <time>2024-09-22T08:41:21Z</time>
      </trkpt>
      <trkpt lat="49.07609" lon="0.0332">
        <ele>56.6</ele>
        <time>2024-09-22T08:41:22Z</time>
      </trkpt>
      <trkpt lat="49.07613" lon="0.03307">
        <ele>56.6</ele>
        <time>2024-09-22T08:41:23Z</time>
      </trkpt>
      <trkpt lat="49.07618" lon="0.03294">
        <ele>56.4</ele>
        <time>2024-09-22T08:41:24Z</time>
      </trkpt>
      <trkpt lat="49.07623" lon="0.03282">
        <ele>56.4</ele>
        <time>2024-09-22T08:41:25Z</time>
      </trkpt>
      <trkpt lat="49.07627" lon="0.03269">
        <ele>56.2</ele>
        <time>2024-09-22T08:41:26Z</time>
      </trkpt>
      <trkpt lat="49.07632" lon="0.03257">
        <ele>56</ele>
        <time>2024-09-22T08:41:27Z</time>
      </trkpt>
      <trkpt lat="49.07637" lon="0.03244">
        <ele>56</ele>
        <time>2024-09-22T08:41:28Z</time>
      </trkpt>
      <trkpt lat="49.07641" lon="0.03231">
        <ele>55.8</ele>
        <time>2024-09-22T08:41:29Z</time>
      </trkpt>
      <trkpt lat="49.07646" lon="0.03218">
        <ele>55.8</ele>
        <time>2024-09-22T08:41:30Z</time>
      </trkpt>
      <trkpt lat="49.07651" lon="0.03205">
        <ele>55.8</ele>
        <time>2024-09-22T08:41:31Z</time>
      </trkpt>
      <trkpt lat="49.07656" lon="0.03193">
        <ele>55.4</ele>
        <time>2024-09-22T08:41:32Z</time>
      </trkpt>
      <trkpt lat="49.07661" lon="0.0318">
        <ele>55.2</ele>
        <time>2024-09-22T08:41:33Z</time>
      </trkpt>
      <trkpt lat="49.07665" lon="0.03167">
        <ele>55.2</ele>
        <time>2024-09-22T08:41:34Z</time>
      </trkpt>
      <trkpt lat="49.0767" lon="0.03154">
        <ele>55</ele>
        <time>2024-09-22T08:41:35Z</time>
      </trkpt>
      <trkpt lat="49.07674" lon="0.03141">
        <ele>54.8</ele>
        <time>2024-09-22T08:41:36Z</time>
      </trkpt>
      <trkpt lat="49.07679" lon="0.03129">
        <ele>54.8</ele>
        <time>2024-09-22T08:41:37Z</time>
      </trkpt>
      <trkpt lat="49.07684" lon="0.03116">
        <ele>54.6</ele>
        <time>2024-09-22T08:41:38Z</time>
      </trkpt>
      <trkpt lat="49.07689" lon="0.03103">
        <ele>54.4</ele>
        <time>2024-09-22T08:41:39Z</time>
      </trkpt>
      <trkpt lat="49.07694" lon="0.03091">
        <ele>54.4</ele>
        <time>2024-09-22T08:41:40Z</time>
      </trkpt>
      <trkpt lat="49.07698" lon="0.03078">
        <ele>54.2</ele>
        <time>2024-09-22T08:41:41Z</time>
      </trkpt>
      <trkpt lat="49.07703" lon="0.03066">
        <ele>54.2</ele>
        <time>2024-09-22T08:41:42Z</time>
      </trkpt>
      <trkpt lat="49.07708" lon="0.03053">
        <ele>54</ele>
        <time>2024-09-22T08:41:43Z</time>
      </trkpt>
      <trkpt lat="49.07713" lon="0.03041">
        <ele>54</ele>
        <time>2024-09-22T08:41:44Z</time>
      </trkpt>
      <trkpt lat="49.07718" lon="0.03029">
        <ele>54</ele>
        <time>2024-09-22T08:41:45Z</time>
      </trkpt>
      <trkpt lat="49.07723" lon="0.03017">
        <ele>53.8</ele>
        <time>2024-09-22T08:41:46Z</time>
      </trkpt>
      <trkpt lat="49.07728" lon="0.03005">
        <ele>53.8</ele>
        <time>2024-09-22T08:41:47Z</time>
      </trkpt>
      <trkpt lat="49.07733" lon="0.02994">
        <ele>53.6</ele>
        <time>2024-09-22T08:41:48Z</time>
      </trkpt>
      <trkpt lat="49.07738" lon="0.02983">
        <ele>53.6</ele>
        <time>2024-09-22T08:41:49Z</time>
      </trkpt>
      <trkpt lat="49.07744" lon="0.02972">
        <ele>53.6</ele>
        <time>2024-09-22T08:41:50Z</time>
      </trkpt>
      <trkpt lat="49.07749" lon="0.02961">
        <ele>53.6</ele>
        <time>2024-09-22T08:41:51Z</time>
      </trkpt>
      <trkpt lat="49.07755" lon="0.0295">
        <ele>53.6</ele>
        <time>2024-09-22T08:41:52Z</time>
      </trkpt>
      <trkpt lat="49.07761" lon="0.02939">
        <ele>53.4</ele>
        <time>2024-09-22T08:41:53Z</time>
      </trkpt>
      <trkpt lat="49.07767" lon="0.02929">
        <ele>53.4</ele>
        <time>2024-09-22T08:41:54Z</time>
      </trkpt>
      <trkpt lat="49.07773" lon="0.02918">
        <ele>53.4</ele>
        <time>2024-09-22T08:41:55Z</time>
      </trkpt>
      <trkpt lat="49.0778" lon="0.02908">
        <ele>53.4</ele>
        <time>2024-09-22T08:41:56Z</time>
      </trkpt>
      <trkpt lat="49.07786" lon="0.02897">
        <ele>53.4</ele>
        <time>2024-09-22T08:41:57Z</time>
      </trkpt>
      <trkpt lat="49.07792" lon="0.02887">
        <ele>53.4</ele>
        <time>2024-09-22T08:41:58Z</time>
      </trkpt>
      <trkpt lat="49.07799" lon="0.02876">
        <ele>53.4</ele>
        <time>2024-09-22T08:41:59Z</time>
      </trkpt>
      <trkpt lat="49.07805" lon="0.02865">
        <ele>53.4</ele>
        <time>2024-09-22T08:42:00Z</time>
      </trkpt>
      <trkpt lat="49.07812" lon="0.02854">
        <ele>53.4</ele>
        <time>2024-09-22T08:42:01Z</time>
      </trkpt>
      <trkpt lat="49.07818" lon="0.02842">
        <ele>53.4</ele>
        <time>2024-09-22T08:42:02Z</time>
      </trkpt>
      <trkpt lat="49.07824" lon="0.0283">
        <ele>53.2</ele>
        <time>2024-09-22T08:42:03Z</time>
      </trkpt>
      <trkpt lat="49.0783" lon="0.02818">
        <ele>53.2</ele>
        <time>2024-09-22T08:42:04Z</time>
      </trkpt>
      <trkpt lat="49.07837" lon="0.02806">
        <ele>53</ele>
        <time>2024-09-22T08:42:05Z</time>
      </trkpt>
      <trkpt lat="49.07843" lon="0.02794">
        <ele>52.8</ele>
        <time>2024-09-22T08:42:06Z</time>
      </trkpt>
      <trkpt lat="49.0785" lon="0.02781">
        <ele>52.6</ele>
        <time>2024-09-22T08:42:07Z</time>
      </trkpt>
      <trkpt lat="49.07856" lon="0.02768">
        <ele>52.2</ele>
        <time>2024-09-22T08:42:08Z</time>
      </trkpt>
      <trkpt lat="49.07863" lon="0.02755">
        <ele>51.6</ele>
        <time>2024-09-22T08:42:09Z</time>
      </trkpt>
      <trkpt lat="49.07869" lon="0.02742">
        <ele>51.2</ele>
        <time>2024-09-22T08:42:10Z</time>
      </trkpt>
      <trkpt lat="49.07876" lon="0.02729">
        <ele>51.2</ele>
        <time>2024-09-22T08:42:11Z</time>
      </trkpt>
      <trkpt lat="49.07883" lon="0.02716">
        <ele>50.8</ele>
        <time>2024-09-22T08:42:12Z</time>
      </trkpt>
      <trkpt lat="49.07889" lon="0.02703">
        <ele>50.4</ele>
        <time>2024-09-22T08:42:13Z</time>
      </trkpt>
      <trkpt lat="49.07895" lon="0.02689">
        <ele>50.2</ele>
        <time>2024-09-22T08:42:14Z</time>
      </trkpt>
      <trkpt lat="49.07901" lon="0.02675">
        <ele>49.6</ele>
        <time>2024-09-22T08:42:15Z</time>
      </trkpt>
      <trkpt lat="49.07906" lon="0.02661">
        <ele>49.2</ele>
        <time>2024-09-22T08:42:16Z</time>
      </trkpt>
      <trkpt lat="49.07912" lon="0.02646">
        <ele>48.6</ele>
        <time>2024-09-22T08:42:17Z</time>
      </trkpt>
      <trkpt lat="49.07919" lon="0.02631">
        <ele>48</ele>
        <time>2024-09-22T08:42:18Z</time>
      </trkpt>
      <trkpt lat="49.07925" lon="0.02616">
        <ele>47.4</ele>
        <time>2024-09-22T08:42:19Z</time>
      </trkpt>
      <trkpt lat="49.07932" lon="0.02601">
        <ele>46.8</ele>
        <time>2024-09-22T08:42:20Z</time>
      </trkpt>
      <trkpt lat="49.07939" lon="0.02585">
        <ele>46.4</ele>
        <time>2024-09-22T08:42:21Z</time>
      </trkpt>
      <trkpt lat="49.07945" lon="0.0257">
        <ele>45.6</ele>
        <time>2024-09-22T08:42:22Z</time>
      </trkpt>
      <trkpt lat="49.07951" lon="0.02555">
        <ele>45</ele>
        <time>2024-09-22T08:42:23Z</time>
      </trkpt>
      <trkpt lat="49.07957" lon="0.02539">
        <ele>44.4</ele>
        <time>2024-09-22T08:42:24Z</time>
      </trkpt>
      <trkpt lat="49.07964" lon="0.02524">
        <ele>43.4</ele>
        <time>2024-09-22T08:42:25Z</time>
      </trkpt>
      <trkpt lat="49.0797" lon="0.02508">
        <ele>42.6</ele>
        <time>2024-09-22T08:42:26Z</time>
      </trkpt>
      <trkpt lat="49.07976" lon="0.02492">
        <ele>41.8</ele>
        <time>2024-09-22T08:42:27Z</time>
      </trkpt>
      <trkpt lat="49.07982" lon="0.02477">
        <ele>41.2</ele>
        <time>2024-09-22T08:42:28Z</time>
      </trkpt>
      <trkpt lat="49.07988" lon="0.02461">
        <ele>40.4</ele>
        <time>2024-09-22T08:42:29Z</time>
      </trkpt>
      <trkpt lat="49.07994" lon="0.02445">
        <ele>39.6</ele>
        <time>2024-09-22T08:42:30Z</time>
      </trkpt>
      <trkpt lat="49.07998" lon="0.02429">
        <ele>39</ele>
        <time>2024-09-22T08:42:31Z</time>
      </trkpt>
      <trkpt lat="49.08003" lon="0.02412">
        <ele>39</ele>
        <time>2024-09-22T08:42:32Z</time>
      </trkpt>
      <trkpt lat="49.08007" lon="0.02395">
        <ele>38.4</ele>
        <time>2024-09-22T08:42:33Z</time>
      </trkpt>
      <trkpt lat="49.08012" lon="0.02378">
        <ele>38</ele>
        <time>2024-09-22T08:42:34Z</time>
      </trkpt>
      <trkpt lat="49.08016" lon="0.02362">
        <ele>37.6</ele>
        <time>2024-09-22T08:42:35Z</time>
      </trkpt>
      <trkpt lat="49.0802" lon="0.02345">
        <ele>37.2</ele>
        <time>2024-09-22T08:42:36Z</time>
      </trkpt>
      <trkpt lat="49.08024" lon="0.02328">
        <ele>36.4</ele>
        <time>2024-09-22T08:42:37Z</time>
      </trkpt>
      <trkpt lat="49.08028" lon="0.02312">
        <ele>35.4</ele>
        <time>2024-09-22T08:42:38Z</time>
      </trkpt>
      <trkpt lat="49.08032" lon="0.02295">
        <ele>35</ele>
        <time>2024-09-22T08:42:39Z</time>
      </trkpt>
      <trkpt lat="49.08035" lon="0.02279">
        <ele>34.6</ele>
        <time>2024-09-22T08:42:40Z</time>
      </trkpt>
      <trkpt lat="49.08039" lon="0.02262">
        <ele>34.4</ele>
        <time>2024-09-22T08:42:41Z</time>
      </trkpt>
      <trkpt lat="49.08044" lon="0.02246">
        <ele>34.4</ele>
        <time>2024-09-22T08:42:42Z</time>
      </trkpt>
      <trkpt lat="49.08048" lon="0.02229">
        <ele>34.4</ele>
        <time>2024-09-22T08:42:43Z</time>
      </trkpt>
      <trkpt lat="49.08052" lon="0.02213">
        <ele>34.2</ele>
        <time>2024-09-22T08:42:44Z</time>
      </trkpt>
      <trkpt lat="49.08056" lon="0.02196">
        <ele>34.2</ele>
        <time>2024-09-22T08:42:45Z</time>
      </trkpt>
      <trkpt lat="49.08061" lon="0.02179">
        <ele>34</ele>
        <time>2024-09-22T08:42:46Z</time>
      </trkpt>
      <trkpt lat="49.08065" lon="0.02163">
        <ele>33.8</ele>
        <time>2024-09-22T08:42:47Z</time>
      </trkpt>
      <trkpt lat="49.0807" lon="0.02147">
        <ele>33.4</ele>
        <time>2024-09-22T08:42:48Z</time>
      </trkpt>
      <trkpt lat="49.08075" lon="0.02131">
        <ele>33.2</ele>
        <time>2024-09-22T08:42:49Z</time>
      </trkpt>
      <trkpt lat="49.08079" lon="0.02115">
        <ele>33</ele>
        <time>2024-09-22T08:42:50Z</time>
      </trkpt>
      <trkpt lat="49.08084" lon="0.02099">
        <ele>33</ele>
        <time>2024-09-22T08:42:51Z</time>
      </trkpt>
      <trkpt lat="49.08089" lon="0.02084">
        <ele>32.8</ele>
        <time>2024-09-22T08:42:52Z</time>
      </trkpt>
      <trkpt lat="49.08094" lon="0.02068">
        <ele>32.8</ele>
        <time>2024-09-22T08:42:53Z</time>
      </trkpt>
      <trkpt lat="49.08099" lon="0.02053">
        <ele>32.6</ele>
        <time>2024-09-22T08:42:54Z</time>
      </trkpt>
      <trkpt lat="49.08104" lon="0.02038">
        <ele>32.4</ele>
        <time>2024-09-22T08:42:55Z</time>
      </trkpt>
      <trkpt lat="49.08108" lon="0.02023">
        <ele>32.2</ele>
        <time>2024-09-22T08:42:56Z</time>
      </trkpt>
      <trkpt lat="49.08113" lon="0.02008">
        <ele>32.2</ele>
        <time>2024-09-22T08:42:57Z</time>
      </trkpt>
      <trkpt lat="49.08118" lon="0.01993">
        <ele>32</ele>
        <time>2024-09-22T08:42:58Z</time>
      </trkpt>
      <trkpt lat="49.08122" lon="0.01978">
        <ele>32</ele>
        <time>2024-09-22T08:42:59Z</time>
      </trkpt>
      <trkpt lat="49.08126" lon="0.01963">
        <ele>31.8</ele>
        <time>2024-09-22T08:43:00Z</time>
      </trkpt>
      <trkpt lat="49.0813" lon="0.01947">
        <ele>31.6</ele>
        <time>2024-09-22T08:43:01Z</time>
      </trkpt>
      <trkpt lat="49.08134" lon="0.01931">
        <ele>31.6</ele>
        <time>2024-09-22T08:43:02Z</time>
      </trkpt>
      <trkpt lat="49.08136" lon="0.01918">
        <ele>31.6</ele>
        <time>2024-09-22T08:43:03Z</time>
      </trkpt>
      <trkpt lat="49.0814" lon="0.01898">
        <ele>31.4</ele>
        <time>2024-09-22T08:43:04Z</time>
      </trkpt>
      <trkpt lat="49.08142" lon="0.01881">
        <ele>31.2</ele>
        <time>2024-09-22T08:43:05Z</time>
      </trkpt>
      <trkpt lat="49.08144" lon="0.01865">
        <ele>31</ele>
        <time>2024-09-22T08:43:06Z</time>
      </trkpt>
      <trkpt lat="49.08146" lon="0.01848">
        <ele>30.8</ele>
        <time>2024-09-22T08:43:07Z</time>
      </trkpt>
      <trkpt lat="49.08148" lon="0.01831">
        <ele>30.4</ele>
        <time>2024-09-22T08:43:08Z</time>
      </trkpt>
      <trkpt lat="49.0815" lon="0.01814">
        <ele>30.2</ele>
        <time>2024-09-22T08:43:09Z</time>
      </trkpt>
      <trkpt lat="49.08151" lon="0.01797">
        <ele>30.2</ele>
        <time>2024-09-22T08:43:10Z</time>
      </trkpt>
      <trkpt lat="49.08153" lon="0.0178">
        <ele>29.8</ele>
        <time>2024-09-22T08:43:11Z</time>
      </trkpt>
      <trkpt lat="49.08155" lon="0.01764">
        <ele>29.6</ele>
        <time>2024-09-22T08:43:12Z</time>
      </trkpt>
      <trkpt lat="49.08156" lon="0.01747">
        <ele>29.6</ele>
        <time>2024-09-22T08:43:13Z</time>
      </trkpt>
      <trkpt lat="49.08158" lon="0.0173">
        <ele>29.2</ele>
        <time>2024-09-22T08:43:14Z</time>
      </trkpt>
      <trkpt lat="49.0816" lon="0.01714">
        <ele>28.8</ele>
        <time>2024-09-22T08:43:15Z</time>
      </trkpt>
      <trkpt lat="49.08161" lon="0.01697">
        <ele>28.4</ele>
        <time>2024-09-22T08:43:16Z</time>
      </trkpt>
      <trkpt lat="49.08163" lon="0.01681">
        <ele>28</ele>
        <time>2024-09-22T08:43:17Z</time>
      </trkpt>
      <trkpt lat="49.08165" lon="0.01665">
        <ele>27.6</ele>
        <time>2024-09-22T08:43:18Z</time>
      </trkpt>
      <trkpt lat="49.08166" lon="0.01649">
        <ele>27.6</ele>
        <time>2024-09-22T08:43:19Z</time>
      </trkpt>
      <trkpt lat="49.08168" lon="0.01634">
        <ele>27.2</ele>
        <time>2024-09-22T08:43:20Z</time>
      </trkpt>
      <trkpt lat="49.08169" lon="0.01619">
        <ele>26.8</ele>
        <time>2024-09-22T08:43:21Z</time>
      </trkpt>
      <trkpt lat="49.0817" lon="0.01604">
        <ele>26.2</ele>
        <time>2024-09-22T08:43:22Z</time>
      </trkpt>
      <trkpt lat="49.0817" lon="0.01589">
        <ele>26.2</ele>
        <time>2024-09-22T08:43:23Z</time>
      </trkpt>
      <trkpt lat="49.08171" lon="0.01574">
        <ele>26</ele>
        <time>2024-09-22T08:43:24Z</time>
      </trkpt>
      <trkpt lat="49.0817" lon="0.0156">
        <ele>25.6</ele>
        <time>2024-09-22T08:43:25Z</time>
      </trkpt>
      <trkpt lat="49.0817" lon="0.01545">
        <ele>25.6</ele>
        <time>2024-09-22T08:43:26Z</time>
      </trkpt>
      <trkpt lat="49.0817" lon="0.0153">
        <ele>25.6</ele>
        <time>2024-09-22T08:43:27Z</time>
      </trkpt>
      <trkpt lat="49.08169" lon="0.01515">
        <ele>25.4</ele>
        <time>2024-09-22T08:43:28Z</time>
      </trkpt>
      <trkpt lat="49.08169" lon="0.01501">
        <ele>25.4</ele>
        <time>2024-09-22T08:43:29Z</time>
      </trkpt>
      <trkpt lat="49.08169" lon="0.01486">
        <ele>25.4</ele>
        <time>2024-09-22T08:43:30Z</time>
      </trkpt>
      <trkpt lat="49.08168" lon="0.01471">
        <ele>25.4</ele>
        <time>2024-09-22T08:43:31Z</time>
      </trkpt>
      <trkpt lat="49.08168" lon="0.01456">
        <ele>25.4</ele>
        <time>2024-09-22T08:43:32Z</time>
      </trkpt>
      <trkpt lat="49.08168" lon="0.01441">
        <ele>25.4</ele>
        <time>2024-09-22T08:43:33Z</time>
      </trkpt>
      <trkpt lat="49.08167" lon="0.01427">
        <ele>25.4</ele>
        <time>2024-09-22T08:43:34Z</time>
      </trkpt>
      <trkpt lat="49.08167" lon="0.01412">
        <ele>25.4</ele>
        <time>2024-09-22T08:43:35Z</time>
      </trkpt>
      <trkpt lat="49.08166" lon="0.01397">
        <ele>25.4</ele>
        <time>2024-09-22T08:43:36Z</time>
      </trkpt>
      <trkpt lat="49.08166" lon="0.01383">
        <ele>25.4</ele>
        <time>2024-09-22T08:43:37Z</time>
      </trkpt>
      <trkpt lat="49.08165" lon="0.01369">
        <ele>25.4</ele>
        <time>2024-09-22T08:43:38Z</time>
      </trkpt>
      <trkpt lat="49.08165" lon="0.01355">
        <ele>25.6</ele>
        <time>2024-09-22T08:43:39Z</time>
      </trkpt>
      <trkpt lat="49.08164" lon="0.01341">
        <ele>25.6</ele>
        <time>2024-09-22T08:43:40Z</time>
      </trkpt>
      <trkpt lat="49.08163" lon="0.01327">
        <ele>25.6</ele>
        <time>2024-09-22T08:43:41Z</time>
      </trkpt>
      <trkpt lat="49.08163" lon="0.01314">
        <ele>25.6</ele>
        <time>2024-09-22T08:43:42Z</time>
      </trkpt>
      <trkpt lat="49.08162" lon="0.013">
        <ele>25.6</ele>
        <time>2024-09-22T08:43:43Z</time>
      </trkpt>
      <trkpt lat="49.08162" lon="0.01286">
        <ele>25.6</ele>
        <time>2024-09-22T08:43:44Z</time>
      </trkpt>
      <trkpt lat="49.08161" lon="0.01273">
        <ele>25.6</ele>
        <time>2024-09-22T08:43:45Z</time>
      </trkpt>
      <trkpt lat="49.08161" lon="0.01259">
        <ele>25.6</ele>
        <time>2024-09-22T08:43:46Z</time>
      </trkpt>
      <trkpt lat="49.08161" lon="0.01246">
        <ele>25.6</ele>
        <time>2024-09-22T08:43:47Z</time>
      </trkpt>
      <trkpt lat="49.0816" lon="0.01233">
        <ele>25.6</ele>
        <time>2024-09-22T08:43:48Z</time>
      </trkpt>
      <trkpt lat="49.0816" lon="0.01221">
        <ele>25.6</ele>
        <time>2024-09-22T08:43:49Z</time>
      </trkpt>
      <trkpt lat="49.08159" lon="0.01208">
        <ele>25.6</ele>
        <time>2024-09-22T08:43:50Z</time>
      </trkpt>
      <trkpt lat="49.08159" lon="0.01196">
        <ele>25.6</ele>
        <time>2024-09-22T08:43:51Z</time>
      </trkpt>
      <trkpt lat="49.08158" lon="0.01184">
        <ele>25.6</ele>
        <time>2024-09-22T08:43:52Z</time>
      </trkpt>
      <trkpt lat="49.08158" lon="0.01172">
        <ele>25.6</ele>
        <time>2024-09-22T08:43:53Z</time>
      </trkpt>
      <trkpt lat="49.08157" lon="0.0116">
        <ele>25.6</ele>
        <time>2024-09-22T08:43:54Z</time>
      </trkpt>
      <trkpt lat="49.08157" lon="0.01149">
        <ele>25.6</ele>
        <time>2024-09-22T08:43:55Z</time>
      </trkpt>
      <trkpt lat="49.08156" lon="0.01138">
        <ele>25.6</ele>
        <time>2024-09-22T08:43:56Z</time>
      </trkpt>
      <trkpt lat="49.08155" lon="0.01127">
        <ele>25.6</ele>
        <time>2024-09-22T08:43:57Z</time>
      </trkpt>
      <trkpt lat="49.08155" lon="0.01116">
        <ele>25.6</ele>
        <time>2024-09-22T08:43:58Z</time>
      </trkpt>
      <trkpt lat="49.08155" lon="0.01106">
        <ele>25.6</ele>
        <time>2024-09-22T08:43:59Z</time>
      </trkpt>
      <trkpt lat="49.08154" lon="0.01096">
        <ele>25.6</ele>
        <time>2024-09-22T08:44:00Z</time>
      </trkpt>
      <trkpt lat="49.08154" lon="0.01086">
        <ele>25.6</ele>
        <time>2024-09-22T08:44:01Z</time>
      </trkpt>
      <trkpt lat="49.08154" lon="0.01076">
        <ele>25.8</ele>
        <time>2024-09-22T08:44:02Z</time>
      </trkpt>
      <trkpt lat="49.08154" lon="0.01067">
        <ele>25.8</ele>
        <time>2024-09-22T08:44:03Z</time>
      </trkpt>
      <trkpt lat="49.08155" lon="0.01058">
        <ele>25.8</ele>
        <time>2024-09-22T08:44:04Z</time>
      </trkpt>
      <trkpt lat="49.08158" lon="0.01049">
        <ele>25.6</ele>
        <time>2024-09-22T08:44:05Z</time>
      </trkpt>
      <trkpt lat="49.08162" lon="0.01043">
        <ele>25.6</ele>
        <time>2024-09-22T08:44:06Z</time>
      </trkpt>
      <trkpt lat="49.08168" lon="0.01039">
        <ele>25.6</ele>
        <time>2024-09-22T08:44:07Z</time>
      </trkpt>
      <trkpt lat="49.08174" lon="0.01037">
        <ele>25.6</ele>
        <time>2024-09-22T08:44:08Z</time>
      </trkpt>
      <trkpt lat="49.0818" lon="0.01036">
        <ele>25.6</ele>
        <time>2024-09-22T08:44:09Z</time>
      </trkpt>
      <trkpt lat="49.08186" lon="0.01035">
        <ele>25.4</ele>
        <time>2024-09-22T08:44:10Z</time>
      </trkpt>
      <trkpt lat="49.08191" lon="0.01035">
        <ele>25.6</ele>
        <time>2024-09-22T08:44:11Z</time>
      </trkpt>
      <trkpt lat="49.08198" lon="0.01035">
        <ele>25.6</ele>
        <time>2024-09-22T08:44:12Z</time>
      </trkpt>
      <trkpt lat="49.08205" lon="0.01035">
        <ele>25.6</ele>
        <time>2024-09-22T08:44:13Z</time>
      </trkpt>
      <trkpt lat="49.08211" lon="0.01034">
        <ele>25.6</ele>
        <time>2024-09-22T08:44:14Z</time>
      </trkpt>
      <trkpt lat="49.08217" lon="0.01035">
        <ele>25.6</ele>
        <time>2024-09-22T08:44:15Z</time>
      </trkpt>
      <trkpt lat="49.08224" lon="0.01034">
        <ele>25.6</ele>
        <time>2024-09-22T08:44:16Z</time>
      </trkpt>
      <trkpt lat="49.0823" lon="0.01034">
        <ele>25.6</ele>
        <time>2024-09-22T08:44:17Z</time>
      </trkpt>
      <trkpt lat="49.08237" lon="0.01034">
        <ele>25.6</ele>
        <time>2024-09-22T08:44:18Z</time>
      </trkpt>
      <trkpt lat="49.08243" lon="0.01034">
        <ele>25.6</ele>
        <time>2024-09-22T08:44:19Z</time>
      </trkpt>
      <trkpt lat="49.08249" lon="0.01033">
        <ele>25.6</ele>
        <time>2024-09-22T08:44:20Z</time>
      </trkpt>
      <trkpt lat="49.08255" lon="0.01033">
        <ele>25.6</ele>
        <time>2024-09-22T08:44:21Z</time>
      </trkpt>
      <trkpt lat="49.08262" lon="0.01033">
        <ele>25.6</ele>
        <time>2024-09-22T08:44:22Z</time>
      </trkpt>
      <trkpt lat="49.08268" lon="0.01033">
        <ele>25.6</ele>
        <time>2024-09-22T08:44:23Z</time>
      </trkpt>
      <trkpt lat="49.08275" lon="0.01032">
        <ele>25.8</ele>
        <time>2024-09-22T08:44:24Z</time>
      </trkpt>
      <trkpt lat="49.08282" lon="0.01033">
        <ele>25.8</ele>
        <time>2024-09-22T08:44:25Z</time>
      </trkpt>
      <trkpt lat="49.08289" lon="0.01034">
        <ele>26</ele>
        <time>2024-09-22T08:44:26Z</time>
      </trkpt>
      <trkpt lat="49.08296" lon="0.01035">
        <ele>26</ele>
        <time>2024-09-22T08:44:27Z</time>
      </trkpt>
      <trkpt lat="49.08302" lon="0.01036">
        <ele>26</ele>
        <time>2024-09-22T08:44:28Z</time>
      </trkpt>
      <trkpt lat="49.08309" lon="0.01037">
        <ele>26</ele>
        <time>2024-09-22T08:44:29Z</time>
      </trkpt>
      <trkpt lat="49.08316" lon="0.01038">
        <ele>26</ele>
        <time>2024-09-22T08:44:30Z</time>
      </trkpt>
      <trkpt lat="49.08322" lon="0.0104">
        <ele>26</ele>
        <time>2024-09-22T08:44:31Z</time>
      </trkpt>
      <trkpt lat="49.08328" lon="0.01041">
        <ele>26</ele>
        <time>2024-09-22T08:44:32Z</time>
      </trkpt>
      <trkpt lat="49.08334" lon="0.01043">
        <ele>26</ele>
        <time>2024-09-22T08:44:33Z</time>
      </trkpt>
      <trkpt lat="49.0834" lon="0.01045">
        <ele>26</ele>
        <time>2024-09-22T08:44:34Z</time>
      </trkpt>
      <trkpt lat="49.08346" lon="0.01047">
        <ele>26</ele>
        <time>2024-09-22T08:44:35Z</time>
      </trkpt>
      <trkpt lat="49.08352" lon="0.01049">
        <ele>26</ele>
        <time>2024-09-22T08:44:36Z</time>
      </trkpt>
      <trkpt lat="49.08358" lon="0.01051">
        <ele>26</ele>
        <time>2024-09-22T08:44:37Z</time>
      </trkpt>
      <trkpt lat="49.08364" lon="0.01054">
        <ele>26</ele>
        <time>2024-09-22T08:44:38Z</time>
      </trkpt>
      <trkpt lat="49.08369" lon="0.01056">
        <ele>26.2</ele>
        <time>2024-09-22T08:44:39Z</time>
      </trkpt>
      <trkpt lat="49.08375" lon="0.01059">
        <ele>26.2</ele>
        <time>2024-09-22T08:44:40Z</time>
      </trkpt>
      <trkpt lat="49.0838" lon="0.01062">
        <ele>26.2</ele>
        <time>2024-09-22T08:44:41Z</time>
      </trkpt>
      <trkpt lat="49.08385" lon="0.01064">
        <ele>26.4</ele>
        <time>2024-09-22T08:44:42Z</time>
      </trkpt>
      <trkpt lat="49.0839" lon="0.01066">
        <ele>26.6</ele>
        <time>2024-09-22T08:44:43Z</time>
      </trkpt>
      <trkpt lat="49.08395" lon="0.01069">
        <ele>26.6</ele>
        <time>2024-09-22T08:44:44Z</time>
      </trkpt>
      <trkpt lat="49.084" lon="0.01071">
        <ele>26.8</ele>
        <time>2024-09-22T08:44:45Z</time>
      </trkpt>
      <trkpt lat="49.08405" lon="0.01074">
        <ele>27.2</ele>
        <time>2024-09-22T08:44:46Z</time>
      </trkpt>
      <trkpt lat="49.0841" lon="0.01076">
        <ele>27.6</ele>
        <time>2024-09-22T08:44:47Z</time>
      </trkpt>
      <trkpt lat="49.08415" lon="0.01079">
        <ele>27.8</ele>
        <time>2024-09-22T08:44:48Z</time>
      </trkpt>
      <trkpt lat="49.0842" lon="0.01081">
        <ele>28.2</ele>
        <time>2024-09-22T08:44:49Z</time>
      </trkpt>
      <trkpt lat="49.08425" lon="0.01084">
        <ele>28.6</ele>
        <time>2024-09-22T08:44:50Z</time>
      </trkpt>
      <trkpt lat="49.0843" lon="0.01086">
        <ele>29</ele>
        <time>2024-09-22T08:44:51Z</time>
      </trkpt>
      <trkpt lat="49.08435" lon="0.01088">
        <ele>29.6</ele>
        <time>2024-09-22T08:44:52Z</time>
      </trkpt>
      <trkpt lat="49.0844" lon="0.01091">
        <ele>30</ele>
        <time>2024-09-22T08:44:53Z</time>
      </trkpt>
      <trkpt lat="49.08446" lon="0.01093">
        <ele>30.4</ele>
        <time>2024-09-22T08:44:54Z</time>
      </trkpt>
      <trkpt lat="49.08451" lon="0.01095">
        <ele>30.6</ele>
        <time>2024-09-22T08:44:55Z</time>
      </trkpt>
      <trkpt lat="49.08456" lon="0.01098">
        <ele>30.6</ele>
        <time>2024-09-22T08:44:56Z</time>
      </trkpt>
      <trkpt lat="49.08462" lon="0.011">
        <ele>30.6</ele>
        <time>2024-09-22T08:44:57Z</time>
      </trkpt>
      <trkpt lat="49.08467" lon="0.01103">
        <ele>31</ele>
        <time>2024-09-22T08:44:58Z</time>
      </trkpt>
      <trkpt lat="49.08473" lon="0.01106">
        <ele>31.2</ele>
        <time>2024-09-22T08:44:59Z</time>
      </trkpt>
      <trkpt lat="49.08478" lon="0.01108">
        <ele>31.4</ele>
        <time>2024-09-22T08:45:00Z</time>
      </trkpt>
      <trkpt lat="49.08484" lon="0.01112">
        <ele>31.4</ele>
        <time>2024-09-22T08:45:01Z</time>
      </trkpt>
      <trkpt lat="49.0849" lon="0.01115">
        <ele>31.4</ele>
        <time>2024-09-22T08:45:02Z</time>
      </trkpt>
      <trkpt lat="49.08497" lon="0.01119">
        <ele>31.4</ele>
        <time>2024-09-22T08:45:03Z</time>
      </trkpt>
      <trkpt lat="49.08504" lon="0.01123">
        <ele>31.4</ele>
        <time>2024-09-22T08:45:04Z</time>
      </trkpt>
      <trkpt lat="49.0851" lon="0.01129">
        <ele>31.4</ele>
        <time>2024-09-22T08:45:05Z</time>
      </trkpt>
      <trkpt lat="49.08517" lon="0.01136">
        <ele>31.4</ele>
        <time>2024-09-22T08:45:06Z</time>
      </trkpt>
      <trkpt lat="49.08524" lon="0.01143">
        <ele>31.4</ele>
        <time>2024-09-22T08:45:07Z</time>
      </trkpt>
      <trkpt lat="49.08531" lon="0.01152">
        <ele>31.4</ele>
        <time>2024-09-22T08:45:08Z</time>
      </trkpt>
      <trkpt lat="49.08537" lon="0.01162">
        <ele>31.6</ele>
        <time>2024-09-22T08:45:09Z</time>
      </trkpt>
      <trkpt lat="49.08542" lon="0.01172">
        <ele>31.4</ele>
        <time>2024-09-22T08:45:10Z</time>
      </trkpt>
      <trkpt lat="49.08546" lon="0.01184">
        <ele>31.4</ele>
        <time>2024-09-22T08:45:11Z</time>
      </trkpt>
      <trkpt lat="49.0855" lon="0.01196">
        <ele>31.2</ele>
        <time>2024-09-22T08:45:12Z</time>
      </trkpt>
      <trkpt lat="49.08554" lon="0.01209">
        <ele>31</ele>
        <time>2024-09-22T08:45:13Z</time>
      </trkpt>
      <trkpt lat="49.08556" lon="0.01222">
        <ele>31</ele>
        <time>2024-09-22T08:45:14Z</time>
      </trkpt>
      <trkpt lat="49.08558" lon="0.01235">
        <ele>31</ele>
        <time>2024-09-22T08:45:15Z</time>
      </trkpt>
      <trkpt lat="49.0856" lon="0.01248">
        <ele>30.6</ele>
        <time>2024-09-22T08:45:16Z</time>
      </trkpt>
      <trkpt lat="49.08561" lon="0.01262">
        <ele>30.2</ele>
        <time>2024-09-22T08:45:17Z</time>
      </trkpt>
      <trkpt lat="49.08561" lon="0.01274">
        <ele>30.2</ele>
        <time>2024-09-22T08:45:18Z</time>
      </trkpt>
      <trkpt lat="49.08561" lon="0.01287">
        <ele>29.6</ele>
        <time>2024-09-22T08:45:19Z</time>
      </trkpt>
      <trkpt lat="49.0856" lon="0.013">
        <ele>29.4</ele>
        <time>2024-09-22T08:45:20Z</time>
      </trkpt>
      <trkpt lat="49.0856" lon="0.01313">
        <ele>28.8</ele>
        <time>2024-09-22T08:45:21Z</time>
      </trkpt>
      <trkpt lat="49.08559" lon="0.01325">
        <ele>28.2</ele>
        <time>2024-09-22T08:45:22Z</time>
      </trkpt>
      <trkpt lat="49.08559" lon="0.01338">
        <ele>27.8</ele>
        <time>2024-09-22T08:45:23Z</time>
      </trkpt>
      <trkpt lat="49.08559" lon="0.0135">
        <ele>27.6</ele>
        <time>2024-09-22T08:45:24Z</time>
      </trkpt>
      <trkpt lat="49.08558" lon="0.01363">
        <ele>27.2</ele>
        <time>2024-09-22T08:45:25Z</time>
      </trkpt>
      <trkpt lat="49.08558" lon="0.01375">
        <ele>27</ele>
        <time>2024-09-22T08:45:26Z</time>
      </trkpt>
      <trkpt lat="49.08557" lon="0.01387">
        <ele>26.8</ele>
        <time>2024-09-22T08:45:27Z</time>
      </trkpt>
      <trkpt lat="49.08557" lon="0.01399">
        <ele>26.4</ele>
        <time>2024-09-22T08:45:28Z</time>
      </trkpt>
      <trkpt lat="49.08557" lon="0.01411">
        <ele>26.2</ele>
        <time>2024-09-22T08:45:29Z</time>
      </trkpt>
      <trkpt lat="49.08557" lon="0.01423">
        <ele>26.2</ele>
        <time>2024-09-22T08:45:30Z</time>
      </trkpt>
      <trkpt lat="49.08557" lon="0.01435">
        <ele>26</ele>
        <time>2024-09-22T08:45:31Z</time>
      </trkpt>
      <trkpt lat="49.08558" lon="0.01447">
        <ele>26</ele>
        <time>2024-09-22T08:45:32Z</time>
      </trkpt>
      <trkpt lat="49.08559" lon="0.01459">
        <ele>26</ele>
        <time>2024-09-22T08:45:33Z</time>
      </trkpt>
      <trkpt lat="49.0856" lon="0.01471">
        <ele>25.8</ele>
        <time>2024-09-22T08:45:34Z</time>
      </trkpt>
      <trkpt lat="49.08562" lon="0.01483">
        <ele>25.8</ele>
        <time>2024-09-22T08:45:35Z</time>
      </trkpt>
      <trkpt lat="49.08564" lon="0.01495">
        <ele>25.8</ele>
        <time>2024-09-22T08:45:36Z</time>
      </trkpt>
      <trkpt lat="49.08566" lon="0.01507">
        <ele>25.8</ele>
        <time>2024-09-22T08:45:37Z</time>
      </trkpt>
      <trkpt lat="49.08568" lon="0.01518">
        <ele>25.8</ele>
        <time>2024-09-22T08:45:38Z</time>
      </trkpt>
      <trkpt lat="49.0857" lon="0.0153">
        <ele>25.8</ele>
        <time>2024-09-22T08:45:39Z</time>
      </trkpt>
      <trkpt lat="49.08573" lon="0.01541">
        <ele>25.8</ele>
        <time>2024-09-22T08:45:40Z</time>
      </trkpt>
      <trkpt lat="49.08575" lon="0.01553">
        <ele>25.8</ele>
        <time>2024-09-22T08:45:41Z</time>
      </trkpt>
      <trkpt lat="49.08578" lon="0.01564">
        <ele>25.8</ele>
        <time>2024-09-22T08:45:42Z</time>
      </trkpt>
      <trkpt lat="49.08581" lon="0.01575">
        <ele>25.8</ele>
        <time>2024-09-22T08:45:43Z</time>
      </trkpt>
      <trkpt lat="49.08583" lon="0.01586">
        <ele>25.8</ele>
        <time>2024-09-22T08:45:44Z</time>
      </trkpt>
      <trkpt lat="49.08586" lon="0.01597">
        <ele>25.8</ele>
        <time>2024-09-22T08:45:45Z</time>
      </trkpt>
      <trkpt lat="49.08589" lon="0.01608">
        <ele>25.8</ele>
        <time>2024-09-22T08:45:46Z</time>
      </trkpt>
      <trkpt lat="49.08591" lon="0.01619">
        <ele>25.8</ele>
        <time>2024-09-22T08:45:47Z</time>
      </trkpt>
      <trkpt lat="49.08594" lon="0.0163">
        <ele>26</ele>
        <time>2024-09-22T08:45:48Z</time>
      </trkpt>
      <trkpt lat="49.08597" lon="0.01641">
        <ele>25.8</ele>
        <time>2024-09-22T08:45:49Z</time>
      </trkpt>
      <trkpt lat="49.08599" lon="0.01651">
        <ele>25.8</ele>
        <time>2024-09-22T08:45:50Z</time>
      </trkpt>
      <trkpt lat="49.08602" lon="0.01662">
        <ele>25.8</ele>
        <time>2024-09-22T08:45:51Z</time>
      </trkpt>
      <trkpt lat="49.08604" lon="0.01672">
        <ele>25.8</ele>
        <time>2024-09-22T08:45:52Z</time>
      </trkpt>
      <trkpt lat="49.08607" lon="0.01683">
        <ele>26</ele>
        <time>2024-09-22T08:45:53Z</time>
      </trkpt>
      <trkpt lat="49.08609" lon="0.01693">
        <ele>26</ele>
        <time>2024-09-22T08:45:54Z</time>
      </trkpt>
      <trkpt lat="49.08612" lon="0.01703">
        <ele>26</ele>
        <time>2024-09-22T08:45:55Z</time>
      </trkpt>
      <trkpt lat="49.08615" lon="0.01714">
        <ele>26</ele>
        <time>2024-09-22T08:45:56Z</time>
      </trkpt>
      <trkpt lat="49.08617" lon="0.01725">
        <ele>26</ele>
        <time>2024-09-22T08:45:57Z</time>
      </trkpt>
      <trkpt lat="49.08619" lon="0.01735">
        <ele>25.8</ele>
        <time>2024-09-22T08:45:58Z</time>
      </trkpt>
      <trkpt lat="49.08622" lon="0.01746">
        <ele>25.8</ele>
        <time>2024-09-22T08:45:59Z</time>
      </trkpt>
      <trkpt lat="49.08624" lon="0.01756">
        <ele>25.8</ele>
        <time>2024-09-22T08:46:00Z</time>
      </trkpt>
      <trkpt lat="49.08627" lon="0.01766">
        <ele>25.8</ele>
        <time>2024-09-22T08:46:01Z</time>
      </trkpt>
      <trkpt lat="49.0863" lon="0.01776">
        <ele>25.6</ele>
        <time>2024-09-22T08:46:02Z</time>
      </trkpt>
      <trkpt lat="49.08633" lon="0.01785">
        <ele>25.6</ele>
        <time>2024-09-22T08:46:03Z</time>
      </trkpt>
      <trkpt lat="49.08637" lon="0.01794">
        <ele>25.4</ele>
        <time>2024-09-22T08:46:04Z</time>
      </trkpt>
      <trkpt lat="49.08642" lon="0.01802">
        <ele>25.4</ele>
        <time>2024-09-22T08:46:05Z</time>
      </trkpt>
      <trkpt lat="49.08648" lon="0.01808">
        <ele>25.2</ele>
        <time>2024-09-22T08:46:06Z</time>
      </trkpt>
      <trkpt lat="49.08655" lon="0.01814">
        <ele>25.2</ele>
        <time>2024-09-22T08:46:07Z</time>
      </trkpt>
      <trkpt lat="49.08661" lon="0.01818">
        <ele>25.2</ele>
        <time>2024-09-22T08:46:08Z</time>
      </trkpt>
      <trkpt lat="49.08669" lon="0.01822">
        <ele>25</ele>
        <time>2024-09-22T08:46:09Z</time>
      </trkpt>
      <trkpt lat="49.08676" lon="0.01825">
        <ele>25</ele>
        <time>2024-09-22T08:46:10Z</time>
      </trkpt>
      <trkpt lat="49.08681" lon="0.01827">
        <ele>25</ele>
        <time>2024-09-22T08:46:11Z</time>
      </trkpt>
      <trkpt lat="49.0869" lon="0.0183">
        <ele>25</ele>
        <time>2024-09-22T08:46:12Z</time>
      </trkpt>
      <trkpt lat="49.08697" lon="0.01833">
        <ele>25</ele>
        <time>2024-09-22T08:46:13Z</time>
      </trkpt>
      <trkpt lat="49.08703" lon="0.01836">
        <ele>25</ele>
        <time>2024-09-22T08:46:14Z</time>
      </trkpt>
      <trkpt lat="49.0871" lon="0.01838">
        <ele>25</ele>
        <time>2024-09-22T08:46:15Z</time>
      </trkpt>
      <trkpt lat="49.08718" lon="0.01841">
        <ele>24.8</ele>
        <time>2024-09-22T08:46:16Z</time>
      </trkpt>
      <trkpt lat="49.08725" lon="0.01843">
        <ele>24.8</ele>
        <time>2024-09-22T08:46:17Z</time>
      </trkpt>
      <trkpt lat="49.08733" lon="0.01845">
        <ele>24.8</ele>
        <time>2024-09-22T08:46:18Z</time>
      </trkpt>
      <trkpt lat="49.0874" lon="0.01847">
        <ele>24.8</ele>
        <time>2024-09-22T08:46:19Z</time>
      </trkpt>
      <trkpt lat="49.08748" lon="0.01849">
        <ele>24.8</ele>
        <time>2024-09-22T08:46:20Z</time>
      </trkpt>
      <trkpt lat="49.08756" lon="0.01851">
        <ele>24.8</ele>
        <time>2024-09-22T08:46:21Z</time>
      </trkpt>
      <trkpt lat="49.08764" lon="0.01853">
        <ele>24.8</ele>
        <time>2024-09-22T08:46:22Z</time>
      </trkpt>
      <trkpt lat="49.08772" lon="0.01855">
        <ele>24.8</ele>
        <time>2024-09-22T08:46:23Z</time>
      </trkpt>
      <trkpt lat="49.0878" lon="0.01857">
        <ele>24.8</ele>
        <time>2024-09-22T08:46:24Z</time>
      </trkpt>
      <trkpt lat="49.08788" lon="0.01859">
        <ele>24.8</ele>
        <time>2024-09-22T08:46:25Z</time>
      </trkpt>
      <trkpt lat="49.08795" lon="0.01861">
        <ele>25</ele>
        <time>2024-09-22T08:46:26Z</time>
      </trkpt>
      <trkpt lat="49.08803" lon="0.01864">
        <ele>25</ele>
        <time>2024-09-22T08:46:27Z</time>
      </trkpt>
      <trkpt lat="49.0881" lon="0.01865">
        <ele>25</ele>
        <time>2024-09-22T08:46:28Z</time>
      </trkpt>
      <trkpt lat="49.08816" lon="0.01867">
        <ele>24.8</ele>
        <time>2024-09-22T08:46:29Z</time>
      </trkpt>
      <trkpt lat="49.08823" lon="0.01869">
        <ele>24.8</ele>
        <time>2024-09-22T08:46:30Z</time>
      </trkpt>
      <trkpt lat="49.0883" lon="0.01871">
        <ele>24.8</ele>
        <time>2024-09-22T08:46:31Z</time>
      </trkpt>
      <trkpt lat="49.08837" lon="0.01872">
        <ele>24.8</ele>
        <time>2024-09-22T08:46:32Z</time>
      </trkpt>
      <trkpt lat="49.08844" lon="0.01874">
        <ele>25</ele>
        <time>2024-09-22T08:46:33Z</time>
      </trkpt>
      <trkpt lat="49.08851" lon="0.01875">
        <ele>25</ele>
        <time>2024-09-22T08:46:34Z</time>
      </trkpt>
      <trkpt lat="49.08859" lon="0.01876">
        <ele>25</ele>
        <time>2024-09-22T08:46:35Z</time>
      </trkpt>
      <trkpt lat="49.08866" lon="0.01877">
        <ele>25</ele>
        <time>2024-09-22T08:46:36Z</time>
      </trkpt>
      <trkpt lat="49.08874" lon="0.01878">
        <ele>25.2</ele>
        <time>2024-09-22T08:46:37Z</time>
      </trkpt>
      <trkpt lat="49.08881" lon="0.01879">
        <ele>25.2</ele>
        <time>2024-09-22T08:46:38Z</time>
      </trkpt>
      <trkpt lat="49.08889" lon="0.01879">
        <ele>25.4</ele>
        <time>2024-09-22T08:46:39Z</time>
      </trkpt>
      <trkpt lat="49.08896" lon="0.01879">
        <ele>25.4</ele>
        <time>2024-09-22T08:46:40Z</time>
      </trkpt>
      <trkpt lat="49.08903" lon="0.0188">
        <ele>25.4</ele>
        <time>2024-09-22T08:46:41Z</time>
      </trkpt>
      <trkpt lat="49.08911" lon="0.01879">
        <ele>25.4</ele>
        <time>2024-09-22T08:46:42Z</time>
      </trkpt>
      <trkpt lat="49.08918" lon="0.01879">
        <ele>25.4</ele>
        <time>2024-09-22T08:46:43Z</time>
      </trkpt>
      <trkpt lat="49.08924" lon="0.01879">
        <ele>25.4</ele>
        <time>2024-09-22T08:46:44Z</time>
      </trkpt>
      <trkpt lat="49.08931" lon="0.01879">
        <ele>25.6</ele>
        <time>2024-09-22T08:46:45Z</time>
      </trkpt>
      <trkpt lat="49.08938" lon="0.01879">
        <ele>25.6</ele>
        <time>2024-09-22T08:46:46Z</time>
      </trkpt>
      <trkpt lat="49.08946" lon="0.0188">
        <ele>25.6</ele>
        <time>2024-09-22T08:46:47Z</time>
      </trkpt>
      <trkpt lat="49.08953" lon="0.01881">
        <ele>25.6</ele>
        <time>2024-09-22T08:46:48Z</time>
      </trkpt>
      <trkpt lat="49.0896" lon="0.01883">
        <ele>25.6</ele>
        <time>2024-09-22T08:46:49Z</time>
      </trkpt>
      <trkpt lat="49.08968" lon="0.01885">
        <ele>25.6</ele>
        <time>2024-09-22T08:46:50Z</time>
      </trkpt>
      <trkpt lat="49.08975" lon="0.01887">
        <ele>25.6</ele>
        <time>2024-09-22T08:46:51Z</time>
      </trkpt>
      <trkpt lat="49.08982" lon="0.0189">
        <ele>25.6</ele>
        <time>2024-09-22T08:46:52Z</time>
      </trkpt>
      <trkpt lat="49.0899" lon="0.01892">
        <ele>25.6</ele>
        <time>2024-09-22T08:46:53Z</time>
      </trkpt>
      <trkpt lat="49.08997" lon="0.01894">
        <ele>25.6</ele>
        <time>2024-09-22T08:46:54Z</time>
      </trkpt>
      <trkpt lat="49.09005" lon="0.01894">
        <ele>25.6</ele>
        <time>2024-09-22T08:46:55Z</time>
      </trkpt>
      <trkpt lat="49.09013" lon="0.01892">
        <ele>25.6</ele>
        <time>2024-09-22T08:46:56Z</time>
      </trkpt>
      <trkpt lat="49.0902" lon="0.01889">
        <ele>25.6</ele>
        <time>2024-09-22T08:46:57Z</time>
      </trkpt>
      <trkpt lat="49.09027" lon="0.01886">
        <ele>25.6</ele>
        <time>2024-09-22T08:46:58Z</time>
      </trkpt>
      <trkpt lat="49.09035" lon="0.01882">
        <ele>25.6</ele>
        <time>2024-09-22T08:46:59Z</time>
      </trkpt>
      <trkpt lat="49.09042" lon="0.01878">
        <ele>25.6</ele>
        <time>2024-09-22T08:47:00Z</time>
      </trkpt>
      <trkpt lat="49.09051" lon="0.01874">
        <ele>25.4</ele>
        <time>2024-09-22T08:47:01Z</time>
      </trkpt>
      <trkpt lat="49.09059" lon="0.0187">
        <ele>25</ele>
        <time>2024-09-22T08:47:02Z</time>
      </trkpt>
      <trkpt lat="49.09067" lon="0.01865">
        <ele>24.8</ele>
        <time>2024-09-22T08:47:03Z</time>
      </trkpt>
      <trkpt lat="49.09075" lon="0.01861">
        <ele>24.4</ele>
        <time>2024-09-22T08:47:04Z</time>
      </trkpt>
      <trkpt lat="49.09084" lon="0.01857">
        <ele>24.4</ele>
        <time>2024-09-22T08:47:05Z</time>
      </trkpt>
      <trkpt lat="49.09092" lon="0.01852">
        <ele>24.2</ele>
        <time>2024-09-22T08:47:06Z</time>
      </trkpt>
      <trkpt lat="49.09101" lon="0.01847">
        <ele>24</ele>
        <time>2024-09-22T08:47:07Z</time>
      </trkpt>
      <trkpt lat="49.0911" lon="0.01843">
        <ele>24</ele>
        <time>2024-09-22T08:47:08Z</time>
      </trkpt>
      <trkpt lat="49.09119" lon="0.01838">
        <ele>23.8</ele>
        <time>2024-09-22T08:47:09Z</time>
      </trkpt>
      <trkpt lat="49.09127" lon="0.01834">
        <ele>23.6</ele>
        <time>2024-09-22T08:47:10Z</time>
      </trkpt>
      <trkpt lat="49.09136" lon="0.01829">
        <ele>23.4</ele>
        <time>2024-09-22T08:47:11Z</time>
      </trkpt>
      <trkpt lat="49.09144" lon="0.01825">
        <ele>23</ele>
        <time>2024-09-22T08:47:12Z</time>
      </trkpt>
      <trkpt lat="49.09153" lon="0.0182">
        <ele>22.6</ele>
        <time>2024-09-22T08:47:13Z</time>
      </trkpt>
      <trkpt lat="49.09162" lon="0.01816">
        <ele>22.4</ele>
        <time>2024-09-22T08:47:14Z</time>
      </trkpt>
      <trkpt lat="49.0917" lon="0.01812">
        <ele>22.2</ele>
        <time>2024-09-22T08:47:15Z</time>
      </trkpt>
      <trkpt lat="49.09178" lon="0.01808">
        <ele>22</ele>
        <time>2024-09-22T08:47:16Z</time>
      </trkpt>
      <trkpt lat="49.09187" lon="0.01804">
        <ele>21.6</ele>
        <time>2024-09-22T08:47:17Z</time>
      </trkpt>
      <trkpt lat="49.09195" lon="0.018">
        <ele>21.6</ele>
        <time>2024-09-22T08:47:18Z</time>
      </trkpt>
      <trkpt lat="49.09203" lon="0.01796">
        <ele>21.4</ele>
        <time>2024-09-22T08:47:19Z</time>
      </trkpt>
      <trkpt lat="49.09212" lon="0.01791">
        <ele>21.4</ele>
        <time>2024-09-22T08:47:20Z</time>
      </trkpt>
      <trkpt lat="49.0922" lon="0.01787">
        <ele>21.2</ele>
        <time>2024-09-22T08:47:21Z</time>
      </trkpt>
      <trkpt lat="49.09228" lon="0.01783">
        <ele>21.2</ele>
        <time>2024-09-22T08:47:22Z</time>
      </trkpt>
      <trkpt lat="49.09236" lon="0.01779">
        <ele>21.2</ele>
        <time>2024-09-22T08:47:23Z</time>
      </trkpt>
      <trkpt lat="49.09245" lon="0.01774">
        <ele>21</ele>
        <time>2024-09-22T08:47:24Z</time>
      </trkpt>
      <trkpt lat="49.09253" lon="0.0177">
        <ele>21</ele>
        <time>2024-09-22T08:47:25Z</time>
      </trkpt>
      <trkpt lat="49.09261" lon="0.01767">
        <ele>21</ele>
        <time>2024-09-22T08:47:26Z</time>
      </trkpt>
      <trkpt lat="49.09269" lon="0.01763">
        <ele>21</ele>
        <time>2024-09-22T08:47:27Z</time>
      </trkpt>
      <trkpt lat="49.09277" lon="0.01759">
        <ele>20.8</ele>
        <time>2024-09-22T08:47:28Z</time>
      </trkpt>
      <trkpt lat="49.09285" lon="0.01755">
        <ele>20.8</ele>
        <time>2024-09-22T08:47:29Z</time>
      </trkpt>
      <trkpt lat="49.09293" lon="0.01751">
        <ele>20.6</ele>
        <time>2024-09-22T08:47:30Z</time>
      </trkpt>
      <trkpt lat="49.09302" lon="0.01746">
        <ele>20.8</ele>
        <time>2024-09-22T08:47:31Z</time>
      </trkpt>
      <trkpt lat="49.0931" lon="0.01742">
        <ele>20.6</ele>
        <time>2024-09-22T08:47:32Z</time>
      </trkpt>
      <trkpt lat="49.09318" lon="0.01738">
        <ele>20.6</ele>
        <time>2024-09-22T08:47:33Z</time>
      </trkpt>
      <trkpt lat="49.09327" lon="0.01734">
        <ele>20.6</ele>
        <time>2024-09-22T08:47:34Z</time>
      </trkpt>
      <trkpt lat="49.09335" lon="0.0173">
        <ele>20.4</ele>
        <time>2024-09-22T08:47:35Z</time>
      </trkpt>
      <trkpt lat="49.09343" lon="0.01725">
        <ele>20.4</ele>
        <time>2024-09-22T08:47:36Z</time>
      </trkpt>
      <trkpt lat="49.09352" lon="0.01721">
        <ele>20.4</ele>
        <time>2024-09-22T08:47:37Z</time>
      </trkpt>
      <trkpt lat="49.0936" lon="0.01717">
        <ele>20.4</ele>
        <time>2024-09-22T08:47:38Z</time>
      </trkpt>
      <trkpt lat="49.09368" lon="0.01713">
        <ele>20.2</ele>
        <time>2024-09-22T08:47:39Z</time>
      </trkpt>
      <trkpt lat="49.09376" lon="0.01709">
        <ele>20.2</ele>
        <time>2024-09-22T08:47:40Z</time>
      </trkpt>
      <trkpt lat="49.09384" lon="0.01705">
        <ele>20.2</ele>
        <time>2024-09-22T08:47:41Z</time>
      </trkpt>
      <trkpt lat="49.09392" lon="0.01701">
        <ele>20.2</ele>
        <time>2024-09-22T08:47:42Z</time>
      </trkpt>
      <trkpt lat="49.094" lon="0.01697">
        <ele>20.2</ele>
        <time>2024-09-22T08:47:43Z</time>
      </trkpt>
      <trkpt lat="49.09408" lon="0.01692">
        <ele>20.2</ele>
        <time>2024-09-22T08:47:44Z</time>
      </trkpt>
      <trkpt lat="49.09416" lon="0.01688">
        <ele>20</ele>
        <time>2024-09-22T08:47:45Z</time>
      </trkpt>
      <trkpt lat="49.09424" lon="0.01683">
        <ele>20</ele>
        <time>2024-09-22T08:47:46Z</time>
      </trkpt>
      <trkpt lat="49.09432" lon="0.01678">
        <ele>20</ele>
        <time>2024-09-22T08:47:47Z</time>
      </trkpt>
      <trkpt lat="49.0944" lon="0.01672">
        <ele>20</ele>
        <time>2024-09-22T08:47:48Z</time>
      </trkpt>
      <trkpt lat="49.09448" lon="0.01667">
        <ele>20</ele>
        <time>2024-09-22T08:47:49Z</time>
      </trkpt>
      <trkpt lat="49.09455" lon="0.01661">
        <ele>20</ele>
        <time>2024-09-22T08:47:50Z</time>
      </trkpt>
      <trkpt lat="49.09463" lon="0.01655">
        <ele>20</ele>
        <time>2024-09-22T08:47:51Z</time>
      </trkpt>
      <trkpt lat="49.0947" lon="0.01648">
        <ele>20</ele>
        <time>2024-09-22T08:47:52Z</time>
      </trkpt>
      <trkpt lat="49.09477" lon="0.01642">
        <ele>20</ele>
        <time>2024-09-22T08:47:53Z</time>
      </trkpt>
      <trkpt lat="49.09484" lon="0.01635">
        <ele>20</ele>
        <time>2024-09-22T08:47:54Z</time>
      </trkpt>
      <trkpt lat="49.09491" lon="0.01628">
        <ele>20</ele>
        <time>2024-09-22T08:47:55Z</time>
      </trkpt>
      <trkpt lat="49.09498" lon="0.01621">
        <ele>20</ele>
        <time>2024-09-22T08:47:56Z</time>
      </trkpt>
      <trkpt lat="49.09505" lon="0.01614">
        <ele>20</ele>
        <time>2024-09-22T08:47:57Z</time>
      </trkpt>
      <trkpt lat="49.09512" lon="0.01606">
        <ele>20</ele>
        <time>2024-09-22T08:47:58Z</time>
      </trkpt>
      <trkpt lat="49.09519" lon="0.01598">
        <ele>20</ele>
        <time>2024-09-22T08:47:59Z</time>
      </trkpt>
      <trkpt lat="49.09525" lon="0.0159">
        <ele>20</ele>
        <time>2024-09-22T08:48:00Z</time>
      </trkpt>
      <trkpt lat="49.09532" lon="0.01581">
        <ele>20.2</ele>
        <time>2024-09-22T08:48:01Z</time>
      </trkpt>
      <trkpt lat="49.09538" lon="0.01573">
        <ele>20.2</ele>
        <time>2024-09-22T08:48:02Z</time>
      </trkpt>
      <trkpt lat="49.09544" lon="0.01564">
        <ele>20.2</ele>
        <time>2024-09-22T08:48:03Z</time>
      </trkpt>
      <trkpt lat="49.0955" lon="0.01555">
        <ele>20.2</ele>
        <time>2024-09-22T08:48:04Z</time>
      </trkpt>
      <trkpt lat="49.09556" lon="0.01546">
        <ele>20.2</ele>
        <time>2024-09-22T08:48:05Z</time>
      </trkpt>
      <trkpt lat="49.09562" lon="0.01536">
        <ele>20.4</ele>
        <time>2024-09-22T08:48:06Z</time>
      </trkpt>
      <trkpt lat="49.09567" lon="0.01526">
        <ele>20.4</ele>
        <time>2024-09-22T08:48:07Z</time>
      </trkpt>
      <trkpt lat="49.09573" lon="0.01516">
        <ele>20.4</ele>
        <time>2024-09-22T08:48:08Z</time>
      </trkpt>
      <trkpt lat="49.09579" lon="0.01506">
        <ele>20.6</ele>
        <time>2024-09-22T08:48:09Z</time>
      </trkpt>
      <trkpt lat="49.09584" lon="0.01496">
        <ele>20.6</ele>
        <time>2024-09-22T08:48:10Z</time>
      </trkpt>
      <trkpt lat="49.0959" lon="0.01486">
        <ele>20.6</ele>
        <time>2024-09-22T08:48:11Z</time>
      </trkpt>
      <trkpt lat="49.09595" lon="0.01476">
        <ele>20.6</ele>
        <time>2024-09-22T08:48:12Z</time>
      </trkpt>
      <trkpt lat="49.09601" lon="0.01465">
        <ele>20.6</ele>
        <time>2024-09-22T08:48:13Z</time>
      </trkpt>
      <trkpt lat="49.09606" lon="0.01455">
        <ele>20.6</ele>
        <time>2024-09-22T08:48:14Z</time>
      </trkpt>
      <trkpt lat="49.09612" lon="0.01445">
        <ele>20.6</ele>
        <time>2024-09-22T08:48:15Z</time>
      </trkpt>
      <trkpt lat="49.09618" lon="0.01435">
        <ele>20.6</ele>
        <time>2024-09-22T08:48:16Z</time>
      </trkpt>
      <trkpt lat="49.09623" lon="0.01424">
        <ele>20.6</ele>
        <time>2024-09-22T08:48:17Z</time>
      </trkpt>
      <trkpt lat="49.09629" lon="0.01414">
        <ele>20.6</ele>
        <time>2024-09-22T08:48:18Z</time>
      </trkpt>
      <trkpt lat="49.09635" lon="0.01403">
        <ele>20.6</ele>
        <time>2024-09-22T08:48:19Z</time>
      </trkpt>
      <trkpt lat="49.0964" lon="0.01393">
        <ele>20.6</ele>
        <time>2024-09-22T08:48:20Z</time>
      </trkpt>
      <trkpt lat="49.09646" lon="0.01383">
        <ele>20.6</ele>
        <time>2024-09-22T08:48:21Z</time>
      </trkpt>
      <trkpt lat="49.09652" lon="0.01372">
        <ele>20.6</ele>
        <time>2024-09-22T08:48:22Z</time>
      </trkpt>
      <trkpt lat="49.09657" lon="0.01362">
        <ele>20.6</ele>
        <time>2024-09-22T08:48:23Z</time>
      </trkpt>
      <trkpt lat="49.09662" lon="0.01351">
        <ele>20.4</ele>
        <time>2024-09-22T08:48:24Z</time>
      </trkpt>
      <trkpt lat="49.09668" lon="0.0134">
        <ele>20.4</ele>
        <time>2024-09-22T08:48:25Z</time>
      </trkpt>
      <trkpt lat="49.09674" lon="0.0133">
        <ele>20.4</ele>
        <time>2024-09-22T08:48:26Z</time>
      </trkpt>
      <trkpt lat="49.09679" lon="0.01319">
        <ele>20.4</ele>
        <time>2024-09-22T08:48:27Z</time>
      </trkpt>
      <trkpt lat="49.09685" lon="0.01309">
        <ele>20.2</ele>
        <time>2024-09-22T08:48:28Z</time>
      </trkpt>
      <trkpt lat="49.0969" lon="0.01298">
        <ele>20.2</ele>
        <time>2024-09-22T08:48:29Z</time>
      </trkpt>
      <trkpt lat="49.09696" lon="0.01288">
        <ele>20.2</ele>
        <time>2024-09-22T08:48:30Z</time>
      </trkpt>
      <trkpt lat="49.09701" lon="0.01278">
        <ele>20.2</ele>
        <time>2024-09-22T08:48:31Z</time>
      </trkpt>
      <trkpt lat="49.09707" lon="0.01268">
        <ele>20.2</ele>
        <time>2024-09-22T08:48:32Z</time>
      </trkpt>
      <trkpt lat="49.09712" lon="0.01257">
        <ele>20.2</ele>
        <time>2024-09-22T08:48:33Z</time>
      </trkpt>
      <trkpt lat="49.09718" lon="0.01247">
        <ele>20</ele>
        <time>2024-09-22T08:48:34Z</time>
      </trkpt>
      <trkpt lat="49.09723" lon="0.01237">
        <ele>20</ele>
        <time>2024-09-22T08:48:35Z</time>
      </trkpt>
      <trkpt lat="49.09729" lon="0.01227">
        <ele>20</ele>
        <time>2024-09-22T08:48:36Z</time>
      </trkpt>
      <trkpt lat="49.09734" lon="0.01217">
        <ele>20</ele>
        <time>2024-09-22T08:48:37Z</time>
      </trkpt>
      <trkpt lat="49.09739" lon="0.01208">
        <ele>20</ele>
        <time>2024-09-22T08:48:38Z</time>
      </trkpt>
      <trkpt lat="49.09745" lon="0.01198">
        <ele>20</ele>
        <time>2024-09-22T08:48:39Z</time>
      </trkpt>
      <trkpt lat="49.0975" lon="0.01188">
        <ele>20</ele>
        <time>2024-09-22T08:48:40Z</time>
      </trkpt>
      <trkpt lat="49.09756" lon="0.01178">
        <ele>19.8</ele>
        <time>2024-09-22T08:48:41Z</time>
      </trkpt>
      <trkpt lat="49.09761" lon="0.01169">
        <ele>19.8</ele>
        <time>2024-09-22T08:48:42Z</time>
      </trkpt>
      <trkpt lat="49.09767" lon="0.01158">
        <ele>19.8</ele>
        <time>2024-09-22T08:48:43Z</time>
      </trkpt>
      <trkpt lat="49.09772" lon="0.01148">
        <ele>19.8</ele>
        <time>2024-09-22T08:48:44Z</time>
      </trkpt>
      <trkpt lat="49.09778" lon="0.01138">
        <ele>19.8</ele>
        <time>2024-09-22T08:48:45Z</time>
      </trkpt>
      <trkpt lat="49.09783" lon="0.01127">
        <ele>19.8</ele>
        <time>2024-09-22T08:48:46Z</time>
      </trkpt>
      <trkpt lat="49.09789" lon="0.01116">
        <ele>19.6</ele>
        <time>2024-09-22T08:48:47Z</time>
      </trkpt>
      <trkpt lat="49.09795" lon="0.01106">
        <ele>19.6</ele>
        <time>2024-09-22T08:48:48Z</time>
      </trkpt>
      <trkpt lat="49.098" lon="0.01095">
        <ele>19.6</ele>
        <time>2024-09-22T08:48:49Z</time>
      </trkpt>
      <trkpt lat="49.09806" lon="0.01085">
        <ele>19.6</ele>
        <time>2024-09-22T08:48:50Z</time>
      </trkpt>
      <trkpt lat="49.09812" lon="0.01074">
        <ele>19.6</ele>
        <time>2024-09-22T08:48:51Z</time>
      </trkpt>
      <trkpt lat="49.09818" lon="0.01064">
        <ele>19.4</ele>
        <time>2024-09-22T08:48:52Z</time>
      </trkpt>
      <trkpt lat="49.09824" lon="0.01053">
        <ele>19.4</ele>
        <time>2024-09-22T08:48:53Z</time>
      </trkpt>
      <trkpt lat="49.0983" lon="0.01043">
        <ele>19.4</ele>
        <time>2024-09-22T08:48:54Z</time>
      </trkpt>
      <trkpt lat="49.09835" lon="0.01032">
        <ele>19.4</ele>
        <time>2024-09-22T08:48:55Z</time>
      </trkpt>
      <trkpt lat="49.09841" lon="0.01021">
        <ele>19.4</ele>
        <time>2024-09-22T08:48:56Z</time>
      </trkpt>
      <trkpt lat="49.09846" lon="0.01011">
        <ele>19.2</ele>
        <time>2024-09-22T08:48:57Z</time>
      </trkpt>
      <trkpt lat="49.09852" lon="0.01001">
        <ele>19.2</ele>
        <time>2024-09-22T08:48:58Z</time>
      </trkpt>
      <trkpt lat="49.09857" lon="0.00991">
        <ele>19.2</ele>
        <time>2024-09-22T08:48:59Z</time>
      </trkpt>
      <trkpt lat="49.09863" lon="0.0098">
        <ele>19.2</ele>
        <time>2024-09-22T08:49:00Z</time>
      </trkpt>
      <trkpt lat="49.09869" lon="0.0097">
        <ele>19.2</ele>
        <time>2024-09-22T08:49:01Z</time>
      </trkpt>
      <trkpt lat="49.09874" lon="0.0096">
        <ele>19.2</ele>
        <time>2024-09-22T08:49:02Z</time>
      </trkpt>
      <trkpt lat="49.0988" lon="0.0095">
        <ele>19.2</ele>
        <time>2024-09-22T08:49:03Z</time>
      </trkpt>
      <trkpt lat="49.09885" lon="0.0094">
        <ele>19.2</ele>
        <time>2024-09-22T08:49:04Z</time>
      </trkpt>
      <trkpt lat="49.0989" lon="0.0093">
        <ele>19.4</ele>
        <time>2024-09-22T08:49:05Z</time>
      </trkpt>
      <trkpt lat="49.09896" lon="0.0092">
        <ele>19.4</ele>
        <time>2024-09-22T08:49:06Z</time>
      </trkpt>
      <trkpt lat="49.09902" lon="0.0091">
        <ele>19.4</ele>
        <time>2024-09-22T08:49:07Z</time>
      </trkpt>
      <trkpt lat="49.09908" lon="0.00899">
        <ele>19.4</ele>
        <time>2024-09-22T08:49:08Z</time>
      </trkpt>
      <trkpt lat="49.09913" lon="0.00889">
        <ele>19.2</ele>
        <time>2024-09-22T08:49:09Z</time>
      </trkpt>
      <trkpt lat="49.09919" lon="0.00879">
        <ele>19.4</ele>
        <time>2024-09-22T08:49:10Z</time>
      </trkpt>
      <trkpt lat="49.09924" lon="0.00868">
        <ele>19.4</ele>
        <time>2024-09-22T08:49:11Z</time>
      </trkpt>
      <trkpt lat="49.0993" lon="0.00858">
        <ele>19.2</ele>
        <time>2024-09-22T08:49:12Z</time>
      </trkpt>
      <trkpt lat="49.09936" lon="0.00847">
        <ele>19.4</ele>
        <time>2024-09-22T08:49:13Z</time>
      </trkpt>
      <trkpt lat="49.09941" lon="0.00837">
        <ele>19.2</ele>
        <time>2024-09-22T08:49:14Z</time>
      </trkpt>
      <trkpt lat="49.09947" lon="0.00826">
        <ele>19.2</ele>
        <time>2024-09-22T08:49:15Z</time>
      </trkpt>
      <trkpt lat="49.09953" lon="0.00816">
        <ele>19.2</ele>
        <time>2024-09-22T08:49:16Z</time>
      </trkpt>
      <trkpt lat="49.09958" lon="0.00806">
        <ele>19.2</ele>
        <time>2024-09-22T08:49:17Z</time>
      </trkpt>
      <trkpt lat="49.09964" lon="0.00795">
        <ele>19.2</ele>
        <time>2024-09-22T08:49:18Z</time>
      </trkpt>
      <trkpt lat="49.0997" lon="0.00785">
        <ele>19.2</ele>
        <time>2024-09-22T08:49:19Z</time>
      </trkpt>
      <trkpt lat="49.09975" lon="0.00775">
        <ele>19</ele>
        <time>2024-09-22T08:49:20Z</time>
      </trkpt>
      <trkpt lat="49.09981" lon="0.00764">
        <ele>19</ele>
        <time>2024-09-22T08:49:21Z</time>
      </trkpt>
      <trkpt lat="49.09987" lon="0.00754">
        <ele>19</ele>
        <time>2024-09-22T08:49:22Z</time>
      </trkpt>
      <trkpt lat="49.09992" lon="0.00744">
        <ele>18.8</ele>
        <time>2024-09-22T08:49:23Z</time>
      </trkpt>
      <trkpt lat="49.09998" lon="0.00733">
        <ele>18.8</ele>
        <time>2024-09-22T08:49:24Z</time>
      </trkpt>
      <trkpt lat="49.10003" lon="0.00723">
        <ele>18.8</ele>
        <time>2024-09-22T08:49:25Z</time>
      </trkpt>
      <trkpt lat="49.10009" lon="0.00713">
        <ele>18.8</ele>
        <time>2024-09-22T08:49:26Z</time>
      </trkpt>
      <trkpt lat="49.10014" lon="0.00703">
        <ele>18.8</ele>
        <time>2024-09-22T08:49:27Z</time>
      </trkpt>
      <trkpt lat="49.10019" lon="0.00693">
        <ele>18.8</ele>
        <time>2024-09-22T08:49:28Z</time>
      </trkpt>
      <trkpt lat="49.10025" lon="0.00683">
        <ele>18.8</ele>
        <time>2024-09-22T08:49:29Z</time>
      </trkpt>
      <trkpt lat="49.10031" lon="0.00673">
        <ele>18.6</ele>
        <time>2024-09-22T08:49:30Z</time>
      </trkpt>
      <trkpt lat="49.10036" lon="0.00663">
        <ele>18.6</ele>
        <time>2024-09-22T08:49:31Z</time>
      </trkpt>
      <trkpt lat="49.10042" lon="0.00653">
        <ele>18.6</ele>
        <time>2024-09-22T08:49:32Z</time>
      </trkpt>
      <trkpt lat="49.10048" lon="0.00643">
        <ele>18.6</ele>
        <time>2024-09-22T08:49:33Z</time>
      </trkpt>
      <trkpt lat="49.10053" lon="0.00633">
        <ele>18.6</ele>
        <time>2024-09-22T08:49:34Z</time>
      </trkpt>
      <trkpt lat="49.10058" lon="0.00624">
        <ele>18.6</ele>
        <time>2024-09-22T08:49:35Z</time>
      </trkpt>
      <trkpt lat="49.10063" lon="0.00614">
        <ele>18.6</ele>
        <time>2024-09-22T08:49:36Z</time>
      </trkpt>
      <trkpt lat="49.10069" lon="0.00605">
        <ele>18.6</ele>
        <time>2024-09-22T08:49:37Z</time>
      </trkpt>
      <trkpt lat="49.10074" lon="0.00595">
        <ele>18.4</ele>
        <time>2024-09-22T08:49:38Z</time>
      </trkpt>
      <trkpt lat="49.10079" lon="0.00585">
        <ele>18.4</ele>
        <time>2024-09-22T08:49:39Z</time>
      </trkpt>
      <trkpt lat="49.10084" lon="0.00576">
        <ele>18.4</ele>
        <time>2024-09-22T08:49:40Z</time>
      </trkpt>
      <trkpt lat="49.10089" lon="0.00566">
        <ele>18.4</ele>
        <time>2024-09-22T08:49:41Z</time>
      </trkpt>
      <trkpt lat="49.10095" lon="0.00556">
        <ele>18.4</ele>
        <time>2024-09-22T08:49:42Z</time>
      </trkpt>
      <trkpt lat="49.101" lon="0.00546">
        <ele>18.4</ele>
        <time>2024-09-22T08:49:43Z</time>
      </trkpt>
      <trkpt lat="49.10105" lon="0.00537">
        <ele>18.4</ele>
        <time>2024-09-22T08:49:44Z</time>
      </trkpt>
      <trkpt lat="49.1011" lon="0.00528">
        <ele>18.4</ele>
        <time>2024-09-22T08:49:45Z</time>
      </trkpt>
      <trkpt lat="49.10115" lon="0.00518">
        <ele>18.4</ele>
        <time>2024-09-22T08:49:46Z</time>
      </trkpt>
      <trkpt lat="49.1012" lon="0.00509">
        <ele>18.4</ele>
        <time>2024-09-22T08:49:47Z</time>
      </trkpt>
      <trkpt lat="49.10126" lon="0.005">
        <ele>18.4</ele>
        <time>2024-09-22T08:49:48Z</time>
      </trkpt>
      <trkpt lat="49.10131" lon="0.0049">
        <ele>18.4</ele>
        <time>2024-09-22T08:49:49Z</time>
      </trkpt>
      <trkpt lat="49.10136" lon="0.00481">
        <ele>18.4</ele>
        <time>2024-09-22T08:49:50Z</time>
      </trkpt>
      <trkpt lat="49.10141" lon="0.00472">
        <ele>18.4</ele>
        <time>2024-09-22T08:49:51Z</time>
      </trkpt>
      <trkpt lat="49.10146" lon="0.00464">
        <ele>18.4</ele>
        <time>2024-09-22T08:49:52Z</time>
      </trkpt>
      <trkpt lat="49.1015" lon="0.00455">
        <ele>18.2</ele>
        <time>2024-09-22T08:49:53Z</time>
      </trkpt>
      <trkpt lat="49.10155" lon="0.00447">
        <ele>18.2</ele>
        <time>2024-09-22T08:49:54Z</time>
      </trkpt>
      <trkpt lat="49.10159" lon="0.00439">
        <ele>18.2</ele>
        <time>2024-09-22T08:49:55Z</time>
      </trkpt>
      <trkpt lat="49.10163" lon="0.00432">
        <ele>18.2</ele>
        <time>2024-09-22T08:49:56Z</time>
      </trkpt>
      <trkpt lat="49.10167" lon="0.00424">
        <ele>18.2</ele>
        <time>2024-09-22T08:49:57Z</time>
      </trkpt>
      <trkpt lat="49.10171" lon="0.00417">
        <ele>18.2</ele>
        <time>2024-09-22T08:49:58Z</time>
      </trkpt>
      <trkpt lat="49.10174" lon="0.00409">
        <ele>18.2</ele>
        <time>2024-09-22T08:49:59Z</time>
      </trkpt>
      <trkpt lat="49.10178" lon="0.00402">
        <ele>18.4</ele>
        <time>2024-09-22T08:50:00Z</time>
      </trkpt>
      <trkpt lat="49.10182" lon="0.00395">
        <ele>18.4</ele>
        <time>2024-09-22T08:50:01Z</time>
      </trkpt>
      <trkpt lat="49.10185" lon="0.00389">
        <ele>18.4</ele>
        <time>2024-09-22T08:50:02Z</time>
      </trkpt>
      <trkpt lat="49.10188" lon="0.00384">
        <ele>18.4</ele>
        <time>2024-09-22T08:50:03Z</time>
      </trkpt>
      <trkpt lat="49.10191" lon="0.0038">
        <ele>18.4</ele>
        <time>2024-09-22T08:50:04Z</time>
      </trkpt>
      <trkpt lat="49.10193" lon="0.00375">
        <ele>18.4</ele>
        <time>2024-09-22T08:50:05Z</time>
      </trkpt>
      <trkpt lat="49.10195" lon="0.00372">
        <ele>18.6</ele>
        <time>2024-09-22T08:50:06Z</time>
      </trkpt>
      <trkpt lat="49.10197" lon="0.00368">
        <ele>18.6</ele>
        <time>2024-09-22T08:50:07Z</time>
      </trkpt>
      <trkpt lat="49.10199" lon="0.00365">
        <ele>18.6</ele>
        <time>2024-09-22T08:50:08Z</time>
      </trkpt>
      <trkpt lat="49.10201" lon="0.00361">
        <ele>18.6</ele>
        <time>2024-09-22T08:50:09Z</time>
      </trkpt>
      <trkpt lat="49.10202" lon="0.00358">
        <ele>18.6</ele>
        <time>2024-09-22T08:50:10Z</time>
      </trkpt>
      <trkpt lat="49.10204" lon="0.00355">
        <ele>18.6</ele>
        <time>2024-09-22T08:50:11Z</time>
      </trkpt>
      <trkpt lat="49.10205" lon="0.00353">
        <ele>18.6</ele>
        <time>2024-09-22T08:50:12Z</time>
      </trkpt>
      <trkpt lat="49.10205" lon="0.00351">
        <ele>18.8</ele>
        <time>2024-09-22T08:50:13Z</time>
      </trkpt>
      <trkpt lat="49.10206" lon="0.0035">
        <ele>18.8</ele>
        <time>2024-09-22T08:50:14Z</time>
      </trkpt>
      <trkpt lat="49.10206" lon="0.00348">
        <ele>18.8</ele>
        <time>2024-09-22T08:50:15Z</time>
      </trkpt>
      <trkpt lat="49.10206" lon="0.00341">
        <ele>18.8</ele>
        <time>2024-09-22T08:50:17Z</time>
      </trkpt>
      <trkpt lat="49.10206" lon="0.00337">
        <ele>18.8</ele>
        <time>2024-09-22T08:50:18Z</time>
      </trkpt>
      <trkpt lat="49.10205" lon="0.00332">
        <ele>18.8</ele>
        <time>2024-09-22T08:50:19Z</time>
      </trkpt>
      <trkpt lat="49.10204" lon="0.00327">
        <ele>18.8</ele>
        <time>2024-09-22T08:50:20Z</time>
      </trkpt>
      <trkpt lat="49.10203" lon="0.00321">
        <ele>18.8</ele>
        <time>2024-09-22T08:50:21Z</time>
      </trkpt>
      <trkpt lat="49.10202" lon="0.00315">
        <ele>18.8</ele>
        <time>2024-09-22T08:50:22Z</time>
      </trkpt>
      <trkpt lat="49.10202" lon="0.00308">
        <ele>18.8</ele>
        <time>2024-09-22T08:50:23Z</time>
      </trkpt>
      <trkpt lat="49.10202" lon="0.00301">
        <ele>18.8</ele>
        <time>2024-09-22T08:50:24Z</time>
      </trkpt>
      <trkpt lat="49.10201" lon="0.00293">
        <ele>18.8</ele>
        <time>2024-09-22T08:50:25Z</time>
      </trkpt>
      <trkpt lat="49.102" lon="0.00285">
        <ele>18.8</ele>
        <time>2024-09-22T08:50:26Z</time>
      </trkpt>
      <trkpt lat="49.10199" lon="0.00277">
        <ele>18.8</ele>
        <time>2024-09-22T08:50:27Z</time>
      </trkpt>
      <trkpt lat="49.10197" lon="0.00269">
        <ele>18.8</ele>
        <time>2024-09-22T08:50:28Z</time>
      </trkpt>
      <trkpt lat="49.10196" lon="0.00261">
        <ele>18.6</ele>
        <time>2024-09-22T08:50:29Z</time>
      </trkpt>
      <trkpt lat="49.10194" lon="0.00253">
        <ele>18.6</ele>
        <time>2024-09-22T08:50:30Z</time>
      </trkpt>
      <trkpt lat="49.10194" lon="0.00245">
        <ele>18.6</ele>
        <time>2024-09-22T08:50:31Z</time>
      </trkpt>
      <trkpt lat="49.10193" lon="0.00238">
        <ele>18.4</ele>
        <time>2024-09-22T08:50:32Z</time>
      </trkpt>
      <trkpt lat="49.10192" lon="0.00228">
        <ele>18.2</ele>
        <time>2024-09-22T08:50:33Z</time>
      </trkpt>
      <trkpt lat="49.10191" lon="0.00219">
        <ele>18</ele>
        <time>2024-09-22T08:50:34Z</time>
      </trkpt>
      <trkpt lat="49.1019" lon="0.0021">
        <ele>18</ele>
        <time>2024-09-22T08:50:35Z</time>
      </trkpt>
      <trkpt lat="49.10189" lon="0.00201">
        <ele>17.8</ele>
        <time>2024-09-22T08:50:36Z</time>
      </trkpt>
      <trkpt lat="49.10188" lon="0.00192">
        <ele>17.8</ele>
        <time>2024-09-22T08:50:37Z</time>
      </trkpt>
      <trkpt lat="49.10187" lon="0.00182">
        <ele>17.8</ele>
        <time>2024-09-22T08:50:38Z</time>
      </trkpt>
      <trkpt lat="49.10186" lon="0.00173">
        <ele>17.8</ele>
        <time>2024-09-22T08:50:39Z</time>
      </trkpt>
      <trkpt lat="49.10185" lon="0.00164">
        <ele>17.6</ele>
        <time>2024-09-22T08:50:40Z</time>
      </trkpt>
      <trkpt lat="49.10184" lon="0.00155">
        <ele>17.6</ele>
        <time>2024-09-22T08:50:41Z</time>
      </trkpt>
      <trkpt lat="49.10183" lon="0.00146">
        <ele>17.6</ele>
        <time>2024-09-22T08:50:42Z</time>
      </trkpt>
      <trkpt lat="49.10182" lon="0.00137">
        <ele>17.6</ele>
        <time>2024-09-22T08:50:43Z</time>
      </trkpt>
      <trkpt lat="49.10181" lon="0.00128">
        <ele>17.6</ele>
        <time>2024-09-22T08:50:44Z</time>
      </trkpt>
      <trkpt lat="49.1018" lon="0.00119">
        <ele>17.4</ele>
        <time>2024-09-22T08:50:45Z</time>
      </trkpt>
      <trkpt lat="49.10179" lon="0.00109">
        <ele>17.4</ele>
        <time>2024-09-22T08:50:46Z</time>
      </trkpt>
      <trkpt lat="49.10178" lon="0.00099">
        <ele>17.4</ele>
        <time>2024-09-22T08:50:47Z</time>
      </trkpt>
      <trkpt lat="49.10177" lon="0.00089">
        <ele>17.4</ele>
        <time>2024-09-22T08:50:48Z</time>
      </trkpt>
      <trkpt lat="49.10175" lon="0.00078">
        <ele>17.4</ele>
        <time>2024-09-22T08:50:49Z</time>
      </trkpt>
      <trkpt lat="49.10174" lon="0.00067">
        <ele>17.2</ele>
        <time>2024-09-22T08:50:50Z</time>
      </trkpt>
      <trkpt lat="49.10173" lon="0.00056">
        <ele>17.2</ele>
        <time>2024-09-22T08:50:51Z</time>
      </trkpt>
      <trkpt lat="49.10172" lon="0.00046">
        <ele>17.2</ele>
        <time>2024-09-22T08:50:52Z</time>
      </trkpt>
      <trkpt lat="49.10171" lon="0.00035">
        <ele>17.2</ele>
        <time>2024-09-22T08:50:53Z</time>
      </trkpt>
      <trkpt lat="49.1017" lon="0.00024">
        <ele>17</ele>
        <time>2024-09-22T08:50:54Z</time>
      </trkpt>
      <trkpt lat="49.10168" lon="0.00013">
        <ele>17</ele>
        <time>2024-09-22T08:50:55Z</time>
      </trkpt>
      <trkpt lat="49.10167" lon="3.0E-5">
        <ele>17</ele>
        <time>2024-09-22T08:50:56Z</time>
      </trkpt>
      <trkpt lat="49.10165" lon="-0.0001">
        <ele>17</ele>
        <time>2024-09-22T08:50:57Z</time>
      </trkpt>
      <trkpt lat="49.10164" lon="-0.00022">
        <ele>17</ele>
        <time>2024-09-22T08:50:58Z</time>
      </trkpt>
      <trkpt lat="49.10163" lon="-0.00033">
        <ele>16.8</ele>
        <time>2024-09-22T08:50:59Z</time>
      </trkpt>
      <trkpt lat="49.10162" lon="-0.00044">
        <ele>16.8</ele>
        <time>2024-09-22T08:51:00Z</time>
      </trkpt>
      <trkpt lat="49.10162" lon="-0.00055">
        <ele>16.6</ele>
        <time>2024-09-22T08:51:01Z</time>
      </trkpt>
      <trkpt lat="49.10161" lon="-0.00066">
        <ele>16.4</ele>
        <time>2024-09-22T08:51:02Z</time>
      </trkpt>
      <trkpt lat="49.1016" lon="-0.00077">
        <ele>16.4</ele>
        <time>2024-09-22T08:51:03Z</time>
      </trkpt>
      <trkpt lat="49.10159" lon="-0.00087">
        <ele>16.2</ele>
        <time>2024-09-22T08:51:04Z</time>
      </trkpt>
      <trkpt lat="49.10157" lon="-0.00099">
        <ele>16.2</ele>
        <time>2024-09-22T08:51:05Z</time>
      </trkpt>
      <trkpt lat="49.10156" lon="-0.0011">
        <ele>16.2</ele>
        <time>2024-09-22T08:51:06Z</time>
      </trkpt>
      <trkpt lat="49.10155" lon="-0.00121">
        <ele>16.2</ele>
        <time>2024-09-22T08:51:07Z</time>
      </trkpt>
      <trkpt lat="49.10154" lon="-0.00132">
        <ele>16</ele>
        <time>2024-09-22T08:51:08Z</time>
      </trkpt>
      <trkpt lat="49.10152" lon="-0.00143">
        <ele>16</ele>
        <time>2024-09-22T08:51:09Z</time>
      </trkpt>
      <trkpt lat="49.10151" lon="-0.00155">
        <ele>16</ele>
        <time>2024-09-22T08:51:10Z</time>
      </trkpt>
      <trkpt lat="49.1015" lon="-0.00166">
        <ele>15.8</ele>
        <time>2024-09-22T08:51:11Z</time>
      </trkpt>
      <trkpt lat="49.10149" lon="-0.00177">
        <ele>15.8</ele>
        <time>2024-09-22T08:51:12Z</time>
      </trkpt>
      <trkpt lat="49.10148" lon="-0.00189">
        <ele>15.8</ele>
        <time>2024-09-22T08:51:13Z</time>
      </trkpt>
      <trkpt lat="49.10147" lon="-0.002">
        <ele>15.8</ele>
        <time>2024-09-22T08:51:14Z</time>
      </trkpt>
      <trkpt lat="49.10145" lon="-0.00211">
        <ele>15.8</ele>
        <time>2024-09-22T08:51:15Z</time>
      </trkpt>
      <trkpt lat="49.10144" lon="-0.00223">
        <ele>15.8</ele>
        <time>2024-09-22T08:51:16Z</time>
      </trkpt>
      <trkpt lat="49.10143" lon="-0.00234">
        <ele>15.8</ele>
        <time>2024-09-22T08:51:17Z</time>
      </trkpt>
      <trkpt lat="49.10142" lon="-0.00246">
        <ele>15.8</ele>
        <time>2024-09-22T08:51:18Z</time>
      </trkpt>
      <trkpt lat="49.1014" lon="-0.00257">
        <ele>15.8</ele>
        <time>2024-09-22T08:51:19Z</time>
      </trkpt>
      <trkpt lat="49.10139" lon="-0.00269">
        <ele>15.8</ele>
        <time>2024-09-22T08:51:20Z</time>
      </trkpt>
      <trkpt lat="49.10138" lon="-0.00281">
        <ele>15.6</ele>
        <time>2024-09-22T08:51:21Z</time>
      </trkpt>
      <trkpt lat="49.10136" lon="-0.00292">
        <ele>15.6</ele>
        <time>2024-09-22T08:51:22Z</time>
      </trkpt>
      <trkpt lat="49.10135" lon="-0.00304">
        <ele>15.6</ele>
        <time>2024-09-22T08:51:23Z</time>
      </trkpt>
      <trkpt lat="49.10134" lon="-0.00315">
        <ele>15.6</ele>
        <time>2024-09-22T08:51:24Z</time>
      </trkpt>
      <trkpt lat="49.10133" lon="-0.00327">
        <ele>15.6</ele>
        <time>2024-09-22T08:51:25Z</time>
      </trkpt>
      <trkpt lat="49.10131" lon="-0.00338">
        <ele>15.6</ele>
        <time>2024-09-22T08:51:26Z</time>
      </trkpt>
      <trkpt lat="49.1013" lon="-0.0035">
        <ele>15.6</ele>
        <time>2024-09-22T08:51:27Z</time>
      </trkpt>
      <trkpt lat="49.10129" lon="-0.00362">
        <ele>15.6</ele>
        <time>2024-09-22T08:51:28Z</time>
      </trkpt>
      <trkpt lat="49.10127" lon="-0.00374">
        <ele>15.6</ele>
        <time>2024-09-22T08:51:29Z</time>
      </trkpt>
      <trkpt lat="49.10126" lon="-0.00386">
        <ele>15.6</ele>
        <time>2024-09-22T08:51:30Z</time>
      </trkpt>
      <trkpt lat="49.10125" lon="-0.00395">
        <ele>15.4</ele>
        <time>2024-09-22T08:51:31Z</time>
      </trkpt>
      <trkpt lat="49.10123" lon="-0.00407">
        <ele>15.4</ele>
        <time>2024-09-22T08:51:32Z</time>
      </trkpt>
      <trkpt lat="49.10122" lon="-0.00419">
        <ele>15.6</ele>
        <time>2024-09-22T08:51:33Z</time>
      </trkpt>
      <trkpt lat="49.1012" lon="-0.00434">
        <ele>15.6</ele>
        <time>2024-09-22T08:51:34Z</time>
      </trkpt>
      <trkpt lat="49.10119" lon="-0.00445">
        <ele>15.6</ele>
        <time>2024-09-22T08:51:35Z</time>
      </trkpt>
      <trkpt lat="49.10118" lon="-0.00457">
        <ele>15.6</ele>
        <time>2024-09-22T08:51:36Z</time>
      </trkpt>
      <trkpt lat="49.10116" lon="-0.00469">
        <ele>15.4</ele>
        <time>2024-09-22T08:51:37Z</time>
      </trkpt>
      <trkpt lat="49.10115" lon="-0.00481">
        <ele>15.4</ele>
        <time>2024-09-22T08:51:38Z</time>
      </trkpt>
      <trkpt lat="49.10113" lon="-0.00493">
        <ele>15.4</ele>
        <time>2024-09-22T08:51:39Z</time>
      </trkpt>
      <trkpt lat="49.10112" lon="-0.00504">
        <ele>15.4</ele>
        <time>2024-09-22T08:51:40Z</time>
      </trkpt>
      <trkpt lat="49.10111" lon="-0.00516">
        <ele>15.4</ele>
        <time>2024-09-22T08:51:41Z</time>
      </trkpt>
      <trkpt lat="49.10109" lon="-0.00528">
        <ele>15.4</ele>
        <time>2024-09-22T08:51:42Z</time>
      </trkpt>
      <trkpt lat="49.10108" lon="-0.0054">
        <ele>15.4</ele>
        <time>2024-09-22T08:51:43Z</time>
      </trkpt>
      <trkpt lat="49.10107" lon="-0.00552">
        <ele>15.4</ele>
        <time>2024-09-22T08:51:44Z</time>
      </trkpt>
      <trkpt lat="49.10107" lon="-0.00564">
        <ele>15.4</ele>
        <time>2024-09-22T08:51:45Z</time>
      </trkpt>
      <trkpt lat="49.10108" lon="-0.00576">
        <ele>15.2</ele>
        <time>2024-09-22T08:51:46Z</time>
      </trkpt>
      <trkpt lat="49.1011" lon="-0.00587">
        <ele>15.2</ele>
        <time>2024-09-22T08:51:47Z</time>
      </trkpt>
      <trkpt lat="49.10114" lon="-0.00598">
        <ele>15.2</ele>
        <time>2024-09-22T08:51:48Z</time>
      </trkpt>
      <trkpt lat="49.10119" lon="-0.00608">
        <ele>15.2</ele>
        <time>2024-09-22T08:51:49Z</time>
      </trkpt>
      <trkpt lat="49.10126" lon="-0.00615">
        <ele>15.2</ele>
        <time>2024-09-22T08:51:50Z</time>
      </trkpt>
      <trkpt lat="49.10134" lon="-0.0062">
        <ele>15.2</ele>
        <time>2024-09-22T08:51:51Z</time>
      </trkpt>
      <trkpt lat="49.10142" lon="-0.00625">
        <ele>15</ele>
        <time>2024-09-22T08:51:52Z</time>
      </trkpt>
      <trkpt lat="49.1015" lon="-0.00628">
        <ele>15</ele>
        <time>2024-09-22T08:51:53Z</time>
      </trkpt>
      <trkpt lat="49.10158" lon="-0.0063">
        <ele>15</ele>
        <time>2024-09-22T08:51:54Z</time>
      </trkpt>
      <trkpt lat="49.10166" lon="-0.00632">
        <ele>15</ele>
        <time>2024-09-22T08:51:55Z</time>
      </trkpt>
      <trkpt lat="49.10174" lon="-0.00633">
        <ele>15</ele>
        <time>2024-09-22T08:51:56Z</time>
      </trkpt>
      <trkpt lat="49.10183" lon="-0.00633">
        <ele>15</ele>
        <time>2024-09-22T08:51:57Z</time>
      </trkpt>
      <trkpt lat="49.10191" lon="-0.00634">
        <ele>14.8</ele>
        <time>2024-09-22T08:51:58Z</time>
      </trkpt>
      <trkpt lat="49.10199" lon="-0.00634">
        <ele>14.8</ele>
        <time>2024-09-22T08:51:59Z</time>
      </trkpt>
      <trkpt lat="49.10206" lon="-0.00636">
        <ele>14.8</ele>
        <time>2024-09-22T08:52:00Z</time>
      </trkpt>
      <trkpt lat="49.10214" lon="-0.00638">
        <ele>14.6</ele>
        <time>2024-09-22T08:52:01Z</time>
      </trkpt>
      <trkpt lat="49.10222" lon="-0.0064">
        <ele>14.6</ele>
        <time>2024-09-22T08:52:02Z</time>
      </trkpt>
      <trkpt lat="49.1023" lon="-0.00642">
        <ele>14.4</ele>
        <time>2024-09-22T08:52:03Z</time>
      </trkpt>
      <trkpt lat="49.10237" lon="-0.00644">
        <ele>14.4</ele>
        <time>2024-09-22T08:52:04Z</time>
      </trkpt>
      <trkpt lat="49.10245" lon="-0.00646">
        <ele>14.2</ele>
        <time>2024-09-22T08:52:05Z</time>
      </trkpt>
      <trkpt lat="49.10252" lon="-0.00649">
        <ele>14.2</ele>
        <time>2024-09-22T08:52:06Z</time>
      </trkpt>
      <trkpt lat="49.1026" lon="-0.00652">
        <ele>14.2</ele>
        <time>2024-09-22T08:52:07Z</time>
      </trkpt>
      <trkpt lat="49.10268" lon="-0.00655">
        <ele>14.2</ele>
        <time>2024-09-22T08:52:08Z</time>
      </trkpt>
      <trkpt lat="49.10275" lon="-0.00659">
        <ele>14.2</ele>
        <time>2024-09-22T08:52:09Z</time>
      </trkpt>
      <trkpt lat="49.10283" lon="-0.00662">
        <ele>14.2</ele>
        <time>2024-09-22T08:52:10Z</time>
      </trkpt>
      <trkpt lat="49.1029" lon="-0.00665">
        <ele>14.2</ele>
        <time>2024-09-22T08:52:11Z</time>
      </trkpt>
      <trkpt lat="49.10298" lon="-0.00667">
        <ele>14</ele>
        <time>2024-09-22T08:52:12Z</time>
      </trkpt>
      <trkpt lat="49.10306" lon="-0.00671">
        <ele>14</ele>
        <time>2024-09-22T08:52:13Z</time>
      </trkpt>
      <trkpt lat="49.10313" lon="-0.00674">
        <ele>14</ele>
        <time>2024-09-22T08:52:14Z</time>
      </trkpt>
      <trkpt lat="49.10321" lon="-0.00677">
        <ele>14</ele>
        <time>2024-09-22T08:52:15Z</time>
      </trkpt>
      <trkpt lat="49.10329" lon="-0.0068">
        <ele>14</ele>
        <time>2024-09-22T08:52:16Z</time>
      </trkpt>
      <trkpt lat="49.10336" lon="-0.00683">
        <ele>14</ele>
        <time>2024-09-22T08:52:17Z</time>
      </trkpt>
      <trkpt lat="49.10344" lon="-0.00686">
        <ele>14</ele>
        <time>2024-09-22T08:52:18Z</time>
      </trkpt>
      <trkpt lat="49.10352" lon="-0.00689">
        <ele>14</ele>
        <time>2024-09-22T08:52:19Z</time>
      </trkpt>
      <trkpt lat="49.10359" lon="-0.00691">
        <ele>14</ele>
        <time>2024-09-22T08:52:20Z</time>
      </trkpt>
      <trkpt lat="49.10367" lon="-0.00694">
        <ele>14</ele>
        <time>2024-09-22T08:52:21Z</time>
      </trkpt>
      <trkpt lat="49.10374" lon="-0.00697">
        <ele>14</ele>
        <time>2024-09-22T08:52:22Z</time>
      </trkpt>
      <trkpt lat="49.10382" lon="-0.007">
        <ele>14</ele>
        <time>2024-09-22T08:52:23Z</time>
      </trkpt>
      <trkpt lat="49.10389" lon="-0.00703">
        <ele>14</ele>
        <time>2024-09-22T08:52:24Z</time>
      </trkpt>
      <trkpt lat="49.10397" lon="-0.00706">
        <ele>14</ele>
        <time>2024-09-22T08:52:25Z</time>
      </trkpt>
      <trkpt lat="49.10405" lon="-0.00708">
        <ele>14</ele>
        <time>2024-09-22T08:52:26Z</time>
      </trkpt>
      <trkpt lat="49.10413" lon="-0.00711">
        <ele>14</ele>
        <time>2024-09-22T08:52:27Z</time>
      </trkpt>
      <trkpt lat="49.10421" lon="-0.00714">
        <ele>14</ele>
        <time>2024-09-22T08:52:28Z</time>
      </trkpt>
      <trkpt lat="49.10429" lon="-0.00717">
        <ele>14</ele>
        <time>2024-09-22T08:52:29Z</time>
      </trkpt>
      <trkpt lat="49.10436" lon="-0.0072">
        <ele>14</ele>
        <time>2024-09-22T08:52:30Z</time>
      </trkpt>
      <trkpt lat="49.10444" lon="-0.00722">
        <ele>14</ele>
        <time>2024-09-22T08:52:31Z</time>
      </trkpt>
      <trkpt lat="49.10451" lon="-0.00725">
        <ele>14</ele>
        <time>2024-09-22T08:52:32Z</time>
      </trkpt>
      <trkpt lat="49.10458" lon="-0.00728">
        <ele>14</ele>
        <time>2024-09-22T08:52:33Z</time>
      </trkpt>
      <trkpt lat="49.10466" lon="-0.00731">
        <ele>14</ele>
        <time>2024-09-22T08:52:34Z</time>
      </trkpt>
      <trkpt lat="49.10473" lon="-0.00734">
        <ele>14</ele>
        <time>2024-09-22T08:52:35Z</time>
      </trkpt>
      <trkpt lat="49.10479" lon="-0.00736">
        <ele>14</ele>
        <time>2024-09-22T08:52:36Z</time>
      </trkpt>
      <trkpt lat="49.10488" lon="-0.0074">
        <ele>14</ele>
        <time>2024-09-22T08:52:37Z</time>
      </trkpt>
      <trkpt lat="49.10496" lon="-0.00742">
        <ele>14</ele>
        <time>2024-09-22T08:52:38Z</time>
      </trkpt>
      <trkpt lat="49.10504" lon="-0.00745">
        <ele>14</ele>
        <time>2024-09-22T08:52:39Z</time>
      </trkpt>
      <trkpt lat="49.10512" lon="-0.00747">
        <ele>14</ele>
        <time>2024-09-22T08:52:40Z</time>
      </trkpt>
      <trkpt lat="49.1052" lon="-0.00749">
        <ele>14</ele>
        <time>2024-09-22T08:52:41Z</time>
      </trkpt>
      <trkpt lat="49.10528" lon="-0.0075">
        <ele>14</ele>
        <time>2024-09-22T08:52:42Z</time>
      </trkpt>
      <trkpt lat="49.10537" lon="-0.00751">
        <ele>14</ele>
        <time>2024-09-22T08:52:43Z</time>
      </trkpt>
      <trkpt lat="49.10545" lon="-0.00752">
        <ele>14</ele>
        <time>2024-09-22T08:52:44Z</time>
      </trkpt>
      <trkpt lat="49.10553" lon="-0.00752">
        <ele>14</ele>
        <time>2024-09-22T08:52:45Z</time>
      </trkpt>
      <trkpt lat="49.10561" lon="-0.00751">
        <ele>14</ele>
        <time>2024-09-22T08:52:46Z</time>
      </trkpt>
      <trkpt lat="49.10569" lon="-0.00749">
        <ele>13.8</ele>
        <time>2024-09-22T08:52:47Z</time>
      </trkpt>
      <trkpt lat="49.10576" lon="-0.00746">
        <ele>13.8</ele>
        <time>2024-09-22T08:52:48Z</time>
      </trkpt>
      <trkpt lat="49.10584" lon="-0.00742">
        <ele>13.8</ele>
        <time>2024-09-22T08:52:49Z</time>
      </trkpt>
      <trkpt lat="49.10591" lon="-0.00739">
        <ele>13.8</ele>
        <time>2024-09-22T08:52:50Z</time>
      </trkpt>
      <trkpt lat="49.10599" lon="-0.00734">
        <ele>13.8</ele>
        <time>2024-09-22T08:52:51Z</time>
      </trkpt>
      <trkpt lat="49.10606" lon="-0.00729">
        <ele>13.8</ele>
        <time>2024-09-22T08:52:52Z</time>
      </trkpt>
      <trkpt lat="49.10613" lon="-0.00724">
        <ele>13.8</ele>
        <time>2024-09-22T08:52:53Z</time>
      </trkpt>
      <trkpt lat="49.1062" lon="-0.00718">
        <ele>13.8</ele>
        <time>2024-09-22T08:52:54Z</time>
      </trkpt>
      <trkpt lat="49.10627" lon="-0.00712">
        <ele>13.8</ele>
        <time>2024-09-22T08:52:55Z</time>
      </trkpt>
      <trkpt lat="49.10634" lon="-0.00706">
        <ele>13.8</ele>
        <time>2024-09-22T08:52:56Z</time>
      </trkpt>
      <trkpt lat="49.10641" lon="-0.007">
        <ele>13.8</ele>
        <time>2024-09-22T08:52:57Z</time>
      </trkpt>
      <trkpt lat="49.10647" lon="-0.00696">
        <ele>13.6</ele>
        <time>2024-09-22T08:52:58Z</time>
      </trkpt>
      <trkpt lat="49.10655" lon="-0.00689">
        <ele>13.6</ele>
        <time>2024-09-22T08:52:59Z</time>
      </trkpt>
      <trkpt lat="49.10662" lon="-0.00684">
        <ele>13.6</ele>
        <time>2024-09-22T08:53:00Z</time>
      </trkpt>
      <trkpt lat="49.10669" lon="-0.00681">
        <ele>13.4</ele>
        <time>2024-09-22T08:53:01Z</time>
      </trkpt>
      <trkpt lat="49.10677" lon="-0.00679">
        <ele>13.4</ele>
        <time>2024-09-22T08:53:02Z</time>
      </trkpt>
      <trkpt lat="49.10685" lon="-0.00678">
        <ele>13.4</ele>
        <time>2024-09-22T08:53:03Z</time>
      </trkpt>
      <trkpt lat="49.10694" lon="-0.00679">
        <ele>13.4</ele>
        <time>2024-09-22T08:53:04Z</time>
      </trkpt>
      <trkpt lat="49.10702" lon="-0.00681">
        <ele>13.4</ele>
        <time>2024-09-22T08:53:05Z</time>
      </trkpt>
      <trkpt lat="49.1071" lon="-0.00683">
        <ele>13.4</ele>
        <time>2024-09-22T08:53:06Z</time>
      </trkpt>
      <trkpt lat="49.10718" lon="-0.00686">
        <ele>13.4</ele>
        <time>2024-09-22T08:53:07Z</time>
      </trkpt>
      <trkpt lat="49.10726" lon="-0.00689">
        <ele>13.4</ele>
        <time>2024-09-22T08:53:08Z</time>
      </trkpt>
      <trkpt lat="49.10734" lon="-0.00692">
        <ele>13.4</ele>
        <time>2024-09-22T08:53:09Z</time>
      </trkpt>
      <trkpt lat="49.10742" lon="-0.00695">
        <ele>13.4</ele>
        <time>2024-09-22T08:53:10Z</time>
      </trkpt>
      <trkpt lat="49.1075" lon="-0.00699">
        <ele>13.4</ele>
        <time>2024-09-22T08:53:11Z</time>
      </trkpt>
      <trkpt lat="49.10758" lon="-0.00702">
        <ele>13.4</ele>
        <time>2024-09-22T08:53:12Z</time>
      </trkpt>
      <trkpt lat="49.10766" lon="-0.00705">
        <ele>13.4</ele>
        <time>2024-09-22T08:53:13Z</time>
      </trkpt>
      <trkpt lat="49.10774" lon="-0.00708">
        <ele>13.4</ele>
        <time>2024-09-22T08:53:14Z</time>
      </trkpt>
      <trkpt lat="49.10782" lon="-0.0071">
        <ele>13.4</ele>
        <time>2024-09-22T08:53:15Z</time>
      </trkpt>
      <trkpt lat="49.10791" lon="-0.00713">
        <ele>13.6</ele>
        <time>2024-09-22T08:53:16Z</time>
      </trkpt>
      <trkpt lat="49.10799" lon="-0.00716">
        <ele>13.6</ele>
        <time>2024-09-22T08:53:17Z</time>
      </trkpt>
      <trkpt lat="49.10807" lon="-0.00719">
        <ele>13.6</ele>
        <time>2024-09-22T08:53:18Z</time>
      </trkpt>
      <trkpt lat="49.10815" lon="-0.00723">
        <ele>13.6</ele>
        <time>2024-09-22T08:53:19Z</time>
      </trkpt>
      <trkpt lat="49.10824" lon="-0.00728">
        <ele>13.6</ele>
        <time>2024-09-22T08:53:20Z</time>
      </trkpt>
      <trkpt lat="49.10832" lon="-0.00732">
        <ele>13.4</ele>
        <time>2024-09-22T08:53:21Z</time>
      </trkpt>
      <trkpt lat="49.1084" lon="-0.00736">
        <ele>13.4</ele>
        <time>2024-09-22T08:53:22Z</time>
      </trkpt>
      <trkpt lat="49.10848" lon="-0.0074">
        <ele>13.4</ele>
        <time>2024-09-22T08:53:23Z</time>
      </trkpt>
      <trkpt lat="49.10856" lon="-0.00745">
        <ele>13.4</ele>
        <time>2024-09-22T08:53:24Z</time>
      </trkpt>
      <trkpt lat="49.10864" lon="-0.00749">
        <ele>13.4</ele>
        <time>2024-09-22T08:53:25Z</time>
      </trkpt>
      <trkpt lat="49.10872" lon="-0.00753">
        <ele>13.4</ele>
        <time>2024-09-22T08:53:26Z</time>
      </trkpt>
      <trkpt lat="49.1088" lon="-0.00757">
        <ele>13.4</ele>
        <time>2024-09-22T08:53:27Z</time>
      </trkpt>
      <trkpt lat="49.10888" lon="-0.00761">
        <ele>13.4</ele>
        <time>2024-09-22T08:53:28Z</time>
      </trkpt>
      <trkpt lat="49.10896" lon="-0.00765">
        <ele>13.2</ele>
        <time>2024-09-22T08:53:29Z</time>
      </trkpt>
      <trkpt lat="49.10904" lon="-0.0077">
        <ele>13.2</ele>
        <time>2024-09-22T08:53:30Z</time>
      </trkpt>
      <trkpt lat="49.10912" lon="-0.00775">
        <ele>13.2</ele>
        <time>2024-09-22T08:53:31Z</time>
      </trkpt>
      <trkpt lat="49.10918" lon="-0.00778">
        <ele>13.2</ele>
        <time>2024-09-22T08:53:32Z</time>
      </trkpt>
      <trkpt lat="49.10927" lon="-0.00784">
        <ele>13.2</ele>
        <time>2024-09-22T08:53:33Z</time>
      </trkpt>
      <trkpt lat="49.10935" lon="-0.00789">
        <ele>13.2</ele>
        <time>2024-09-22T08:53:34Z</time>
      </trkpt>
      <trkpt lat="49.10942" lon="-0.00796">
        <ele>13</ele>
        <time>2024-09-22T08:53:35Z</time>
      </trkpt>
      <trkpt lat="49.10949" lon="-0.00802">
        <ele>13</ele>
        <time>2024-09-22T08:53:36Z</time>
      </trkpt>
      <trkpt lat="49.10956" lon="-0.00809">
        <ele>13</ele>
        <time>2024-09-22T08:53:37Z</time>
      </trkpt>
      <trkpt lat="49.10963" lon="-0.00817">
        <ele>13</ele>
        <time>2024-09-22T08:53:38Z</time>
      </trkpt>
      <trkpt lat="49.10969" lon="-0.00824">
        <ele>13</ele>
        <time>2024-09-22T08:53:39Z</time>
      </trkpt>
      <trkpt lat="49.10975" lon="-0.00829">
        <ele>13</ele>
        <time>2024-09-22T08:53:40Z</time>
      </trkpt>
      <trkpt lat="49.10981" lon="-0.00836">
        <ele>13</ele>
        <time>2024-09-22T08:53:41Z</time>
      </trkpt>
      <trkpt lat="49.10989" lon="-0.00844">
        <ele>13</ele>
        <time>2024-09-22T08:53:42Z</time>
      </trkpt>
      <trkpt lat="49.10995" lon="-0.0085">
        <ele>13</ele>
        <time>2024-09-22T08:53:43Z</time>
      </trkpt>
      <trkpt lat="49.11001" lon="-0.00856">
        <ele>13</ele>
        <time>2024-09-22T08:53:44Z</time>
      </trkpt>
      <trkpt lat="49.11007" lon="-0.00863">
        <ele>13</ele>
        <time>2024-09-22T08:53:45Z</time>
      </trkpt>
      <trkpt lat="49.11012" lon="-0.00869">
        <ele>13.2</ele>
        <time>2024-09-22T08:53:46Z</time>
      </trkpt>
      <trkpt lat="49.11017" lon="-0.00873">
        <ele>13.2</ele>
        <time>2024-09-22T08:53:47Z</time>
      </trkpt>
      <trkpt lat="49.11021" lon="-0.00877">
        <ele>13.2</ele>
        <time>2024-09-22T08:53:48Z</time>
      </trkpt>
      <trkpt lat="49.11023" lon="-0.00881">
        <ele>13.4</ele>
        <time>2024-09-22T08:53:49Z</time>
      </trkpt>
      <trkpt lat="49.11025" lon="-0.00885">
        <ele>13.6</ele>
        <time>2024-09-22T08:53:50Z</time>
      </trkpt>
      <trkpt lat="49.11025" lon="-0.00891">
        <ele>13.6</ele>
        <time>2024-09-22T08:53:51Z</time>
      </trkpt>
      <trkpt lat="49.11025" lon="-0.00897">
        <ele>13.8</ele>
        <time>2024-09-22T08:53:52Z</time>
      </trkpt>
      <trkpt lat="49.11024" lon="-0.00904">
        <ele>13.8</ele>
        <time>2024-09-22T08:53:53Z</time>
      </trkpt>
      <trkpt lat="49.11022" lon="-0.00912">
        <ele>14</ele>
        <time>2024-09-22T08:53:54Z</time>
      </trkpt>
      <trkpt lat="49.11021" lon="-0.0092">
        <ele>14.2</ele>
        <time>2024-09-22T08:53:55Z</time>
      </trkpt>
      <trkpt lat="49.1102" lon="-0.00927">
        <ele>14.2</ele>
        <time>2024-09-22T08:53:56Z</time>
      </trkpt>
      <trkpt lat="49.11018" lon="-0.00937">
        <ele>14.2</ele>
        <time>2024-09-22T08:53:57Z</time>
      </trkpt>
      <trkpt lat="49.11016" lon="-0.00946">
        <ele>14.2</ele>
        <time>2024-09-22T08:53:58Z</time>
      </trkpt>
      <trkpt lat="49.11015" lon="-0.00955">
        <ele>14.2</ele>
        <time>2024-09-22T08:53:59Z</time>
      </trkpt>
      <trkpt lat="49.11013" lon="-0.00964">
        <ele>14.4</ele>
        <time>2024-09-22T08:54:00Z</time>
      </trkpt>
      <trkpt lat="49.11012" lon="-0.00974">
        <ele>14.8</ele>
        <time>2024-09-22T08:54:01Z</time>
      </trkpt>
      <trkpt lat="49.11011" lon="-0.00982">
        <ele>14.6</ele>
        <time>2024-09-22T08:54:02Z</time>
      </trkpt>
      <trkpt lat="49.1101" lon="-0.00994">
        <ele>14.8</ele>
        <time>2024-09-22T08:54:03Z</time>
      </trkpt>
      <trkpt lat="49.11009" lon="-0.01004">
        <ele>14.8</ele>
        <time>2024-09-22T08:54:04Z</time>
      </trkpt>
      <trkpt lat="49.11008" lon="-0.01014">
        <ele>15</ele>
        <time>2024-09-22T08:54:05Z</time>
      </trkpt>
      <trkpt lat="49.11007" lon="-0.01025">
        <ele>15</ele>
        <time>2024-09-22T08:54:06Z</time>
      </trkpt>
      <trkpt lat="49.11006" lon="-0.01036">
        <ele>14.6</ele>
        <time>2024-09-22T08:54:07Z</time>
      </trkpt>
      <trkpt lat="49.11005" lon="-0.01047">
        <ele>14.6</ele>
        <time>2024-09-22T08:54:08Z</time>
      </trkpt>
      <trkpt lat="49.11004" lon="-0.01058">
        <ele>14.6</ele>
        <time>2024-09-22T08:54:09Z</time>
      </trkpt>
      <trkpt lat="49.11003" lon="-0.01069">
        <ele>14.4</ele>
        <time>2024-09-22T08:54:10Z</time>
      </trkpt>
      <trkpt lat="49.11003" lon="-0.0108">
        <ele>14.4</ele>
        <time>2024-09-22T08:54:11Z</time>
      </trkpt>
      <trkpt lat="49.11003" lon="-0.01092">
        <ele>14.6</ele>
        <time>2024-09-22T08:54:12Z</time>
      </trkpt>
      <trkpt lat="49.11002" lon="-0.01103">
        <ele>14.6</ele>
        <time>2024-09-22T08:54:13Z</time>
      </trkpt>
      <trkpt lat="49.11002" lon="-0.01115">
        <ele>14.4</ele>
        <time>2024-09-22T08:54:14Z</time>
      </trkpt>
      <trkpt lat="49.11001" lon="-0.01127">
        <ele>14.6</ele>
        <time>2024-09-22T08:54:15Z</time>
      </trkpt>
      <trkpt lat="49.11001" lon="-0.01138">
        <ele>14.6</ele>
        <time>2024-09-22T08:54:16Z</time>
      </trkpt>
      <trkpt lat="49.11" lon="-0.0115">
        <ele>14.6</ele>
        <time>2024-09-22T08:54:17Z</time>
      </trkpt>
      <trkpt lat="49.10999" lon="-0.01162">
        <ele>14.6</ele>
        <time>2024-09-22T08:54:18Z</time>
      </trkpt>
      <trkpt lat="49.10999" lon="-0.01174">
        <ele>14.4</ele>
        <time>2024-09-22T08:54:19Z</time>
      </trkpt>
      <trkpt lat="49.10999" lon="-0.01186">
        <ele>14.4</ele>
        <time>2024-09-22T08:54:20Z</time>
      </trkpt>
      <trkpt lat="49.10999" lon="-0.01198">
        <ele>14.4</ele>
        <time>2024-09-22T08:54:21Z</time>
      </trkpt>
      <trkpt lat="49.10998" lon="-0.0121">
        <ele>14.4</ele>
        <time>2024-09-22T08:54:22Z</time>
      </trkpt>
      <trkpt lat="49.10998" lon="-0.0122">
        <ele>14.4</ele>
        <time>2024-09-22T08:54:23Z</time>
      </trkpt>
      <trkpt lat="49.10997" lon="-0.01232">
        <ele>14.2</ele>
        <time>2024-09-22T08:54:24Z</time>
      </trkpt>
      <trkpt lat="49.10997" lon="-0.01246">
        <ele>14.2</ele>
        <time>2024-09-22T08:54:25Z</time>
      </trkpt>
      <trkpt lat="49.10996" lon="-0.01258">
        <ele>14.2</ele>
        <time>2024-09-22T08:54:26Z</time>
      </trkpt>
      <trkpt lat="49.10996" lon="-0.0127">
        <ele>14.2</ele>
        <time>2024-09-22T08:54:27Z</time>
      </trkpt>
      <trkpt lat="49.10995" lon="-0.01282">
        <ele>14.2</ele>
        <time>2024-09-22T08:54:28Z</time>
      </trkpt>
      <trkpt lat="49.10995" lon="-0.01292">
        <ele>14.2</ele>
        <time>2024-09-22T08:54:29Z</time>
      </trkpt>
      <trkpt lat="49.10994" lon="-0.01306">
        <ele>14</ele>
        <time>2024-09-22T08:54:30Z</time>
      </trkpt>
      <trkpt lat="49.10994" lon="-0.01319">
        <ele>14</ele>
        <time>2024-09-22T08:54:31Z</time>
      </trkpt>
      <trkpt lat="49.10993" lon="-0.01328">
        <ele>14</ele>
        <time>2024-09-22T08:54:32Z</time>
      </trkpt>
      <trkpt lat="49.10993" lon="-0.01342">
        <ele>14</ele>
        <time>2024-09-22T08:54:33Z</time>
      </trkpt>
      <trkpt lat="49.10992" lon="-0.01352">
        <ele>14</ele>
        <time>2024-09-22T08:54:34Z</time>
      </trkpt>
      <trkpt lat="49.10992" lon="-0.01364">
        <ele>14</ele>
        <time>2024-09-22T08:54:35Z</time>
      </trkpt>
      <trkpt lat="49.10991" lon="-0.01378">
        <ele>13.8</ele>
        <time>2024-09-22T08:54:36Z</time>
      </trkpt>
      <trkpt lat="49.10991" lon="-0.0139">
        <ele>13.8</ele>
        <time>2024-09-22T08:54:37Z</time>
      </trkpt>
      <trkpt lat="49.10991" lon="-0.014">
        <ele>13.8</ele>
        <time>2024-09-22T08:54:38Z</time>
      </trkpt>
      <trkpt lat="49.10991" lon="-0.01414">
        <ele>13.8</ele>
        <time>2024-09-22T08:54:39Z</time>
      </trkpt>
      <trkpt lat="49.1099" lon="-0.01426">
        <ele>13.8</ele>
        <time>2024-09-22T08:54:40Z</time>
      </trkpt>
      <trkpt lat="49.1099" lon="-0.01436">
        <ele>13.8</ele>
        <time>2024-09-22T08:54:41Z</time>
      </trkpt>
      <trkpt lat="49.10989" lon="-0.01451">
        <ele>13.8</ele>
        <time>2024-09-22T08:54:42Z</time>
      </trkpt>
      <trkpt lat="49.10989" lon="-0.01463">
        <ele>13.8</ele>
        <time>2024-09-22T08:54:43Z</time>
      </trkpt>
      <trkpt lat="49.10988" lon="-0.01474">
        <ele>13.8</ele>
        <time>2024-09-22T08:54:44Z</time>
      </trkpt>
      <trkpt lat="49.10987" lon="-0.01486">
        <ele>13.8</ele>
        <time>2024-09-22T08:54:45Z</time>
      </trkpt>
      <trkpt lat="49.10987" lon="-0.01498">
        <ele>13.6</ele>
        <time>2024-09-22T08:54:46Z</time>
      </trkpt>
      <trkpt lat="49.10986" lon="-0.0151">
        <ele>13.6</ele>
        <time>2024-09-22T08:54:47Z</time>
      </trkpt>
      <trkpt lat="49.10986" lon="-0.01522">
        <ele>13.6</ele>
        <time>2024-09-22T08:54:48Z</time>
      </trkpt>
      <trkpt lat="49.10986" lon="-0.01533">
        <ele>13.6</ele>
        <time>2024-09-22T08:54:49Z</time>
      </trkpt>
      <trkpt lat="49.10985" lon="-0.01545">
        <ele>13.6</ele>
        <time>2024-09-22T08:54:50Z</time>
      </trkpt>
      <trkpt lat="49.10985" lon="-0.01557">
        <ele>13.6</ele>
        <time>2024-09-22T08:54:51Z</time>
      </trkpt>
      <trkpt lat="49.10984" lon="-0.01568">
        <ele>13.6</ele>
        <time>2024-09-22T08:54:52Z</time>
      </trkpt>
      <trkpt lat="49.10984" lon="-0.0158">
        <ele>13.6</ele>
        <time>2024-09-22T08:54:53Z</time>
      </trkpt>
      <trkpt lat="49.10983" lon="-0.01592">
        <ele>13.6</ele>
        <time>2024-09-22T08:54:54Z</time>
      </trkpt>
      <trkpt lat="49.10983" lon="-0.01603">
        <ele>13.6</ele>
        <time>2024-09-22T08:54:55Z</time>
      </trkpt>
      <trkpt lat="49.10983" lon="-0.01615">
        <ele>13.6</ele>
        <time>2024-09-22T08:54:56Z</time>
      </trkpt>
      <trkpt lat="49.10982" lon="-0.01627">
        <ele>13.6</ele>
        <time>2024-09-22T08:54:57Z</time>
      </trkpt>
      <trkpt lat="49.10982" lon="-0.01638">
        <ele>13.6</ele>
        <time>2024-09-22T08:54:58Z</time>
      </trkpt>
      <trkpt lat="49.10982" lon="-0.0165">
        <ele>13.6</ele>
        <time>2024-09-22T08:54:59Z</time>
      </trkpt>
      <trkpt lat="49.10981" lon="-0.01662">
        <ele>13.6</ele>
        <time>2024-09-22T08:55:00Z</time>
      </trkpt>
      <trkpt lat="49.10981" lon="-0.01674">
        <ele>13.6</ele>
        <time>2024-09-22T08:55:01Z</time>
      </trkpt>
      <trkpt lat="49.1098" lon="-0.01686">
        <ele>13.6</ele>
        <time>2024-09-22T08:55:02Z</time>
      </trkpt>
      <trkpt lat="49.1098" lon="-0.01697">
        <ele>13.6</ele>
        <time>2024-09-22T08:55:03Z</time>
      </trkpt>
      <trkpt lat="49.10979" lon="-0.01709">
        <ele>13.6</ele>
        <time>2024-09-22T08:55:04Z</time>
      </trkpt>
      <trkpt lat="49.10979" lon="-0.01721">
        <ele>13.6</ele>
        <time>2024-09-22T08:55:05Z</time>
      </trkpt>
      <trkpt lat="49.10978" lon="-0.01731">
        <ele>13.6</ele>
        <time>2024-09-22T08:55:06Z</time>
      </trkpt>
      <trkpt lat="49.10978" lon="-0.01743">
        <ele>13.6</ele>
        <time>2024-09-22T08:55:07Z</time>
      </trkpt>
      <trkpt lat="49.10977" lon="-0.01755">
        <ele>13.6</ele>
        <time>2024-09-22T08:55:08Z</time>
      </trkpt>
      <trkpt lat="49.10977" lon="-0.0177">
        <ele>13.6</ele>
        <time>2024-09-22T08:55:09Z</time>
      </trkpt>
      <trkpt lat="49.10976" lon="-0.01782">
        <ele>13.6</ele>
        <time>2024-09-22T08:55:10Z</time>
      </trkpt>
      <trkpt lat="49.10976" lon="-0.01794">
        <ele>13.6</ele>
        <time>2024-09-22T08:55:11Z</time>
      </trkpt>
      <trkpt lat="49.10975" lon="-0.01807">
        <ele>13.8</ele>
        <time>2024-09-22T08:55:12Z</time>
      </trkpt>
      <trkpt lat="49.10975" lon="-0.01819">
        <ele>13.8</ele>
        <time>2024-09-22T08:55:13Z</time>
      </trkpt>
      <trkpt lat="49.10975" lon="-0.01832">
        <ele>13.8</ele>
        <time>2024-09-22T08:55:14Z</time>
      </trkpt>
      <trkpt lat="49.10974" lon="-0.01844">
        <ele>13.6</ele>
        <time>2024-09-22T08:55:15Z</time>
      </trkpt>
      <trkpt lat="49.10974" lon="-0.01856">
        <ele>13.6</ele>
        <time>2024-09-22T08:55:16Z</time>
      </trkpt>
      <trkpt lat="49.10974" lon="-0.01868">
        <ele>13.6</ele>
        <time>2024-09-22T08:55:17Z</time>
      </trkpt>
      <trkpt lat="49.10973" lon="-0.0188">
        <ele>13.6</ele>
        <time>2024-09-22T08:55:18Z</time>
      </trkpt>
      <trkpt lat="49.10973" lon="-0.01892">
        <ele>13.6</ele>
        <time>2024-09-22T08:55:19Z</time>
      </trkpt>
      <trkpt lat="49.10972" lon="-0.01904">
        <ele>13.6</ele>
        <time>2024-09-22T08:55:20Z</time>
      </trkpt>
      <trkpt lat="49.10972" lon="-0.01916">
        <ele>13.6</ele>
        <time>2024-09-22T08:55:21Z</time>
      </trkpt>
      <trkpt lat="49.10971" lon="-0.01928">
        <ele>13.6</ele>
        <time>2024-09-22T08:55:22Z</time>
      </trkpt>
      <trkpt lat="49.10971" lon="-0.01939">
        <ele>13.6</ele>
        <time>2024-09-22T08:55:23Z</time>
      </trkpt>
      <trkpt lat="49.10972" lon="-0.01951">
        <ele>13.6</ele>
        <time>2024-09-22T08:55:24Z</time>
      </trkpt>
      <trkpt lat="49.10972" lon="-0.01963">
        <ele>13.6</ele>
        <time>2024-09-22T08:55:25Z</time>
      </trkpt>
      <trkpt lat="49.10973" lon="-0.01975">
        <ele>13.6</ele>
        <time>2024-09-22T08:55:26Z</time>
      </trkpt>
      <trkpt lat="49.10974" lon="-0.01987">
        <ele>13.6</ele>
        <time>2024-09-22T08:55:27Z</time>
      </trkpt>
      <trkpt lat="49.10975" lon="-0.01999">
        <ele>13.6</ele>
        <time>2024-09-22T08:55:28Z</time>
      </trkpt>
      <trkpt lat="49.10976" lon="-0.02012">
        <ele>13.4</ele>
        <time>2024-09-22T08:55:29Z</time>
      </trkpt>
      <trkpt lat="49.10977" lon="-0.02024">
        <ele>13.4</ele>
        <time>2024-09-22T08:55:30Z</time>
      </trkpt>
      <trkpt lat="49.10978" lon="-0.02036">
        <ele>13.4</ele>
        <time>2024-09-22T08:55:31Z</time>
      </trkpt>
      <trkpt lat="49.10979" lon="-0.02048">
        <ele>13.2</ele>
        <time>2024-09-22T08:55:32Z</time>
      </trkpt>
      <trkpt lat="49.1098" lon="-0.0206">
        <ele>13.2</ele>
        <time>2024-09-22T08:55:33Z</time>
      </trkpt>
      <trkpt lat="49.10981" lon="-0.02072">
        <ele>13.2</ele>
        <time>2024-09-22T08:55:34Z</time>
      </trkpt>
      <trkpt lat="49.10982" lon="-0.02085">
        <ele>13.2</ele>
        <time>2024-09-22T08:55:35Z</time>
      </trkpt>
      <trkpt lat="49.10983" lon="-0.02097">
        <ele>13</ele>
        <time>2024-09-22T08:55:36Z</time>
      </trkpt>
      <trkpt lat="49.10985" lon="-0.02108">
        <ele>13</ele>
        <time>2024-09-22T08:55:37Z</time>
      </trkpt>
      <trkpt lat="49.10987" lon="-0.0212">
        <ele>12.8</ele>
        <time>2024-09-22T08:55:38Z</time>
      </trkpt>
      <trkpt lat="49.1099" lon="-0.02131">
        <ele>12.8</ele>
        <time>2024-09-22T08:55:39Z</time>
      </trkpt>
      <trkpt lat="49.10992" lon="-0.0214">
        <ele>12.8</ele>
        <time>2024-09-22T08:55:40Z</time>
      </trkpt>
      <trkpt lat="49.10995" lon="-0.02153">
        <ele>12.6</ele>
        <time>2024-09-22T08:55:41Z</time>
      </trkpt>
      <trkpt lat="49.10998" lon="-0.02164">
        <ele>12.4</ele>
        <time>2024-09-22T08:55:42Z</time>
      </trkpt>
      <trkpt lat="49.11002" lon="-0.02175">
        <ele>12.6</ele>
        <time>2024-09-22T08:55:43Z</time>
      </trkpt>
      <trkpt lat="49.11006" lon="-0.02186">
        <ele>12.4</ele>
        <time>2024-09-22T08:55:44Z</time>
      </trkpt>
      <trkpt lat="49.1101" lon="-0.02196">
        <ele>12.4</ele>
        <time>2024-09-22T08:55:45Z</time>
      </trkpt>
      <trkpt lat="49.11015" lon="-0.02206">
        <ele>12.4</ele>
        <time>2024-09-22T08:55:46Z</time>
      </trkpt>
      <trkpt lat="49.1102" lon="-0.02216">
        <ele>12.4</ele>
        <time>2024-09-22T08:55:47Z</time>
      </trkpt>
      <trkpt lat="49.11025" lon="-0.02226">
        <ele>12.4</ele>
        <time>2024-09-22T08:55:48Z</time>
      </trkpt>
      <trkpt lat="49.11028" lon="-0.02234">
        <ele>12.4</ele>
        <time>2024-09-22T08:55:49Z</time>
      </trkpt>
      <trkpt lat="49.11033" lon="-0.02243">
        <ele>12.2</ele>
        <time>2024-09-22T08:55:50Z</time>
      </trkpt>
      <trkpt lat="49.11039" lon="-0.02255">
        <ele>12.2</ele>
        <time>2024-09-22T08:55:51Z</time>
      </trkpt>
      <trkpt lat="49.11043" lon="-0.02264">
        <ele>12.2</ele>
        <time>2024-09-22T08:55:52Z</time>
      </trkpt>
      <trkpt lat="49.11048" lon="-0.02274">
        <ele>12</ele>
        <time>2024-09-22T08:55:53Z</time>
      </trkpt>
      <trkpt lat="49.11053" lon="-0.02284">
        <ele>12</ele>
        <time>2024-09-22T08:55:54Z</time>
      </trkpt>
      <trkpt lat="49.11057" lon="-0.02294">
        <ele>12</ele>
        <time>2024-09-22T08:55:55Z</time>
      </trkpt>
      <trkpt lat="49.11062" lon="-0.02304">
        <ele>12</ele>
        <time>2024-09-22T08:55:56Z</time>
      </trkpt>
      <trkpt lat="49.11066" lon="-0.02313">
        <ele>12</ele>
        <time>2024-09-22T08:55:57Z</time>
      </trkpt>
      <trkpt lat="49.11071" lon="-0.02323">
        <ele>12</ele>
        <time>2024-09-22T08:55:58Z</time>
      </trkpt>
      <trkpt lat="49.11076" lon="-0.02333">
        <ele>12</ele>
        <time>2024-09-22T08:55:59Z</time>
      </trkpt>
      <trkpt lat="49.11081" lon="-0.02343">
        <ele>12</ele>
        <time>2024-09-22T08:56:00Z</time>
      </trkpt>
      <trkpt lat="49.11085" lon="-0.02352">
        <ele>12</ele>
        <time>2024-09-22T08:56:01Z</time>
      </trkpt>
      <trkpt lat="49.1109" lon="-0.02362">
        <ele>12</ele>
        <time>2024-09-22T08:56:02Z</time>
      </trkpt>
      <trkpt lat="49.11094" lon="-0.02372">
        <ele>12</ele>
        <time>2024-09-22T08:56:03Z</time>
      </trkpt>
      <trkpt lat="49.11099" lon="-0.02382">
        <ele>12</ele>
        <time>2024-09-22T08:56:04Z</time>
      </trkpt>
      <trkpt lat="49.11104" lon="-0.02391">
        <ele>12</ele>
        <time>2024-09-22T08:56:05Z</time>
      </trkpt>
      <trkpt lat="49.11108" lon="-0.02401">
        <ele>12</ele>
        <time>2024-09-22T08:56:06Z</time>
      </trkpt>
      <trkpt lat="49.11113" lon="-0.02411">
        <ele>12</ele>
        <time>2024-09-22T08:56:07Z</time>
      </trkpt>
      <trkpt lat="49.11118" lon="-0.02422">
        <ele>12</ele>
        <time>2024-09-22T08:56:08Z</time>
      </trkpt>
      <trkpt lat="49.11122" lon="-0.02432">
        <ele>12</ele>
        <time>2024-09-22T08:56:09Z</time>
      </trkpt>
      <trkpt lat="49.11126" lon="-0.02441">
        <ele>12</ele>
        <time>2024-09-22T08:56:10Z</time>
      </trkpt>
      <trkpt lat="49.11131" lon="-0.02451">
        <ele>11.8</ele>
        <time>2024-09-22T08:56:11Z</time>
      </trkpt>
      <trkpt lat="49.11136" lon="-0.02461">
        <ele>11.8</ele>
        <time>2024-09-22T08:56:12Z</time>
      </trkpt>
      <trkpt lat="49.11141" lon="-0.02471">
        <ele>11.8</ele>
        <time>2024-09-22T08:56:13Z</time>
      </trkpt>
      <trkpt lat="49.11145" lon="-0.02481">
        <ele>11.8</ele>
        <time>2024-09-22T08:56:14Z</time>
      </trkpt>
      <trkpt lat="49.1115" lon="-0.0249">
        <ele>11.8</ele>
        <time>2024-09-22T08:56:15Z</time>
      </trkpt>
      <trkpt lat="49.11154" lon="-0.025">
        <ele>11.8</ele>
        <time>2024-09-22T08:56:16Z</time>
      </trkpt>
      <trkpt lat="49.11158" lon="-0.0251">
        <ele>11.8</ele>
        <time>2024-09-22T08:56:17Z</time>
      </trkpt>
      <trkpt lat="49.11163" lon="-0.0252">
        <ele>11.8</ele>
        <time>2024-09-22T08:56:18Z</time>
      </trkpt>
      <trkpt lat="49.11167" lon="-0.02529">
        <ele>11.6</ele>
        <time>2024-09-22T08:56:19Z</time>
      </trkpt>
      <trkpt lat="49.11172" lon="-0.02539">
        <ele>11.6</ele>
        <time>2024-09-22T08:56:20Z</time>
      </trkpt>
      <trkpt lat="49.11176" lon="-0.02548">
        <ele>11.6</ele>
        <time>2024-09-22T08:56:21Z</time>
      </trkpt>
      <trkpt lat="49.11181" lon="-0.02558">
        <ele>11.6</ele>
        <time>2024-09-22T08:56:22Z</time>
      </trkpt>
      <trkpt lat="49.11185" lon="-0.02567">
        <ele>11.6</ele>
        <time>2024-09-22T08:56:23Z</time>
      </trkpt>
      <trkpt lat="49.1119" lon="-0.02577">
        <ele>11.6</ele>
        <time>2024-09-22T08:56:24Z</time>
      </trkpt>
      <trkpt lat="49.11195" lon="-0.02587">
        <ele>11.6</ele>
        <time>2024-09-22T08:56:25Z</time>
      </trkpt>
      <trkpt lat="49.11199" lon="-0.02597">
        <ele>11.8</ele>
        <time>2024-09-22T08:56:26Z</time>
      </trkpt>
      <trkpt lat="49.11203" lon="-0.02606">
        <ele>11.8</ele>
        <time>2024-09-22T08:56:27Z</time>
      </trkpt>
      <trkpt lat="49.11208" lon="-0.02615">
        <ele>11.8</ele>
        <time>2024-09-22T08:56:28Z</time>
      </trkpt>
      <trkpt lat="49.11212" lon="-0.02625">
        <ele>11.8</ele>
        <time>2024-09-22T08:56:29Z</time>
      </trkpt>
      <trkpt lat="49.11216" lon="-0.02633">
        <ele>11.8</ele>
        <time>2024-09-22T08:56:30Z</time>
      </trkpt>
      <trkpt lat="49.11221" lon="-0.02645">
        <ele>11.8</ele>
        <time>2024-09-22T08:56:31Z</time>
      </trkpt>
      <trkpt lat="49.11225" lon="-0.02653">
        <ele>11.8</ele>
        <time>2024-09-22T08:56:32Z</time>
      </trkpt>
      <trkpt lat="49.1123" lon="-0.02663">
        <ele>11.8</ele>
        <time>2024-09-22T08:56:33Z</time>
      </trkpt>
      <trkpt lat="49.11234" lon="-0.02673">
        <ele>11.6</ele>
        <time>2024-09-22T08:56:34Z</time>
      </trkpt>
      <trkpt lat="49.1124" lon="-0.02685">
        <ele>11.6</ele>
        <time>2024-09-22T08:56:35Z</time>
      </trkpt>
      <trkpt lat="49.11245" lon="-0.02696">
        <ele>11.6</ele>
        <time>2024-09-22T08:56:36Z</time>
      </trkpt>
      <trkpt lat="49.1125" lon="-0.02706">
        <ele>11.6</ele>
        <time>2024-09-22T08:56:37Z</time>
      </trkpt>
      <trkpt lat="49.11255" lon="-0.02716">
        <ele>11.6</ele>
        <time>2024-09-22T08:56:38Z</time>
      </trkpt>
      <trkpt lat="49.11259" lon="-0.02727">
        <ele>11.6</ele>
        <time>2024-09-22T08:56:39Z</time>
      </trkpt>
      <trkpt lat="49.11264" lon="-0.02737">
        <ele>11.6</ele>
        <time>2024-09-22T08:56:40Z</time>
      </trkpt>
      <trkpt lat="49.11269" lon="-0.02747">
        <ele>11.6</ele>
        <time>2024-09-22T08:56:41Z</time>
      </trkpt>
      <trkpt lat="49.11274" lon="-0.02758">
        <ele>11.6</ele>
        <time>2024-09-22T08:56:42Z</time>
      </trkpt>
      <trkpt lat="49.11279" lon="-0.02768">
        <ele>11.6</ele>
        <time>2024-09-22T08:56:43Z</time>
      </trkpt>
      <trkpt lat="49.11284" lon="-0.02779">
        <ele>11.6</ele>
        <time>2024-09-22T08:56:44Z</time>
      </trkpt>
      <trkpt lat="49.11288" lon="-0.02789">
        <ele>11.6</ele>
        <time>2024-09-22T08:56:45Z</time>
      </trkpt>
      <trkpt lat="49.11293" lon="-0.02799">
        <ele>11.6</ele>
        <time>2024-09-22T08:56:46Z</time>
      </trkpt>
      <trkpt lat="49.11298" lon="-0.0281">
        <ele>11.6</ele>
        <time>2024-09-22T08:56:47Z</time>
      </trkpt>
      <trkpt lat="49.11302" lon="-0.0282">
        <ele>11.6</ele>
        <time>2024-09-22T08:56:48Z</time>
      </trkpt>
      <trkpt lat="49.11307" lon="-0.0283">
        <ele>11.6</ele>
        <time>2024-09-22T08:56:49Z</time>
      </trkpt>
      <trkpt lat="49.11311" lon="-0.02839">
        <ele>11.6</ele>
        <time>2024-09-22T08:56:50Z</time>
      </trkpt>
      <trkpt lat="49.11316" lon="-0.02849">
        <ele>11.6</ele>
        <time>2024-09-22T08:56:51Z</time>
      </trkpt>
      <trkpt lat="49.1132" lon="-0.02859">
        <ele>11.6</ele>
        <time>2024-09-22T08:56:52Z</time>
      </trkpt>
      <trkpt lat="49.11324" lon="-0.02869">
        <ele>11.6</ele>
        <time>2024-09-22T08:56:53Z</time>
      </trkpt>
      <trkpt lat="49.11328" lon="-0.02877">
        <ele>11.6</ele>
        <time>2024-09-22T08:56:54Z</time>
      </trkpt>
      <trkpt lat="49.11333" lon="-0.0289">
        <ele>11.6</ele>
        <time>2024-09-22T08:56:55Z</time>
      </trkpt>
      <trkpt lat="49.11338" lon="-0.02899">
        <ele>11.6</ele>
        <time>2024-09-22T08:56:56Z</time>
      </trkpt>
      <trkpt lat="49.11342" lon="-0.02909">
        <ele>11.8</ele>
        <time>2024-09-22T08:56:57Z</time>
      </trkpt>
      <trkpt lat="49.11347" lon="-0.02919">
        <ele>11.8</ele>
        <time>2024-09-22T08:56:58Z</time>
      </trkpt>
      <trkpt lat="49.11352" lon="-0.02929">
        <ele>11.8</ele>
        <time>2024-09-22T08:56:59Z</time>
      </trkpt>
      <trkpt lat="49.11357" lon="-0.0294">
        <ele>12</ele>
        <time>2024-09-22T08:57:00Z</time>
      </trkpt>
      <trkpt lat="49.11362" lon="-0.0295">
        <ele>12.2</ele>
        <time>2024-09-22T08:57:01Z</time>
      </trkpt>
      <trkpt lat="49.11366" lon="-0.02961">
        <ele>12.2</ele>
        <time>2024-09-22T08:57:02Z</time>
      </trkpt>
      <trkpt lat="49.1137" lon="-0.02972">
        <ele>12.2</ele>
        <time>2024-09-22T08:57:03Z</time>
      </trkpt>
      <trkpt lat="49.11373" lon="-0.02983">
        <ele>12.2</ele>
        <time>2024-09-22T08:57:04Z</time>
      </trkpt>
      <trkpt lat="49.11375" lon="-0.02995">
        <ele>12.2</ele>
        <time>2024-09-22T08:57:05Z</time>
      </trkpt>
      <trkpt lat="49.11378" lon="-0.03007">
        <ele>12.2</ele>
        <time>2024-09-22T08:57:06Z</time>
      </trkpt>
      <trkpt lat="49.1138" lon="-0.03019">
        <ele>12.2</ele>
        <time>2024-09-22T08:57:07Z</time>
      </trkpt>
      <trkpt lat="49.11381" lon="-0.03031">
        <ele>12.2</ele>
        <time>2024-09-22T08:57:08Z</time>
      </trkpt>
      <trkpt lat="49.11383" lon="-0.03044">
        <ele>12.2</ele>
        <time>2024-09-22T08:57:09Z</time>
      </trkpt>
      <trkpt lat="49.11383" lon="-0.03056">
        <ele>12.2</ele>
        <time>2024-09-22T08:57:10Z</time>
      </trkpt>
      <trkpt lat="49.11385" lon="-0.03068">
        <ele>12.2</ele>
        <time>2024-09-22T08:57:11Z</time>
      </trkpt>
      <trkpt lat="49.11386" lon="-0.03077">
        <ele>12.2</ele>
        <time>2024-09-22T08:57:12Z</time>
      </trkpt>
      <trkpt lat="49.11388" lon="-0.03091">
        <ele>12.2</ele>
        <time>2024-09-22T08:57:13Z</time>
      </trkpt>
      <trkpt lat="49.11389" lon="-0.03103">
        <ele>12.2</ele>
        <time>2024-09-22T08:57:14Z</time>
      </trkpt>
      <trkpt lat="49.1139" lon="-0.03112">
        <ele>12.2</ele>
        <time>2024-09-22T08:57:15Z</time>
      </trkpt>
      <trkpt lat="49.11392" lon="-0.03123">
        <ele>12.2</ele>
        <time>2024-09-22T08:57:16Z</time>
      </trkpt>
      <trkpt lat="49.11395" lon="-0.03137">
        <ele>12.2</ele>
        <time>2024-09-22T08:57:17Z</time>
      </trkpt>
      <trkpt lat="49.11398" lon="-0.03148">
        <ele>12.2</ele>
        <time>2024-09-22T08:57:18Z</time>
      </trkpt>
      <trkpt lat="49.11401" lon="-0.03159">
        <ele>12.2</ele>
        <time>2024-09-22T08:57:19Z</time>
      </trkpt>
      <trkpt lat="49.11404" lon="-0.0317">
        <ele>12.2</ele>
        <time>2024-09-22T08:57:20Z</time>
      </trkpt>
      <trkpt lat="49.11407" lon="-0.03181">
        <ele>12.2</ele>
        <time>2024-09-22T08:57:21Z</time>
      </trkpt>
      <trkpt lat="49.1141" lon="-0.03192">
        <ele>12.2</ele>
        <time>2024-09-22T08:57:22Z</time>
      </trkpt>
      <trkpt lat="49.11413" lon="-0.03203">
        <ele>12.4</ele>
        <time>2024-09-22T08:57:23Z</time>
      </trkpt>
      <trkpt lat="49.11417" lon="-0.03214">
        <ele>12.4</ele>
        <time>2024-09-22T08:57:24Z</time>
      </trkpt>
      <trkpt lat="49.1142" lon="-0.03225">
        <ele>12.4</ele>
        <time>2024-09-22T08:57:25Z</time>
      </trkpt>
      <trkpt lat="49.11423" lon="-0.03237">
        <ele>12.6</ele>
        <time>2024-09-22T08:57:26Z</time>
      </trkpt>
      <trkpt lat="49.11426" lon="-0.03248">
        <ele>12.6</ele>
        <time>2024-09-22T08:57:27Z</time>
      </trkpt>
      <trkpt lat="49.11428" lon="-0.03259">
        <ele>12.6</ele>
        <time>2024-09-22T08:57:28Z</time>
      </trkpt>
      <trkpt lat="49.11431" lon="-0.03271">
        <ele>12.8</ele>
        <time>2024-09-22T08:57:29Z</time>
      </trkpt>
      <trkpt lat="49.11433" lon="-0.03282">
        <ele>12.8</ele>
        <time>2024-09-22T08:57:30Z</time>
      </trkpt>
      <trkpt lat="49.11435" lon="-0.03294">
        <ele>12.8</ele>
        <time>2024-09-22T08:57:31Z</time>
      </trkpt>
      <trkpt lat="49.11436" lon="-0.03307">
        <ele>13</ele>
        <time>2024-09-22T08:57:32Z</time>
      </trkpt>
      <trkpt lat="49.11438" lon="-0.03319">
        <ele>13</ele>
        <time>2024-09-22T08:57:33Z</time>
      </trkpt>
      <trkpt lat="49.11439" lon="-0.03332">
        <ele>13.2</ele>
        <time>2024-09-22T08:57:34Z</time>
      </trkpt>
      <trkpt lat="49.11441" lon="-0.03344">
        <ele>13.2</ele>
        <time>2024-09-22T08:57:35Z</time>
      </trkpt>
      <trkpt lat="49.11442" lon="-0.03357">
        <ele>13.2</ele>
        <time>2024-09-22T08:57:36Z</time>
      </trkpt>
      <trkpt lat="49.11443" lon="-0.03367">
        <ele>13.4</ele>
        <time>2024-09-22T08:57:37Z</time>
      </trkpt>
      <trkpt lat="49.11444" lon="-0.03379">
        <ele>13.4</ele>
        <time>2024-09-22T08:57:38Z</time>
      </trkpt>
      <trkpt lat="49.11446" lon="-0.03394">
        <ele>13.8</ele>
        <time>2024-09-22T08:57:39Z</time>
      </trkpt>
      <trkpt lat="49.11447" lon="-0.03406">
        <ele>14</ele>
        <time>2024-09-22T08:57:40Z</time>
      </trkpt>
      <trkpt lat="49.11449" lon="-0.03418">
        <ele>14</ele>
        <time>2024-09-22T08:57:41Z</time>
      </trkpt>
      <trkpt lat="49.1145" lon="-0.03431">
        <ele>14.2</ele>
        <time>2024-09-22T08:57:42Z</time>
      </trkpt>
      <trkpt lat="49.11452" lon="-0.03443">
        <ele>14.2</ele>
        <time>2024-09-22T08:57:43Z</time>
      </trkpt>
      <trkpt lat="49.11454" lon="-0.03455">
        <ele>14.4</ele>
        <time>2024-09-22T08:57:44Z</time>
      </trkpt>
      <trkpt lat="49.11456" lon="-0.03467">
        <ele>14.4</ele>
        <time>2024-09-22T08:57:45Z</time>
      </trkpt>
      <trkpt lat="49.11457" lon="-0.03479">
        <ele>14.4</ele>
        <time>2024-09-22T08:57:46Z</time>
      </trkpt>
      <trkpt lat="49.11459" lon="-0.03491">
        <ele>14.4</ele>
        <time>2024-09-22T08:57:47Z</time>
      </trkpt>
      <trkpt lat="49.11462" lon="-0.03503">
        <ele>14.4</ele>
        <time>2024-09-22T08:57:48Z</time>
      </trkpt>
      <trkpt lat="49.11464" lon="-0.03515">
        <ele>14.4</ele>
        <time>2024-09-22T08:57:49Z</time>
      </trkpt>
      <trkpt lat="49.11468" lon="-0.03527">
        <ele>14.4</ele>
        <time>2024-09-22T08:57:50Z</time>
      </trkpt>
      <trkpt lat="49.11472" lon="-0.03538">
        <ele>14.4</ele>
        <time>2024-09-22T08:57:51Z</time>
      </trkpt>
      <trkpt lat="49.11476" lon="-0.03549">
        <ele>14.6</ele>
        <time>2024-09-22T08:57:52Z</time>
      </trkpt>
      <trkpt lat="49.1148" lon="-0.0356">
        <ele>14.6</ele>
        <time>2024-09-22T08:57:53Z</time>
      </trkpt>
      <trkpt lat="49.11485" lon="-0.0357">
        <ele>14.6</ele>
        <time>2024-09-22T08:57:54Z</time>
      </trkpt>
      <trkpt lat="49.1149" lon="-0.03581">
        <ele>14.6</ele>
        <time>2024-09-22T08:57:55Z</time>
      </trkpt>
      <trkpt lat="49.11494" lon="-0.03592">
        <ele>14.6</ele>
        <time>2024-09-22T08:57:56Z</time>
      </trkpt>
      <trkpt lat="49.11499" lon="-0.03603">
        <ele>14.6</ele>
        <time>2024-09-22T08:57:57Z</time>
      </trkpt>
      <trkpt lat="49.11502" lon="-0.03613">
        <ele>14.6</ele>
        <time>2024-09-22T08:57:58Z</time>
      </trkpt>
      <trkpt lat="49.11505" lon="-0.03625">
        <ele>14.6</ele>
        <time>2024-09-22T08:57:59Z</time>
      </trkpt>
      <trkpt lat="49.11508" lon="-0.03639">
        <ele>14.6</ele>
        <time>2024-09-22T08:58:00Z</time>
      </trkpt>
      <trkpt lat="49.11511" lon="-0.03651">
        <ele>14.6</ele>
        <time>2024-09-22T08:58:01Z</time>
      </trkpt>
      <trkpt lat="49.11514" lon="-0.03664">
        <ele>14.6</ele>
        <time>2024-09-22T08:58:02Z</time>
      </trkpt>
      <trkpt lat="49.11516" lon="-0.03676">
        <ele>14.6</ele>
        <time>2024-09-22T08:58:03Z</time>
      </trkpt>
      <trkpt lat="49.11519" lon="-0.03689">
        <ele>14.6</ele>
        <time>2024-09-22T08:58:04Z</time>
      </trkpt>
      <trkpt lat="49.11522" lon="-0.03701">
        <ele>14.6</ele>
        <time>2024-09-22T08:58:05Z</time>
      </trkpt>
      <trkpt lat="49.11526" lon="-0.03713">
        <ele>14.6</ele>
        <time>2024-09-22T08:58:06Z</time>
      </trkpt>
      <trkpt lat="49.1153" lon="-0.03725">
        <ele>14.6</ele>
        <time>2024-09-22T08:58:07Z</time>
      </trkpt>
      <trkpt lat="49.11534" lon="-0.03736">
        <ele>14.6</ele>
        <time>2024-09-22T08:58:08Z</time>
      </trkpt>
      <trkpt lat="49.11539" lon="-0.03747">
        <ele>14.6</ele>
        <time>2024-09-22T08:58:09Z</time>
      </trkpt>
      <trkpt lat="49.11544" lon="-0.03758">
        <ele>14.6</ele>
        <time>2024-09-22T08:58:10Z</time>
      </trkpt>
      <trkpt lat="49.11548" lon="-0.0377">
        <ele>14.4</ele>
        <time>2024-09-22T08:58:11Z</time>
      </trkpt>
      <trkpt lat="49.1155" lon="-0.03783">
        <ele>14.4</ele>
        <time>2024-09-22T08:58:12Z</time>
      </trkpt>
      <trkpt lat="49.11552" lon="-0.03796">
        <ele>14.4</ele>
        <time>2024-09-22T08:58:13Z</time>
      </trkpt>
      <trkpt lat="49.11552" lon="-0.03809">
        <ele>14.4</ele>
        <time>2024-09-22T08:58:14Z</time>
      </trkpt>
      <trkpt lat="49.11553" lon="-0.03822">
        <ele>14.4</ele>
        <time>2024-09-22T08:58:15Z</time>
      </trkpt>
      <trkpt lat="49.11553" lon="-0.03836">
        <ele>14.4</ele>
        <time>2024-09-22T08:58:16Z</time>
      </trkpt>
      <trkpt lat="49.11553" lon="-0.03849">
        <ele>14.4</ele>
        <time>2024-09-22T08:58:17Z</time>
      </trkpt>
      <trkpt lat="49.11553" lon="-0.03863">
        <ele>14.4</ele>
        <time>2024-09-22T08:58:18Z</time>
      </trkpt>
      <trkpt lat="49.11553" lon="-0.03876">
        <ele>14.4</ele>
        <time>2024-09-22T08:58:19Z</time>
      </trkpt>
      <trkpt lat="49.11553" lon="-0.0389">
        <ele>14.4</ele>
        <time>2024-09-22T08:58:20Z</time>
      </trkpt>
      <trkpt lat="49.11553" lon="-0.039">
        <ele>14.2</ele>
        <time>2024-09-22T08:58:21Z</time>
      </trkpt>
      <trkpt lat="49.11554" lon="-0.03916">
        <ele>14.2</ele>
        <time>2024-09-22T08:58:22Z</time>
      </trkpt>
      <trkpt lat="49.11556" lon="-0.03929">
        <ele>14</ele>
        <time>2024-09-22T08:58:23Z</time>
      </trkpt>
      <trkpt lat="49.11559" lon="-0.03941">
        <ele>14</ele>
        <time>2024-09-22T08:58:24Z</time>
      </trkpt>
      <trkpt lat="49.11562" lon="-0.03953">
        <ele>14</ele>
        <time>2024-09-22T08:58:25Z</time>
      </trkpt>
      <trkpt lat="49.11567" lon="-0.03965">
        <ele>14</ele>
        <time>2024-09-22T08:58:26Z</time>
      </trkpt>
      <trkpt lat="49.11572" lon="-0.03976">
        <ele>14</ele>
        <time>2024-09-22T08:58:27Z</time>
      </trkpt>
      <trkpt lat="49.11579" lon="-0.03985">
        <ele>14</ele>
        <time>2024-09-22T08:58:28Z</time>
      </trkpt>
      <trkpt lat="49.11585" lon="-0.03993">
        <ele>14</ele>
        <time>2024-09-22T08:58:29Z</time>
      </trkpt>
      <trkpt lat="49.11592" lon="-0.04001">
        <ele>14</ele>
        <time>2024-09-22T08:58:30Z</time>
      </trkpt>
      <trkpt lat="49.11599" lon="-0.04009">
        <ele>14</ele>
        <time>2024-09-22T08:58:31Z</time>
      </trkpt>
      <trkpt lat="49.11606" lon="-0.04018">
        <ele>13.8</ele>
        <time>2024-09-22T08:58:32Z</time>
      </trkpt>
      <trkpt lat="49.11612" lon="-0.04027">
        <ele>13.8</ele>
        <time>2024-09-22T08:58:33Z</time>
      </trkpt>
      <trkpt lat="49.11618" lon="-0.04036">
        <ele>13.8</ele>
        <time>2024-09-22T08:58:34Z</time>
      </trkpt>
      <trkpt lat="49.11624" lon="-0.04047">
        <ele>13.8</ele>
        <time>2024-09-22T08:58:35Z</time>
      </trkpt>
      <trkpt lat="49.11629" lon="-0.04057">
        <ele>13.8</ele>
        <time>2024-09-22T08:58:36Z</time>
      </trkpt>
      <trkpt lat="49.11634" lon="-0.04067">
        <ele>13.6</ele>
        <time>2024-09-22T08:58:37Z</time>
      </trkpt>
      <trkpt lat="49.11638" lon="-0.04078">
        <ele>13.6</ele>
        <time>2024-09-22T08:58:38Z</time>
      </trkpt>
      <trkpt lat="49.11643" lon="-0.04089">
        <ele>13.6</ele>
        <time>2024-09-22T08:58:39Z</time>
      </trkpt>
      <trkpt lat="49.11648" lon="-0.04099">
        <ele>13.6</ele>
        <time>2024-09-22T08:58:40Z</time>
      </trkpt>
      <trkpt lat="49.11653" lon="-0.0411">
        <ele>13.6</ele>
        <time>2024-09-22T08:58:41Z</time>
      </trkpt>
      <trkpt lat="49.11657" lon="-0.04118">
        <ele>13.4</ele>
        <time>2024-09-22T08:58:42Z</time>
      </trkpt>
      <trkpt lat="49.11662" lon="-0.04131">
        <ele>13.4</ele>
        <time>2024-09-22T08:58:43Z</time>
      </trkpt>
      <trkpt lat="49.11667" lon="-0.04142">
        <ele>13.4</ele>
        <time>2024-09-22T08:58:44Z</time>
      </trkpt>
      <trkpt lat="49.11671" lon="-0.04151">
        <ele>13.4</ele>
        <time>2024-09-22T08:58:45Z</time>
      </trkpt>
      <trkpt lat="49.11677" lon="-0.04163">
        <ele>13.4</ele>
        <time>2024-09-22T08:58:46Z</time>
      </trkpt>
      <trkpt lat="49.11681" lon="-0.04173">
        <ele>13.4</ele>
        <time>2024-09-22T08:58:47Z</time>
      </trkpt>
      <trkpt lat="49.11686" lon="-0.04184">
        <ele>13.4</ele>
        <time>2024-09-22T08:58:48Z</time>
      </trkpt>
      <trkpt lat="49.11691" lon="-0.04195">
        <ele>13.4</ele>
        <time>2024-09-22T08:58:49Z</time>
      </trkpt>
      <trkpt lat="49.11696" lon="-0.04205">
        <ele>13.4</ele>
        <time>2024-09-22T08:58:50Z</time>
      </trkpt>
      <trkpt lat="49.11701" lon="-0.04215">
        <ele>13.4</ele>
        <time>2024-09-22T08:58:51Z</time>
      </trkpt>
      <trkpt lat="49.11706" lon="-0.04226">
        <ele>13.4</ele>
        <time>2024-09-22T08:58:52Z</time>
      </trkpt>
      <trkpt lat="49.11711" lon="-0.04237">
        <ele>13.4</ele>
        <time>2024-09-22T08:58:53Z</time>
      </trkpt>
      <trkpt lat="49.11715" lon="-0.04248">
        <ele>13.4</ele>
        <time>2024-09-22T08:58:54Z</time>
      </trkpt>
      <trkpt lat="49.1172" lon="-0.04259">
        <ele>13.4</ele>
        <time>2024-09-22T08:58:55Z</time>
      </trkpt>
      <trkpt lat="49.11725" lon="-0.0427">
        <ele>13.4</ele>
        <time>2024-09-22T08:58:56Z</time>
      </trkpt>
      <trkpt lat="49.1173" lon="-0.0428">
        <ele>13.4</ele>
        <time>2024-09-22T08:58:57Z</time>
      </trkpt>
      <trkpt lat="49.11735" lon="-0.04291">
        <ele>13.4</ele>
        <time>2024-09-22T08:58:58Z</time>
      </trkpt>
      <trkpt lat="49.1174" lon="-0.04301">
        <ele>13.4</ele>
        <time>2024-09-22T08:58:59Z</time>
      </trkpt>
      <trkpt lat="49.11744" lon="-0.04312">
        <ele>13.4</ele>
        <time>2024-09-22T08:59:00Z</time>
      </trkpt>
      <trkpt lat="49.11749" lon="-0.04323">
        <ele>13.4</ele>
        <time>2024-09-22T08:59:01Z</time>
      </trkpt>
      <trkpt lat="49.11755" lon="-0.04334">
        <ele>13.4</ele>
        <time>2024-09-22T08:59:02Z</time>
      </trkpt>
      <trkpt lat="49.11758" lon="-0.04342">
        <ele>13.4</ele>
        <time>2024-09-22T08:59:03Z</time>
      </trkpt>
      <trkpt lat="49.11765" lon="-0.04354">
        <ele>13.4</ele>
        <time>2024-09-22T08:59:04Z</time>
      </trkpt>
      <trkpt lat="49.1177" lon="-0.04364">
        <ele>13.4</ele>
        <time>2024-09-22T08:59:05Z</time>
      </trkpt>
      <trkpt lat="49.11775" lon="-0.04373">
        <ele>13.2</ele>
        <time>2024-09-22T08:59:06Z</time>
      </trkpt>
      <trkpt lat="49.11781" lon="-0.04383">
        <ele>13.2</ele>
        <time>2024-09-22T08:59:07Z</time>
      </trkpt>
      <trkpt lat="49.11786" lon="-0.04392">
        <ele>13</ele>
        <time>2024-09-22T08:59:08Z</time>
      </trkpt>
      <trkpt lat="49.11791" lon="-0.044">
        <ele>12.8</ele>
        <time>2024-09-22T08:59:09Z</time>
      </trkpt>
      <trkpt lat="49.11798" lon="-0.04411">
        <ele>12.8</ele>
        <time>2024-09-22T08:59:10Z</time>
      </trkpt>
      <trkpt lat="49.11804" lon="-0.0442">
        <ele>12.8</ele>
        <time>2024-09-22T08:59:11Z</time>
      </trkpt>
      <trkpt lat="49.11809" lon="-0.04429">
        <ele>12.6</ele>
        <time>2024-09-22T08:59:12Z</time>
      </trkpt>
      <trkpt lat="49.11815" lon="-0.04438">
        <ele>12.6</ele>
        <time>2024-09-22T08:59:13Z</time>
      </trkpt>
      <trkpt lat="49.11821" lon="-0.04448">
        <ele>12.6</ele>
        <time>2024-09-22T08:59:14Z</time>
      </trkpt>
      <trkpt lat="49.11826" lon="-0.04455">
        <ele>12.6</ele>
        <time>2024-09-22T08:59:15Z</time>
      </trkpt>
      <trkpt lat="49.11833" lon="-0.04466">
        <ele>12.6</ele>
        <time>2024-09-22T08:59:16Z</time>
      </trkpt>
      <trkpt lat="49.11839" lon="-0.04474">
        <ele>12.6</ele>
        <time>2024-09-22T08:59:17Z</time>
      </trkpt>
      <trkpt lat="49.11845" lon="-0.04483">
        <ele>12.6</ele>
        <time>2024-09-22T08:59:18Z</time>
      </trkpt>
      <trkpt lat="49.1185" lon="-0.04493">
        <ele>12.6</ele>
        <time>2024-09-22T08:59:19Z</time>
      </trkpt>
      <trkpt lat="49.11856" lon="-0.04502">
        <ele>12.6</ele>
        <time>2024-09-22T08:59:20Z</time>
      </trkpt>
      <trkpt lat="49.1186" lon="-0.04511">
        <ele>12.6</ele>
        <time>2024-09-22T08:59:21Z</time>
      </trkpt>
      <trkpt lat="49.11866" lon="-0.04524">
        <ele>12.6</ele>
        <time>2024-09-22T08:59:22Z</time>
      </trkpt>
      <trkpt lat="49.1187" lon="-0.04534">
        <ele>12.6</ele>
        <time>2024-09-22T08:59:23Z</time>
      </trkpt>
      <trkpt lat="49.11873" lon="-0.04543">
        <ele>12.4</ele>
        <time>2024-09-22T08:59:24Z</time>
      </trkpt>
      <trkpt lat="49.11878" lon="-0.04554">
        <ele>12.4</ele>
        <time>2024-09-22T08:59:25Z</time>
      </trkpt>
      <trkpt lat="49.11883" lon="-0.04566">
        <ele>12.2</ele>
        <time>2024-09-22T08:59:26Z</time>
      </trkpt>
      <trkpt lat="49.11888" lon="-0.04577">
        <ele>12.4</ele>
        <time>2024-09-22T08:59:27Z</time>
      </trkpt>
      <trkpt lat="49.11892" lon="-0.04588">
        <ele>12.4</ele>
        <time>2024-09-22T08:59:28Z</time>
      </trkpt>
      <trkpt lat="49.11897" lon="-0.04599">
        <ele>12.4</ele>
        <time>2024-09-22T08:59:29Z</time>
      </trkpt>
      <trkpt lat="49.11901" lon="-0.0461">
        <ele>12.4</ele>
        <time>2024-09-22T08:59:30Z</time>
      </trkpt>
      <trkpt lat="49.11905" lon="-0.04621">
        <ele>12.4</ele>
        <time>2024-09-22T08:59:31Z</time>
      </trkpt>
      <trkpt lat="49.1191" lon="-0.04632">
        <ele>12.4</ele>
        <time>2024-09-22T08:59:32Z</time>
      </trkpt>
      <trkpt lat="49.11914" lon="-0.04644">
        <ele>12.4</ele>
        <time>2024-09-22T08:59:33Z</time>
      </trkpt>
      <trkpt lat="49.11917" lon="-0.04655">
        <ele>12.4</ele>
        <time>2024-09-22T08:59:34Z</time>
      </trkpt>
      <trkpt lat="49.11921" lon="-0.04667">
        <ele>12.4</ele>
        <time>2024-09-22T08:59:35Z</time>
      </trkpt>
      <trkpt lat="49.11924" lon="-0.04679">
        <ele>12.4</ele>
        <time>2024-09-22T08:59:36Z</time>
      </trkpt>
      <trkpt lat="49.11926" lon="-0.04692">
        <ele>12.4</ele>
        <time>2024-09-22T08:59:37Z</time>
      </trkpt>
      <trkpt lat="49.11927" lon="-0.04704">
        <ele>12.4</ele>
        <time>2024-09-22T08:59:38Z</time>
      </trkpt>
      <trkpt lat="49.11927" lon="-0.04717">
        <ele>12.4</ele>
        <time>2024-09-22T08:59:39Z</time>
      </trkpt>
      <trkpt lat="49.11926" lon="-0.0473">
        <ele>12.4</ele>
        <time>2024-09-22T08:59:40Z</time>
      </trkpt>
      <trkpt lat="49.11926" lon="-0.04744">
        <ele>12.4</ele>
        <time>2024-09-22T08:59:41Z</time>
      </trkpt>
      <trkpt lat="49.11925" lon="-0.04757">
        <ele>12.4</ele>
        <time>2024-09-22T08:59:42Z</time>
      </trkpt>
      <trkpt lat="49.11924" lon="-0.0477">
        <ele>12.4</ele>
        <time>2024-09-22T08:59:43Z</time>
      </trkpt>
      <trkpt lat="49.11924" lon="-0.04784">
        <ele>12.4</ele>
        <time>2024-09-22T08:59:44Z</time>
      </trkpt>
      <trkpt lat="49.11923" lon="-0.04794">
        <ele>12.4</ele>
        <time>2024-09-22T08:59:45Z</time>
      </trkpt>
      <trkpt lat="49.11923" lon="-0.04807">
        <ele>12.4</ele>
        <time>2024-09-22T08:59:46Z</time>
      </trkpt>
      <trkpt lat="49.11922" lon="-0.04823">
        <ele>12.4</ele>
        <time>2024-09-22T08:59:47Z</time>
      </trkpt>
      <trkpt lat="49.11921" lon="-0.04836">
        <ele>12.4</ele>
        <time>2024-09-22T08:59:48Z</time>
      </trkpt>
      <trkpt lat="49.1192" lon="-0.04848">
        <ele>12.2</ele>
        <time>2024-09-22T08:59:49Z</time>
      </trkpt>
      <trkpt lat="49.1192" lon="-0.04861">
        <ele>12.2</ele>
        <time>2024-09-22T08:59:50Z</time>
      </trkpt>
      <trkpt lat="49.1192" lon="-0.04874">
        <ele>12</ele>
        <time>2024-09-22T08:59:51Z</time>
      </trkpt>
      <trkpt lat="49.11919" lon="-0.04886">
        <ele>12</ele>
        <time>2024-09-22T08:59:52Z</time>
      </trkpt>
      <trkpt lat="49.11919" lon="-0.04898">
        <ele>11.8</ele>
        <time>2024-09-22T08:59:53Z</time>
      </trkpt>
      <trkpt lat="49.11919" lon="-0.04907">
        <ele>11.8</ele>
        <time>2024-09-22T08:59:54Z</time>
      </trkpt>
      <trkpt lat="49.11918" lon="-0.0492">
        <ele>11.8</ele>
        <time>2024-09-22T08:59:55Z</time>
      </trkpt>
      <trkpt lat="49.11917" lon="-0.04931">
        <ele>11.8</ele>
        <time>2024-09-22T08:59:56Z</time>
      </trkpt>
      <trkpt lat="49.11916" lon="-0.04941">
        <ele>11.8</ele>
        <time>2024-09-22T08:59:57Z</time>
      </trkpt>
      <trkpt lat="49.11916" lon="-0.04952">
        <ele>11.8</ele>
        <time>2024-09-22T08:59:58Z</time>
      </trkpt>
      <trkpt lat="49.11915" lon="-0.04962">
        <ele>11.8</ele>
        <time>2024-09-22T08:59:59Z</time>
      </trkpt>
      <trkpt lat="49.11914" lon="-0.04973">
        <ele>12</ele>
        <time>2024-09-22T09:00:00Z</time>
      </trkpt>
      <trkpt lat="49.11914" lon="-0.04983">
        <ele>12</ele>
        <time>2024-09-22T09:00:01Z</time>
      </trkpt>
      <trkpt lat="49.11913" lon="-0.04993">
        <ele>12</ele>
        <time>2024-09-22T09:00:02Z</time>
      </trkpt>
      <trkpt lat="49.11912" lon="-0.05003">
        <ele>12.2</ele>
        <time>2024-09-22T09:00:03Z</time>
      </trkpt>
      <trkpt lat="49.11911" lon="-0.05013">
        <ele>12.4</ele>
        <time>2024-09-22T09:00:04Z</time>
      </trkpt>
      <trkpt lat="49.1191" lon="-0.05022">
        <ele>12.4</ele>
        <time>2024-09-22T09:00:05Z</time>
      </trkpt>
      <trkpt lat="49.11909" lon="-0.05031">
        <ele>12.4</ele>
        <time>2024-09-22T09:00:06Z</time>
      </trkpt>
      <trkpt lat="49.11908" lon="-0.05038">
        <ele>12.6</ele>
        <time>2024-09-22T09:00:07Z</time>
      </trkpt>
      <trkpt lat="49.11907" lon="-0.05047">
        <ele>12.6</ele>
        <time>2024-09-22T09:00:08Z</time>
      </trkpt>
      <trkpt lat="49.11906" lon="-0.05054">
        <ele>12.6</ele>
        <time>2024-09-22T09:00:09Z</time>
      </trkpt>
      <trkpt lat="49.11905" lon="-0.05062">
        <ele>12.8</ele>
        <time>2024-09-22T09:00:10Z</time>
      </trkpt>
      <trkpt lat="49.11905" lon="-0.05068">
        <ele>12.8</ele>
        <time>2024-09-22T09:00:11Z</time>
      </trkpt>
      <trkpt lat="49.11906" lon="-0.05072">
        <ele>12.8</ele>
        <time>2024-09-22T09:00:12Z</time>
      </trkpt>
      <trkpt lat="49.11908" lon="-0.05078">
        <ele>12.8</ele>
        <time>2024-09-22T09:00:13Z</time>
      </trkpt>
      <trkpt lat="49.11911" lon="-0.05081">
        <ele>12.8</ele>
        <time>2024-09-22T09:00:14Z</time>
      </trkpt>
      <trkpt lat="49.11913" lon="-0.05083">
        <ele>13</ele>
        <time>2024-09-22T09:00:15Z</time>
      </trkpt>
      <trkpt lat="49.11918" lon="-0.05085">
        <ele>13</ele>
        <time>2024-09-22T09:00:16Z</time>
      </trkpt>
      <trkpt lat="49.11922" lon="-0.05086">
        <ele>13</ele>
        <time>2024-09-22T09:00:17Z</time>
      </trkpt>
      <trkpt lat="49.11928" lon="-0.05087">
        <ele>13</ele>
        <time>2024-09-22T09:00:18Z</time>
      </trkpt>
      <trkpt lat="49.11934" lon="-0.05089">
        <ele>13.2</ele>
        <time>2024-09-22T09:00:19Z</time>
      </trkpt>
      <trkpt lat="49.1194" lon="-0.05091">
        <ele>13.2</ele>
        <time>2024-09-22T09:00:20Z</time>
      </trkpt>
      <trkpt lat="49.11947" lon="-0.05092">
        <ele>13.4</ele>
        <time>2024-09-22T09:00:21Z</time>
      </trkpt>
      <trkpt lat="49.11954" lon="-0.05093">
        <ele>13.6</ele>
        <time>2024-09-22T09:00:22Z</time>
      </trkpt>
      <trkpt lat="49.11961" lon="-0.05095">
        <ele>13.6</ele>
        <time>2024-09-22T09:00:23Z</time>
      </trkpt>
      <trkpt lat="49.11969" lon="-0.05097">
        <ele>13.6</ele>
        <time>2024-09-22T09:00:24Z</time>
      </trkpt>
      <trkpt lat="49.11976" lon="-0.05098">
        <ele>13.6</ele>
        <time>2024-09-22T09:00:25Z</time>
      </trkpt>
      <trkpt lat="49.11984" lon="-0.05101">
        <ele>13.8</ele>
        <time>2024-09-22T09:00:26Z</time>
      </trkpt>
      <trkpt lat="49.11991" lon="-0.05103">
        <ele>13.8</ele>
        <time>2024-09-22T09:00:27Z</time>
      </trkpt>
      <trkpt lat="49.11999" lon="-0.05105">
        <ele>13.8</ele>
        <time>2024-09-22T09:00:28Z</time>
      </trkpt>
      <trkpt lat="49.12005" lon="-0.05106">
        <ele>13.8</ele>
        <time>2024-09-22T09:00:29Z</time>
      </trkpt>
      <trkpt lat="49.12013" lon="-0.05108">
        <ele>13.8</ele>
        <time>2024-09-22T09:00:30Z</time>
      </trkpt>
      <trkpt lat="49.1202" lon="-0.0511">
        <ele>13.8</ele>
        <time>2024-09-22T09:00:31Z</time>
      </trkpt>
      <trkpt lat="49.12028" lon="-0.05112">
        <ele>13.8</ele>
        <time>2024-09-22T09:00:32Z</time>
      </trkpt>
      <trkpt lat="49.12035" lon="-0.05113">
        <ele>13.8</ele>
        <time>2024-09-22T09:00:33Z</time>
      </trkpt>
      <trkpt lat="49.12043" lon="-0.05115">
        <ele>13.8</ele>
        <time>2024-09-22T09:00:34Z</time>
      </trkpt>
      <trkpt lat="49.1205" lon="-0.05117">
        <ele>13.8</ele>
        <time>2024-09-22T09:00:35Z</time>
      </trkpt>
      <trkpt lat="49.12058" lon="-0.05119">
        <ele>13.8</ele>
        <time>2024-09-22T09:00:36Z</time>
      </trkpt>
      <trkpt lat="49.12065" lon="-0.0512">
        <ele>13.8</ele>
        <time>2024-09-22T09:00:37Z</time>
      </trkpt>
      <trkpt lat="49.12073" lon="-0.05122">
        <ele>13.8</ele>
        <time>2024-09-22T09:00:38Z</time>
      </trkpt>
      <trkpt lat="49.1208" lon="-0.05123">
        <ele>13.8</ele>
        <time>2024-09-22T09:00:39Z</time>
      </trkpt>
      <trkpt lat="49.12089" lon="-0.05125">
        <ele>13.8</ele>
        <time>2024-09-22T09:00:40Z</time>
      </trkpt>
      <trkpt lat="49.12097" lon="-0.05127">
        <ele>13.8</ele>
        <time>2024-09-22T09:00:41Z</time>
      </trkpt>
      <trkpt lat="49.12105" lon="-0.05129">
        <ele>13.8</ele>
        <time>2024-09-22T09:00:42Z</time>
      </trkpt>
      <trkpt lat="49.12113" lon="-0.05131">
        <ele>13.8</ele>
        <time>2024-09-22T09:00:43Z</time>
      </trkpt>
      <trkpt lat="49.12121" lon="-0.05133">
        <ele>13.8</ele>
        <time>2024-09-22T09:00:44Z</time>
      </trkpt>
      <trkpt lat="49.12129" lon="-0.05135">
        <ele>13.8</ele>
        <time>2024-09-22T09:00:45Z</time>
      </trkpt>
      <trkpt lat="49.12137" lon="-0.05137">
        <ele>13.8</ele>
        <time>2024-09-22T09:00:46Z</time>
      </trkpt>
      <trkpt lat="49.12145" lon="-0.05139">
        <ele>13.6</ele>
        <time>2024-09-22T09:00:47Z</time>
      </trkpt>
      <trkpt lat="49.12153" lon="-0.0514">
        <ele>13.6</ele>
        <time>2024-09-22T09:00:48Z</time>
      </trkpt>
      <trkpt lat="49.12161" lon="-0.05142">
        <ele>13.6</ele>
        <time>2024-09-22T09:00:49Z</time>
      </trkpt>
      <trkpt lat="49.12168" lon="-0.05143">
        <ele>13.4</ele>
        <time>2024-09-22T09:00:50Z</time>
      </trkpt>
      <trkpt lat="49.12176" lon="-0.05145">
        <ele>13.4</ele>
        <time>2024-09-22T09:00:51Z</time>
      </trkpt>
      <trkpt lat="49.12186" lon="-0.05147">
        <ele>13.2</ele>
        <time>2024-09-22T09:00:52Z</time>
      </trkpt>
      <trkpt lat="49.12194" lon="-0.05149">
        <ele>13.2</ele>
        <time>2024-09-22T09:00:53Z</time>
      </trkpt>
      <trkpt lat="49.12202" lon="-0.05151">
        <ele>13</ele>
        <time>2024-09-22T09:00:54Z</time>
      </trkpt>
      <trkpt lat="49.1221" lon="-0.05152">
        <ele>13</ele>
        <time>2024-09-22T09:00:55Z</time>
      </trkpt>
      <trkpt lat="49.12218" lon="-0.05154">
        <ele>13</ele>
        <time>2024-09-22T09:00:56Z</time>
      </trkpt>
      <trkpt lat="49.12226" lon="-0.05156">
        <ele>13</ele>
        <time>2024-09-22T09:00:57Z</time>
      </trkpt>
      <trkpt lat="49.12234" lon="-0.05158">
        <ele>13</ele>
        <time>2024-09-22T09:00:58Z</time>
      </trkpt>
      <trkpt lat="49.12242" lon="-0.05159">
        <ele>13</ele>
        <time>2024-09-22T09:00:59Z</time>
      </trkpt>
      <trkpt lat="49.1225" lon="-0.05161">
        <ele>12.8</ele>
        <time>2024-09-22T09:01:00Z</time>
      </trkpt>
      <trkpt lat="49.12258" lon="-0.05163">
        <ele>12.8</ele>
        <time>2024-09-22T09:01:01Z</time>
      </trkpt>
      <trkpt lat="49.12264" lon="-0.05165">
        <ele>12.8</ele>
        <time>2024-09-22T09:01:02Z</time>
      </trkpt>
      <trkpt lat="49.12271" lon="-0.05166">
        <ele>12.8</ele>
        <time>2024-09-22T09:01:03Z</time>
      </trkpt>
      <trkpt lat="49.12277" lon="-0.05168">
        <ele>12.8</ele>
        <time>2024-09-22T09:01:04Z</time>
      </trkpt>
      <trkpt lat="49.12283" lon="-0.0517">
        <ele>12.8</ele>
        <time>2024-09-22T09:01:05Z</time>
      </trkpt>
      <trkpt lat="49.12289" lon="-0.05172">
        <ele>12.8</ele>
        <time>2024-09-22T09:01:06Z</time>
      </trkpt>
      <trkpt lat="49.12294" lon="-0.05174">
        <ele>12.8</ele>
        <time>2024-09-22T09:01:07Z</time>
      </trkpt>
      <trkpt lat="49.12298" lon="-0.05176">
        <ele>12.8</ele>
        <time>2024-09-22T09:01:08Z</time>
      </trkpt>
      <trkpt lat="49.12301" lon="-0.05178">
        <ele>12.8</ele>
        <time>2024-09-22T09:01:09Z</time>
      </trkpt>
      <trkpt lat="49.12305" lon="-0.0518">
        <ele>12.8</ele>
        <time>2024-09-22T09:01:10Z</time>
      </trkpt>
      <trkpt lat="49.12309" lon="-0.05182">
        <ele>13</ele>
        <time>2024-09-22T09:01:11Z</time>
      </trkpt>
      <trkpt lat="49.12311" lon="-0.05184">
        <ele>13</ele>
        <time>2024-09-22T09:01:12Z</time>
      </trkpt>
      <trkpt lat="49.12314" lon="-0.05188">
        <ele>13</ele>
        <time>2024-09-22T09:01:13Z</time>
      </trkpt>
      <trkpt lat="49.12316" lon="-0.05192">
        <ele>13</ele>
        <time>2024-09-22T09:01:14Z</time>
      </trkpt>
      <trkpt lat="49.12319" lon="-0.05196">
        <ele>13</ele>
        <time>2024-09-22T09:01:15Z</time>
      </trkpt>
      <trkpt lat="49.12322" lon="-0.05201">
        <ele>13</ele>
        <time>2024-09-22T09:01:16Z</time>
      </trkpt>
      <trkpt lat="49.12325" lon="-0.05206">
        <ele>13.2</ele>
        <time>2024-09-22T09:01:17Z</time>
      </trkpt>
      <trkpt lat="49.12328" lon="-0.05212">
        <ele>13.2</ele>
        <time>2024-09-22T09:01:18Z</time>
      </trkpt>
      <trkpt lat="49.12331" lon="-0.05216">
        <ele>13.4</ele>
        <time>2024-09-22T09:01:19Z</time>
      </trkpt>
      <trkpt lat="49.12334" lon="-0.0522">
        <ele>13.4</ele>
        <time>2024-09-22T09:01:20Z</time>
      </trkpt>
      <trkpt lat="49.12336" lon="-0.05222">
        <ele>13.4</ele>
        <time>2024-09-22T09:01:21Z</time>
      </trkpt>
      <trkpt lat="49.12338" lon="-0.05226">
        <ele>13.4</ele>
        <time>2024-09-22T09:01:22Z</time>
      </trkpt>
      <trkpt lat="49.1234" lon="-0.0523">
        <ele>13.6</ele>
        <time>2024-09-22T09:01:23Z</time>
      </trkpt>
      <trkpt lat="49.12342" lon="-0.05233">
        <ele>13.6</ele>
        <time>2024-09-22T09:01:24Z</time>
      </trkpt>
      <trkpt lat="49.12342" lon="-0.05235">
        <ele>13.6</ele>
        <time>2024-09-22T09:01:25Z</time>
      </trkpt>
      <trkpt lat="49.12342" lon="-0.05236">
        <ele>13.6</ele>
        <time>2024-09-22T09:01:26Z</time>
      </trkpt>
      <trkpt lat="49.12342" lon="-0.05236">
        <ele>13.8</ele>
        <time>2024-09-22T09:01:27Z</time>
      </trkpt>
      <trkpt lat="49.12345" lon="-0.05245">
        <ele>14.4</ele>
        <time>2024-09-22T09:01:38Z</time>
      </trkpt>
      <trkpt lat="49.12346" lon="-0.05249">
        <ele>14.4</ele>
        <time>2024-09-22T09:01:39Z</time>
      </trkpt>
      <trkpt lat="49.12345" lon="-0.05254">
        <ele>14.4</ele>
        <time>2024-09-22T09:01:40Z</time>
      </trkpt>
      <trkpt lat="49.12343" lon="-0.05259">
        <ele>14.4</ele>
        <time>2024-09-22T09:01:41Z</time>
      </trkpt>
      <trkpt lat="49.1234" lon="-0.05263">
        <ele>14.4</ele>
        <time>2024-09-22T09:01:42Z</time>
      </trkpt>
      <trkpt lat="49.12337" lon="-0.05268">
        <ele>14.4</ele>
        <time>2024-09-22T09:01:43Z</time>
      </trkpt>
      <trkpt lat="49.12334" lon="-0.05274">
        <ele>14.4</ele>
        <time>2024-09-22T09:01:44Z</time>
      </trkpt>
      <trkpt lat="49.1233" lon="-0.0528">
        <ele>14.4</ele>
        <time>2024-09-22T09:01:45Z</time>
      </trkpt>
      <trkpt lat="49.12326" lon="-0.05287">
        <ele>14.2</ele>
        <time>2024-09-22T09:01:46Z</time>
      </trkpt>
      <trkpt lat="49.12322" lon="-0.05294">
        <ele>14.2</ele>
        <time>2024-09-22T09:01:47Z</time>
      </trkpt>
      <trkpt lat="49.12318" lon="-0.05302">
        <ele>14</ele>
        <time>2024-09-22T09:01:48Z</time>
      </trkpt>
      <trkpt lat="49.12314" lon="-0.0531">
        <ele>14</ele>
        <time>2024-09-22T09:01:49Z</time>
      </trkpt>
      <trkpt lat="49.1231" lon="-0.05318">
        <ele>14</ele>
        <time>2024-09-22T09:01:50Z</time>
      </trkpt>
      <trkpt lat="49.12306" lon="-0.05326">
        <ele>13.8</ele>
        <time>2024-09-22T09:01:51Z</time>
      </trkpt>
      <trkpt lat="49.12302" lon="-0.05335">
        <ele>13.8</ele>
        <time>2024-09-22T09:01:52Z</time>
      </trkpt>
      <trkpt lat="49.12298" lon="-0.05343">
        <ele>13.8</ele>
        <time>2024-09-22T09:01:53Z</time>
      </trkpt>
      <trkpt lat="49.12296" lon="-0.05349">
        <ele>13.8</ele>
        <time>2024-09-22T09:01:54Z</time>
      </trkpt>
      <trkpt lat="49.12292" lon="-0.05357">
        <ele>13.8</ele>
        <time>2024-09-22T09:01:55Z</time>
      </trkpt>
      <trkpt lat="49.12288" lon="-0.05367">
        <ele>13.8</ele>
        <time>2024-09-22T09:01:56Z</time>
      </trkpt>
      <trkpt lat="49.12286" lon="-0.05373">
        <ele>13.8</ele>
        <time>2024-09-22T09:01:57Z</time>
      </trkpt>
      <trkpt lat="49.12283" lon="-0.05382">
        <ele>13.8</ele>
        <time>2024-09-22T09:01:58Z</time>
      </trkpt>
      <trkpt lat="49.1228" lon="-0.05389">
        <ele>13.8</ele>
        <time>2024-09-22T09:01:59Z</time>
      </trkpt>
      <trkpt lat="49.12277" lon="-0.05397">
        <ele>13.8</ele>
        <time>2024-09-22T09:02:00Z</time>
      </trkpt>
      <trkpt lat="49.12274" lon="-0.05405">
        <ele>13.8</ele>
        <time>2024-09-22T09:02:01Z</time>
      </trkpt>
      <trkpt lat="49.12272" lon="-0.05412">
        <ele>13.8</ele>
        <time>2024-09-22T09:02:02Z</time>
      </trkpt>
      <trkpt lat="49.12269" lon="-0.05421">
        <ele>13.8</ele>
        <time>2024-09-22T09:02:03Z</time>
      </trkpt>
      <trkpt lat="49.12265" lon="-0.05433">
        <ele>13.8</ele>
        <time>2024-09-22T09:02:04Z</time>
      </trkpt>
      <trkpt lat="49.12262" lon="-0.05442">
        <ele>14</ele>
        <time>2024-09-22T09:02:05Z</time>
      </trkpt>
      <trkpt lat="49.12259" lon="-0.05453">
        <ele>14</ele>
        <time>2024-09-22T09:02:06Z</time>
      </trkpt>
      <trkpt lat="49.12256" lon="-0.05463">
        <ele>14</ele>
        <time>2024-09-22T09:02:07Z</time>
      </trkpt>
      <trkpt lat="49.12254" lon="-0.05472">
        <ele>14</ele>
        <time>2024-09-22T09:02:08Z</time>
      </trkpt>
      <trkpt lat="49.12251" lon="-0.05483">
        <ele>14</ele>
        <time>2024-09-22T09:02:09Z</time>
      </trkpt>
      <trkpt lat="49.12247" lon="-0.05497">
        <ele>14</ele>
        <time>2024-09-22T09:02:10Z</time>
      </trkpt>
      <trkpt lat="49.12244" lon="-0.05509">
        <ele>14</ele>
        <time>2024-09-22T09:02:11Z</time>
      </trkpt>
      <trkpt lat="49.1224" lon="-0.05521">
        <ele>14</ele>
        <time>2024-09-22T09:02:12Z</time>
      </trkpt>
      <trkpt lat="49.12237" lon="-0.05532">
        <ele>14</ele>
        <time>2024-09-22T09:02:13Z</time>
      </trkpt>
      <trkpt lat="49.12234" lon="-0.05542">
        <ele>14</ele>
        <time>2024-09-22T09:02:14Z</time>
      </trkpt>
      <trkpt lat="49.12231" lon="-0.05554">
        <ele>14</ele>
        <time>2024-09-22T09:02:15Z</time>
      </trkpt>
      <trkpt lat="49.12228" lon="-0.05566">
        <ele>14</ele>
        <time>2024-09-22T09:02:16Z</time>
      </trkpt>
      <trkpt lat="49.12225" lon="-0.05578">
        <ele>14</ele>
        <time>2024-09-22T09:02:17Z</time>
      </trkpt>
      <trkpt lat="49.12222" lon="-0.0559">
        <ele>14</ele>
        <time>2024-09-22T09:02:18Z</time>
      </trkpt>
      <trkpt lat="49.12219" lon="-0.05602">
        <ele>14</ele>
        <time>2024-09-22T09:02:19Z</time>
      </trkpt>
      <trkpt lat="49.12216" lon="-0.05613">
        <ele>14</ele>
        <time>2024-09-22T09:02:20Z</time>
      </trkpt>
      <trkpt lat="49.12213" lon="-0.05624">
        <ele>14.2</ele>
        <time>2024-09-22T09:02:21Z</time>
      </trkpt>
      <trkpt lat="49.12209" lon="-0.05638">
        <ele>14.2</ele>
        <time>2024-09-22T09:02:22Z</time>
      </trkpt>
      <trkpt lat="49.12206" lon="-0.0565">
        <ele>14.2</ele>
        <time>2024-09-22T09:02:23Z</time>
      </trkpt>
      <trkpt lat="49.12204" lon="-0.05659">
        <ele>14.2</ele>
        <time>2024-09-22T09:02:24Z</time>
      </trkpt>
      <trkpt lat="49.122" lon="-0.05672">
        <ele>14.2</ele>
        <time>2024-09-22T09:02:25Z</time>
      </trkpt>
      <trkpt lat="49.12197" lon="-0.05684">
        <ele>14.2</ele>
        <time>2024-09-22T09:02:26Z</time>
      </trkpt>
      <trkpt lat="49.12195" lon="-0.05693">
        <ele>14.2</ele>
        <time>2024-09-22T09:02:27Z</time>
      </trkpt>
      <trkpt lat="49.12191" lon="-0.05707">
        <ele>14.2</ele>
        <time>2024-09-22T09:02:28Z</time>
      </trkpt>
      <trkpt lat="49.12188" lon="-0.05718">
        <ele>14.2</ele>
        <time>2024-09-22T09:02:29Z</time>
      </trkpt>
      <trkpt lat="49.12186" lon="-0.05727">
        <ele>14.2</ele>
        <time>2024-09-22T09:02:30Z</time>
      </trkpt>
      <trkpt lat="49.12182" lon="-0.0574">
        <ele>14.2</ele>
        <time>2024-09-22T09:02:31Z</time>
      </trkpt>
      <trkpt lat="49.12179" lon="-0.05751">
        <ele>14.4</ele>
        <time>2024-09-22T09:02:32Z</time>
      </trkpt>
      <trkpt lat="49.12177" lon="-0.05761">
        <ele>14.6</ele>
        <time>2024-09-22T09:02:33Z</time>
      </trkpt>
      <trkpt lat="49.12173" lon="-0.05774">
        <ele>14.6</ele>
        <time>2024-09-22T09:02:34Z</time>
      </trkpt>
      <trkpt lat="49.1217" lon="-0.05786">
        <ele>14.8</ele>
        <time>2024-09-22T09:02:35Z</time>
      </trkpt>
      <trkpt lat="49.12168" lon="-0.05795">
        <ele>14.8</ele>
        <time>2024-09-22T09:02:36Z</time>
      </trkpt>
      <trkpt lat="49.12165" lon="-0.05806">
        <ele>14.8</ele>
        <time>2024-09-22T09:02:37Z</time>
      </trkpt>
      <trkpt lat="49.12162" lon="-0.05818">
        <ele>14.8</ele>
        <time>2024-09-22T09:02:38Z</time>
      </trkpt>
      <trkpt lat="49.12159" lon="-0.05829">
        <ele>15</ele>
        <time>2024-09-22T09:02:39Z</time>
      </trkpt>
      <trkpt lat="49.12155" lon="-0.05842">
        <ele>15</ele>
        <time>2024-09-22T09:02:40Z</time>
      </trkpt>
      <trkpt lat="49.12152" lon="-0.05854">
        <ele>15</ele>
        <time>2024-09-22T09:02:41Z</time>
      </trkpt>
      <trkpt lat="49.12149" lon="-0.05865">
        <ele>15</ele>
        <time>2024-09-22T09:02:42Z</time>
      </trkpt>
      <trkpt lat="49.12146" lon="-0.05877">
        <ele>15</ele>
        <time>2024-09-22T09:02:43Z</time>
      </trkpt>
      <trkpt lat="49.12143" lon="-0.05888">
        <ele>15</ele>
        <time>2024-09-22T09:02:44Z</time>
      </trkpt>
      <trkpt lat="49.1214" lon="-0.05897">
        <ele>15.2</ele>
        <time>2024-09-22T09:02:45Z</time>
      </trkpt>
      <trkpt lat="49.12137" lon="-0.05911">
        <ele>15</ele>
        <time>2024-09-22T09:02:46Z</time>
      </trkpt>
      <trkpt lat="49.12134" lon="-0.05921">
        <ele>15.2</ele>
        <time>2024-09-22T09:02:47Z</time>
      </trkpt>
      <trkpt lat="49.12131" lon="-0.0593">
        <ele>15.2</ele>
        <time>2024-09-22T09:02:48Z</time>
      </trkpt>
      <trkpt lat="49.12128" lon="-0.05943">
        <ele>15.2</ele>
        <time>2024-09-22T09:02:49Z</time>
      </trkpt>
      <trkpt lat="49.12124" lon="-0.05954">
        <ele>15.2</ele>
        <time>2024-09-22T09:02:50Z</time>
      </trkpt>
      <trkpt lat="49.12122" lon="-0.05963">
        <ele>15.2</ele>
        <time>2024-09-22T09:02:51Z</time>
      </trkpt>
      <trkpt lat="49.12118" lon="-0.05977">
        <ele>15.2</ele>
        <time>2024-09-22T09:02:52Z</time>
      </trkpt>
      <trkpt lat="49.12115" lon="-0.05989">
        <ele>15.2</ele>
        <time>2024-09-22T09:02:53Z</time>
      </trkpt>
      <trkpt lat="49.12112" lon="-0.05998">
        <ele>15.2</ele>
        <time>2024-09-22T09:02:54Z</time>
      </trkpt>
      <trkpt lat="49.12109" lon="-0.06013">
        <ele>15.4</ele>
        <time>2024-09-22T09:02:55Z</time>
      </trkpt>
      <trkpt lat="49.12105" lon="-0.06025">
        <ele>15.4</ele>
        <time>2024-09-22T09:02:56Z</time>
      </trkpt>
      <trkpt lat="49.12103" lon="-0.06034">
        <ele>15.4</ele>
        <time>2024-09-22T09:02:57Z</time>
      </trkpt>
      <trkpt lat="49.121" lon="-0.06046">
        <ele>15.4</ele>
        <time>2024-09-22T09:02:58Z</time>
      </trkpt>
      <trkpt lat="49.12097" lon="-0.06057">
        <ele>15.4</ele>
        <time>2024-09-22T09:02:59Z</time>
      </trkpt>
      <trkpt lat="49.12093" lon="-0.06071">
        <ele>15.4</ele>
        <time>2024-09-22T09:03:00Z</time>
      </trkpt>
      <trkpt lat="49.12089" lon="-0.06083">
        <ele>15.4</ele>
        <time>2024-09-22T09:03:01Z</time>
      </trkpt>
      <trkpt lat="49.12086" lon="-0.06094">
        <ele>15.4</ele>
        <time>2024-09-22T09:03:02Z</time>
      </trkpt>
      <trkpt lat="49.12082" lon="-0.06106">
        <ele>15.4</ele>
        <time>2024-09-22T09:03:03Z</time>
      </trkpt>
      <trkpt lat="49.12079" lon="-0.06117">
        <ele>15.4</ele>
        <time>2024-09-22T09:03:04Z</time>
      </trkpt>
      <trkpt lat="49.12076" lon="-0.06129">
        <ele>15.4</ele>
        <time>2024-09-22T09:03:05Z</time>
      </trkpt>
      <trkpt lat="49.12073" lon="-0.0614">
        <ele>15.4</ele>
        <time>2024-09-22T09:03:06Z</time>
      </trkpt>
      <trkpt lat="49.1207" lon="-0.06151">
        <ele>15.4</ele>
        <time>2024-09-22T09:03:07Z</time>
      </trkpt>
      <trkpt lat="49.12067" lon="-0.06162">
        <ele>15.4</ele>
        <time>2024-09-22T09:03:08Z</time>
      </trkpt>
      <trkpt lat="49.12065" lon="-0.06172">
        <ele>15.4</ele>
        <time>2024-09-22T09:03:09Z</time>
      </trkpt>
      <trkpt lat="49.12062" lon="-0.06183">
        <ele>15.4</ele>
        <time>2024-09-22T09:03:10Z</time>
      </trkpt>
      <trkpt lat="49.12059" lon="-0.06194">
        <ele>15.4</ele>
        <time>2024-09-22T09:03:11Z</time>
      </trkpt>
      <trkpt lat="49.12056" lon="-0.06204">
        <ele>15.4</ele>
        <time>2024-09-22T09:03:12Z</time>
      </trkpt>
      <trkpt lat="49.12053" lon="-0.06215">
        <ele>15.4</ele>
        <time>2024-09-22T09:03:13Z</time>
      </trkpt>
      <trkpt lat="49.1205" lon="-0.06226">
        <ele>15.4</ele>
        <time>2024-09-22T09:03:14Z</time>
      </trkpt>
      <trkpt lat="49.12048" lon="-0.06237">
        <ele>15.4</ele>
        <time>2024-09-22T09:03:15Z</time>
      </trkpt>
      <trkpt lat="49.12044" lon="-0.06248">
        <ele>15.4</ele>
        <time>2024-09-22T09:03:16Z</time>
      </trkpt>
      <trkpt lat="49.12041" lon="-0.06259">
        <ele>15.4</ele>
        <time>2024-09-22T09:03:17Z</time>
      </trkpt>
      <trkpt lat="49.12038" lon="-0.0627">
        <ele>15.6</ele>
        <time>2024-09-22T09:03:18Z</time>
      </trkpt>
      <trkpt lat="49.12036" lon="-0.0628">
        <ele>15.6</ele>
        <time>2024-09-22T09:03:19Z</time>
      </trkpt>
      <trkpt lat="49.12033" lon="-0.06289">
        <ele>15.6</ele>
        <time>2024-09-22T09:03:20Z</time>
      </trkpt>
      <trkpt lat="49.1203" lon="-0.063">
        <ele>15.6</ele>
        <time>2024-09-22T09:03:21Z</time>
      </trkpt>
      <trkpt lat="49.12027" lon="-0.06313">
        <ele>15.6</ele>
        <time>2024-09-22T09:03:22Z</time>
      </trkpt>
      <trkpt lat="49.12024" lon="-0.06324">
        <ele>15.8</ele>
        <time>2024-09-22T09:03:23Z</time>
      </trkpt>
      <trkpt lat="49.12021" lon="-0.06334">
        <ele>15.8</ele>
        <time>2024-09-22T09:03:24Z</time>
      </trkpt>
      <trkpt lat="49.12018" lon="-0.06345">
        <ele>15.8</ele>
        <time>2024-09-22T09:03:25Z</time>
      </trkpt>
      <trkpt lat="49.12016" lon="-0.06357">
        <ele>15.8</ele>
        <time>2024-09-22T09:03:26Z</time>
      </trkpt>
      <trkpt lat="49.12013" lon="-0.06368">
        <ele>16</ele>
        <time>2024-09-22T09:03:27Z</time>
      </trkpt>
      <trkpt lat="49.12011" lon="-0.06379">
        <ele>16</ele>
        <time>2024-09-22T09:03:28Z</time>
      </trkpt>
      <trkpt lat="49.12008" lon="-0.06391">
        <ele>16</ele>
        <time>2024-09-22T09:03:29Z</time>
      </trkpt>
      <trkpt lat="49.12006" lon="-0.06399">
        <ele>16.2</ele>
        <time>2024-09-22T09:03:30Z</time>
      </trkpt>
      <trkpt lat="49.12003" lon="-0.06413">
        <ele>16.2</ele>
        <time>2024-09-22T09:03:31Z</time>
      </trkpt>
      <trkpt lat="49.12001" lon="-0.06424">
        <ele>16.2</ele>
        <time>2024-09-22T09:03:32Z</time>
      </trkpt>
      <trkpt lat="49.11999" lon="-0.06436">
        <ele>16.4</ele>
        <time>2024-09-22T09:03:33Z</time>
      </trkpt>
      <trkpt lat="49.11997" lon="-0.06447">
        <ele>16.4</ele>
        <time>2024-09-22T09:03:34Z</time>
      </trkpt>
      <trkpt lat="49.11995" lon="-0.06459">
        <ele>16.6</ele>
        <time>2024-09-22T09:03:35Z</time>
      </trkpt>
      <trkpt lat="49.11994" lon="-0.0647">
        <ele>16.6</ele>
        <time>2024-09-22T09:03:36Z</time>
      </trkpt>
      <trkpt lat="49.11992" lon="-0.06482">
        <ele>16.8</ele>
        <time>2024-09-22T09:03:37Z</time>
      </trkpt>
      <trkpt lat="49.1199" lon="-0.06493">
        <ele>16.8</ele>
        <time>2024-09-22T09:03:38Z</time>
      </trkpt>
      <trkpt lat="49.11989" lon="-0.06503">
        <ele>17</ele>
        <time>2024-09-22T09:03:39Z</time>
      </trkpt>
      <trkpt lat="49.11987" lon="-0.06516">
        <ele>17</ele>
        <time>2024-09-22T09:03:40Z</time>
      </trkpt>
      <trkpt lat="49.11986" lon="-0.06525">
        <ele>17</ele>
        <time>2024-09-22T09:03:41Z</time>
      </trkpt>
      <trkpt lat="49.11986" lon="-0.06536">
        <ele>17</ele>
        <time>2024-09-22T09:03:42Z</time>
      </trkpt>
      <trkpt lat="49.11985" lon="-0.0655">
        <ele>17.4</ele>
        <time>2024-09-22T09:03:43Z</time>
      </trkpt>
      <trkpt lat="49.11984" lon="-0.06562">
        <ele>17.6</ele>
        <time>2024-09-22T09:03:44Z</time>
      </trkpt>
      <trkpt lat="49.11984" lon="-0.06573">
        <ele>17.6</ele>
        <time>2024-09-22T09:03:45Z</time>
      </trkpt>
      <trkpt lat="49.11983" lon="-0.06585">
        <ele>17.8</ele>
        <time>2024-09-22T09:03:46Z</time>
      </trkpt>
      <trkpt lat="49.11983" lon="-0.06596">
        <ele>17.8</ele>
        <time>2024-09-22T09:03:47Z</time>
      </trkpt>
      <trkpt lat="49.11983" lon="-0.06607">
        <ele>17.8</ele>
        <time>2024-09-22T09:03:48Z</time>
      </trkpt>
      <trkpt lat="49.11983" lon="-0.06617">
        <ele>18</ele>
        <time>2024-09-22T09:03:49Z</time>
      </trkpt>
      <trkpt lat="49.11984" lon="-0.06627">
        <ele>18.2</ele>
        <time>2024-09-22T09:03:50Z</time>
      </trkpt>
      <trkpt lat="49.11984" lon="-0.06637">
        <ele>18.2</ele>
        <time>2024-09-22T09:03:51Z</time>
      </trkpt>
      <trkpt lat="49.11984" lon="-0.06647">
        <ele>18.4</ele>
        <time>2024-09-22T09:03:52Z</time>
      </trkpt>
      <trkpt lat="49.11985" lon="-0.06657">
        <ele>18.6</ele>
        <time>2024-09-22T09:03:53Z</time>
      </trkpt>
      <trkpt lat="49.11986" lon="-0.06666">
        <ele>18.6</ele>
        <time>2024-09-22T09:03:54Z</time>
      </trkpt>
      <trkpt lat="49.11986" lon="-0.06674">
        <ele>18.8</ele>
        <time>2024-09-22T09:03:55Z</time>
      </trkpt>
      <trkpt lat="49.11987" lon="-0.06685">
        <ele>18.8</ele>
        <time>2024-09-22T09:03:56Z</time>
      </trkpt>
      <trkpt lat="49.11988" lon="-0.06694">
        <ele>19</ele>
        <time>2024-09-22T09:03:57Z</time>
      </trkpt>
      <trkpt lat="49.11989" lon="-0.06702">
        <ele>19</ele>
        <time>2024-09-22T09:03:58Z</time>
      </trkpt>
      <trkpt lat="49.11989" lon="-0.06711">
        <ele>19</ele>
        <time>2024-09-22T09:03:59Z</time>
      </trkpt>
      <trkpt lat="49.1199" lon="-0.06719">
        <ele>19</ele>
        <time>2024-09-22T09:04:00Z</time>
      </trkpt>
      <trkpt lat="49.1199" lon="-0.06726">
        <ele>19.2</ele>
        <time>2024-09-22T09:04:01Z</time>
      </trkpt>
      <trkpt lat="49.11991" lon="-0.06734">
        <ele>19.2</ele>
        <time>2024-09-22T09:04:02Z</time>
      </trkpt>
      <trkpt lat="49.11992" lon="-0.06739">
        <ele>19.2</ele>
        <time>2024-09-22T09:04:03Z</time>
      </trkpt>
      <trkpt lat="49.11994" lon="-0.06745">
        <ele>19.2</ele>
        <time>2024-09-22T09:04:04Z</time>
      </trkpt>
      <trkpt lat="49.11999" lon="-0.0675">
        <ele>19.2</ele>
        <time>2024-09-22T09:04:05Z</time>
      </trkpt>
      <trkpt lat="49.12005" lon="-0.0675">
        <ele>19.2</ele>
        <time>2024-09-22T09:04:06Z</time>
      </trkpt>
      <trkpt lat="49.12011" lon="-0.06749">
        <ele>19.2</ele>
        <time>2024-09-22T09:04:07Z</time>
      </trkpt>
      <trkpt lat="49.12018" lon="-0.06746">
        <ele>19.2</ele>
        <time>2024-09-22T09:04:08Z</time>
      </trkpt>
      <trkpt lat="49.12023" lon="-0.06744">
        <ele>19.2</ele>
        <time>2024-09-22T09:04:09Z</time>
      </trkpt>
      <trkpt lat="49.1203" lon="-0.06741">
        <ele>19.2</ele>
        <time>2024-09-22T09:04:10Z</time>
      </trkpt>
      <trkpt lat="49.12038" lon="-0.06738">
        <ele>19.2</ele>
        <time>2024-09-22T09:04:11Z</time>
      </trkpt>
      <trkpt lat="49.12045" lon="-0.06735">
        <ele>19.2</ele>
        <time>2024-09-22T09:04:12Z</time>
      </trkpt>
      <trkpt lat="49.12053" lon="-0.06732">
        <ele>19</ele>
        <time>2024-09-22T09:04:13Z</time>
      </trkpt>
      <trkpt lat="49.1206" lon="-0.06729">
        <ele>19</ele>
        <time>2024-09-22T09:04:14Z</time>
      </trkpt>
      <trkpt lat="49.12067" lon="-0.06727">
        <ele>19</ele>
        <time>2024-09-22T09:04:15Z</time>
      </trkpt>
      <trkpt lat="49.12075" lon="-0.06724">
        <ele>18.8</ele>
        <time>2024-09-22T09:04:16Z</time>
      </trkpt>
      <trkpt lat="49.12083" lon="-0.06722">
        <ele>18.8</ele>
        <time>2024-09-22T09:04:17Z</time>
      </trkpt>
      <trkpt lat="49.1209" lon="-0.06719">
        <ele>18.6</ele>
        <time>2024-09-22T09:04:18Z</time>
      </trkpt>
      <trkpt lat="49.12097" lon="-0.06717">
        <ele>18.6</ele>
        <time>2024-09-22T09:04:19Z</time>
      </trkpt>
      <trkpt lat="49.12105" lon="-0.06714">
        <ele>18.4</ele>
        <time>2024-09-22T09:04:20Z</time>
      </trkpt>
      <trkpt lat="49.12112" lon="-0.06711">
        <ele>18.2</ele>
        <time>2024-09-22T09:04:21Z</time>
      </trkpt>
      <trkpt lat="49.12119" lon="-0.06708">
        <ele>18</ele>
        <time>2024-09-22T09:04:22Z</time>
      </trkpt>
      <trkpt lat="49.12127" lon="-0.06705">
        <ele>18</ele>
        <time>2024-09-22T09:04:23Z</time>
      </trkpt>
      <trkpt lat="49.12133" lon="-0.06704">
        <ele>18</ele>
        <time>2024-09-22T09:04:24Z</time>
      </trkpt>
      <trkpt lat="49.12141" lon="-0.06701">
        <ele>17.8</ele>
        <time>2024-09-22T09:04:25Z</time>
      </trkpt>
      <trkpt lat="49.1215" lon="-0.06699">
        <ele>17.8</ele>
        <time>2024-09-22T09:04:26Z</time>
      </trkpt>
      <trkpt lat="49.12158" lon="-0.06697">
        <ele>17.8</ele>
        <time>2024-09-22T09:04:27Z</time>
      </trkpt>
      <trkpt lat="49.12163" lon="-0.06696">
        <ele>17.6</ele>
        <time>2024-09-22T09:04:28Z</time>
      </trkpt>
      <trkpt lat="49.12172" lon="-0.06695">
        <ele>17.6</ele>
        <time>2024-09-22T09:04:29Z</time>
      </trkpt>
      <trkpt lat="49.1218" lon="-0.06695">
        <ele>17.6</ele>
        <time>2024-09-22T09:04:30Z</time>
      </trkpt>
      <trkpt lat="49.12187" lon="-0.06694">
        <ele>17.6</ele>
        <time>2024-09-22T09:04:31Z</time>
      </trkpt>
      <trkpt lat="49.12195" lon="-0.06694">
        <ele>17.6</ele>
        <time>2024-09-22T09:04:32Z</time>
      </trkpt>
      <trkpt lat="49.12203" lon="-0.06694">
        <ele>17.6</ele>
        <time>2024-09-22T09:04:33Z</time>
      </trkpt>
      <trkpt lat="49.1221" lon="-0.06694">
        <ele>17.6</ele>
        <time>2024-09-22T09:04:34Z</time>
      </trkpt>
      <trkpt lat="49.12218" lon="-0.06694">
        <ele>17.6</ele>
        <time>2024-09-22T09:04:35Z</time>
      </trkpt>
      <trkpt lat="49.12225" lon="-0.06693">
        <ele>17.8</ele>
        <time>2024-09-22T09:04:36Z</time>
      </trkpt>
      <trkpt lat="49.12232" lon="-0.06693">
        <ele>17.8</ele>
        <time>2024-09-22T09:04:37Z</time>
      </trkpt>
      <trkpt lat="49.12239" lon="-0.06694">
        <ele>17.8</ele>
        <time>2024-09-22T09:04:38Z</time>
      </trkpt>
      <trkpt lat="49.12246" lon="-0.06694">
        <ele>17.8</ele>
        <time>2024-09-22T09:04:39Z</time>
      </trkpt>
      <trkpt lat="49.12254" lon="-0.06694">
        <ele>17.8</ele>
        <time>2024-09-22T09:04:40Z</time>
      </trkpt>
      <trkpt lat="49.12261" lon="-0.06695">
        <ele>17.8</ele>
        <time>2024-09-22T09:04:41Z</time>
      </trkpt>
      <trkpt lat="49.12268" lon="-0.06696">
        <ele>17.8</ele>
        <time>2024-09-22T09:04:42Z</time>
      </trkpt>
      <trkpt lat="49.12277" lon="-0.06696">
        <ele>17.8</ele>
        <time>2024-09-22T09:04:43Z</time>
      </trkpt>
      <trkpt lat="49.12285" lon="-0.06696">
        <ele>17.8</ele>
        <time>2024-09-22T09:04:44Z</time>
      </trkpt>
      <trkpt lat="49.12291" lon="-0.06695">
        <ele>17.8</ele>
        <time>2024-09-22T09:04:45Z</time>
      </trkpt>
      <trkpt lat="49.12298" lon="-0.06695">
        <ele>17.8</ele>
        <time>2024-09-22T09:04:46Z</time>
      </trkpt>
      <trkpt lat="49.12306" lon="-0.06694">
        <ele>17.8</ele>
        <time>2024-09-22T09:04:47Z</time>
      </trkpt>
      <trkpt lat="49.12316" lon="-0.06694">
        <ele>17.8</ele>
        <time>2024-09-22T09:04:48Z</time>
      </trkpt>
      <trkpt lat="49.12324" lon="-0.06694">
        <ele>17.8</ele>
        <time>2024-09-22T09:04:49Z</time>
      </trkpt>
      <trkpt lat="49.12332" lon="-0.06693">
        <ele>17.8</ele>
        <time>2024-09-22T09:04:50Z</time>
      </trkpt>
      <trkpt lat="49.1234" lon="-0.06693">
        <ele>17.6</ele>
        <time>2024-09-22T09:04:51Z</time>
      </trkpt>
      <trkpt lat="49.12348" lon="-0.06693">
        <ele>17.6</ele>
        <time>2024-09-22T09:04:52Z</time>
      </trkpt>
      <trkpt lat="49.12356" lon="-0.06693">
        <ele>17.6</ele>
        <time>2024-09-22T09:04:53Z</time>
      </trkpt>
      <trkpt lat="49.12363" lon="-0.06692">
        <ele>17.6</ele>
        <time>2024-09-22T09:04:54Z</time>
      </trkpt>
      <trkpt lat="49.12369" lon="-0.06692">
        <ele>17.6</ele>
        <time>2024-09-22T09:04:55Z</time>
      </trkpt>
      <trkpt lat="49.12379" lon="-0.06692">
        <ele>17.6</ele>
        <time>2024-09-22T09:04:56Z</time>
      </trkpt>
      <trkpt lat="49.12387" lon="-0.06692">
        <ele>17.4</ele>
        <time>2024-09-22T09:04:57Z</time>
      </trkpt>
      <trkpt lat="49.12394" lon="-0.06692">
        <ele>17.6</ele>
        <time>2024-09-22T09:04:58Z</time>
      </trkpt>
      <trkpt lat="49.12402" lon="-0.06692">
        <ele>17.6</ele>
        <time>2024-09-22T09:04:59Z</time>
      </trkpt>
      <trkpt lat="49.1241" lon="-0.06692">
        <ele>17.6</ele>
        <time>2024-09-22T09:05:00Z</time>
      </trkpt>
      <trkpt lat="49.12418" lon="-0.06691">
        <ele>17.4</ele>
        <time>2024-09-22T09:05:01Z</time>
      </trkpt>
      <trkpt lat="49.12426" lon="-0.06691">
        <ele>17.4</ele>
        <time>2024-09-22T09:05:02Z</time>
      </trkpt>
      <trkpt lat="49.12432" lon="-0.06691">
        <ele>17.4</ele>
        <time>2024-09-22T09:05:03Z</time>
      </trkpt>
      <trkpt lat="49.12442" lon="-0.06691">
        <ele>17.2</ele>
        <time>2024-09-22T09:05:04Z</time>
      </trkpt>
      <trkpt lat="49.1245" lon="-0.06691">
        <ele>17.2</ele>
        <time>2024-09-22T09:05:05Z</time>
      </trkpt>
      <trkpt lat="49.12456" lon="-0.06691">
        <ele>17.2</ele>
        <time>2024-09-22T09:05:06Z</time>
      </trkpt>
      <trkpt lat="49.12464" lon="-0.06691">
        <ele>17.2</ele>
        <time>2024-09-22T09:05:07Z</time>
      </trkpt>
      <trkpt lat="49.12472" lon="-0.06691">
        <ele>17.2</ele>
        <time>2024-09-22T09:05:08Z</time>
      </trkpt>
      <trkpt lat="49.12481" lon="-0.06691">
        <ele>17</ele>
        <time>2024-09-22T09:05:09Z</time>
      </trkpt>
      <trkpt lat="49.12489" lon="-0.0669">
        <ele>17</ele>
        <time>2024-09-22T09:05:10Z</time>
      </trkpt>
      <trkpt lat="49.12496" lon="-0.06691">
        <ele>17</ele>
        <time>2024-09-22T09:05:11Z</time>
      </trkpt>
      <trkpt lat="49.12502" lon="-0.06691">
        <ele>17</ele>
        <time>2024-09-22T09:05:12Z</time>
      </trkpt>
      <trkpt lat="49.12512" lon="-0.06691">
        <ele>17</ele>
        <time>2024-09-22T09:05:13Z</time>
      </trkpt>
      <trkpt lat="49.12519" lon="-0.06691">
        <ele>17</ele>
        <time>2024-09-22T09:05:14Z</time>
      </trkpt>
      <trkpt lat="49.12525" lon="-0.06691">
        <ele>17</ele>
        <time>2024-09-22T09:05:15Z</time>
      </trkpt>
      <trkpt lat="49.12533" lon="-0.06691">
        <ele>16.8</ele>
        <time>2024-09-22T09:05:16Z</time>
      </trkpt>
      <trkpt lat="49.12542" lon="-0.06691">
        <ele>16.8</ele>
        <time>2024-09-22T09:05:17Z</time>
      </trkpt>
      <trkpt lat="49.12549" lon="-0.06691">
        <ele>16.8</ele>
        <time>2024-09-22T09:05:18Z</time>
      </trkpt>
      <trkpt lat="49.12558" lon="-0.06691">
        <ele>16.8</ele>
        <time>2024-09-22T09:05:19Z</time>
      </trkpt>
      <trkpt lat="49.12566" lon="-0.06691">
        <ele>16.8</ele>
        <time>2024-09-22T09:05:20Z</time>
      </trkpt>
      <trkpt lat="49.12574" lon="-0.06691">
        <ele>16.8</ele>
        <time>2024-09-22T09:05:21Z</time>
      </trkpt>
      <trkpt lat="49.12582" lon="-0.0669">
        <ele>16.6</ele>
        <time>2024-09-22T09:05:22Z</time>
      </trkpt>
      <trkpt lat="49.1259" lon="-0.0669">
        <ele>16.6</ele>
        <time>2024-09-22T09:05:23Z</time>
      </trkpt>
      <trkpt lat="49.12599" lon="-0.0669">
        <ele>16.6</ele>
        <time>2024-09-22T09:05:24Z</time>
      </trkpt>
      <trkpt lat="49.12607" lon="-0.0669">
        <ele>16.6</ele>
        <time>2024-09-22T09:05:25Z</time>
      </trkpt>
      <trkpt lat="49.12615" lon="-0.0669">
        <ele>16.6</ele>
        <time>2024-09-22T09:05:26Z</time>
      </trkpt>
      <trkpt lat="49.12622" lon="-0.0669">
        <ele>16.6</ele>
        <time>2024-09-22T09:05:27Z</time>
      </trkpt>
      <trkpt lat="49.1263" lon="-0.0669">
        <ele>16.6</ele>
        <time>2024-09-22T09:05:28Z</time>
      </trkpt>
      <trkpt lat="49.12638" lon="-0.0669">
        <ele>16.6</ele>
        <time>2024-09-22T09:05:29Z</time>
      </trkpt>
      <trkpt lat="49.12646" lon="-0.06689">
        <ele>16.6</ele>
        <time>2024-09-22T09:05:30Z</time>
      </trkpt>
      <trkpt lat="49.12656" lon="-0.06689">
        <ele>16.6</ele>
        <time>2024-09-22T09:05:31Z</time>
      </trkpt>
      <trkpt lat="49.12665" lon="-0.06689">
        <ele>16.6</ele>
        <time>2024-09-22T09:05:32Z</time>
      </trkpt>
      <trkpt lat="49.12673" lon="-0.06689">
        <ele>16.6</ele>
        <time>2024-09-22T09:05:33Z</time>
      </trkpt>
      <trkpt lat="49.12681" lon="-0.06689">
        <ele>16.6</ele>
        <time>2024-09-22T09:05:34Z</time>
      </trkpt>
      <trkpt lat="49.12689" lon="-0.0669">
        <ele>16.6</ele>
        <time>2024-09-22T09:05:35Z</time>
      </trkpt>
      <trkpt lat="49.12695" lon="-0.06689">
        <ele>16.6</ele>
        <time>2024-09-22T09:05:36Z</time>
      </trkpt>
      <trkpt lat="49.12705" lon="-0.06689">
        <ele>16.6</ele>
        <time>2024-09-22T09:05:37Z</time>
      </trkpt>
      <trkpt lat="49.12713" lon="-0.06689">
        <ele>16.6</ele>
        <time>2024-09-22T09:05:38Z</time>
      </trkpt>
      <trkpt lat="49.12719" lon="-0.06689">
        <ele>16.6</ele>
        <time>2024-09-22T09:05:39Z</time>
      </trkpt>
      <trkpt lat="49.12729" lon="-0.06689">
        <ele>16.6</ele>
        <time>2024-09-22T09:05:40Z</time>
      </trkpt>
      <trkpt lat="49.12736" lon="-0.06689">
        <ele>16.6</ele>
        <time>2024-09-22T09:05:41Z</time>
      </trkpt>
      <trkpt lat="49.12744" lon="-0.06689">
        <ele>16.6</ele>
        <time>2024-09-22T09:05:42Z</time>
      </trkpt>
      <trkpt lat="49.12752" lon="-0.06689">
        <ele>16.6</ele>
        <time>2024-09-22T09:05:43Z</time>
      </trkpt>
      <trkpt lat="49.1276" lon="-0.06689">
        <ele>16.8</ele>
        <time>2024-09-22T09:05:44Z</time>
      </trkpt>
      <trkpt lat="49.12766" lon="-0.06689">
        <ele>16.8</ele>
        <time>2024-09-22T09:05:45Z</time>
      </trkpt>
      <trkpt lat="49.12775" lon="-0.06689">
        <ele>16.8</ele>
        <time>2024-09-22T09:05:46Z</time>
      </trkpt>
      <trkpt lat="49.12783" lon="-0.0669">
        <ele>16.8</ele>
        <time>2024-09-22T09:05:47Z</time>
      </trkpt>
      <trkpt lat="49.12789" lon="-0.06692">
        <ele>16.8</ele>
        <time>2024-09-22T09:05:48Z</time>
      </trkpt>
      <trkpt lat="49.12797" lon="-0.06694">
        <ele>16.8</ele>
        <time>2024-09-22T09:05:49Z</time>
      </trkpt>
      <trkpt lat="49.12805" lon="-0.06696">
        <ele>16.8</ele>
        <time>2024-09-22T09:05:50Z</time>
      </trkpt>
      <trkpt lat="49.12813" lon="-0.06699">
        <ele>16.8</ele>
        <time>2024-09-22T09:05:51Z</time>
      </trkpt>
      <trkpt lat="49.12823" lon="-0.06702">
        <ele>17</ele>
        <time>2024-09-22T09:05:52Z</time>
      </trkpt>
      <trkpt lat="49.12831" lon="-0.06705">
        <ele>17</ele>
        <time>2024-09-22T09:05:53Z</time>
      </trkpt>
      <trkpt lat="49.12839" lon="-0.06708">
        <ele>17</ele>
        <time>2024-09-22T09:05:54Z</time>
      </trkpt>
      <trkpt lat="49.12847" lon="-0.06711">
        <ele>17</ele>
        <time>2024-09-22T09:05:55Z</time>
      </trkpt>
      <trkpt lat="49.12854" lon="-0.06714">
        <ele>17</ele>
        <time>2024-09-22T09:05:56Z</time>
      </trkpt>
      <trkpt lat="49.12862" lon="-0.06718">
        <ele>17</ele>
        <time>2024-09-22T09:05:57Z</time>
      </trkpt>
      <trkpt lat="49.1287" lon="-0.06722">
        <ele>17</ele>
        <time>2024-09-22T09:05:58Z</time>
      </trkpt>
      <trkpt lat="49.12878" lon="-0.06726">
        <ele>17</ele>
        <time>2024-09-22T09:05:59Z</time>
      </trkpt>
      <trkpt lat="49.12886" lon="-0.06731">
        <ele>17</ele>
        <time>2024-09-22T09:06:00Z</time>
      </trkpt>
      <trkpt lat="49.12894" lon="-0.06737">
        <ele>17</ele>
        <time>2024-09-22T09:06:01Z</time>
      </trkpt>
      <trkpt lat="49.12902" lon="-0.06742">
        <ele>17</ele>
        <time>2024-09-22T09:06:02Z</time>
      </trkpt>
      <trkpt lat="49.12908" lon="-0.06746">
        <ele>16.8</ele>
        <time>2024-09-22T09:06:03Z</time>
      </trkpt>
      <trkpt lat="49.12917" lon="-0.06752">
        <ele>16.8</ele>
        <time>2024-09-22T09:06:04Z</time>
      </trkpt>
      <trkpt lat="49.12925" lon="-0.06757">
        <ele>16.8</ele>
        <time>2024-09-22T09:06:05Z</time>
      </trkpt>
      <trkpt lat="49.12933" lon="-0.06762">
        <ele>16.6</ele>
        <time>2024-09-22T09:06:06Z</time>
      </trkpt>
      <trkpt lat="49.12941" lon="-0.06767">
        <ele>16.6</ele>
        <time>2024-09-22T09:06:07Z</time>
      </trkpt>
      <trkpt lat="49.12949" lon="-0.06773">
        <ele>16.6</ele>
        <time>2024-09-22T09:06:08Z</time>
      </trkpt>
      <trkpt lat="49.12955" lon="-0.06777">
        <ele>16.4</ele>
        <time>2024-09-22T09:06:09Z</time>
      </trkpt>
      <trkpt lat="49.12965" lon="-0.06784">
        <ele>16.4</ele>
        <time>2024-09-22T09:06:10Z</time>
      </trkpt>
      <trkpt lat="49.12973" lon="-0.06789">
        <ele>16.4</ele>
        <time>2024-09-22T09:06:11Z</time>
      </trkpt>
      <trkpt lat="49.1298" lon="-0.06792">
        <ele>16.4</ele>
        <time>2024-09-22T09:06:12Z</time>
      </trkpt>
      <trkpt lat="49.1299" lon="-0.06796">
        <ele>16.4</ele>
        <time>2024-09-22T09:06:13Z</time>
      </trkpt>
      <trkpt lat="49.12999" lon="-0.06798">
        <ele>16.4</ele>
        <time>2024-09-22T09:06:14Z</time>
      </trkpt>
      <trkpt lat="49.13006" lon="-0.06799">
        <ele>16.4</ele>
        <time>2024-09-22T09:06:15Z</time>
      </trkpt>
      <trkpt lat="49.13015" lon="-0.06799">
        <ele>16.2</ele>
        <time>2024-09-22T09:06:16Z</time>
      </trkpt>
      <trkpt lat="49.13025" lon="-0.06798">
        <ele>16.2</ele>
        <time>2024-09-22T09:06:17Z</time>
      </trkpt>
      <trkpt lat="49.13032" lon="-0.06797">
        <ele>16.2</ele>
        <time>2024-09-22T09:06:18Z</time>
      </trkpt>
      <trkpt lat="49.13041" lon="-0.06796">
        <ele>16.2</ele>
        <time>2024-09-22T09:06:19Z</time>
      </trkpt>
      <trkpt lat="49.13049" lon="-0.06794">
        <ele>16.2</ele>
        <time>2024-09-22T09:06:20Z</time>
      </trkpt>
      <trkpt lat="49.13055" lon="-0.06792">
        <ele>16</ele>
        <time>2024-09-22T09:06:21Z</time>
      </trkpt>
      <trkpt lat="49.13064" lon="-0.0679">
        <ele>16.2</ele>
        <time>2024-09-22T09:06:22Z</time>
      </trkpt>
      <trkpt lat="49.13072" lon="-0.06788">
        <ele>16</ele>
        <time>2024-09-22T09:06:23Z</time>
      </trkpt>
      <trkpt lat="49.13078" lon="-0.06787">
        <ele>16</ele>
        <time>2024-09-22T09:06:24Z</time>
      </trkpt>
      <trkpt lat="49.13088" lon="-0.06785">
        <ele>16</ele>
        <time>2024-09-22T09:06:25Z</time>
      </trkpt>
      <trkpt lat="49.13096" lon="-0.06783">
        <ele>16</ele>
        <time>2024-09-22T09:06:26Z</time>
      </trkpt>
      <trkpt lat="49.13103" lon="-0.06781">
        <ele>15.8</ele>
        <time>2024-09-22T09:06:27Z</time>
      </trkpt>
      <trkpt lat="49.13113" lon="-0.06779">
        <ele>15.8</ele>
        <time>2024-09-22T09:06:28Z</time>
      </trkpt>
      <trkpt lat="49.13121" lon="-0.06777">
        <ele>15.8</ele>
        <time>2024-09-22T09:06:29Z</time>
      </trkpt>
      <trkpt lat="49.13128" lon="-0.06776">
        <ele>15.6</ele>
        <time>2024-09-22T09:06:30Z</time>
      </trkpt>
      <trkpt lat="49.13137" lon="-0.06774">
        <ele>15.6</ele>
        <time>2024-09-22T09:06:31Z</time>
      </trkpt>
      <trkpt lat="49.13144" lon="-0.06772">
        <ele>15.6</ele>
        <time>2024-09-22T09:06:32Z</time>
      </trkpt>
      <trkpt lat="49.13152" lon="-0.0677">
        <ele>15.6</ele>
        <time>2024-09-22T09:06:33Z</time>
      </trkpt>
      <trkpt lat="49.13161" lon="-0.06769">
        <ele>15.6</ele>
        <time>2024-09-22T09:06:34Z</time>
      </trkpt>
      <trkpt lat="49.13171" lon="-0.06767">
        <ele>15.6</ele>
        <time>2024-09-22T09:06:35Z</time>
      </trkpt>
      <trkpt lat="49.13178" lon="-0.06766">
        <ele>15.6</ele>
        <time>2024-09-22T09:06:36Z</time>
      </trkpt>
      <trkpt lat="49.13188" lon="-0.06764">
        <ele>15.4</ele>
        <time>2024-09-22T09:06:37Z</time>
      </trkpt>
      <trkpt lat="49.13196" lon="-0.06762">
        <ele>15.4</ele>
        <time>2024-09-22T09:06:38Z</time>
      </trkpt>
      <trkpt lat="49.13203" lon="-0.0676">
        <ele>15.4</ele>
        <time>2024-09-22T09:06:39Z</time>
      </trkpt>
      <trkpt lat="49.13212" lon="-0.06759">
        <ele>15.4</ele>
        <time>2024-09-22T09:06:40Z</time>
      </trkpt>
      <trkpt lat="49.13221" lon="-0.06758">
        <ele>15.4</ele>
        <time>2024-09-22T09:06:41Z</time>
      </trkpt>
      <trkpt lat="49.13227" lon="-0.06757">
        <ele>15.4</ele>
        <time>2024-09-22T09:06:42Z</time>
      </trkpt>
      <trkpt lat="49.13237" lon="-0.06756">
        <ele>15.4</ele>
        <time>2024-09-22T09:06:43Z</time>
      </trkpt>
      <trkpt lat="49.13245" lon="-0.06756">
        <ele>15.4</ele>
        <time>2024-09-22T09:06:44Z</time>
      </trkpt>
      <trkpt lat="49.13252" lon="-0.06756">
        <ele>15.4</ele>
        <time>2024-09-22T09:06:45Z</time>
      </trkpt>
      <trkpt lat="49.13261" lon="-0.06755">
        <ele>15.4</ele>
        <time>2024-09-22T09:06:46Z</time>
      </trkpt>
      <trkpt lat="49.13269" lon="-0.06755">
        <ele>15.4</ele>
        <time>2024-09-22T09:06:47Z</time>
      </trkpt>
      <trkpt lat="49.13276" lon="-0.06755">
        <ele>15.4</ele>
        <time>2024-09-22T09:06:48Z</time>
      </trkpt>
      <trkpt lat="49.13286" lon="-0.06755">
        <ele>15.4</ele>
        <time>2024-09-22T09:06:49Z</time>
      </trkpt>
      <trkpt lat="49.13294" lon="-0.06755">
        <ele>15.4</ele>
        <time>2024-09-22T09:06:50Z</time>
      </trkpt>
      <trkpt lat="49.133" lon="-0.06755">
        <ele>15.4</ele>
        <time>2024-09-22T09:06:51Z</time>
      </trkpt>
      <trkpt lat="49.13309" lon="-0.06755">
        <ele>15.4</ele>
        <time>2024-09-22T09:06:52Z</time>
      </trkpt>
      <trkpt lat="49.13317" lon="-0.06755">
        <ele>15.4</ele>
        <time>2024-09-22T09:06:53Z</time>
      </trkpt>
      <trkpt lat="49.13323" lon="-0.06755">
        <ele>15.4</ele>
        <time>2024-09-22T09:06:54Z</time>
      </trkpt>
      <trkpt lat="49.13331" lon="-0.06755">
        <ele>15.4</ele>
        <time>2024-09-22T09:06:55Z</time>
      </trkpt>
      <trkpt lat="49.13339" lon="-0.06755">
        <ele>15.4</ele>
        <time>2024-09-22T09:06:56Z</time>
      </trkpt>
      <trkpt lat="49.13347" lon="-0.06755">
        <ele>15.4</ele>
        <time>2024-09-22T09:06:57Z</time>
      </trkpt>
      <trkpt lat="49.13354" lon="-0.06756">
        <ele>15.4</ele>
        <time>2024-09-22T09:06:58Z</time>
      </trkpt>
      <trkpt lat="49.13363" lon="-0.06756">
        <ele>15.4</ele>
        <time>2024-09-22T09:06:59Z</time>
      </trkpt>
      <trkpt lat="49.13369" lon="-0.06757">
        <ele>15.4</ele>
        <time>2024-09-22T09:07:00Z</time>
      </trkpt>
      <trkpt lat="49.13379" lon="-0.06757">
        <ele>15.4</ele>
        <time>2024-09-22T09:07:01Z</time>
      </trkpt>
      <trkpt lat="49.13387" lon="-0.06758">
        <ele>15.4</ele>
        <time>2024-09-22T09:07:02Z</time>
      </trkpt>
      <trkpt lat="49.13395" lon="-0.06759">
        <ele>15.4</ele>
        <time>2024-09-22T09:07:03Z</time>
      </trkpt>
      <trkpt lat="49.13403" lon="-0.0676">
        <ele>15.4</ele>
        <time>2024-09-22T09:07:04Z</time>
      </trkpt>
      <trkpt lat="49.13411" lon="-0.06762">
        <ele>15.4</ele>
        <time>2024-09-22T09:07:05Z</time>
      </trkpt>
      <trkpt lat="49.13419" lon="-0.06766">
        <ele>15.2</ele>
        <time>2024-09-22T09:07:06Z</time>
      </trkpt>
      <trkpt lat="49.13426" lon="-0.06772">
        <ele>15.2</ele>
        <time>2024-09-22T09:07:07Z</time>
      </trkpt>
      <trkpt lat="49.13432" lon="-0.06781">
        <ele>15.2</ele>
        <time>2024-09-22T09:07:08Z</time>
      </trkpt>
      <trkpt lat="49.13436" lon="-0.06789">
        <ele>15.2</ele>
        <time>2024-09-22T09:07:09Z</time>
      </trkpt>
      <trkpt lat="49.1344" lon="-0.06803">
        <ele>15.2</ele>
        <time>2024-09-22T09:07:10Z</time>
      </trkpt>
      <trkpt lat="49.13441" lon="-0.06815">
        <ele>15.2</ele>
        <time>2024-09-22T09:07:11Z</time>
      </trkpt>
      <trkpt lat="49.13441" lon="-0.06826">
        <ele>15.2</ele>
        <time>2024-09-22T09:07:12Z</time>
      </trkpt>
      <trkpt lat="49.13441" lon="-0.0684">
        <ele>15.2</ele>
        <time>2024-09-22T09:07:13Z</time>
      </trkpt>
      <trkpt lat="49.1344" lon="-0.06853">
        <ele>15.2</ele>
        <time>2024-09-22T09:07:14Z</time>
      </trkpt>
      <trkpt lat="49.13439" lon="-0.06863">
        <ele>15.2</ele>
        <time>2024-09-22T09:07:15Z</time>
      </trkpt>
      <trkpt lat="49.13439" lon="-0.06875">
        <ele>15</ele>
        <time>2024-09-22T09:07:16Z</time>
      </trkpt>
      <trkpt lat="49.13438" lon="-0.06887">
        <ele>15</ele>
        <time>2024-09-22T09:07:17Z</time>
      </trkpt>
      <trkpt lat="49.13437" lon="-0.069">
        <ele>15</ele>
        <time>2024-09-22T09:07:18Z</time>
      </trkpt>
      <trkpt lat="49.13436" lon="-0.06915">
        <ele>15</ele>
        <time>2024-09-22T09:07:19Z</time>
      </trkpt>
      <trkpt lat="49.13435" lon="-0.06927">
        <ele>15</ele>
        <time>2024-09-22T09:07:20Z</time>
      </trkpt>
      <trkpt lat="49.13435" lon="-0.0694">
        <ele>15</ele>
        <time>2024-09-22T09:07:21Z</time>
      </trkpt>
      <trkpt lat="49.13435" lon="-0.06953">
        <ele>14.8</ele>
        <time>2024-09-22T09:07:22Z</time>
      </trkpt>
      <trkpt lat="49.13434" lon="-0.06966">
        <ele>14.8</ele>
        <time>2024-09-22T09:07:23Z</time>
      </trkpt>
      <trkpt lat="49.13434" lon="-0.06979">
        <ele>14.8</ele>
        <time>2024-09-22T09:07:24Z</time>
      </trkpt>
      <trkpt lat="49.13433" lon="-0.06992">
        <ele>14.8</ele>
        <time>2024-09-22T09:07:25Z</time>
      </trkpt>
      <trkpt lat="49.13432" lon="-0.07005">
        <ele>14.8</ele>
        <time>2024-09-22T09:07:26Z</time>
      </trkpt>
      <trkpt lat="49.13432" lon="-0.07015">
        <ele>14.8</ele>
        <time>2024-09-22T09:07:27Z</time>
      </trkpt>
      <trkpt lat="49.13431" lon="-0.07032">
        <ele>14.8</ele>
        <time>2024-09-22T09:07:28Z</time>
      </trkpt>
      <trkpt lat="49.1343" lon="-0.07045">
        <ele>14.8</ele>
        <time>2024-09-22T09:07:29Z</time>
      </trkpt>
      <trkpt lat="49.1343" lon="-0.07056">
        <ele>14.8</ele>
        <time>2024-09-22T09:07:30Z</time>
      </trkpt>
      <trkpt lat="49.13429" lon="-0.07071">
        <ele>14.8</ele>
        <time>2024-09-22T09:07:31Z</time>
      </trkpt>
      <trkpt lat="49.13429" lon="-0.07084">
        <ele>14.8</ele>
        <time>2024-09-22T09:07:32Z</time>
      </trkpt>
      <trkpt lat="49.13428" lon="-0.07097">
        <ele>15</ele>
        <time>2024-09-22T09:07:33Z</time>
      </trkpt>
      <trkpt lat="49.13428" lon="-0.0711">
        <ele>15</ele>
        <time>2024-09-22T09:07:34Z</time>
      </trkpt>
      <trkpt lat="49.13427" lon="-0.07122">
        <ele>15</ele>
        <time>2024-09-22T09:07:35Z</time>
      </trkpt>
      <trkpt lat="49.13427" lon="-0.07133">
        <ele>15</ele>
        <time>2024-09-22T09:07:36Z</time>
      </trkpt>
      <trkpt lat="49.13426" lon="-0.07145">
        <ele>15</ele>
        <time>2024-09-22T09:07:37Z</time>
      </trkpt>
      <trkpt lat="49.13425" lon="-0.07161">
        <ele>15</ele>
        <time>2024-09-22T09:07:38Z</time>
      </trkpt>
      <trkpt lat="49.13425" lon="-0.07173">
        <ele>15.2</ele>
        <time>2024-09-22T09:07:39Z</time>
      </trkpt>
      <trkpt lat="49.13424" lon="-0.07186">
        <ele>15.2</ele>
        <time>2024-09-22T09:07:40Z</time>
      </trkpt>
      <trkpt lat="49.13423" lon="-0.07199">
        <ele>15.2</ele>
        <time>2024-09-22T09:07:41Z</time>
      </trkpt>
      <trkpt lat="49.13423" lon="-0.07212">
        <ele>15.2</ele>
        <time>2024-09-22T09:07:42Z</time>
      </trkpt>
      <trkpt lat="49.13423" lon="-0.07224">
        <ele>15.2</ele>
        <time>2024-09-22T09:07:43Z</time>
      </trkpt>
      <trkpt lat="49.13423" lon="-0.07237">
        <ele>15.2</ele>
        <time>2024-09-22T09:07:44Z</time>
      </trkpt>
      <trkpt lat="49.13422" lon="-0.07249">
        <ele>15.2</ele>
        <time>2024-09-22T09:07:45Z</time>
      </trkpt>
      <trkpt lat="49.13421" lon="-0.07262">
        <ele>15</ele>
        <time>2024-09-22T09:07:46Z</time>
      </trkpt>
      <trkpt lat="49.13421" lon="-0.07275">
        <ele>15</ele>
        <time>2024-09-22T09:07:47Z</time>
      </trkpt>
      <trkpt lat="49.1342" lon="-0.07288">
        <ele>15</ele>
        <time>2024-09-22T09:07:48Z</time>
      </trkpt>
      <trkpt lat="49.13419" lon="-0.073">
        <ele>15</ele>
        <time>2024-09-22T09:07:49Z</time>
      </trkpt>
      <trkpt lat="49.13419" lon="-0.07313">
        <ele>15</ele>
        <time>2024-09-22T09:07:50Z</time>
      </trkpt>
      <trkpt lat="49.13418" lon="-0.07326">
        <ele>15.2</ele>
        <time>2024-09-22T09:07:51Z</time>
      </trkpt>
      <trkpt lat="49.13418" lon="-0.07339">
        <ele>15.2</ele>
        <time>2024-09-22T09:07:52Z</time>
      </trkpt>
      <trkpt lat="49.13417" lon="-0.07351">
        <ele>15.2</ele>
        <time>2024-09-22T09:07:53Z</time>
      </trkpt>
      <trkpt lat="49.13417" lon="-0.07361">
        <ele>15.4</ele>
        <time>2024-09-22T09:07:54Z</time>
      </trkpt>
      <trkpt lat="49.13416" lon="-0.07377">
        <ele>15</ele>
        <time>2024-09-22T09:07:55Z</time>
      </trkpt>
      <trkpt lat="49.13415" lon="-0.07389">
        <ele>15</ele>
        <time>2024-09-22T09:07:56Z</time>
      </trkpt>
      <trkpt lat="49.13415" lon="-0.07402">
        <ele>15</ele>
        <time>2024-09-22T09:07:57Z</time>
      </trkpt>
      <trkpt lat="49.13414" lon="-0.07412">
        <ele>15.2</ele>
        <time>2024-09-22T09:07:58Z</time>
      </trkpt>
      <trkpt lat="49.13413" lon="-0.07424">
        <ele>15.2</ele>
        <time>2024-09-22T09:07:59Z</time>
      </trkpt>
      <trkpt lat="49.13413" lon="-0.07439">
        <ele>15</ele>
        <time>2024-09-22T09:08:00Z</time>
      </trkpt>
      <trkpt lat="49.13412" lon="-0.07451">
        <ele>15</ele>
        <time>2024-09-22T09:08:01Z</time>
      </trkpt>
      <trkpt lat="49.13412" lon="-0.07463">
        <ele>15</ele>
        <time>2024-09-22T09:08:02Z</time>
      </trkpt>
      <trkpt lat="49.13411" lon="-0.07476">
        <ele>15</ele>
        <time>2024-09-22T09:08:03Z</time>
      </trkpt>
      <trkpt lat="49.13411" lon="-0.07488">
        <ele>15</ele>
        <time>2024-09-22T09:08:04Z</time>
      </trkpt>
      <trkpt lat="49.1341" lon="-0.075">
        <ele>14.8</ele>
        <time>2024-09-22T09:08:05Z</time>
      </trkpt>
      <trkpt lat="49.1341" lon="-0.07512">
        <ele>15</ele>
        <time>2024-09-22T09:08:06Z</time>
      </trkpt>
      <trkpt lat="49.13409" lon="-0.07525">
        <ele>15</ele>
        <time>2024-09-22T09:08:07Z</time>
      </trkpt>
      <trkpt lat="49.13409" lon="-0.07538">
        <ele>15</ele>
        <time>2024-09-22T09:08:08Z</time>
      </trkpt>
      <trkpt lat="49.13408" lon="-0.07551">
        <ele>15</ele>
        <time>2024-09-22T09:08:09Z</time>
      </trkpt>
      <trkpt lat="49.13408" lon="-0.07564">
        <ele>14.8</ele>
        <time>2024-09-22T09:08:10Z</time>
      </trkpt>
      <trkpt lat="49.13406" lon="-0.07576">
        <ele>14.8</ele>
        <time>2024-09-22T09:08:11Z</time>
      </trkpt>
      <trkpt lat="49.13405" lon="-0.07589">
        <ele>14.4</ele>
        <time>2024-09-22T09:08:12Z</time>
      </trkpt>
      <trkpt lat="49.13404" lon="-0.07601">
        <ele>14.4</ele>
        <time>2024-09-22T09:08:13Z</time>
      </trkpt>
      <trkpt lat="49.13402" lon="-0.07613">
        <ele>14.4</ele>
        <time>2024-09-22T09:08:14Z</time>
      </trkpt>
      <trkpt lat="49.134" lon="-0.07626">
        <ele>14.2</ele>
        <time>2024-09-22T09:08:15Z</time>
      </trkpt>
      <trkpt lat="49.13398" lon="-0.07638">
        <ele>14</ele>
        <time>2024-09-22T09:08:16Z</time>
      </trkpt>
      <trkpt lat="49.13395" lon="-0.07651">
        <ele>13.8</ele>
        <time>2024-09-22T09:08:17Z</time>
      </trkpt>
      <trkpt lat="49.13393" lon="-0.07663">
        <ele>13.8</ele>
        <time>2024-09-22T09:08:18Z</time>
      </trkpt>
      <trkpt lat="49.13392" lon="-0.07675">
        <ele>13.8</ele>
        <time>2024-09-22T09:08:19Z</time>
      </trkpt>
      <trkpt lat="49.13391" lon="-0.07687">
        <ele>13.8</ele>
        <time>2024-09-22T09:08:20Z</time>
      </trkpt>
      <trkpt lat="49.13391" lon="-0.07697">
        <ele>13.8</ele>
        <time>2024-09-22T09:08:21Z</time>
      </trkpt>
      <trkpt lat="49.13392" lon="-0.07712">
        <ele>13.8</ele>
        <time>2024-09-22T09:08:22Z</time>
      </trkpt>
      <trkpt lat="49.13393" lon="-0.07724">
        <ele>13.8</ele>
        <time>2024-09-22T09:08:23Z</time>
      </trkpt>
      <trkpt lat="49.13395" lon="-0.07736">
        <ele>13.8</ele>
        <time>2024-09-22T09:08:24Z</time>
      </trkpt>
      <trkpt lat="49.13398" lon="-0.07747">
        <ele>13.8</ele>
        <time>2024-09-22T09:08:25Z</time>
      </trkpt>
      <trkpt lat="49.13402" lon="-0.07758">
        <ele>13.8</ele>
        <time>2024-09-22T09:08:26Z</time>
      </trkpt>
      <trkpt lat="49.13404" lon="-0.07766">
        <ele>13.8</ele>
        <time>2024-09-22T09:08:27Z</time>
      </trkpt>
      <trkpt lat="49.13408" lon="-0.07779">
        <ele>13.8</ele>
        <time>2024-09-22T09:08:28Z</time>
      </trkpt>
      <trkpt lat="49.13412" lon="-0.0779">
        <ele>13.8</ele>
        <time>2024-09-22T09:08:29Z</time>
      </trkpt>
      <trkpt lat="49.13415" lon="-0.078">
        <ele>14</ele>
        <time>2024-09-22T09:08:30Z</time>
      </trkpt>
      <trkpt lat="49.13419" lon="-0.0781">
        <ele>14</ele>
        <time>2024-09-22T09:08:31Z</time>
      </trkpt>
      <trkpt lat="49.13422" lon="-0.07821">
        <ele>14.2</ele>
        <time>2024-09-22T09:08:32Z</time>
      </trkpt>
      <trkpt lat="49.13426" lon="-0.07832">
        <ele>14.2</ele>
        <time>2024-09-22T09:08:33Z</time>
      </trkpt>
      <trkpt lat="49.13429" lon="-0.07842">
        <ele>14.4</ele>
        <time>2024-09-22T09:08:34Z</time>
      </trkpt>
      <trkpt lat="49.13432" lon="-0.07852">
        <ele>14.6</ele>
        <time>2024-09-22T09:08:35Z</time>
      </trkpt>
      <trkpt lat="49.13436" lon="-0.07861">
        <ele>14.6</ele>
        <time>2024-09-22T09:08:36Z</time>
      </trkpt>
      <trkpt lat="49.13439" lon="-0.07871">
        <ele>14.8</ele>
        <time>2024-09-22T09:08:37Z</time>
      </trkpt>
      <trkpt lat="49.13441" lon="-0.07879">
        <ele>14.8</ele>
        <time>2024-09-22T09:08:38Z</time>
      </trkpt>
      <trkpt lat="49.13444" lon="-0.07888">
        <ele>15</ele>
        <time>2024-09-22T09:08:39Z</time>
      </trkpt>
      <trkpt lat="49.13447" lon="-0.07896">
        <ele>15</ele>
        <time>2024-09-22T09:08:40Z</time>
      </trkpt>
      <trkpt lat="49.13449" lon="-0.07903">
        <ele>15</ele>
        <time>2024-09-22T09:08:41Z</time>
      </trkpt>
      <trkpt lat="49.1345" lon="-0.07908">
        <ele>15</ele>
        <time>2024-09-22T09:08:42Z</time>
      </trkpt>
      <trkpt lat="49.13453" lon="-0.07916">
        <ele>15.2</ele>
        <time>2024-09-22T09:08:43Z</time>
      </trkpt>
      <trkpt lat="49.13455" lon="-0.07922">
        <ele>15.2</ele>
        <time>2024-09-22T09:08:44Z</time>
      </trkpt>
      <trkpt lat="49.13457" lon="-0.07928">
        <ele>15.4</ele>
        <time>2024-09-22T09:08:45Z</time>
      </trkpt>
      <trkpt lat="49.1346" lon="-0.07934">
        <ele>15.4</ele>
        <time>2024-09-22T09:08:46Z</time>
      </trkpt>
      <trkpt lat="49.13462" lon="-0.07941">
        <ele>15.4</ele>
        <time>2024-09-22T09:08:47Z</time>
      </trkpt>
      <trkpt lat="49.13464" lon="-0.07947">
        <ele>15.6</ele>
        <time>2024-09-22T09:08:48Z</time>
      </trkpt>
      <trkpt lat="49.13466" lon="-0.07957">
        <ele>15.8</ele>
        <time>2024-09-22T09:08:49Z</time>
      </trkpt>
      <trkpt lat="49.13468" lon="-0.07965">
        <ele>16</ele>
        <time>2024-09-22T09:08:50Z</time>
      </trkpt>
      <trkpt lat="49.13471" lon="-0.07973">
        <ele>16.2</ele>
        <time>2024-09-22T09:08:51Z</time>
      </trkpt>
      <trkpt lat="49.13475" lon="-0.07981">
        <ele>16.4</ele>
        <time>2024-09-22T09:08:52Z</time>
      </trkpt>
      <trkpt lat="49.13478" lon="-0.07989">
        <ele>16.6</ele>
        <time>2024-09-22T09:08:53Z</time>
      </trkpt>
      <trkpt lat="49.13481" lon="-0.07997">
        <ele>16.6</ele>
        <time>2024-09-22T09:08:54Z</time>
      </trkpt>
      <trkpt lat="49.13484" lon="-0.08005">
        <ele>16.8</ele>
        <time>2024-09-22T09:08:55Z</time>
      </trkpt>
      <trkpt lat="49.13487" lon="-0.08014">
        <ele>16.8</ele>
        <time>2024-09-22T09:08:56Z</time>
      </trkpt>
      <trkpt lat="49.13491" lon="-0.08022">
        <ele>16.8</ele>
        <time>2024-09-22T09:08:57Z</time>
      </trkpt>
      <trkpt lat="49.13494" lon="-0.08031">
        <ele>16.8</ele>
        <time>2024-09-22T09:08:58Z</time>
      </trkpt>
      <trkpt lat="49.13497" lon="-0.0804">
        <ele>16.8</ele>
        <time>2024-09-22T09:08:59Z</time>
      </trkpt>
      <trkpt lat="49.13501" lon="-0.08049">
        <ele>16.8</ele>
        <time>2024-09-22T09:09:00Z</time>
      </trkpt>
      <trkpt lat="49.13504" lon="-0.08057">
        <ele>16.8</ele>
        <time>2024-09-22T09:09:01Z</time>
      </trkpt>
      <trkpt lat="49.13508" lon="-0.08066">
        <ele>16.8</ele>
        <time>2024-09-22T09:09:02Z</time>
      </trkpt>
      <trkpt lat="49.13511" lon="-0.08074">
        <ele>16.8</ele>
        <time>2024-09-22T09:09:03Z</time>
      </trkpt>
      <trkpt lat="49.13516" lon="-0.08085">
        <ele>16.8</ele>
        <time>2024-09-22T09:09:04Z</time>
      </trkpt>
      <trkpt lat="49.13519" lon="-0.08093">
        <ele>16.8</ele>
        <time>2024-09-22T09:09:05Z</time>
      </trkpt>
      <trkpt lat="49.13524" lon="-0.08102">
        <ele>16.8</ele>
        <time>2024-09-22T09:09:06Z</time>
      </trkpt>
      <trkpt lat="49.13528" lon="-0.08109">
        <ele>16.8</ele>
        <time>2024-09-22T09:09:07Z</time>
      </trkpt>
      <trkpt lat="49.13532" lon="-0.08116">
        <ele>16.8</ele>
        <time>2024-09-22T09:09:08Z</time>
      </trkpt>
      <trkpt lat="49.13536" lon="-0.08124">
        <ele>16.8</ele>
        <time>2024-09-22T09:09:09Z</time>
      </trkpt>
      <trkpt lat="49.13539" lon="-0.0813">
        <ele>17</ele>
        <time>2024-09-22T09:09:10Z</time>
      </trkpt>
      <trkpt lat="49.13543" lon="-0.08136">
        <ele>17.2</ele>
        <time>2024-09-22T09:09:11Z</time>
      </trkpt>
      <trkpt lat="49.13547" lon="-0.08142">
        <ele>17.2</ele>
        <time>2024-09-22T09:09:12Z</time>
      </trkpt>
      <trkpt lat="49.13551" lon="-0.08148">
        <ele>17.2</ele>
        <time>2024-09-22T09:09:13Z</time>
      </trkpt>
      <trkpt lat="49.13555" lon="-0.08154">
        <ele>17.2</ele>
        <time>2024-09-22T09:09:14Z</time>
      </trkpt>
      <trkpt lat="49.13559" lon="-0.08161">
        <ele>17.2</ele>
        <time>2024-09-22T09:09:15Z</time>
      </trkpt>
      <trkpt lat="49.13562" lon="-0.08167">
        <ele>17.4</ele>
        <time>2024-09-22T09:09:16Z</time>
      </trkpt>
      <trkpt lat="49.13565" lon="-0.08174">
        <ele>17.4</ele>
        <time>2024-09-22T09:09:17Z</time>
      </trkpt>
      <trkpt lat="49.13568" lon="-0.08179">
        <ele>17.4</ele>
        <time>2024-09-22T09:09:18Z</time>
      </trkpt>
      <trkpt lat="49.13572" lon="-0.08187">
        <ele>17.4</ele>
        <time>2024-09-22T09:09:19Z</time>
      </trkpt>
      <trkpt lat="49.13575" lon="-0.08193">
        <ele>17.4</ele>
        <time>2024-09-22T09:09:20Z</time>
      </trkpt>
      <trkpt lat="49.13578" lon="-0.08198">
        <ele>17.6</ele>
        <time>2024-09-22T09:09:21Z</time>
      </trkpt>
      <trkpt lat="49.1358" lon="-0.08204">
        <ele>17.6</ele>
        <time>2024-09-22T09:09:22Z</time>
      </trkpt>
      <trkpt lat="49.13582" lon="-0.08208">
        <ele>17.8</ele>
        <time>2024-09-22T09:09:23Z</time>
      </trkpt>
      <trkpt lat="49.13584" lon="-0.08212">
        <ele>17.8</ele>
        <time>2024-09-22T09:09:24Z</time>
      </trkpt>
      <trkpt lat="49.13587" lon="-0.08217">
        <ele>18</ele>
        <time>2024-09-22T09:09:25Z</time>
      </trkpt>
      <trkpt lat="49.13589" lon="-0.08221">
        <ele>18.2</ele>
        <time>2024-09-22T09:09:26Z</time>
      </trkpt>
      <trkpt lat="49.13593" lon="-0.08226">
        <ele>18.2</ele>
        <time>2024-09-22T09:09:27Z</time>
      </trkpt>
      <trkpt lat="49.13597" lon="-0.0823">
        <ele>18.2</ele>
        <time>2024-09-22T09:09:28Z</time>
      </trkpt>
      <trkpt lat="49.13601" lon="-0.08234">
        <ele>18.2</ele>
        <time>2024-09-22T09:09:29Z</time>
      </trkpt>
      <trkpt lat="49.13605" lon="-0.08239">
        <ele>18.2</ele>
        <time>2024-09-22T09:09:30Z</time>
      </trkpt>
      <trkpt lat="49.1361" lon="-0.08244">
        <ele>18.2</ele>
        <time>2024-09-22T09:09:31Z</time>
      </trkpt>
      <trkpt lat="49.13614" lon="-0.0825">
        <ele>18.2</ele>
        <time>2024-09-22T09:09:32Z</time>
      </trkpt>
      <trkpt lat="49.13618" lon="-0.08255">
        <ele>18.2</ele>
        <time>2024-09-22T09:09:33Z</time>
      </trkpt>
      <trkpt lat="49.13622" lon="-0.08261">
        <ele>18.2</ele>
        <time>2024-09-22T09:09:34Z</time>
      </trkpt>
      <trkpt lat="49.13626" lon="-0.08267">
        <ele>18.2</ele>
        <time>2024-09-22T09:09:35Z</time>
      </trkpt>
      <trkpt lat="49.13629" lon="-0.08272">
        <ele>18</ele>
        <time>2024-09-22T09:09:36Z</time>
      </trkpt>
      <trkpt lat="49.13634" lon="-0.0828">
        <ele>17.8</ele>
        <time>2024-09-22T09:09:37Z</time>
      </trkpt>
      <trkpt lat="49.13639" lon="-0.08286">
        <ele>17.8</ele>
        <time>2024-09-22T09:09:38Z</time>
      </trkpt>
      <trkpt lat="49.13644" lon="-0.0829">
        <ele>17.6</ele>
        <time>2024-09-22T09:09:39Z</time>
      </trkpt>
      <trkpt lat="49.13651" lon="-0.08293">
        <ele>17.6</ele>
        <time>2024-09-22T09:09:40Z</time>
      </trkpt>
      <trkpt lat="49.13657" lon="-0.08294">
        <ele>17.4</ele>
        <time>2024-09-22T09:09:41Z</time>
      </trkpt>
      <trkpt lat="49.13664" lon="-0.08294">
        <ele>17.2</ele>
        <time>2024-09-22T09:09:42Z</time>
      </trkpt>
      <trkpt lat="49.13671" lon="-0.08293">
        <ele>17.2</ele>
        <time>2024-09-22T09:09:43Z</time>
      </trkpt>
      <trkpt lat="49.13679" lon="-0.08294">
        <ele>17.2</ele>
        <time>2024-09-22T09:09:44Z</time>
      </trkpt>
      <trkpt lat="49.13687" lon="-0.08295">
        <ele>17</ele>
        <time>2024-09-22T09:09:45Z</time>
      </trkpt>
      <trkpt lat="49.13695" lon="-0.08298">
        <ele>16.6</ele>
        <time>2024-09-22T09:09:46Z</time>
      </trkpt>
      <trkpt lat="49.13703" lon="-0.08301">
        <ele>16.2</ele>
        <time>2024-09-22T09:09:47Z</time>
      </trkpt>
      <trkpt lat="49.13711" lon="-0.08306">
        <ele>15.8</ele>
        <time>2024-09-22T09:09:48Z</time>
      </trkpt>
      <trkpt lat="49.13718" lon="-0.0831">
        <ele>15.4</ele>
        <time>2024-09-22T09:09:49Z</time>
      </trkpt>
      <trkpt lat="49.13725" lon="-0.08315">
        <ele>15.2</ele>
        <time>2024-09-22T09:09:50Z</time>
      </trkpt>
      <trkpt lat="49.13733" lon="-0.0832">
        <ele>15</ele>
        <time>2024-09-22T09:09:51Z</time>
      </trkpt>
      <trkpt lat="49.1374" lon="-0.08326">
        <ele>14.6</ele>
        <time>2024-09-22T09:09:52Z</time>
      </trkpt>
      <trkpt lat="49.13747" lon="-0.08333">
        <ele>14</ele>
        <time>2024-09-22T09:09:53Z</time>
      </trkpt>
      <trkpt lat="49.13753" lon="-0.08339">
        <ele>13.8</ele>
        <time>2024-09-22T09:09:54Z</time>
      </trkpt>
      <trkpt lat="49.13759" lon="-0.08346">
        <ele>13.6</ele>
        <time>2024-09-22T09:09:55Z</time>
      </trkpt>
      <trkpt lat="49.13765" lon="-0.08353">
        <ele>13.4</ele>
        <time>2024-09-22T09:09:56Z</time>
      </trkpt>
      <trkpt lat="49.1377" lon="-0.08361">
        <ele>13.4</ele>
        <time>2024-09-22T09:09:57Z</time>
      </trkpt>
      <trkpt lat="49.13776" lon="-0.08368">
        <ele>13.2</ele>
        <time>2024-09-22T09:09:58Z</time>
      </trkpt>
      <trkpt lat="49.13781" lon="-0.08376">
        <ele>13.2</ele>
        <time>2024-09-22T09:09:59Z</time>
      </trkpt>
      <trkpt lat="49.13786" lon="-0.08385">
        <ele>13.2</ele>
        <time>2024-09-22T09:10:00Z</time>
      </trkpt>
      <trkpt lat="49.1379" lon="-0.08393">
        <ele>13.2</ele>
        <time>2024-09-22T09:10:01Z</time>
      </trkpt>
      <trkpt lat="49.13795" lon="-0.08402">
        <ele>13.2</ele>
        <time>2024-09-22T09:10:02Z</time>
      </trkpt>
      <trkpt lat="49.138" lon="-0.0841">
        <ele>13.2</ele>
        <time>2024-09-22T09:10:03Z</time>
      </trkpt>
      <trkpt lat="49.13805" lon="-0.08418">
        <ele>13.2</ele>
        <time>2024-09-22T09:10:04Z</time>
      </trkpt>
      <trkpt lat="49.1381" lon="-0.08425">
        <ele>13.2</ele>
        <time>2024-09-22T09:10:05Z</time>
      </trkpt>
      <trkpt lat="49.13816" lon="-0.0843">
        <ele>13.2</ele>
        <time>2024-09-22T09:10:06Z</time>
      </trkpt>
      <trkpt lat="49.13821" lon="-0.08432">
        <ele>13.2</ele>
        <time>2024-09-22T09:10:07Z</time>
      </trkpt>
      <trkpt lat="49.1383" lon="-0.08433">
        <ele>13.4</ele>
        <time>2024-09-22T09:10:08Z</time>
      </trkpt>
      <trkpt lat="49.13837" lon="-0.08432">
        <ele>13.4</ele>
        <time>2024-09-22T09:10:09Z</time>
      </trkpt>
      <trkpt lat="49.13844" lon="-0.0843">
        <ele>13.4</ele>
        <time>2024-09-22T09:10:10Z</time>
      </trkpt>
      <trkpt lat="49.13851" lon="-0.08428">
        <ele>13.4</ele>
        <time>2024-09-22T09:10:11Z</time>
      </trkpt>
      <trkpt lat="49.13858" lon="-0.08427">
        <ele>13.6</ele>
        <time>2024-09-22T09:10:12Z</time>
      </trkpt>
      <trkpt lat="49.13866" lon="-0.08425">
        <ele>13.8</ele>
        <time>2024-09-22T09:10:13Z</time>
      </trkpt>
      <trkpt lat="49.13872" lon="-0.08423">
        <ele>13.8</ele>
        <time>2024-09-22T09:10:14Z</time>
      </trkpt>
      <trkpt lat="49.13879" lon="-0.08421">
        <ele>14</ele>
        <time>2024-09-22T09:10:15Z</time>
      </trkpt>
      <trkpt lat="49.13884" lon="-0.08419">
        <ele>14.2</ele>
        <time>2024-09-22T09:10:16Z</time>
      </trkpt>
      <trkpt lat="49.13892" lon="-0.08415">
        <ele>14.2</ele>
        <time>2024-09-22T09:10:17Z</time>
      </trkpt>
      <trkpt lat="49.13898" lon="-0.08411">
        <ele>14.4</ele>
        <time>2024-09-22T09:10:18Z</time>
      </trkpt>
      <trkpt lat="49.13904" lon="-0.08407">
        <ele>14.4</ele>
        <time>2024-09-22T09:10:19Z</time>
      </trkpt>
      <trkpt lat="49.13909" lon="-0.08401">
        <ele>14.4</ele>
        <time>2024-09-22T09:10:20Z</time>
      </trkpt>
      <trkpt lat="49.13914" lon="-0.08395">
        <ele>14.8</ele>
        <time>2024-09-22T09:10:21Z</time>
      </trkpt>
      <trkpt lat="49.13919" lon="-0.0839">
        <ele>15</ele>
        <time>2024-09-22T09:10:22Z</time>
      </trkpt>
      <trkpt lat="49.13925" lon="-0.08382">
        <ele>15.4</ele>
        <time>2024-09-22T09:10:23Z</time>
      </trkpt>
      <trkpt lat="49.1393" lon="-0.08376">
        <ele>15.6</ele>
        <time>2024-09-22T09:10:24Z</time>
      </trkpt>
      <trkpt lat="49.13935" lon="-0.08369">
        <ele>16</ele>
        <time>2024-09-22T09:10:25Z</time>
      </trkpt>
      <trkpt lat="49.13941" lon="-0.08363">
        <ele>16</ele>
        <time>2024-09-22T09:10:26Z</time>
      </trkpt>
      <trkpt lat="49.13946" lon="-0.08357">
        <ele>16.2</ele>
        <time>2024-09-22T09:10:27Z</time>
      </trkpt>
      <trkpt lat="49.13951" lon="-0.08352">
        <ele>16.6</ele>
        <time>2024-09-22T09:10:28Z</time>
      </trkpt>
      <trkpt lat="49.13959" lon="-0.08345">
        <ele>17</ele>
        <time>2024-09-22T09:10:29Z</time>
      </trkpt>
      <trkpt lat="49.13965" lon="-0.0834">
        <ele>17.2</ele>
        <time>2024-09-22T09:10:30Z</time>
      </trkpt>
      <trkpt lat="49.13971" lon="-0.08335">
        <ele>17.4</ele>
        <time>2024-09-22T09:10:31Z</time>
      </trkpt>
      <trkpt lat="49.13977" lon="-0.0833">
        <ele>17.8</ele>
        <time>2024-09-22T09:10:32Z</time>
      </trkpt>
      <trkpt lat="49.13983" lon="-0.08326">
        <ele>18</ele>
        <time>2024-09-22T09:10:33Z</time>
      </trkpt>
      <trkpt lat="49.13989" lon="-0.08322">
        <ele>18.2</ele>
        <time>2024-09-22T09:10:34Z</time>
      </trkpt>
      <trkpt lat="49.13995" lon="-0.08318">
        <ele>18.4</ele>
        <time>2024-09-22T09:10:35Z</time>
      </trkpt>
      <trkpt lat="49.14002" lon="-0.08314">
        <ele>18.6</ele>
        <time>2024-09-22T09:10:36Z</time>
      </trkpt>
      <trkpt lat="49.14008" lon="-0.0831">
        <ele>18.6</ele>
        <time>2024-09-22T09:10:37Z</time>
      </trkpt>
      <trkpt lat="49.14015" lon="-0.08306">
        <ele>18.6</ele>
        <time>2024-09-22T09:10:38Z</time>
      </trkpt>
      <trkpt lat="49.14022" lon="-0.08302">
        <ele>18.8</ele>
        <time>2024-09-22T09:10:39Z</time>
      </trkpt>
      <trkpt lat="49.14029" lon="-0.08298">
        <ele>18.8</ele>
        <time>2024-09-22T09:10:40Z</time>
      </trkpt>
      <trkpt lat="49.14037" lon="-0.08293">
        <ele>18.8</ele>
        <time>2024-09-22T09:10:41Z</time>
      </trkpt>
      <trkpt lat="49.14044" lon="-0.08289">
        <ele>19</ele>
        <time>2024-09-22T09:10:42Z</time>
      </trkpt>
      <trkpt lat="49.1405" lon="-0.08284">
        <ele>19</ele>
        <time>2024-09-22T09:10:43Z</time>
      </trkpt>
      <trkpt lat="49.14057" lon="-0.0828">
        <ele>19</ele>
        <time>2024-09-22T09:10:44Z</time>
      </trkpt>
      <trkpt lat="49.14063" lon="-0.08275">
        <ele>19</ele>
        <time>2024-09-22T09:10:45Z</time>
      </trkpt>
      <trkpt lat="49.1407" lon="-0.0827">
        <ele>19</ele>
        <time>2024-09-22T09:10:46Z</time>
      </trkpt>
      <trkpt lat="49.14077" lon="-0.08265">
        <ele>19</ele>
        <time>2024-09-22T09:10:47Z</time>
      </trkpt>
      <trkpt lat="49.14082" lon="-0.08261">
        <ele>19</ele>
        <time>2024-09-22T09:10:48Z</time>
      </trkpt>
      <trkpt lat="49.1409" lon="-0.08255">
        <ele>19</ele>
        <time>2024-09-22T09:10:49Z</time>
      </trkpt>
      <trkpt lat="49.14097" lon="-0.0825">
        <ele>19</ele>
        <time>2024-09-22T09:10:50Z</time>
      </trkpt>
      <trkpt lat="49.14106" lon="-0.08244">
        <ele>19</ele>
        <time>2024-09-22T09:10:51Z</time>
      </trkpt>
      <trkpt lat="49.14114" lon="-0.08239">
        <ele>19</ele>
        <time>2024-09-22T09:10:52Z</time>
      </trkpt>
      <trkpt lat="49.14122" lon="-0.08233">
        <ele>19</ele>
        <time>2024-09-22T09:10:53Z</time>
      </trkpt>
      <trkpt lat="49.14129" lon="-0.08229">
        <ele>19</ele>
        <time>2024-09-22T09:10:54Z</time>
      </trkpt>
      <trkpt lat="49.14137" lon="-0.08224">
        <ele>19</ele>
        <time>2024-09-22T09:10:55Z</time>
      </trkpt>
      <trkpt lat="49.14144" lon="-0.08219">
        <ele>19</ele>
        <time>2024-09-22T09:10:56Z</time>
      </trkpt>
      <trkpt lat="49.14152" lon="-0.08213">
        <ele>19</ele>
        <time>2024-09-22T09:10:57Z</time>
      </trkpt>
      <trkpt lat="49.1416" lon="-0.08208">
        <ele>19</ele>
        <time>2024-09-22T09:10:58Z</time>
      </trkpt>
      <trkpt lat="49.14167" lon="-0.08203">
        <ele>18.8</ele>
        <time>2024-09-22T09:10:59Z</time>
      </trkpt>
      <trkpt lat="49.14175" lon="-0.08198">
        <ele>18.8</ele>
        <time>2024-09-22T09:11:00Z</time>
      </trkpt>
      <trkpt lat="49.14183" lon="-0.08193">
        <ele>18.6</ele>
        <time>2024-09-22T09:11:01Z</time>
      </trkpt>
      <trkpt lat="49.1419" lon="-0.08187">
        <ele>18.4</ele>
        <time>2024-09-22T09:11:02Z</time>
      </trkpt>
      <trkpt lat="49.14198" lon="-0.08182">
        <ele>18.4</ele>
        <time>2024-09-22T09:11:03Z</time>
      </trkpt>
      <trkpt lat="49.14205" lon="-0.08177">
        <ele>18.4</ele>
        <time>2024-09-22T09:11:04Z</time>
      </trkpt>
      <trkpt lat="49.14213" lon="-0.08172">
        <ele>18.2</ele>
        <time>2024-09-22T09:11:05Z</time>
      </trkpt>
      <trkpt lat="49.1422" lon="-0.08166">
        <ele>18.2</ele>
        <time>2024-09-22T09:11:06Z</time>
      </trkpt>
      <trkpt lat="49.14227" lon="-0.08161">
        <ele>18.2</ele>
        <time>2024-09-22T09:11:07Z</time>
      </trkpt>
      <trkpt lat="49.14235" lon="-0.08156">
        <ele>17.8</ele>
        <time>2024-09-22T09:11:08Z</time>
      </trkpt>
      <trkpt lat="49.14242" lon="-0.08151">
        <ele>17.8</ele>
        <time>2024-09-22T09:11:09Z</time>
      </trkpt>
      <trkpt lat="49.14249" lon="-0.08146">
        <ele>17.8</ele>
        <time>2024-09-22T09:11:10Z</time>
      </trkpt>
      <trkpt lat="49.14257" lon="-0.08141">
        <ele>17.6</ele>
        <time>2024-09-22T09:11:11Z</time>
      </trkpt>
      <trkpt lat="49.14264" lon="-0.08136">
        <ele>17.4</ele>
        <time>2024-09-22T09:11:12Z</time>
      </trkpt>
      <trkpt lat="49.14272" lon="-0.08131">
        <ele>17.4</ele>
        <time>2024-09-22T09:11:13Z</time>
      </trkpt>
      <trkpt lat="49.1428" lon="-0.08126">
        <ele>17.4</ele>
        <time>2024-09-22T09:11:14Z</time>
      </trkpt>
      <trkpt lat="49.14288" lon="-0.0812">
        <ele>17.2</ele>
        <time>2024-09-22T09:11:15Z</time>
      </trkpt>
      <trkpt lat="49.14296" lon="-0.08115">
        <ele>17.2</ele>
        <time>2024-09-22T09:11:16Z</time>
      </trkpt>
      <trkpt lat="49.14304" lon="-0.0811">
        <ele>17.2</ele>
        <time>2024-09-22T09:11:17Z</time>
      </trkpt>
      <trkpt lat="49.14311" lon="-0.08105">
        <ele>17.2</ele>
        <time>2024-09-22T09:11:18Z</time>
      </trkpt>
      <trkpt lat="49.14319" lon="-0.081">
        <ele>17.2</ele>
        <time>2024-09-22T09:11:19Z</time>
      </trkpt>
      <trkpt lat="49.14327" lon="-0.08096">
        <ele>17.2</ele>
        <time>2024-09-22T09:11:20Z</time>
      </trkpt>
      <trkpt lat="49.14335" lon="-0.08091">
        <ele>17.2</ele>
        <time>2024-09-22T09:11:21Z</time>
      </trkpt>
      <trkpt lat="49.14343" lon="-0.08086">
        <ele>17</ele>
        <time>2024-09-22T09:11:22Z</time>
      </trkpt>
      <trkpt lat="49.14351" lon="-0.08081">
        <ele>17</ele>
        <time>2024-09-22T09:11:23Z</time>
      </trkpt>
      <trkpt lat="49.14359" lon="-0.08076">
        <ele>17</ele>
        <time>2024-09-22T09:11:24Z</time>
      </trkpt>
      <trkpt lat="49.14367" lon="-0.08072">
        <ele>16.8</ele>
        <time>2024-09-22T09:11:25Z</time>
      </trkpt>
      <trkpt lat="49.14374" lon="-0.08067">
        <ele>16.8</ele>
        <time>2024-09-22T09:11:26Z</time>
      </trkpt>
      <trkpt lat="49.14381" lon="-0.08062">
        <ele>16.8</ele>
        <time>2024-09-22T09:11:27Z</time>
      </trkpt>
      <trkpt lat="49.14388" lon="-0.08057">
        <ele>16.8</ele>
        <time>2024-09-22T09:11:28Z</time>
      </trkpt>
      <trkpt lat="49.14395" lon="-0.08052">
        <ele>16.6</ele>
        <time>2024-09-22T09:11:29Z</time>
      </trkpt>
      <trkpt lat="49.14402" lon="-0.08047">
        <ele>16.6</ele>
        <time>2024-09-22T09:11:30Z</time>
      </trkpt>
      <trkpt lat="49.1441" lon="-0.08042">
        <ele>16.4</ele>
        <time>2024-09-22T09:11:31Z</time>
      </trkpt>
      <trkpt lat="49.14416" lon="-0.08038">
        <ele>16.4</ele>
        <time>2024-09-22T09:11:32Z</time>
      </trkpt>
      <trkpt lat="49.14424" lon="-0.08033">
        <ele>16.4</ele>
        <time>2024-09-22T09:11:33Z</time>
      </trkpt>
      <trkpt lat="49.14432" lon="-0.08028">
        <ele>16.4</ele>
        <time>2024-09-22T09:11:34Z</time>
      </trkpt>
      <trkpt lat="49.14441" lon="-0.08023">
        <ele>16.2</ele>
        <time>2024-09-22T09:11:35Z</time>
      </trkpt>
      <trkpt lat="49.14448" lon="-0.08018">
        <ele>16.2</ele>
        <time>2024-09-22T09:11:36Z</time>
      </trkpt>
      <trkpt lat="49.14456" lon="-0.08014">
        <ele>16</ele>
        <time>2024-09-22T09:11:37Z</time>
      </trkpt>
      <trkpt lat="49.14463" lon="-0.08012">
        <ele>16</ele>
        <time>2024-09-22T09:11:38Z</time>
      </trkpt>
      <trkpt lat="49.14471" lon="-0.0801">
        <ele>16</ele>
        <time>2024-09-22T09:11:39Z</time>
      </trkpt>
      <trkpt lat="49.14478" lon="-0.08011">
        <ele>15.8</ele>
        <time>2024-09-22T09:11:40Z</time>
      </trkpt>
      <trkpt lat="49.14486" lon="-0.08013">
        <ele>15.8</ele>
        <time>2024-09-22T09:11:41Z</time>
      </trkpt>
      <trkpt lat="49.14494" lon="-0.08016">
        <ele>15.8</ele>
        <time>2024-09-22T09:11:42Z</time>
      </trkpt>
      <trkpt lat="49.14501" lon="-0.08021">
        <ele>15.8</ele>
        <time>2024-09-22T09:11:43Z</time>
      </trkpt>
      <trkpt lat="49.14508" lon="-0.08026">
        <ele>15.8</ele>
        <time>2024-09-22T09:11:44Z</time>
      </trkpt>
      <trkpt lat="49.14513" lon="-0.0803">
        <ele>15.6</ele>
        <time>2024-09-22T09:11:45Z</time>
      </trkpt>
      <trkpt lat="49.14518" lon="-0.08033">
        <ele>15.6</ele>
        <time>2024-09-22T09:11:46Z</time>
      </trkpt>
      <trkpt lat="49.14523" lon="-0.08037">
        <ele>15.4</ele>
        <time>2024-09-22T09:11:47Z</time>
      </trkpt>
      <trkpt lat="49.14529" lon="-0.08038">
        <ele>15.4</ele>
        <time>2024-09-22T09:11:48Z</time>
      </trkpt>
      <trkpt lat="49.14534" lon="-0.0804">
        <ele>15.4</ele>
        <time>2024-09-22T09:11:49Z</time>
      </trkpt>
      <trkpt lat="49.14543" lon="-0.08041">
        <ele>15.2</ele>
        <time>2024-09-22T09:11:50Z</time>
      </trkpt>
      <trkpt lat="49.14551" lon="-0.0804">
        <ele>15.2</ele>
        <time>2024-09-22T09:11:51Z</time>
      </trkpt>
      <trkpt lat="49.14558" lon="-0.08038">
        <ele>15</ele>
        <time>2024-09-22T09:11:52Z</time>
      </trkpt>
      <trkpt lat="49.14565" lon="-0.08036">
        <ele>15</ele>
        <time>2024-09-22T09:11:53Z</time>
      </trkpt>
      <trkpt lat="49.14572" lon="-0.08033">
        <ele>14.8</ele>
        <time>2024-09-22T09:11:54Z</time>
      </trkpt>
      <trkpt lat="49.14578" lon="-0.08031">
        <ele>14.8</ele>
        <time>2024-09-22T09:11:55Z</time>
      </trkpt>
      <trkpt lat="49.14587" lon="-0.08028">
        <ele>14.8</ele>
        <time>2024-09-22T09:11:56Z</time>
      </trkpt>
      <trkpt lat="49.14595" lon="-0.08026">
        <ele>14.8</ele>
        <time>2024-09-22T09:11:57Z</time>
      </trkpt>
      <trkpt lat="49.14603" lon="-0.08024">
        <ele>14.8</ele>
        <time>2024-09-22T09:11:58Z</time>
      </trkpt>
      <trkpt lat="49.1461" lon="-0.08022">
        <ele>14.8</ele>
        <time>2024-09-22T09:11:59Z</time>
      </trkpt>
      <trkpt lat="49.14618" lon="-0.0802">
        <ele>14.8</ele>
        <time>2024-09-22T09:12:00Z</time>
      </trkpt>
      <trkpt lat="49.14623" lon="-0.08019">
        <ele>14.8</ele>
        <time>2024-09-22T09:12:01Z</time>
      </trkpt>
      <trkpt lat="49.14632" lon="-0.08018">
        <ele>14.8</ele>
        <time>2024-09-22T09:12:02Z</time>
      </trkpt>
      <trkpt lat="49.1464" lon="-0.08017">
        <ele>14.8</ele>
        <time>2024-09-22T09:12:03Z</time>
      </trkpt>
      <trkpt lat="49.14647" lon="-0.08017">
        <ele>14.8</ele>
        <time>2024-09-22T09:12:04Z</time>
      </trkpt>
      <trkpt lat="49.14655" lon="-0.08019">
        <ele>14.8</ele>
        <time>2024-09-22T09:12:05Z</time>
      </trkpt>
      <trkpt lat="49.14662" lon="-0.08021">
        <ele>14.8</ele>
        <time>2024-09-22T09:12:06Z</time>
      </trkpt>
      <trkpt lat="49.14669" lon="-0.08024">
        <ele>15</ele>
        <time>2024-09-22T09:12:07Z</time>
      </trkpt>
      <trkpt lat="49.14676" lon="-0.08029">
        <ele>15</ele>
        <time>2024-09-22T09:12:08Z</time>
      </trkpt>
      <trkpt lat="49.14682" lon="-0.08034">
        <ele>15.2</ele>
        <time>2024-09-22T09:12:09Z</time>
      </trkpt>
      <trkpt lat="49.14689" lon="-0.0804">
        <ele>15.4</ele>
        <time>2024-09-22T09:12:10Z</time>
      </trkpt>
      <trkpt lat="49.14695" lon="-0.08047">
        <ele>15.4</ele>
        <time>2024-09-22T09:12:11Z</time>
      </trkpt>
      <trkpt lat="49.14701" lon="-0.08053">
        <ele>15.4</ele>
        <time>2024-09-22T09:12:12Z</time>
      </trkpt>
      <trkpt lat="49.14708" lon="-0.08059">
        <ele>15.6</ele>
        <time>2024-09-22T09:12:13Z</time>
      </trkpt>
      <trkpt lat="49.14714" lon="-0.08065">
        <ele>15.6</ele>
        <time>2024-09-22T09:12:14Z</time>
      </trkpt>
      <trkpt lat="49.1472" lon="-0.08072">
        <ele>15.6</ele>
        <time>2024-09-22T09:12:15Z</time>
      </trkpt>
      <trkpt lat="49.14725" lon="-0.08076">
        <ele>15.8</ele>
        <time>2024-09-22T09:12:16Z</time>
      </trkpt>
      <trkpt lat="49.14732" lon="-0.08082">
        <ele>15.8</ele>
        <time>2024-09-22T09:12:17Z</time>
      </trkpt>
      <trkpt lat="49.14739" lon="-0.08088">
        <ele>15.8</ele>
        <time>2024-09-22T09:12:18Z</time>
      </trkpt>
      <trkpt lat="49.14745" lon="-0.08093">
        <ele>15.8</ele>
        <time>2024-09-22T09:12:19Z</time>
      </trkpt>
      <trkpt lat="49.14751" lon="-0.08098">
        <ele>15.8</ele>
        <time>2024-09-22T09:12:20Z</time>
      </trkpt>
      <trkpt lat="49.14757" lon="-0.08102">
        <ele>15.8</ele>
        <time>2024-09-22T09:12:21Z</time>
      </trkpt>
      <trkpt lat="49.14762" lon="-0.08106">
        <ele>15.8</ele>
        <time>2024-09-22T09:12:22Z</time>
      </trkpt>
      <trkpt lat="49.14769" lon="-0.08111">
        <ele>15.8</ele>
        <time>2024-09-22T09:12:23Z</time>
      </trkpt>
      <trkpt lat="49.14775" lon="-0.08116">
        <ele>15.8</ele>
        <time>2024-09-22T09:12:24Z</time>
      </trkpt>
      <trkpt lat="49.14781" lon="-0.0812">
        <ele>15.8</ele>
        <time>2024-09-22T09:12:25Z</time>
      </trkpt>
      <trkpt lat="49.14789" lon="-0.08127">
        <ele>15.8</ele>
        <time>2024-09-22T09:12:26Z</time>
      </trkpt>
      <trkpt lat="49.14796" lon="-0.08133">
        <ele>15.8</ele>
        <time>2024-09-22T09:12:27Z</time>
      </trkpt>
      <trkpt lat="49.14803" lon="-0.08138">
        <ele>15.6</ele>
        <time>2024-09-22T09:12:28Z</time>
      </trkpt>
      <trkpt lat="49.14811" lon="-0.08143">
        <ele>15.6</ele>
        <time>2024-09-22T09:12:29Z</time>
      </trkpt>
      <trkpt lat="49.14818" lon="-0.08149">
        <ele>15.6</ele>
        <time>2024-09-22T09:12:30Z</time>
      </trkpt>
      <trkpt lat="49.14825" lon="-0.08154">
        <ele>15.6</ele>
        <time>2024-09-22T09:12:31Z</time>
      </trkpt>
      <trkpt lat="49.14832" lon="-0.08159">
        <ele>15.6</ele>
        <time>2024-09-22T09:12:32Z</time>
      </trkpt>
      <trkpt lat="49.14838" lon="-0.08163">
        <ele>15.6</ele>
        <time>2024-09-22T09:12:33Z</time>
      </trkpt>
      <trkpt lat="49.14845" lon="-0.08169">
        <ele>15.6</ele>
        <time>2024-09-22T09:12:34Z</time>
      </trkpt>
      <trkpt lat="49.14854" lon="-0.08176">
        <ele>15.6</ele>
        <time>2024-09-22T09:12:35Z</time>
      </trkpt>
      <trkpt lat="49.1486" lon="-0.08182">
        <ele>15.4</ele>
        <time>2024-09-22T09:12:36Z</time>
      </trkpt>
      <trkpt lat="49.14866" lon="-0.08186">
        <ele>15.2</ele>
        <time>2024-09-22T09:12:37Z</time>
      </trkpt>
      <trkpt lat="49.14874" lon="-0.08194">
        <ele>15</ele>
        <time>2024-09-22T09:12:38Z</time>
      </trkpt>
      <trkpt lat="49.14881" lon="-0.082">
        <ele>15</ele>
        <time>2024-09-22T09:12:39Z</time>
      </trkpt>
      <trkpt lat="49.14888" lon="-0.08207">
        <ele>15</ele>
        <time>2024-09-22T09:12:40Z</time>
      </trkpt>
      <trkpt lat="49.14893" lon="-0.08213">
        <ele>15</ele>
        <time>2024-09-22T09:12:41Z</time>
      </trkpt>
      <trkpt lat="49.14901" lon="-0.08222">
        <ele>14.8</ele>
        <time>2024-09-22T09:12:42Z</time>
      </trkpt>
      <trkpt lat="49.14908" lon="-0.08229">
        <ele>14.8</ele>
        <time>2024-09-22T09:12:43Z</time>
      </trkpt>
      <trkpt lat="49.14915" lon="-0.08237">
        <ele>14.8</ele>
        <time>2024-09-22T09:12:44Z</time>
      </trkpt>
      <trkpt lat="49.14922" lon="-0.08244">
        <ele>14.8</ele>
        <time>2024-09-22T09:12:45Z</time>
      </trkpt>
      <trkpt lat="49.14928" lon="-0.08253">
        <ele>14.6</ele>
        <time>2024-09-22T09:12:46Z</time>
      </trkpt>
      <trkpt lat="49.14934" lon="-0.08262">
        <ele>14.6</ele>
        <time>2024-09-22T09:12:47Z</time>
      </trkpt>
      <trkpt lat="49.14939" lon="-0.08272">
        <ele>14.6</ele>
        <time>2024-09-22T09:12:48Z</time>
      </trkpt>
      <trkpt lat="49.14943" lon="-0.08279">
        <ele>14.6</ele>
        <time>2024-09-22T09:12:49Z</time>
      </trkpt>
      <trkpt lat="49.14949" lon="-0.08291">
        <ele>14.4</ele>
        <time>2024-09-22T09:12:50Z</time>
      </trkpt>
      <trkpt lat="49.14954" lon="-0.08301">
        <ele>14.2</ele>
        <time>2024-09-22T09:12:51Z</time>
      </trkpt>
      <trkpt lat="49.14958" lon="-0.08311">
        <ele>14.2</ele>
        <time>2024-09-22T09:12:52Z</time>
      </trkpt>
      <trkpt lat="49.14963" lon="-0.08321">
        <ele>14</ele>
        <time>2024-09-22T09:12:53Z</time>
      </trkpt>
      <trkpt lat="49.14968" lon="-0.08331">
        <ele>14</ele>
        <time>2024-09-22T09:12:54Z</time>
      </trkpt>
      <trkpt lat="49.14973" lon="-0.0834">
        <ele>14</ele>
        <time>2024-09-22T09:12:55Z</time>
      </trkpt>
      <trkpt lat="49.14978" lon="-0.0835">
        <ele>14</ele>
        <time>2024-09-22T09:12:56Z</time>
      </trkpt>
      <trkpt lat="49.14984" lon="-0.0836">
        <ele>13.8</ele>
        <time>2024-09-22T09:12:57Z</time>
      </trkpt>
      <trkpt lat="49.14988" lon="-0.08367">
        <ele>13.8</ele>
        <time>2024-09-22T09:12:58Z</time>
      </trkpt>
      <trkpt lat="49.14993" lon="-0.08377">
        <ele>13.8</ele>
        <time>2024-09-22T09:12:59Z</time>
      </trkpt>
      <trkpt lat="49.14999" lon="-0.08388">
        <ele>13.8</ele>
        <time>2024-09-22T09:13:00Z</time>
      </trkpt>
      <trkpt lat="49.15004" lon="-0.08397">
        <ele>13.8</ele>
        <time>2024-09-22T09:13:01Z</time>
      </trkpt>
      <trkpt lat="49.15008" lon="-0.08404">
        <ele>13.6</ele>
        <time>2024-09-22T09:13:02Z</time>
      </trkpt>
      <trkpt lat="49.15014" lon="-0.08415">
        <ele>13.6</ele>
        <time>2024-09-22T09:13:03Z</time>
      </trkpt>
      <trkpt lat="49.15019" lon="-0.08423">
        <ele>13.6</ele>
        <time>2024-09-22T09:13:04Z</time>
      </trkpt>
      <trkpt lat="49.15023" lon="-0.0843">
        <ele>13.6</ele>
        <time>2024-09-22T09:13:05Z</time>
      </trkpt>
      <trkpt lat="49.15028" lon="-0.08439">
        <ele>13.6</ele>
        <time>2024-09-22T09:13:06Z</time>
      </trkpt>
      <trkpt lat="49.15034" lon="-0.08449">
        <ele>13.6</ele>
        <time>2024-09-22T09:13:07Z</time>
      </trkpt>
      <trkpt lat="49.15039" lon="-0.08456">
        <ele>13.6</ele>
        <time>2024-09-22T09:13:08Z</time>
      </trkpt>
      <trkpt lat="49.15047" lon="-0.08464">
        <ele>13.4</ele>
        <time>2024-09-22T09:13:09Z</time>
      </trkpt>
      <trkpt lat="49.15054" lon="-0.08469">
        <ele>13.4</ele>
        <time>2024-09-22T09:13:10Z</time>
      </trkpt>
      <trkpt lat="49.15059" lon="-0.08473">
        <ele>13.2</ele>
        <time>2024-09-22T09:13:11Z</time>
      </trkpt>
      <trkpt lat="49.15068" lon="-0.08478">
        <ele>13.2</ele>
        <time>2024-09-22T09:13:12Z</time>
      </trkpt>
      <trkpt lat="49.15076" lon="-0.08482">
        <ele>13.2</ele>
        <time>2024-09-22T09:13:13Z</time>
      </trkpt>
      <trkpt lat="49.15084" lon="-0.08487">
        <ele>13.4</ele>
        <time>2024-09-22T09:13:14Z</time>
      </trkpt>
      <trkpt lat="49.15091" lon="-0.08492">
        <ele>13.4</ele>
        <time>2024-09-22T09:13:15Z</time>
      </trkpt>
      <trkpt lat="49.15099" lon="-0.08497">
        <ele>13.4</ele>
        <time>2024-09-22T09:13:16Z</time>
      </trkpt>
      <trkpt lat="49.15104" lon="-0.08503">
        <ele>13.4</ele>
        <time>2024-09-22T09:13:17Z</time>
      </trkpt>
      <trkpt lat="49.15112" lon="-0.08513">
        <ele>13.2</ele>
        <time>2024-09-22T09:13:18Z</time>
      </trkpt>
      <trkpt lat="49.15116" lon="-0.0852">
        <ele>13.2</ele>
        <time>2024-09-22T09:13:19Z</time>
      </trkpt>
      <trkpt lat="49.15121" lon="-0.0853">
        <ele>13.2</ele>
        <time>2024-09-22T09:13:20Z</time>
      </trkpt>
      <trkpt lat="49.15127" lon="-0.08543">
        <ele>13</ele>
        <time>2024-09-22T09:13:21Z</time>
      </trkpt>
      <trkpt lat="49.15132" lon="-0.08552">
        <ele>13</ele>
        <time>2024-09-22T09:13:22Z</time>
      </trkpt>
      <trkpt lat="49.15137" lon="-0.08562">
        <ele>13.2</ele>
        <time>2024-09-22T09:13:23Z</time>
      </trkpt>
      <trkpt lat="49.15142" lon="-0.08571">
        <ele>13.2</ele>
        <time>2024-09-22T09:13:24Z</time>
      </trkpt>
      <trkpt lat="49.15146" lon="-0.08577">
        <ele>13.2</ele>
        <time>2024-09-22T09:13:25Z</time>
      </trkpt>
      <trkpt lat="49.15151" lon="-0.08586">
        <ele>13.2</ele>
        <time>2024-09-22T09:13:26Z</time>
      </trkpt>
      <trkpt lat="49.15157" lon="-0.08596">
        <ele>13.2</ele>
        <time>2024-09-22T09:13:27Z</time>
      </trkpt>
      <trkpt lat="49.15161" lon="-0.08603">
        <ele>13.2</ele>
        <time>2024-09-22T09:13:28Z</time>
      </trkpt>
      <trkpt lat="49.15165" lon="-0.08612">
        <ele>13.2</ele>
        <time>2024-09-22T09:13:29Z</time>
      </trkpt>
      <trkpt lat="49.1517" lon="-0.08624">
        <ele>13.2</ele>
        <time>2024-09-22T09:13:30Z</time>
      </trkpt>
      <trkpt lat="49.15174" lon="-0.08634">
        <ele>13.2</ele>
        <time>2024-09-22T09:13:31Z</time>
      </trkpt>
      <trkpt lat="49.15177" lon="-0.08643">
        <ele>13.2</ele>
        <time>2024-09-22T09:13:32Z</time>
      </trkpt>
      <trkpt lat="49.15182" lon="-0.08656">
        <ele>13</ele>
        <time>2024-09-22T09:13:33Z</time>
      </trkpt>
      <trkpt lat="49.15185" lon="-0.08665">
        <ele>13</ele>
        <time>2024-09-22T09:13:34Z</time>
      </trkpt>
      <trkpt lat="49.1519" lon="-0.08676">
        <ele>13</ele>
        <time>2024-09-22T09:13:35Z</time>
      </trkpt>
      <trkpt lat="49.15195" lon="-0.08689">
        <ele>13</ele>
        <time>2024-09-22T09:13:36Z</time>
      </trkpt>
      <trkpt lat="49.152" lon="-0.087">
        <ele>13</ele>
        <time>2024-09-22T09:13:37Z</time>
      </trkpt>
      <trkpt lat="49.15206" lon="-0.0871">
        <ele>13</ele>
        <time>2024-09-22T09:13:38Z</time>
      </trkpt>
      <trkpt lat="49.15211" lon="-0.08719">
        <ele>13</ele>
        <time>2024-09-22T09:13:39Z</time>
      </trkpt>
      <trkpt lat="49.15216" lon="-0.08729">
        <ele>13</ele>
        <time>2024-09-22T09:13:40Z</time>
      </trkpt>
      <trkpt lat="49.15221" lon="-0.08737">
        <ele>13</ele>
        <time>2024-09-22T09:13:41Z</time>
      </trkpt>
      <trkpt lat="49.15227" lon="-0.08746">
        <ele>13</ele>
        <time>2024-09-22T09:13:42Z</time>
      </trkpt>
      <trkpt lat="49.15232" lon="-0.08756">
        <ele>13</ele>
        <time>2024-09-22T09:13:43Z</time>
      </trkpt>
      <trkpt lat="49.15239" lon="-0.08768">
        <ele>13</ele>
        <time>2024-09-22T09:13:44Z</time>
      </trkpt>
      <trkpt lat="49.15245" lon="-0.08777">
        <ele>13</ele>
        <time>2024-09-22T09:13:45Z</time>
      </trkpt>
      <trkpt lat="49.15251" lon="-0.08787">
        <ele>13</ele>
        <time>2024-09-22T09:13:46Z</time>
      </trkpt>
      <trkpt lat="49.15256" lon="-0.08797">
        <ele>12.8</ele>
        <time>2024-09-22T09:13:47Z</time>
      </trkpt>
      <trkpt lat="49.15262" lon="-0.08806">
        <ele>12.8</ele>
        <time>2024-09-22T09:13:48Z</time>
      </trkpt>
      <trkpt lat="49.15268" lon="-0.08815">
        <ele>12.8</ele>
        <time>2024-09-22T09:13:49Z</time>
      </trkpt>
      <trkpt lat="49.15273" lon="-0.08824">
        <ele>12.8</ele>
        <time>2024-09-22T09:13:50Z</time>
      </trkpt>
      <trkpt lat="49.15279" lon="-0.08833">
        <ele>12.8</ele>
        <time>2024-09-22T09:13:51Z</time>
      </trkpt>
      <trkpt lat="49.15285" lon="-0.08842">
        <ele>12.8</ele>
        <time>2024-09-22T09:13:52Z</time>
      </trkpt>
      <trkpt lat="49.15289" lon="-0.08849">
        <ele>12.8</ele>
        <time>2024-09-22T09:13:53Z</time>
      </trkpt>
      <trkpt lat="49.15297" lon="-0.08859">
        <ele>12.8</ele>
        <time>2024-09-22T09:13:54Z</time>
      </trkpt>
      <trkpt lat="49.15303" lon="-0.08868">
        <ele>12.8</ele>
        <time>2024-09-22T09:13:55Z</time>
      </trkpt>
      <trkpt lat="49.15309" lon="-0.08876">
        <ele>12.8</ele>
        <time>2024-09-22T09:13:56Z</time>
      </trkpt>
      <trkpt lat="49.15315" lon="-0.08885">
        <ele>12.8</ele>
        <time>2024-09-22T09:13:57Z</time>
      </trkpt>
      <trkpt lat="49.15321" lon="-0.08894">
        <ele>12.8</ele>
        <time>2024-09-22T09:13:58Z</time>
      </trkpt>
      <trkpt lat="49.15327" lon="-0.08903">
        <ele>12.8</ele>
        <time>2024-09-22T09:13:59Z</time>
      </trkpt>
      <trkpt lat="49.15332" lon="-0.08912">
        <ele>12.8</ele>
        <time>2024-09-22T09:14:00Z</time>
      </trkpt>
      <trkpt lat="49.15338" lon="-0.08921">
        <ele>12.8</ele>
        <time>2024-09-22T09:14:01Z</time>
      </trkpt>
      <trkpt lat="49.15343" lon="-0.0893">
        <ele>12.8</ele>
        <time>2024-09-22T09:14:02Z</time>
      </trkpt>
      <trkpt lat="49.15348" lon="-0.08937">
        <ele>12.8</ele>
        <time>2024-09-22T09:14:03Z</time>
      </trkpt>
      <trkpt lat="49.15355" lon="-0.08948">
        <ele>12.8</ele>
        <time>2024-09-22T09:14:04Z</time>
      </trkpt>
      <trkpt lat="49.1536" lon="-0.08957">
        <ele>12.8</ele>
        <time>2024-09-22T09:14:05Z</time>
      </trkpt>
      <trkpt lat="49.15366" lon="-0.08966">
        <ele>12.8</ele>
        <time>2024-09-22T09:14:06Z</time>
      </trkpt>
      <trkpt lat="49.15372" lon="-0.08975">
        <ele>12.8</ele>
        <time>2024-09-22T09:14:07Z</time>
      </trkpt>
      <trkpt lat="49.15378" lon="-0.08983">
        <ele>12.6</ele>
        <time>2024-09-22T09:14:08Z</time>
      </trkpt>
      <trkpt lat="49.15383" lon="-0.08992">
        <ele>12.6</ele>
        <time>2024-09-22T09:14:09Z</time>
      </trkpt>
      <trkpt lat="49.15388" lon="-0.09001">
        <ele>12.8</ele>
        <time>2024-09-22T09:14:10Z</time>
      </trkpt>
      <trkpt lat="49.15393" lon="-0.09009">
        <ele>12.8</ele>
        <time>2024-09-22T09:14:11Z</time>
      </trkpt>
      <trkpt lat="49.15398" lon="-0.09017">
        <ele>12.8</ele>
        <time>2024-09-22T09:14:12Z</time>
      </trkpt>
      <trkpt lat="49.15404" lon="-0.09026">
        <ele>12.8</ele>
        <time>2024-09-22T09:14:13Z</time>
      </trkpt>
      <trkpt lat="49.15409" lon="-0.09034">
        <ele>12.8</ele>
        <time>2024-09-22T09:14:14Z</time>
      </trkpt>
      <trkpt lat="49.15414" lon="-0.09043">
        <ele>12.8</ele>
        <time>2024-09-22T09:14:15Z</time>
      </trkpt>
      <trkpt lat="49.1542" lon="-0.0905">
        <ele>12.8</ele>
        <time>2024-09-22T09:14:16Z</time>
      </trkpt>
      <trkpt lat="49.15426" lon="-0.09056">
        <ele>12.6</ele>
        <time>2024-09-22T09:14:17Z</time>
      </trkpt>
      <trkpt lat="49.15432" lon="-0.09061">
        <ele>12.6</ele>
        <time>2024-09-22T09:14:18Z</time>
      </trkpt>
      <trkpt lat="49.1544" lon="-0.09064">
        <ele>12.6</ele>
        <time>2024-09-22T09:14:19Z</time>
      </trkpt>
      <trkpt lat="49.15448" lon="-0.09067">
        <ele>12.6</ele>
        <time>2024-09-22T09:14:20Z</time>
      </trkpt>
      <trkpt lat="49.15455" lon="-0.0907">
        <ele>12.6</ele>
        <time>2024-09-22T09:14:21Z</time>
      </trkpt>
      <trkpt lat="49.15463" lon="-0.09072">
        <ele>12.6</ele>
        <time>2024-09-22T09:14:22Z</time>
      </trkpt>
      <trkpt lat="49.1547" lon="-0.09073">
        <ele>12.6</ele>
        <time>2024-09-22T09:14:23Z</time>
      </trkpt>
      <trkpt lat="49.15478" lon="-0.09075">
        <ele>12.6</ele>
        <time>2024-09-22T09:14:24Z</time>
      </trkpt>
      <trkpt lat="49.15488" lon="-0.09078">
        <ele>12.6</ele>
        <time>2024-09-22T09:14:25Z</time>
      </trkpt>
      <trkpt lat="49.15497" lon="-0.09081">
        <ele>12.6</ele>
        <time>2024-09-22T09:14:26Z</time>
      </trkpt>
      <trkpt lat="49.15505" lon="-0.09084">
        <ele>12.6</ele>
        <time>2024-09-22T09:14:27Z</time>
      </trkpt>
      <trkpt lat="49.15513" lon="-0.09088">
        <ele>12.4</ele>
        <time>2024-09-22T09:14:28Z</time>
      </trkpt>
      <trkpt lat="49.1552" lon="-0.09091">
        <ele>12.4</ele>
        <time>2024-09-22T09:14:29Z</time>
      </trkpt>
      <trkpt lat="49.15529" lon="-0.09095">
        <ele>12.4</ele>
        <time>2024-09-22T09:14:30Z</time>
      </trkpt>
      <trkpt lat="49.15538" lon="-0.09102">
        <ele>12.4</ele>
        <time>2024-09-22T09:14:31Z</time>
      </trkpt>
      <trkpt lat="49.15546" lon="-0.09109">
        <ele>12.2</ele>
        <time>2024-09-22T09:14:32Z</time>
      </trkpt>
      <trkpt lat="49.15552" lon="-0.09115">
        <ele>12.2</ele>
        <time>2024-09-22T09:14:33Z</time>
      </trkpt>
      <trkpt lat="49.15559" lon="-0.09125">
        <ele>12.2</ele>
        <time>2024-09-22T09:14:34Z</time>
      </trkpt>
      <trkpt lat="49.15567" lon="-0.09136">
        <ele>12</ele>
        <time>2024-09-22T09:14:35Z</time>
      </trkpt>
      <trkpt lat="49.15573" lon="-0.09147">
        <ele>12</ele>
        <time>2024-09-22T09:14:36Z</time>
      </trkpt>
      <trkpt lat="49.1558" lon="-0.09157">
        <ele>12</ele>
        <time>2024-09-22T09:14:37Z</time>
      </trkpt>
      <trkpt lat="49.15586" lon="-0.09168">
        <ele>12</ele>
        <time>2024-09-22T09:14:38Z</time>
      </trkpt>
      <trkpt lat="49.15592" lon="-0.09178">
        <ele>12</ele>
        <time>2024-09-22T09:14:39Z</time>
      </trkpt>
      <trkpt lat="49.15598" lon="-0.09189">
        <ele>11.8</ele>
        <time>2024-09-22T09:14:40Z</time>
      </trkpt>
      <trkpt lat="49.15603" lon="-0.09201">
        <ele>11.8</ele>
        <time>2024-09-22T09:14:41Z</time>
      </trkpt>
      <trkpt lat="49.15608" lon="-0.09212">
        <ele>11.6</ele>
        <time>2024-09-22T09:14:42Z</time>
      </trkpt>
      <trkpt lat="49.15613" lon="-0.09223">
        <ele>11.6</ele>
        <time>2024-09-22T09:14:43Z</time>
      </trkpt>
      <trkpt lat="49.15617" lon="-0.09234">
        <ele>11.4</ele>
        <time>2024-09-22T09:14:44Z</time>
      </trkpt>
      <trkpt lat="49.15621" lon="-0.09242">
        <ele>11.4</ele>
        <time>2024-09-22T09:14:45Z</time>
      </trkpt>
      <trkpt lat="49.15625" lon="-0.09253">
        <ele>11.2</ele>
        <time>2024-09-22T09:14:46Z</time>
      </trkpt>
      <trkpt lat="49.15629" lon="-0.09265">
        <ele>11.2</ele>
        <time>2024-09-22T09:14:47Z</time>
      </trkpt>
      <trkpt lat="49.15633" lon="-0.09276">
        <ele>11.2</ele>
        <time>2024-09-22T09:14:48Z</time>
      </trkpt>
      <trkpt lat="49.15636" lon="-0.09285">
        <ele>11.2</ele>
        <time>2024-09-22T09:14:49Z</time>
      </trkpt>
      <trkpt lat="49.1564" lon="-0.09295">
        <ele>11.2</ele>
        <time>2024-09-22T09:14:50Z</time>
      </trkpt>
      <trkpt lat="49.15644" lon="-0.09304">
        <ele>11.2</ele>
        <time>2024-09-22T09:14:51Z</time>
      </trkpt>
      <trkpt lat="49.15648" lon="-0.09313">
        <ele>11.2</ele>
        <time>2024-09-22T09:14:52Z</time>
      </trkpt>
      <trkpt lat="49.15652" lon="-0.09322">
        <ele>11.2</ele>
        <time>2024-09-22T09:14:53Z</time>
      </trkpt>
      <trkpt lat="49.15656" lon="-0.0933">
        <ele>11.2</ele>
        <time>2024-09-22T09:14:54Z</time>
      </trkpt>
      <trkpt lat="49.15662" lon="-0.0934">
        <ele>11.2</ele>
        <time>2024-09-22T09:14:55Z</time>
      </trkpt>
      <trkpt lat="49.15667" lon="-0.09349">
        <ele>11.2</ele>
        <time>2024-09-22T09:14:56Z</time>
      </trkpt>
      <trkpt lat="49.15671" lon="-0.09358">
        <ele>11.4</ele>
        <time>2024-09-22T09:14:57Z</time>
      </trkpt>
      <trkpt lat="49.15675" lon="-0.09365">
        <ele>11.4</ele>
        <time>2024-09-22T09:14:58Z</time>
      </trkpt>
      <trkpt lat="49.1568" lon="-0.09376">
        <ele>11.4</ele>
        <time>2024-09-22T09:14:59Z</time>
      </trkpt>
      <trkpt lat="49.15684" lon="-0.09384">
        <ele>11.4</ele>
        <time>2024-09-22T09:15:00Z</time>
      </trkpt>
      <trkpt lat="49.15688" lon="-0.09393">
        <ele>11.6</ele>
        <time>2024-09-22T09:15:01Z</time>
      </trkpt>
      <trkpt lat="49.15691" lon="-0.09401">
        <ele>11.6</ele>
        <time>2024-09-22T09:15:02Z</time>
      </trkpt>
      <trkpt lat="49.15694" lon="-0.0941">
        <ele>11.8</ele>
        <time>2024-09-22T09:15:03Z</time>
      </trkpt>
      <trkpt lat="49.15697" lon="-0.09418">
        <ele>11.8</ele>
        <time>2024-09-22T09:15:04Z</time>
      </trkpt>
      <trkpt lat="49.15701" lon="-0.09426">
        <ele>12</ele>
        <time>2024-09-22T09:15:05Z</time>
      </trkpt>
      <trkpt lat="49.15704" lon="-0.09434">
        <ele>12.2</ele>
        <time>2024-09-22T09:15:06Z</time>
      </trkpt>
      <trkpt lat="49.15706" lon="-0.09442">
        <ele>12.2</ele>
        <time>2024-09-22T09:15:07Z</time>
      </trkpt>
      <trkpt lat="49.15709" lon="-0.0945">
        <ele>12.4</ele>
        <time>2024-09-22T09:15:08Z</time>
      </trkpt>
      <trkpt lat="49.15711" lon="-0.09456">
        <ele>12.6</ele>
        <time>2024-09-22T09:15:09Z</time>
      </trkpt>
      <trkpt lat="49.15714" lon="-0.09464">
        <ele>12.6</ele>
        <time>2024-09-22T09:15:10Z</time>
      </trkpt>
      <trkpt lat="49.15717" lon="-0.09471">
        <ele>12.8</ele>
        <time>2024-09-22T09:15:11Z</time>
      </trkpt>
      <trkpt lat="49.15719" lon="-0.09477">
        <ele>12.8</ele>
        <time>2024-09-22T09:15:12Z</time>
      </trkpt>
      <trkpt lat="49.15721" lon="-0.09484">
        <ele>13</ele>
        <time>2024-09-22T09:15:13Z</time>
      </trkpt>
      <trkpt lat="49.15722" lon="-0.0949">
        <ele>13</ele>
        <time>2024-09-22T09:15:14Z</time>
      </trkpt>
      <trkpt lat="49.15721" lon="-0.09497">
        <ele>13</ele>
        <time>2024-09-22T09:15:15Z</time>
      </trkpt>
      <trkpt lat="49.15719" lon="-0.09503">
        <ele>13</ele>
        <time>2024-09-22T09:15:16Z</time>
      </trkpt>
      <trkpt lat="49.15715" lon="-0.09507">
        <ele>13.2</ele>
        <time>2024-09-22T09:15:17Z</time>
      </trkpt>
      <trkpt lat="49.1571" lon="-0.09511">
        <ele>13.2</ele>
        <time>2024-09-22T09:15:18Z</time>
      </trkpt>
      <trkpt lat="49.15705" lon="-0.09515">
        <ele>13.2</ele>
        <time>2024-09-22T09:15:19Z</time>
      </trkpt>
      <trkpt lat="49.15701" lon="-0.0952">
        <ele>13.2</ele>
        <time>2024-09-22T09:15:20Z</time>
      </trkpt>
      <trkpt lat="49.15697" lon="-0.09526">
        <ele>13.2</ele>
        <time>2024-09-22T09:15:21Z</time>
      </trkpt>
      <trkpt lat="49.15692" lon="-0.09531">
        <ele>13.4</ele>
        <time>2024-09-22T09:15:22Z</time>
      </trkpt>
      <trkpt lat="49.15688" lon="-0.09537">
        <ele>13.4</ele>
        <time>2024-09-22T09:15:23Z</time>
      </trkpt>
      <trkpt lat="49.15684" lon="-0.09543">
        <ele>13.4</ele>
        <time>2024-09-22T09:15:24Z</time>
      </trkpt>
      <trkpt lat="49.15681" lon="-0.09548">
        <ele>13.4</ele>
        <time>2024-09-22T09:15:25Z</time>
      </trkpt>
      <trkpt lat="49.15677" lon="-0.09554">
        <ele>13.4</ele>
        <time>2024-09-22T09:15:26Z</time>
      </trkpt>
      <trkpt lat="49.15673" lon="-0.09559">
        <ele>13.6</ele>
        <time>2024-09-22T09:15:27Z</time>
      </trkpt>
      <trkpt lat="49.15669" lon="-0.09565">
        <ele>13.6</ele>
        <time>2024-09-22T09:15:28Z</time>
      </trkpt>
      <trkpt lat="49.15665" lon="-0.0957">
        <ele>13.8</ele>
        <time>2024-09-22T09:15:29Z</time>
      </trkpt>
      <trkpt lat="49.15661" lon="-0.09575">
        <ele>13.8</ele>
        <time>2024-09-22T09:15:30Z</time>
      </trkpt>
      <trkpt lat="49.15656" lon="-0.09579">
        <ele>14.2</ele>
        <time>2024-09-22T09:15:31Z</time>
      </trkpt>
      <trkpt lat="49.15652" lon="-0.09584">
        <ele>14.4</ele>
        <time>2024-09-22T09:15:32Z</time>
      </trkpt>
      <trkpt lat="49.15648" lon="-0.09589">
        <ele>14.4</ele>
        <time>2024-09-22T09:15:33Z</time>
      </trkpt>
      <trkpt lat="49.15643" lon="-0.09594">
        <ele>14.6</ele>
        <time>2024-09-22T09:15:34Z</time>
      </trkpt>
      <trkpt lat="49.15639" lon="-0.096">
        <ele>14.6</ele>
        <time>2024-09-22T09:15:35Z</time>
      </trkpt>
      <trkpt lat="49.15634" lon="-0.09606">
        <ele>14.8</ele>
        <time>2024-09-22T09:15:36Z</time>
      </trkpt>
      <trkpt lat="49.15629" lon="-0.09612">
        <ele>14.8</ele>
        <time>2024-09-22T09:15:37Z</time>
      </trkpt>
      <trkpt lat="49.15625" lon="-0.09619">
        <ele>14.8</ele>
        <time>2024-09-22T09:15:38Z</time>
      </trkpt>
      <trkpt lat="49.15621" lon="-0.09626">
        <ele>14.8</ele>
        <time>2024-09-22T09:15:39Z</time>
      </trkpt>
      <trkpt lat="49.15618" lon="-0.09633">
        <ele>15</ele>
        <time>2024-09-22T09:15:40Z</time>
      </trkpt>
      <trkpt lat="49.15614" lon="-0.09639">
        <ele>15</ele>
        <time>2024-09-22T09:15:41Z</time>
      </trkpt>
      <trkpt lat="49.15611" lon="-0.09645">
        <ele>15</ele>
        <time>2024-09-22T09:15:42Z</time>
      </trkpt>
      <trkpt lat="49.15608" lon="-0.09651">
        <ele>15</ele>
        <time>2024-09-22T09:15:43Z</time>
      </trkpt>
      <trkpt lat="49.15605" lon="-0.09656">
        <ele>15</ele>
        <time>2024-09-22T09:15:44Z</time>
      </trkpt>
      <trkpt lat="49.15603" lon="-0.0966">
        <ele>15.2</ele>
        <time>2024-09-22T09:15:45Z</time>
      </trkpt>
      <trkpt lat="49.15601" lon="-0.09664">
        <ele>15.2</ele>
        <time>2024-09-22T09:15:46Z</time>
      </trkpt>
      <trkpt lat="49.156" lon="-0.09668">
        <ele>15.2</ele>
        <time>2024-09-22T09:15:47Z</time>
      </trkpt>
      <trkpt lat="49.15599" lon="-0.09673">
        <ele>15.2</ele>
        <time>2024-09-22T09:15:48Z</time>
      </trkpt>
      <trkpt lat="49.156" lon="-0.09678">
        <ele>15.2</ele>
        <time>2024-09-22T09:15:49Z</time>
      </trkpt>
      <trkpt lat="49.15601" lon="-0.09684">
        <ele>15.4</ele>
        <time>2024-09-22T09:15:50Z</time>
      </trkpt>
      <trkpt lat="49.15603" lon="-0.09691">
        <ele>15.4</ele>
        <time>2024-09-22T09:15:51Z</time>
      </trkpt>
      <trkpt lat="49.15605" lon="-0.09698">
        <ele>15.6</ele>
        <time>2024-09-22T09:15:52Z</time>
      </trkpt>
      <trkpt lat="49.15608" lon="-0.09704">
        <ele>15.8</ele>
        <time>2024-09-22T09:15:53Z</time>
      </trkpt>
      <trkpt lat="49.15611" lon="-0.09711">
        <ele>16</ele>
        <time>2024-09-22T09:15:54Z</time>
      </trkpt>
      <trkpt lat="49.15614" lon="-0.09719">
        <ele>16.2</ele>
        <time>2024-09-22T09:15:55Z</time>
      </trkpt>
      <trkpt lat="49.15617" lon="-0.09727">
        <ele>16.2</ele>
        <time>2024-09-22T09:15:56Z</time>
      </trkpt>
      <trkpt lat="49.15621" lon="-0.09734">
        <ele>16.4</ele>
        <time>2024-09-22T09:15:57Z</time>
      </trkpt>
      <trkpt lat="49.15624" lon="-0.09741">
        <ele>16.4</ele>
        <time>2024-09-22T09:15:58Z</time>
      </trkpt>
      <trkpt lat="49.15626" lon="-0.09749">
        <ele>16.6</ele>
        <time>2024-09-22T09:15:59Z</time>
      </trkpt>
      <trkpt lat="49.15629" lon="-0.09758">
        <ele>16.6</ele>
        <time>2024-09-22T09:16:00Z</time>
      </trkpt>
      <trkpt lat="49.15631" lon="-0.09764">
        <ele>16.6</ele>
        <time>2024-09-22T09:16:01Z</time>
      </trkpt>
      <trkpt lat="49.15634" lon="-0.09774">
        <ele>16.6</ele>
        <time>2024-09-22T09:16:02Z</time>
      </trkpt>
      <trkpt lat="49.15637" lon="-0.09782">
        <ele>16.6</ele>
        <time>2024-09-22T09:16:03Z</time>
      </trkpt>
      <trkpt lat="49.1564" lon="-0.0979">
        <ele>16.6</ele>
        <time>2024-09-22T09:16:04Z</time>
      </trkpt>
      <trkpt lat="49.15642" lon="-0.098">
        <ele>16.8</ele>
        <time>2024-09-22T09:16:05Z</time>
      </trkpt>
      <trkpt lat="49.15643" lon="-0.09807">
        <ele>16.8</ele>
        <time>2024-09-22T09:16:06Z</time>
      </trkpt>
      <trkpt lat="49.15646" lon="-0.09818">
        <ele>17</ele>
        <time>2024-09-22T09:16:07Z</time>
      </trkpt>
      <trkpt lat="49.15647" lon="-0.09828">
        <ele>17</ele>
        <time>2024-09-22T09:16:08Z</time>
      </trkpt>
      <trkpt lat="49.15649" lon="-0.09836">
        <ele>17</ele>
        <time>2024-09-22T09:16:09Z</time>
      </trkpt>
      <trkpt lat="49.1565" lon="-0.09847">
        <ele>17</ele>
        <time>2024-09-22T09:16:10Z</time>
      </trkpt>
      <trkpt lat="49.15651" lon="-0.09857">
        <ele>17.2</ele>
        <time>2024-09-22T09:16:11Z</time>
      </trkpt>
      <trkpt lat="49.15652" lon="-0.09868">
        <ele>17.2</ele>
        <time>2024-09-22T09:16:12Z</time>
      </trkpt>
      <trkpt lat="49.15652" lon="-0.09878">
        <ele>17.4</ele>
        <time>2024-09-22T09:16:13Z</time>
      </trkpt>
      <trkpt lat="49.15653" lon="-0.09888">
        <ele>17.4</ele>
        <time>2024-09-22T09:16:14Z</time>
      </trkpt>
      <trkpt lat="49.15654" lon="-0.09899">
        <ele>17.4</ele>
        <time>2024-09-22T09:16:15Z</time>
      </trkpt>
      <trkpt lat="49.15654" lon="-0.09909">
        <ele>17.6</ele>
        <time>2024-09-22T09:16:16Z</time>
      </trkpt>
      <trkpt lat="49.15654" lon="-0.09919">
        <ele>17.8</ele>
        <time>2024-09-22T09:16:17Z</time>
      </trkpt>
      <trkpt lat="49.15654" lon="-0.09929">
        <ele>17.8</ele>
        <time>2024-09-22T09:16:18Z</time>
      </trkpt>
      <trkpt lat="49.15654" lon="-0.09936">
        <ele>17.8</ele>
        <time>2024-09-22T09:16:19Z</time>
      </trkpt>
      <trkpt lat="49.15655" lon="-0.09946">
        <ele>18</ele>
        <time>2024-09-22T09:16:20Z</time>
      </trkpt>
      <trkpt lat="49.15655" lon="-0.09956">
        <ele>18</ele>
        <time>2024-09-22T09:16:21Z</time>
      </trkpt>
      <trkpt lat="49.15655" lon="-0.09965">
        <ele>18.2</ele>
        <time>2024-09-22T09:16:22Z</time>
      </trkpt>
      <trkpt lat="49.15655" lon="-0.09975">
        <ele>18.2</ele>
        <time>2024-09-22T09:16:23Z</time>
      </trkpt>
      <trkpt lat="49.15655" lon="-0.09985">
        <ele>18.2</ele>
        <time>2024-09-22T09:16:24Z</time>
      </trkpt>
      <trkpt lat="49.15655" lon="-0.09995">
        <ele>18.4</ele>
        <time>2024-09-22T09:16:25Z</time>
      </trkpt>
      <trkpt lat="49.15655" lon="-0.10005">
        <ele>18.8</ele>
        <time>2024-09-22T09:16:26Z</time>
      </trkpt>
      <trkpt lat="49.15656" lon="-0.10015">
        <ele>19</ele>
        <time>2024-09-22T09:16:27Z</time>
      </trkpt>
      <trkpt lat="49.15657" lon="-0.10026">
        <ele>19</ele>
        <time>2024-09-22T09:16:28Z</time>
      </trkpt>
      <trkpt lat="49.15657" lon="-0.10033">
        <ele>19.2</ele>
        <time>2024-09-22T09:16:29Z</time>
      </trkpt>
      <trkpt lat="49.15658" lon="-0.10044">
        <ele>19.2</ele>
        <time>2024-09-22T09:16:30Z</time>
      </trkpt>
      <trkpt lat="49.15659" lon="-0.10051">
        <ele>19.4</ele>
        <time>2024-09-22T09:16:31Z</time>
      </trkpt>
      <trkpt lat="49.1566" lon="-0.1006">
        <ele>19.6</ele>
        <time>2024-09-22T09:16:32Z</time>
      </trkpt>
      <trkpt lat="49.15662" lon="-0.1007">
        <ele>19.4</ele>
        <time>2024-09-22T09:16:33Z</time>
      </trkpt>
      <trkpt lat="49.15663" lon="-0.10081">
        <ele>19.6</ele>
        <time>2024-09-22T09:16:34Z</time>
      </trkpt>
      <trkpt lat="49.15665" lon="-0.10088">
        <ele>20</ele>
        <time>2024-09-22T09:16:35Z</time>
      </trkpt>
      <trkpt lat="49.15667" lon="-0.10099">
        <ele>20</ele>
        <time>2024-09-22T09:16:36Z</time>
      </trkpt>
      <trkpt lat="49.15669" lon="-0.10106">
        <ele>20.2</ele>
        <time>2024-09-22T09:16:37Z</time>
      </trkpt>
      <trkpt lat="49.15671" lon="-0.10118">
        <ele>20.6</ele>
        <time>2024-09-22T09:16:38Z</time>
      </trkpt>
      <trkpt lat="49.15673" lon="-0.10127">
        <ele>21</ele>
        <time>2024-09-22T09:16:39Z</time>
      </trkpt>
      <trkpt lat="49.15675" lon="-0.10137">
        <ele>21</ele>
        <time>2024-09-22T09:16:40Z</time>
      </trkpt>
      <trkpt lat="49.15676" lon="-0.10147">
        <ele>21</ele>
        <time>2024-09-22T09:16:41Z</time>
      </trkpt>
      <trkpt lat="49.15677" lon="-0.10155">
        <ele>21.2</ele>
        <time>2024-09-22T09:16:42Z</time>
      </trkpt>
      <trkpt lat="49.15679" lon="-0.10165">
        <ele>21.2</ele>
        <time>2024-09-22T09:16:43Z</time>
      </trkpt>
      <trkpt lat="49.15682" lon="-0.10177">
        <ele>21.2</ele>
        <time>2024-09-22T09:16:44Z</time>
      </trkpt>
      <trkpt lat="49.15683" lon="-0.10187">
        <ele>21.2</ele>
        <time>2024-09-22T09:16:45Z</time>
      </trkpt>
      <trkpt lat="49.15685" lon="-0.10198">
        <ele>21</ele>
        <time>2024-09-22T09:16:46Z</time>
      </trkpt>
      <trkpt lat="49.15686" lon="-0.10209">
        <ele>21.2</ele>
        <time>2024-09-22T09:16:47Z</time>
      </trkpt>
      <trkpt lat="49.15687" lon="-0.10221">
        <ele>21</ele>
        <time>2024-09-22T09:16:48Z</time>
      </trkpt>
      <trkpt lat="49.15687" lon="-0.10233">
        <ele>21.2</ele>
        <time>2024-09-22T09:16:49Z</time>
      </trkpt>
      <trkpt lat="49.15687" lon="-0.10244">
        <ele>21</ele>
        <time>2024-09-22T09:16:50Z</time>
      </trkpt>
      <trkpt lat="49.15686" lon="-0.10259">
        <ele>21</ele>
        <time>2024-09-22T09:16:51Z</time>
      </trkpt>
      <trkpt lat="49.15686" lon="-0.10273">
        <ele>21</ele>
        <time>2024-09-22T09:16:52Z</time>
      </trkpt>
      <trkpt lat="49.15686" lon="-0.10286">
        <ele>21</ele>
        <time>2024-09-22T09:16:53Z</time>
      </trkpt>
      <trkpt lat="49.15685" lon="-0.10301">
        <ele>21</ele>
        <time>2024-09-22T09:16:54Z</time>
      </trkpt>
      <trkpt lat="49.15685" lon="-0.10315">
        <ele>20.6</ele>
        <time>2024-09-22T09:16:55Z</time>
      </trkpt>
      <trkpt lat="49.15684" lon="-0.1033">
        <ele>20.8</ele>
        <time>2024-09-22T09:16:56Z</time>
      </trkpt>
      <trkpt lat="49.15684" lon="-0.10344">
        <ele>20.6</ele>
        <time>2024-09-22T09:16:57Z</time>
      </trkpt>
      <trkpt lat="49.15684" lon="-0.10358">
        <ele>20.2</ele>
        <time>2024-09-22T09:16:58Z</time>
      </trkpt>
      <trkpt lat="49.15684" lon="-0.10372">
        <ele>19.8</ele>
        <time>2024-09-22T09:16:59Z</time>
      </trkpt>
      <trkpt lat="49.15683" lon="-0.10383">
        <ele>19.6</ele>
        <time>2024-09-22T09:17:00Z</time>
      </trkpt>
      <trkpt lat="49.15683" lon="-0.10398">
        <ele>19</ele>
        <time>2024-09-22T09:17:01Z</time>
      </trkpt>
      <trkpt lat="49.15683" lon="-0.1041">
        <ele>18.6</ele>
        <time>2024-09-22T09:17:02Z</time>
      </trkpt>
      <trkpt lat="49.15683" lon="-0.10423">
        <ele>18</ele>
        <time>2024-09-22T09:17:03Z</time>
      </trkpt>
      <trkpt lat="49.15683" lon="-0.10435">
        <ele>17.6</ele>
        <time>2024-09-22T09:17:04Z</time>
      </trkpt>
      <trkpt lat="49.15682" lon="-0.10447">
        <ele>17.4</ele>
        <time>2024-09-22T09:17:05Z</time>
      </trkpt>
      <trkpt lat="49.15682" lon="-0.10459">
        <ele>17.4</ele>
        <time>2024-09-22T09:17:06Z</time>
      </trkpt>
      <trkpt lat="49.15682" lon="-0.1047">
        <ele>17.4</ele>
        <time>2024-09-22T09:17:07Z</time>
      </trkpt>
      <trkpt lat="49.15681" lon="-0.10481">
        <ele>17.2</ele>
        <time>2024-09-22T09:17:08Z</time>
      </trkpt>
      <trkpt lat="49.15681" lon="-0.10492">
        <ele>17.2</ele>
        <time>2024-09-22T09:17:09Z</time>
      </trkpt>
      <trkpt lat="49.1568" lon="-0.10504">
        <ele>17.2</ele>
        <time>2024-09-22T09:17:10Z</time>
      </trkpt>
      <trkpt lat="49.1568" lon="-0.10515">
        <ele>17.2</ele>
        <time>2024-09-22T09:17:11Z</time>
      </trkpt>
      <trkpt lat="49.15679" lon="-0.10525">
        <ele>17.2</ele>
        <time>2024-09-22T09:17:12Z</time>
      </trkpt>
      <trkpt lat="49.1568" lon="-0.10536">
        <ele>17.2</ele>
        <time>2024-09-22T09:17:13Z</time>
      </trkpt>
      <trkpt lat="49.1568" lon="-0.10547">
        <ele>17.2</ele>
        <time>2024-09-22T09:17:14Z</time>
      </trkpt>
      <trkpt lat="49.1568" lon="-0.10558">
        <ele>17.8</ele>
        <time>2024-09-22T09:17:15Z</time>
      </trkpt>
      <trkpt lat="49.1568" lon="-0.1057">
        <ele>18.2</ele>
        <time>2024-09-22T09:17:16Z</time>
      </trkpt>
      <trkpt lat="49.1568" lon="-0.10581">
        <ele>18.6</ele>
        <time>2024-09-22T09:17:17Z</time>
      </trkpt>
      <trkpt lat="49.15681" lon="-0.10593">
        <ele>18.8</ele>
        <time>2024-09-22T09:17:18Z</time>
      </trkpt>
      <trkpt lat="49.15681" lon="-0.10605">
        <ele>19</ele>
        <time>2024-09-22T09:17:19Z</time>
      </trkpt>
      <trkpt lat="49.15681" lon="-0.10616">
        <ele>19</ele>
        <time>2024-09-22T09:17:20Z</time>
      </trkpt>
      <trkpt lat="49.15681" lon="-0.10627">
        <ele>19.2</ele>
        <time>2024-09-22T09:17:21Z</time>
      </trkpt>
      <trkpt lat="49.15681" lon="-0.10638">
        <ele>19.4</ele>
        <time>2024-09-22T09:17:22Z</time>
      </trkpt>
      <trkpt lat="49.15681" lon="-0.10649">
        <ele>19.6</ele>
        <time>2024-09-22T09:17:23Z</time>
      </trkpt>
      <trkpt lat="49.15681" lon="-0.10661">
        <ele>20</ele>
        <time>2024-09-22T09:17:24Z</time>
      </trkpt>
      <trkpt lat="49.1568" lon="-0.10672">
        <ele>20.2</ele>
        <time>2024-09-22T09:17:25Z</time>
      </trkpt>
      <trkpt lat="49.1568" lon="-0.10683">
        <ele>20.6</ele>
        <time>2024-09-22T09:17:26Z</time>
      </trkpt>
      <trkpt lat="49.1568" lon="-0.10694">
        <ele>20.6</ele>
        <time>2024-09-22T09:17:27Z</time>
      </trkpt>
      <trkpt lat="49.1568" lon="-0.10705">
        <ele>20.8</ele>
        <time>2024-09-22T09:17:28Z</time>
      </trkpt>
      <trkpt lat="49.15679" lon="-0.10716">
        <ele>21.4</ele>
        <time>2024-09-22T09:17:29Z</time>
      </trkpt>
      <trkpt lat="49.15679" lon="-0.10727">
        <ele>21.8</ele>
        <time>2024-09-22T09:17:30Z</time>
      </trkpt>
      <trkpt lat="49.15678" lon="-0.10739">
        <ele>22.2</ele>
        <time>2024-09-22T09:17:31Z</time>
      </trkpt>
      <trkpt lat="49.15678" lon="-0.10748">
        <ele>22.4</ele>
        <time>2024-09-22T09:17:32Z</time>
      </trkpt>
      <trkpt lat="49.15678" lon="-0.10762">
        <ele>22.6</ele>
        <time>2024-09-22T09:17:33Z</time>
      </trkpt>
      <trkpt lat="49.15677" lon="-0.10774">
        <ele>22.8</ele>
        <time>2024-09-22T09:17:34Z</time>
      </trkpt>
      <trkpt lat="49.15676" lon="-0.10786">
        <ele>23</ele>
        <time>2024-09-22T09:17:35Z</time>
      </trkpt>
      <trkpt lat="49.15675" lon="-0.10797">
        <ele>23.4</ele>
        <time>2024-09-22T09:17:36Z</time>
      </trkpt>
      <trkpt lat="49.15674" lon="-0.1081">
        <ele>23.4</ele>
        <time>2024-09-22T09:17:37Z</time>
      </trkpt>
      <trkpt lat="49.15673" lon="-0.1082">
        <ele>23.6</ele>
        <time>2024-09-22T09:17:38Z</time>
      </trkpt>
      <trkpt lat="49.15672" lon="-0.10835">
        <ele>23.6</ele>
        <time>2024-09-22T09:17:39Z</time>
      </trkpt>
      <trkpt lat="49.15671" lon="-0.10847">
        <ele>23.8</ele>
        <time>2024-09-22T09:17:40Z</time>
      </trkpt>
      <trkpt lat="49.15669" lon="-0.1086">
        <ele>23.8</ele>
        <time>2024-09-22T09:17:41Z</time>
      </trkpt>
      <trkpt lat="49.15668" lon="-0.10872">
        <ele>23.8</ele>
        <time>2024-09-22T09:17:42Z</time>
      </trkpt>
      <trkpt lat="49.15666" lon="-0.10885">
        <ele>23.8</ele>
        <time>2024-09-22T09:17:43Z</time>
      </trkpt>
      <trkpt lat="49.15664" lon="-0.10897">
        <ele>23.8</ele>
        <time>2024-09-22T09:17:44Z</time>
      </trkpt>
      <trkpt lat="49.15663" lon="-0.1091">
        <ele>23.8</ele>
        <time>2024-09-22T09:17:45Z</time>
      </trkpt>
      <trkpt lat="49.1566" lon="-0.10922">
        <ele>23.8</ele>
        <time>2024-09-22T09:17:46Z</time>
      </trkpt>
      <trkpt lat="49.15659" lon="-0.10933">
        <ele>23.8</ele>
        <time>2024-09-22T09:17:47Z</time>
      </trkpt>
      <trkpt lat="49.15657" lon="-0.10945">
        <ele>23.8</ele>
        <time>2024-09-22T09:17:48Z</time>
      </trkpt>
      <trkpt lat="49.15656" lon="-0.10955">
        <ele>24</ele>
        <time>2024-09-22T09:17:49Z</time>
      </trkpt>
      <trkpt lat="49.15655" lon="-0.10963">
        <ele>24</ele>
        <time>2024-09-22T09:17:50Z</time>
      </trkpt>
      <trkpt lat="49.15654" lon="-0.10973">
        <ele>24</ele>
        <time>2024-09-22T09:17:51Z</time>
      </trkpt>
      <trkpt lat="49.15653" lon="-0.10984">
        <ele>24</ele>
        <time>2024-09-22T09:17:52Z</time>
      </trkpt>
      <trkpt lat="49.15652" lon="-0.10992">
        <ele>24</ele>
        <time>2024-09-22T09:17:53Z</time>
      </trkpt>
      <trkpt lat="49.15651" lon="-0.10999">
        <ele>24</ele>
        <time>2024-09-22T09:17:54Z</time>
      </trkpt>
      <trkpt lat="49.1565" lon="-0.11007">
        <ele>24</ele>
        <time>2024-09-22T09:17:55Z</time>
      </trkpt>
      <trkpt lat="49.15649" lon="-0.11013">
        <ele>24.2</ele>
        <time>2024-09-22T09:17:56Z</time>
      </trkpt>
      <trkpt lat="49.15649" lon="-0.11019">
        <ele>24.4</ele>
        <time>2024-09-22T09:17:57Z</time>
      </trkpt>
      <trkpt lat="49.1565" lon="-0.11026">
        <ele>24.6</ele>
        <time>2024-09-22T09:17:58Z</time>
      </trkpt>
      <trkpt lat="49.15653" lon="-0.1103">
        <ele>24.8</ele>
        <time>2024-09-22T09:17:59Z</time>
      </trkpt>
      <trkpt lat="49.15657" lon="-0.11035">
        <ele>24.8</ele>
        <time>2024-09-22T09:18:00Z</time>
      </trkpt>
      <trkpt lat="49.15662" lon="-0.11037">
        <ele>25</ele>
        <time>2024-09-22T09:18:01Z</time>
      </trkpt>
      <trkpt lat="49.15666" lon="-0.11038">
        <ele>25</ele>
        <time>2024-09-22T09:18:02Z</time>
      </trkpt>
      <trkpt lat="49.15673" lon="-0.11039">
        <ele>25</ele>
        <time>2024-09-22T09:18:03Z</time>
      </trkpt>
      <trkpt lat="49.15679" lon="-0.11039">
        <ele>25</ele>
        <time>2024-09-22T09:18:04Z</time>
      </trkpt>
      <trkpt lat="49.15685" lon="-0.11038">
        <ele>25.2</ele>
        <time>2024-09-22T09:18:05Z</time>
      </trkpt>
      <trkpt lat="49.1569" lon="-0.11037">
        <ele>25.2</ele>
        <time>2024-09-22T09:18:06Z</time>
      </trkpt>
      <trkpt lat="49.15698" lon="-0.11036">
        <ele>25.2</ele>
        <time>2024-09-22T09:18:07Z</time>
      </trkpt>
      <trkpt lat="49.15705" lon="-0.11035">
        <ele>25.2</ele>
        <time>2024-09-22T09:18:08Z</time>
      </trkpt>
      <trkpt lat="49.15712" lon="-0.11034">
        <ele>25.2</ele>
        <time>2024-09-22T09:18:09Z</time>
      </trkpt>
      <trkpt lat="49.1572" lon="-0.11033">
        <ele>25.2</ele>
        <time>2024-09-22T09:18:10Z</time>
      </trkpt>
      <trkpt lat="49.15727" lon="-0.11032">
        <ele>25.2</ele>
        <time>2024-09-22T09:18:11Z</time>
      </trkpt>
      <trkpt lat="49.15736" lon="-0.1103">
        <ele>25.2</ele>
        <time>2024-09-22T09:18:12Z</time>
      </trkpt>
      <trkpt lat="49.15744" lon="-0.11029">
        <ele>25.2</ele>
        <time>2024-09-22T09:18:13Z</time>
      </trkpt>
      <trkpt lat="49.15752" lon="-0.11028">
        <ele>25</ele>
        <time>2024-09-22T09:18:14Z</time>
      </trkpt>
      <trkpt lat="49.15759" lon="-0.11027">
        <ele>25</ele>
        <time>2024-09-22T09:18:15Z</time>
      </trkpt>
      <trkpt lat="49.15768" lon="-0.11026">
        <ele>25</ele>
        <time>2024-09-22T09:18:16Z</time>
      </trkpt>
      <trkpt lat="49.15776" lon="-0.11024">
        <ele>25</ele>
        <time>2024-09-22T09:18:17Z</time>
      </trkpt>
      <trkpt lat="49.15784" lon="-0.11022">
        <ele>25</ele>
        <time>2024-09-22T09:18:18Z</time>
      </trkpt>
      <trkpt lat="49.15792" lon="-0.1102">
        <ele>24.6</ele>
        <time>2024-09-22T09:18:19Z</time>
      </trkpt>
      <trkpt lat="49.15798" lon="-0.11019">
        <ele>24.4</ele>
        <time>2024-09-22T09:18:20Z</time>
      </trkpt>
      <trkpt lat="49.15808" lon="-0.11016">
        <ele>24.4</ele>
        <time>2024-09-22T09:18:21Z</time>
      </trkpt>
      <trkpt lat="49.15815" lon="-0.11012">
        <ele>24.2</ele>
        <time>2024-09-22T09:18:22Z</time>
      </trkpt>
      <trkpt lat="49.15823" lon="-0.11009">
        <ele>24.2</ele>
        <time>2024-09-22T09:18:23Z</time>
      </trkpt>
      <trkpt lat="49.15831" lon="-0.11005">
        <ele>24.2</ele>
        <time>2024-09-22T09:18:24Z</time>
      </trkpt>
      <trkpt lat="49.15838" lon="-0.11002">
        <ele>24</ele>
        <time>2024-09-22T09:18:25Z</time>
      </trkpt>
      <trkpt lat="49.15846" lon="-0.10999">
        <ele>24</ele>
        <time>2024-09-22T09:18:26Z</time>
      </trkpt>
      <trkpt lat="49.15853" lon="-0.10995">
        <ele>24</ele>
        <time>2024-09-22T09:18:27Z</time>
      </trkpt>
      <trkpt lat="49.15861" lon="-0.10991">
        <ele>24</ele>
        <time>2024-09-22T09:18:28Z</time>
      </trkpt>
      <trkpt lat="49.15866" lon="-0.10987">
        <ele>24</ele>
        <time>2024-09-22T09:18:29Z</time>
      </trkpt>
      <trkpt lat="49.15875" lon="-0.10982">
        <ele>24</ele>
        <time>2024-09-22T09:18:30Z</time>
      </trkpt>
      <trkpt lat="49.15881" lon="-0.10977">
        <ele>24</ele>
        <time>2024-09-22T09:18:31Z</time>
      </trkpt>
      <trkpt lat="49.15888" lon="-0.10972">
        <ele>24</ele>
        <time>2024-09-22T09:18:32Z</time>
      </trkpt>
      <trkpt lat="49.15896" lon="-0.10968">
        <ele>24</ele>
        <time>2024-09-22T09:18:33Z</time>
      </trkpt>
      <trkpt lat="49.15901" lon="-0.10964">
        <ele>24</ele>
        <time>2024-09-22T09:18:34Z</time>
      </trkpt>
      <trkpt lat="49.1591" lon="-0.10959">
        <ele>24</ele>
        <time>2024-09-22T09:18:35Z</time>
      </trkpt>
      <trkpt lat="49.15917" lon="-0.10954">
        <ele>24</ele>
        <time>2024-09-22T09:18:36Z</time>
      </trkpt>
      <trkpt lat="49.15924" lon="-0.10949">
        <ele>23.8</ele>
        <time>2024-09-22T09:18:37Z</time>
      </trkpt>
      <trkpt lat="49.15931" lon="-0.10945">
        <ele>23.8</ele>
        <time>2024-09-22T09:18:38Z</time>
      </trkpt>
      <trkpt lat="49.15938" lon="-0.1094">
        <ele>23.8</ele>
        <time>2024-09-22T09:18:39Z</time>
      </trkpt>
      <trkpt lat="49.15946" lon="-0.10936">
        <ele>23.8</ele>
        <time>2024-09-22T09:18:40Z</time>
      </trkpt>
      <trkpt lat="49.15953" lon="-0.10932">
        <ele>23.8</ele>
        <time>2024-09-22T09:18:41Z</time>
      </trkpt>
      <trkpt lat="49.1596" lon="-0.10928">
        <ele>23.8</ele>
        <time>2024-09-22T09:18:42Z</time>
      </trkpt>
      <trkpt lat="49.15968" lon="-0.10925">
        <ele>24</ele>
        <time>2024-09-22T09:18:43Z</time>
      </trkpt>
      <trkpt lat="49.15975" lon="-0.10922">
        <ele>24</ele>
        <time>2024-09-22T09:18:44Z</time>
      </trkpt>
      <trkpt lat="49.15983" lon="-0.10919">
        <ele>24</ele>
        <time>2024-09-22T09:18:45Z</time>
      </trkpt>
      <trkpt lat="49.15991" lon="-0.10916">
        <ele>24</ele>
        <time>2024-09-22T09:18:46Z</time>
      </trkpt>
      <trkpt lat="49.15997" lon="-0.10913">
        <ele>24</ele>
        <time>2024-09-22T09:18:47Z</time>
      </trkpt>
      <trkpt lat="49.16004" lon="-0.1091">
        <ele>24</ele>
        <time>2024-09-22T09:18:48Z</time>
      </trkpt>
      <trkpt lat="49.16012" lon="-0.10907">
        <ele>24</ele>
        <time>2024-09-22T09:18:49Z</time>
      </trkpt>
      <trkpt lat="49.16021" lon="-0.10903">
        <ele>24</ele>
        <time>2024-09-22T09:18:50Z</time>
      </trkpt>
      <trkpt lat="49.16028" lon="-0.109">
        <ele>24</ele>
        <time>2024-09-22T09:18:51Z</time>
      </trkpt>
      <trkpt lat="49.16036" lon="-0.10897">
        <ele>23.8</ele>
        <time>2024-09-22T09:18:52Z</time>
      </trkpt>
      <trkpt lat="49.16045" lon="-0.10893">
        <ele>23.8</ele>
        <time>2024-09-22T09:18:53Z</time>
      </trkpt>
      <trkpt lat="49.16053" lon="-0.1089">
        <ele>23.8</ele>
        <time>2024-09-22T09:18:54Z</time>
      </trkpt>
      <trkpt lat="49.16062" lon="-0.10886">
        <ele>23.8</ele>
        <time>2024-09-22T09:18:55Z</time>
      </trkpt>
      <trkpt lat="49.16071" lon="-0.10881">
        <ele>23.8</ele>
        <time>2024-09-22T09:18:56Z</time>
      </trkpt>
      <trkpt lat="49.1608" lon="-0.10876">
        <ele>23.8</ele>
        <time>2024-09-22T09:18:57Z</time>
      </trkpt>
      <trkpt lat="49.1609" lon="-0.10871">
        <ele>23.6</ele>
        <time>2024-09-22T09:18:58Z</time>
      </trkpt>
      <trkpt lat="49.16099" lon="-0.10866">
        <ele>23.4</ele>
        <time>2024-09-22T09:18:59Z</time>
      </trkpt>
      <trkpt lat="49.16109" lon="-0.10861">
        <ele>23.4</ele>
        <time>2024-09-22T09:19:00Z</time>
      </trkpt>
      <trkpt lat="49.16119" lon="-0.10855">
        <ele>23.2</ele>
        <time>2024-09-22T09:19:01Z</time>
      </trkpt>
      <trkpt lat="49.16129" lon="-0.10851">
        <ele>23</ele>
        <time>2024-09-22T09:19:02Z</time>
      </trkpt>
      <trkpt lat="49.16139" lon="-0.10846">
        <ele>22.6</ele>
        <time>2024-09-22T09:19:03Z</time>
      </trkpt>
      <trkpt lat="49.16147" lon="-0.10842">
        <ele>22.2</ele>
        <time>2024-09-22T09:19:04Z</time>
      </trkpt>
      <trkpt lat="49.1616" lon="-0.10837">
        <ele>21.6</ele>
        <time>2024-09-22T09:19:05Z</time>
      </trkpt>
      <trkpt lat="49.1617" lon="-0.10832">
        <ele>21.2</ele>
        <time>2024-09-22T09:19:06Z</time>
      </trkpt>
      <trkpt lat="49.1618" lon="-0.10827">
        <ele>20.6</ele>
        <time>2024-09-22T09:19:07Z</time>
      </trkpt>
      <trkpt lat="49.1619" lon="-0.10822">
        <ele>20</ele>
        <time>2024-09-22T09:19:08Z</time>
      </trkpt>
      <trkpt lat="49.16199" lon="-0.10817">
        <ele>19.4</ele>
        <time>2024-09-22T09:19:09Z</time>
      </trkpt>
      <trkpt lat="49.16211" lon="-0.10811">
        <ele>19</ele>
        <time>2024-09-22T09:19:10Z</time>
      </trkpt>
      <trkpt lat="49.16221" lon="-0.10806">
        <ele>18.6</ele>
        <time>2024-09-22T09:19:11Z</time>
      </trkpt>
      <trkpt lat="49.16229" lon="-0.10802">
        <ele>18.6</ele>
        <time>2024-09-22T09:19:12Z</time>
      </trkpt>
      <trkpt lat="49.16237" lon="-0.10798">
        <ele>18.2</ele>
        <time>2024-09-22T09:19:13Z</time>
      </trkpt>
      <trkpt lat="49.16252" lon="-0.10791">
        <ele>17.6</ele>
        <time>2024-09-22T09:19:14Z</time>
      </trkpt>
      <trkpt lat="49.16262" lon="-0.10786">
        <ele>17.2</ele>
        <time>2024-09-22T09:19:15Z</time>
      </trkpt>
      <trkpt lat="49.16272" lon="-0.10781">
        <ele>16.8</ele>
        <time>2024-09-22T09:19:16Z</time>
      </trkpt>
      <trkpt lat="49.16282" lon="-0.10775">
        <ele>16.6</ele>
        <time>2024-09-22T09:19:17Z</time>
      </trkpt>
      <trkpt lat="49.16292" lon="-0.1077">
        <ele>16.4</ele>
        <time>2024-09-22T09:19:18Z</time>
      </trkpt>
      <trkpt lat="49.16301" lon="-0.10765">
        <ele>16</ele>
        <time>2024-09-22T09:19:19Z</time>
      </trkpt>
      <trkpt lat="49.16311" lon="-0.1076">
        <ele>15.4</ele>
        <time>2024-09-22T09:19:20Z</time>
      </trkpt>
      <trkpt lat="49.16318" lon="-0.10756">
        <ele>15</ele>
        <time>2024-09-22T09:19:21Z</time>
      </trkpt>
      <trkpt lat="49.16328" lon="-0.1075">
        <ele>14.6</ele>
        <time>2024-09-22T09:19:22Z</time>
      </trkpt>
      <trkpt lat="49.16338" lon="-0.10745">
        <ele>13.8</ele>
        <time>2024-09-22T09:19:23Z</time>
      </trkpt>
      <trkpt lat="49.16347" lon="-0.1074">
        <ele>13</ele>
        <time>2024-09-22T09:19:24Z</time>
      </trkpt>
      <trkpt lat="49.16359" lon="-0.10733">
        <ele>12.6</ele>
        <time>2024-09-22T09:19:25Z</time>
      </trkpt>
      <trkpt lat="49.16369" lon="-0.10727">
        <ele>12.2</ele>
        <time>2024-09-22T09:19:26Z</time>
      </trkpt>
      <trkpt lat="49.16378" lon="-0.10722">
        <ele>12</ele>
        <time>2024-09-22T09:19:27Z</time>
      </trkpt>
      <trkpt lat="49.16388" lon="-0.10716">
        <ele>12</ele>
        <time>2024-09-22T09:19:28Z</time>
      </trkpt>
      <trkpt lat="49.16395" lon="-0.10712">
        <ele>12</ele>
        <time>2024-09-22T09:19:29Z</time>
      </trkpt>
      <trkpt lat="49.16407" lon="-0.10706">
        <ele>11.8</ele>
        <time>2024-09-22T09:19:30Z</time>
      </trkpt>
      <trkpt lat="49.16416" lon="-0.10701">
        <ele>11.8</ele>
        <time>2024-09-22T09:19:31Z</time>
      </trkpt>
      <trkpt lat="49.16425" lon="-0.10697">
        <ele>11.8</ele>
        <time>2024-09-22T09:19:32Z</time>
      </trkpt>
      <trkpt lat="49.16434" lon="-0.10693">
        <ele>11.8</ele>
        <time>2024-09-22T09:19:33Z</time>
      </trkpt>
      <trkpt lat="49.16443" lon="-0.10689">
        <ele>11.8</ele>
        <time>2024-09-22T09:19:34Z</time>
      </trkpt>
      <trkpt lat="49.16453" lon="-0.10686">
        <ele>11.8</ele>
        <time>2024-09-22T09:19:35Z</time>
      </trkpt>
      <trkpt lat="49.16462" lon="-0.10683">
        <ele>11.8</ele>
        <time>2024-09-22T09:19:36Z</time>
      </trkpt>
      <trkpt lat="49.16472" lon="-0.10681">
        <ele>11.6</ele>
        <time>2024-09-22T09:19:37Z</time>
      </trkpt>
      <trkpt lat="49.16481" lon="-0.10679">
        <ele>11.6</ele>
        <time>2024-09-22T09:19:38Z</time>
      </trkpt>
      <trkpt lat="49.16491" lon="-0.10678">
        <ele>11.6</ele>
        <time>2024-09-22T09:19:39Z</time>
      </trkpt>
      <trkpt lat="49.16501" lon="-0.10676">
        <ele>11.6</ele>
        <time>2024-09-22T09:19:40Z</time>
      </trkpt>
      <trkpt lat="49.1651" lon="-0.10675">
        <ele>11.6</ele>
        <time>2024-09-22T09:19:41Z</time>
      </trkpt>
      <trkpt lat="49.16519" lon="-0.10674">
        <ele>11.6</ele>
        <time>2024-09-22T09:19:42Z</time>
      </trkpt>
      <trkpt lat="49.16528" lon="-0.10672">
        <ele>11.6</ele>
        <time>2024-09-22T09:19:43Z</time>
      </trkpt>
      <trkpt lat="49.16536" lon="-0.10671">
        <ele>11.6</ele>
        <time>2024-09-22T09:19:44Z</time>
      </trkpt>
      <trkpt lat="49.16545" lon="-0.1067">
        <ele>11.8</ele>
        <time>2024-09-22T09:19:45Z</time>
      </trkpt>
      <trkpt lat="49.16554" lon="-0.1067">
        <ele>11.8</ele>
        <time>2024-09-22T09:19:46Z</time>
      </trkpt>
      <trkpt lat="49.16565" lon="-0.1067">
        <ele>11.8</ele>
        <time>2024-09-22T09:19:47Z</time>
      </trkpt>
      <trkpt lat="49.16574" lon="-0.10671">
        <ele>11.8</ele>
        <time>2024-09-22T09:19:48Z</time>
      </trkpt>
      <trkpt lat="49.16584" lon="-0.10671">
        <ele>11.8</ele>
        <time>2024-09-22T09:19:49Z</time>
      </trkpt>
      <trkpt lat="49.16593" lon="-0.10672">
        <ele>11.8</ele>
        <time>2024-09-22T09:19:50Z</time>
      </trkpt>
      <trkpt lat="49.16602" lon="-0.10672">
        <ele>11.8</ele>
        <time>2024-09-22T09:19:51Z</time>
      </trkpt>
      <trkpt lat="49.16611" lon="-0.10671">
        <ele>11.8</ele>
        <time>2024-09-22T09:19:52Z</time>
      </trkpt>
      <trkpt lat="49.1662" lon="-0.1067">
        <ele>11.8</ele>
        <time>2024-09-22T09:19:53Z</time>
      </trkpt>
      <trkpt lat="49.16629" lon="-0.10668">
        <ele>11.8</ele>
        <time>2024-09-22T09:19:54Z</time>
      </trkpt>
      <trkpt lat="49.16638" lon="-0.10666">
        <ele>11.6</ele>
        <time>2024-09-22T09:19:55Z</time>
      </trkpt>
      <trkpt lat="49.16647" lon="-0.10664">
        <ele>11.6</ele>
        <time>2024-09-22T09:19:56Z</time>
      </trkpt>
      <trkpt lat="49.16656" lon="-0.10661">
        <ele>11.6</ele>
        <time>2024-09-22T09:19:57Z</time>
      </trkpt>
      <trkpt lat="49.16665" lon="-0.10658">
        <ele>11.6</ele>
        <time>2024-09-22T09:19:58Z</time>
      </trkpt>
      <trkpt lat="49.16673" lon="-0.10654">
        <ele>11.6</ele>
        <time>2024-09-22T09:19:59Z</time>
      </trkpt>
      <trkpt lat="49.16681" lon="-0.10649">
        <ele>11.6</ele>
        <time>2024-09-22T09:20:00Z</time>
      </trkpt>
      <trkpt lat="49.16689" lon="-0.10642">
        <ele>11.6</ele>
        <time>2024-09-22T09:20:01Z</time>
      </trkpt>
      <trkpt lat="49.16696" lon="-0.10634">
        <ele>11.6</ele>
        <time>2024-09-22T09:20:02Z</time>
      </trkpt>
      <trkpt lat="49.16702" lon="-0.10626">
        <ele>11.6</ele>
        <time>2024-09-22T09:20:03Z</time>
      </trkpt>
      <trkpt lat="49.16709" lon="-0.10617">
        <ele>11.6</ele>
        <time>2024-09-22T09:20:04Z</time>
      </trkpt>
      <trkpt lat="49.16715" lon="-0.10607">
        <ele>11.6</ele>
        <time>2024-09-22T09:20:05Z</time>
      </trkpt>
      <trkpt lat="49.1672" lon="-0.106">
        <ele>11.6</ele>
        <time>2024-09-22T09:20:06Z</time>
      </trkpt>
      <trkpt lat="49.16727" lon="-0.10588">
        <ele>11.6</ele>
        <time>2024-09-22T09:20:07Z</time>
      </trkpt>
      <trkpt lat="49.16733" lon="-0.10579">
        <ele>11.6</ele>
        <time>2024-09-22T09:20:08Z</time>
      </trkpt>
      <trkpt lat="49.16739" lon="-0.1057">
        <ele>11.6</ele>
        <time>2024-09-22T09:20:09Z</time>
      </trkpt>
      <trkpt lat="49.16744" lon="-0.10561">
        <ele>11.6</ele>
        <time>2024-09-22T09:20:10Z</time>
      </trkpt>
      <trkpt lat="49.1675" lon="-0.10552">
        <ele>11.6</ele>
        <time>2024-09-22T09:20:11Z</time>
      </trkpt>
      <trkpt lat="49.16756" lon="-0.10544">
        <ele>11.6</ele>
        <time>2024-09-22T09:20:12Z</time>
      </trkpt>
      <trkpt lat="49.16761" lon="-0.10537">
        <ele>11.6</ele>
        <time>2024-09-22T09:20:13Z</time>
      </trkpt>
      <trkpt lat="49.16768" lon="-0.10528">
        <ele>11.8</ele>
        <time>2024-09-22T09:20:14Z</time>
      </trkpt>
      <trkpt lat="49.16774" lon="-0.1052">
        <ele>11.8</ele>
        <time>2024-09-22T09:20:15Z</time>
      </trkpt>
      <trkpt lat="49.16781" lon="-0.10513">
        <ele>11.8</ele>
        <time>2024-09-22T09:20:16Z</time>
      </trkpt>
      <trkpt lat="49.16787" lon="-0.10506">
        <ele>11.8</ele>
        <time>2024-09-22T09:20:17Z</time>
      </trkpt>
      <trkpt lat="49.16794" lon="-0.10501">
        <ele>11.8</ele>
        <time>2024-09-22T09:20:18Z</time>
      </trkpt>
      <trkpt lat="49.16801" lon="-0.10497">
        <ele>12</ele>
        <time>2024-09-22T09:20:19Z</time>
      </trkpt>
      <trkpt lat="49.16807" lon="-0.10497">
        <ele>12</ele>
        <time>2024-09-22T09:20:20Z</time>
      </trkpt>
      <trkpt lat="49.16816" lon="-0.105">
        <ele>12</ele>
        <time>2024-09-22T09:20:21Z</time>
      </trkpt>
      <trkpt lat="49.16823" lon="-0.10505">
        <ele>12</ele>
        <time>2024-09-22T09:20:22Z</time>
      </trkpt>
      <trkpt lat="49.1683" lon="-0.10511">
        <ele>12</ele>
        <time>2024-09-22T09:20:23Z</time>
      </trkpt>
      <trkpt lat="49.16836" lon="-0.10518">
        <ele>12</ele>
        <time>2024-09-22T09:20:24Z</time>
      </trkpt>
      <trkpt lat="49.16842" lon="-0.10526">
        <ele>12</ele>
        <time>2024-09-22T09:20:25Z</time>
      </trkpt>
      <trkpt lat="49.16848" lon="-0.10534">
        <ele>12</ele>
        <time>2024-09-22T09:20:26Z</time>
      </trkpt>
      <trkpt lat="49.16853" lon="-0.10543">
        <ele>12</ele>
        <time>2024-09-22T09:20:27Z</time>
      </trkpt>
      <trkpt lat="49.16857" lon="-0.10551">
        <ele>12</ele>
        <time>2024-09-22T09:20:28Z</time>
      </trkpt>
      <trkpt lat="49.16862" lon="-0.10564">
        <ele>12</ele>
        <time>2024-09-22T09:20:29Z</time>
      </trkpt>
      <trkpt lat="49.16866" lon="-0.10574">
        <ele>12</ele>
        <time>2024-09-22T09:20:30Z</time>
      </trkpt>
      <trkpt lat="49.16869" lon="-0.10584">
        <ele>12</ele>
        <time>2024-09-22T09:20:31Z</time>
      </trkpt>
      <trkpt lat="49.16871" lon="-0.10594">
        <ele>12</ele>
        <time>2024-09-22T09:20:32Z</time>
      </trkpt>
      <trkpt lat="49.16873" lon="-0.10605">
        <ele>12</ele>
        <time>2024-09-22T09:20:33Z</time>
      </trkpt>
      <trkpt lat="49.16874" lon="-0.10616">
        <ele>12</ele>
        <time>2024-09-22T09:20:34Z</time>
      </trkpt>
      <trkpt lat="49.16874" lon="-0.10628">
        <ele>12</ele>
        <time>2024-09-22T09:20:35Z</time>
      </trkpt>
      <trkpt lat="49.16873" lon="-0.10639">
        <ele>12</ele>
        <time>2024-09-22T09:20:36Z</time>
      </trkpt>
      <trkpt lat="49.16873" lon="-0.10651">
        <ele>12</ele>
        <time>2024-09-22T09:20:37Z</time>
      </trkpt>
      <trkpt lat="49.16872" lon="-0.10663">
        <ele>12</ele>
        <time>2024-09-22T09:20:38Z</time>
      </trkpt>
      <trkpt lat="49.16872" lon="-0.10676">
        <ele>12</ele>
        <time>2024-09-22T09:20:39Z</time>
      </trkpt>
      <trkpt lat="49.16872" lon="-0.10688">
        <ele>12</ele>
        <time>2024-09-22T09:20:40Z</time>
      </trkpt>
      <trkpt lat="49.16873" lon="-0.107">
        <ele>12</ele>
        <time>2024-09-22T09:20:41Z</time>
      </trkpt>
      <trkpt lat="49.16875" lon="-0.10712">
        <ele>12</ele>
        <time>2024-09-22T09:20:42Z</time>
      </trkpt>
      <trkpt lat="49.16877" lon="-0.10723">
        <ele>12</ele>
        <time>2024-09-22T09:20:43Z</time>
      </trkpt>
      <trkpt lat="49.1688" lon="-0.10735">
        <ele>12</ele>
        <time>2024-09-22T09:20:44Z</time>
      </trkpt>
      <trkpt lat="49.16884" lon="-0.10745">
        <ele>12</ele>
        <time>2024-09-22T09:20:45Z</time>
      </trkpt>
      <trkpt lat="49.16888" lon="-0.10756">
        <ele>11.8</ele>
        <time>2024-09-22T09:20:46Z</time>
      </trkpt>
      <trkpt lat="49.16892" lon="-0.10766">
        <ele>11.8</ele>
        <time>2024-09-22T09:20:47Z</time>
      </trkpt>
      <trkpt lat="49.16896" lon="-0.10773">
        <ele>11.8</ele>
        <time>2024-09-22T09:20:48Z</time>
      </trkpt>
      <trkpt lat="49.16902" lon="-0.10783">
        <ele>11.8</ele>
        <time>2024-09-22T09:20:49Z</time>
      </trkpt>
      <trkpt lat="49.16908" lon="-0.10794">
        <ele>11.8</ele>
        <time>2024-09-22T09:20:50Z</time>
      </trkpt>
      <trkpt lat="49.16913" lon="-0.10803">
        <ele>11.8</ele>
        <time>2024-09-22T09:20:51Z</time>
      </trkpt>
      <trkpt lat="49.16919" lon="-0.10812">
        <ele>11.8</ele>
        <time>2024-09-22T09:20:52Z</time>
      </trkpt>
      <trkpt lat="49.16926" lon="-0.10819">
        <ele>11.8</ele>
        <time>2024-09-22T09:20:53Z</time>
      </trkpt>
      <trkpt lat="49.16933" lon="-0.10825">
        <ele>11.8</ele>
        <time>2024-09-22T09:20:54Z</time>
      </trkpt>
      <trkpt lat="49.1694" lon="-0.10831">
        <ele>11.8</ele>
        <time>2024-09-22T09:20:55Z</time>
      </trkpt>
      <trkpt lat="49.16947" lon="-0.10837">
        <ele>11.8</ele>
        <time>2024-09-22T09:20:56Z</time>
      </trkpt>
      <trkpt lat="49.16954" lon="-0.10842">
        <ele>11.8</ele>
        <time>2024-09-22T09:20:57Z</time>
      </trkpt>
      <trkpt lat="49.16962" lon="-0.10847">
        <ele>11.8</ele>
        <time>2024-09-22T09:20:58Z</time>
      </trkpt>
      <trkpt lat="49.16969" lon="-0.10852">
        <ele>11.8</ele>
        <time>2024-09-22T09:20:59Z</time>
      </trkpt>
      <trkpt lat="49.16977" lon="-0.10859">
        <ele>11.8</ele>
        <time>2024-09-22T09:21:00Z</time>
      </trkpt>
      <trkpt lat="49.16984" lon="-0.10866">
        <ele>11.8</ele>
        <time>2024-09-22T09:21:01Z</time>
      </trkpt>
      <trkpt lat="49.16991" lon="-0.10874">
        <ele>11.8</ele>
        <time>2024-09-22T09:21:02Z</time>
      </trkpt>
      <trkpt lat="49.16997" lon="-0.10882">
        <ele>11.8</ele>
        <time>2024-09-22T09:21:03Z</time>
      </trkpt>
      <trkpt lat="49.17004" lon="-0.1089">
        <ele>11.8</ele>
        <time>2024-09-22T09:21:04Z</time>
      </trkpt>
      <trkpt lat="49.17011" lon="-0.10899">
        <ele>11.8</ele>
        <time>2024-09-22T09:21:05Z</time>
      </trkpt>
      <trkpt lat="49.17017" lon="-0.10907">
        <ele>11.8</ele>
        <time>2024-09-22T09:21:06Z</time>
      </trkpt>
      <trkpt lat="49.17023" lon="-0.10916">
        <ele>11.8</ele>
        <time>2024-09-22T09:21:07Z</time>
      </trkpt>
      <trkpt lat="49.17028" lon="-0.10923">
        <ele>11.6</ele>
        <time>2024-09-22T09:21:08Z</time>
      </trkpt>
      <trkpt lat="49.17036" lon="-0.10933">
        <ele>11.6</ele>
        <time>2024-09-22T09:21:09Z</time>
      </trkpt>
      <trkpt lat="49.17042" lon="-0.10942">
        <ele>11.6</ele>
        <time>2024-09-22T09:21:10Z</time>
      </trkpt>
      <trkpt lat="49.17047" lon="-0.10949">
        <ele>11.6</ele>
        <time>2024-09-22T09:21:11Z</time>
      </trkpt>
      <trkpt lat="49.17054" lon="-0.10958">
        <ele>11.6</ele>
        <time>2024-09-22T09:21:12Z</time>
      </trkpt>
      <trkpt lat="49.17062" lon="-0.10968">
        <ele>11.6</ele>
        <time>2024-09-22T09:21:13Z</time>
      </trkpt>
      <trkpt lat="49.17067" lon="-0.10974">
        <ele>11.6</ele>
        <time>2024-09-22T09:21:14Z</time>
      </trkpt>
      <trkpt lat="49.17075" lon="-0.10984">
        <ele>11.6</ele>
        <time>2024-09-22T09:21:15Z</time>
      </trkpt>
      <trkpt lat="49.17082" lon="-0.10991">
        <ele>11.6</ele>
        <time>2024-09-22T09:21:16Z</time>
      </trkpt>
      <trkpt lat="49.17087" lon="-0.10997">
        <ele>11.6</ele>
        <time>2024-09-22T09:21:17Z</time>
      </trkpt>
      <trkpt lat="49.17096" lon="-0.11005">
        <ele>11.6</ele>
        <time>2024-09-22T09:21:18Z</time>
      </trkpt>
      <trkpt lat="49.17104" lon="-0.1101">
        <ele>11.6</ele>
        <time>2024-09-22T09:21:19Z</time>
      </trkpt>
      <trkpt lat="49.1711" lon="-0.11015">
        <ele>11.6</ele>
        <time>2024-09-22T09:21:20Z</time>
      </trkpt>
      <trkpt lat="49.17118" lon="-0.1102">
        <ele>11.6</ele>
        <time>2024-09-22T09:21:21Z</time>
      </trkpt>
      <trkpt lat="49.17127" lon="-0.11025">
        <ele>11.6</ele>
        <time>2024-09-22T09:21:22Z</time>
      </trkpt>
      <trkpt lat="49.17133" lon="-0.11029">
        <ele>11.6</ele>
        <time>2024-09-22T09:21:23Z</time>
      </trkpt>
      <trkpt lat="49.17143" lon="-0.11036">
        <ele>11.6</ele>
        <time>2024-09-22T09:21:24Z</time>
      </trkpt>
      <trkpt lat="49.1715" lon="-0.11041">
        <ele>11.6</ele>
        <time>2024-09-22T09:21:25Z</time>
      </trkpt>
      <trkpt lat="49.17156" lon="-0.11045">
        <ele>11.8</ele>
        <time>2024-09-22T09:21:26Z</time>
      </trkpt>
      <trkpt lat="49.17165" lon="-0.11052">
        <ele>11.8</ele>
        <time>2024-09-22T09:21:27Z</time>
      </trkpt>
      <trkpt lat="49.17172" lon="-0.11058">
        <ele>11.8</ele>
        <time>2024-09-22T09:21:28Z</time>
      </trkpt>
      <trkpt lat="49.17178" lon="-0.11064">
        <ele>11.8</ele>
        <time>2024-09-22T09:21:29Z</time>
      </trkpt>
      <trkpt lat="49.17186" lon="-0.11072">
        <ele>11.8</ele>
        <time>2024-09-22T09:21:30Z</time>
      </trkpt>
      <trkpt lat="49.17192" lon="-0.11078">
        <ele>12</ele>
        <time>2024-09-22T09:21:31Z</time>
      </trkpt>
      <trkpt lat="49.17199" lon="-0.11086">
        <ele>12</ele>
        <time>2024-09-22T09:21:32Z</time>
      </trkpt>
      <trkpt lat="49.17207" lon="-0.11095">
        <ele>12</ele>
        <time>2024-09-22T09:21:33Z</time>
      </trkpt>
      <trkpt lat="49.17214" lon="-0.11101">
        <ele>12</ele>
        <time>2024-09-22T09:21:34Z</time>
      </trkpt>
      <trkpt lat="49.1722" lon="-0.11104">
        <ele>12</ele>
        <time>2024-09-22T09:21:35Z</time>
      </trkpt>
      <trkpt lat="49.17229" lon="-0.11107">
        <ele>12</ele>
        <time>2024-09-22T09:21:36Z</time>
      </trkpt>
      <trkpt lat="49.17236" lon="-0.11106">
        <ele>12</ele>
        <time>2024-09-22T09:21:37Z</time>
      </trkpt>
      <trkpt lat="49.17241" lon="-0.11103">
        <ele>12</ele>
        <time>2024-09-22T09:21:38Z</time>
      </trkpt>
      <trkpt lat="49.17249" lon="-0.11096">
        <ele>12</ele>
        <time>2024-09-22T09:21:39Z</time>
      </trkpt>
      <trkpt lat="49.17255" lon="-0.11088">
        <ele>12</ele>
        <time>2024-09-22T09:21:40Z</time>
      </trkpt>
      <trkpt lat="49.17259" lon="-0.11082">
        <ele>12</ele>
        <time>2024-09-22T09:21:41Z</time>
      </trkpt>
      <trkpt lat="49.17266" lon="-0.11074">
        <ele>12</ele>
        <time>2024-09-22T09:21:42Z</time>
      </trkpt>
      <trkpt lat="49.17271" lon="-0.11067">
        <ele>12</ele>
        <time>2024-09-22T09:21:43Z</time>
      </trkpt>
      <trkpt lat="49.17274" lon="-0.11063">
        <ele>11.8</ele>
        <time>2024-09-22T09:21:44Z</time>
      </trkpt>
      <trkpt lat="49.1728" lon="-0.11057">
        <ele>11.8</ele>
        <time>2024-09-22T09:21:45Z</time>
      </trkpt>
      <trkpt lat="49.17285" lon="-0.11054">
        <ele>11.8</ele>
        <time>2024-09-22T09:21:46Z</time>
      </trkpt>
      <trkpt lat="49.17289" lon="-0.11053">
        <ele>11.8</ele>
        <time>2024-09-22T09:21:47Z</time>
      </trkpt>
      <trkpt lat="49.17296" lon="-0.11054">
        <ele>11.8</ele>
        <time>2024-09-22T09:21:48Z</time>
      </trkpt>
      <trkpt lat="49.17302" lon="-0.11058">
        <ele>11.8</ele>
        <time>2024-09-22T09:21:49Z</time>
      </trkpt>
      <trkpt lat="49.17307" lon="-0.11063">
        <ele>11.8</ele>
        <time>2024-09-22T09:21:50Z</time>
      </trkpt>
      <trkpt lat="49.17313" lon="-0.11072">
        <ele>11.8</ele>
        <time>2024-09-22T09:21:51Z</time>
      </trkpt>
      <trkpt lat="49.17317" lon="-0.11079">
        <ele>11.6</ele>
        <time>2024-09-22T09:21:52Z</time>
      </trkpt>
      <trkpt lat="49.17322" lon="-0.11088">
        <ele>11.6</ele>
        <time>2024-09-22T09:21:53Z</time>
      </trkpt>
      <trkpt lat="49.17327" lon="-0.11098">
        <ele>11.6</ele>
        <time>2024-09-22T09:21:54Z</time>
      </trkpt>
      <trkpt lat="49.17332" lon="-0.11107">
        <ele>11.6</ele>
        <time>2024-09-22T09:21:55Z</time>
      </trkpt>
      <trkpt lat="49.17336" lon="-0.11113">
        <ele>11.6</ele>
        <time>2024-09-22T09:21:56Z</time>
      </trkpt>
      <trkpt lat="49.17342" lon="-0.11122">
        <ele>11.6</ele>
        <time>2024-09-22T09:21:57Z</time>
      </trkpt>
      <trkpt lat="49.17348" lon="-0.11128">
        <ele>11.6</ele>
        <time>2024-09-22T09:21:58Z</time>
      </trkpt>
      <trkpt lat="49.17353" lon="-0.11131">
        <ele>11.6</ele>
        <time>2024-09-22T09:21:59Z</time>
      </trkpt>
      <trkpt lat="49.17361" lon="-0.11136">
        <ele>11.6</ele>
        <time>2024-09-22T09:22:00Z</time>
      </trkpt>
      <trkpt lat="49.17368" lon="-0.11138">
        <ele>11.6</ele>
        <time>2024-09-22T09:22:01Z</time>
      </trkpt>
      <trkpt lat="49.17373" lon="-0.11139">
        <ele>11.6</ele>
        <time>2024-09-22T09:22:02Z</time>
      </trkpt>
      <trkpt lat="49.17381" lon="-0.11139">
        <ele>11.4</ele>
        <time>2024-09-22T09:22:03Z</time>
      </trkpt>
      <trkpt lat="49.17388" lon="-0.1114">
        <ele>11.4</ele>
        <time>2024-09-22T09:22:04Z</time>
      </trkpt>
      <trkpt lat="49.17393" lon="-0.1114">
        <ele>11.4</ele>
        <time>2024-09-22T09:22:05Z</time>
      </trkpt>
      <trkpt lat="49.17401" lon="-0.11141">
        <ele>11.2</ele>
        <time>2024-09-22T09:22:06Z</time>
      </trkpt>
      <trkpt lat="49.17407" lon="-0.11142">
        <ele>11.2</ele>
        <time>2024-09-22T09:22:07Z</time>
      </trkpt>
      <trkpt lat="49.17412" lon="-0.11142">
        <ele>11</ele>
        <time>2024-09-22T09:22:08Z</time>
      </trkpt>
      <trkpt lat="49.17419" lon="-0.11143">
        <ele>11</ele>
        <time>2024-09-22T09:22:09Z</time>
      </trkpt>
      <trkpt lat="49.17423" lon="-0.11144">
        <ele>10.8</ele>
        <time>2024-09-22T09:22:10Z</time>
      </trkpt>
      <trkpt lat="49.17427" lon="-0.11145">
        <ele>10.8</ele>
        <time>2024-09-22T09:22:11Z</time>
      </trkpt>
      <trkpt lat="49.17431" lon="-0.11145">
        <ele>11</ele>
        <time>2024-09-22T09:22:12Z</time>
      </trkpt>
      <trkpt lat="49.17434" lon="-0.11146">
        <ele>11</ele>
        <time>2024-09-22T09:22:13Z</time>
      </trkpt>
      <trkpt lat="49.17437" lon="-0.11147">
        <ele>11</ele>
        <time>2024-09-22T09:22:14Z</time>
      </trkpt>
      <trkpt lat="49.17441" lon="-0.11148">
        <ele>10.8</ele>
        <time>2024-09-22T09:22:15Z</time>
      </trkpt>
      <trkpt lat="49.17445" lon="-0.11147">
        <ele>10.8</ele>
        <time>2024-09-22T09:22:16Z</time>
      </trkpt>
      <trkpt lat="49.1745" lon="-0.11144">
        <ele>10.8</ele>
        <time>2024-09-22T09:22:17Z</time>
      </trkpt>
      <trkpt lat="49.17456" lon="-0.11141">
        <ele>10.8</ele>
        <time>2024-09-22T09:22:18Z</time>
      </trkpt>
      <trkpt lat="49.17461" lon="-0.11137">
        <ele>10.8</ele>
        <time>2024-09-22T09:22:19Z</time>
      </trkpt>
      <trkpt lat="49.17466" lon="-0.11134">
        <ele>10.8</ele>
        <time>2024-09-22T09:22:20Z</time>
      </trkpt>
      <trkpt lat="49.17473" lon="-0.11129">
        <ele>10.6</ele>
        <time>2024-09-22T09:22:21Z</time>
      </trkpt>
      <trkpt lat="49.17479" lon="-0.11124">
        <ele>10.6</ele>
        <time>2024-09-22T09:22:22Z</time>
      </trkpt>
      <trkpt lat="49.17483" lon="-0.1112">
        <ele>10.6</ele>
        <time>2024-09-22T09:22:23Z</time>
      </trkpt>
      <trkpt lat="49.1749" lon="-0.11115">
        <ele>10.6</ele>
        <time>2024-09-22T09:22:24Z</time>
      </trkpt>
      <trkpt lat="49.17496" lon="-0.1111">
        <ele>10.4</ele>
        <time>2024-09-22T09:22:25Z</time>
      </trkpt>
      <trkpt lat="49.17501" lon="-0.11106">
        <ele>10.4</ele>
        <time>2024-09-22T09:22:26Z</time>
      </trkpt>
      <trkpt lat="49.17508" lon="-0.111">
        <ele>10.2</ele>
        <time>2024-09-22T09:22:27Z</time>
      </trkpt>
      <trkpt lat="49.17514" lon="-0.11095">
        <ele>10.2</ele>
        <time>2024-09-22T09:22:28Z</time>
      </trkpt>
      <trkpt lat="49.17519" lon="-0.1109">
        <ele>10</ele>
        <time>2024-09-22T09:22:29Z</time>
      </trkpt>
      <trkpt lat="49.17526" lon="-0.11083">
        <ele>9.8</ele>
        <time>2024-09-22T09:22:30Z</time>
      </trkpt>
      <trkpt lat="49.17532" lon="-0.11076">
        <ele>9.8</ele>
        <time>2024-09-22T09:22:31Z</time>
      </trkpt>
      <trkpt lat="49.17537" lon="-0.11071">
        <ele>9.8</ele>
        <time>2024-09-22T09:22:32Z</time>
      </trkpt>
      <trkpt lat="49.17544" lon="-0.11063">
        <ele>9.6</ele>
        <time>2024-09-22T09:22:33Z</time>
      </trkpt>
      <trkpt lat="49.17549" lon="-0.11057">
        <ele>9.6</ele>
        <time>2024-09-22T09:22:34Z</time>
      </trkpt>
      <trkpt lat="49.17554" lon="-0.11049">
        <ele>9.6</ele>
        <time>2024-09-22T09:22:35Z</time>
      </trkpt>
      <trkpt lat="49.1756" lon="-0.11041">
        <ele>9.4</ele>
        <time>2024-09-22T09:22:36Z</time>
      </trkpt>
      <trkpt lat="49.17567" lon="-0.11032">
        <ele>9.4</ele>
        <time>2024-09-22T09:22:37Z</time>
      </trkpt>
      <trkpt lat="49.17571" lon="-0.11026">
        <ele>9.4</ele>
        <time>2024-09-22T09:22:38Z</time>
      </trkpt>
      <trkpt lat="49.17577" lon="-0.11016">
        <ele>9.4</ele>
        <time>2024-09-22T09:22:39Z</time>
      </trkpt>
      <trkpt lat="49.17582" lon="-0.11007">
        <ele>9.4</ele>
        <time>2024-09-22T09:22:40Z</time>
      </trkpt>
      <trkpt lat="49.17586" lon="-0.11001">
        <ele>9.4</ele>
        <time>2024-09-22T09:22:41Z</time>
      </trkpt>
      <trkpt lat="49.17592" lon="-0.10991">
        <ele>9.4</ele>
        <time>2024-09-22T09:22:42Z</time>
      </trkpt>
      <trkpt lat="49.17597" lon="-0.10982">
        <ele>9.4</ele>
        <time>2024-09-22T09:22:43Z</time>
      </trkpt>
      <trkpt lat="49.17601" lon="-0.10976">
        <ele>9.4</ele>
        <time>2024-09-22T09:22:44Z</time>
      </trkpt>
      <trkpt lat="49.17606" lon="-0.10966">
        <ele>9.6</ele>
        <time>2024-09-22T09:22:45Z</time>
      </trkpt>
      <trkpt lat="49.17611" lon="-0.10958">
        <ele>9.6</ele>
        <time>2024-09-22T09:22:46Z</time>
      </trkpt>
      <trkpt lat="49.17615" lon="-0.10951">
        <ele>9.6</ele>
        <time>2024-09-22T09:22:47Z</time>
      </trkpt>
      <trkpt lat="49.17621" lon="-0.10942">
        <ele>9.8</ele>
        <time>2024-09-22T09:22:48Z</time>
      </trkpt>
      <trkpt lat="49.17626" lon="-0.10933">
        <ele>10</ele>
        <time>2024-09-22T09:22:49Z</time>
      </trkpt>
      <trkpt lat="49.1763" lon="-0.10926">
        <ele>10.4</ele>
        <time>2024-09-22T09:22:50Z</time>
      </trkpt>
      <trkpt lat="49.17637" lon="-0.10915">
        <ele>10.6</ele>
        <time>2024-09-22T09:22:51Z</time>
      </trkpt>
      <trkpt lat="49.17642" lon="-0.10906">
        <ele>10.8</ele>
        <time>2024-09-22T09:22:52Z</time>
      </trkpt>
      <trkpt lat="49.17646" lon="-0.10899">
        <ele>11</ele>
        <time>2024-09-22T09:22:53Z</time>
      </trkpt>
      <trkpt lat="49.17653" lon="-0.10888">
        <ele>11</ele>
        <time>2024-09-22T09:22:54Z</time>
      </trkpt>
      <trkpt lat="49.17659" lon="-0.10878">
        <ele>11</ele>
        <time>2024-09-22T09:22:55Z</time>
      </trkpt>
      <trkpt lat="49.17664" lon="-0.1087">
        <ele>11</ele>
        <time>2024-09-22T09:22:56Z</time>
      </trkpt>
      <trkpt lat="49.1767" lon="-0.10861">
        <ele>11</ele>
        <time>2024-09-22T09:22:57Z</time>
      </trkpt>
      <trkpt lat="49.17676" lon="-0.10851">
        <ele>11.2</ele>
        <time>2024-09-22T09:22:58Z</time>
      </trkpt>
      <trkpt lat="49.17682" lon="-0.10841">
        <ele>11.2</ele>
        <time>2024-09-22T09:22:59Z</time>
      </trkpt>
      <trkpt lat="49.1769" lon="-0.1083">
        <ele>11.2</ele>
        <time>2024-09-22T09:23:00Z</time>
      </trkpt>
      <trkpt lat="49.17696" lon="-0.1082">
        <ele>11.2</ele>
        <time>2024-09-22T09:23:01Z</time>
      </trkpt>
      <trkpt lat="49.177" lon="-0.10813">
        <ele>11</ele>
        <time>2024-09-22T09:23:02Z</time>
      </trkpt>
      <trkpt lat="49.17707" lon="-0.10801">
        <ele>11</ele>
        <time>2024-09-22T09:23:03Z</time>
      </trkpt>
      <trkpt lat="49.17713" lon="-0.10792">
        <ele>11</ele>
        <time>2024-09-22T09:23:04Z</time>
      </trkpt>
      <trkpt lat="49.17718" lon="-0.10784">
        <ele>11</ele>
        <time>2024-09-22T09:23:05Z</time>
      </trkpt>
      <trkpt lat="49.17725" lon="-0.10773">
        <ele>10.6</ele>
        <time>2024-09-22T09:23:06Z</time>
      </trkpt>
      <trkpt lat="49.1773" lon="-0.10764">
        <ele>10.2</ele>
        <time>2024-09-22T09:23:07Z</time>
      </trkpt>
      <trkpt lat="49.17735" lon="-0.10757">
        <ele>10</ele>
        <time>2024-09-22T09:23:08Z</time>
      </trkpt>
      <trkpt lat="49.17742" lon="-0.10746">
        <ele>10</ele>
        <time>2024-09-22T09:23:09Z</time>
      </trkpt>
      <trkpt lat="49.17748" lon="-0.10737">
        <ele>10</ele>
        <time>2024-09-22T09:23:10Z</time>
      </trkpt>
      <trkpt lat="49.17753" lon="-0.10729">
        <ele>9.8</ele>
        <time>2024-09-22T09:23:11Z</time>
      </trkpt>
      <trkpt lat="49.1776" lon="-0.10718">
        <ele>9.8</ele>
        <time>2024-09-22T09:23:12Z</time>
      </trkpt>
      <trkpt lat="49.17765" lon="-0.10709">
        <ele>9.8</ele>
        <time>2024-09-22T09:23:13Z</time>
      </trkpt>
      <trkpt lat="49.1777" lon="-0.10702">
        <ele>9.8</ele>
        <time>2024-09-22T09:23:14Z</time>
      </trkpt>
      <trkpt lat="49.17778" lon="-0.10691">
        <ele>9.8</ele>
        <time>2024-09-22T09:23:15Z</time>
      </trkpt>
      <trkpt lat="49.17784" lon="-0.10682">
        <ele>9.8</ele>
        <time>2024-09-22T09:23:16Z</time>
      </trkpt>
      <trkpt lat="49.17788" lon="-0.10675">
        <ele>9.8</ele>
        <time>2024-09-22T09:23:17Z</time>
      </trkpt>
      <trkpt lat="49.17795" lon="-0.10667">
        <ele>9.8</ele>
        <time>2024-09-22T09:23:18Z</time>
      </trkpt>
      <trkpt lat="49.178" lon="-0.10658">
        <ele>9.8</ele>
        <time>2024-09-22T09:23:19Z</time>
      </trkpt>
      <trkpt lat="49.17806" lon="-0.1065">
        <ele>9.8</ele>
        <time>2024-09-22T09:23:20Z</time>
      </trkpt>
      <trkpt lat="49.17813" lon="-0.1064">
        <ele>9.8</ele>
        <time>2024-09-22T09:23:21Z</time>
      </trkpt>
      <trkpt lat="49.17818" lon="-0.10633">
        <ele>9.8</ele>
        <time>2024-09-22T09:23:22Z</time>
      </trkpt>
      <trkpt lat="49.17824" lon="-0.10625">
        <ele>9.6</ele>
        <time>2024-09-22T09:23:23Z</time>
      </trkpt>
      <trkpt lat="49.17832" lon="-0.10615">
        <ele>9.6</ele>
        <time>2024-09-22T09:23:24Z</time>
      </trkpt>
      <trkpt lat="49.17838" lon="-0.10607">
        <ele>9.6</ele>
        <time>2024-09-22T09:23:25Z</time>
      </trkpt>
      <trkpt lat="49.17843" lon="-0.106">
        <ele>9.6</ele>
        <time>2024-09-22T09:23:26Z</time>
      </trkpt>
      <trkpt lat="49.17851" lon="-0.1059">
        <ele>9.6</ele>
        <time>2024-09-22T09:23:27Z</time>
      </trkpt>
      <trkpt lat="49.17857" lon="-0.10583">
        <ele>9.4</ele>
        <time>2024-09-22T09:23:28Z</time>
      </trkpt>
      <trkpt lat="49.17862" lon="-0.10576">
        <ele>9.4</ele>
        <time>2024-09-22T09:23:29Z</time>
      </trkpt>
      <trkpt lat="49.17868" lon="-0.10568">
        <ele>9.6</ele>
        <time>2024-09-22T09:23:30Z</time>
      </trkpt>
      <trkpt lat="49.17875" lon="-0.1056">
        <ele>9.6</ele>
        <time>2024-09-22T09:23:31Z</time>
      </trkpt>
      <trkpt lat="49.17881" lon="-0.10553">
        <ele>9.6</ele>
        <time>2024-09-22T09:23:32Z</time>
      </trkpt>
      <trkpt lat="49.17889" lon="-0.10543">
        <ele>9.4</ele>
        <time>2024-09-22T09:23:33Z</time>
      </trkpt>
      <trkpt lat="49.17894" lon="-0.10537">
        <ele>9.4</ele>
        <time>2024-09-22T09:23:34Z</time>
      </trkpt>
      <trkpt lat="49.179" lon="-0.10529">
        <ele>9.2</ele>
        <time>2024-09-22T09:23:35Z</time>
      </trkpt>
      <trkpt lat="49.17907" lon="-0.10522">
        <ele>9.4</ele>
        <time>2024-09-22T09:23:36Z</time>
      </trkpt>
      <trkpt lat="49.17913" lon="-0.10514">
        <ele>9.4</ele>
        <time>2024-09-22T09:23:37Z</time>
      </trkpt>
      <trkpt lat="49.17919" lon="-0.10506">
        <ele>9.4</ele>
        <time>2024-09-22T09:23:38Z</time>
      </trkpt>
      <trkpt lat="49.17925" lon="-0.10499">
        <ele>9.4</ele>
        <time>2024-09-22T09:23:39Z</time>
      </trkpt>
      <trkpt lat="49.17931" lon="-0.10491">
        <ele>9.4</ele>
        <time>2024-09-22T09:23:40Z</time>
      </trkpt>
      <trkpt lat="49.17937" lon="-0.10484">
        <ele>9.4</ele>
        <time>2024-09-22T09:23:41Z</time>
      </trkpt>
      <trkpt lat="49.17943" lon="-0.10477">
        <ele>9.4</ele>
        <time>2024-09-22T09:23:42Z</time>
      </trkpt>
      <trkpt lat="49.17949" lon="-0.1047">
        <ele>9.4</ele>
        <time>2024-09-22T09:23:43Z</time>
      </trkpt>
      <trkpt lat="49.17955" lon="-0.10463">
        <ele>9.2</ele>
        <time>2024-09-22T09:23:44Z</time>
      </trkpt>
      <trkpt lat="49.17961" lon="-0.10456">
        <ele>9.2</ele>
        <time>2024-09-22T09:23:45Z</time>
      </trkpt>
      <trkpt lat="49.17967" lon="-0.10449">
        <ele>9.2</ele>
        <time>2024-09-22T09:23:46Z</time>
      </trkpt>
      <trkpt lat="49.17973" lon="-0.10442">
        <ele>9.2</ele>
        <time>2024-09-22T09:23:47Z</time>
      </trkpt>
      <trkpt lat="49.17979" lon="-0.10435">
        <ele>9.2</ele>
        <time>2024-09-22T09:23:48Z</time>
      </trkpt>
      <trkpt lat="49.17985" lon="-0.10428">
        <ele>9.2</ele>
        <time>2024-09-22T09:23:49Z</time>
      </trkpt>
      <trkpt lat="49.17991" lon="-0.10421">
        <ele>9.2</ele>
        <time>2024-09-22T09:23:50Z</time>
      </trkpt>
      <trkpt lat="49.17999" lon="-0.10414">
        <ele>9.2</ele>
        <time>2024-09-22T09:23:51Z</time>
      </trkpt>
      <trkpt lat="49.18004" lon="-0.10408">
        <ele>9.2</ele>
        <time>2024-09-22T09:23:52Z</time>
      </trkpt>
      <trkpt lat="49.1801" lon="-0.10402">
        <ele>9.2</ele>
        <time>2024-09-22T09:23:53Z</time>
      </trkpt>
      <trkpt lat="49.18016" lon="-0.10396">
        <ele>9.2</ele>
        <time>2024-09-22T09:23:54Z</time>
      </trkpt>
      <trkpt lat="49.18022" lon="-0.1039">
        <ele>9.2</ele>
        <time>2024-09-22T09:23:55Z</time>
      </trkpt>
      <trkpt lat="49.18029" lon="-0.10384">
        <ele>9.2</ele>
        <time>2024-09-22T09:23:56Z</time>
      </trkpt>
      <trkpt lat="49.18035" lon="-0.10378">
        <ele>9.2</ele>
        <time>2024-09-22T09:23:57Z</time>
      </trkpt>
      <trkpt lat="49.18041" lon="-0.10373">
        <ele>9</ele>
        <time>2024-09-22T09:23:58Z</time>
      </trkpt>
      <trkpt lat="49.18047" lon="-0.10367">
        <ele>9</ele>
        <time>2024-09-22T09:23:59Z</time>
      </trkpt>
      <trkpt lat="49.18053" lon="-0.10362">
        <ele>9</ele>
        <time>2024-09-22T09:24:00Z</time>
      </trkpt>
      <trkpt lat="49.18059" lon="-0.10357">
        <ele>9</ele>
        <time>2024-09-22T09:24:01Z</time>
      </trkpt>
      <trkpt lat="49.18065" lon="-0.10351">
        <ele>9</ele>
        <time>2024-09-22T09:24:02Z</time>
      </trkpt>
      <trkpt lat="49.1807" lon="-0.10345">
        <ele>9</ele>
        <time>2024-09-22T09:24:03Z</time>
      </trkpt>
      <trkpt lat="49.18076" lon="-0.10339">
        <ele>9.2</ele>
        <time>2024-09-22T09:24:04Z</time>
      </trkpt>
      <trkpt lat="49.1808" lon="-0.10332">
        <ele>9.4</ele>
        <time>2024-09-22T09:24:05Z</time>
      </trkpt>
      <trkpt lat="49.18084" lon="-0.10324">
        <ele>9.4</ele>
        <time>2024-09-22T09:24:06Z</time>
      </trkpt>
      <trkpt lat="49.18088" lon="-0.10315">
        <ele>9.4</ele>
        <time>2024-09-22T09:24:07Z</time>
      </trkpt>
      <trkpt lat="49.18091" lon="-0.10309">
        <ele>9.4</ele>
        <time>2024-09-22T09:24:08Z</time>
      </trkpt>
      <trkpt lat="49.18094" lon="-0.10299">
        <ele>9.4</ele>
        <time>2024-09-22T09:24:09Z</time>
      </trkpt>
      <trkpt lat="49.18096" lon="-0.10291">
        <ele>9.4</ele>
        <time>2024-09-22T09:24:10Z</time>
      </trkpt>
      <trkpt lat="49.18097" lon="-0.10284">
        <ele>9.4</ele>
        <time>2024-09-22T09:24:11Z</time>
      </trkpt>
      <trkpt lat="49.18098" lon="-0.10274">
        <ele>9.4</ele>
        <time>2024-09-22T09:24:12Z</time>
      </trkpt>
      <trkpt lat="49.181" lon="-0.10267">
        <ele>9.6</ele>
        <time>2024-09-22T09:24:13Z</time>
      </trkpt>
      <trkpt lat="49.18101" lon="-0.10259">
        <ele>10</ele>
        <time>2024-09-22T09:24:14Z</time>
      </trkpt>
      <trkpt lat="49.18103" lon="-0.1025">
        <ele>10.4</ele>
        <time>2024-09-22T09:24:15Z</time>
      </trkpt>
      <trkpt lat="49.18105" lon="-0.10244">
        <ele>10.4</ele>
        <time>2024-09-22T09:24:16Z</time>
      </trkpt>
      <trkpt lat="49.18109" lon="-0.10237">
        <ele>10.8</ele>
        <time>2024-09-22T09:24:17Z</time>
      </trkpt>
      <trkpt lat="49.18113" lon="-0.1023">
        <ele>11.2</ele>
        <time>2024-09-22T09:24:18Z</time>
      </trkpt>
      <trkpt lat="49.18118" lon="-0.10223">
        <ele>11.8</ele>
        <time>2024-09-22T09:24:19Z</time>
      </trkpt>
      <trkpt lat="49.18121" lon="-0.10218">
        <ele>12</ele>
        <time>2024-09-22T09:24:20Z</time>
      </trkpt>
      <trkpt lat="49.18125" lon="-0.10211">
        <ele>12.4</ele>
        <time>2024-09-22T09:24:21Z</time>
      </trkpt>
      <trkpt lat="49.18129" lon="-0.10204">
        <ele>12.6</ele>
        <time>2024-09-22T09:24:22Z</time>
      </trkpt>
      <trkpt lat="49.18133" lon="-0.10197">
        <ele>12.8</ele>
        <time>2024-09-22T09:24:23Z</time>
      </trkpt>
      <trkpt lat="49.18138" lon="-0.1019">
        <ele>13.2</ele>
        <time>2024-09-22T09:24:24Z</time>
      </trkpt>
      <trkpt lat="49.18143" lon="-0.10182">
        <ele>13.4</ele>
        <time>2024-09-22T09:24:25Z</time>
      </trkpt>
      <trkpt lat="49.18146" lon="-0.10176">
        <ele>13.6</ele>
        <time>2024-09-22T09:24:26Z</time>
      </trkpt>
      <trkpt lat="49.18151" lon="-0.10169">
        <ele>13.8</ele>
        <time>2024-09-22T09:24:27Z</time>
      </trkpt>
      <trkpt lat="49.18156" lon="-0.10162">
        <ele>14</ele>
        <time>2024-09-22T09:24:28Z</time>
      </trkpt>
      <trkpt lat="49.1816" lon="-0.10156">
        <ele>14</ele>
        <time>2024-09-22T09:24:29Z</time>
      </trkpt>
      <trkpt lat="49.18165" lon="-0.10149">
        <ele>14</ele>
        <time>2024-09-22T09:24:30Z</time>
      </trkpt>
      <trkpt lat="49.1817" lon="-0.1014">
        <ele>14.2</ele>
        <time>2024-09-22T09:24:31Z</time>
      </trkpt>
      <trkpt lat="49.18173" lon="-0.10134">
        <ele>14.4</ele>
        <time>2024-09-22T09:24:32Z</time>
      </trkpt>
      <trkpt lat="49.18178" lon="-0.10127">
        <ele>14.6</ele>
        <time>2024-09-22T09:24:33Z</time>
      </trkpt>
      <trkpt lat="49.18183" lon="-0.10119">
        <ele>14.6</ele>
        <time>2024-09-22T09:24:34Z</time>
      </trkpt>
      <trkpt lat="49.18186" lon="-0.10113">
        <ele>14.6</ele>
        <time>2024-09-22T09:24:35Z</time>
      </trkpt>
      <trkpt lat="49.1819" lon="-0.10106">
        <ele>14.6</ele>
        <time>2024-09-22T09:24:36Z</time>
      </trkpt>
      <trkpt lat="49.18196" lon="-0.10098">
        <ele>15</ele>
        <time>2024-09-22T09:24:37Z</time>
      </trkpt>
      <trkpt lat="49.18199" lon="-0.10092">
        <ele>15.2</ele>
        <time>2024-09-22T09:24:38Z</time>
      </trkpt>
      <trkpt lat="49.18204" lon="-0.10085">
        <ele>15.4</ele>
        <time>2024-09-22T09:24:39Z</time>
      </trkpt>
      <trkpt lat="49.18209" lon="-0.10077">
        <ele>15.4</ele>
        <time>2024-09-22T09:24:40Z</time>
      </trkpt>
      <trkpt lat="49.18212" lon="-0.10071">
        <ele>15.4</ele>
        <time>2024-09-22T09:24:41Z</time>
      </trkpt>
      <trkpt lat="49.18217" lon="-0.10064">
        <ele>15.8</ele>
        <time>2024-09-22T09:24:42Z</time>
      </trkpt>
      <trkpt lat="49.18222" lon="-0.10056">
        <ele>16.2</ele>
        <time>2024-09-22T09:24:43Z</time>
      </trkpt>
      <trkpt lat="49.18225" lon="-0.1005">
        <ele>16.4</ele>
        <time>2024-09-22T09:24:44Z</time>
      </trkpt>
      <trkpt lat="49.1823" lon="-0.10043">
        <ele>16.6</ele>
        <time>2024-09-22T09:24:45Z</time>
      </trkpt>
      <trkpt lat="49.18234" lon="-0.10036">
        <ele>17</ele>
        <time>2024-09-22T09:24:46Z</time>
      </trkpt>
      <trkpt lat="49.18238" lon="-0.10029">
        <ele>17.2</ele>
        <time>2024-09-22T09:24:47Z</time>
      </trkpt>
      <trkpt lat="49.18243" lon="-0.1002">
        <ele>17.6</ele>
        <time>2024-09-22T09:24:48Z</time>
      </trkpt>
      <trkpt lat="49.18248" lon="-0.10013">
        <ele>17.8</ele>
        <time>2024-09-22T09:24:49Z</time>
      </trkpt>
      <trkpt lat="49.18252" lon="-0.10006">
        <ele>17.8</ele>
        <time>2024-09-22T09:24:50Z</time>
      </trkpt>
      <trkpt lat="49.18256" lon="-0.09998">
        <ele>18</ele>
        <time>2024-09-22T09:24:51Z</time>
      </trkpt>
      <trkpt lat="49.1826" lon="-0.09991">
        <ele>18.2</ele>
        <time>2024-09-22T09:24:52Z</time>
      </trkpt>
      <trkpt lat="49.18264" lon="-0.09982">
        <ele>18.4</ele>
        <time>2024-09-22T09:24:53Z</time>
      </trkpt>
      <trkpt lat="49.18268" lon="-0.09974">
        <ele>18.4</ele>
        <time>2024-09-22T09:24:54Z</time>
      </trkpt>
      <trkpt lat="49.18271" lon="-0.09965">
        <ele>18.4</ele>
        <time>2024-09-22T09:24:55Z</time>
      </trkpt>
      <trkpt lat="49.18274" lon="-0.09956">
        <ele>18.6</ele>
        <time>2024-09-22T09:24:56Z</time>
      </trkpt>
      <trkpt lat="49.18277" lon="-0.09946">
        <ele>18.8</ele>
        <time>2024-09-22T09:24:57Z</time>
      </trkpt>
      <trkpt lat="49.1828" lon="-0.09937">
        <ele>18.8</ele>
        <time>2024-09-22T09:24:58Z</time>
      </trkpt>
      <trkpt lat="49.18283" lon="-0.09928">
        <ele>19</ele>
        <time>2024-09-22T09:24:59Z</time>
      </trkpt>
      <trkpt lat="49.18285" lon="-0.09918">
        <ele>19</ele>
        <time>2024-09-22T09:25:00Z</time>
      </trkpt>
      <trkpt lat="49.18288" lon="-0.09909">
        <ele>19</ele>
        <time>2024-09-22T09:25:01Z</time>
      </trkpt>
      <trkpt lat="49.1829" lon="-0.09899">
        <ele>19</ele>
        <time>2024-09-22T09:25:02Z</time>
      </trkpt>
      <trkpt lat="49.18292" lon="-0.0989">
        <ele>19</ele>
        <time>2024-09-22T09:25:03Z</time>
      </trkpt>
      <trkpt lat="49.18293" lon="-0.0988">
        <ele>19</ele>
        <time>2024-09-22T09:25:04Z</time>
      </trkpt>
      <trkpt lat="49.18295" lon="-0.09873">
        <ele>19.2</ele>
        <time>2024-09-22T09:25:05Z</time>
      </trkpt>
      <trkpt lat="49.18297" lon="-0.09864">
        <ele>19.2</ele>
        <time>2024-09-22T09:25:06Z</time>
      </trkpt>
      <trkpt lat="49.18299" lon="-0.09853">
        <ele>19.2</ele>
        <time>2024-09-22T09:25:07Z</time>
      </trkpt>
      <trkpt lat="49.183" lon="-0.09844">
        <ele>19.2</ele>
        <time>2024-09-22T09:25:08Z</time>
      </trkpt>
      <trkpt lat="49.18302" lon="-0.09835">
        <ele>19.2</ele>
        <time>2024-09-22T09:25:09Z</time>
      </trkpt>
      <trkpt lat="49.18304" lon="-0.09826">
        <ele>19.4</ele>
        <time>2024-09-22T09:25:10Z</time>
      </trkpt>
      <trkpt lat="49.18305" lon="-0.09816">
        <ele>19.4</ele>
        <time>2024-09-22T09:25:11Z</time>
      </trkpt>
      <trkpt lat="49.18307" lon="-0.09807">
        <ele>19.4</ele>
        <time>2024-09-22T09:25:12Z</time>
      </trkpt>
      <trkpt lat="49.18309" lon="-0.09798">
        <ele>19.4</ele>
        <time>2024-09-22T09:25:13Z</time>
      </trkpt>
      <trkpt lat="49.18311" lon="-0.09789">
        <ele>19.6</ele>
        <time>2024-09-22T09:25:14Z</time>
      </trkpt>
      <trkpt lat="49.18313" lon="-0.0978">
        <ele>19.6</ele>
        <time>2024-09-22T09:25:15Z</time>
      </trkpt>
      <trkpt lat="49.18315" lon="-0.09771">
        <ele>19.6</ele>
        <time>2024-09-22T09:25:16Z</time>
      </trkpt>
      <trkpt lat="49.18317" lon="-0.09762">
        <ele>19.6</ele>
        <time>2024-09-22T09:25:17Z</time>
      </trkpt>
      <trkpt lat="49.18319" lon="-0.09753">
        <ele>19.6</ele>
        <time>2024-09-22T09:25:18Z</time>
      </trkpt>
      <trkpt lat="49.18321" lon="-0.09743">
        <ele>19.8</ele>
        <time>2024-09-22T09:25:19Z</time>
      </trkpt>
      <trkpt lat="49.18323" lon="-0.09734">
        <ele>19.8</ele>
        <time>2024-09-22T09:25:20Z</time>
      </trkpt>
      <trkpt lat="49.18325" lon="-0.09725">
        <ele>19.8</ele>
        <time>2024-09-22T09:25:21Z</time>
      </trkpt>
      <trkpt lat="49.18327" lon="-0.09715">
        <ele>19.8</ele>
        <time>2024-09-22T09:25:22Z</time>
      </trkpt>
      <trkpt lat="49.18328" lon="-0.09708">
        <ele>19.8</ele>
        <time>2024-09-22T09:25:23Z</time>
      </trkpt>
      <trkpt lat="49.1833" lon="-0.09698">
        <ele>19.8</ele>
        <time>2024-09-22T09:25:24Z</time>
      </trkpt>
      <trkpt lat="49.18332" lon="-0.09687">
        <ele>19.8</ele>
        <time>2024-09-22T09:25:25Z</time>
      </trkpt>
      <trkpt lat="49.18334" lon="-0.09679">
        <ele>20</ele>
        <time>2024-09-22T09:25:26Z</time>
      </trkpt>
      <trkpt lat="49.18336" lon="-0.09669">
        <ele>20</ele>
        <time>2024-09-22T09:25:27Z</time>
      </trkpt>
      <trkpt lat="49.18338" lon="-0.09656">
        <ele>20</ele>
        <time>2024-09-22T09:25:28Z</time>
      </trkpt>
      <trkpt lat="49.1834" lon="-0.09646">
        <ele>20</ele>
        <time>2024-09-22T09:25:29Z</time>
      </trkpt>
      <trkpt lat="49.18341" lon="-0.09636">
        <ele>20</ele>
        <time>2024-09-22T09:25:30Z</time>
      </trkpt>
      <trkpt lat="49.18342" lon="-0.09625">
        <ele>20</ele>
        <time>2024-09-22T09:25:31Z</time>
      </trkpt>
      <trkpt lat="49.18343" lon="-0.09615">
        <ele>20</ele>
        <time>2024-09-22T09:25:32Z</time>
      </trkpt>
      <trkpt lat="49.18343" lon="-0.09605">
        <ele>20</ele>
        <time>2024-09-22T09:25:33Z</time>
      </trkpt>
      <trkpt lat="49.18344" lon="-0.09595">
        <ele>20</ele>
        <time>2024-09-22T09:25:34Z</time>
      </trkpt>
      <trkpt lat="49.18345" lon="-0.09586">
        <ele>20</ele>
        <time>2024-09-22T09:25:35Z</time>
      </trkpt>
      <trkpt lat="49.18345" lon="-0.09575">
        <ele>20</ele>
        <time>2024-09-22T09:25:36Z</time>
      </trkpt>
      <trkpt lat="49.18345" lon="-0.09565">
        <ele>20</ele>
        <time>2024-09-22T09:25:37Z</time>
      </trkpt>
      <trkpt lat="49.18345" lon="-0.09555">
        <ele>20</ele>
        <time>2024-09-22T09:25:38Z</time>
      </trkpt>
      <trkpt lat="49.18345" lon="-0.09544">
        <ele>19.8</ele>
        <time>2024-09-22T09:25:39Z</time>
      </trkpt>
      <trkpt lat="49.18344" lon="-0.09534">
        <ele>19.8</ele>
        <time>2024-09-22T09:25:40Z</time>
      </trkpt>
      <trkpt lat="49.18344" lon="-0.09524">
        <ele>19.8</ele>
        <time>2024-09-22T09:25:41Z</time>
      </trkpt>
      <trkpt lat="49.18344" lon="-0.09515">
        <ele>19.8</ele>
        <time>2024-09-22T09:25:42Z</time>
      </trkpt>
      <trkpt lat="49.18344" lon="-0.09505">
        <ele>19.8</ele>
        <time>2024-09-22T09:25:43Z</time>
      </trkpt>
      <trkpt lat="49.18343" lon="-0.09495">
        <ele>19.6</ele>
        <time>2024-09-22T09:25:44Z</time>
      </trkpt>
      <trkpt lat="49.18342" lon="-0.09485">
        <ele>19.6</ele>
        <time>2024-09-22T09:25:45Z</time>
      </trkpt>
      <trkpt lat="49.18342" lon="-0.09475">
        <ele>19.6</ele>
        <time>2024-09-22T09:25:46Z</time>
      </trkpt>
      <trkpt lat="49.18343" lon="-0.09465">
        <ele>19.4</ele>
        <time>2024-09-22T09:25:47Z</time>
      </trkpt>
      <trkpt lat="49.18343" lon="-0.09456">
        <ele>19.4</ele>
        <time>2024-09-22T09:25:48Z</time>
      </trkpt>
      <trkpt lat="49.18343" lon="-0.09446">
        <ele>19.4</ele>
        <time>2024-09-22T09:25:49Z</time>
      </trkpt>
      <trkpt lat="49.18344" lon="-0.09434">
        <ele>19.4</ele>
        <time>2024-09-22T09:25:50Z</time>
      </trkpt>
      <trkpt lat="49.18345" lon="-0.09423">
        <ele>19.4</ele>
        <time>2024-09-22T09:25:51Z</time>
      </trkpt>
      <trkpt lat="49.18345" lon="-0.09413">
        <ele>19.4</ele>
        <time>2024-09-22T09:25:52Z</time>
      </trkpt>
      <trkpt lat="49.18346" lon="-0.09403">
        <ele>19.4</ele>
        <time>2024-09-22T09:25:53Z</time>
      </trkpt>
      <trkpt lat="49.18347" lon="-0.09393">
        <ele>19.4</ele>
        <time>2024-09-22T09:25:54Z</time>
      </trkpt>
      <trkpt lat="49.18348" lon="-0.09382">
        <ele>19.4</ele>
        <time>2024-09-22T09:25:55Z</time>
      </trkpt>
      <trkpt lat="49.1835" lon="-0.09372">
        <ele>19.4</ele>
        <time>2024-09-22T09:25:56Z</time>
      </trkpt>
      <trkpt lat="49.18351" lon="-0.09362">
        <ele>19.4</ele>
        <time>2024-09-22T09:25:57Z</time>
      </trkpt>
      <trkpt lat="49.18352" lon="-0.09351">
        <ele>19.4</ele>
        <time>2024-09-22T09:25:58Z</time>
      </trkpt>
      <trkpt lat="49.18353" lon="-0.09341">
        <ele>19.4</ele>
        <time>2024-09-22T09:25:59Z</time>
      </trkpt>
      <trkpt lat="49.18353" lon="-0.09331">
        <ele>19.6</ele>
        <time>2024-09-22T09:26:00Z</time>
      </trkpt>
      <trkpt lat="49.18354" lon="-0.09321">
        <ele>19.6</ele>
        <time>2024-09-22T09:26:01Z</time>
      </trkpt>
      <trkpt lat="49.18354" lon="-0.09311">
        <ele>19.6</ele>
        <time>2024-09-22T09:26:02Z</time>
      </trkpt>
      <trkpt lat="49.18355" lon="-0.09302">
        <ele>19.8</ele>
        <time>2024-09-22T09:26:03Z</time>
      </trkpt>
      <trkpt lat="49.18355" lon="-0.09293">
        <ele>19.8</ele>
        <time>2024-09-22T09:26:04Z</time>
      </trkpt>
      <trkpt lat="49.18356" lon="-0.09284">
        <ele>19.8</ele>
        <time>2024-09-22T09:26:05Z</time>
      </trkpt>
      <trkpt lat="49.18358" lon="-0.09277">
        <ele>19.8</ele>
        <time>2024-09-22T09:26:06Z</time>
      </trkpt>
      <trkpt lat="49.18361" lon="-0.09271">
        <ele>19.8</ele>
        <time>2024-09-22T09:26:07Z</time>
      </trkpt>
      <trkpt lat="49.18365" lon="-0.09267">
        <ele>19.8</ele>
        <time>2024-09-22T09:26:08Z</time>
      </trkpt>
      <trkpt lat="49.18369" lon="-0.09261">
        <ele>20</ele>
        <time>2024-09-22T09:26:09Z</time>
      </trkpt>
      <trkpt lat="49.18372" lon="-0.09254">
        <ele>20</ele>
        <time>2024-09-22T09:26:10Z</time>
      </trkpt>
      <trkpt lat="49.18375" lon="-0.09247">
        <ele>20.2</ele>
        <time>2024-09-22T09:26:11Z</time>
      </trkpt>
      <trkpt lat="49.18377" lon="-0.0924">
        <ele>20.2</ele>
        <time>2024-09-22T09:26:12Z</time>
      </trkpt>
      <trkpt lat="49.1838" lon="-0.09232">
        <ele>20.4</ele>
        <time>2024-09-22T09:26:13Z</time>
      </trkpt>
      <trkpt lat="49.18382" lon="-0.09225">
        <ele>20.6</ele>
        <time>2024-09-22T09:26:14Z</time>
      </trkpt>
      <trkpt lat="49.18385" lon="-0.09218">
        <ele>20.8</ele>
        <time>2024-09-22T09:26:15Z</time>
      </trkpt>
      <trkpt lat="49.18387" lon="-0.09212">
        <ele>20.8</ele>
        <time>2024-09-22T09:26:16Z</time>
      </trkpt>
      <trkpt lat="49.18391" lon="-0.09205">
        <ele>21</ele>
        <time>2024-09-22T09:26:17Z</time>
      </trkpt>
      <trkpt lat="49.18394" lon="-0.09199">
        <ele>21</ele>
        <time>2024-09-22T09:26:18Z</time>
      </trkpt>
      <trkpt lat="49.18397" lon="-0.09193">
        <ele>21.2</ele>
        <time>2024-09-22T09:26:19Z</time>
      </trkpt>
      <trkpt lat="49.18401" lon="-0.09187">
        <ele>21.2</ele>
        <time>2024-09-22T09:26:20Z</time>
      </trkpt>
      <trkpt lat="49.18405" lon="-0.0918">
        <ele>21.2</ele>
        <time>2024-09-22T09:26:21Z</time>
      </trkpt>
      <trkpt lat="49.18408" lon="-0.09173">
        <ele>21.2</ele>
        <time>2024-09-22T09:26:22Z</time>
      </trkpt>
      <trkpt lat="49.18412" lon="-0.09166">
        <ele>21.2</ele>
        <time>2024-09-22T09:26:23Z</time>
      </trkpt>
      <trkpt lat="49.18416" lon="-0.09158">
        <ele>21.2</ele>
        <time>2024-09-22T09:26:24Z</time>
      </trkpt>
      <trkpt lat="49.1842" lon="-0.09151">
        <ele>21.4</ele>
        <time>2024-09-22T09:26:25Z</time>
      </trkpt>
      <trkpt lat="49.18424" lon="-0.09143">
        <ele>21.4</ele>
        <time>2024-09-22T09:26:26Z</time>
      </trkpt>
      <trkpt lat="49.18428" lon="-0.09135">
        <ele>21.4</ele>
        <time>2024-09-22T09:26:27Z</time>
      </trkpt>
      <trkpt lat="49.18431" lon="-0.09127">
        <ele>21.6</ele>
        <time>2024-09-22T09:26:28Z</time>
      </trkpt>
      <trkpt lat="49.18435" lon="-0.09119">
        <ele>21.6</ele>
        <time>2024-09-22T09:26:29Z</time>
      </trkpt>
      <trkpt lat="49.18439" lon="-0.09111">
        <ele>21.6</ele>
        <time>2024-09-22T09:26:30Z</time>
      </trkpt>
      <trkpt lat="49.18443" lon="-0.09103">
        <ele>21.6</ele>
        <time>2024-09-22T09:26:31Z</time>
      </trkpt>
      <trkpt lat="49.18445" lon="-0.09096">
        <ele>21.6</ele>
        <time>2024-09-22T09:26:32Z</time>
      </trkpt>
      <trkpt lat="49.18449" lon="-0.09086">
        <ele>21.6</ele>
        <time>2024-09-22T09:26:33Z</time>
      </trkpt>
      <trkpt lat="49.18452" lon="-0.09077">
        <ele>21.6</ele>
        <time>2024-09-22T09:26:34Z</time>
      </trkpt>
      <trkpt lat="49.18455" lon="-0.09068">
        <ele>21.6</ele>
        <time>2024-09-22T09:26:35Z</time>
      </trkpt>
      <trkpt lat="49.18458" lon="-0.09058">
        <ele>21.6</ele>
        <time>2024-09-22T09:26:36Z</time>
      </trkpt>
      <trkpt lat="49.1846" lon="-0.09048">
        <ele>21.6</ele>
        <time>2024-09-22T09:26:37Z</time>
      </trkpt>
      <trkpt lat="49.18463" lon="-0.09039">
        <ele>21.6</ele>
        <time>2024-09-22T09:26:38Z</time>
      </trkpt>
      <trkpt lat="49.18465" lon="-0.09029">
        <ele>21.6</ele>
        <time>2024-09-22T09:26:39Z</time>
      </trkpt>
      <trkpt lat="49.18468" lon="-0.09019">
        <ele>21.8</ele>
        <time>2024-09-22T09:26:40Z</time>
      </trkpt>
      <trkpt lat="49.1847" lon="-0.09009">
        <ele>21.8</ele>
        <time>2024-09-22T09:26:41Z</time>
      </trkpt>
      <trkpt lat="49.18473" lon="-0.09">
        <ele>21.8</ele>
        <time>2024-09-22T09:26:42Z</time>
      </trkpt>
      <trkpt lat="49.18475" lon="-0.0899">
        <ele>21.8</ele>
        <time>2024-09-22T09:26:43Z</time>
      </trkpt>
      <trkpt lat="49.18477" lon="-0.0898">
        <ele>21.8</ele>
        <time>2024-09-22T09:26:44Z</time>
      </trkpt>
      <trkpt lat="49.18479" lon="-0.0897">
        <ele>21.8</ele>
        <time>2024-09-22T09:26:45Z</time>
      </trkpt>
      <trkpt lat="49.18481" lon="-0.0896">
        <ele>21.8</ele>
        <time>2024-09-22T09:26:46Z</time>
      </trkpt>
      <trkpt lat="49.18483" lon="-0.0895">
        <ele>21.8</ele>
        <time>2024-09-22T09:26:47Z</time>
      </trkpt>
      <trkpt lat="49.18485" lon="-0.0894">
        <ele>21.8</ele>
        <time>2024-09-22T09:26:48Z</time>
      </trkpt>
      <trkpt lat="49.18487" lon="-0.0893">
        <ele>21.8</ele>
        <time>2024-09-22T09:26:49Z</time>
      </trkpt>
      <trkpt lat="49.18489" lon="-0.0892">
        <ele>21.8</ele>
        <time>2024-09-22T09:26:50Z</time>
      </trkpt>
      <trkpt lat="49.18492" lon="-0.08909">
        <ele>21.8</ele>
        <time>2024-09-22T09:26:51Z</time>
      </trkpt>
      <trkpt lat="49.18494" lon="-0.08899">
        <ele>21.8</ele>
        <time>2024-09-22T09:26:52Z</time>
      </trkpt>
      <trkpt lat="49.18495" lon="-0.08891">
        <ele>21.8</ele>
        <time>2024-09-22T09:26:53Z</time>
      </trkpt>
      <trkpt lat="49.18498" lon="-0.08878">
        <ele>21.8</ele>
        <time>2024-09-22T09:26:54Z</time>
      </trkpt>
      <trkpt lat="49.185" lon="-0.08868">
        <ele>22</ele>
        <time>2024-09-22T09:26:55Z</time>
      </trkpt>
      <trkpt lat="49.18502" lon="-0.08858">
        <ele>22</ele>
        <time>2024-09-22T09:26:56Z</time>
      </trkpt>
      <trkpt lat="49.18505" lon="-0.08847">
        <ele>22</ele>
        <time>2024-09-22T09:26:57Z</time>
      </trkpt>
      <trkpt lat="49.18507" lon="-0.08838">
        <ele>22</ele>
        <time>2024-09-22T09:26:58Z</time>
      </trkpt>
      <trkpt lat="49.18509" lon="-0.08827">
        <ele>22</ele>
        <time>2024-09-22T09:26:59Z</time>
      </trkpt>
      <trkpt lat="49.1851" lon="-0.08817">
        <ele>22</ele>
        <time>2024-09-22T09:27:00Z</time>
      </trkpt>
      <trkpt lat="49.18512" lon="-0.08807">
        <ele>22</ele>
        <time>2024-09-22T09:27:01Z</time>
      </trkpt>
      <trkpt lat="49.18515" lon="-0.08797">
        <ele>22</ele>
        <time>2024-09-22T09:27:02Z</time>
      </trkpt>
      <trkpt lat="49.18517" lon="-0.08787">
        <ele>22</ele>
        <time>2024-09-22T09:27:03Z</time>
      </trkpt>
      <trkpt lat="49.18519" lon="-0.08777">
        <ele>22</ele>
        <time>2024-09-22T09:27:04Z</time>
      </trkpt>
      <trkpt lat="49.18521" lon="-0.08767">
        <ele>22.2</ele>
        <time>2024-09-22T09:27:05Z</time>
      </trkpt>
      <trkpt lat="49.18523" lon="-0.08757">
        <ele>22.2</ele>
        <time>2024-09-22T09:27:06Z</time>
      </trkpt>
      <trkpt lat="49.18525" lon="-0.08747">
        <ele>22.2</ele>
        <time>2024-09-22T09:27:07Z</time>
      </trkpt>
      <trkpt lat="49.18527" lon="-0.08737">
        <ele>22.2</ele>
        <time>2024-09-22T09:27:08Z</time>
      </trkpt>
      <trkpt lat="49.18529" lon="-0.08727">
        <ele>22.2</ele>
        <time>2024-09-22T09:27:09Z</time>
      </trkpt>
      <trkpt lat="49.18531" lon="-0.08717">
        <ele>22.2</ele>
        <time>2024-09-22T09:27:10Z</time>
      </trkpt>
      <trkpt lat="49.18533" lon="-0.08706">
        <ele>22.2</ele>
        <time>2024-09-22T09:27:11Z</time>
      </trkpt>
      <trkpt lat="49.18535" lon="-0.08696">
        <ele>22.2</ele>
        <time>2024-09-22T09:27:12Z</time>
      </trkpt>
      <trkpt lat="49.18538" lon="-0.08685">
        <ele>22.2</ele>
        <time>2024-09-22T09:27:13Z</time>
      </trkpt>
      <trkpt lat="49.1854" lon="-0.08677">
        <ele>22</ele>
        <time>2024-09-22T09:27:14Z</time>
      </trkpt>
      <trkpt lat="49.18543" lon="-0.08667">
        <ele>22</ele>
        <time>2024-09-22T09:27:15Z</time>
      </trkpt>
      <trkpt lat="49.18545" lon="-0.08654">
        <ele>22</ele>
        <time>2024-09-22T09:27:16Z</time>
      </trkpt>
      <trkpt lat="49.18547" lon="-0.08644">
        <ele>22</ele>
        <time>2024-09-22T09:27:17Z</time>
      </trkpt>
      <trkpt lat="49.1855" lon="-0.08633">
        <ele>22</ele>
        <time>2024-09-22T09:27:18Z</time>
      </trkpt>
      <trkpt lat="49.18553" lon="-0.08622">
        <ele>22</ele>
        <time>2024-09-22T09:27:19Z</time>
      </trkpt>
      <trkpt lat="49.18556" lon="-0.08612">
        <ele>22</ele>
        <time>2024-09-22T09:27:20Z</time>
      </trkpt>
      <trkpt lat="49.18559" lon="-0.08601">
        <ele>22</ele>
        <time>2024-09-22T09:27:21Z</time>
      </trkpt>
      <trkpt lat="49.18562" lon="-0.08591">
        <ele>22</ele>
        <time>2024-09-22T09:27:22Z</time>
      </trkpt>
      <trkpt lat="49.18566" lon="-0.0858">
        <ele>22</ele>
        <time>2024-09-22T09:27:23Z</time>
      </trkpt>
      <trkpt lat="49.1857" lon="-0.08569">
        <ele>21.8</ele>
        <time>2024-09-22T09:27:24Z</time>
      </trkpt>
      <trkpt lat="49.18574" lon="-0.08558">
        <ele>21.6</ele>
        <time>2024-09-22T09:27:25Z</time>
      </trkpt>
      <trkpt lat="49.18578" lon="-0.08548">
        <ele>21.4</ele>
        <time>2024-09-22T09:27:26Z</time>
      </trkpt>
      <trkpt lat="49.18581" lon="-0.08537">
        <ele>21.4</ele>
        <time>2024-09-22T09:27:27Z</time>
      </trkpt>
      <trkpt lat="49.18586" lon="-0.08527">
        <ele>21.2</ele>
        <time>2024-09-22T09:27:28Z</time>
      </trkpt>
      <trkpt lat="49.18589" lon="-0.08517">
        <ele>21</ele>
        <time>2024-09-22T09:27:29Z</time>
      </trkpt>
      <trkpt lat="49.18593" lon="-0.08507">
        <ele>20.8</ele>
        <time>2024-09-22T09:27:30Z</time>
      </trkpt>
      <trkpt lat="49.18597" lon="-0.08498">
        <ele>20.8</ele>
        <time>2024-09-22T09:27:31Z</time>
      </trkpt>
      <trkpt lat="49.18601" lon="-0.08488">
        <ele>20.8</ele>
        <time>2024-09-22T09:27:32Z</time>
      </trkpt>
      <trkpt lat="49.18604" lon="-0.08478">
        <ele>20.8</ele>
        <time>2024-09-22T09:27:33Z</time>
      </trkpt>
      <trkpt lat="49.18608" lon="-0.08468">
        <ele>20.6</ele>
        <time>2024-09-22T09:27:34Z</time>
      </trkpt>
      <trkpt lat="49.18612" lon="-0.08458">
        <ele>20.6</ele>
        <time>2024-09-22T09:27:35Z</time>
      </trkpt>
      <trkpt lat="49.18614" lon="-0.0845">
        <ele>20.6</ele>
        <time>2024-09-22T09:27:36Z</time>
      </trkpt>
      <trkpt lat="49.18618" lon="-0.08438">
        <ele>20.4</ele>
        <time>2024-09-22T09:27:37Z</time>
      </trkpt>
      <trkpt lat="49.18621" lon="-0.08428">
        <ele>20.4</ele>
        <time>2024-09-22T09:27:38Z</time>
      </trkpt>
      <trkpt lat="49.18625" lon="-0.08417">
        <ele>20.4</ele>
        <time>2024-09-22T09:27:39Z</time>
      </trkpt>
      <trkpt lat="49.18628" lon="-0.08407">
        <ele>20.4</ele>
        <time>2024-09-22T09:27:40Z</time>
      </trkpt>
      <trkpt lat="49.18631" lon="-0.08396">
        <ele>20.4</ele>
        <time>2024-09-22T09:27:41Z</time>
      </trkpt>
      <trkpt lat="49.18634" lon="-0.08385">
        <ele>20.4</ele>
        <time>2024-09-22T09:27:42Z</time>
      </trkpt>
      <trkpt lat="49.18637" lon="-0.08375">
        <ele>20.4</ele>
        <time>2024-09-22T09:27:43Z</time>
      </trkpt>
      <trkpt lat="49.1864" lon="-0.08364">
        <ele>20.4</ele>
        <time>2024-09-22T09:27:44Z</time>
      </trkpt>
      <trkpt lat="49.18642" lon="-0.08355">
        <ele>20.4</ele>
        <time>2024-09-22T09:27:45Z</time>
      </trkpt>
      <trkpt lat="49.18646" lon="-0.08342">
        <ele>20.4</ele>
        <time>2024-09-22T09:27:46Z</time>
      </trkpt>
      <trkpt lat="49.18649" lon="-0.08331">
        <ele>20.4</ele>
        <time>2024-09-22T09:27:47Z</time>
      </trkpt>
      <trkpt lat="49.18652" lon="-0.0832">
        <ele>20.4</ele>
        <time>2024-09-22T09:27:48Z</time>
      </trkpt>
      <trkpt lat="49.18655" lon="-0.08309">
        <ele>20.4</ele>
        <time>2024-09-22T09:27:49Z</time>
      </trkpt>
      <trkpt lat="49.18659" lon="-0.08298">
        <ele>20.4</ele>
        <time>2024-09-22T09:27:50Z</time>
      </trkpt>
      <trkpt lat="49.18662" lon="-0.08288">
        <ele>20.4</ele>
        <time>2024-09-22T09:27:51Z</time>
      </trkpt>
      <trkpt lat="49.18665" lon="-0.08278">
        <ele>20.4</ele>
        <time>2024-09-22T09:27:52Z</time>
      </trkpt>
      <trkpt lat="49.18669" lon="-0.08267">
        <ele>20.4</ele>
        <time>2024-09-22T09:27:53Z</time>
      </trkpt>
      <trkpt lat="49.18673" lon="-0.08257">
        <ele>20.4</ele>
        <time>2024-09-22T09:27:54Z</time>
      </trkpt>
      <trkpt lat="49.18677" lon="-0.08246">
        <ele>20.6</ele>
        <time>2024-09-22T09:27:55Z</time>
      </trkpt>
      <trkpt lat="49.18681" lon="-0.08235">
        <ele>20.6</ele>
        <time>2024-09-22T09:27:56Z</time>
      </trkpt>
      <trkpt lat="49.18684" lon="-0.08226">
        <ele>20.8</ele>
        <time>2024-09-22T09:27:57Z</time>
      </trkpt>
      <trkpt lat="49.18689" lon="-0.08215">
        <ele>20.8</ele>
        <time>2024-09-22T09:27:58Z</time>
      </trkpt>
      <trkpt lat="49.18694" lon="-0.08201">
        <ele>20.8</ele>
        <time>2024-09-22T09:27:59Z</time>
      </trkpt>
      <trkpt lat="49.18699" lon="-0.0819">
        <ele>20.8</ele>
        <time>2024-09-22T09:28:00Z</time>
      </trkpt>
      <trkpt lat="49.18703" lon="-0.08179">
        <ele>21</ele>
        <time>2024-09-22T09:28:01Z</time>
      </trkpt>
      <trkpt lat="49.18708" lon="-0.08168">
        <ele>21</ele>
        <time>2024-09-22T09:28:02Z</time>
      </trkpt>
      <trkpt lat="49.18713" lon="-0.08157">
        <ele>21</ele>
        <time>2024-09-22T09:28:03Z</time>
      </trkpt>
      <trkpt lat="49.18717" lon="-0.08146">
        <ele>21</ele>
        <time>2024-09-22T09:28:04Z</time>
      </trkpt>
      <trkpt lat="49.18722" lon="-0.08135">
        <ele>21</ele>
        <time>2024-09-22T09:28:05Z</time>
      </trkpt>
      <trkpt lat="49.18727" lon="-0.08124">
        <ele>21</ele>
        <time>2024-09-22T09:28:06Z</time>
      </trkpt>
      <trkpt lat="49.18731" lon="-0.08112">
        <ele>21</ele>
        <time>2024-09-22T09:28:07Z</time>
      </trkpt>
      <trkpt lat="49.18736" lon="-0.08101">
        <ele>20.8</ele>
        <time>2024-09-22T09:28:08Z</time>
      </trkpt>
      <trkpt lat="49.18741" lon="-0.08089">
        <ele>20.8</ele>
        <time>2024-09-22T09:28:09Z</time>
      </trkpt>
      <trkpt lat="49.18745" lon="-0.08078">
        <ele>20.8</ele>
        <time>2024-09-22T09:28:10Z</time>
      </trkpt>
      <trkpt lat="49.18749" lon="-0.08067">
        <ele>20.8</ele>
        <time>2024-09-22T09:28:11Z</time>
      </trkpt>
      <trkpt lat="49.18753" lon="-0.08055">
        <ele>20.8</ele>
        <time>2024-09-22T09:28:12Z</time>
      </trkpt>
      <trkpt lat="49.18758" lon="-0.08044">
        <ele>20.6</ele>
        <time>2024-09-22T09:28:13Z</time>
      </trkpt>
      <trkpt lat="49.18763" lon="-0.08032">
        <ele>20.6</ele>
        <time>2024-09-22T09:28:14Z</time>
      </trkpt>
      <trkpt lat="49.18767" lon="-0.08023">
        <ele>20.4</ele>
        <time>2024-09-22T09:28:15Z</time>
      </trkpt>
      <trkpt lat="49.18773" lon="-0.0801">
        <ele>20.2</ele>
        <time>2024-09-22T09:28:16Z</time>
      </trkpt>
      <trkpt lat="49.18779" lon="-0.08">
        <ele>20.2</ele>
        <time>2024-09-22T09:28:17Z</time>
      </trkpt>
      <trkpt lat="49.18785" lon="-0.07989">
        <ele>20.2</ele>
        <time>2024-09-22T09:28:18Z</time>
      </trkpt>
      <trkpt lat="49.18791" lon="-0.07979">
        <ele>20</ele>
        <time>2024-09-22T09:28:19Z</time>
      </trkpt>
      <trkpt lat="49.18797" lon="-0.0797">
        <ele>19.8</ele>
        <time>2024-09-22T09:28:20Z</time>
      </trkpt>
      <trkpt lat="49.18803" lon="-0.0796">
        <ele>19.6</ele>
        <time>2024-09-22T09:28:21Z</time>
      </trkpt>
      <trkpt lat="49.1881" lon="-0.07951">
        <ele>19.4</ele>
        <time>2024-09-22T09:28:22Z</time>
      </trkpt>
      <trkpt lat="49.18816" lon="-0.07942">
        <ele>19.4</ele>
        <time>2024-09-22T09:28:23Z</time>
      </trkpt>
      <trkpt lat="49.18822" lon="-0.07932">
        <ele>19.2</ele>
        <time>2024-09-22T09:28:24Z</time>
      </trkpt>
      <trkpt lat="49.18828" lon="-0.07923">
        <ele>19</ele>
        <time>2024-09-22T09:28:25Z</time>
      </trkpt>
      <trkpt lat="49.18834" lon="-0.07913">
        <ele>18.6</ele>
        <time>2024-09-22T09:28:26Z</time>
      </trkpt>
      <trkpt lat="49.18839" lon="-0.07904">
        <ele>18.4</ele>
        <time>2024-09-22T09:28:27Z</time>
      </trkpt>
      <trkpt lat="49.18845" lon="-0.07894">
        <ele>18.4</ele>
        <time>2024-09-22T09:28:28Z</time>
      </trkpt>
      <trkpt lat="49.1885" lon="-0.07883">
        <ele>18.2</ele>
        <time>2024-09-22T09:28:29Z</time>
      </trkpt>
      <trkpt lat="49.18855" lon="-0.07872">
        <ele>18.2</ele>
        <time>2024-09-22T09:28:30Z</time>
      </trkpt>
      <trkpt lat="49.18859" lon="-0.07861">
        <ele>18.2</ele>
        <time>2024-09-22T09:28:31Z</time>
      </trkpt>
      <trkpt lat="49.18863" lon="-0.0785">
        <ele>18</ele>
        <time>2024-09-22T09:28:32Z</time>
      </trkpt>
      <trkpt lat="49.18867" lon="-0.07838">
        <ele>18</ele>
        <time>2024-09-22T09:28:33Z</time>
      </trkpt>
      <trkpt lat="49.1887" lon="-0.07827">
        <ele>17.8</ele>
        <time>2024-09-22T09:28:34Z</time>
      </trkpt>
      <trkpt lat="49.18873" lon="-0.07815">
        <ele>17.6</ele>
        <time>2024-09-22T09:28:35Z</time>
      </trkpt>
      <trkpt lat="49.18875" lon="-0.07802">
        <ele>17.6</ele>
        <time>2024-09-22T09:28:36Z</time>
      </trkpt>
      <trkpt lat="49.18878" lon="-0.0779">
        <ele>17.6</ele>
        <time>2024-09-22T09:28:37Z</time>
      </trkpt>
      <trkpt lat="49.1888" lon="-0.07778">
        <ele>17.6</ele>
        <time>2024-09-22T09:28:38Z</time>
      </trkpt>
      <trkpt lat="49.18882" lon="-0.07765">
        <ele>17.4</ele>
        <time>2024-09-22T09:28:39Z</time>
      </trkpt>
      <trkpt lat="49.18885" lon="-0.07752">
        <ele>17.4</ele>
        <time>2024-09-22T09:28:40Z</time>
      </trkpt>
      <trkpt lat="49.18887" lon="-0.0774">
        <ele>17.4</ele>
        <time>2024-09-22T09:28:41Z</time>
      </trkpt>
      <trkpt lat="49.18889" lon="-0.07727">
        <ele>17.2</ele>
        <time>2024-09-22T09:28:42Z</time>
      </trkpt>
      <trkpt lat="49.18892" lon="-0.07714">
        <ele>17.2</ele>
        <time>2024-09-22T09:28:43Z</time>
      </trkpt>
      <trkpt lat="49.18895" lon="-0.07702">
        <ele>17.2</ele>
        <time>2024-09-22T09:28:44Z</time>
      </trkpt>
      <trkpt lat="49.18898" lon="-0.07689">
        <ele>17.2</ele>
        <time>2024-09-22T09:28:45Z</time>
      </trkpt>
      <trkpt lat="49.18901" lon="-0.07677">
        <ele>17</ele>
        <time>2024-09-22T09:28:46Z</time>
      </trkpt>
      <trkpt lat="49.18904" lon="-0.07665">
        <ele>17</ele>
        <time>2024-09-22T09:28:47Z</time>
      </trkpt>
      <trkpt lat="49.18907" lon="-0.07653">
        <ele>16.8</ele>
        <time>2024-09-22T09:28:48Z</time>
      </trkpt>
      <trkpt lat="49.18911" lon="-0.07641">
        <ele>16.8</ele>
        <time>2024-09-22T09:28:49Z</time>
      </trkpt>
      <trkpt lat="49.18914" lon="-0.0763">
        <ele>16.6</ele>
        <time>2024-09-22T09:28:50Z</time>
      </trkpt>
      <trkpt lat="49.18917" lon="-0.07618">
        <ele>16.6</ele>
        <time>2024-09-22T09:28:51Z</time>
      </trkpt>
      <trkpt lat="49.1892" lon="-0.07607">
        <ele>16.6</ele>
        <time>2024-09-22T09:28:52Z</time>
      </trkpt>
      <trkpt lat="49.18924" lon="-0.07596">
        <ele>16.4</ele>
        <time>2024-09-22T09:28:53Z</time>
      </trkpt>
      <trkpt lat="49.18927" lon="-0.07585">
        <ele>16.4</ele>
        <time>2024-09-22T09:28:54Z</time>
      </trkpt>
      <trkpt lat="49.1893" lon="-0.07574">
        <ele>16.4</ele>
        <time>2024-09-22T09:28:55Z</time>
      </trkpt>
      <trkpt lat="49.18933" lon="-0.07562">
        <ele>16.4</ele>
        <time>2024-09-22T09:28:56Z</time>
      </trkpt>
      <trkpt lat="49.18936" lon="-0.07552">
        <ele>16.4</ele>
        <time>2024-09-22T09:28:57Z</time>
      </trkpt>
      <trkpt lat="49.1894" lon="-0.07541">
        <ele>16.4</ele>
        <time>2024-09-22T09:28:58Z</time>
      </trkpt>
      <trkpt lat="49.18943" lon="-0.0753">
        <ele>16.4</ele>
        <time>2024-09-22T09:28:59Z</time>
      </trkpt>
      <trkpt lat="49.18946" lon="-0.07519">
        <ele>16.4</ele>
        <time>2024-09-22T09:29:00Z</time>
      </trkpt>
      <trkpt lat="49.18949" lon="-0.07508">
        <ele>16.4</ele>
        <time>2024-09-22T09:29:01Z</time>
      </trkpt>
      <trkpt lat="49.18952" lon="-0.07497">
        <ele>16.6</ele>
        <time>2024-09-22T09:29:02Z</time>
      </trkpt>
      <trkpt lat="49.18955" lon="-0.07486">
        <ele>16.6</ele>
        <time>2024-09-22T09:29:03Z</time>
      </trkpt>
      <trkpt lat="49.18958" lon="-0.07475">
        <ele>16.6</ele>
        <time>2024-09-22T09:29:04Z</time>
      </trkpt>
      <trkpt lat="49.18961" lon="-0.07464">
        <ele>16.6</ele>
        <time>2024-09-22T09:29:05Z</time>
      </trkpt>
      <trkpt lat="49.18964" lon="-0.07453">
        <ele>16.8</ele>
        <time>2024-09-22T09:29:06Z</time>
      </trkpt>
      <trkpt lat="49.18968" lon="-0.07442">
        <ele>17</ele>
        <time>2024-09-22T09:29:07Z</time>
      </trkpt>
      <trkpt lat="49.18971" lon="-0.07432">
        <ele>17</ele>
        <time>2024-09-22T09:29:08Z</time>
      </trkpt>
      <trkpt lat="49.18975" lon="-0.07421">
        <ele>17.2</ele>
        <time>2024-09-22T09:29:09Z</time>
      </trkpt>
      <trkpt lat="49.18979" lon="-0.0741">
        <ele>17.2</ele>
        <time>2024-09-22T09:29:10Z</time>
      </trkpt>
      <trkpt lat="49.18984" lon="-0.07401">
        <ele>17.2</ele>
        <time>2024-09-22T09:29:11Z</time>
      </trkpt>
      <trkpt lat="49.1899" lon="-0.07391">
        <ele>17.2</ele>
        <time>2024-09-22T09:29:12Z</time>
      </trkpt>
      <trkpt lat="49.18996" lon="-0.07382">
        <ele>17.2</ele>
        <time>2024-09-22T09:29:13Z</time>
      </trkpt>
      <trkpt lat="49.19003" lon="-0.07374">
        <ele>17.2</ele>
        <time>2024-09-22T09:29:14Z</time>
      </trkpt>
      <trkpt lat="49.1901" lon="-0.07367">
        <ele>17.2</ele>
        <time>2024-09-22T09:29:15Z</time>
      </trkpt>
      <trkpt lat="49.19017" lon="-0.07359">
        <ele>17.2</ele>
        <time>2024-09-22T09:29:16Z</time>
      </trkpt>
      <trkpt lat="49.19024" lon="-0.07352">
        <ele>17.2</ele>
        <time>2024-09-22T09:29:17Z</time>
      </trkpt>
      <trkpt lat="49.19032" lon="-0.07344">
        <ele>17.2</ele>
        <time>2024-09-22T09:29:18Z</time>
      </trkpt>
      <trkpt lat="49.19039" lon="-0.07336">
        <ele>17</ele>
        <time>2024-09-22T09:29:19Z</time>
      </trkpt>
      <trkpt lat="49.19046" lon="-0.07329">
        <ele>17</ele>
        <time>2024-09-22T09:29:20Z</time>
      </trkpt>
      <trkpt lat="49.19054" lon="-0.07321">
        <ele>17</ele>
        <time>2024-09-22T09:29:21Z</time>
      </trkpt>
      <trkpt lat="49.19062" lon="-0.07313">
        <ele>16.8</ele>
        <time>2024-09-22T09:29:22Z</time>
      </trkpt>
      <trkpt lat="49.19068" lon="-0.07307">
        <ele>16.6</ele>
        <time>2024-09-22T09:29:23Z</time>
      </trkpt>
      <trkpt lat="49.19075" lon="-0.07299">
        <ele>16.2</ele>
        <time>2024-09-22T09:29:24Z</time>
      </trkpt>
      <trkpt lat="49.19085" lon="-0.07289">
        <ele>16</ele>
        <time>2024-09-22T09:29:25Z</time>
      </trkpt>
      <trkpt lat="49.19093" lon="-0.07281">
        <ele>15.6</ele>
        <time>2024-09-22T09:29:26Z</time>
      </trkpt>
      <trkpt lat="49.19101" lon="-0.07273">
        <ele>15.6</ele>
        <time>2024-09-22T09:29:27Z</time>
      </trkpt>
      <trkpt lat="49.19108" lon="-0.07265">
        <ele>15.4</ele>
        <time>2024-09-22T09:29:28Z</time>
      </trkpt>
      <trkpt lat="49.19116" lon="-0.07257">
        <ele>15.4</ele>
        <time>2024-09-22T09:29:29Z</time>
      </trkpt>
      <trkpt lat="49.19124" lon="-0.07249">
        <ele>15.2</ele>
        <time>2024-09-22T09:29:30Z</time>
      </trkpt>
      <trkpt lat="49.19131" lon="-0.07241">
        <ele>15</ele>
        <time>2024-09-22T09:29:31Z</time>
      </trkpt>
      <trkpt lat="49.19139" lon="-0.07233">
        <ele>15</ele>
        <time>2024-09-22T09:29:32Z</time>
      </trkpt>
      <trkpt lat="49.19146" lon="-0.07226">
        <ele>14.6</ele>
        <time>2024-09-22T09:29:33Z</time>
      </trkpt>
      <trkpt lat="49.19153" lon="-0.07218">
        <ele>14.4</ele>
        <time>2024-09-22T09:29:34Z</time>
      </trkpt>
      <trkpt lat="49.1916" lon="-0.07211">
        <ele>14.2</ele>
        <time>2024-09-22T09:29:35Z</time>
      </trkpt>
      <trkpt lat="49.19167" lon="-0.07204">
        <ele>14</ele>
        <time>2024-09-22T09:29:36Z</time>
      </trkpt>
      <trkpt lat="49.19174" lon="-0.07196">
        <ele>13.8</ele>
        <time>2024-09-22T09:29:37Z</time>
      </trkpt>
      <trkpt lat="49.19181" lon="-0.07188">
        <ele>13.6</ele>
        <time>2024-09-22T09:29:38Z</time>
      </trkpt>
      <trkpt lat="49.19189" lon="-0.0718">
        <ele>13.2</ele>
        <time>2024-09-22T09:29:39Z</time>
      </trkpt>
      <trkpt lat="49.19196" lon="-0.07173">
        <ele>12.8</ele>
        <time>2024-09-22T09:29:40Z</time>
      </trkpt>
      <trkpt lat="49.19203" lon="-0.07165">
        <ele>12.8</ele>
        <time>2024-09-22T09:29:41Z</time>
      </trkpt>
      <trkpt lat="49.1921" lon="-0.07157">
        <ele>12.6</ele>
        <time>2024-09-22T09:29:42Z</time>
      </trkpt>
      <trkpt lat="49.19218" lon="-0.0715">
        <ele>12.4</ele>
        <time>2024-09-22T09:29:43Z</time>
      </trkpt>
      <trkpt lat="49.19225" lon="-0.07142">
        <ele>12.4</ele>
        <time>2024-09-22T09:29:44Z</time>
      </trkpt>
      <trkpt lat="49.19232" lon="-0.07134">
        <ele>12.2</ele>
        <time>2024-09-22T09:29:45Z</time>
      </trkpt>
      <trkpt lat="49.1924" lon="-0.07126">
        <ele>12.2</ele>
        <time>2024-09-22T09:29:46Z</time>
      </trkpt>
      <trkpt lat="49.19247" lon="-0.07119">
        <ele>12</ele>
        <time>2024-09-22T09:29:47Z</time>
      </trkpt>
      <trkpt lat="49.19254" lon="-0.07111">
        <ele>12</ele>
        <time>2024-09-22T09:29:48Z</time>
      </trkpt>
      <trkpt lat="49.19261" lon="-0.07103">
        <ele>12</ele>
        <time>2024-09-22T09:29:49Z</time>
      </trkpt>
      <trkpt lat="49.19268" lon="-0.07096">
        <ele>12</ele>
        <time>2024-09-22T09:29:50Z</time>
      </trkpt>
      <trkpt lat="49.19275" lon="-0.07089">
        <ele>11.8</ele>
        <time>2024-09-22T09:29:51Z</time>
      </trkpt>
      <trkpt lat="49.19282" lon="-0.07081">
        <ele>11.8</ele>
        <time>2024-09-22T09:29:52Z</time>
      </trkpt>
      <trkpt lat="49.19289" lon="-0.07074">
        <ele>11.8</ele>
        <time>2024-09-22T09:29:53Z</time>
      </trkpt>
      <trkpt lat="49.19297" lon="-0.07067">
        <ele>11.8</ele>
        <time>2024-09-22T09:29:54Z</time>
      </trkpt>
      <trkpt lat="49.19304" lon="-0.07059">
        <ele>11.8</ele>
        <time>2024-09-22T09:29:55Z</time>
      </trkpt>
      <trkpt lat="49.19311" lon="-0.07052">
        <ele>11.8</ele>
        <time>2024-09-22T09:29:56Z</time>
      </trkpt>
      <trkpt lat="49.19319" lon="-0.07046">
        <ele>11.6</ele>
        <time>2024-09-22T09:29:57Z</time>
      </trkpt>
      <trkpt lat="49.19327" lon="-0.0704">
        <ele>11.6</ele>
        <time>2024-09-22T09:29:58Z</time>
      </trkpt>
      <trkpt lat="49.19335" lon="-0.07034">
        <ele>11.6</ele>
        <time>2024-09-22T09:29:59Z</time>
      </trkpt>
      <trkpt lat="49.19341" lon="-0.07029">
        <ele>11.6</ele>
        <time>2024-09-22T09:30:00Z</time>
      </trkpt>
      <trkpt lat="49.1935" lon="-0.07022">
        <ele>11.6</ele>
        <time>2024-09-22T09:30:01Z</time>
      </trkpt>
      <trkpt lat="49.19357" lon="-0.07016">
        <ele>11.6</ele>
        <time>2024-09-22T09:30:02Z</time>
      </trkpt>
      <trkpt lat="49.19364" lon="-0.07011">
        <ele>11.6</ele>
        <time>2024-09-22T09:30:03Z</time>
      </trkpt>
      <trkpt lat="49.19372" lon="-0.07005">
        <ele>11.6</ele>
        <time>2024-09-22T09:30:04Z</time>
      </trkpt>
      <trkpt lat="49.19379" lon="-0.07">
        <ele>11.6</ele>
        <time>2024-09-22T09:30:05Z</time>
      </trkpt>
      <trkpt lat="49.19387" lon="-0.06996">
        <ele>11.6</ele>
        <time>2024-09-22T09:30:06Z</time>
      </trkpt>
      <trkpt lat="49.19394" lon="-0.06991">
        <ele>11.8</ele>
        <time>2024-09-22T09:30:07Z</time>
      </trkpt>
      <trkpt lat="49.194" lon="-0.06988">
        <ele>12</ele>
        <time>2024-09-22T09:30:08Z</time>
      </trkpt>
      <trkpt lat="49.19407" lon="-0.06983">
        <ele>12</ele>
        <time>2024-09-22T09:30:09Z</time>
      </trkpt>
      <trkpt lat="49.19415" lon="-0.06977">
        <ele>12.4</ele>
        <time>2024-09-22T09:30:10Z</time>
      </trkpt>
      <trkpt lat="49.19422" lon="-0.06973">
        <ele>12.4</ele>
        <time>2024-09-22T09:30:11Z</time>
      </trkpt>
      <trkpt lat="49.19428" lon="-0.0697">
        <ele>12.6</ele>
        <time>2024-09-22T09:30:12Z</time>
      </trkpt>
      <trkpt lat="49.19436" lon="-0.06965">
        <ele>13</ele>
        <time>2024-09-22T09:30:13Z</time>
      </trkpt>
      <trkpt lat="49.19444" lon="-0.0696">
        <ele>13.2</ele>
        <time>2024-09-22T09:30:14Z</time>
      </trkpt>
      <trkpt lat="49.19452" lon="-0.06955">
        <ele>13.4</ele>
        <time>2024-09-22T09:30:15Z</time>
      </trkpt>
      <trkpt lat="49.19459" lon="-0.0695">
        <ele>13.6</ele>
        <time>2024-09-22T09:30:16Z</time>
      </trkpt>
      <trkpt lat="49.19467" lon="-0.06945">
        <ele>14</ele>
        <time>2024-09-22T09:30:17Z</time>
      </trkpt>
      <trkpt lat="49.19475" lon="-0.06939">
        <ele>14</ele>
        <time>2024-09-22T09:30:18Z</time>
      </trkpt>
      <trkpt lat="49.19483" lon="-0.06933">
        <ele>14</ele>
        <time>2024-09-22T09:30:19Z</time>
      </trkpt>
      <trkpt lat="49.19491" lon="-0.06927">
        <ele>14.2</ele>
        <time>2024-09-22T09:30:20Z</time>
      </trkpt>
      <trkpt lat="49.19497" lon="-0.06922">
        <ele>14.2</ele>
        <time>2024-09-22T09:30:21Z</time>
      </trkpt>
      <trkpt lat="49.19505" lon="-0.06915">
        <ele>14.2</ele>
        <time>2024-09-22T09:30:22Z</time>
      </trkpt>
      <trkpt lat="49.19514" lon="-0.06907">
        <ele>14.2</ele>
        <time>2024-09-22T09:30:23Z</time>
      </trkpt>
      <trkpt lat="49.19521" lon="-0.06902">
        <ele>14.2</ele>
        <time>2024-09-22T09:30:24Z</time>
      </trkpt>
      <trkpt lat="49.19531" lon="-0.06894">
        <ele>14.2</ele>
        <time>2024-09-22T09:30:25Z</time>
      </trkpt>
      <trkpt lat="49.19539" lon="-0.06887">
        <ele>14.2</ele>
        <time>2024-09-22T09:30:26Z</time>
      </trkpt>
      <trkpt lat="49.19547" lon="-0.06879">
        <ele>14.2</ele>
        <time>2024-09-22T09:30:27Z</time>
      </trkpt>
      <trkpt lat="49.19554" lon="-0.06872">
        <ele>14</ele>
        <time>2024-09-22T09:30:28Z</time>
      </trkpt>
      <trkpt lat="49.19562" lon="-0.06865">
        <ele>13.8</ele>
        <time>2024-09-22T09:30:29Z</time>
      </trkpt>
      <trkpt lat="49.19569" lon="-0.06857">
        <ele>13.8</ele>
        <time>2024-09-22T09:30:30Z</time>
      </trkpt>
      <trkpt lat="49.19576" lon="-0.0685">
        <ele>13.6</ele>
        <time>2024-09-22T09:30:31Z</time>
      </trkpt>
      <trkpt lat="49.19584" lon="-0.06842">
        <ele>13.2</ele>
        <time>2024-09-22T09:30:32Z</time>
      </trkpt>
      <trkpt lat="49.19591" lon="-0.06835">
        <ele>13</ele>
        <time>2024-09-22T09:30:33Z</time>
      </trkpt>
      <trkpt lat="49.19598" lon="-0.06828">
        <ele>12.8</ele>
        <time>2024-09-22T09:30:34Z</time>
      </trkpt>
      <trkpt lat="49.19606" lon="-0.06821">
        <ele>12.8</ele>
        <time>2024-09-22T09:30:35Z</time>
      </trkpt>
      <trkpt lat="49.19612" lon="-0.06814">
        <ele>12.6</ele>
        <time>2024-09-22T09:30:36Z</time>
      </trkpt>
      <trkpt lat="49.1962" lon="-0.06807">
        <ele>12.6</ele>
        <time>2024-09-22T09:30:37Z</time>
      </trkpt>
      <trkpt lat="49.19627" lon="-0.06801">
        <ele>12.4</ele>
        <time>2024-09-22T09:30:38Z</time>
      </trkpt>
      <trkpt lat="49.19634" lon="-0.06794">
        <ele>12.4</ele>
        <time>2024-09-22T09:30:39Z</time>
      </trkpt>
      <trkpt lat="49.19641" lon="-0.06789">
        <ele>12.4</ele>
        <time>2024-09-22T09:30:40Z</time>
      </trkpt>
      <trkpt lat="49.19649" lon="-0.06783">
        <ele>12.4</ele>
        <time>2024-09-22T09:30:41Z</time>
      </trkpt>
      <trkpt lat="49.19656" lon="-0.06777">
        <ele>12.4</ele>
        <time>2024-09-22T09:30:42Z</time>
      </trkpt>
      <trkpt lat="49.19663" lon="-0.06772">
        <ele>12.4</ele>
        <time>2024-09-22T09:30:43Z</time>
      </trkpt>
      <trkpt lat="49.19671" lon="-0.06767">
        <ele>12.4</ele>
        <time>2024-09-22T09:30:44Z</time>
      </trkpt>
      <trkpt lat="49.19678" lon="-0.06762">
        <ele>12.4</ele>
        <time>2024-09-22T09:30:45Z</time>
      </trkpt>
      <trkpt lat="49.19685" lon="-0.06757">
        <ele>12.4</ele>
        <time>2024-09-22T09:30:46Z</time>
      </trkpt>
      <trkpt lat="49.19693" lon="-0.06752">
        <ele>12.4</ele>
        <time>2024-09-22T09:30:47Z</time>
      </trkpt>
      <trkpt lat="49.197" lon="-0.06747">
        <ele>12.4</ele>
        <time>2024-09-22T09:30:48Z</time>
      </trkpt>
      <trkpt lat="49.19708" lon="-0.06743">
        <ele>12.4</ele>
        <time>2024-09-22T09:30:49Z</time>
      </trkpt>
      <trkpt lat="49.19716" lon="-0.06738">
        <ele>12.4</ele>
        <time>2024-09-22T09:30:50Z</time>
      </trkpt>
      <trkpt lat="49.19723" lon="-0.06734">
        <ele>12.4</ele>
        <time>2024-09-22T09:30:51Z</time>
      </trkpt>
      <trkpt lat="49.19731" lon="-0.0673">
        <ele>12.8</ele>
        <time>2024-09-22T09:30:52Z</time>
      </trkpt>
      <trkpt lat="49.19738" lon="-0.06726">
        <ele>12.8</ele>
        <time>2024-09-22T09:30:53Z</time>
      </trkpt>
      <trkpt lat="49.19745" lon="-0.06721">
        <ele>12.8</ele>
        <time>2024-09-22T09:30:54Z</time>
      </trkpt>
      <trkpt lat="49.19752" lon="-0.06717">
        <ele>12.6</ele>
        <time>2024-09-22T09:30:55Z</time>
      </trkpt>
      <trkpt lat="49.19759" lon="-0.06712">
        <ele>12.6</ele>
        <time>2024-09-22T09:30:56Z</time>
      </trkpt>
      <trkpt lat="49.19765" lon="-0.06707">
        <ele>12.6</ele>
        <time>2024-09-22T09:30:57Z</time>
      </trkpt>
      <trkpt lat="49.19771" lon="-0.06701">
        <ele>12.6</ele>
        <time>2024-09-22T09:30:58Z</time>
      </trkpt>
      <trkpt lat="49.19777" lon="-0.06695">
        <ele>12.6</ele>
        <time>2024-09-22T09:30:59Z</time>
      </trkpt>
      <trkpt lat="49.19782" lon="-0.06688">
        <ele>12.4</ele>
        <time>2024-09-22T09:31:00Z</time>
      </trkpt>
      <trkpt lat="49.19788" lon="-0.06681">
        <ele>12.4</ele>
        <time>2024-09-22T09:31:01Z</time>
      </trkpt>
      <trkpt lat="49.19793" lon="-0.06673">
        <ele>12.4</ele>
        <time>2024-09-22T09:31:02Z</time>
      </trkpt>
      <trkpt lat="49.19797" lon="-0.06664">
        <ele>12.6</ele>
        <time>2024-09-22T09:31:03Z</time>
      </trkpt>
      <trkpt lat="49.19802" lon="-0.06656">
        <ele>12.6</ele>
        <time>2024-09-22T09:31:04Z</time>
      </trkpt>
      <trkpt lat="49.19806" lon="-0.06646">
        <ele>12.6</ele>
        <time>2024-09-22T09:31:05Z</time>
      </trkpt>
      <trkpt lat="49.1981" lon="-0.06637">
        <ele>12.6</ele>
        <time>2024-09-22T09:31:06Z</time>
      </trkpt>
      <trkpt lat="49.19813" lon="-0.06627">
        <ele>12.6</ele>
        <time>2024-09-22T09:31:07Z</time>
      </trkpt>
      <trkpt lat="49.19816" lon="-0.06617">
        <ele>12.4</ele>
        <time>2024-09-22T09:31:08Z</time>
      </trkpt>
      <trkpt lat="49.19819" lon="-0.06608">
        <ele>12.4</ele>
        <time>2024-09-22T09:31:09Z</time>
      </trkpt>
      <trkpt lat="49.19821" lon="-0.06598">
        <ele>12.4</ele>
        <time>2024-09-22T09:31:10Z</time>
      </trkpt>
      <trkpt lat="49.19823" lon="-0.06589">
        <ele>12.4</ele>
        <time>2024-09-22T09:31:11Z</time>
      </trkpt>
      <trkpt lat="49.19824" lon="-0.0658">
        <ele>12.4</ele>
        <time>2024-09-22T09:31:12Z</time>
      </trkpt>
      <trkpt lat="49.19825" lon="-0.06572">
        <ele>12.4</ele>
        <time>2024-09-22T09:31:13Z</time>
      </trkpt>
      <trkpt lat="49.19826" lon="-0.06564">
        <ele>12.4</ele>
        <time>2024-09-22T09:31:14Z</time>
      </trkpt>
      <trkpt lat="49.19827" lon="-0.06558">
        <ele>12.4</ele>
        <time>2024-09-22T09:31:15Z</time>
      </trkpt>
      <trkpt lat="49.19828" lon="-0.06553">
        <ele>12.4</ele>
        <time>2024-09-22T09:31:16Z</time>
      </trkpt>
      <trkpt lat="49.19829" lon="-0.06549">
        <ele>12.4</ele>
        <time>2024-09-22T09:31:17Z</time>
      </trkpt>
      <trkpt lat="49.19829" lon="-0.06545">
        <ele>12.4</ele>
        <time>2024-09-22T09:31:18Z</time>
      </trkpt>
      <trkpt lat="49.1983" lon="-0.06543">
        <ele>12.4</ele>
        <time>2024-09-22T09:31:19Z</time>
      </trkpt>
      <trkpt lat="49.1983" lon="-0.06542">
        <ele>12.4</ele>
        <time>2024-09-22T09:31:20Z</time>
      </trkpt>
      <trkpt lat="49.1983" lon="-0.06542">
        <ele>12.4</ele>
        <time>2024-09-22T09:31:21Z</time>
      </trkpt>
      <trkpt lat="49.1983" lon="-0.06542">
        <ele>12.4</ele>
        <time>2024-09-22T09:31:22Z</time>
      </trkpt>
      <trkpt lat="49.19835" lon="-0.06538">
        <ele>12.8</ele>
        <time>2024-09-22T09:31:27Z</time>
      </trkpt>
      <trkpt lat="49.19838" lon="-0.06539">
        <ele>12.8</ele>
        <time>2024-09-22T09:31:28Z</time>
      </trkpt>
      <trkpt lat="49.19841" lon="-0.06541">
        <ele>13</ele>
        <time>2024-09-22T09:31:29Z</time>
      </trkpt>
      <trkpt lat="49.19845" lon="-0.06543">
        <ele>13</ele>
        <time>2024-09-22T09:31:30Z</time>
      </trkpt>
      <trkpt lat="49.1985" lon="-0.06545">
        <ele>13</ele>
        <time>2024-09-22T09:31:31Z</time>
      </trkpt>
      <trkpt lat="49.19854" lon="-0.06547">
        <ele>13</ele>
        <time>2024-09-22T09:31:32Z</time>
      </trkpt>
      <trkpt lat="49.19859" lon="-0.06549">
        <ele>13</ele>
        <time>2024-09-22T09:31:33Z</time>
      </trkpt>
      <trkpt lat="49.19865" lon="-0.06551">
        <ele>13</ele>
        <time>2024-09-22T09:31:34Z</time>
      </trkpt>
      <trkpt lat="49.1987" lon="-0.06553">
        <ele>13</ele>
        <time>2024-09-22T09:31:35Z</time>
      </trkpt>
      <trkpt lat="49.19877" lon="-0.06554">
        <ele>13</ele>
        <time>2024-09-22T09:31:36Z</time>
      </trkpt>
      <trkpt lat="49.19883" lon="-0.06555">
        <ele>13</ele>
        <time>2024-09-22T09:31:37Z</time>
      </trkpt>
      <trkpt lat="49.19889" lon="-0.06556">
        <ele>12.8</ele>
        <time>2024-09-22T09:31:38Z</time>
      </trkpt>
      <trkpt lat="49.19896" lon="-0.06557">
        <ele>12.8</ele>
        <time>2024-09-22T09:31:39Z</time>
      </trkpt>
      <trkpt lat="49.19902" lon="-0.06557">
        <ele>12.6</ele>
        <time>2024-09-22T09:31:40Z</time>
      </trkpt>
      <trkpt lat="49.19909" lon="-0.06557">
        <ele>12.6</ele>
        <time>2024-09-22T09:31:41Z</time>
      </trkpt>
      <trkpt lat="49.19916" lon="-0.06557">
        <ele>12.4</ele>
        <time>2024-09-22T09:31:42Z</time>
      </trkpt>
      <trkpt lat="49.19923" lon="-0.06556">
        <ele>12.2</ele>
        <time>2024-09-22T09:31:43Z</time>
      </trkpt>
      <trkpt lat="49.19931" lon="-0.06556">
        <ele>12</ele>
        <time>2024-09-22T09:31:44Z</time>
      </trkpt>
      <trkpt lat="49.19938" lon="-0.06556">
        <ele>11.8</ele>
        <time>2024-09-22T09:31:45Z</time>
      </trkpt>
      <trkpt lat="49.19946" lon="-0.06555">
        <ele>11.8</ele>
        <time>2024-09-22T09:31:46Z</time>
      </trkpt>
      <trkpt lat="49.19953" lon="-0.06555">
        <ele>11.6</ele>
        <time>2024-09-22T09:31:47Z</time>
      </trkpt>
      <trkpt lat="49.19961" lon="-0.06554">
        <ele>11.6</ele>
        <time>2024-09-22T09:31:48Z</time>
      </trkpt>
      <trkpt lat="49.19969" lon="-0.06554">
        <ele>11.6</ele>
        <time>2024-09-22T09:31:49Z</time>
      </trkpt>
      <trkpt lat="49.19976" lon="-0.06554">
        <ele>11.4</ele>
        <time>2024-09-22T09:31:50Z</time>
      </trkpt>
      <trkpt lat="49.19984" lon="-0.06553">
        <ele>11.2</ele>
        <time>2024-09-22T09:31:51Z</time>
      </trkpt>
      <trkpt lat="49.19992" lon="-0.06551">
        <ele>11.2</ele>
        <time>2024-09-22T09:31:52Z</time>
      </trkpt>
      <trkpt lat="49.19999" lon="-0.06548">
        <ele>11</ele>
        <time>2024-09-22T09:31:53Z</time>
      </trkpt>
      <trkpt lat="49.20005" lon="-0.06544">
        <ele>11</ele>
        <time>2024-09-22T09:31:54Z</time>
      </trkpt>
      <trkpt lat="49.20014" lon="-0.06539">
        <ele>11</ele>
        <time>2024-09-22T09:31:55Z</time>
      </trkpt>
      <trkpt lat="49.20021" lon="-0.06534">
        <ele>11</ele>
        <time>2024-09-22T09:31:56Z</time>
      </trkpt>
      <trkpt lat="49.20027" lon="-0.06528">
        <ele>11</ele>
        <time>2024-09-22T09:31:57Z</time>
      </trkpt>
      <trkpt lat="49.20034" lon="-0.06521">
        <ele>11</ele>
        <time>2024-09-22T09:31:58Z</time>
      </trkpt>
      <trkpt lat="49.2004" lon="-0.06514">
        <ele>11</ele>
        <time>2024-09-22T09:31:59Z</time>
      </trkpt>
      <trkpt lat="49.20046" lon="-0.06507">
        <ele>11</ele>
        <time>2024-09-22T09:32:00Z</time>
      </trkpt>
      <trkpt lat="49.20052" lon="-0.065">
        <ele>11</ele>
        <time>2024-09-22T09:32:01Z</time>
      </trkpt>
      <trkpt lat="49.20058" lon="-0.06493">
        <ele>11</ele>
        <time>2024-09-22T09:32:02Z</time>
      </trkpt>
      <trkpt lat="49.20064" lon="-0.06487">
        <ele>11</ele>
        <time>2024-09-22T09:32:03Z</time>
      </trkpt>
      <trkpt lat="49.20071" lon="-0.06481">
        <ele>11</ele>
        <time>2024-09-22T09:32:04Z</time>
      </trkpt>
      <trkpt lat="49.20078" lon="-0.06475">
        <ele>11</ele>
        <time>2024-09-22T09:32:05Z</time>
      </trkpt>
      <trkpt lat="49.20084" lon="-0.0647">
        <ele>11.2</ele>
        <time>2024-09-22T09:32:06Z</time>
      </trkpt>
      <trkpt lat="49.2009" lon="-0.06464">
        <ele>11.2</ele>
        <time>2024-09-22T09:32:07Z</time>
      </trkpt>
      <trkpt lat="49.20097" lon="-0.06457">
        <ele>11.4</ele>
        <time>2024-09-22T09:32:08Z</time>
      </trkpt>
      <trkpt lat="49.20102" lon="-0.0645">
        <ele>11.6</ele>
        <time>2024-09-22T09:32:09Z</time>
      </trkpt>
      <trkpt lat="49.20107" lon="-0.06442">
        <ele>11.6</ele>
        <time>2024-09-22T09:32:10Z</time>
      </trkpt>
      <trkpt lat="49.20113" lon="-0.06433">
        <ele>11.8</ele>
        <time>2024-09-22T09:32:11Z</time>
      </trkpt>
      <trkpt lat="49.20117" lon="-0.06423">
        <ele>11.8</ele>
        <time>2024-09-22T09:32:12Z</time>
      </trkpt>
      <trkpt lat="49.20121" lon="-0.06414">
        <ele>11.8</ele>
        <time>2024-09-22T09:32:13Z</time>
      </trkpt>
      <trkpt lat="49.20125" lon="-0.06404">
        <ele>11.8</ele>
        <time>2024-09-22T09:32:14Z</time>
      </trkpt>
      <trkpt lat="49.20128" lon="-0.06397">
        <ele>11.8</ele>
        <time>2024-09-22T09:32:15Z</time>
      </trkpt>
      <trkpt lat="49.20133" lon="-0.06385">
        <ele>11.8</ele>
        <time>2024-09-22T09:32:16Z</time>
      </trkpt>
      <trkpt lat="49.20138" lon="-0.06377">
        <ele>11.8</ele>
        <time>2024-09-22T09:32:17Z</time>
      </trkpt>
      <trkpt lat="49.20144" lon="-0.06368">
        <ele>11.8</ele>
        <time>2024-09-22T09:32:18Z</time>
      </trkpt>
      <trkpt lat="49.20149" lon="-0.06359">
        <ele>11.8</ele>
        <time>2024-09-22T09:32:19Z</time>
      </trkpt>
      <trkpt lat="49.20155" lon="-0.0635">
        <ele>11.8</ele>
        <time>2024-09-22T09:32:20Z</time>
      </trkpt>
      <trkpt lat="49.2016" lon="-0.06342">
        <ele>11.6</ele>
        <time>2024-09-22T09:32:21Z</time>
      </trkpt>
      <trkpt lat="49.20166" lon="-0.06334">
        <ele>11.4</ele>
        <time>2024-09-22T09:32:22Z</time>
      </trkpt>
      <trkpt lat="49.20172" lon="-0.06327">
        <ele>11.2</ele>
        <time>2024-09-22T09:32:23Z</time>
      </trkpt>
      <trkpt lat="49.20178" lon="-0.0632">
        <ele>11.2</ele>
        <time>2024-09-22T09:32:24Z</time>
      </trkpt>
      <trkpt lat="49.20185" lon="-0.06314">
        <ele>11.2</ele>
        <time>2024-09-22T09:32:25Z</time>
      </trkpt>
      <trkpt lat="49.20192" lon="-0.0631">
        <ele>11.2</ele>
        <time>2024-09-22T09:32:26Z</time>
      </trkpt>
      <trkpt lat="49.20199" lon="-0.06307">
        <ele>11.2</ele>
        <time>2024-09-22T09:32:27Z</time>
      </trkpt>
      <trkpt lat="49.20207" lon="-0.06307">
        <ele>11.2</ele>
        <time>2024-09-22T09:32:28Z</time>
      </trkpt>
      <trkpt lat="49.20214" lon="-0.06308">
        <ele>11.2</ele>
        <time>2024-09-22T09:32:29Z</time>
      </trkpt>
      <trkpt lat="49.20222" lon="-0.06311">
        <ele>11.2</ele>
        <time>2024-09-22T09:32:30Z</time>
      </trkpt>
      <trkpt lat="49.20229" lon="-0.06315">
        <ele>11.2</ele>
        <time>2024-09-22T09:32:31Z</time>
      </trkpt>
      <trkpt lat="49.20236" lon="-0.06318">
        <ele>11.2</ele>
        <time>2024-09-22T09:32:32Z</time>
      </trkpt>
      <trkpt lat="49.20243" lon="-0.06322">
        <ele>11.4</ele>
        <time>2024-09-22T09:32:33Z</time>
      </trkpt>
      <trkpt lat="49.20251" lon="-0.06326">
        <ele>11.6</ele>
        <time>2024-09-22T09:32:34Z</time>
      </trkpt>
      <trkpt lat="49.20258" lon="-0.0633">
        <ele>11.8</ele>
        <time>2024-09-22T09:32:35Z</time>
      </trkpt>
      <trkpt lat="49.20265" lon="-0.06333">
        <ele>11.8</ele>
        <time>2024-09-22T09:32:36Z</time>
      </trkpt>
      <trkpt lat="49.20273" lon="-0.06337">
        <ele>11.8</ele>
        <time>2024-09-22T09:32:37Z</time>
      </trkpt>
      <trkpt lat="49.2028" lon="-0.0634">
        <ele>12</ele>
        <time>2024-09-22T09:32:38Z</time>
      </trkpt>
      <trkpt lat="49.20287" lon="-0.06344">
        <ele>12</ele>
        <time>2024-09-22T09:32:39Z</time>
      </trkpt>
      <trkpt lat="49.20295" lon="-0.06348">
        <ele>12</ele>
        <time>2024-09-22T09:32:40Z</time>
      </trkpt>
      <trkpt lat="49.20302" lon="-0.06352">
        <ele>12.2</ele>
        <time>2024-09-22T09:32:41Z</time>
      </trkpt>
      <trkpt lat="49.2031" lon="-0.06355">
        <ele>12.2</ele>
        <time>2024-09-22T09:32:42Z</time>
      </trkpt>
      <trkpt lat="49.20318" lon="-0.06358">
        <ele>12.2</ele>
        <time>2024-09-22T09:32:43Z</time>
      </trkpt>
      <trkpt lat="49.20325" lon="-0.06361">
        <ele>12.4</ele>
        <time>2024-09-22T09:32:44Z</time>
      </trkpt>
      <trkpt lat="49.20333" lon="-0.06365">
        <ele>12.4</ele>
        <time>2024-09-22T09:32:45Z</time>
      </trkpt>
      <trkpt lat="49.20341" lon="-0.06369">
        <ele>12.4</ele>
        <time>2024-09-22T09:32:46Z</time>
      </trkpt>
      <trkpt lat="49.20349" lon="-0.06373">
        <ele>12.6</ele>
        <time>2024-09-22T09:32:47Z</time>
      </trkpt>
      <trkpt lat="49.20356" lon="-0.06377">
        <ele>12.8</ele>
        <time>2024-09-22T09:32:48Z</time>
      </trkpt>
      <trkpt lat="49.20364" lon="-0.06381">
        <ele>13</ele>
        <time>2024-09-22T09:32:49Z</time>
      </trkpt>
      <trkpt lat="49.20371" lon="-0.06385">
        <ele>13</ele>
        <time>2024-09-22T09:32:50Z</time>
      </trkpt>
      <trkpt lat="49.20379" lon="-0.0639">
        <ele>13</ele>
        <time>2024-09-22T09:32:51Z</time>
      </trkpt>
      <trkpt lat="49.20386" lon="-0.06394">
        <ele>13</ele>
        <time>2024-09-22T09:32:52Z</time>
      </trkpt>
      <trkpt lat="49.20394" lon="-0.06398">
        <ele>13</ele>
        <time>2024-09-22T09:32:53Z</time>
      </trkpt>
      <trkpt lat="49.20401" lon="-0.06402">
        <ele>13</ele>
        <time>2024-09-22T09:32:54Z</time>
      </trkpt>
      <trkpt lat="49.20409" lon="-0.06407">
        <ele>13</ele>
        <time>2024-09-22T09:32:55Z</time>
      </trkpt>
      <trkpt lat="49.20416" lon="-0.0641">
        <ele>13</ele>
        <time>2024-09-22T09:32:56Z</time>
      </trkpt>
      <trkpt lat="49.20424" lon="-0.06414">
        <ele>13</ele>
        <time>2024-09-22T09:32:57Z</time>
      </trkpt>
      <trkpt lat="49.2043" lon="-0.06417">
        <ele>13</ele>
        <time>2024-09-22T09:32:58Z</time>
      </trkpt>
      <trkpt lat="49.2044" lon="-0.06422">
        <ele>13.2</ele>
        <time>2024-09-22T09:32:59Z</time>
      </trkpt>
      <trkpt lat="49.20448" lon="-0.06426">
        <ele>13.2</ele>
        <time>2024-09-22T09:33:00Z</time>
      </trkpt>
      <trkpt lat="49.20455" lon="-0.06431">
        <ele>13.2</ele>
        <time>2024-09-22T09:33:01Z</time>
      </trkpt>
      <trkpt lat="49.20463" lon="-0.06437">
        <ele>13.2</ele>
        <time>2024-09-22T09:33:02Z</time>
      </trkpt>
      <trkpt lat="49.2047" lon="-0.06443">
        <ele>13.2</ele>
        <time>2024-09-22T09:33:03Z</time>
      </trkpt>
      <trkpt lat="49.20477" lon="-0.0645">
        <ele>13.2</ele>
        <time>2024-09-22T09:33:04Z</time>
      </trkpt>
      <trkpt lat="49.20483" lon="-0.06458">
        <ele>13.2</ele>
        <time>2024-09-22T09:33:05Z</time>
      </trkpt>
      <trkpt lat="49.20489" lon="-0.06466">
        <ele>13.2</ele>
        <time>2024-09-22T09:33:06Z</time>
      </trkpt>
      <trkpt lat="49.20496" lon="-0.06474">
        <ele>13.2</ele>
        <time>2024-09-22T09:33:07Z</time>
      </trkpt>
      <trkpt lat="49.20502" lon="-0.06483">
        <ele>13.2</ele>
        <time>2024-09-22T09:33:08Z</time>
      </trkpt>
      <trkpt lat="49.20508" lon="-0.06491">
        <ele>13.2</ele>
        <time>2024-09-22T09:33:09Z</time>
      </trkpt>
      <trkpt lat="49.20514" lon="-0.06499">
        <ele>13.2</ele>
        <time>2024-09-22T09:33:10Z</time>
      </trkpt>
      <trkpt lat="49.20521" lon="-0.06506">
        <ele>13.2</ele>
        <time>2024-09-22T09:33:11Z</time>
      </trkpt>
      <trkpt lat="49.20529" lon="-0.06513">
        <ele>13.2</ele>
        <time>2024-09-22T09:33:12Z</time>
      </trkpt>
      <trkpt lat="49.20535" lon="-0.06518">
        <ele>13.2</ele>
        <time>2024-09-22T09:33:13Z</time>
      </trkpt>
      <trkpt lat="49.20542" lon="-0.06525">
        <ele>13.2</ele>
        <time>2024-09-22T09:33:14Z</time>
      </trkpt>
      <trkpt lat="49.2055" lon="-0.06531">
        <ele>13.2</ele>
        <time>2024-09-22T09:33:15Z</time>
      </trkpt>
      <trkpt lat="49.20557" lon="-0.06538">
        <ele>13.2</ele>
        <time>2024-09-22T09:33:16Z</time>
      </trkpt>
      <trkpt lat="49.20565" lon="-0.06545">
        <ele>13.2</ele>
        <time>2024-09-22T09:33:17Z</time>
      </trkpt>
      <trkpt lat="49.20572" lon="-0.06552">
        <ele>13.2</ele>
        <time>2024-09-22T09:33:18Z</time>
      </trkpt>
      <trkpt lat="49.20578" lon="-0.0656">
        <ele>13.4</ele>
        <time>2024-09-22T09:33:19Z</time>
      </trkpt>
      <trkpt lat="49.20584" lon="-0.06568">
        <ele>13.4</ele>
        <time>2024-09-22T09:33:20Z</time>
      </trkpt>
      <trkpt lat="49.2059" lon="-0.06577">
        <ele>13.4</ele>
        <time>2024-09-22T09:33:21Z</time>
      </trkpt>
      <trkpt lat="49.20596" lon="-0.06586">
        <ele>13.4</ele>
        <time>2024-09-22T09:33:22Z</time>
      </trkpt>
      <trkpt lat="49.20602" lon="-0.06595">
        <ele>13.2</ele>
        <time>2024-09-22T09:33:23Z</time>
      </trkpt>
      <trkpt lat="49.20607" lon="-0.06605">
        <ele>13.2</ele>
        <time>2024-09-22T09:33:24Z</time>
      </trkpt>
      <trkpt lat="49.20613" lon="-0.06614">
        <ele>13.2</ele>
        <time>2024-09-22T09:33:25Z</time>
      </trkpt>
      <trkpt lat="49.2062" lon="-0.06624">
        <ele>13.4</ele>
        <time>2024-09-22T09:33:26Z</time>
      </trkpt>
      <trkpt lat="49.20626" lon="-0.06633">
        <ele>13.4</ele>
        <time>2024-09-22T09:33:27Z</time>
      </trkpt>
      <trkpt lat="49.20632" lon="-0.06643">
        <ele>13.6</ele>
        <time>2024-09-22T09:33:28Z</time>
      </trkpt>
      <trkpt lat="49.20638" lon="-0.06652">
        <ele>13.6</ele>
        <time>2024-09-22T09:33:29Z</time>
      </trkpt>
      <trkpt lat="49.20645" lon="-0.06661">
        <ele>13.6</ele>
        <time>2024-09-22T09:33:30Z</time>
      </trkpt>
      <trkpt lat="49.20651" lon="-0.0667">
        <ele>13.6</ele>
        <time>2024-09-22T09:33:31Z</time>
      </trkpt>
      <trkpt lat="49.20658" lon="-0.06678">
        <ele>13.6</ele>
        <time>2024-09-22T09:33:32Z</time>
      </trkpt>
      <trkpt lat="49.20665" lon="-0.06686">
        <ele>13.6</ele>
        <time>2024-09-22T09:33:33Z</time>
      </trkpt>
      <trkpt lat="49.20673" lon="-0.06696">
        <ele>13.4</ele>
        <time>2024-09-22T09:33:34Z</time>
      </trkpt>
      <trkpt lat="49.2068" lon="-0.06704">
        <ele>13.4</ele>
        <time>2024-09-22T09:33:35Z</time>
      </trkpt>
      <trkpt lat="49.20686" lon="-0.0671">
        <ele>13.4</ele>
        <time>2024-09-22T09:33:36Z</time>
      </trkpt>
      <trkpt lat="49.20694" lon="-0.0672">
        <ele>13.4</ele>
        <time>2024-09-22T09:33:37Z</time>
      </trkpt>
      <trkpt lat="49.207" lon="-0.06726">
        <ele>13.4</ele>
        <time>2024-09-22T09:33:38Z</time>
      </trkpt>
      <trkpt lat="49.20707" lon="-0.06734">
        <ele>13.4</ele>
        <time>2024-09-22T09:33:39Z</time>
      </trkpt>
      <trkpt lat="49.20715" lon="-0.06742">
        <ele>13.6</ele>
        <time>2024-09-22T09:33:40Z</time>
      </trkpt>
      <trkpt lat="49.20722" lon="-0.0675">
        <ele>13.6</ele>
        <time>2024-09-22T09:33:41Z</time>
      </trkpt>
      <trkpt lat="49.20729" lon="-0.06758">
        <ele>13.6</ele>
        <time>2024-09-22T09:33:42Z</time>
      </trkpt>
      <trkpt lat="49.20737" lon="-0.06766">
        <ele>13.6</ele>
        <time>2024-09-22T09:33:43Z</time>
      </trkpt>
      <trkpt lat="49.20744" lon="-0.06775">
        <ele>13.6</ele>
        <time>2024-09-22T09:33:44Z</time>
      </trkpt>
      <trkpt lat="49.20752" lon="-0.06783">
        <ele>13.6</ele>
        <time>2024-09-22T09:33:45Z</time>
      </trkpt>
      <trkpt lat="49.20759" lon="-0.06791">
        <ele>13.6</ele>
        <time>2024-09-22T09:33:46Z</time>
      </trkpt>
      <trkpt lat="49.20767" lon="-0.06799">
        <ele>13.6</ele>
        <time>2024-09-22T09:33:47Z</time>
      </trkpt>
      <trkpt lat="49.20775" lon="-0.06806">
        <ele>13.6</ele>
        <time>2024-09-22T09:33:48Z</time>
      </trkpt>
      <trkpt lat="49.20783" lon="-0.06814">
        <ele>13.4</ele>
        <time>2024-09-22T09:33:49Z</time>
      </trkpt>
      <trkpt lat="49.20791" lon="-0.0682">
        <ele>13.4</ele>
        <time>2024-09-22T09:33:50Z</time>
      </trkpt>
      <trkpt lat="49.20799" lon="-0.06826">
        <ele>13.4</ele>
        <time>2024-09-22T09:33:51Z</time>
      </trkpt>
      <trkpt lat="49.20808" lon="-0.06831">
        <ele>13.4</ele>
        <time>2024-09-22T09:33:52Z</time>
      </trkpt>
      <trkpt lat="49.20817" lon="-0.06834">
        <ele>13.4</ele>
        <time>2024-09-22T09:33:53Z</time>
      </trkpt>
      <trkpt lat="49.20826" lon="-0.06837">
        <ele>13.4</ele>
        <time>2024-09-22T09:33:54Z</time>
      </trkpt>
      <trkpt lat="49.20835" lon="-0.06839">
        <ele>13.2</ele>
        <time>2024-09-22T09:33:55Z</time>
      </trkpt>
      <trkpt lat="49.20844" lon="-0.06841">
        <ele>13.2</ele>
        <time>2024-09-22T09:33:56Z</time>
      </trkpt>
      <trkpt lat="49.20854" lon="-0.06843">
        <ele>13.2</ele>
        <time>2024-09-22T09:33:57Z</time>
      </trkpt>
      <trkpt lat="49.20863" lon="-0.06844">
        <ele>13.2</ele>
        <time>2024-09-22T09:33:58Z</time>
      </trkpt>
      <trkpt lat="49.20872" lon="-0.06846">
        <ele>13.2</ele>
        <time>2024-09-22T09:33:59Z</time>
      </trkpt>
      <trkpt lat="49.20881" lon="-0.06849">
        <ele>13.2</ele>
        <time>2024-09-22T09:34:00Z</time>
      </trkpt>
      <trkpt lat="49.2089" lon="-0.06853">
        <ele>13</ele>
        <time>2024-09-22T09:34:01Z</time>
      </trkpt>
      <trkpt lat="49.20901" lon="-0.06858">
        <ele>13</ele>
        <time>2024-09-22T09:34:02Z</time>
      </trkpt>
      <trkpt lat="49.2091" lon="-0.06862">
        <ele>12.8</ele>
        <time>2024-09-22T09:34:03Z</time>
      </trkpt>
      <trkpt lat="49.20919" lon="-0.06865">
        <ele>12.8</ele>
        <time>2024-09-22T09:34:04Z</time>
      </trkpt>
      <trkpt lat="49.20928" lon="-0.06867">
        <ele>12.8</ele>
        <time>2024-09-22T09:34:05Z</time>
      </trkpt>
      <trkpt lat="49.20937" lon="-0.06867">
        <ele>12.8</ele>
        <time>2024-09-22T09:34:06Z</time>
      </trkpt>
      <trkpt lat="49.20945" lon="-0.06866">
        <ele>12.6</ele>
        <time>2024-09-22T09:34:07Z</time>
      </trkpt>
      <trkpt lat="49.20956" lon="-0.06866">
        <ele>12.6</ele>
        <time>2024-09-22T09:34:08Z</time>
      </trkpt>
      <trkpt lat="49.20965" lon="-0.06865">
        <ele>12.6</ele>
        <time>2024-09-22T09:34:09Z</time>
      </trkpt>
      <trkpt lat="49.20974" lon="-0.06864">
        <ele>12.6</ele>
        <time>2024-09-22T09:34:10Z</time>
      </trkpt>
      <trkpt lat="49.20983" lon="-0.06864">
        <ele>12.6</ele>
        <time>2024-09-22T09:34:11Z</time>
      </trkpt>
      <trkpt lat="49.20992" lon="-0.06863">
        <ele>12.6</ele>
        <time>2024-09-22T09:34:12Z</time>
      </trkpt>
      <trkpt lat="49.21001" lon="-0.06863">
        <ele>12.6</ele>
        <time>2024-09-22T09:34:13Z</time>
      </trkpt>
      <trkpt lat="49.2101" lon="-0.06862">
        <ele>12.6</ele>
        <time>2024-09-22T09:34:14Z</time>
      </trkpt>
      <trkpt lat="49.21018" lon="-0.0686">
        <ele>12.6</ele>
        <time>2024-09-22T09:34:15Z</time>
      </trkpt>
      <trkpt lat="49.21026" lon="-0.0686">
        <ele>12.6</ele>
        <time>2024-09-22T09:34:16Z</time>
      </trkpt>
      <trkpt lat="49.21036" lon="-0.06858">
        <ele>12.6</ele>
        <time>2024-09-22T09:34:17Z</time>
      </trkpt>
      <trkpt lat="49.21045" lon="-0.06857">
        <ele>12.6</ele>
        <time>2024-09-22T09:34:18Z</time>
      </trkpt>
      <trkpt lat="49.21054" lon="-0.06857">
        <ele>12.6</ele>
        <time>2024-09-22T09:34:19Z</time>
      </trkpt>
      <trkpt lat="49.21063" lon="-0.06856">
        <ele>12.6</ele>
        <time>2024-09-22T09:34:20Z</time>
      </trkpt>
      <trkpt lat="49.21069" lon="-0.06855">
        <ele>12.6</ele>
        <time>2024-09-22T09:34:21Z</time>
      </trkpt>
      <trkpt lat="49.21078" lon="-0.06855">
        <ele>12.6</ele>
        <time>2024-09-22T09:34:22Z</time>
      </trkpt>
      <trkpt lat="49.21089" lon="-0.06856">
        <ele>12.6</ele>
        <time>2024-09-22T09:34:23Z</time>
      </trkpt>
      <trkpt lat="49.21097" lon="-0.06858">
        <ele>12.8</ele>
        <time>2024-09-22T09:34:24Z</time>
      </trkpt>
      <trkpt lat="49.21106" lon="-0.0686">
        <ele>12.8</ele>
        <time>2024-09-22T09:34:25Z</time>
      </trkpt>
      <trkpt lat="49.21113" lon="-0.06862">
        <ele>12.8</ele>
        <time>2024-09-22T09:34:26Z</time>
      </trkpt>
      <trkpt lat="49.21123" lon="-0.06864">
        <ele>12.8</ele>
        <time>2024-09-22T09:34:27Z</time>
      </trkpt>
      <trkpt lat="49.21132" lon="-0.06866">
        <ele>12.8</ele>
        <time>2024-09-22T09:34:28Z</time>
      </trkpt>
      <trkpt lat="49.21139" lon="-0.06867">
        <ele>13</ele>
        <time>2024-09-22T09:34:29Z</time>
      </trkpt>
      <trkpt lat="49.21149" lon="-0.06869">
        <ele>13</ele>
        <time>2024-09-22T09:34:30Z</time>
      </trkpt>
      <trkpt lat="49.21157" lon="-0.0687">
        <ele>13</ele>
        <time>2024-09-22T09:34:31Z</time>
      </trkpt>
      <trkpt lat="49.21164" lon="-0.06871">
        <ele>13</ele>
        <time>2024-09-22T09:34:32Z</time>
      </trkpt>
      <trkpt lat="49.21173" lon="-0.06873">
        <ele>13.2</ele>
        <time>2024-09-22T09:34:33Z</time>
      </trkpt>
      <trkpt lat="49.21182" lon="-0.06874">
        <ele>13.2</ele>
        <time>2024-09-22T09:34:34Z</time>
      </trkpt>
      <trkpt lat="49.21189" lon="-0.06875">
        <ele>13.2</ele>
        <time>2024-09-22T09:34:35Z</time>
      </trkpt>
      <trkpt lat="49.21197" lon="-0.06876">
        <ele>13.2</ele>
        <time>2024-09-22T09:34:36Z</time>
      </trkpt>
      <trkpt lat="49.21205" lon="-0.06877">
        <ele>13.2</ele>
        <time>2024-09-22T09:34:37Z</time>
      </trkpt>
      <trkpt lat="49.21211" lon="-0.06878">
        <ele>13.2</ele>
        <time>2024-09-22T09:34:38Z</time>
      </trkpt>
      <trkpt lat="49.2122" lon="-0.06879">
        <ele>13.2</ele>
        <time>2024-09-22T09:34:39Z</time>
      </trkpt>
      <trkpt lat="49.21228" lon="-0.06879">
        <ele>13.2</ele>
        <time>2024-09-22T09:34:40Z</time>
      </trkpt>
      <trkpt lat="49.21234" lon="-0.0688">
        <ele>13.4</ele>
        <time>2024-09-22T09:34:41Z</time>
      </trkpt>
      <trkpt lat="49.21243" lon="-0.06881">
        <ele>13.4</ele>
        <time>2024-09-22T09:34:42Z</time>
      </trkpt>
      <trkpt lat="49.21249" lon="-0.06881">
        <ele>13.6</ele>
        <time>2024-09-22T09:34:43Z</time>
      </trkpt>
      <trkpt lat="49.21256" lon="-0.06882">
        <ele>13.8</ele>
        <time>2024-09-22T09:34:44Z</time>
      </trkpt>
      <trkpt lat="49.21265" lon="-0.06883">
        <ele>14</ele>
        <time>2024-09-22T09:34:45Z</time>
      </trkpt>
      <trkpt lat="49.21272" lon="-0.06883">
        <ele>14</ele>
        <time>2024-09-22T09:34:46Z</time>
      </trkpt>
      <trkpt lat="49.21279" lon="-0.06884">
        <ele>14.4</ele>
        <time>2024-09-22T09:34:47Z</time>
      </trkpt>
      <trkpt lat="49.21287" lon="-0.06885">
        <ele>14.6</ele>
        <time>2024-09-22T09:34:48Z</time>
      </trkpt>
      <trkpt lat="49.21294" lon="-0.06885">
        <ele>14.8</ele>
        <time>2024-09-22T09:34:49Z</time>
      </trkpt>
      <trkpt lat="49.213" lon="-0.06886">
        <ele>15</ele>
        <time>2024-09-22T09:34:50Z</time>
      </trkpt>
      <trkpt lat="49.21308" lon="-0.06886">
        <ele>15</ele>
        <time>2024-09-22T09:34:51Z</time>
      </trkpt>
      <trkpt lat="49.21315" lon="-0.06887">
        <ele>15.2</ele>
        <time>2024-09-22T09:34:52Z</time>
      </trkpt>
      <trkpt lat="49.21321" lon="-0.06888">
        <ele>15.4</ele>
        <time>2024-09-22T09:34:53Z</time>
      </trkpt>
      <trkpt lat="49.21329" lon="-0.06889">
        <ele>15.4</ele>
        <time>2024-09-22T09:34:54Z</time>
      </trkpt>
      <trkpt lat="49.21336" lon="-0.0689">
        <ele>15.6</ele>
        <time>2024-09-22T09:34:55Z</time>
      </trkpt>
      <trkpt lat="49.21342" lon="-0.06892">
        <ele>15.8</ele>
        <time>2024-09-22T09:34:56Z</time>
      </trkpt>
      <trkpt lat="49.21349" lon="-0.06893">
        <ele>16</ele>
        <time>2024-09-22T09:34:57Z</time>
      </trkpt>
      <trkpt lat="49.21356" lon="-0.06895">
        <ele>16.2</ele>
        <time>2024-09-22T09:34:58Z</time>
      </trkpt>
      <trkpt lat="49.21361" lon="-0.06896">
        <ele>16.4</ele>
        <time>2024-09-22T09:34:59Z</time>
      </trkpt>
      <trkpt lat="49.21369" lon="-0.06898">
        <ele>16.6</ele>
        <time>2024-09-22T09:35:00Z</time>
      </trkpt>
      <trkpt lat="49.21375" lon="-0.06899">
        <ele>17</ele>
        <time>2024-09-22T09:35:01Z</time>
      </trkpt>
      <trkpt lat="49.21381" lon="-0.069">
        <ele>17.4</ele>
        <time>2024-09-22T09:35:02Z</time>
      </trkpt>
      <trkpt lat="49.21389" lon="-0.069">
        <ele>17.4</ele>
        <time>2024-09-22T09:35:03Z</time>
      </trkpt>
      <trkpt lat="49.21395" lon="-0.069">
        <ele>18</ele>
        <time>2024-09-22T09:35:04Z</time>
      </trkpt>
      <trkpt lat="49.21401" lon="-0.06899">
        <ele>18.4</ele>
        <time>2024-09-22T09:35:05Z</time>
      </trkpt>
      <trkpt lat="49.2141" lon="-0.06898">
        <ele>18.6</ele>
        <time>2024-09-22T09:35:06Z</time>
      </trkpt>
      <trkpt lat="49.21417" lon="-0.06897">
        <ele>18.6</ele>
        <time>2024-09-22T09:35:07Z</time>
      </trkpt>
      <trkpt lat="49.21424" lon="-0.06896">
        <ele>18.8</ele>
        <time>2024-09-22T09:35:08Z</time>
      </trkpt>
      <trkpt lat="49.21432" lon="-0.06894">
        <ele>19</ele>
        <time>2024-09-22T09:35:09Z</time>
      </trkpt>
      <trkpt lat="49.21439" lon="-0.06893">
        <ele>19</ele>
        <time>2024-09-22T09:35:10Z</time>
      </trkpt>
      <trkpt lat="49.21446" lon="-0.06892">
        <ele>19</ele>
        <time>2024-09-22T09:35:11Z</time>
      </trkpt>
      <trkpt lat="49.21454" lon="-0.06891">
        <ele>19</ele>
        <time>2024-09-22T09:35:12Z</time>
      </trkpt>
      <trkpt lat="49.21461" lon="-0.06889">
        <ele>19.2</ele>
        <time>2024-09-22T09:35:13Z</time>
      </trkpt>
      <trkpt lat="49.21469" lon="-0.06888">
        <ele>19.2</ele>
        <time>2024-09-22T09:35:14Z</time>
      </trkpt>
      <trkpt lat="49.21476" lon="-0.06888">
        <ele>19.2</ele>
        <time>2024-09-22T09:35:15Z</time>
      </trkpt>
      <trkpt lat="49.21483" lon="-0.06887">
        <ele>19.2</ele>
        <time>2024-09-22T09:35:16Z</time>
      </trkpt>
      <trkpt lat="49.2149" lon="-0.06887">
        <ele>19.2</ele>
        <time>2024-09-22T09:35:17Z</time>
      </trkpt>
      <trkpt lat="49.21497" lon="-0.06886">
        <ele>19.2</ele>
        <time>2024-09-22T09:35:18Z</time>
      </trkpt>
      <trkpt lat="49.21505" lon="-0.06885">
        <ele>19.2</ele>
        <time>2024-09-22T09:35:19Z</time>
      </trkpt>
      <trkpt lat="49.21512" lon="-0.06884">
        <ele>19.4</ele>
        <time>2024-09-22T09:35:20Z</time>
      </trkpt>
      <trkpt lat="49.21519" lon="-0.06884">
        <ele>19.4</ele>
        <time>2024-09-22T09:35:21Z</time>
      </trkpt>
      <trkpt lat="49.21526" lon="-0.06883">
        <ele>19.4</ele>
        <time>2024-09-22T09:35:22Z</time>
      </trkpt>
      <trkpt lat="49.21532" lon="-0.06882">
        <ele>19.6</ele>
        <time>2024-09-22T09:35:23Z</time>
      </trkpt>
      <trkpt lat="49.2154" lon="-0.06881">
        <ele>19.6</ele>
        <time>2024-09-22T09:35:24Z</time>
      </trkpt>
      <trkpt lat="49.21546" lon="-0.06881">
        <ele>19.6</ele>
        <time>2024-09-22T09:35:25Z</time>
      </trkpt>
      <trkpt lat="49.21552" lon="-0.0688">
        <ele>19.6</ele>
        <time>2024-09-22T09:35:26Z</time>
      </trkpt>
      <trkpt lat="49.21561" lon="-0.06879">
        <ele>19.6</ele>
        <time>2024-09-22T09:35:27Z</time>
      </trkpt>
      <trkpt lat="49.21567" lon="-0.06878">
        <ele>19.8</ele>
        <time>2024-09-22T09:35:28Z</time>
      </trkpt>
      <trkpt lat="49.21574" lon="-0.06877">
        <ele>20</ele>
        <time>2024-09-22T09:35:29Z</time>
      </trkpt>
      <trkpt lat="49.21581" lon="-0.06876">
        <ele>20</ele>
        <time>2024-09-22T09:35:30Z</time>
      </trkpt>
      <trkpt lat="49.21587" lon="-0.06876">
        <ele>20.2</ele>
        <time>2024-09-22T09:35:31Z</time>
      </trkpt>
      <trkpt lat="49.21593" lon="-0.06875">
        <ele>20.4</ele>
        <time>2024-09-22T09:35:32Z</time>
      </trkpt>
      <trkpt lat="49.216" lon="-0.06874">
        <ele>20.6</ele>
        <time>2024-09-22T09:35:33Z</time>
      </trkpt>
      <trkpt lat="49.21605" lon="-0.06873">
        <ele>20.6</ele>
        <time>2024-09-22T09:35:34Z</time>
      </trkpt>
      <trkpt lat="49.2161" lon="-0.06872">
        <ele>20.8</ele>
        <time>2024-09-22T09:35:35Z</time>
      </trkpt>
      <trkpt lat="49.21617" lon="-0.06871">
        <ele>21</ele>
        <time>2024-09-22T09:35:36Z</time>
      </trkpt>
      <trkpt lat="49.21622" lon="-0.06868">
        <ele>21.2</ele>
        <time>2024-09-22T09:35:37Z</time>
      </trkpt>
      <trkpt lat="49.21627" lon="-0.06865">
        <ele>21.6</ele>
        <time>2024-09-22T09:35:38Z</time>
      </trkpt>
      <trkpt lat="49.21632" lon="-0.06862">
        <ele>22</ele>
        <time>2024-09-22T09:35:39Z</time>
      </trkpt>
      <trkpt lat="49.21637" lon="-0.06858">
        <ele>22.4</ele>
        <time>2024-09-22T09:35:40Z</time>
      </trkpt>
      <trkpt lat="49.21642" lon="-0.06855">
        <ele>22.6</ele>
        <time>2024-09-22T09:35:41Z</time>
      </trkpt>
      <trkpt lat="49.21646" lon="-0.0685">
        <ele>23</ele>
        <time>2024-09-22T09:35:42Z</time>
      </trkpt>
      <trkpt lat="49.2165" lon="-0.06845">
        <ele>23.6</ele>
        <time>2024-09-22T09:35:43Z</time>
      </trkpt>
      <trkpt lat="49.21654" lon="-0.06839">
        <ele>23.8</ele>
        <time>2024-09-22T09:35:44Z</time>
      </trkpt>
      <trkpt lat="49.21658" lon="-0.06833">
        <ele>23.8</ele>
        <time>2024-09-22T09:35:45Z</time>
      </trkpt>
      <trkpt lat="49.21661" lon="-0.06826">
        <ele>24.2</ele>
        <time>2024-09-22T09:35:46Z</time>
      </trkpt>
      <trkpt lat="49.21663" lon="-0.0682">
        <ele>24.6</ele>
        <time>2024-09-22T09:35:47Z</time>
      </trkpt>
      <trkpt lat="49.21665" lon="-0.06813">
        <ele>25.2</ele>
        <time>2024-09-22T09:35:48Z</time>
      </trkpt>
      <trkpt lat="49.21669" lon="-0.06805">
        <ele>25.6</ele>
        <time>2024-09-22T09:35:49Z</time>
      </trkpt>
      <trkpt lat="49.21671" lon="-0.06798">
        <ele>26.2</ele>
        <time>2024-09-22T09:35:50Z</time>
      </trkpt>
      <trkpt lat="49.21673" lon="-0.06791">
        <ele>26.8</ele>
        <time>2024-09-22T09:35:51Z</time>
      </trkpt>
      <trkpt lat="49.21675" lon="-0.06785">
        <ele>27.2</ele>
        <time>2024-09-22T09:35:52Z</time>
      </trkpt>
      <trkpt lat="49.21678" lon="-0.06779">
        <ele>27.8</ele>
        <time>2024-09-22T09:35:53Z</time>
      </trkpt>
      <trkpt lat="49.21682" lon="-0.06774">
        <ele>28.4</ele>
        <time>2024-09-22T09:35:54Z</time>
      </trkpt>
      <trkpt lat="49.21687" lon="-0.06771">
        <ele>28.8</ele>
        <time>2024-09-22T09:35:55Z</time>
      </trkpt>
      <trkpt lat="49.21692" lon="-0.06769">
        <ele>29.2</ele>
        <time>2024-09-22T09:35:56Z</time>
      </trkpt>
      <trkpt lat="49.21697" lon="-0.06768">
        <ele>29.6</ele>
        <time>2024-09-22T09:35:57Z</time>
      </trkpt>
      <trkpt lat="49.21702" lon="-0.06768">
        <ele>30.2</ele>
        <time>2024-09-22T09:35:58Z</time>
      </trkpt>
      <trkpt lat="49.21708" lon="-0.06767">
        <ele>30.6</ele>
        <time>2024-09-22T09:35:59Z</time>
      </trkpt>
      <trkpt lat="49.21714" lon="-0.06767">
        <ele>31</ele>
        <time>2024-09-22T09:36:00Z</time>
      </trkpt>
      <trkpt lat="49.21719" lon="-0.06767">
        <ele>31.4</ele>
        <time>2024-09-22T09:36:01Z</time>
      </trkpt>
      <trkpt lat="49.21726" lon="-0.06768">
        <ele>31.8</ele>
        <time>2024-09-22T09:36:02Z</time>
      </trkpt>
      <trkpt lat="49.21731" lon="-0.06768">
        <ele>32.4</ele>
        <time>2024-09-22T09:36:03Z</time>
      </trkpt>
      <trkpt lat="49.21738" lon="-0.06769">
        <ele>32.8</ele>
        <time>2024-09-22T09:36:04Z</time>
      </trkpt>
      <trkpt lat="49.21745" lon="-0.06769">
        <ele>33.4</ele>
        <time>2024-09-22T09:36:05Z</time>
      </trkpt>
      <trkpt lat="49.21752" lon="-0.06769">
        <ele>33.4</ele>
        <time>2024-09-22T09:36:06Z</time>
      </trkpt>
      <trkpt lat="49.21759" lon="-0.0677">
        <ele>33.6</ele>
        <time>2024-09-22T09:36:07Z</time>
      </trkpt>
      <trkpt lat="49.21764" lon="-0.0677">
        <ele>33.8</ele>
        <time>2024-09-22T09:36:08Z</time>
      </trkpt>
      <trkpt lat="49.21772" lon="-0.06771">
        <ele>34</ele>
        <time>2024-09-22T09:36:09Z</time>
      </trkpt>
      <trkpt lat="49.21779" lon="-0.06772">
        <ele>34</ele>
        <time>2024-09-22T09:36:10Z</time>
      </trkpt>
      <trkpt lat="49.21786" lon="-0.06772">
        <ele>34</ele>
        <time>2024-09-22T09:36:11Z</time>
      </trkpt>
      <trkpt lat="49.21793" lon="-0.06772">
        <ele>34</ele>
        <time>2024-09-22T09:36:12Z</time>
      </trkpt>
      <trkpt lat="49.21799" lon="-0.06772">
        <ele>34</ele>
        <time>2024-09-22T09:36:13Z</time>
      </trkpt>
      <trkpt lat="49.21806" lon="-0.06773">
        <ele>34</ele>
        <time>2024-09-22T09:36:14Z</time>
      </trkpt>
      <trkpt lat="49.21813" lon="-0.06774">
        <ele>34</ele>
        <time>2024-09-22T09:36:15Z</time>
      </trkpt>
      <trkpt lat="49.2182" lon="-0.06776">
        <ele>34</ele>
        <time>2024-09-22T09:36:16Z</time>
      </trkpt>
      <trkpt lat="49.21825" lon="-0.06778">
        <ele>34</ele>
        <time>2024-09-22T09:36:17Z</time>
      </trkpt>
      <trkpt lat="49.21834" lon="-0.06782">
        <ele>34</ele>
        <time>2024-09-22T09:36:18Z</time>
      </trkpt>
      <trkpt lat="49.2184" lon="-0.06788">
        <ele>34</ele>
        <time>2024-09-22T09:36:19Z</time>
      </trkpt>
      <trkpt lat="49.21846" lon="-0.06795">
        <ele>34</ele>
        <time>2024-09-22T09:36:20Z</time>
      </trkpt>
      <trkpt lat="49.21853" lon="-0.06803">
        <ele>34</ele>
        <time>2024-09-22T09:36:21Z</time>
      </trkpt>
      <trkpt lat="49.21859" lon="-0.06812">
        <ele>33.8</ele>
        <time>2024-09-22T09:36:22Z</time>
      </trkpt>
      <trkpt lat="49.21863" lon="-0.06819">
        <ele>33.8</ele>
        <time>2024-09-22T09:36:23Z</time>
      </trkpt>
      <trkpt lat="49.2187" lon="-0.0683">
        <ele>33.6</ele>
        <time>2024-09-22T09:36:24Z</time>
      </trkpt>
      <trkpt lat="49.21875" lon="-0.06839">
        <ele>33.6</ele>
        <time>2024-09-22T09:36:25Z</time>
      </trkpt>
      <trkpt lat="49.21879" lon="-0.06847">
        <ele>33.4</ele>
        <time>2024-09-22T09:36:26Z</time>
      </trkpt>
      <trkpt lat="49.21887" lon="-0.06858">
        <ele>33.4</ele>
        <time>2024-09-22T09:36:27Z</time>
      </trkpt>
      <trkpt lat="49.21893" lon="-0.06867">
        <ele>33</ele>
        <time>2024-09-22T09:36:28Z</time>
      </trkpt>
      <trkpt lat="49.21898" lon="-0.06873">
        <ele>32.6</ele>
        <time>2024-09-22T09:36:29Z</time>
      </trkpt>
      <trkpt lat="49.21906" lon="-0.06879">
        <ele>32</ele>
        <time>2024-09-22T09:36:30Z</time>
      </trkpt>
      <trkpt lat="49.21914" lon="-0.06885">
        <ele>31.4</ele>
        <time>2024-09-22T09:36:31Z</time>
      </trkpt>
      <trkpt lat="49.21925" lon="-0.06888">
        <ele>31</ele>
        <time>2024-09-22T09:36:32Z</time>
      </trkpt>
      <trkpt lat="49.21934" lon="-0.0689">
        <ele>30.8</ele>
        <time>2024-09-22T09:36:33Z</time>
      </trkpt>
      <trkpt lat="49.21943" lon="-0.0689">
        <ele>30.4</ele>
        <time>2024-09-22T09:36:34Z</time>
      </trkpt>
      <trkpt lat="49.21953" lon="-0.06889">
        <ele>30.2</ele>
        <time>2024-09-22T09:36:35Z</time>
      </trkpt>
      <trkpt lat="49.21963" lon="-0.06888">
        <ele>30</ele>
        <time>2024-09-22T09:36:36Z</time>
      </trkpt>
      <trkpt lat="49.21973" lon="-0.06886">
        <ele>29.6</ele>
        <time>2024-09-22T09:36:37Z</time>
      </trkpt>
      <trkpt lat="49.21982" lon="-0.06885">
        <ele>29.4</ele>
        <time>2024-09-22T09:36:38Z</time>
      </trkpt>
      <trkpt lat="49.21992" lon="-0.06883">
        <ele>29</ele>
        <time>2024-09-22T09:36:39Z</time>
      </trkpt>
      <trkpt lat="49.22002" lon="-0.06882">
        <ele>28.6</ele>
        <time>2024-09-22T09:36:40Z</time>
      </trkpt>
      <trkpt lat="49.22012" lon="-0.0688">
        <ele>28</ele>
        <time>2024-09-22T09:36:41Z</time>
      </trkpt>
      <trkpt lat="49.22023" lon="-0.06879">
        <ele>27.6</ele>
        <time>2024-09-22T09:36:42Z</time>
      </trkpt>
      <trkpt lat="49.22033" lon="-0.06878">
        <ele>27.4</ele>
        <time>2024-09-22T09:36:43Z</time>
      </trkpt>
      <trkpt lat="49.22044" lon="-0.06876">
        <ele>26.8</ele>
        <time>2024-09-22T09:36:44Z</time>
      </trkpt>
      <trkpt lat="49.22054" lon="-0.06874">
        <ele>26.4</ele>
        <time>2024-09-22T09:36:45Z</time>
      </trkpt>
      <trkpt lat="49.22065" lon="-0.06872">
        <ele>26</ele>
        <time>2024-09-22T09:36:46Z</time>
      </trkpt>
      <trkpt lat="49.22073" lon="-0.0687">
        <ele>25.6</ele>
        <time>2024-09-22T09:36:47Z</time>
      </trkpt>
      <trkpt lat="49.22085" lon="-0.06868">
        <ele>25.6</ele>
        <time>2024-09-22T09:36:48Z</time>
      </trkpt>
      <trkpt lat="49.22096" lon="-0.06867">
        <ele>25.2</ele>
        <time>2024-09-22T09:36:49Z</time>
      </trkpt>
      <trkpt lat="49.22106" lon="-0.06865">
        <ele>25</ele>
        <time>2024-09-22T09:36:50Z</time>
      </trkpt>
      <trkpt lat="49.22117" lon="-0.06864">
        <ele>24.4</ele>
        <time>2024-09-22T09:36:51Z</time>
      </trkpt>
      <trkpt lat="49.22127" lon="-0.06862">
        <ele>23.6</ele>
        <time>2024-09-22T09:36:52Z</time>
      </trkpt>
      <trkpt lat="49.22138" lon="-0.06859">
        <ele>22.6</ele>
        <time>2024-09-22T09:36:53Z</time>
      </trkpt>
      <trkpt lat="49.22148" lon="-0.06858">
        <ele>22</ele>
        <time>2024-09-22T09:36:54Z</time>
      </trkpt>
      <trkpt lat="49.22158" lon="-0.06856">
        <ele>21.2</ele>
        <time>2024-09-22T09:36:55Z</time>
      </trkpt>
      <trkpt lat="49.22168" lon="-0.06855">
        <ele>20.6</ele>
        <time>2024-09-22T09:36:56Z</time>
      </trkpt>
      <trkpt lat="49.22178" lon="-0.06853">
        <ele>20.2</ele>
        <time>2024-09-22T09:36:57Z</time>
      </trkpt>
      <trkpt lat="49.22188" lon="-0.06852">
        <ele>19.6</ele>
        <time>2024-09-22T09:36:58Z</time>
      </trkpt>
      <trkpt lat="49.22198" lon="-0.06852">
        <ele>19</ele>
        <time>2024-09-22T09:36:59Z</time>
      </trkpt>
      <trkpt lat="49.22208" lon="-0.06851">
        <ele>18.4</ele>
        <time>2024-09-22T09:37:00Z</time>
      </trkpt>
      <trkpt lat="49.22218" lon="-0.06851">
        <ele>17.8</ele>
        <time>2024-09-22T09:37:01Z</time>
      </trkpt>
      <trkpt lat="49.22227" lon="-0.06851">
        <ele>17.2</ele>
        <time>2024-09-22T09:37:02Z</time>
      </trkpt>
      <trkpt lat="49.22237" lon="-0.0685">
        <ele>17</ele>
        <time>2024-09-22T09:37:03Z</time>
      </trkpt>
      <trkpt lat="49.22246" lon="-0.0685">
        <ele>16.8</ele>
        <time>2024-09-22T09:37:04Z</time>
      </trkpt>
      <trkpt lat="49.22255" lon="-0.0685">
        <ele>16.8</ele>
        <time>2024-09-22T09:37:05Z</time>
      </trkpt>
      <trkpt lat="49.22264" lon="-0.0685">
        <ele>16.8</ele>
        <time>2024-09-22T09:37:06Z</time>
      </trkpt>
      <trkpt lat="49.22273" lon="-0.0685">
        <ele>16.8</ele>
        <time>2024-09-22T09:37:07Z</time>
      </trkpt>
      <trkpt lat="49.22281" lon="-0.0685">
        <ele>16.8</ele>
        <time>2024-09-22T09:37:08Z</time>
      </trkpt>
      <trkpt lat="49.2229" lon="-0.0685">
        <ele>16.8</ele>
        <time>2024-09-22T09:37:09Z</time>
      </trkpt>
      <trkpt lat="49.22298" lon="-0.06851">
        <ele>16.8</ele>
        <time>2024-09-22T09:37:10Z</time>
      </trkpt>
      <trkpt lat="49.22307" lon="-0.06851">
        <ele>16.8</ele>
        <time>2024-09-22T09:37:11Z</time>
      </trkpt>
      <trkpt lat="49.22316" lon="-0.06852">
        <ele>16.8</ele>
        <time>2024-09-22T09:37:12Z</time>
      </trkpt>
      <trkpt lat="49.22322" lon="-0.06852">
        <ele>16.8</ele>
        <time>2024-09-22T09:37:13Z</time>
      </trkpt>
      <trkpt lat="49.22332" lon="-0.06851">
        <ele>16.8</ele>
        <time>2024-09-22T09:37:14Z</time>
      </trkpt>
      <trkpt lat="49.22341" lon="-0.06852">
        <ele>17</ele>
        <time>2024-09-22T09:37:15Z</time>
      </trkpt>
      <trkpt lat="49.22349" lon="-0.06851">
        <ele>17</ele>
        <time>2024-09-22T09:37:16Z</time>
      </trkpt>
      <trkpt lat="49.22358" lon="-0.06851">
        <ele>17</ele>
        <time>2024-09-22T09:37:17Z</time>
      </trkpt>
      <trkpt lat="49.22366" lon="-0.06852">
        <ele>17.2</ele>
        <time>2024-09-22T09:37:18Z</time>
      </trkpt>
      <trkpt lat="49.22374" lon="-0.06852">
        <ele>17.2</ele>
        <time>2024-09-22T09:37:19Z</time>
      </trkpt>
      <trkpt lat="49.22381" lon="-0.06852">
        <ele>17.4</ele>
        <time>2024-09-22T09:37:20Z</time>
      </trkpt>
      <trkpt lat="49.22389" lon="-0.06852">
        <ele>17.4</ele>
        <time>2024-09-22T09:37:21Z</time>
      </trkpt>
      <trkpt lat="49.22396" lon="-0.06852">
        <ele>17.6</ele>
        <time>2024-09-22T09:37:22Z</time>
      </trkpt>
      <trkpt lat="49.22403" lon="-0.06852">
        <ele>17.6</ele>
        <time>2024-09-22T09:37:23Z</time>
      </trkpt>
      <trkpt lat="49.2241" lon="-0.06853">
        <ele>17.8</ele>
        <time>2024-09-22T09:37:24Z</time>
      </trkpt>
      <trkpt lat="49.22416" lon="-0.06853">
        <ele>17.8</ele>
        <time>2024-09-22T09:37:25Z</time>
      </trkpt>
      <trkpt lat="49.22421" lon="-0.06853">
        <ele>18</ele>
        <time>2024-09-22T09:37:26Z</time>
      </trkpt>
      <trkpt lat="49.22426" lon="-0.06853">
        <ele>18.2</ele>
        <time>2024-09-22T09:37:27Z</time>
      </trkpt>
      <trkpt lat="49.22431" lon="-0.06853">
        <ele>18.6</ele>
        <time>2024-09-22T09:37:28Z</time>
      </trkpt>
      <trkpt lat="49.22435" lon="-0.06853">
        <ele>18.8</ele>
        <time>2024-09-22T09:37:29Z</time>
      </trkpt>
      <trkpt lat="49.22438" lon="-0.06852">
        <ele>18.8</ele>
        <time>2024-09-22T09:37:30Z</time>
      </trkpt>
      <trkpt lat="49.22441" lon="-0.06852">
        <ele>19</ele>
        <time>2024-09-22T09:37:31Z</time>
      </trkpt>
      <trkpt lat="49.22443" lon="-0.06852">
        <ele>19.4</ele>
        <time>2024-09-22T09:37:32Z</time>
      </trkpt>
      <trkpt lat="49.22444" lon="-0.06851">
        <ele>19.6</ele>
        <time>2024-09-22T09:37:33Z</time>
      </trkpt>
      <trkpt lat="49.22444" lon="-0.06851">
        <ele>19.8</ele>
        <time>2024-09-22T09:37:34Z</time>
      </trkpt>
      <trkpt lat="49.22444" lon="-0.06851">
        <ele>20.2</ele>
        <time>2024-09-22T09:37:35Z</time>
      </trkpt>
      <trkpt lat="49.22448" lon="-0.0685">
        <ele>20.8</ele>
        <time>2024-09-22T09:37:38Z</time>
      </trkpt>
      <trkpt lat="49.2245" lon="-0.06851">
        <ele>21</ele>
        <time>2024-09-22T09:37:39Z</time>
      </trkpt>
      <trkpt lat="49.22451" lon="-0.06851">
        <ele>21.2</ele>
        <time>2024-09-22T09:37:40Z</time>
      </trkpt>
      <trkpt lat="49.22453" lon="-0.06851">
        <ele>21.6</ele>
        <time>2024-09-22T09:37:41Z</time>
      </trkpt>
      <trkpt lat="49.22455" lon="-0.06852">
        <ele>21.8</ele>
        <time>2024-09-22T09:37:42Z</time>
      </trkpt>
      <trkpt lat="49.22457" lon="-0.06853">
        <ele>21.8</ele>
        <time>2024-09-22T09:37:43Z</time>
      </trkpt>
      <trkpt lat="49.2246" lon="-0.06853">
        <ele>22</ele>
        <time>2024-09-22T09:37:44Z</time>
      </trkpt>
      <trkpt lat="49.22461" lon="-0.06855">
        <ele>22</ele>
        <time>2024-09-22T09:37:45Z</time>
      </trkpt>
      <trkpt lat="49.22463" lon="-0.06857">
        <ele>22</ele>
        <time>2024-09-22T09:37:46Z</time>
      </trkpt>
      <trkpt lat="49.22465" lon="-0.06858">
        <ele>22</ele>
        <time>2024-09-22T09:37:47Z</time>
      </trkpt>
      <trkpt lat="49.22466" lon="-0.06859">
        <ele>22</ele>
        <time>2024-09-22T09:37:48Z</time>
      </trkpt>
      <trkpt lat="49.22467" lon="-0.06859">
        <ele>22</ele>
        <time>2024-09-22T09:37:49Z</time>
      </trkpt>
      <trkpt lat="49.22467" lon="-0.06859">
        <ele>22</ele>
        <time>2024-09-22T09:37:50Z</time>
      </trkpt>
      <trkpt lat="49.22472" lon="-0.06858">
        <ele>21.8</ele>
        <time>2024-09-22T09:37:57Z</time>
      </trkpt>
      <trkpt lat="49.22473" lon="-0.06858">
        <ele>21.8</ele>
        <time>2024-09-22T09:37:58Z</time>
      </trkpt>
      <trkpt lat="49.22475" lon="-0.06858">
        <ele>21.8</ele>
        <time>2024-09-22T09:37:59Z</time>
      </trkpt>
      <trkpt lat="49.22477" lon="-0.06857">
        <ele>21.8</ele>
        <time>2024-09-22T09:38:00Z</time>
      </trkpt>
      <trkpt lat="49.22478" lon="-0.06857">
        <ele>21.8</ele>
        <time>2024-09-22T09:38:01Z</time>
      </trkpt>
      <trkpt lat="49.22479" lon="-0.06857">
        <ele>21.8</ele>
        <time>2024-09-22T09:38:02Z</time>
      </trkpt>
      <trkpt lat="49.22481" lon="-0.06857">
        <ele>21.8</ele>
        <time>2024-09-22T09:38:03Z</time>
      </trkpt>
      <trkpt lat="49.22482" lon="-0.06858">
        <ele>21.8</ele>
        <time>2024-09-22T09:38:04Z</time>
      </trkpt>
      <trkpt lat="49.22484" lon="-0.06857">
        <ele>21.8</ele>
        <time>2024-09-22T09:38:05Z</time>
      </trkpt>
      <trkpt lat="49.22484" lon="-0.06857">
        <ele>21.8</ele>
        <time>2024-09-22T09:38:06Z</time>
      </trkpt>
      <trkpt lat="49.22484" lon="-0.06857">
        <ele>21.8</ele>
        <time>2024-09-22T09:38:07Z</time>
      </trkpt>
      <trkpt lat="49.22485" lon="-0.06858">
        <ele>21.8</ele>
        <time>2024-09-22T09:38:08Z</time>
      </trkpt>
      <trkpt lat="49.22489" lon="-0.0686">
        <ele>21.8</ele>
        <time>2024-09-22T09:38:11Z</time>
      </trkpt>
      <trkpt lat="49.22492" lon="-0.06861">
        <ele>21.8</ele>
        <time>2024-09-22T09:38:12Z</time>
      </trkpt>
      <trkpt lat="49.22494" lon="-0.06862">
        <ele>21.8</ele>
        <time>2024-09-22T09:38:13Z</time>
      </trkpt>
      <trkpt lat="49.22497" lon="-0.06862">
        <ele>21.8</ele>
        <time>2024-09-22T09:38:14Z</time>
      </trkpt>
      <trkpt lat="49.225" lon="-0.06863">
        <ele>21.8</ele>
        <time>2024-09-22T09:38:15Z</time>
      </trkpt>
      <trkpt lat="49.22504" lon="-0.06865">
        <ele>21.8</ele>
        <time>2024-09-22T09:38:16Z</time>
      </trkpt>
      <trkpt lat="49.22508" lon="-0.06866">
        <ele>21.8</ele>
        <time>2024-09-22T09:38:17Z</time>
      </trkpt>
      <trkpt lat="49.22513" lon="-0.06868">
        <ele>21.8</ele>
        <time>2024-09-22T09:38:18Z</time>
      </trkpt>
      <trkpt lat="49.22517" lon="-0.06869">
        <ele>21.8</ele>
        <time>2024-09-22T09:38:19Z</time>
      </trkpt>
      <trkpt lat="49.22521" lon="-0.0687">
        <ele>21.8</ele>
        <time>2024-09-22T09:38:20Z</time>
      </trkpt>
      <trkpt lat="49.22525" lon="-0.06871">
        <ele>21.8</ele>
        <time>2024-09-22T09:38:21Z</time>
      </trkpt>
      <trkpt lat="49.22529" lon="-0.06872">
        <ele>21.8</ele>
        <time>2024-09-22T09:38:22Z</time>
      </trkpt>
      <trkpt lat="49.22533" lon="-0.06873">
        <ele>21.8</ele>
        <time>2024-09-22T09:38:23Z</time>
      </trkpt>
      <trkpt lat="49.22537" lon="-0.06874">
        <ele>21.8</ele>
        <time>2024-09-22T09:38:24Z</time>
      </trkpt>
      <trkpt lat="49.22542" lon="-0.06874">
        <ele>21.8</ele>
        <time>2024-09-22T09:38:25Z</time>
      </trkpt>
      <trkpt lat="49.22546" lon="-0.06875">
        <ele>21.8</ele>
        <time>2024-09-22T09:38:26Z</time>
      </trkpt>
      <trkpt lat="49.2255" lon="-0.06876">
        <ele>21.8</ele>
        <time>2024-09-22T09:38:27Z</time>
      </trkpt>
      <trkpt lat="49.22555" lon="-0.06877">
        <ele>21.8</ele>
        <time>2024-09-22T09:38:28Z</time>
      </trkpt>
      <trkpt lat="49.2256" lon="-0.06878">
        <ele>21.8</ele>
        <time>2024-09-22T09:38:29Z</time>
      </trkpt>
      <trkpt lat="49.22564" lon="-0.0688">
        <ele>22</ele>
        <time>2024-09-22T09:38:30Z</time>
      </trkpt>
      <trkpt lat="49.22568" lon="-0.06881">
        <ele>22</ele>
        <time>2024-09-22T09:38:31Z</time>
      </trkpt>
      <trkpt lat="49.22573" lon="-0.06882">
        <ele>22.2</ele>
        <time>2024-09-22T09:38:32Z</time>
      </trkpt>
      <trkpt lat="49.22577" lon="-0.06884">
        <ele>22.2</ele>
        <time>2024-09-22T09:38:33Z</time>
      </trkpt>
      <trkpt lat="49.22581" lon="-0.06884">
        <ele>22.2</ele>
        <time>2024-09-22T09:38:34Z</time>
      </trkpt>
      <trkpt lat="49.22587" lon="-0.06886">
        <ele>22.2</ele>
        <time>2024-09-22T09:38:35Z</time>
      </trkpt>
      <trkpt lat="49.22592" lon="-0.06887">
        <ele>22.4</ele>
        <time>2024-09-22T09:38:36Z</time>
      </trkpt>
      <trkpt lat="49.22597" lon="-0.06888">
        <ele>22.4</ele>
        <time>2024-09-22T09:38:37Z</time>
      </trkpt>
      <trkpt lat="49.22601" lon="-0.06888">
        <ele>22.6</ele>
        <time>2024-09-22T09:38:38Z</time>
      </trkpt>
      <trkpt lat="49.22606" lon="-0.06888">
        <ele>22.8</ele>
        <time>2024-09-22T09:38:39Z</time>
      </trkpt>
      <trkpt lat="49.22611" lon="-0.06889">
        <ele>23</ele>
        <time>2024-09-22T09:38:40Z</time>
      </trkpt>
      <trkpt lat="49.22616" lon="-0.0689">
        <ele>23</ele>
        <time>2024-09-22T09:38:41Z</time>
      </trkpt>
      <trkpt lat="49.22622" lon="-0.06891">
        <ele>23.2</ele>
        <time>2024-09-22T09:38:42Z</time>
      </trkpt>
      <trkpt lat="49.22626" lon="-0.06892">
        <ele>23.4</ele>
        <time>2024-09-22T09:38:43Z</time>
      </trkpt>
      <trkpt lat="49.22631" lon="-0.06893">
        <ele>23.6</ele>
        <time>2024-09-22T09:38:44Z</time>
      </trkpt>
      <trkpt lat="49.22636" lon="-0.06895">
        <ele>23.8</ele>
        <time>2024-09-22T09:38:45Z</time>
      </trkpt>
      <trkpt lat="49.22641" lon="-0.06896">
        <ele>24</ele>
        <time>2024-09-22T09:38:46Z</time>
      </trkpt>
      <trkpt lat="49.22646" lon="-0.06897">
        <ele>24</ele>
        <time>2024-09-22T09:38:47Z</time>
      </trkpt>
      <trkpt lat="49.22651" lon="-0.06898">
        <ele>24.2</ele>
        <time>2024-09-22T09:38:48Z</time>
      </trkpt>
      <trkpt lat="49.22656" lon="-0.06899">
        <ele>24.4</ele>
        <time>2024-09-22T09:38:49Z</time>
      </trkpt>
      <trkpt lat="49.22661" lon="-0.06899">
        <ele>24.4</ele>
        <time>2024-09-22T09:38:50Z</time>
      </trkpt>
      <trkpt lat="49.22664" lon="-0.069">
        <ele>24.4</ele>
        <time>2024-09-22T09:38:51Z</time>
      </trkpt>
      <trkpt lat="49.2267" lon="-0.069">
        <ele>24.6</ele>
        <time>2024-09-22T09:38:52Z</time>
      </trkpt>
      <trkpt lat="49.22675" lon="-0.06901">
        <ele>24.6</ele>
        <time>2024-09-22T09:38:53Z</time>
      </trkpt>
      <trkpt lat="49.22681" lon="-0.06903">
        <ele>24.6</ele>
        <time>2024-09-22T09:38:54Z</time>
      </trkpt>
      <trkpt lat="49.22687" lon="-0.06904">
        <ele>24.8</ele>
        <time>2024-09-22T09:38:55Z</time>
      </trkpt>
      <trkpt lat="49.22692" lon="-0.06905">
        <ele>25.2</ele>
        <time>2024-09-22T09:38:56Z</time>
      </trkpt>
      <trkpt lat="49.22697" lon="-0.06906">
        <ele>25.6</ele>
        <time>2024-09-22T09:38:57Z</time>
      </trkpt>
      <trkpt lat="49.22702" lon="-0.06907">
        <ele>25.8</ele>
        <time>2024-09-22T09:38:58Z</time>
      </trkpt>
      <trkpt lat="49.22706" lon="-0.06908">
        <ele>26</ele>
        <time>2024-09-22T09:38:59Z</time>
      </trkpt>
      <trkpt lat="49.22711" lon="-0.06909">
        <ele>26.2</ele>
        <time>2024-09-22T09:39:00Z</time>
      </trkpt>
      <trkpt lat="49.22717" lon="-0.0691">
        <ele>26.2</ele>
        <time>2024-09-22T09:39:01Z</time>
      </trkpt>
      <trkpt lat="49.22723" lon="-0.06912">
        <ele>26.4</ele>
        <time>2024-09-22T09:39:02Z</time>
      </trkpt>
      <trkpt lat="49.22729" lon="-0.06913">
        <ele>26.4</ele>
        <time>2024-09-22T09:39:03Z</time>
      </trkpt>
      <trkpt lat="49.22735" lon="-0.06914">
        <ele>26.4</ele>
        <time>2024-09-22T09:39:04Z</time>
      </trkpt>
      <trkpt lat="49.22742" lon="-0.06916">
        <ele>26.8</ele>
        <time>2024-09-22T09:39:05Z</time>
      </trkpt>
      <trkpt lat="49.22748" lon="-0.06918">
        <ele>27</ele>
        <time>2024-09-22T09:39:06Z</time>
      </trkpt>
      <trkpt lat="49.22755" lon="-0.06919">
        <ele>27</ele>
        <time>2024-09-22T09:39:07Z</time>
      </trkpt>
      <trkpt lat="49.2276" lon="-0.0692">
        <ele>27</ele>
        <time>2024-09-22T09:39:08Z</time>
      </trkpt>
      <trkpt lat="49.22767" lon="-0.06922">
        <ele>27.2</ele>
        <time>2024-09-22T09:39:09Z</time>
      </trkpt>
      <trkpt lat="49.22774" lon="-0.06924">
        <ele>27.2</ele>
        <time>2024-09-22T09:39:10Z</time>
      </trkpt>
      <trkpt lat="49.22781" lon="-0.06925">
        <ele>27.2</ele>
        <time>2024-09-22T09:39:11Z</time>
      </trkpt>
      <trkpt lat="49.22787" lon="-0.06927">
        <ele>27.2</ele>
        <time>2024-09-22T09:39:12Z</time>
      </trkpt>
      <trkpt lat="49.22794" lon="-0.06929">
        <ele>27.2</ele>
        <time>2024-09-22T09:39:13Z</time>
      </trkpt>
      <trkpt lat="49.22801" lon="-0.06931">
        <ele>27.2</ele>
        <time>2024-09-22T09:39:14Z</time>
      </trkpt>
      <trkpt lat="49.22809" lon="-0.06933">
        <ele>27.2</ele>
        <time>2024-09-22T09:39:15Z</time>
      </trkpt>
      <trkpt lat="49.22816" lon="-0.06934">
        <ele>27.2</ele>
        <time>2024-09-22T09:39:16Z</time>
      </trkpt>
      <trkpt lat="49.22822" lon="-0.06936">
        <ele>27.2</ele>
        <time>2024-09-22T09:39:17Z</time>
      </trkpt>
      <trkpt lat="49.22829" lon="-0.06937">
        <ele>27</ele>
        <time>2024-09-22T09:39:18Z</time>
      </trkpt>
      <trkpt lat="49.22836" lon="-0.06938">
        <ele>27</ele>
        <time>2024-09-22T09:39:19Z</time>
      </trkpt>
      <trkpt lat="49.22843" lon="-0.06939">
        <ele>27</ele>
        <time>2024-09-22T09:39:20Z</time>
      </trkpt>
      <trkpt lat="49.22849" lon="-0.0694">
        <ele>26.8</ele>
        <time>2024-09-22T09:39:21Z</time>
      </trkpt>
      <trkpt lat="49.22859" lon="-0.06941">
        <ele>26.8</ele>
        <time>2024-09-22T09:39:22Z</time>
      </trkpt>
      <trkpt lat="49.22867" lon="-0.06941">
        <ele>26.6</ele>
        <time>2024-09-22T09:39:23Z</time>
      </trkpt>
      <trkpt lat="49.22875" lon="-0.0694">
        <ele>26.4</ele>
        <time>2024-09-22T09:39:24Z</time>
      </trkpt>
      <trkpt lat="49.22883" lon="-0.06937">
        <ele>26.4</ele>
        <time>2024-09-22T09:39:25Z</time>
      </trkpt>
      <trkpt lat="49.2289" lon="-0.06933">
        <ele>26</ele>
        <time>2024-09-22T09:39:26Z</time>
      </trkpt>
      <trkpt lat="49.22897" lon="-0.06927">
        <ele>25.8</ele>
        <time>2024-09-22T09:39:27Z</time>
      </trkpt>
      <trkpt lat="49.22905" lon="-0.0692">
        <ele>25.6</ele>
        <time>2024-09-22T09:39:28Z</time>
      </trkpt>
      <trkpt lat="49.22911" lon="-0.06912">
        <ele>25.2</ele>
        <time>2024-09-22T09:39:29Z</time>
      </trkpt>
      <trkpt lat="49.22916" lon="-0.06901">
        <ele>25.2</ele>
        <time>2024-09-22T09:39:30Z</time>
      </trkpt>
      <trkpt lat="49.22921" lon="-0.0689">
        <ele>24.8</ele>
        <time>2024-09-22T09:39:31Z</time>
      </trkpt>
      <trkpt lat="49.22925" lon="-0.06878">
        <ele>24.4</ele>
        <time>2024-09-22T09:39:32Z</time>
      </trkpt>
      <trkpt lat="49.22928" lon="-0.06866">
        <ele>24.2</ele>
        <time>2024-09-22T09:39:33Z</time>
      </trkpt>
      <trkpt lat="49.22932" lon="-0.06854">
        <ele>24</ele>
        <time>2024-09-22T09:39:34Z</time>
      </trkpt>
      <trkpt lat="49.22934" lon="-0.06844">
        <ele>23.6</ele>
        <time>2024-09-22T09:39:35Z</time>
      </trkpt>
      <trkpt lat="49.22939" lon="-0.0683">
        <ele>23.6</ele>
        <time>2024-09-22T09:39:36Z</time>
      </trkpt>
      <trkpt lat="49.22943" lon="-0.06818">
        <ele>23.2</ele>
        <time>2024-09-22T09:39:37Z</time>
      </trkpt>
      <trkpt lat="49.22947" lon="-0.06807">
        <ele>22.8</ele>
        <time>2024-09-22T09:39:38Z</time>
      </trkpt>
      <trkpt lat="49.22952" lon="-0.06797">
        <ele>22.4</ele>
        <time>2024-09-22T09:39:39Z</time>
      </trkpt>
      <trkpt lat="49.22958" lon="-0.06787">
        <ele>22</ele>
        <time>2024-09-22T09:39:40Z</time>
      </trkpt>
      <trkpt lat="49.22965" lon="-0.06779">
        <ele>21.4</ele>
        <time>2024-09-22T09:39:41Z</time>
      </trkpt>
      <trkpt lat="49.22973" lon="-0.06771">
        <ele>21</ele>
        <time>2024-09-22T09:39:42Z</time>
      </trkpt>
      <trkpt lat="49.2298" lon="-0.06764">
        <ele>20.8</ele>
        <time>2024-09-22T09:39:43Z</time>
      </trkpt>
      <trkpt lat="49.22989" lon="-0.06758">
        <ele>20.6</ele>
        <time>2024-09-22T09:39:44Z</time>
      </trkpt>
      <trkpt lat="49.22998" lon="-0.06753">
        <ele>20.4</ele>
        <time>2024-09-22T09:39:45Z</time>
      </trkpt>
      <trkpt lat="49.23007" lon="-0.0675">
        <ele>20.2</ele>
        <time>2024-09-22T09:39:46Z</time>
      </trkpt>
      <trkpt lat="49.23017" lon="-0.06748">
        <ele>20</ele>
        <time>2024-09-22T09:39:47Z</time>
      </trkpt>
      <trkpt lat="49.23026" lon="-0.06749">
        <ele>19.8</ele>
        <time>2024-09-22T09:39:48Z</time>
      </trkpt>
      <trkpt lat="49.23036" lon="-0.06751">
        <ele>19.8</ele>
        <time>2024-09-22T09:39:49Z</time>
      </trkpt>
      <trkpt lat="49.23045" lon="-0.06754">
        <ele>19.4</ele>
        <time>2024-09-22T09:39:50Z</time>
      </trkpt>
      <trkpt lat="49.23054" lon="-0.06758">
        <ele>19.2</ele>
        <time>2024-09-22T09:39:51Z</time>
      </trkpt>
      <trkpt lat="49.23064" lon="-0.06763">
        <ele>19</ele>
        <time>2024-09-22T09:39:52Z</time>
      </trkpt>
      <trkpt lat="49.23072" lon="-0.06768">
        <ele>18.6</ele>
        <time>2024-09-22T09:39:53Z</time>
      </trkpt>
      <trkpt lat="49.23081" lon="-0.06772">
        <ele>18.4</ele>
        <time>2024-09-22T09:39:54Z</time>
      </trkpt>
      <trkpt lat="49.23091" lon="-0.06777">
        <ele>18.2</ele>
        <time>2024-09-22T09:39:55Z</time>
      </trkpt>
      <trkpt lat="49.231" lon="-0.06783">
        <ele>18.2</ele>
        <time>2024-09-22T09:39:56Z</time>
      </trkpt>
      <trkpt lat="49.23109" lon="-0.06787">
        <ele>18.2</ele>
        <time>2024-09-22T09:39:57Z</time>
      </trkpt>
      <trkpt lat="49.23118" lon="-0.06792">
        <ele>18</ele>
        <time>2024-09-22T09:39:58Z</time>
      </trkpt>
      <trkpt lat="49.23128" lon="-0.06797">
        <ele>17.6</ele>
        <time>2024-09-22T09:39:59Z</time>
      </trkpt>
      <trkpt lat="49.23139" lon="-0.06803">
        <ele>17.4</ele>
        <time>2024-09-22T09:40:00Z</time>
      </trkpt>
      <trkpt lat="49.2315" lon="-0.0681">
        <ele>16.8</ele>
        <time>2024-09-22T09:40:01Z</time>
      </trkpt>
      <trkpt lat="49.23161" lon="-0.06816">
        <ele>16.4</ele>
        <time>2024-09-22T09:40:02Z</time>
      </trkpt>
      <trkpt lat="49.23172" lon="-0.06823">
        <ele>15.6</ele>
        <time>2024-09-22T09:40:03Z</time>
      </trkpt>
      <trkpt lat="49.23181" lon="-0.06823">
        <ele>15.2</ele>
        <time>2024-09-22T09:40:04Z</time>
      </trkpt>
      <trkpt lat="49.23188" lon="-0.06826">
        <ele>15</ele>
        <time>2024-09-22T09:40:05Z</time>
      </trkpt>
      <trkpt lat="49.23193" lon="-0.06826">
        <ele>14.6</ele>
        <time>2024-09-22T09:40:06Z</time>
      </trkpt>
      <trkpt lat="49.23197" lon="-0.06828">
        <ele>14.6</ele>
        <time>2024-09-22T09:40:07Z</time>
      </trkpt>
      <trkpt lat="49.23206" lon="-0.06833">
        <ele>14.4</ele>
        <time>2024-09-22T09:40:08Z</time>
      </trkpt>
      <trkpt lat="49.23214" lon="-0.06838">
        <ele>14.4</ele>
        <time>2024-09-22T09:40:09Z</time>
      </trkpt>
      <trkpt lat="49.23223" lon="-0.06841">
        <ele>14.4</ele>
        <time>2024-09-22T09:40:10Z</time>
      </trkpt>
      <trkpt lat="49.23231" lon="-0.06845">
        <ele>14.4</ele>
        <time>2024-09-22T09:40:11Z</time>
      </trkpt>
      <trkpt lat="49.2324" lon="-0.06849">
        <ele>14.4</ele>
        <time>2024-09-22T09:40:12Z</time>
      </trkpt>
      <trkpt lat="49.2325" lon="-0.06855">
        <ele>14.4</ele>
        <time>2024-09-22T09:40:13Z</time>
      </trkpt>
      <trkpt lat="49.23258" lon="-0.06859">
        <ele>14.4</ele>
        <time>2024-09-22T09:40:14Z</time>
      </trkpt>
      <trkpt lat="49.23267" lon="-0.06863">
        <ele>14.4</ele>
        <time>2024-09-22T09:40:15Z</time>
      </trkpt>
      <trkpt lat="49.23275" lon="-0.06867">
        <ele>14.4</ele>
        <time>2024-09-22T09:40:16Z</time>
      </trkpt>
      <trkpt lat="49.23283" lon="-0.06872">
        <ele>14.4</ele>
        <time>2024-09-22T09:40:17Z</time>
      </trkpt>
      <trkpt lat="49.23292" lon="-0.06876">
        <ele>14.4</ele>
        <time>2024-09-22T09:40:18Z</time>
      </trkpt>
      <trkpt lat="49.23299" lon="-0.0688">
        <ele>14.4</ele>
        <time>2024-09-22T09:40:19Z</time>
      </trkpt>
      <trkpt lat="49.23309" lon="-0.06887">
        <ele>14.4</ele>
        <time>2024-09-22T09:40:20Z</time>
      </trkpt>
      <trkpt lat="49.23318" lon="-0.06892">
        <ele>14.4</ele>
        <time>2024-09-22T09:40:21Z</time>
      </trkpt>
      <trkpt lat="49.23327" lon="-0.06897">
        <ele>14.4</ele>
        <time>2024-09-22T09:40:22Z</time>
      </trkpt>
      <trkpt lat="49.23335" lon="-0.06902">
        <ele>14.4</ele>
        <time>2024-09-22T09:40:23Z</time>
      </trkpt>
      <trkpt lat="49.23344" lon="-0.06906">
        <ele>14.2</ele>
        <time>2024-09-22T09:40:24Z</time>
      </trkpt>
      <trkpt lat="49.23353" lon="-0.06911">
        <ele>14.2</ele>
        <time>2024-09-22T09:40:25Z</time>
      </trkpt>
      <trkpt lat="49.2336" lon="-0.06915">
        <ele>14.2</ele>
        <time>2024-09-22T09:40:26Z</time>
      </trkpt>
      <trkpt lat="49.2337" lon="-0.06921">
        <ele>14.2</ele>
        <time>2024-09-22T09:40:27Z</time>
      </trkpt>
      <trkpt lat="49.23379" lon="-0.06925">
        <ele>14.2</ele>
        <time>2024-09-22T09:40:28Z</time>
      </trkpt>
      <trkpt lat="49.23387" lon="-0.0693">
        <ele>14.2</ele>
        <time>2024-09-22T09:40:29Z</time>
      </trkpt>
      <trkpt lat="49.23396" lon="-0.06935">
        <ele>14</ele>
        <time>2024-09-22T09:40:30Z</time>
      </trkpt>
      <trkpt lat="49.23404" lon="-0.0694">
        <ele>13.8</ele>
        <time>2024-09-22T09:40:31Z</time>
      </trkpt>
      <trkpt lat="49.23413" lon="-0.06944">
        <ele>13.6</ele>
        <time>2024-09-22T09:40:32Z</time>
      </trkpt>
      <trkpt lat="49.23421" lon="-0.06949">
        <ele>13.4</ele>
        <time>2024-09-22T09:40:33Z</time>
      </trkpt>
      <trkpt lat="49.2343" lon="-0.06954">
        <ele>13</ele>
        <time>2024-09-22T09:40:34Z</time>
      </trkpt>
      <trkpt lat="49.23438" lon="-0.06959">
        <ele>12.8</ele>
        <time>2024-09-22T09:40:35Z</time>
      </trkpt>
      <trkpt lat="49.23447" lon="-0.06963">
        <ele>12.4</ele>
        <time>2024-09-22T09:40:36Z</time>
      </trkpt>
      <trkpt lat="49.23456" lon="-0.06968">
        <ele>12.2</ele>
        <time>2024-09-22T09:40:37Z</time>
      </trkpt>
      <trkpt lat="49.23464" lon="-0.06973">
        <ele>12</ele>
        <time>2024-09-22T09:40:38Z</time>
      </trkpt>
      <trkpt lat="49.23473" lon="-0.06978">
        <ele>12</ele>
        <time>2024-09-22T09:40:39Z</time>
      </trkpt>
      <trkpt lat="49.23481" lon="-0.06983">
        <ele>11.8</ele>
        <time>2024-09-22T09:40:40Z</time>
      </trkpt>
      <trkpt lat="49.23489" lon="-0.06988">
        <ele>11.6</ele>
        <time>2024-09-22T09:40:41Z</time>
      </trkpt>
      <trkpt lat="49.23497" lon="-0.06993">
        <ele>11.6</ele>
        <time>2024-09-22T09:40:42Z</time>
      </trkpt>
      <trkpt lat="49.23505" lon="-0.06997">
        <ele>11.6</ele>
        <time>2024-09-22T09:40:43Z</time>
      </trkpt>
      <trkpt lat="49.23512" lon="-0.07003">
        <ele>11.4</ele>
        <time>2024-09-22T09:40:44Z</time>
      </trkpt>
      <trkpt lat="49.2352" lon="-0.07008">
        <ele>11.4</ele>
        <time>2024-09-22T09:40:45Z</time>
      </trkpt>
      <trkpt lat="49.23527" lon="-0.07013">
        <ele>11.2</ele>
        <time>2024-09-22T09:40:46Z</time>
      </trkpt>
      <trkpt lat="49.23533" lon="-0.07016">
        <ele>11.2</ele>
        <time>2024-09-22T09:40:47Z</time>
      </trkpt>
      <trkpt lat="49.2354" lon="-0.0702">
        <ele>11.2</ele>
        <time>2024-09-22T09:40:48Z</time>
      </trkpt>
      <trkpt lat="49.23548" lon="-0.07025">
        <ele>11</ele>
        <time>2024-09-22T09:40:49Z</time>
      </trkpt>
      <trkpt lat="49.23555" lon="-0.0703">
        <ele>11</ele>
        <time>2024-09-22T09:40:50Z</time>
      </trkpt>
      <trkpt lat="49.23563" lon="-0.07035">
        <ele>11</ele>
        <time>2024-09-22T09:40:51Z</time>
      </trkpt>
      <trkpt lat="49.2357" lon="-0.0704">
        <ele>11</ele>
        <time>2024-09-22T09:40:52Z</time>
      </trkpt>
      <trkpt lat="49.23577" lon="-0.07045">
        <ele>11</ele>
        <time>2024-09-22T09:40:53Z</time>
      </trkpt>
      <trkpt lat="49.23585" lon="-0.0705">
        <ele>11</ele>
        <time>2024-09-22T09:40:54Z</time>
      </trkpt>
      <trkpt lat="49.23592" lon="-0.07055">
        <ele>11</ele>
        <time>2024-09-22T09:40:55Z</time>
      </trkpt>
      <trkpt lat="49.236" lon="-0.0706">
        <ele>11</ele>
        <time>2024-09-22T09:40:56Z</time>
      </trkpt>
      <trkpt lat="49.23607" lon="-0.07064">
        <ele>11</ele>
        <time>2024-09-22T09:40:57Z</time>
      </trkpt>
      <trkpt lat="49.23615" lon="-0.0707">
        <ele>11</ele>
        <time>2024-09-22T09:40:58Z</time>
      </trkpt>
      <trkpt lat="49.23622" lon="-0.07075">
        <ele>11</ele>
        <time>2024-09-22T09:40:59Z</time>
      </trkpt>
      <trkpt lat="49.23629" lon="-0.07081">
        <ele>11</ele>
        <time>2024-09-22T09:41:00Z</time>
      </trkpt>
      <trkpt lat="49.23636" lon="-0.07088">
        <ele>11</ele>
        <time>2024-09-22T09:41:01Z</time>
      </trkpt>
      <trkpt lat="49.23642" lon="-0.07095">
        <ele>11</ele>
        <time>2024-09-22T09:41:02Z</time>
      </trkpt>
      <trkpt lat="49.23648" lon="-0.07103">
        <ele>11</ele>
        <time>2024-09-22T09:41:03Z</time>
      </trkpt>
      <trkpt lat="49.23654" lon="-0.07112">
        <ele>11</ele>
        <time>2024-09-22T09:41:04Z</time>
      </trkpt>
      <trkpt lat="49.2366" lon="-0.0712">
        <ele>11</ele>
        <time>2024-09-22T09:41:05Z</time>
      </trkpt>
      <trkpt lat="49.23666" lon="-0.07129">
        <ele>11.2</ele>
        <time>2024-09-22T09:41:06Z</time>
      </trkpt>
      <trkpt lat="49.23671" lon="-0.07137">
        <ele>11.2</ele>
        <time>2024-09-22T09:41:07Z</time>
      </trkpt>
      <trkpt lat="49.23676" lon="-0.07146">
        <ele>11.2</ele>
        <time>2024-09-22T09:41:08Z</time>
      </trkpt>
      <trkpt lat="49.23681" lon="-0.07155">
        <ele>11.2</ele>
        <time>2024-09-22T09:41:09Z</time>
      </trkpt>
      <trkpt lat="49.23685" lon="-0.07165">
        <ele>11.2</ele>
        <time>2024-09-22T09:41:10Z</time>
      </trkpt>
      <trkpt lat="49.23688" lon="-0.07175">
        <ele>11.2</ele>
        <time>2024-09-22T09:41:11Z</time>
      </trkpt>
      <trkpt lat="49.23691" lon="-0.07186">
        <ele>11.2</ele>
        <time>2024-09-22T09:41:12Z</time>
      </trkpt>
      <trkpt lat="49.23693" lon="-0.07197">
        <ele>11.2</ele>
        <time>2024-09-22T09:41:13Z</time>
      </trkpt>
      <trkpt lat="49.23695" lon="-0.07208">
        <ele>11.4</ele>
        <time>2024-09-22T09:41:14Z</time>
      </trkpt>
      <trkpt lat="49.23696" lon="-0.07219">
        <ele>11.4</ele>
        <time>2024-09-22T09:41:15Z</time>
      </trkpt>
      <trkpt lat="49.23698" lon="-0.07231">
        <ele>11.4</ele>
        <time>2024-09-22T09:41:16Z</time>
      </trkpt>
      <trkpt lat="49.23699" lon="-0.07243">
        <ele>11.4</ele>
        <time>2024-09-22T09:41:17Z</time>
      </trkpt>
      <trkpt lat="49.237" lon="-0.07255">
        <ele>11.4</ele>
        <time>2024-09-22T09:41:18Z</time>
      </trkpt>
      <trkpt lat="49.23701" lon="-0.07264">
        <ele>11.4</ele>
        <time>2024-09-22T09:41:19Z</time>
      </trkpt>
      <trkpt lat="49.23703" lon="-0.07278">
        <ele>11.4</ele>
        <time>2024-09-22T09:41:20Z</time>
      </trkpt>
      <trkpt lat="49.23704" lon="-0.07289">
        <ele>11.4</ele>
        <time>2024-09-22T09:41:21Z</time>
      </trkpt>
      <trkpt lat="49.23706" lon="-0.07301">
        <ele>11.4</ele>
        <time>2024-09-22T09:41:22Z</time>
      </trkpt>
      <trkpt lat="49.23708" lon="-0.07312">
        <ele>11.2</ele>
        <time>2024-09-22T09:41:23Z</time>
      </trkpt>
      <trkpt lat="49.2371" lon="-0.07324">
        <ele>11.2</ele>
        <time>2024-09-22T09:41:24Z</time>
      </trkpt>
      <trkpt lat="49.23712" lon="-0.07336">
        <ele>11.2</ele>
        <time>2024-09-22T09:41:25Z</time>
      </trkpt>
      <trkpt lat="49.23714" lon="-0.07347">
        <ele>11.2</ele>
        <time>2024-09-22T09:41:26Z</time>
      </trkpt>
      <trkpt lat="49.23716" lon="-0.07359">
        <ele>11</ele>
        <time>2024-09-22T09:41:27Z</time>
      </trkpt>
      <trkpt lat="49.23717" lon="-0.07368">
        <ele>11</ele>
        <time>2024-09-22T09:41:28Z</time>
      </trkpt>
      <trkpt lat="49.23718" lon="-0.07382">
        <ele>11</ele>
        <time>2024-09-22T09:41:29Z</time>
      </trkpt>
      <trkpt lat="49.23719" lon="-0.07394">
        <ele>11</ele>
        <time>2024-09-22T09:41:30Z</time>
      </trkpt>
      <trkpt lat="49.2372" lon="-0.07405">
        <ele>11</ele>
        <time>2024-09-22T09:41:31Z</time>
      </trkpt>
      <trkpt lat="49.23721" lon="-0.07417">
        <ele>10.8</ele>
        <time>2024-09-22T09:41:32Z</time>
      </trkpt>
      <trkpt lat="49.23722" lon="-0.07429">
        <ele>10.8</ele>
        <time>2024-09-22T09:41:33Z</time>
      </trkpt>
      <trkpt lat="49.23723" lon="-0.07441">
        <ele>10.8</ele>
        <time>2024-09-22T09:41:34Z</time>
      </trkpt>
      <trkpt lat="49.23723" lon="-0.07453">
        <ele>10.8</ele>
        <time>2024-09-22T09:41:35Z</time>
      </trkpt>
      <trkpt lat="49.23723" lon="-0.07465">
        <ele>10.8</ele>
        <time>2024-09-22T09:41:36Z</time>
      </trkpt>
      <trkpt lat="49.23722" lon="-0.07477">
        <ele>10.8</ele>
        <time>2024-09-22T09:41:37Z</time>
      </trkpt>
      <trkpt lat="49.23721" lon="-0.07489">
        <ele>10.8</ele>
        <time>2024-09-22T09:41:38Z</time>
      </trkpt>
      <trkpt lat="49.2372" lon="-0.07501">
        <ele>10.8</ele>
        <time>2024-09-22T09:41:39Z</time>
      </trkpt>
      <trkpt lat="49.23719" lon="-0.07513">
        <ele>10.8</ele>
        <time>2024-09-22T09:41:40Z</time>
      </trkpt>
      <trkpt lat="49.23718" lon="-0.07524">
        <ele>10.8</ele>
        <time>2024-09-22T09:41:41Z</time>
      </trkpt>
      <trkpt lat="49.23716" lon="-0.07536">
        <ele>10.8</ele>
        <time>2024-09-22T09:41:42Z</time>
      </trkpt>
      <trkpt lat="49.23716" lon="-0.07549">
        <ele>10.8</ele>
        <time>2024-09-22T09:41:43Z</time>
      </trkpt>
      <trkpt lat="49.23715" lon="-0.07561">
        <ele>10.8</ele>
        <time>2024-09-22T09:41:44Z</time>
      </trkpt>
      <trkpt lat="49.23716" lon="-0.07574">
        <ele>10.8</ele>
        <time>2024-09-22T09:41:45Z</time>
      </trkpt>
      <trkpt lat="49.23716" lon="-0.07587">
        <ele>10.8</ele>
        <time>2024-09-22T09:41:46Z</time>
      </trkpt>
      <trkpt lat="49.23716" lon="-0.07599">
        <ele>10.8</ele>
        <time>2024-09-22T09:41:47Z</time>
      </trkpt>
      <trkpt lat="49.23717" lon="-0.07613">
        <ele>10.8</ele>
        <time>2024-09-22T09:41:48Z</time>
      </trkpt>
      <trkpt lat="49.23716" lon="-0.07626">
        <ele>10.8</ele>
        <time>2024-09-22T09:41:49Z</time>
      </trkpt>
      <trkpt lat="49.23716" lon="-0.07639">
        <ele>10.8</ele>
        <time>2024-09-22T09:41:50Z</time>
      </trkpt>
      <trkpt lat="49.23715" lon="-0.07652">
        <ele>11</ele>
        <time>2024-09-22T09:41:51Z</time>
      </trkpt>
      <trkpt lat="49.23714" lon="-0.07665">
        <ele>11</ele>
        <time>2024-09-22T09:41:52Z</time>
      </trkpt>
      <trkpt lat="49.23713" lon="-0.07678">
        <ele>11</ele>
        <time>2024-09-22T09:41:53Z</time>
      </trkpt>
      <trkpt lat="49.23713" lon="-0.07691">
        <ele>11</ele>
        <time>2024-09-22T09:41:54Z</time>
      </trkpt>
      <trkpt lat="49.23713" lon="-0.07705">
        <ele>11.2</ele>
        <time>2024-09-22T09:41:55Z</time>
      </trkpt>
      <trkpt lat="49.23713" lon="-0.07718">
        <ele>11.2</ele>
        <time>2024-09-22T09:41:56Z</time>
      </trkpt>
      <trkpt lat="49.23714" lon="-0.07731">
        <ele>11.2</ele>
        <time>2024-09-22T09:41:57Z</time>
      </trkpt>
      <trkpt lat="49.23716" lon="-0.07744">
        <ele>11.2</ele>
        <time>2024-09-22T09:41:58Z</time>
      </trkpt>
      <trkpt lat="49.23719" lon="-0.07757">
        <ele>11.2</ele>
        <time>2024-09-22T09:41:59Z</time>
      </trkpt>
      <trkpt lat="49.23722" lon="-0.0777">
        <ele>11.2</ele>
        <time>2024-09-22T09:42:00Z</time>
      </trkpt>
      <trkpt lat="49.23726" lon="-0.07782">
        <ele>11.2</ele>
        <time>2024-09-22T09:42:01Z</time>
      </trkpt>
      <trkpt lat="49.23729" lon="-0.07793">
        <ele>11.2</ele>
        <time>2024-09-22T09:42:02Z</time>
      </trkpt>
      <trkpt lat="49.23733" lon="-0.07805">
        <ele>11.2</ele>
        <time>2024-09-22T09:42:03Z</time>
      </trkpt>
      <trkpt lat="49.23735" lon="-0.07818">
        <ele>11.2</ele>
        <time>2024-09-22T09:42:04Z</time>
      </trkpt>
      <trkpt lat="49.23737" lon="-0.07831">
        <ele>11.2</ele>
        <time>2024-09-22T09:42:05Z</time>
      </trkpt>
      <trkpt lat="49.23737" lon="-0.07844">
        <ele>11.2</ele>
        <time>2024-09-22T09:42:06Z</time>
      </trkpt>
      <trkpt lat="49.23737" lon="-0.07857">
        <ele>11.2</ele>
        <time>2024-09-22T09:42:07Z</time>
      </trkpt>
      <trkpt lat="49.23736" lon="-0.07871">
        <ele>11.2</ele>
        <time>2024-09-22T09:42:08Z</time>
      </trkpt>
      <trkpt lat="49.23735" lon="-0.07884">
        <ele>11</ele>
        <time>2024-09-22T09:42:09Z</time>
      </trkpt>
      <trkpt lat="49.23733" lon="-0.07898">
        <ele>11</ele>
        <time>2024-09-22T09:42:10Z</time>
      </trkpt>
      <trkpt lat="49.23731" lon="-0.07911">
        <ele>11</ele>
        <time>2024-09-22T09:42:11Z</time>
      </trkpt>
      <trkpt lat="49.23729" lon="-0.07925">
        <ele>10.8</ele>
        <time>2024-09-22T09:42:12Z</time>
      </trkpt>
      <trkpt lat="49.23727" lon="-0.07935">
        <ele>10.8</ele>
        <time>2024-09-22T09:42:13Z</time>
      </trkpt>
      <trkpt lat="49.23725" lon="-0.07951">
        <ele>10.6</ele>
        <time>2024-09-22T09:42:14Z</time>
      </trkpt>
      <trkpt lat="49.23723" lon="-0.07964">
        <ele>10.6</ele>
        <time>2024-09-22T09:42:15Z</time>
      </trkpt>
      <trkpt lat="49.23721" lon="-0.07977">
        <ele>10.6</ele>
        <time>2024-09-22T09:42:16Z</time>
      </trkpt>
      <trkpt lat="49.2372" lon="-0.0799">
        <ele>10.6</ele>
        <time>2024-09-22T09:42:17Z</time>
      </trkpt>
      <trkpt lat="49.23718" lon="-0.08003">
        <ele>10.6</ele>
        <time>2024-09-22T09:42:18Z</time>
      </trkpt>
      <trkpt lat="49.23717" lon="-0.08016">
        <ele>10.6</ele>
        <time>2024-09-22T09:42:19Z</time>
      </trkpt>
      <trkpt lat="49.23716" lon="-0.0803">
        <ele>10.6</ele>
        <time>2024-09-22T09:42:20Z</time>
      </trkpt>
      <trkpt lat="49.23716" lon="-0.08043">
        <ele>10.4</ele>
        <time>2024-09-22T09:42:21Z</time>
      </trkpt>
      <trkpt lat="49.23717" lon="-0.08056">
        <ele>10.4</ele>
        <time>2024-09-22T09:42:22Z</time>
      </trkpt>
      <trkpt lat="49.2372" lon="-0.08069">
        <ele>10.4</ele>
        <time>2024-09-22T09:42:23Z</time>
      </trkpt>
      <trkpt lat="49.23725" lon="-0.0808">
        <ele>10.4</ele>
        <time>2024-09-22T09:42:24Z</time>
      </trkpt>
      <trkpt lat="49.23731" lon="-0.0809">
        <ele>10.2</ele>
        <time>2024-09-22T09:42:25Z</time>
      </trkpt>
      <trkpt lat="49.23738" lon="-0.08098">
        <ele>10.4</ele>
        <time>2024-09-22T09:42:26Z</time>
      </trkpt>
      <trkpt lat="49.23745" lon="-0.08106">
        <ele>10.4</ele>
        <time>2024-09-22T09:42:27Z</time>
      </trkpt>
      <trkpt lat="49.23751" lon="-0.08112">
        <ele>10.4</ele>
        <time>2024-09-22T09:42:28Z</time>
      </trkpt>
      <trkpt lat="49.2376" lon="-0.0812">
        <ele>10.4</ele>
        <time>2024-09-22T09:42:29Z</time>
      </trkpt>
      <trkpt lat="49.23767" lon="-0.08127">
        <ele>10.4</ele>
        <time>2024-09-22T09:42:30Z</time>
      </trkpt>
      <trkpt lat="49.23774" lon="-0.08135">
        <ele>10.4</ele>
        <time>2024-09-22T09:42:31Z</time>
      </trkpt>
      <trkpt lat="49.23781" lon="-0.08142">
        <ele>10.4</ele>
        <time>2024-09-22T09:42:32Z</time>
      </trkpt>
      <trkpt lat="49.23788" lon="-0.0815">
        <ele>10.4</ele>
        <time>2024-09-22T09:42:33Z</time>
      </trkpt>
      <trkpt lat="49.23793" lon="-0.08157">
        <ele>10.6</ele>
        <time>2024-09-22T09:42:34Z</time>
      </trkpt>
      <trkpt lat="49.238" lon="-0.08164">
        <ele>10.6</ele>
        <time>2024-09-22T09:42:35Z</time>
      </trkpt>
      <trkpt lat="49.23807" lon="-0.08174">
        <ele>10.6</ele>
        <time>2024-09-22T09:42:36Z</time>
      </trkpt>
      <trkpt lat="49.23814" lon="-0.08182">
        <ele>10.6</ele>
        <time>2024-09-22T09:42:37Z</time>
      </trkpt>
      <trkpt lat="49.2382" lon="-0.0819">
        <ele>10.6</ele>
        <time>2024-09-22T09:42:38Z</time>
      </trkpt>
      <trkpt lat="49.23827" lon="-0.08198">
        <ele>10.8</ele>
        <time>2024-09-22T09:42:39Z</time>
      </trkpt>
      <trkpt lat="49.23833" lon="-0.08207">
        <ele>11</ele>
        <time>2024-09-22T09:42:40Z</time>
      </trkpt>
      <trkpt lat="49.23839" lon="-0.08215">
        <ele>11.2</ele>
        <time>2024-09-22T09:42:41Z</time>
      </trkpt>
      <trkpt lat="49.23846" lon="-0.08222">
        <ele>11.2</ele>
        <time>2024-09-22T09:42:42Z</time>
      </trkpt>
      <trkpt lat="49.23851" lon="-0.0823">
        <ele>11.2</ele>
        <time>2024-09-22T09:42:43Z</time>
      </trkpt>
      <trkpt lat="49.23857" lon="-0.08238">
        <ele>11.4</ele>
        <time>2024-09-22T09:42:44Z</time>
      </trkpt>
      <trkpt lat="49.23863" lon="-0.08246">
        <ele>11.4</ele>
        <time>2024-09-22T09:42:45Z</time>
      </trkpt>
      <trkpt lat="49.23868" lon="-0.08254">
        <ele>11.4</ele>
        <time>2024-09-22T09:42:46Z</time>
      </trkpt>
      <trkpt lat="49.23873" lon="-0.08263">
        <ele>11.4</ele>
        <time>2024-09-22T09:42:47Z</time>
      </trkpt>
      <trkpt lat="49.23877" lon="-0.08274">
        <ele>11.6</ele>
        <time>2024-09-22T09:42:48Z</time>
      </trkpt>
      <trkpt lat="49.23881" lon="-0.08286">
        <ele>11.6</ele>
        <time>2024-09-22T09:42:49Z</time>
      </trkpt>
      <trkpt lat="49.23883" lon="-0.08299">
        <ele>11.8</ele>
        <time>2024-09-22T09:42:50Z</time>
      </trkpt>
      <trkpt lat="49.23884" lon="-0.08313">
        <ele>12</ele>
        <time>2024-09-22T09:42:51Z</time>
      </trkpt>
      <trkpt lat="49.23885" lon="-0.08327">
        <ele>12</ele>
        <time>2024-09-22T09:42:52Z</time>
      </trkpt>
      <trkpt lat="49.23884" lon="-0.0834">
        <ele>12.2</ele>
        <time>2024-09-22T09:42:53Z</time>
      </trkpt>
      <trkpt lat="49.23883" lon="-0.08354">
        <ele>12.4</ele>
        <time>2024-09-22T09:42:54Z</time>
      </trkpt>
      <trkpt lat="49.23883" lon="-0.08367">
        <ele>12.4</ele>
        <time>2024-09-22T09:42:55Z</time>
      </trkpt>
      <trkpt lat="49.23882" lon="-0.08381">
        <ele>12.4</ele>
        <time>2024-09-22T09:42:56Z</time>
      </trkpt>
      <trkpt lat="49.23881" lon="-0.08394">
        <ele>12.4</ele>
        <time>2024-09-22T09:42:57Z</time>
      </trkpt>
      <trkpt lat="49.23881" lon="-0.08408">
        <ele>12.4</ele>
        <time>2024-09-22T09:42:58Z</time>
      </trkpt>
      <trkpt lat="49.23881" lon="-0.08422">
        <ele>12.4</ele>
        <time>2024-09-22T09:42:59Z</time>
      </trkpt>
      <trkpt lat="49.23882" lon="-0.08435">
        <ele>12.4</ele>
        <time>2024-09-22T09:43:00Z</time>
      </trkpt>
      <trkpt lat="49.23884" lon="-0.08449">
        <ele>12.4</ele>
        <time>2024-09-22T09:43:01Z</time>
      </trkpt>
      <trkpt lat="49.23886" lon="-0.08462">
        <ele>12.4</ele>
        <time>2024-09-22T09:43:02Z</time>
      </trkpt>
      <trkpt lat="49.23888" lon="-0.08475">
        <ele>12.4</ele>
        <time>2024-09-22T09:43:03Z</time>
      </trkpt>
      <trkpt lat="49.23891" lon="-0.08489">
        <ele>12.4</ele>
        <time>2024-09-22T09:43:04Z</time>
      </trkpt>
      <trkpt lat="49.23894" lon="-0.08502">
        <ele>12.4</ele>
        <time>2024-09-22T09:43:05Z</time>
      </trkpt>
      <trkpt lat="49.23897" lon="-0.08514">
        <ele>12.4</ele>
        <time>2024-09-22T09:43:06Z</time>
      </trkpt>
      <trkpt lat="49.23901" lon="-0.08526">
        <ele>12.2</ele>
        <time>2024-09-22T09:43:07Z</time>
      </trkpt>
      <trkpt lat="49.23905" lon="-0.08538">
        <ele>12.2</ele>
        <time>2024-09-22T09:43:08Z</time>
      </trkpt>
      <trkpt lat="49.23908" lon="-0.0855">
        <ele>12.2</ele>
        <time>2024-09-22T09:43:09Z</time>
      </trkpt>
      <trkpt lat="49.23912" lon="-0.08562">
        <ele>12.2</ele>
        <time>2024-09-22T09:43:10Z</time>
      </trkpt>
      <trkpt lat="49.23915" lon="-0.08574">
        <ele>12.2</ele>
        <time>2024-09-22T09:43:11Z</time>
      </trkpt>
      <trkpt lat="49.23918" lon="-0.08587">
        <ele>12</ele>
        <time>2024-09-22T09:43:12Z</time>
      </trkpt>
      <trkpt lat="49.2392" lon="-0.08599">
        <ele>12</ele>
        <time>2024-09-22T09:43:13Z</time>
      </trkpt>
      <trkpt lat="49.23922" lon="-0.08612">
        <ele>12</ele>
        <time>2024-09-22T09:43:14Z</time>
      </trkpt>
      <trkpt lat="49.23923" lon="-0.08625">
        <ele>11.8</ele>
        <time>2024-09-22T09:43:15Z</time>
      </trkpt>
      <trkpt lat="49.23924" lon="-0.08638">
        <ele>11.8</ele>
        <time>2024-09-22T09:43:16Z</time>
      </trkpt>
      <trkpt lat="49.23926" lon="-0.08651">
        <ele>11.8</ele>
        <time>2024-09-22T09:43:17Z</time>
      </trkpt>
      <trkpt lat="49.23927" lon="-0.08663">
        <ele>11.8</ele>
        <time>2024-09-22T09:43:18Z</time>
      </trkpt>
      <trkpt lat="49.23929" lon="-0.08675">
        <ele>11.8</ele>
        <time>2024-09-22T09:43:19Z</time>
      </trkpt>
      <trkpt lat="49.2393" lon="-0.08688">
        <ele>11.8</ele>
        <time>2024-09-22T09:43:20Z</time>
      </trkpt>
      <trkpt lat="49.23932" lon="-0.087">
        <ele>11.8</ele>
        <time>2024-09-22T09:43:21Z</time>
      </trkpt>
      <trkpt lat="49.23935" lon="-0.08713">
        <ele>11.8</ele>
        <time>2024-09-22T09:43:22Z</time>
      </trkpt>
      <trkpt lat="49.23937" lon="-0.08726">
        <ele>11.8</ele>
        <time>2024-09-22T09:43:23Z</time>
      </trkpt>
      <trkpt lat="49.2394" lon="-0.08739">
        <ele>11.8</ele>
        <time>2024-09-22T09:43:24Z</time>
      </trkpt>
      <trkpt lat="49.23943" lon="-0.08751">
        <ele>11.8</ele>
        <time>2024-09-22T09:43:25Z</time>
      </trkpt>
      <trkpt lat="49.23945" lon="-0.08762">
        <ele>11.8</ele>
        <time>2024-09-22T09:43:26Z</time>
      </trkpt>
      <trkpt lat="49.23948" lon="-0.08774">
        <ele>11.8</ele>
        <time>2024-09-22T09:43:27Z</time>
      </trkpt>
      <trkpt lat="49.23951" lon="-0.08786">
        <ele>11.8</ele>
        <time>2024-09-22T09:43:28Z</time>
      </trkpt>
      <trkpt lat="49.23954" lon="-0.08798">
        <ele>11.8</ele>
        <time>2024-09-22T09:43:29Z</time>
      </trkpt>
      <trkpt lat="49.23956" lon="-0.0881">
        <ele>11.8</ele>
        <time>2024-09-22T09:43:30Z</time>
      </trkpt>
      <trkpt lat="49.23958" lon="-0.08823">
        <ele>11.8</ele>
        <time>2024-09-22T09:43:31Z</time>
      </trkpt>
      <trkpt lat="49.2396" lon="-0.08836">
        <ele>11.8</ele>
        <time>2024-09-22T09:43:32Z</time>
      </trkpt>
      <trkpt lat="49.23962" lon="-0.08848">
        <ele>11.8</ele>
        <time>2024-09-22T09:43:33Z</time>
      </trkpt>
      <trkpt lat="49.23964" lon="-0.08861">
        <ele>11.8</ele>
        <time>2024-09-22T09:43:34Z</time>
      </trkpt>
      <trkpt lat="49.23965" lon="-0.08874">
        <ele>11.8</ele>
        <time>2024-09-22T09:43:35Z</time>
      </trkpt>
      <trkpt lat="49.23966" lon="-0.08885">
        <ele>11.6</ele>
        <time>2024-09-22T09:43:36Z</time>
      </trkpt>
      <trkpt lat="49.23968" lon="-0.08901">
        <ele>11.6</ele>
        <time>2024-09-22T09:43:37Z</time>
      </trkpt>
      <trkpt lat="49.2397" lon="-0.08914">
        <ele>11.6</ele>
        <time>2024-09-22T09:43:38Z</time>
      </trkpt>
      <trkpt lat="49.23972" lon="-0.08925">
        <ele>11.6</ele>
        <time>2024-09-22T09:43:39Z</time>
      </trkpt>
      <trkpt lat="49.23976" lon="-0.08939">
        <ele>11.4</ele>
        <time>2024-09-22T09:43:40Z</time>
      </trkpt>
      <trkpt lat="49.23981" lon="-0.08951">
        <ele>11.4</ele>
        <time>2024-09-22T09:43:41Z</time>
      </trkpt>
      <trkpt lat="49.23986" lon="-0.08961">
        <ele>11.4</ele>
        <time>2024-09-22T09:43:42Z</time>
      </trkpt>
      <trkpt lat="49.23991" lon="-0.08971">
        <ele>11.2</ele>
        <time>2024-09-22T09:43:43Z</time>
      </trkpt>
      <trkpt lat="49.23998" lon="-0.0898">
        <ele>11.2</ele>
        <time>2024-09-22T09:43:44Z</time>
      </trkpt>
      <trkpt lat="49.24004" lon="-0.08989">
        <ele>11.2</ele>
        <time>2024-09-22T09:43:45Z</time>
      </trkpt>
      <trkpt lat="49.2401" lon="-0.08998">
        <ele>11.2</ele>
        <time>2024-09-22T09:43:46Z</time>
      </trkpt>
      <trkpt lat="49.24017" lon="-0.09007">
        <ele>11.2</ele>
        <time>2024-09-22T09:43:47Z</time>
      </trkpt>
      <trkpt lat="49.24023" lon="-0.09015">
        <ele>11.2</ele>
        <time>2024-09-22T09:43:48Z</time>
      </trkpt>
      <trkpt lat="49.24031" lon="-0.09022">
        <ele>11.2</ele>
        <time>2024-09-22T09:43:49Z</time>
      </trkpt>
      <trkpt lat="49.24039" lon="-0.09029">
        <ele>11</ele>
        <time>2024-09-22T09:43:50Z</time>
      </trkpt>
      <trkpt lat="49.24047" lon="-0.09034">
        <ele>11</ele>
        <time>2024-09-22T09:43:51Z</time>
      </trkpt>
      <trkpt lat="49.24055" lon="-0.09039">
        <ele>11</ele>
        <time>2024-09-22T09:43:52Z</time>
      </trkpt>
      <trkpt lat="49.24063" lon="-0.09044">
        <ele>11</ele>
        <time>2024-09-22T09:43:53Z</time>
      </trkpt>
      <trkpt lat="49.24071" lon="-0.09048">
        <ele>11</ele>
        <time>2024-09-22T09:43:54Z</time>
      </trkpt>
      <trkpt lat="49.24079" lon="-0.09054">
        <ele>11</ele>
        <time>2024-09-22T09:43:55Z</time>
      </trkpt>
      <trkpt lat="49.24085" lon="-0.09061">
        <ele>11</ele>
        <time>2024-09-22T09:43:56Z</time>
      </trkpt>
      <trkpt lat="49.24091" lon="-0.09071">
        <ele>11</ele>
        <time>2024-09-22T09:43:57Z</time>
      </trkpt>
      <trkpt lat="49.24096" lon="-0.09081">
        <ele>11</ele>
        <time>2024-09-22T09:43:58Z</time>
      </trkpt>
      <trkpt lat="49.241" lon="-0.09092">
        <ele>11</ele>
        <time>2024-09-22T09:43:59Z</time>
      </trkpt>
      <trkpt lat="49.24103" lon="-0.09102">
        <ele>11.2</ele>
        <time>2024-09-22T09:44:00Z</time>
      </trkpt>
      <trkpt lat="49.24107" lon="-0.09114">
        <ele>11.2</ele>
        <time>2024-09-22T09:44:01Z</time>
      </trkpt>
      <trkpt lat="49.24111" lon="-0.09129">
        <ele>11.2</ele>
        <time>2024-09-22T09:44:02Z</time>
      </trkpt>
      <trkpt lat="49.24115" lon="-0.09142">
        <ele>11.2</ele>
        <time>2024-09-22T09:44:03Z</time>
      </trkpt>
      <trkpt lat="49.24119" lon="-0.09154">
        <ele>11.2</ele>
        <time>2024-09-22T09:44:04Z</time>
      </trkpt>
      <trkpt lat="49.24123" lon="-0.09168">
        <ele>11.2</ele>
        <time>2024-09-22T09:44:05Z</time>
      </trkpt>
      <trkpt lat="49.24126" lon="-0.09181">
        <ele>11.2</ele>
        <time>2024-09-22T09:44:06Z</time>
      </trkpt>
      <trkpt lat="49.24129" lon="-0.09194">
        <ele>11.2</ele>
        <time>2024-09-22T09:44:07Z</time>
      </trkpt>
      <trkpt lat="49.24131" lon="-0.09207">
        <ele>11.2</ele>
        <time>2024-09-22T09:44:08Z</time>
      </trkpt>
      <trkpt lat="49.24133" lon="-0.0922">
        <ele>11.2</ele>
        <time>2024-09-22T09:44:09Z</time>
      </trkpt>
      <trkpt lat="49.24135" lon="-0.09232">
        <ele>11.2</ele>
        <time>2024-09-22T09:44:10Z</time>
      </trkpt>
      <trkpt lat="49.24137" lon="-0.09245">
        <ele>11.2</ele>
        <time>2024-09-22T09:44:11Z</time>
      </trkpt>
      <trkpt lat="49.24138" lon="-0.09257">
        <ele>11.2</ele>
        <time>2024-09-22T09:44:12Z</time>
      </trkpt>
      <trkpt lat="49.2414" lon="-0.0927">
        <ele>11.2</ele>
        <time>2024-09-22T09:44:13Z</time>
      </trkpt>
      <trkpt lat="49.24141" lon="-0.09283">
        <ele>11.2</ele>
        <time>2024-09-22T09:44:14Z</time>
      </trkpt>
      <trkpt lat="49.24143" lon="-0.09296">
        <ele>11.2</ele>
        <time>2024-09-22T09:44:15Z</time>
      </trkpt>
      <trkpt lat="49.24144" lon="-0.09309">
        <ele>11.4</ele>
        <time>2024-09-22T09:44:16Z</time>
      </trkpt>
      <trkpt lat="49.24146" lon="-0.09321">
        <ele>11.4</ele>
        <time>2024-09-22T09:44:17Z</time>
      </trkpt>
      <trkpt lat="49.24147" lon="-0.09334">
        <ele>11.4</ele>
        <time>2024-09-22T09:44:18Z</time>
      </trkpt>
      <trkpt lat="49.24148" lon="-0.09346">
        <ele>11.4</ele>
        <time>2024-09-22T09:44:19Z</time>
      </trkpt>
      <trkpt lat="49.2415" lon="-0.09356">
        <ele>11.4</ele>
        <time>2024-09-22T09:44:20Z</time>
      </trkpt>
      <trkpt lat="49.24151" lon="-0.09369">
        <ele>11.6</ele>
        <time>2024-09-22T09:44:21Z</time>
      </trkpt>
      <trkpt lat="49.24153" lon="-0.09381">
        <ele>11.6</ele>
        <time>2024-09-22T09:44:22Z</time>
      </trkpt>
      <trkpt lat="49.24155" lon="-0.09397">
        <ele>11.6</ele>
        <time>2024-09-22T09:44:23Z</time>
      </trkpt>
      <trkpt lat="49.24156" lon="-0.09409">
        <ele>11.6</ele>
        <time>2024-09-22T09:44:24Z</time>
      </trkpt>
      <trkpt lat="49.24158" lon="-0.09422">
        <ele>11.8</ele>
        <time>2024-09-22T09:44:25Z</time>
      </trkpt>
      <trkpt lat="49.24159" lon="-0.09434">
        <ele>11.8</ele>
        <time>2024-09-22T09:44:26Z</time>
      </trkpt>
      <trkpt lat="49.24161" lon="-0.09444">
        <ele>11.8</ele>
        <time>2024-09-22T09:44:27Z</time>
      </trkpt>
      <trkpt lat="49.24163" lon="-0.09459">
        <ele>11.8</ele>
        <time>2024-09-22T09:44:28Z</time>
      </trkpt>
      <trkpt lat="49.24166" lon="-0.09471">
        <ele>11.8</ele>
        <time>2024-09-22T09:44:29Z</time>
      </trkpt>
      <trkpt lat="49.24168" lon="-0.09483">
        <ele>11.8</ele>
        <time>2024-09-22T09:44:30Z</time>
      </trkpt>
      <trkpt lat="49.24171" lon="-0.09495">
        <ele>11.8</ele>
        <time>2024-09-22T09:44:31Z</time>
      </trkpt>
      <trkpt lat="49.24175" lon="-0.09506">
        <ele>11.8</ele>
        <time>2024-09-22T09:44:32Z</time>
      </trkpt>
      <trkpt lat="49.24178" lon="-0.09515">
        <ele>11.8</ele>
        <time>2024-09-22T09:44:33Z</time>
      </trkpt>
      <trkpt lat="49.24183" lon="-0.09527">
        <ele>12</ele>
        <time>2024-09-22T09:44:34Z</time>
      </trkpt>
      <trkpt lat="49.24188" lon="-0.09538">
        <ele>12</ele>
        <time>2024-09-22T09:44:35Z</time>
      </trkpt>
      <trkpt lat="49.24192" lon="-0.09546">
        <ele>12</ele>
        <time>2024-09-22T09:44:36Z</time>
      </trkpt>
      <trkpt lat="49.24198" lon="-0.09558">
        <ele>12</ele>
        <time>2024-09-22T09:44:37Z</time>
      </trkpt>
      <trkpt lat="49.24204" lon="-0.09567">
        <ele>12</ele>
        <time>2024-09-22T09:44:38Z</time>
      </trkpt>
      <trkpt lat="49.2421" lon="-0.09577">
        <ele>12.2</ele>
        <time>2024-09-22T09:44:39Z</time>
      </trkpt>
      <trkpt lat="49.24217" lon="-0.09586">
        <ele>12.2</ele>
        <time>2024-09-22T09:44:40Z</time>
      </trkpt>
      <trkpt lat="49.24224" lon="-0.09595">
        <ele>12.2</ele>
        <time>2024-09-22T09:44:41Z</time>
      </trkpt>
      <trkpt lat="49.24231" lon="-0.09604">
        <ele>12.2</ele>
        <time>2024-09-22T09:44:42Z</time>
      </trkpt>
      <trkpt lat="49.24239" lon="-0.09611">
        <ele>12.2</ele>
        <time>2024-09-22T09:44:43Z</time>
      </trkpt>
      <trkpt lat="49.24244" lon="-0.09617">
        <ele>12.2</ele>
        <time>2024-09-22T09:44:44Z</time>
      </trkpt>
      <trkpt lat="49.24253" lon="-0.09627">
        <ele>12.2</ele>
        <time>2024-09-22T09:44:45Z</time>
      </trkpt>
      <trkpt lat="49.2426" lon="-0.09634">
        <ele>12.2</ele>
        <time>2024-09-22T09:44:46Z</time>
      </trkpt>
      <trkpt lat="49.24267" lon="-0.09642">
        <ele>12.2</ele>
        <time>2024-09-22T09:44:47Z</time>
      </trkpt>
      <trkpt lat="49.24273" lon="-0.09648">
        <ele>12.2</ele>
        <time>2024-09-22T09:44:48Z</time>
      </trkpt>
      <trkpt lat="49.24282" lon="-0.09657">
        <ele>12.2</ele>
        <time>2024-09-22T09:44:49Z</time>
      </trkpt>
      <trkpt lat="49.24289" lon="-0.09665">
        <ele>12.2</ele>
        <time>2024-09-22T09:44:50Z</time>
      </trkpt>
      <trkpt lat="49.24296" lon="-0.09672">
        <ele>12.2</ele>
        <time>2024-09-22T09:44:51Z</time>
      </trkpt>
      <trkpt lat="49.24303" lon="-0.09679">
        <ele>12.2</ele>
        <time>2024-09-22T09:44:52Z</time>
      </trkpt>
      <trkpt lat="49.2431" lon="-0.09686">
        <ele>12.2</ele>
        <time>2024-09-22T09:44:53Z</time>
      </trkpt>
      <trkpt lat="49.24318" lon="-0.09694">
        <ele>12</ele>
        <time>2024-09-22T09:44:54Z</time>
      </trkpt>
      <trkpt lat="49.24325" lon="-0.09701">
        <ele>12</ele>
        <time>2024-09-22T09:44:55Z</time>
      </trkpt>
      <trkpt lat="49.24331" lon="-0.09708">
        <ele>12</ele>
        <time>2024-09-22T09:44:56Z</time>
      </trkpt>
      <trkpt lat="49.24338" lon="-0.09716">
        <ele>12</ele>
        <time>2024-09-22T09:44:57Z</time>
      </trkpt>
      <trkpt lat="49.24345" lon="-0.09722">
        <ele>12</ele>
        <time>2024-09-22T09:44:58Z</time>
      </trkpt>
      <trkpt lat="49.24351" lon="-0.0973">
        <ele>12</ele>
        <time>2024-09-22T09:44:59Z</time>
      </trkpt>
      <trkpt lat="49.24358" lon="-0.09737">
        <ele>12</ele>
        <time>2024-09-22T09:45:00Z</time>
      </trkpt>
      <trkpt lat="49.24364" lon="-0.09744">
        <ele>12</ele>
        <time>2024-09-22T09:45:01Z</time>
      </trkpt>
      <trkpt lat="49.2437" lon="-0.09751">
        <ele>12</ele>
        <time>2024-09-22T09:45:02Z</time>
      </trkpt>
      <trkpt lat="49.24375" lon="-0.09759">
        <ele>12</ele>
        <time>2024-09-22T09:45:03Z</time>
      </trkpt>
      <trkpt lat="49.2438" lon="-0.09768">
        <ele>12</ele>
        <time>2024-09-22T09:45:04Z</time>
      </trkpt>
      <trkpt lat="49.24384" lon="-0.09777">
        <ele>12</ele>
        <time>2024-09-22T09:45:05Z</time>
      </trkpt>
      <trkpt lat="49.24388" lon="-0.09787">
        <ele>12.2</ele>
        <time>2024-09-22T09:45:06Z</time>
      </trkpt>
      <trkpt lat="49.24392" lon="-0.09797">
        <ele>12.4</ele>
        <time>2024-09-22T09:45:07Z</time>
      </trkpt>
      <trkpt lat="49.24396" lon="-0.09807">
        <ele>12.6</ele>
        <time>2024-09-22T09:45:08Z</time>
      </trkpt>
      <trkpt lat="49.24399" lon="-0.09818">
        <ele>12.8</ele>
        <time>2024-09-22T09:45:09Z</time>
      </trkpt>
      <trkpt lat="49.24402" lon="-0.09828">
        <ele>13.2</ele>
        <time>2024-09-22T09:45:10Z</time>
      </trkpt>
      <trkpt lat="49.24405" lon="-0.09839">
        <ele>13.4</ele>
        <time>2024-09-22T09:45:11Z</time>
      </trkpt>
      <trkpt lat="49.24407" lon="-0.0985">
        <ele>13.6</ele>
        <time>2024-09-22T09:45:12Z</time>
      </trkpt>
      <trkpt lat="49.2441" lon="-0.09859">
        <ele>13.6</ele>
        <time>2024-09-22T09:45:13Z</time>
      </trkpt>
      <trkpt lat="49.24413" lon="-0.09872">
        <ele>13.6</ele>
        <time>2024-09-22T09:45:14Z</time>
      </trkpt>
      <trkpt lat="49.24416" lon="-0.09883">
        <ele>14</ele>
        <time>2024-09-22T09:45:15Z</time>
      </trkpt>
      <trkpt lat="49.24418" lon="-0.09893">
        <ele>14.2</ele>
        <time>2024-09-22T09:45:16Z</time>
      </trkpt>
      <trkpt lat="49.24421" lon="-0.09904">
        <ele>14.4</ele>
        <time>2024-09-22T09:45:17Z</time>
      </trkpt>
      <trkpt lat="49.24424" lon="-0.09915">
        <ele>14.6</ele>
        <time>2024-09-22T09:45:18Z</time>
      </trkpt>
      <trkpt lat="49.24426" lon="-0.09924">
        <ele>14.6</ele>
        <time>2024-09-22T09:45:19Z</time>
      </trkpt>
      <trkpt lat="49.2443" lon="-0.09937">
        <ele>14.8</ele>
        <time>2024-09-22T09:45:20Z</time>
      </trkpt>
      <trkpt lat="49.24433" lon="-0.09948">
        <ele>15</ele>
        <time>2024-09-22T09:45:21Z</time>
      </trkpt>
      <trkpt lat="49.24437" lon="-0.09959">
        <ele>15.2</ele>
        <time>2024-09-22T09:45:22Z</time>
      </trkpt>
      <trkpt lat="49.24441" lon="-0.0997">
        <ele>15.4</ele>
        <time>2024-09-22T09:45:23Z</time>
      </trkpt>
      <trkpt lat="49.24447" lon="-0.09981">
        <ele>15.6</ele>
        <time>2024-09-22T09:45:24Z</time>
      </trkpt>
      <trkpt lat="49.24453" lon="-0.09991">
        <ele>15.6</ele>
        <time>2024-09-22T09:45:25Z</time>
      </trkpt>
      <trkpt lat="49.2446" lon="-0.1">
        <ele>15.8</ele>
        <time>2024-09-22T09:45:26Z</time>
      </trkpt>
      <trkpt lat="49.24467" lon="-0.10008">
        <ele>15.8</ele>
        <time>2024-09-22T09:45:27Z</time>
      </trkpt>
      <trkpt lat="49.24475" lon="-0.10015">
        <ele>15.8</ele>
        <time>2024-09-22T09:45:28Z</time>
      </trkpt>
      <trkpt lat="49.24484" lon="-0.10022">
        <ele>15.8</ele>
        <time>2024-09-22T09:45:29Z</time>
      </trkpt>
      <trkpt lat="49.24492" lon="-0.10029">
        <ele>15.8</ele>
        <time>2024-09-22T09:45:30Z</time>
      </trkpt>
      <trkpt lat="49.24501" lon="-0.10036">
        <ele>15.8</ele>
        <time>2024-09-22T09:45:31Z</time>
      </trkpt>
      <trkpt lat="49.2451" lon="-0.10043">
        <ele>15.8</ele>
        <time>2024-09-22T09:45:32Z</time>
      </trkpt>
      <trkpt lat="49.2452" lon="-0.1005">
        <ele>15.8</ele>
        <time>2024-09-22T09:45:33Z</time>
      </trkpt>
      <trkpt lat="49.24529" lon="-0.10058">
        <ele>15.8</ele>
        <time>2024-09-22T09:45:34Z</time>
      </trkpt>
      <trkpt lat="49.24539" lon="-0.10065">
        <ele>15.6</ele>
        <time>2024-09-22T09:45:35Z</time>
      </trkpt>
      <trkpt lat="49.24548" lon="-0.10072">
        <ele>15.4</ele>
        <time>2024-09-22T09:45:36Z</time>
      </trkpt>
      <trkpt lat="49.24558" lon="-0.10079">
        <ele>15</ele>
        <time>2024-09-22T09:45:37Z</time>
      </trkpt>
      <trkpt lat="49.24568" lon="-0.10087">
        <ele>14.8</ele>
        <time>2024-09-22T09:45:38Z</time>
      </trkpt>
      <trkpt lat="49.24578" lon="-0.10095">
        <ele>14.4</ele>
        <time>2024-09-22T09:45:39Z</time>
      </trkpt>
      <trkpt lat="49.24586" lon="-0.10101">
        <ele>14</ele>
        <time>2024-09-22T09:45:40Z</time>
      </trkpt>
      <trkpt lat="49.24598" lon="-0.1011">
        <ele>13.6</ele>
        <time>2024-09-22T09:45:41Z</time>
      </trkpt>
      <trkpt lat="49.24608" lon="-0.10117">
        <ele>13.2</ele>
        <time>2024-09-22T09:45:42Z</time>
      </trkpt>
      <trkpt lat="49.24618" lon="-0.10124">
        <ele>12.6</ele>
        <time>2024-09-22T09:45:43Z</time>
      </trkpt>
      <trkpt lat="49.24627" lon="-0.10132">
        <ele>12.2</ele>
        <time>2024-09-22T09:45:44Z</time>
      </trkpt>
      <trkpt lat="49.24637" lon="-0.10139">
        <ele>11.6</ele>
        <time>2024-09-22T09:45:45Z</time>
      </trkpt>
      <trkpt lat="49.24644" lon="-0.10145">
        <ele>11.2</ele>
        <time>2024-09-22T09:45:46Z</time>
      </trkpt>
      <trkpt lat="49.24653" lon="-0.10152">
        <ele>10.6</ele>
        <time>2024-09-22T09:45:47Z</time>
      </trkpt>
      <trkpt lat="49.24664" lon="-0.1016">
        <ele>9.8</ele>
        <time>2024-09-22T09:45:48Z</time>
      </trkpt>
      <trkpt lat="49.24673" lon="-0.10166">
        <ele>9.4</ele>
        <time>2024-09-22T09:45:49Z</time>
      </trkpt>
      <trkpt lat="49.24681" lon="-0.10172">
        <ele>8.8</ele>
        <time>2024-09-22T09:45:50Z</time>
      </trkpt>
      <trkpt lat="49.2469" lon="-0.10179">
        <ele>8</ele>
        <time>2024-09-22T09:45:51Z</time>
      </trkpt>
      <trkpt lat="49.24699" lon="-0.10186">
        <ele>7.6</ele>
        <time>2024-09-22T09:45:52Z</time>
      </trkpt>
      <trkpt lat="49.24706" lon="-0.10191">
        <ele>7.4</ele>
        <time>2024-09-22T09:45:53Z</time>
      </trkpt>
      <trkpt lat="49.24716" lon="-0.10199">
        <ele>7.4</ele>
        <time>2024-09-22T09:45:54Z</time>
      </trkpt>
      <trkpt lat="49.24724" lon="-0.10206">
        <ele>7.4</ele>
        <time>2024-09-22T09:45:55Z</time>
      </trkpt>
      <trkpt lat="49.24732" lon="-0.10212">
        <ele>7.2</ele>
        <time>2024-09-22T09:45:56Z</time>
      </trkpt>
      <trkpt lat="49.2474" lon="-0.10219">
        <ele>7.2</ele>
        <time>2024-09-22T09:45:57Z</time>
      </trkpt>
      <trkpt lat="49.24748" lon="-0.10225">
        <ele>7.2</ele>
        <time>2024-09-22T09:45:58Z</time>
      </trkpt>
      <trkpt lat="49.24756" lon="-0.10232">
        <ele>7.2</ele>
        <time>2024-09-22T09:45:59Z</time>
      </trkpt>
      <trkpt lat="49.24763" lon="-0.10238">
        <ele>7.2</ele>
        <time>2024-09-22T09:46:00Z</time>
      </trkpt>
      <trkpt lat="49.24771" lon="-0.10244">
        <ele>7.2</ele>
        <time>2024-09-22T09:46:01Z</time>
      </trkpt>
      <trkpt lat="49.24779" lon="-0.1025">
        <ele>7.4</ele>
        <time>2024-09-22T09:46:02Z</time>
      </trkpt>
      <trkpt lat="49.24787" lon="-0.10256">
        <ele>7.4</ele>
        <time>2024-09-22T09:46:03Z</time>
      </trkpt>
      <trkpt lat="49.24795" lon="-0.10262">
        <ele>7.6</ele>
        <time>2024-09-22T09:46:04Z</time>
      </trkpt>
      <trkpt lat="49.24803" lon="-0.10268">
        <ele>7.8</ele>
        <time>2024-09-22T09:46:05Z</time>
      </trkpt>
      <trkpt lat="49.24812" lon="-0.10274">
        <ele>8.2</ele>
        <time>2024-09-22T09:46:06Z</time>
      </trkpt>
      <trkpt lat="49.2482" lon="-0.1028">
        <ele>8.6</ele>
        <time>2024-09-22T09:46:07Z</time>
      </trkpt>
      <trkpt lat="49.24829" lon="-0.10285">
        <ele>8.6</ele>
        <time>2024-09-22T09:46:08Z</time>
      </trkpt>
      <trkpt lat="49.24838" lon="-0.10289">
        <ele>8.8</ele>
        <time>2024-09-22T09:46:09Z</time>
      </trkpt>
      <trkpt lat="49.24847" lon="-0.10292">
        <ele>8.8</ele>
        <time>2024-09-22T09:46:10Z</time>
      </trkpt>
      <trkpt lat="49.24857" lon="-0.10294">
        <ele>9</ele>
        <time>2024-09-22T09:46:11Z</time>
      </trkpt>
      <trkpt lat="49.24866" lon="-0.10295">
        <ele>9</ele>
        <time>2024-09-22T09:46:12Z</time>
      </trkpt>
      <trkpt lat="49.24876" lon="-0.10295">
        <ele>9</ele>
        <time>2024-09-22T09:46:13Z</time>
      </trkpt>
      <trkpt lat="49.24885" lon="-0.10294">
        <ele>9</ele>
        <time>2024-09-22T09:46:14Z</time>
      </trkpt>
      <trkpt lat="49.24895" lon="-0.10292">
        <ele>9.2</ele>
        <time>2024-09-22T09:46:15Z</time>
      </trkpt>
      <trkpt lat="49.24904" lon="-0.10288">
        <ele>9.2</ele>
        <time>2024-09-22T09:46:16Z</time>
      </trkpt>
      <trkpt lat="49.24913" lon="-0.10283">
        <ele>9.2</ele>
        <time>2024-09-22T09:46:17Z</time>
      </trkpt>
      <trkpt lat="49.24921" lon="-0.10276">
        <ele>9.2</ele>
        <time>2024-09-22T09:46:18Z</time>
      </trkpt>
      <trkpt lat="49.24929" lon="-0.10267">
        <ele>9.4</ele>
        <time>2024-09-22T09:46:19Z</time>
      </trkpt>
      <trkpt lat="49.24935" lon="-0.10259">
        <ele>9.4</ele>
        <time>2024-09-22T09:46:20Z</time>
      </trkpt>
      <trkpt lat="49.24942" lon="-0.10249">
        <ele>9.6</ele>
        <time>2024-09-22T09:46:21Z</time>
      </trkpt>
      <trkpt lat="49.24948" lon="-0.10237">
        <ele>9.6</ele>
        <time>2024-09-22T09:46:22Z</time>
      </trkpt>
      <trkpt lat="49.24953" lon="-0.10224">
        <ele>9.6</ele>
        <time>2024-09-22T09:46:23Z</time>
      </trkpt>
      <trkpt lat="49.24958" lon="-0.10212">
        <ele>9.6</ele>
        <time>2024-09-22T09:46:24Z</time>
      </trkpt>
      <trkpt lat="49.24963" lon="-0.10199">
        <ele>9.6</ele>
        <time>2024-09-22T09:46:25Z</time>
      </trkpt>
      <trkpt lat="49.24968" lon="-0.10183">
        <ele>9.6</ele>
        <time>2024-09-22T09:46:26Z</time>
      </trkpt>
      <trkpt lat="49.24972" lon="-0.10171">
        <ele>9.6</ele>
        <time>2024-09-22T09:46:27Z</time>
      </trkpt>
      <trkpt lat="49.24975" lon="-0.10161">
        <ele>9.6</ele>
        <time>2024-09-22T09:46:28Z</time>
      </trkpt>
      <trkpt lat="49.24979" lon="-0.10148">
        <ele>9.6</ele>
        <time>2024-09-22T09:46:29Z</time>
      </trkpt>
      <trkpt lat="49.24983" lon="-0.10135">
        <ele>9.6</ele>
        <time>2024-09-22T09:46:30Z</time>
      </trkpt>
      <trkpt lat="49.24987" lon="-0.10123">
        <ele>9.6</ele>
        <time>2024-09-22T09:46:31Z</time>
      </trkpt>
      <trkpt lat="49.24991" lon="-0.10111">
        <ele>9.6</ele>
        <time>2024-09-22T09:46:32Z</time>
      </trkpt>
      <trkpt lat="49.24996" lon="-0.10099">
        <ele>9.4</ele>
        <time>2024-09-22T09:46:33Z</time>
      </trkpt>
      <trkpt lat="49.25" lon="-0.10087">
        <ele>9.4</ele>
        <time>2024-09-22T09:46:34Z</time>
      </trkpt>
      <trkpt lat="49.25005" lon="-0.10075">
        <ele>9.4</ele>
        <time>2024-09-22T09:46:35Z</time>
      </trkpt>
      <trkpt lat="49.25009" lon="-0.10063">
        <ele>9.4</ele>
        <time>2024-09-22T09:46:36Z</time>
      </trkpt>
      <trkpt lat="49.25015" lon="-0.10048">
        <ele>9.4</ele>
        <time>2024-09-22T09:46:37Z</time>
      </trkpt>
      <trkpt lat="49.25018" lon="-0.10038">
        <ele>9.4</ele>
        <time>2024-09-22T09:46:38Z</time>
      </trkpt>
      <trkpt lat="49.25023" lon="-0.10026">
        <ele>9.4</ele>
        <time>2024-09-22T09:46:39Z</time>
      </trkpt>
      <trkpt lat="49.25027" lon="-0.10013">
        <ele>9.4</ele>
        <time>2024-09-22T09:46:40Z</time>
      </trkpt>
      <trkpt lat="49.25032" lon="-0.10001">
        <ele>9.4</ele>
        <time>2024-09-22T09:46:41Z</time>
      </trkpt>
      <trkpt lat="49.25037" lon="-0.09986">
        <ele>9.4</ele>
        <time>2024-09-22T09:46:42Z</time>
      </trkpt>
      <trkpt lat="49.25041" lon="-0.09976">
        <ele>9.2</ele>
        <time>2024-09-22T09:46:43Z</time>
      </trkpt>
      <trkpt lat="49.25045" lon="-0.09964">
        <ele>9.2</ele>
        <time>2024-09-22T09:46:44Z</time>
      </trkpt>
      <trkpt lat="49.2505" lon="-0.09951">
        <ele>9.2</ele>
        <time>2024-09-22T09:46:45Z</time>
      </trkpt>
      <trkpt lat="49.25055" lon="-0.09938">
        <ele>9.2</ele>
        <time>2024-09-22T09:46:46Z</time>
      </trkpt>
      <trkpt lat="49.25059" lon="-0.09925">
        <ele>9.2</ele>
        <time>2024-09-22T09:46:47Z</time>
      </trkpt>
      <trkpt lat="49.25065" lon="-0.09912">
        <ele>9.2</ele>
        <time>2024-09-22T09:46:48Z</time>
      </trkpt>
      <trkpt lat="49.2507" lon="-0.099">
        <ele>9.2</ele>
        <time>2024-09-22T09:46:49Z</time>
      </trkpt>
      <trkpt lat="49.25074" lon="-0.09887">
        <ele>9.2</ele>
        <time>2024-09-22T09:46:50Z</time>
      </trkpt>
      <trkpt lat="49.25079" lon="-0.09874">
        <ele>9</ele>
        <time>2024-09-22T09:46:51Z</time>
      </trkpt>
      <trkpt lat="49.25084" lon="-0.09862">
        <ele>9</ele>
        <time>2024-09-22T09:46:52Z</time>
      </trkpt>
      <trkpt lat="49.25088" lon="-0.0985">
        <ele>9</ele>
        <time>2024-09-22T09:46:53Z</time>
      </trkpt>
      <trkpt lat="49.25093" lon="-0.09838">
        <ele>9</ele>
        <time>2024-09-22T09:46:54Z</time>
      </trkpt>
      <trkpt lat="49.25097" lon="-0.09826">
        <ele>8.8</ele>
        <time>2024-09-22T09:46:55Z</time>
      </trkpt>
      <trkpt lat="49.25101" lon="-0.09814">
        <ele>8.8</ele>
        <time>2024-09-22T09:46:56Z</time>
      </trkpt>
      <trkpt lat="49.25105" lon="-0.09803">
        <ele>8.8</ele>
        <time>2024-09-22T09:46:57Z</time>
      </trkpt>
      <trkpt lat="49.25109" lon="-0.09791">
        <ele>8.8</ele>
        <time>2024-09-22T09:46:58Z</time>
      </trkpt>
      <trkpt lat="49.25114" lon="-0.0978">
        <ele>8.6</ele>
        <time>2024-09-22T09:46:59Z</time>
      </trkpt>
      <trkpt lat="49.25119" lon="-0.09769">
        <ele>8.6</ele>
        <time>2024-09-22T09:47:00Z</time>
      </trkpt>
      <trkpt lat="49.25125" lon="-0.09758">
        <ele>8.6</ele>
        <time>2024-09-22T09:47:01Z</time>
      </trkpt>
      <trkpt lat="49.25131" lon="-0.09749">
        <ele>8.6</ele>
        <time>2024-09-22T09:47:02Z</time>
      </trkpt>
      <trkpt lat="49.25138" lon="-0.09741">
        <ele>8.6</ele>
        <time>2024-09-22T09:47:03Z</time>
      </trkpt>
      <trkpt lat="49.25145" lon="-0.09734">
        <ele>8.6</ele>
        <time>2024-09-22T09:47:04Z</time>
      </trkpt>
      <trkpt lat="49.25153" lon="-0.09729">
        <ele>8.6</ele>
        <time>2024-09-22T09:47:05Z</time>
      </trkpt>
      <trkpt lat="49.25163" lon="-0.09724">
        <ele>8.6</ele>
        <time>2024-09-22T09:47:06Z</time>
      </trkpt>
      <trkpt lat="49.2517" lon="-0.09721">
        <ele>8.6</ele>
        <time>2024-09-22T09:47:07Z</time>
      </trkpt>
      <trkpt lat="49.25178" lon="-0.09717">
        <ele>8.6</ele>
        <time>2024-09-22T09:47:08Z</time>
      </trkpt>
      <trkpt lat="49.25186" lon="-0.09714">
        <ele>8.6</ele>
        <time>2024-09-22T09:47:09Z</time>
      </trkpt>
      <trkpt lat="49.25195" lon="-0.09711">
        <ele>8.6</ele>
        <time>2024-09-22T09:47:10Z</time>
      </trkpt>
      <trkpt lat="49.25203" lon="-0.09708">
        <ele>8.8</ele>
        <time>2024-09-22T09:47:11Z</time>
      </trkpt>
      <trkpt lat="49.25212" lon="-0.09704">
        <ele>8.8</ele>
        <time>2024-09-22T09:47:12Z</time>
      </trkpt>
      <trkpt lat="49.2522" lon="-0.09701">
        <ele>8.8</ele>
        <time>2024-09-22T09:47:13Z</time>
      </trkpt>
      <trkpt lat="49.25229" lon="-0.09698">
        <ele>9</ele>
        <time>2024-09-22T09:47:14Z</time>
      </trkpt>
      <trkpt lat="49.25237" lon="-0.09695">
        <ele>9</ele>
        <time>2024-09-22T09:47:15Z</time>
      </trkpt>
      <trkpt lat="49.25246" lon="-0.09691">
        <ele>9.2</ele>
        <time>2024-09-22T09:47:16Z</time>
      </trkpt>
      <trkpt lat="49.25254" lon="-0.09687">
        <ele>9.4</ele>
        <time>2024-09-22T09:47:17Z</time>
      </trkpt>
      <trkpt lat="49.25262" lon="-0.09681">
        <ele>9.4</ele>
        <time>2024-09-22T09:47:18Z</time>
      </trkpt>
      <trkpt lat="49.2527" lon="-0.09674">
        <ele>9.4</ele>
        <time>2024-09-22T09:47:19Z</time>
      </trkpt>
      <trkpt lat="49.25278" lon="-0.09667">
        <ele>9.4</ele>
        <time>2024-09-22T09:47:20Z</time>
      </trkpt>
      <trkpt lat="49.25285" lon="-0.09659">
        <ele>9.6</ele>
        <time>2024-09-22T09:47:21Z</time>
      </trkpt>
      <trkpt lat="49.25292" lon="-0.09651">
        <ele>9.6</ele>
        <time>2024-09-22T09:47:22Z</time>
      </trkpt>
      <trkpt lat="49.253" lon="-0.09644">
        <ele>9.6</ele>
        <time>2024-09-22T09:47:23Z</time>
      </trkpt>
      <trkpt lat="49.25308" lon="-0.09638">
        <ele>9.6</ele>
        <time>2024-09-22T09:47:24Z</time>
      </trkpt>
      <trkpt lat="49.25316" lon="-0.09632">
        <ele>9.6</ele>
        <time>2024-09-22T09:47:25Z</time>
      </trkpt>
      <trkpt lat="49.25325" lon="-0.09629">
        <ele>9.6</ele>
        <time>2024-09-22T09:47:26Z</time>
      </trkpt>
      <trkpt lat="49.25334" lon="-0.09626">
        <ele>9.6</ele>
        <time>2024-09-22T09:47:27Z</time>
      </trkpt>
      <trkpt lat="49.25343" lon="-0.09623">
        <ele>9.6</ele>
        <time>2024-09-22T09:47:28Z</time>
      </trkpt>
      <trkpt lat="49.25352" lon="-0.09621">
        <ele>9.6</ele>
        <time>2024-09-22T09:47:29Z</time>
      </trkpt>
      <trkpt lat="49.25361" lon="-0.09619">
        <ele>9.6</ele>
        <time>2024-09-22T09:47:30Z</time>
      </trkpt>
      <trkpt lat="49.2537" lon="-0.09618">
        <ele>9.6</ele>
        <time>2024-09-22T09:47:31Z</time>
      </trkpt>
      <trkpt lat="49.25379" lon="-0.09617">
        <ele>9.6</ele>
        <time>2024-09-22T09:47:32Z</time>
      </trkpt>
      <trkpt lat="49.25388" lon="-0.09615">
        <ele>9.6</ele>
        <time>2024-09-22T09:47:33Z</time>
      </trkpt>
      <trkpt lat="49.25397" lon="-0.09614">
        <ele>9.6</ele>
        <time>2024-09-22T09:47:34Z</time>
      </trkpt>
      <trkpt lat="49.25406" lon="-0.09612">
        <ele>9.6</ele>
        <time>2024-09-22T09:47:35Z</time>
      </trkpt>
      <trkpt lat="49.25415" lon="-0.09611">
        <ele>9.4</ele>
        <time>2024-09-22T09:47:36Z</time>
      </trkpt>
      <trkpt lat="49.25423" lon="-0.09609">
        <ele>9.4</ele>
        <time>2024-09-22T09:47:37Z</time>
      </trkpt>
      <trkpt lat="49.25432" lon="-0.09608">
        <ele>9.4</ele>
        <time>2024-09-22T09:47:38Z</time>
      </trkpt>
      <trkpt lat="49.25441" lon="-0.09606">
        <ele>9.4</ele>
        <time>2024-09-22T09:47:39Z</time>
      </trkpt>
      <trkpt lat="49.2545" lon="-0.09604">
        <ele>9.4</ele>
        <time>2024-09-22T09:47:40Z</time>
      </trkpt>
      <trkpt lat="49.25458" lon="-0.09603">
        <ele>9.4</ele>
        <time>2024-09-22T09:47:41Z</time>
      </trkpt>
      <trkpt lat="49.25467" lon="-0.09601">
        <ele>9.4</ele>
        <time>2024-09-22T09:47:42Z</time>
      </trkpt>
      <trkpt lat="49.25475" lon="-0.09599">
        <ele>9.2</ele>
        <time>2024-09-22T09:47:43Z</time>
      </trkpt>
      <trkpt lat="49.25484" lon="-0.09598">
        <ele>9.2</ele>
        <time>2024-09-22T09:47:44Z</time>
      </trkpt>
      <trkpt lat="49.25492" lon="-0.09597">
        <ele>9.2</ele>
        <time>2024-09-22T09:47:45Z</time>
      </trkpt>
      <trkpt lat="49.25501" lon="-0.09596">
        <ele>9.2</ele>
        <time>2024-09-22T09:47:46Z</time>
      </trkpt>
      <trkpt lat="49.2551" lon="-0.09595">
        <ele>9.2</ele>
        <time>2024-09-22T09:47:47Z</time>
      </trkpt>
      <trkpt lat="49.25519" lon="-0.09595">
        <ele>9.4</ele>
        <time>2024-09-22T09:47:48Z</time>
      </trkpt>
      <trkpt lat="49.25527" lon="-0.09595">
        <ele>9.4</ele>
        <time>2024-09-22T09:47:49Z</time>
      </trkpt>
      <trkpt lat="49.25536" lon="-0.09595">
        <ele>9.4</ele>
        <time>2024-09-22T09:47:50Z</time>
      </trkpt>
      <trkpt lat="49.25544" lon="-0.09594">
        <ele>9.4</ele>
        <time>2024-09-22T09:47:51Z</time>
      </trkpt>
      <trkpt lat="49.25553" lon="-0.09595">
        <ele>9.4</ele>
        <time>2024-09-22T09:47:52Z</time>
      </trkpt>
      <trkpt lat="49.25562" lon="-0.09595">
        <ele>9.4</ele>
        <time>2024-09-22T09:47:53Z</time>
      </trkpt>
      <trkpt lat="49.25571" lon="-0.09595">
        <ele>9.4</ele>
        <time>2024-09-22T09:47:54Z</time>
      </trkpt>
      <trkpt lat="49.2558" lon="-0.09595">
        <ele>9.4</ele>
        <time>2024-09-22T09:47:55Z</time>
      </trkpt>
      <trkpt lat="49.25589" lon="-0.09596">
        <ele>9.6</ele>
        <time>2024-09-22T09:47:56Z</time>
      </trkpt>
      <trkpt lat="49.25597" lon="-0.09596">
        <ele>9.6</ele>
        <time>2024-09-22T09:47:57Z</time>
      </trkpt>
      <trkpt lat="49.25607" lon="-0.09596">
        <ele>9.8</ele>
        <time>2024-09-22T09:47:58Z</time>
      </trkpt>
      <trkpt lat="49.25616" lon="-0.09595">
        <ele>9.8</ele>
        <time>2024-09-22T09:47:59Z</time>
      </trkpt>
      <trkpt lat="49.25625" lon="-0.09593">
        <ele>10</ele>
        <time>2024-09-22T09:48:00Z</time>
      </trkpt>
      <trkpt lat="49.25634" lon="-0.0959">
        <ele>10</ele>
        <time>2024-09-22T09:48:01Z</time>
      </trkpt>
      <trkpt lat="49.25643" lon="-0.09586">
        <ele>10</ele>
        <time>2024-09-22T09:48:02Z</time>
      </trkpt>
      <trkpt lat="49.25653" lon="-0.09582">
        <ele>10</ele>
        <time>2024-09-22T09:48:03Z</time>
      </trkpt>
      <trkpt lat="49.25662" lon="-0.09577">
        <ele>10</ele>
        <time>2024-09-22T09:48:04Z</time>
      </trkpt>
      <trkpt lat="49.25671" lon="-0.09571">
        <ele>10</ele>
        <time>2024-09-22T09:48:05Z</time>
      </trkpt>
      <trkpt lat="49.25679" lon="-0.09565">
        <ele>10</ele>
        <time>2024-09-22T09:48:06Z</time>
      </trkpt>
      <trkpt lat="49.25688" lon="-0.09558">
        <ele>10</ele>
        <time>2024-09-22T09:48:07Z</time>
      </trkpt>
      <trkpt lat="49.25697" lon="-0.09551">
        <ele>10</ele>
        <time>2024-09-22T09:48:08Z</time>
      </trkpt>
      <trkpt lat="49.25705" lon="-0.09544">
        <ele>10.2</ele>
        <time>2024-09-22T09:48:09Z</time>
      </trkpt>
      <trkpt lat="49.25714" lon="-0.09537">
        <ele>10.2</ele>
        <time>2024-09-22T09:48:10Z</time>
      </trkpt>
      <trkpt lat="49.25725" lon="-0.09529">
        <ele>10.4</ele>
        <time>2024-09-22T09:48:11Z</time>
      </trkpt>
      <trkpt lat="49.25734" lon="-0.09523">
        <ele>10.4</ele>
        <time>2024-09-22T09:48:12Z</time>
      </trkpt>
      <trkpt lat="49.25743" lon="-0.09516">
        <ele>10.4</ele>
        <time>2024-09-22T09:48:13Z</time>
      </trkpt>
      <trkpt lat="49.25752" lon="-0.09509">
        <ele>10.4</ele>
        <time>2024-09-22T09:48:14Z</time>
      </trkpt>
      <trkpt lat="49.25761" lon="-0.09502">
        <ele>10.2</ele>
        <time>2024-09-22T09:48:15Z</time>
      </trkpt>
      <trkpt lat="49.2577" lon="-0.09495">
        <ele>10.2</ele>
        <time>2024-09-22T09:48:16Z</time>
      </trkpt>
      <trkpt lat="49.25779" lon="-0.09489">
        <ele>10.2</ele>
        <time>2024-09-22T09:48:17Z</time>
      </trkpt>
      <trkpt lat="49.25789" lon="-0.09484">
        <ele>10.2</ele>
        <time>2024-09-22T09:48:18Z</time>
      </trkpt>
      <trkpt lat="49.25798" lon="-0.0948">
        <ele>10.2</ele>
        <time>2024-09-22T09:48:19Z</time>
      </trkpt>
      <trkpt lat="49.25808" lon="-0.09478">
        <ele>10.2</ele>
        <time>2024-09-22T09:48:20Z</time>
      </trkpt>
      <trkpt lat="49.25817" lon="-0.09478">
        <ele>10.4</ele>
        <time>2024-09-22T09:48:21Z</time>
      </trkpt>
      <trkpt lat="49.25825" lon="-0.09478">
        <ele>10.4</ele>
        <time>2024-09-22T09:48:22Z</time>
      </trkpt>
      <trkpt lat="49.25831" lon="-0.09478">
        <ele>10.4</ele>
        <time>2024-09-22T09:48:23Z</time>
      </trkpt>
      <trkpt lat="49.25836" lon="-0.09478">
        <ele>10.4</ele>
        <time>2024-09-22T09:48:24Z</time>
      </trkpt>
      <trkpt lat="49.2584" lon="-0.09478">
        <ele>10.4</ele>
        <time>2024-09-22T09:48:25Z</time>
      </trkpt>
      <trkpt lat="49.25842" lon="-0.09478">
        <ele>10.6</ele>
        <time>2024-09-22T09:48:26Z</time>
      </trkpt>
      <trkpt lat="49.25846" lon="-0.09478">
        <ele>10.6</ele>
        <time>2024-09-22T09:48:27Z</time>
      </trkpt>
      <trkpt lat="49.2585" lon="-0.09479">
        <ele>10.8</ele>
        <time>2024-09-22T09:48:28Z</time>
      </trkpt>
      <trkpt lat="49.25854" lon="-0.0948">
        <ele>11.2</ele>
        <time>2024-09-22T09:48:29Z</time>
      </trkpt>
      <trkpt lat="49.25861" lon="-0.0948">
        <ele>11.4</ele>
        <time>2024-09-22T09:48:30Z</time>
      </trkpt>
      <trkpt lat="49.25866" lon="-0.0948">
        <ele>11.8</ele>
        <time>2024-09-22T09:48:31Z</time>
      </trkpt>
      <trkpt lat="49.25871" lon="-0.09481">
        <ele>12</ele>
        <time>2024-09-22T09:48:32Z</time>
      </trkpt>
      <trkpt lat="49.25876" lon="-0.09483">
        <ele>12.6</ele>
        <time>2024-09-22T09:48:33Z</time>
      </trkpt>
      <trkpt lat="49.25881" lon="-0.09484">
        <ele>12.8</ele>
        <time>2024-09-22T09:48:34Z</time>
      </trkpt>
      <trkpt lat="49.25886" lon="-0.09484">
        <ele>13</ele>
        <time>2024-09-22T09:48:35Z</time>
      </trkpt>
      <trkpt lat="49.25891" lon="-0.09484">
        <ele>13</ele>
        <time>2024-09-22T09:48:36Z</time>
      </trkpt>
      <trkpt lat="49.25896" lon="-0.09485">
        <ele>13.2</ele>
        <time>2024-09-22T09:48:37Z</time>
      </trkpt>
      <trkpt lat="49.25901" lon="-0.09486">
        <ele>13.2</ele>
        <time>2024-09-22T09:48:38Z</time>
      </trkpt>
      <trkpt lat="49.25905" lon="-0.09487">
        <ele>13.2</ele>
        <time>2024-09-22T09:48:39Z</time>
      </trkpt>
      <trkpt lat="49.25911" lon="-0.09488">
        <ele>13.2</ele>
        <time>2024-09-22T09:48:40Z</time>
      </trkpt>
      <trkpt lat="49.25917" lon="-0.09488">
        <ele>13.2</ele>
        <time>2024-09-22T09:48:41Z</time>
      </trkpt>
      <trkpt lat="49.25923" lon="-0.09489">
        <ele>13.2</ele>
        <time>2024-09-22T09:48:42Z</time>
      </trkpt>
      <trkpt lat="49.25929" lon="-0.09489">
        <ele>13.4</ele>
        <time>2024-09-22T09:48:43Z</time>
      </trkpt>
      <trkpt lat="49.25935" lon="-0.09489">
        <ele>13.4</ele>
        <time>2024-09-22T09:48:44Z</time>
      </trkpt>
      <trkpt lat="49.2594" lon="-0.09488">
        <ele>13.4</ele>
        <time>2024-09-22T09:48:45Z</time>
      </trkpt>
      <trkpt lat="49.25946" lon="-0.09487">
        <ele>13.6</ele>
        <time>2024-09-22T09:48:46Z</time>
      </trkpt>
      <trkpt lat="49.25952" lon="-0.09486">
        <ele>13.6</ele>
        <time>2024-09-22T09:48:47Z</time>
      </trkpt>
      <trkpt lat="49.25957" lon="-0.09485">
        <ele>13.8</ele>
        <time>2024-09-22T09:48:48Z</time>
      </trkpt>
      <trkpt lat="49.25962" lon="-0.09483">
        <ele>13.8</ele>
        <time>2024-09-22T09:48:49Z</time>
      </trkpt>
      <trkpt lat="49.25966" lon="-0.09481">
        <ele>14</ele>
        <time>2024-09-22T09:48:50Z</time>
      </trkpt>
      <trkpt lat="49.25971" lon="-0.09479">
        <ele>14</ele>
        <time>2024-09-22T09:48:51Z</time>
      </trkpt>
      <trkpt lat="49.25977" lon="-0.09478">
        <ele>14.2</ele>
        <time>2024-09-22T09:48:52Z</time>
      </trkpt>
      <trkpt lat="49.25982" lon="-0.09476">
        <ele>14.4</ele>
        <time>2024-09-22T09:48:53Z</time>
      </trkpt>
      <trkpt lat="49.25988" lon="-0.09474">
        <ele>14.6</ele>
        <time>2024-09-22T09:48:54Z</time>
      </trkpt>
      <trkpt lat="49.25993" lon="-0.09473">
        <ele>15</ele>
        <time>2024-09-22T09:48:55Z</time>
      </trkpt>
      <trkpt lat="49.25998" lon="-0.09471">
        <ele>15.2</ele>
        <time>2024-09-22T09:48:56Z</time>
      </trkpt>
      <trkpt lat="49.26004" lon="-0.0947">
        <ele>15.4</ele>
        <time>2024-09-22T09:48:57Z</time>
      </trkpt>
      <trkpt lat="49.26009" lon="-0.09469">
        <ele>15.6</ele>
        <time>2024-09-22T09:48:58Z</time>
      </trkpt>
      <trkpt lat="49.26013" lon="-0.09468">
        <ele>15.8</ele>
        <time>2024-09-22T09:48:59Z</time>
      </trkpt>
      <trkpt lat="49.26019" lon="-0.09466">
        <ele>15.8</ele>
        <time>2024-09-22T09:49:00Z</time>
      </trkpt>
      <trkpt lat="49.26024" lon="-0.09465">
        <ele>16</ele>
        <time>2024-09-22T09:49:01Z</time>
      </trkpt>
      <trkpt lat="49.2603" lon="-0.09464">
        <ele>16</ele>
        <time>2024-09-22T09:49:02Z</time>
      </trkpt>
      <trkpt lat="49.26036" lon="-0.09463">
        <ele>16</ele>
        <time>2024-09-22T09:49:03Z</time>
      </trkpt>
      <trkpt lat="49.26043" lon="-0.09461">
        <ele>16</ele>
        <time>2024-09-22T09:49:04Z</time>
      </trkpt>
      <trkpt lat="49.2605" lon="-0.0946">
        <ele>16</ele>
        <time>2024-09-22T09:49:05Z</time>
      </trkpt>
      <trkpt lat="49.26056" lon="-0.09459">
        <ele>16</ele>
        <time>2024-09-22T09:49:06Z</time>
      </trkpt>
      <trkpt lat="49.26062" lon="-0.09458">
        <ele>16</ele>
        <time>2024-09-22T09:49:07Z</time>
      </trkpt>
      <trkpt lat="49.26069" lon="-0.09457">
        <ele>16</ele>
        <time>2024-09-22T09:49:08Z</time>
      </trkpt>
      <trkpt lat="49.26075" lon="-0.09456">
        <ele>16</ele>
        <time>2024-09-22T09:49:09Z</time>
      </trkpt>
      <trkpt lat="49.26082" lon="-0.09455">
        <ele>16</ele>
        <time>2024-09-22T09:49:10Z</time>
      </trkpt>
      <trkpt lat="49.26088" lon="-0.09453">
        <ele>16</ele>
        <time>2024-09-22T09:49:11Z</time>
      </trkpt>
      <trkpt lat="49.26095" lon="-0.09451">
        <ele>16</ele>
        <time>2024-09-22T09:49:12Z</time>
      </trkpt>
      <trkpt lat="49.261" lon="-0.0945">
        <ele>16</ele>
        <time>2024-09-22T09:49:13Z</time>
      </trkpt>
      <trkpt lat="49.26107" lon="-0.09449">
        <ele>15.8</ele>
        <time>2024-09-22T09:49:14Z</time>
      </trkpt>
      <trkpt lat="49.26113" lon="-0.09448">
        <ele>15.8</ele>
        <time>2024-09-22T09:49:15Z</time>
      </trkpt>
      <trkpt lat="49.26121" lon="-0.09446">
        <ele>15.8</ele>
        <time>2024-09-22T09:49:16Z</time>
      </trkpt>
      <trkpt lat="49.26128" lon="-0.09445">
        <ele>15.8</ele>
        <time>2024-09-22T09:49:17Z</time>
      </trkpt>
      <trkpt lat="49.26135" lon="-0.09444">
        <ele>15.8</ele>
        <time>2024-09-22T09:49:18Z</time>
      </trkpt>
      <trkpt lat="49.26142" lon="-0.09444">
        <ele>15.8</ele>
        <time>2024-09-22T09:49:19Z</time>
      </trkpt>
      <trkpt lat="49.26148" lon="-0.09444">
        <ele>15.8</ele>
        <time>2024-09-22T09:49:20Z</time>
      </trkpt>
      <trkpt lat="49.26155" lon="-0.09445">
        <ele>15.8</ele>
        <time>2024-09-22T09:49:21Z</time>
      </trkpt>
      <trkpt lat="49.26162" lon="-0.09447">
        <ele>15.6</ele>
        <time>2024-09-22T09:49:22Z</time>
      </trkpt>
      <trkpt lat="49.26171" lon="-0.0945">
        <ele>15.6</ele>
        <time>2024-09-22T09:49:23Z</time>
      </trkpt>
      <trkpt lat="49.26178" lon="-0.09453">
        <ele>15.6</ele>
        <time>2024-09-22T09:49:24Z</time>
      </trkpt>
      <trkpt lat="49.26185" lon="-0.09458">
        <ele>15.6</ele>
        <time>2024-09-22T09:49:25Z</time>
      </trkpt>
      <trkpt lat="49.2619" lon="-0.09461">
        <ele>15.6</ele>
        <time>2024-09-22T09:49:26Z</time>
      </trkpt>
      <trkpt lat="49.26199" lon="-0.09465">
        <ele>15.6</ele>
        <time>2024-09-22T09:49:27Z</time>
      </trkpt>
      <trkpt lat="49.26207" lon="-0.09468">
        <ele>15.6</ele>
        <time>2024-09-22T09:49:28Z</time>
      </trkpt>
      <trkpt lat="49.26214" lon="-0.09469">
        <ele>15.4</ele>
        <time>2024-09-22T09:49:29Z</time>
      </trkpt>
      <trkpt lat="49.26222" lon="-0.09469">
        <ele>15.2</ele>
        <time>2024-09-22T09:49:30Z</time>
      </trkpt>
      <trkpt lat="49.26229" lon="-0.09467">
        <ele>15</ele>
        <time>2024-09-22T09:49:31Z</time>
      </trkpt>
      <trkpt lat="49.26236" lon="-0.09464">
        <ele>14.8</ele>
        <time>2024-09-22T09:49:32Z</time>
      </trkpt>
      <trkpt lat="49.26243" lon="-0.09461">
        <ele>14.6</ele>
        <time>2024-09-22T09:49:33Z</time>
      </trkpt>
      <trkpt lat="49.26249" lon="-0.09457">
        <ele>14.6</ele>
        <time>2024-09-22T09:49:34Z</time>
      </trkpt>
      <trkpt lat="49.26254" lon="-0.09454">
        <ele>14.6</ele>
        <time>2024-09-22T09:49:35Z</time>
      </trkpt>
      <trkpt lat="49.26262" lon="-0.09449">
        <ele>14.4</ele>
        <time>2024-09-22T09:49:36Z</time>
      </trkpt>
      <trkpt lat="49.26268" lon="-0.09445">
        <ele>14.4</ele>
        <time>2024-09-22T09:49:37Z</time>
      </trkpt>
      <trkpt lat="49.26274" lon="-0.09441">
        <ele>14.4</ele>
        <time>2024-09-22T09:49:38Z</time>
      </trkpt>
      <trkpt lat="49.2628" lon="-0.09436">
        <ele>14.4</ele>
        <time>2024-09-22T09:49:39Z</time>
      </trkpt>
      <trkpt lat="49.26286" lon="-0.09432">
        <ele>14.4</ele>
        <time>2024-09-22T09:49:40Z</time>
      </trkpt>
      <trkpt lat="49.26292" lon="-0.09429">
        <ele>14.4</ele>
        <time>2024-09-22T09:49:41Z</time>
      </trkpt>
      <trkpt lat="49.26299" lon="-0.09426">
        <ele>14.4</ele>
        <time>2024-09-22T09:49:42Z</time>
      </trkpt>
      <trkpt lat="49.26304" lon="-0.09424">
        <ele>14.4</ele>
        <time>2024-09-22T09:49:43Z</time>
      </trkpt>
      <trkpt lat="49.26312" lon="-0.0942">
        <ele>14.6</ele>
        <time>2024-09-22T09:49:44Z</time>
      </trkpt>
      <trkpt lat="49.26318" lon="-0.09419">
        <ele>14.8</ele>
        <time>2024-09-22T09:49:45Z</time>
      </trkpt>
      <trkpt lat="49.26325" lon="-0.09418">
        <ele>15.2</ele>
        <time>2024-09-22T09:49:46Z</time>
      </trkpt>
      <trkpt lat="49.26331" lon="-0.09417">
        <ele>15.2</ele>
        <time>2024-09-22T09:49:47Z</time>
      </trkpt>
      <trkpt lat="49.26337" lon="-0.09416">
        <ele>15.4</ele>
        <time>2024-09-22T09:49:48Z</time>
      </trkpt>
      <trkpt lat="49.26345" lon="-0.09415">
        <ele>15.8</ele>
        <time>2024-09-22T09:49:49Z</time>
      </trkpt>
      <trkpt lat="49.26352" lon="-0.09414">
        <ele>16</ele>
        <time>2024-09-22T09:49:50Z</time>
      </trkpt>
      <trkpt lat="49.26359" lon="-0.09415">
        <ele>16.4</ele>
        <time>2024-09-22T09:49:51Z</time>
      </trkpt>
      <trkpt lat="49.26366" lon="-0.09415">
        <ele>16.8</ele>
        <time>2024-09-22T09:49:52Z</time>
      </trkpt>
      <trkpt lat="49.26371" lon="-0.09415">
        <ele>17.2</ele>
        <time>2024-09-22T09:49:53Z</time>
      </trkpt>
      <trkpt lat="49.26378" lon="-0.09415">
        <ele>17.4</ele>
        <time>2024-09-22T09:49:54Z</time>
      </trkpt>
      <trkpt lat="49.26386" lon="-0.09415">
        <ele>17.6</ele>
        <time>2024-09-22T09:49:55Z</time>
      </trkpt>
      <trkpt lat="49.26393" lon="-0.09415">
        <ele>18.2</ele>
        <time>2024-09-22T09:49:56Z</time>
      </trkpt>
      <trkpt lat="49.264" lon="-0.09415">
        <ele>18.4</ele>
        <time>2024-09-22T09:49:57Z</time>
      </trkpt>
      <trkpt lat="49.26407" lon="-0.09416">
        <ele>18.8</ele>
        <time>2024-09-22T09:49:58Z</time>
      </trkpt>
      <trkpt lat="49.26414" lon="-0.09416">
        <ele>19</ele>
        <time>2024-09-22T09:49:59Z</time>
      </trkpt>
      <trkpt lat="49.26421" lon="-0.09416">
        <ele>19</ele>
        <time>2024-09-22T09:50:00Z</time>
      </trkpt>
      <trkpt lat="49.26427" lon="-0.09416">
        <ele>19.2</ele>
        <time>2024-09-22T09:50:01Z</time>
      </trkpt>
      <trkpt lat="49.26434" lon="-0.09416">
        <ele>19.2</ele>
        <time>2024-09-22T09:50:02Z</time>
      </trkpt>
      <trkpt lat="49.26441" lon="-0.09416">
        <ele>19.4</ele>
        <time>2024-09-22T09:50:03Z</time>
      </trkpt>
      <trkpt lat="49.26447" lon="-0.09416">
        <ele>19.4</ele>
        <time>2024-09-22T09:50:04Z</time>
      </trkpt>
      <trkpt lat="49.26455" lon="-0.09417">
        <ele>19.6</ele>
        <time>2024-09-22T09:50:05Z</time>
      </trkpt>
      <trkpt lat="49.26462" lon="-0.09417">
        <ele>19.6</ele>
        <time>2024-09-22T09:50:06Z</time>
      </trkpt>
      <trkpt lat="49.26469" lon="-0.09417">
        <ele>19.6</ele>
        <time>2024-09-22T09:50:07Z</time>
      </trkpt>
      <trkpt lat="49.26477" lon="-0.09418">
        <ele>19.6</ele>
        <time>2024-09-22T09:50:08Z</time>
      </trkpt>
      <trkpt lat="49.26485" lon="-0.09417">
        <ele>19.6</ele>
        <time>2024-09-22T09:50:09Z</time>
      </trkpt>
      <trkpt lat="49.26493" lon="-0.09417">
        <ele>19.6</ele>
        <time>2024-09-22T09:50:10Z</time>
      </trkpt>
      <trkpt lat="49.26501" lon="-0.09417">
        <ele>19.6</ele>
        <time>2024-09-22T09:50:11Z</time>
      </trkpt>
      <trkpt lat="49.26508" lon="-0.09417">
        <ele>19.6</ele>
        <time>2024-09-22T09:50:12Z</time>
      </trkpt>
      <trkpt lat="49.26516" lon="-0.09418">
        <ele>19.6</ele>
        <time>2024-09-22T09:50:13Z</time>
      </trkpt>
      <trkpt lat="49.26527" lon="-0.09418">
        <ele>19.6</ele>
        <time>2024-09-22T09:50:14Z</time>
      </trkpt>
      <trkpt lat="49.26536" lon="-0.09419">
        <ele>19.6</ele>
        <time>2024-09-22T09:50:15Z</time>
      </trkpt>
      <trkpt lat="49.26546" lon="-0.09419">
        <ele>19.6</ele>
        <time>2024-09-22T09:50:16Z</time>
      </trkpt>
      <trkpt lat="49.26555" lon="-0.0942">
        <ele>19.6</ele>
        <time>2024-09-22T09:50:17Z</time>
      </trkpt>
      <trkpt lat="49.26565" lon="-0.09419">
        <ele>19.6</ele>
        <time>2024-09-22T09:50:18Z</time>
      </trkpt>
      <trkpt lat="49.26574" lon="-0.09419">
        <ele>19.4</ele>
        <time>2024-09-22T09:50:19Z</time>
      </trkpt>
      <trkpt lat="49.26584" lon="-0.0942">
        <ele>19.4</ele>
        <time>2024-09-22T09:50:20Z</time>
      </trkpt>
      <trkpt lat="49.26594" lon="-0.0942">
        <ele>19</ele>
        <time>2024-09-22T09:50:21Z</time>
      </trkpt>
      <trkpt lat="49.26604" lon="-0.09421">
        <ele>18.6</ele>
        <time>2024-09-22T09:50:22Z</time>
      </trkpt>
      <trkpt lat="49.26614" lon="-0.09421">
        <ele>18.2</ele>
        <time>2024-09-22T09:50:23Z</time>
      </trkpt>
      <trkpt lat="49.26625" lon="-0.09422">
        <ele>18</ele>
        <time>2024-09-22T09:50:24Z</time>
      </trkpt>
      <trkpt lat="49.26635" lon="-0.09422">
        <ele>17.8</ele>
        <time>2024-09-22T09:50:25Z</time>
      </trkpt>
      <trkpt lat="49.26646" lon="-0.09423">
        <ele>17.6</ele>
        <time>2024-09-22T09:50:26Z</time>
      </trkpt>
      <trkpt lat="49.26654" lon="-0.09424">
        <ele>17</ele>
        <time>2024-09-22T09:50:27Z</time>
      </trkpt>
      <trkpt lat="49.26667" lon="-0.09425">
        <ele>16.6</ele>
        <time>2024-09-22T09:50:28Z</time>
      </trkpt>
      <trkpt lat="49.26678" lon="-0.09425">
        <ele>16.4</ele>
        <time>2024-09-22T09:50:29Z</time>
      </trkpt>
      <trkpt lat="49.26688" lon="-0.09425">
        <ele>16.4</ele>
        <time>2024-09-22T09:50:30Z</time>
      </trkpt>
      <trkpt lat="49.26698" lon="-0.09425">
        <ele>16</ele>
        <time>2024-09-22T09:50:31Z</time>
      </trkpt>
      <trkpt lat="49.26708" lon="-0.09425">
        <ele>15.6</ele>
        <time>2024-09-22T09:50:32Z</time>
      </trkpt>
      <trkpt lat="49.26718" lon="-0.09425">
        <ele>15.2</ele>
        <time>2024-09-22T09:50:33Z</time>
      </trkpt>
      <trkpt lat="49.26728" lon="-0.09424">
        <ele>14.4</ele>
        <time>2024-09-22T09:50:34Z</time>
      </trkpt>
      <trkpt lat="49.26737" lon="-0.09424">
        <ele>13.8</ele>
        <time>2024-09-22T09:50:35Z</time>
      </trkpt>
      <trkpt lat="49.26746" lon="-0.09424">
        <ele>13.2</ele>
        <time>2024-09-22T09:50:36Z</time>
      </trkpt>
      <trkpt lat="49.26755" lon="-0.09424">
        <ele>13</ele>
        <time>2024-09-22T09:50:37Z</time>
      </trkpt>
      <trkpt lat="49.26764" lon="-0.09424">
        <ele>12.8</ele>
        <time>2024-09-22T09:50:38Z</time>
      </trkpt>
      <trkpt lat="49.26773" lon="-0.09424">
        <ele>12.8</ele>
        <time>2024-09-22T09:50:39Z</time>
      </trkpt>
      <trkpt lat="49.26782" lon="-0.09424">
        <ele>12.6</ele>
        <time>2024-09-22T09:50:40Z</time>
      </trkpt>
      <trkpt lat="49.2679" lon="-0.09423">
        <ele>12.6</ele>
        <time>2024-09-22T09:50:41Z</time>
      </trkpt>
      <trkpt lat="49.26799" lon="-0.09423">
        <ele>12.6</ele>
        <time>2024-09-22T09:50:42Z</time>
      </trkpt>
      <trkpt lat="49.26807" lon="-0.09423">
        <ele>12.6</ele>
        <time>2024-09-22T09:50:43Z</time>
      </trkpt>
      <trkpt lat="49.26815" lon="-0.09423">
        <ele>12.6</ele>
        <time>2024-09-22T09:50:44Z</time>
      </trkpt>
      <trkpt lat="49.26821" lon="-0.09423">
        <ele>12.6</ele>
        <time>2024-09-22T09:50:45Z</time>
      </trkpt>
      <trkpt lat="49.26829" lon="-0.09423">
        <ele>12.8</ele>
        <time>2024-09-22T09:50:46Z</time>
      </trkpt>
      <trkpt lat="49.26838" lon="-0.09424">
        <ele>13</ele>
        <time>2024-09-22T09:50:47Z</time>
      </trkpt>
      <trkpt lat="49.26845" lon="-0.09423">
        <ele>13.4</ele>
        <time>2024-09-22T09:50:48Z</time>
      </trkpt>
      <trkpt lat="49.2685" lon="-0.09423">
        <ele>13.8</ele>
        <time>2024-09-22T09:50:49Z</time>
      </trkpt>
      <trkpt lat="49.26856" lon="-0.09424">
        <ele>14.2</ele>
        <time>2024-09-22T09:50:50Z</time>
      </trkpt>
      <trkpt lat="49.26864" lon="-0.09423">
        <ele>14.2</ele>
        <time>2024-09-22T09:50:51Z</time>
      </trkpt>
      <trkpt lat="49.26871" lon="-0.09423">
        <ele>14.6</ele>
        <time>2024-09-22T09:50:52Z</time>
      </trkpt>
      <trkpt lat="49.26877" lon="-0.09423">
        <ele>15.2</ele>
        <time>2024-09-22T09:50:53Z</time>
      </trkpt>
      <trkpt lat="49.26884" lon="-0.09421">
        <ele>15.6</ele>
        <time>2024-09-22T09:50:54Z</time>
      </trkpt>
      <trkpt lat="49.2689" lon="-0.0942">
        <ele>16.2</ele>
        <time>2024-09-22T09:50:55Z</time>
      </trkpt>
      <trkpt lat="49.26897" lon="-0.09419">
        <ele>16.6</ele>
        <time>2024-09-22T09:50:56Z</time>
      </trkpt>
      <trkpt lat="49.26903" lon="-0.09418">
        <ele>16.8</ele>
        <time>2024-09-22T09:50:57Z</time>
      </trkpt>
      <trkpt lat="49.2691" lon="-0.09417">
        <ele>17.2</ele>
        <time>2024-09-22T09:50:58Z</time>
      </trkpt>
      <trkpt lat="49.26917" lon="-0.09418">
        <ele>17.6</ele>
        <time>2024-09-22T09:50:59Z</time>
      </trkpt>
      <trkpt lat="49.26923" lon="-0.09418">
        <ele>18</ele>
        <time>2024-09-22T09:51:00Z</time>
      </trkpt>
      <trkpt lat="49.2693" lon="-0.09418">
        <ele>18.4</ele>
        <time>2024-09-22T09:51:01Z</time>
      </trkpt>
      <trkpt lat="49.26936" lon="-0.09417">
        <ele>18.8</ele>
        <time>2024-09-22T09:51:02Z</time>
      </trkpt>
      <trkpt lat="49.26943" lon="-0.09417">
        <ele>19.2</ele>
        <time>2024-09-22T09:51:03Z</time>
      </trkpt>
      <trkpt lat="49.2695" lon="-0.09416">
        <ele>19.6</ele>
        <time>2024-09-22T09:51:04Z</time>
      </trkpt>
      <trkpt lat="49.26957" lon="-0.09416">
        <ele>20</ele>
        <time>2024-09-22T09:51:05Z</time>
      </trkpt>
      <trkpt lat="49.26964" lon="-0.09415">
        <ele>20.6</ele>
        <time>2024-09-22T09:51:06Z</time>
      </trkpt>
      <trkpt lat="49.26971" lon="-0.09414">
        <ele>21.2</ele>
        <time>2024-09-22T09:51:07Z</time>
      </trkpt>
      <trkpt lat="49.26977" lon="-0.09414">
        <ele>21.6</ele>
        <time>2024-09-22T09:51:08Z</time>
      </trkpt>
      <trkpt lat="49.26983" lon="-0.09415">
        <ele>22.2</ele>
        <time>2024-09-22T09:51:09Z</time>
      </trkpt>
      <trkpt lat="49.2699" lon="-0.09415">
        <ele>22.6</ele>
        <time>2024-09-22T09:51:10Z</time>
      </trkpt>
      <trkpt lat="49.26998" lon="-0.09415">
        <ele>23.2</ele>
        <time>2024-09-22T09:51:11Z</time>
      </trkpt>
      <trkpt lat="49.27005" lon="-0.09416">
        <ele>23.2</ele>
        <time>2024-09-22T09:51:12Z</time>
      </trkpt>
      <trkpt lat="49.27012" lon="-0.09417">
        <ele>23.8</ele>
        <time>2024-09-22T09:51:13Z</time>
      </trkpt>
      <trkpt lat="49.27019" lon="-0.09417">
        <ele>24.2</ele>
        <time>2024-09-22T09:51:14Z</time>
      </trkpt>
      <trkpt lat="49.27027" lon="-0.09419">
        <ele>24.8</ele>
        <time>2024-09-22T09:51:15Z</time>
      </trkpt>
      <trkpt lat="49.27035" lon="-0.09421">
        <ele>25.4</ele>
        <time>2024-09-22T09:51:16Z</time>
      </trkpt>
      <trkpt lat="49.27042" lon="-0.09424">
        <ele>25.8</ele>
        <time>2024-09-22T09:51:17Z</time>
      </trkpt>
      <trkpt lat="49.27049" lon="-0.09429">
        <ele>26</ele>
        <time>2024-09-22T09:51:18Z</time>
      </trkpt>
      <trkpt lat="49.27057" lon="-0.09435">
        <ele>26</ele>
        <time>2024-09-22T09:51:19Z</time>
      </trkpt>
      <trkpt lat="49.27063" lon="-0.09442">
        <ele>26.2</ele>
        <time>2024-09-22T09:51:20Z</time>
      </trkpt>
      <trkpt lat="49.27071" lon="-0.0945">
        <ele>26.2</ele>
        <time>2024-09-22T09:51:21Z</time>
      </trkpt>
      <trkpt lat="49.27079" lon="-0.09457">
        <ele>26.2</ele>
        <time>2024-09-22T09:51:22Z</time>
      </trkpt>
      <trkpt lat="49.27087" lon="-0.09464">
        <ele>26.2</ele>
        <time>2024-09-22T09:51:23Z</time>
      </trkpt>
      <trkpt lat="49.27093" lon="-0.09469">
        <ele>26.2</ele>
        <time>2024-09-22T09:51:24Z</time>
      </trkpt>
      <trkpt lat="49.27102" lon="-0.09475">
        <ele>26.2</ele>
        <time>2024-09-22T09:51:25Z</time>
      </trkpt>
      <trkpt lat="49.27113" lon="-0.0948">
        <ele>26.2</ele>
        <time>2024-09-22T09:51:26Z</time>
      </trkpt>
      <trkpt lat="49.27122" lon="-0.09485">
        <ele>26.2</ele>
        <time>2024-09-22T09:51:27Z</time>
      </trkpt>
      <trkpt lat="49.27131" lon="-0.0949">
        <ele>26</ele>
        <time>2024-09-22T09:51:28Z</time>
      </trkpt>
      <trkpt lat="49.27141" lon="-0.09495">
        <ele>25.8</ele>
        <time>2024-09-22T09:51:29Z</time>
      </trkpt>
      <trkpt lat="49.27151" lon="-0.09501">
        <ele>25.6</ele>
        <time>2024-09-22T09:51:30Z</time>
      </trkpt>
      <trkpt lat="49.2716" lon="-0.09507">
        <ele>25.4</ele>
        <time>2024-09-22T09:51:31Z</time>
      </trkpt>
      <trkpt lat="49.27168" lon="-0.09512">
        <ele>25</ele>
        <time>2024-09-22T09:51:32Z</time>
      </trkpt>
      <trkpt lat="49.27179" lon="-0.09518">
        <ele>25</ele>
        <time>2024-09-22T09:51:33Z</time>
      </trkpt>
      <trkpt lat="49.27189" lon="-0.09523">
        <ele>24.6</ele>
        <time>2024-09-22T09:51:34Z</time>
      </trkpt>
      <trkpt lat="49.272" lon="-0.09527">
        <ele>24.4</ele>
        <time>2024-09-22T09:51:35Z</time>
      </trkpt>
      <trkpt lat="49.27214" lon="-0.09532">
        <ele>24</ele>
        <time>2024-09-22T09:51:36Z</time>
      </trkpt>
      <trkpt lat="49.27224" lon="-0.09534">
        <ele>23.4</ele>
        <time>2024-09-22T09:51:37Z</time>
      </trkpt>
      <trkpt lat="49.27239" lon="-0.09537">
        <ele>23</ele>
        <time>2024-09-22T09:51:38Z</time>
      </trkpt>
      <trkpt lat="49.27251" lon="-0.09541">
        <ele>22.2</ele>
        <time>2024-09-22T09:51:39Z</time>
      </trkpt>
      <trkpt lat="49.27263" lon="-0.09544">
        <ele>21.6</ele>
        <time>2024-09-22T09:51:40Z</time>
      </trkpt>
      <trkpt lat="49.27276" lon="-0.09547">
        <ele>20.8</ele>
        <time>2024-09-22T09:51:41Z</time>
      </trkpt>
      <trkpt lat="49.27288" lon="-0.0955">
        <ele>20</ele>
        <time>2024-09-22T09:51:42Z</time>
      </trkpt>
      <trkpt lat="49.27298" lon="-0.09552">
        <ele>18.8</ele>
        <time>2024-09-22T09:51:43Z</time>
      </trkpt>
      <trkpt lat="49.27312" lon="-0.09556">
        <ele>18</ele>
        <time>2024-09-22T09:51:44Z</time>
      </trkpt>
      <trkpt lat="49.27325" lon="-0.09559">
        <ele>17.4</ele>
        <time>2024-09-22T09:51:45Z</time>
      </trkpt>
      <trkpt lat="49.27337" lon="-0.09562">
        <ele>16.8</ele>
        <time>2024-09-22T09:51:46Z</time>
      </trkpt>
      <trkpt lat="49.27349" lon="-0.09565">
        <ele>15.8</ele>
        <time>2024-09-22T09:51:47Z</time>
      </trkpt>
      <trkpt lat="49.27361" lon="-0.09569">
        <ele>14.8</ele>
        <time>2024-09-22T09:51:48Z</time>
      </trkpt>
      <trkpt lat="49.27371" lon="-0.09572">
        <ele>14.2</ele>
        <time>2024-09-22T09:51:49Z</time>
      </trkpt>
      <trkpt lat="49.27385" lon="-0.09578">
        <ele>13.8</ele>
        <time>2024-09-22T09:51:50Z</time>
      </trkpt>
      <trkpt lat="49.27395" lon="-0.09581">
        <ele>13.2</ele>
        <time>2024-09-22T09:51:51Z</time>
      </trkpt>
      <trkpt lat="49.27409" lon="-0.09586">
        <ele>12.8</ele>
        <time>2024-09-22T09:51:52Z</time>
      </trkpt>
      <trkpt lat="49.27421" lon="-0.09588">
        <ele>12.4</ele>
        <time>2024-09-22T09:51:53Z</time>
      </trkpt>
      <trkpt lat="49.27433" lon="-0.09588">
        <ele>12.4</ele>
        <time>2024-09-22T09:51:54Z</time>
      </trkpt>
      <trkpt lat="49.27445" lon="-0.09586">
        <ele>12.2</ele>
        <time>2024-09-22T09:51:55Z</time>
      </trkpt>
      <trkpt lat="49.27457" lon="-0.09585">
        <ele>11.6</ele>
        <time>2024-09-22T09:51:56Z</time>
      </trkpt>
      <trkpt lat="49.27468" lon="-0.09583">
        <ele>11</ele>
        <time>2024-09-22T09:51:57Z</time>
      </trkpt>
      <trkpt lat="49.27479" lon="-0.0958">
        <ele>10.4</ele>
        <time>2024-09-22T09:51:58Z</time>
      </trkpt>
      <trkpt lat="49.27488" lon="-0.09579">
        <ele>10</ele>
        <time>2024-09-22T09:51:59Z</time>
      </trkpt>
      <trkpt lat="49.27499" lon="-0.09577">
        <ele>9.6</ele>
        <time>2024-09-22T09:52:00Z</time>
      </trkpt>
      <trkpt lat="49.27511" lon="-0.09574">
        <ele>9.4</ele>
        <time>2024-09-22T09:52:01Z</time>
      </trkpt>
      <trkpt lat="49.27521" lon="-0.09571">
        <ele>8.8</ele>
        <time>2024-09-22T09:52:02Z</time>
      </trkpt>
      <trkpt lat="49.27529" lon="-0.09568">
        <ele>8.4</ele>
        <time>2024-09-22T09:52:03Z</time>
      </trkpt>
      <trkpt lat="49.27537" lon="-0.09565">
        <ele>8.2</ele>
        <time>2024-09-22T09:52:04Z</time>
      </trkpt>
      <trkpt lat="49.27544" lon="-0.09562">
        <ele>8.2</ele>
        <time>2024-09-22T09:52:05Z</time>
      </trkpt>
      <trkpt lat="49.27548" lon="-0.0956">
        <ele>8</ele>
        <time>2024-09-22T09:52:06Z</time>
      </trkpt>
      <trkpt lat="49.27553" lon="-0.09557">
        <ele>8</ele>
        <time>2024-09-22T09:52:07Z</time>
      </trkpt>
      <trkpt lat="49.27556" lon="-0.09556">
        <ele>8</ele>
        <time>2024-09-22T09:52:08Z</time>
      </trkpt>
      <trkpt lat="49.27558" lon="-0.09555">
        <ele>8</ele>
        <time>2024-09-22T09:52:09Z</time>
      </trkpt>
      <trkpt lat="49.27559" lon="-0.09555">
        <ele>8</ele>
        <time>2024-09-22T09:52:10Z</time>
      </trkpt>
      <trkpt lat="49.2756" lon="-0.09555">
        <ele>8</ele>
        <time>2024-09-22T09:52:11Z</time>
      </trkpt>
      <trkpt lat="49.2756" lon="-0.09555">
        <ele>8</ele>
        <time>2024-09-22T09:52:12Z</time>
      </trkpt>
      <trkpt lat="49.27564" lon="-0.09552">
        <ele>10</ele>
        <time>2024-09-22T09:52:28Z</time>
      </trkpt>
      <trkpt lat="49.27565" lon="-0.09552">
        <ele>10</ele>
        <time>2024-09-22T09:52:29Z</time>
      </trkpt>
      <trkpt lat="49.27567" lon="-0.09551">
        <ele>10</ele>
        <time>2024-09-22T09:52:30Z</time>
      </trkpt>
      <trkpt lat="49.27569" lon="-0.09551">
        <ele>10</ele>
        <time>2024-09-22T09:52:31Z</time>
      </trkpt>
      <trkpt lat="49.27571" lon="-0.09551">
        <ele>10</ele>
        <time>2024-09-22T09:52:32Z</time>
      </trkpt>
      <trkpt lat="49.27574" lon="-0.09551">
        <ele>10</ele>
        <time>2024-09-22T09:52:33Z</time>
      </trkpt>
      <trkpt lat="49.27576" lon="-0.09551">
        <ele>10</ele>
        <time>2024-09-22T09:52:34Z</time>
      </trkpt>
      <trkpt lat="49.27579" lon="-0.09551">
        <ele>9.8</ele>
        <time>2024-09-22T09:52:35Z</time>
      </trkpt>
      <trkpt lat="49.27582" lon="-0.0955">
        <ele>9.8</ele>
        <time>2024-09-22T09:52:36Z</time>
      </trkpt>
      <trkpt lat="49.27584" lon="-0.0955">
        <ele>9.8</ele>
        <time>2024-09-22T09:52:37Z</time>
      </trkpt>
      <trkpt lat="49.27587" lon="-0.09549">
        <ele>9.8</ele>
        <time>2024-09-22T09:52:38Z</time>
      </trkpt>
      <trkpt lat="49.27589" lon="-0.09549">
        <ele>9.8</ele>
        <time>2024-09-22T09:52:39Z</time>
      </trkpt>
      <trkpt lat="49.27592" lon="-0.09549">
        <ele>9.8</ele>
        <time>2024-09-22T09:52:40Z</time>
      </trkpt>
      <trkpt lat="49.27594" lon="-0.09548">
        <ele>9.8</ele>
        <time>2024-09-22T09:52:41Z</time>
      </trkpt>
      <trkpt lat="49.27596" lon="-0.09548">
        <ele>9.8</ele>
        <time>2024-09-22T09:52:42Z</time>
      </trkpt>
      <trkpt lat="49.27599" lon="-0.09548">
        <ele>9.8</ele>
        <time>2024-09-22T09:52:43Z</time>
      </trkpt>
      <trkpt lat="49.27601" lon="-0.09548">
        <ele>9.8</ele>
        <time>2024-09-22T09:52:44Z</time>
      </trkpt>
      <trkpt lat="49.27604" lon="-0.09547">
        <ele>9.8</ele>
        <time>2024-09-22T09:52:45Z</time>
      </trkpt>
      <trkpt lat="49.27606" lon="-0.09547">
        <ele>9.8</ele>
        <time>2024-09-22T09:52:46Z</time>
      </trkpt>
      <trkpt lat="49.2761" lon="-0.09546">
        <ele>9.6</ele>
        <time>2024-09-22T09:52:47Z</time>
      </trkpt>
      <trkpt lat="49.27613" lon="-0.09546">
        <ele>9.6</ele>
        <time>2024-09-22T09:52:48Z</time>
      </trkpt>
      <trkpt lat="49.27617" lon="-0.09545">
        <ele>9.6</ele>
        <time>2024-09-22T09:52:49Z</time>
      </trkpt>
      <trkpt lat="49.27621" lon="-0.09545">
        <ele>9.4</ele>
        <time>2024-09-22T09:52:50Z</time>
      </trkpt>
      <trkpt lat="49.27627" lon="-0.09544">
        <ele>9.4</ele>
        <time>2024-09-22T09:52:51Z</time>
      </trkpt>
      <trkpt lat="49.27632" lon="-0.09544">
        <ele>9.4</ele>
        <time>2024-09-22T09:52:52Z</time>
      </trkpt>
      <trkpt lat="49.27636" lon="-0.09544">
        <ele>9.4</ele>
        <time>2024-09-22T09:52:53Z</time>
      </trkpt>
      <trkpt lat="49.27641" lon="-0.09543">
        <ele>9.4</ele>
        <time>2024-09-22T09:52:54Z</time>
      </trkpt>
      <trkpt lat="49.27645" lon="-0.09542">
        <ele>9.4</ele>
        <time>2024-09-22T09:52:55Z</time>
      </trkpt>
      <trkpt lat="49.27648" lon="-0.09542">
        <ele>9.4</ele>
        <time>2024-09-22T09:52:56Z</time>
      </trkpt>
      <trkpt lat="49.27653" lon="-0.09542">
        <ele>9.2</ele>
        <time>2024-09-22T09:52:57Z</time>
      </trkpt>
      <trkpt lat="49.27658" lon="-0.09542">
        <ele>9.2</ele>
        <time>2024-09-22T09:52:58Z</time>
      </trkpt>
      <trkpt lat="49.27662" lon="-0.09542">
        <ele>9.2</ele>
        <time>2024-09-22T09:52:59Z</time>
      </trkpt>
      <trkpt lat="49.27667" lon="-0.09543">
        <ele>9.2</ele>
        <time>2024-09-22T09:53:00Z</time>
      </trkpt>
      <trkpt lat="49.27672" lon="-0.09543">
        <ele>9.2</ele>
        <time>2024-09-22T09:53:01Z</time>
      </trkpt>
      <trkpt lat="49.27678" lon="-0.09543">
        <ele>9.2</ele>
        <time>2024-09-22T09:53:02Z</time>
      </trkpt>
      <trkpt lat="49.27683" lon="-0.09543">
        <ele>9.2</ele>
        <time>2024-09-22T09:53:03Z</time>
      </trkpt>
      <trkpt lat="49.27689" lon="-0.09543">
        <ele>9.2</ele>
        <time>2024-09-22T09:53:04Z</time>
      </trkpt>
      <trkpt lat="49.27695" lon="-0.09543">
        <ele>9.2</ele>
        <time>2024-09-22T09:53:05Z</time>
      </trkpt>
      <trkpt lat="49.27701" lon="-0.09543">
        <ele>9</ele>
        <time>2024-09-22T09:53:06Z</time>
      </trkpt>
      <trkpt lat="49.27706" lon="-0.09542">
        <ele>9</ele>
        <time>2024-09-22T09:53:07Z</time>
      </trkpt>
      <trkpt lat="49.27711" lon="-0.09542">
        <ele>9</ele>
        <time>2024-09-22T09:53:08Z</time>
      </trkpt>
      <trkpt lat="49.27716" lon="-0.09541">
        <ele>9</ele>
        <time>2024-09-22T09:53:09Z</time>
      </trkpt>
      <trkpt lat="49.27723" lon="-0.0954">
        <ele>9</ele>
        <time>2024-09-22T09:53:10Z</time>
      </trkpt>
      <trkpt lat="49.27728" lon="-0.09539">
        <ele>9</ele>
        <time>2024-09-22T09:53:11Z</time>
      </trkpt>
      <trkpt lat="49.27734" lon="-0.09538">
        <ele>9</ele>
        <time>2024-09-22T09:53:12Z</time>
      </trkpt>
      <trkpt lat="49.27739" lon="-0.09538">
        <ele>9</ele>
        <time>2024-09-22T09:53:13Z</time>
      </trkpt>
      <trkpt lat="49.27744" lon="-0.09537">
        <ele>9</ele>
        <time>2024-09-22T09:53:14Z</time>
      </trkpt>
      <trkpt lat="49.27748" lon="-0.09536">
        <ele>9.2</ele>
        <time>2024-09-22T09:53:15Z</time>
      </trkpt>
      <trkpt lat="49.27754" lon="-0.09535">
        <ele>9.2</ele>
        <time>2024-09-22T09:53:16Z</time>
      </trkpt>
      <trkpt lat="49.27759" lon="-0.09533">
        <ele>9.2</ele>
        <time>2024-09-22T09:53:17Z</time>
      </trkpt>
      <trkpt lat="49.27765" lon="-0.09532">
        <ele>9.2</ele>
        <time>2024-09-22T09:53:18Z</time>
      </trkpt>
      <trkpt lat="49.2777" lon="-0.09531">
        <ele>9.2</ele>
        <time>2024-09-22T09:53:19Z</time>
      </trkpt>
      <trkpt lat="49.27776" lon="-0.09531">
        <ele>9.2</ele>
        <time>2024-09-22T09:53:20Z</time>
      </trkpt>
      <trkpt lat="49.27781" lon="-0.0953">
        <ele>9.2</ele>
        <time>2024-09-22T09:53:21Z</time>
      </trkpt>
      <trkpt lat="49.27786" lon="-0.0953">
        <ele>9.4</ele>
        <time>2024-09-22T09:53:22Z</time>
      </trkpt>
      <trkpt lat="49.27792" lon="-0.09529">
        <ele>9.4</ele>
        <time>2024-09-22T09:53:23Z</time>
      </trkpt>
      <trkpt lat="49.27797" lon="-0.09528">
        <ele>9.4</ele>
        <time>2024-09-22T09:53:24Z</time>
      </trkpt>
      <trkpt lat="49.27802" lon="-0.09528">
        <ele>9.4</ele>
        <time>2024-09-22T09:53:25Z</time>
      </trkpt>
      <trkpt lat="49.27808" lon="-0.09528">
        <ele>9.4</ele>
        <time>2024-09-22T09:53:26Z</time>
      </trkpt>
      <trkpt lat="49.27814" lon="-0.09527">
        <ele>9.4</ele>
        <time>2024-09-22T09:53:27Z</time>
      </trkpt>
      <trkpt lat="49.2782" lon="-0.09526">
        <ele>9.4</ele>
        <time>2024-09-22T09:53:28Z</time>
      </trkpt>
      <trkpt lat="49.27826" lon="-0.09525">
        <ele>9.4</ele>
        <time>2024-09-22T09:53:29Z</time>
      </trkpt>
      <trkpt lat="49.27833" lon="-0.09524">
        <ele>9.4</ele>
        <time>2024-09-22T09:53:30Z</time>
      </trkpt>
      <trkpt lat="49.27838" lon="-0.09524">
        <ele>9.4</ele>
        <time>2024-09-22T09:53:31Z</time>
      </trkpt>
      <trkpt lat="49.27845" lon="-0.09523">
        <ele>9.4</ele>
        <time>2024-09-22T09:53:32Z</time>
      </trkpt>
      <trkpt lat="49.27853" lon="-0.09522">
        <ele>9.4</ele>
        <time>2024-09-22T09:53:33Z</time>
      </trkpt>
      <trkpt lat="49.27861" lon="-0.09521">
        <ele>9.4</ele>
        <time>2024-09-22T09:53:34Z</time>
      </trkpt>
      <trkpt lat="49.27868" lon="-0.0952">
        <ele>9.2</ele>
        <time>2024-09-22T09:53:35Z</time>
      </trkpt>
      <trkpt lat="49.27874" lon="-0.09519">
        <ele>9.2</ele>
        <time>2024-09-22T09:53:36Z</time>
      </trkpt>
      <trkpt lat="49.27881" lon="-0.09519">
        <ele>9</ele>
        <time>2024-09-22T09:53:37Z</time>
      </trkpt>
      <trkpt lat="49.2789" lon="-0.09518">
        <ele>8.8</ele>
        <time>2024-09-22T09:53:38Z</time>
      </trkpt>
      <trkpt lat="49.27896" lon="-0.09518">
        <ele>8.6</ele>
        <time>2024-09-22T09:53:39Z</time>
      </trkpt>
      <trkpt lat="49.27905" lon="-0.09518">
        <ele>8.6</ele>
        <time>2024-09-22T09:53:40Z</time>
      </trkpt>
      <trkpt lat="49.27913" lon="-0.09518">
        <ele>8.4</ele>
        <time>2024-09-22T09:53:41Z</time>
      </trkpt>
      <trkpt lat="49.27921" lon="-0.09519">
        <ele>8.4</ele>
        <time>2024-09-22T09:53:42Z</time>
      </trkpt>
      <trkpt lat="49.27928" lon="-0.0952">
        <ele>8.4</ele>
        <time>2024-09-22T09:53:43Z</time>
      </trkpt>
      <trkpt lat="49.27936" lon="-0.09521">
        <ele>8.4</ele>
        <time>2024-09-22T09:53:44Z</time>
      </trkpt>
      <trkpt lat="49.27944" lon="-0.09522">
        <ele>8.4</ele>
        <time>2024-09-22T09:53:45Z</time>
      </trkpt>
      <trkpt lat="49.27952" lon="-0.09523">
        <ele>8.4</ele>
        <time>2024-09-22T09:53:46Z</time>
      </trkpt>
      <trkpt lat="49.27958" lon="-0.09524">
        <ele>8.4</ele>
        <time>2024-09-22T09:53:47Z</time>
      </trkpt>
      <trkpt lat="49.27966" lon="-0.09526">
        <ele>8.4</ele>
        <time>2024-09-22T09:53:48Z</time>
      </trkpt>
      <trkpt lat="49.27976" lon="-0.09528">
        <ele>8.4</ele>
        <time>2024-09-22T09:53:49Z</time>
      </trkpt>
      <trkpt lat="49.27983" lon="-0.0953">
        <ele>8.4</ele>
        <time>2024-09-22T09:53:50Z</time>
      </trkpt>
      <trkpt lat="49.27989" lon="-0.09532">
        <ele>8.4</ele>
        <time>2024-09-22T09:53:51Z</time>
      </trkpt>
      <trkpt lat="49.27999" lon="-0.09535">
        <ele>8.4</ele>
        <time>2024-09-22T09:53:52Z</time>
      </trkpt>
      <trkpt lat="49.28006" lon="-0.09538">
        <ele>8.6</ele>
        <time>2024-09-22T09:53:53Z</time>
      </trkpt>
      <trkpt lat="49.28014" lon="-0.0954">
        <ele>8.6</ele>
        <time>2024-09-22T09:53:54Z</time>
      </trkpt>
      <trkpt lat="49.28021" lon="-0.09543">
        <ele>8.6</ele>
        <time>2024-09-22T09:53:55Z</time>
      </trkpt>
      <trkpt lat="49.28028" lon="-0.09547">
        <ele>8.6</ele>
        <time>2024-09-22T09:53:56Z</time>
      </trkpt>
      <trkpt lat="49.28035" lon="-0.0955">
        <ele>8.8</ele>
        <time>2024-09-22T09:53:57Z</time>
      </trkpt>
      <trkpt lat="49.28042" lon="-0.09553">
        <ele>8.8</ele>
        <time>2024-09-22T09:53:58Z</time>
      </trkpt>
      <trkpt lat="49.28049" lon="-0.09556">
        <ele>8.8</ele>
        <time>2024-09-22T09:53:59Z</time>
      </trkpt>
      <trkpt lat="49.28056" lon="-0.0956">
        <ele>8.8</ele>
        <time>2024-09-22T09:54:00Z</time>
      </trkpt>
      <trkpt lat="49.28063" lon="-0.09563">
        <ele>8.8</ele>
        <time>2024-09-22T09:54:01Z</time>
      </trkpt>
      <trkpt lat="49.2807" lon="-0.09567">
        <ele>8.8</ele>
        <time>2024-09-22T09:54:02Z</time>
      </trkpt>
      <trkpt lat="49.28077" lon="-0.0957">
        <ele>8.8</ele>
        <time>2024-09-22T09:54:03Z</time>
      </trkpt>
      <trkpt lat="49.28084" lon="-0.09573">
        <ele>8.8</ele>
        <time>2024-09-22T09:54:04Z</time>
      </trkpt>
      <trkpt lat="49.2809" lon="-0.09577">
        <ele>8.8</ele>
        <time>2024-09-22T09:54:05Z</time>
      </trkpt>
      <trkpt lat="49.28097" lon="-0.09581">
        <ele>8.8</ele>
        <time>2024-09-22T09:54:06Z</time>
      </trkpt>
      <trkpt lat="49.28104" lon="-0.09584">
        <ele>8.8</ele>
        <time>2024-09-22T09:54:07Z</time>
      </trkpt>
      <trkpt lat="49.28111" lon="-0.09588">
        <ele>8.8</ele>
        <time>2024-09-22T09:54:08Z</time>
      </trkpt>
      <trkpt lat="49.28118" lon="-0.09593">
        <ele>8.8</ele>
        <time>2024-09-22T09:54:09Z</time>
      </trkpt>
      <trkpt lat="49.28125" lon="-0.09597">
        <ele>9</ele>
        <time>2024-09-22T09:54:10Z</time>
      </trkpt>
      <trkpt lat="49.28132" lon="-0.09602">
        <ele>9</ele>
        <time>2024-09-22T09:54:11Z</time>
      </trkpt>
      <trkpt lat="49.28138" lon="-0.09606">
        <ele>9</ele>
        <time>2024-09-22T09:54:12Z</time>
      </trkpt>
      <trkpt lat="49.28145" lon="-0.0961">
        <ele>9</ele>
        <time>2024-09-22T09:54:13Z</time>
      </trkpt>
      <trkpt lat="49.28152" lon="-0.09614">
        <ele>9</ele>
        <time>2024-09-22T09:54:14Z</time>
      </trkpt>
      <trkpt lat="49.28157" lon="-0.09618">
        <ele>9</ele>
        <time>2024-09-22T09:54:15Z</time>
      </trkpt>
      <trkpt lat="49.28163" lon="-0.09622">
        <ele>9</ele>
        <time>2024-09-22T09:54:16Z</time>
      </trkpt>
      <trkpt lat="49.28169" lon="-0.09626">
        <ele>9</ele>
        <time>2024-09-22T09:54:17Z</time>
      </trkpt>
      <trkpt lat="49.28173" lon="-0.09629">
        <ele>9.2</ele>
        <time>2024-09-22T09:54:18Z</time>
      </trkpt>
      <trkpt lat="49.28179" lon="-0.09632">
        <ele>9.2</ele>
        <time>2024-09-22T09:54:19Z</time>
      </trkpt>
      <trkpt lat="49.28185" lon="-0.09637">
        <ele>9.2</ele>
        <time>2024-09-22T09:54:20Z</time>
      </trkpt>
      <trkpt lat="49.28191" lon="-0.09641">
        <ele>9.2</ele>
        <time>2024-09-22T09:54:21Z</time>
      </trkpt>
      <trkpt lat="49.28197" lon="-0.09644">
        <ele>9.2</ele>
        <time>2024-09-22T09:54:22Z</time>
      </trkpt>
      <trkpt lat="49.28202" lon="-0.09648">
        <ele>9.2</ele>
        <time>2024-09-22T09:54:23Z</time>
      </trkpt>
      <trkpt lat="49.28208" lon="-0.09652">
        <ele>9.4</ele>
        <time>2024-09-22T09:54:24Z</time>
      </trkpt>
      <trkpt lat="49.28214" lon="-0.09656">
        <ele>9.4</ele>
        <time>2024-09-22T09:54:25Z</time>
      </trkpt>
      <trkpt lat="49.28219" lon="-0.0966">
        <ele>9.4</ele>
        <time>2024-09-22T09:54:26Z</time>
      </trkpt>
      <trkpt lat="49.28225" lon="-0.09664">
        <ele>9.4</ele>
        <time>2024-09-22T09:54:27Z</time>
      </trkpt>
      <trkpt lat="49.2823" lon="-0.09668">
        <ele>9.4</ele>
        <time>2024-09-22T09:54:28Z</time>
      </trkpt>
      <trkpt lat="49.28235" lon="-0.09671">
        <ele>9.4</ele>
        <time>2024-09-22T09:54:29Z</time>
      </trkpt>
      <trkpt lat="49.2824" lon="-0.09675">
        <ele>9.4</ele>
        <time>2024-09-22T09:54:30Z</time>
      </trkpt>
      <trkpt lat="49.28245" lon="-0.09678">
        <ele>9.4</ele>
        <time>2024-09-22T09:54:31Z</time>
      </trkpt>
      <trkpt lat="49.2825" lon="-0.09682">
        <ele>9.4</ele>
        <time>2024-09-22T09:54:32Z</time>
      </trkpt>
      <trkpt lat="49.28255" lon="-0.09685">
        <ele>9.4</ele>
        <time>2024-09-22T09:54:33Z</time>
      </trkpt>
      <trkpt lat="49.28259" lon="-0.09688">
        <ele>9.6</ele>
        <time>2024-09-22T09:54:34Z</time>
      </trkpt>
      <trkpt lat="49.28264" lon="-0.0969">
        <ele>9.6</ele>
        <time>2024-09-22T09:54:35Z</time>
      </trkpt>
      <trkpt lat="49.28268" lon="-0.09692">
        <ele>9.6</ele>
        <time>2024-09-22T09:54:36Z</time>
      </trkpt>
      <trkpt lat="49.28272" lon="-0.09694">
        <ele>9.6</ele>
        <time>2024-09-22T09:54:37Z</time>
      </trkpt>
      <trkpt lat="49.28275" lon="-0.09696">
        <ele>9.6</ele>
        <time>2024-09-22T09:54:38Z</time>
      </trkpt>
      <trkpt lat="49.28278" lon="-0.09698">
        <ele>9.8</ele>
        <time>2024-09-22T09:54:39Z</time>
      </trkpt>
      <trkpt lat="49.2828" lon="-0.09699">
        <ele>9.8</ele>
        <time>2024-09-22T09:54:40Z</time>
      </trkpt>
      <trkpt lat="49.28282" lon="-0.097">
        <ele>9.8</ele>
        <time>2024-09-22T09:54:41Z</time>
      </trkpt>
      <trkpt lat="49.28284" lon="-0.097">
        <ele>10</ele>
        <time>2024-09-22T09:54:42Z</time>
      </trkpt>
      <trkpt lat="49.28285" lon="-0.09701">
        <ele>10</ele>
        <time>2024-09-22T09:54:43Z</time>
      </trkpt>
      <trkpt lat="49.28285" lon="-0.09701">
        <ele>10</ele>
        <time>2024-09-22T09:54:44Z</time>
      </trkpt>
      <trkpt lat="49.28285" lon="-0.09701">
        <ele>10</ele>
        <time>2024-09-22T09:54:45Z</time>
      </trkpt>
      <trkpt lat="49.2829" lon="-0.09702">
        <ele>10</ele>
        <time>2024-09-22T09:55:01Z</time>
      </trkpt>
      <trkpt lat="49.28292" lon="-0.09703">
        <ele>10</ele>
        <time>2024-09-22T09:55:02Z</time>
      </trkpt>
      <trkpt lat="49.28295" lon="-0.09704">
        <ele>10</ele>
        <time>2024-09-22T09:55:03Z</time>
      </trkpt>
      <trkpt lat="49.28297" lon="-0.09705">
        <ele>10</ele>
        <time>2024-09-22T09:55:04Z</time>
      </trkpt>
      <trkpt lat="49.283" lon="-0.09706">
        <ele>10</ele>
        <time>2024-09-22T09:55:05Z</time>
      </trkpt>
      <trkpt lat="49.28302" lon="-0.09707">
        <ele>10</ele>
        <time>2024-09-22T09:55:06Z</time>
      </trkpt>
      <trkpt lat="49.28305" lon="-0.09708">
        <ele>10</ele>
        <time>2024-09-22T09:55:07Z</time>
      </trkpt>
      <trkpt lat="49.28308" lon="-0.09709">
        <ele>10</ele>
        <time>2024-09-22T09:55:08Z</time>
      </trkpt>
      <trkpt lat="49.28311" lon="-0.0971">
        <ele>10</ele>
        <time>2024-09-22T09:55:09Z</time>
      </trkpt>
      <trkpt lat="49.28315" lon="-0.09711">
        <ele>10</ele>
        <time>2024-09-22T09:55:10Z</time>
      </trkpt>
      <trkpt lat="49.28318" lon="-0.09712">
        <ele>10</ele>
        <time>2024-09-22T09:55:11Z</time>
      </trkpt>
      <trkpt lat="49.28322" lon="-0.09714">
        <ele>10</ele>
        <time>2024-09-22T09:55:12Z</time>
      </trkpt>
      <trkpt lat="49.28325" lon="-0.09717">
        <ele>10</ele>
        <time>2024-09-22T09:55:13Z</time>
      </trkpt>
      <trkpt lat="49.28326" lon="-0.09723">
        <ele>10</ele>
        <time>2024-09-22T09:55:14Z</time>
      </trkpt>
      <trkpt lat="49.28327" lon="-0.09729">
        <ele>10</ele>
        <time>2024-09-22T09:55:15Z</time>
      </trkpt>
      <trkpt lat="49.28327" lon="-0.09737">
        <ele>10</ele>
        <time>2024-09-22T09:55:16Z</time>
      </trkpt>
      <trkpt lat="49.28327" lon="-0.09744">
        <ele>10</ele>
        <time>2024-09-22T09:55:17Z</time>
      </trkpt>
      <trkpt lat="49.28327" lon="-0.09752">
        <ele>10</ele>
        <time>2024-09-22T09:55:18Z</time>
      </trkpt>
      <trkpt lat="49.28328" lon="-0.09759">
        <ele>10</ele>
        <time>2024-09-22T09:55:19Z</time>
      </trkpt>
      <trkpt lat="49.28328" lon="-0.09766">
        <ele>10</ele>
        <time>2024-09-22T09:55:20Z</time>
      </trkpt>
      <trkpt lat="49.28328" lon="-0.09775">
        <ele>10</ele>
        <time>2024-09-22T09:55:21Z</time>
      </trkpt>
      <trkpt lat="49.28329" lon="-0.09783">
        <ele>10</ele>
        <time>2024-09-22T09:55:22Z</time>
      </trkpt>
      <trkpt lat="49.28329" lon="-0.0979">
        <ele>9.8</ele>
        <time>2024-09-22T09:55:23Z</time>
      </trkpt>
      <trkpt lat="49.2833" lon="-0.098">
        <ele>9.8</ele>
        <time>2024-09-22T09:55:24Z</time>
      </trkpt>
      <trkpt lat="49.2833" lon="-0.09807">
        <ele>9.6</ele>
        <time>2024-09-22T09:55:25Z</time>
      </trkpt>
      <trkpt lat="49.2833" lon="-0.09817">
        <ele>9.6</ele>
        <time>2024-09-22T09:55:26Z</time>
      </trkpt>
      <trkpt lat="49.28331" lon="-0.09825">
        <ele>9.4</ele>
        <time>2024-09-22T09:55:27Z</time>
      </trkpt>
      <trkpt lat="49.28331" lon="-0.09833">
        <ele>9.4</ele>
        <time>2024-09-22T09:55:28Z</time>
      </trkpt>
      <trkpt lat="49.28331" lon="-0.09842">
        <ele>9.4</ele>
        <time>2024-09-22T09:55:29Z</time>
      </trkpt>
      <trkpt lat="49.28332" lon="-0.0985">
        <ele>9.4</ele>
        <time>2024-09-22T09:55:30Z</time>
      </trkpt>
      <trkpt lat="49.28332" lon="-0.09859">
        <ele>9.4</ele>
        <time>2024-09-22T09:55:31Z</time>
      </trkpt>
      <trkpt lat="49.28332" lon="-0.09867">
        <ele>9.4</ele>
        <time>2024-09-22T09:55:32Z</time>
      </trkpt>
      <trkpt lat="49.28332" lon="-0.09875">
        <ele>9.2</ele>
        <time>2024-09-22T09:55:33Z</time>
      </trkpt>
      <trkpt lat="49.28333" lon="-0.09881">
        <ele>9.2</ele>
        <time>2024-09-22T09:55:34Z</time>
      </trkpt>
      <trkpt lat="49.28333" lon="-0.09891">
        <ele>9.2</ele>
        <time>2024-09-22T09:55:35Z</time>
      </trkpt>
      <trkpt lat="49.28333" lon="-0.09899">
        <ele>9.2</ele>
        <time>2024-09-22T09:55:36Z</time>
      </trkpt>
      <trkpt lat="49.28333" lon="-0.09907">
        <ele>9.2</ele>
        <time>2024-09-22T09:55:37Z</time>
      </trkpt>
      <trkpt lat="49.28334" lon="-0.09913">
        <ele>9.2</ele>
        <time>2024-09-22T09:55:38Z</time>
      </trkpt>
      <trkpt lat="49.28334" lon="-0.09918">
        <ele>9.2</ele>
        <time>2024-09-22T09:55:39Z</time>
      </trkpt>
      <trkpt lat="49.28334" lon="-0.09921">
        <ele>9.2</ele>
        <time>2024-09-22T09:55:40Z</time>
      </trkpt>
      <trkpt lat="49.28334" lon="-0.09923">
        <ele>9.2</ele>
        <time>2024-09-22T09:55:41Z</time>
      </trkpt>
      <trkpt lat="49.28334" lon="-0.09924">
        <ele>9.2</ele>
        <time>2024-09-22T09:55:42Z</time>
      </trkpt>
      <trkpt lat="49.28334" lon="-0.09924">
        <ele>9.2</ele>
        <time>2024-09-22T09:55:43Z</time>
      </trkpt>
      <trkpt lat="49.28334" lon="-0.09929">
        <ele>10</ele>
        <time>2024-09-22T09:56:19Z</time>
      </trkpt>
      <trkpt lat="49.28335" lon="-0.09933">
        <ele>10</ele>
        <time>2024-09-22T09:56:20Z</time>
      </trkpt>
      <trkpt lat="49.28335" lon="-0.09937">
        <ele>10</ele>
        <time>2024-09-22T09:56:21Z</time>
      </trkpt>
      <trkpt lat="49.28335" lon="-0.0994">
        <ele>10</ele>
        <time>2024-09-22T09:56:22Z</time>
      </trkpt>
      <trkpt lat="49.28335" lon="-0.09944">
        <ele>10</ele>
        <time>2024-09-22T09:56:23Z</time>
      </trkpt>
      <trkpt lat="49.28336" lon="-0.09949">
        <ele>10</ele>
        <time>2024-09-22T09:56:24Z</time>
      </trkpt>
      <trkpt lat="49.28336" lon="-0.09956">
        <ele>10</ele>
        <time>2024-09-22T09:56:25Z</time>
      </trkpt>
      <trkpt lat="49.28337" lon="-0.09963">
        <ele>10</ele>
        <time>2024-09-22T09:56:26Z</time>
      </trkpt>
      <trkpt lat="49.28338" lon="-0.09971">
        <ele>10</ele>
        <time>2024-09-22T09:56:27Z</time>
      </trkpt>
      <trkpt lat="49.28338" lon="-0.09979">
        <ele>9.8</ele>
        <time>2024-09-22T09:56:28Z</time>
      </trkpt>
      <trkpt lat="49.28338" lon="-0.09987">
        <ele>9.8</ele>
        <time>2024-09-22T09:56:29Z</time>
      </trkpt>
      <trkpt lat="49.28338" lon="-0.09995">
        <ele>9.8</ele>
        <time>2024-09-22T09:56:30Z</time>
      </trkpt>
      <trkpt lat="49.28339" lon="-0.10002">
        <ele>9.8</ele>
        <time>2024-09-22T09:56:31Z</time>
      </trkpt>
      <trkpt lat="49.28339" lon="-0.10009">
        <ele>9.8</ele>
        <time>2024-09-22T09:56:32Z</time>
      </trkpt>
      <trkpt lat="49.28339" lon="-0.10018">
        <ele>9.8</ele>
        <time>2024-09-22T09:56:33Z</time>
      </trkpt>
      <trkpt lat="49.28339" lon="-0.10026">
        <ele>9.8</ele>
        <time>2024-09-22T09:56:34Z</time>
      </trkpt>
      <trkpt lat="49.2834" lon="-0.10035">
        <ele>9.6</ele>
        <time>2024-09-22T09:56:35Z</time>
      </trkpt>
      <trkpt lat="49.2834" lon="-0.10043">
        <ele>9.6</ele>
        <time>2024-09-22T09:56:36Z</time>
      </trkpt>
      <trkpt lat="49.28341" lon="-0.10052">
        <ele>9.4</ele>
        <time>2024-09-22T09:56:37Z</time>
      </trkpt>
      <trkpt lat="49.28341" lon="-0.10061">
        <ele>9.4</ele>
        <time>2024-09-22T09:56:38Z</time>
      </trkpt>
      <trkpt lat="49.28341" lon="-0.1007">
        <ele>9.2</ele>
        <time>2024-09-22T09:56:39Z</time>
      </trkpt>
      <trkpt lat="49.28342" lon="-0.10078">
        <ele>9.2</ele>
        <time>2024-09-22T09:56:40Z</time>
      </trkpt>
      <trkpt lat="49.28343" lon="-0.10089">
        <ele>9.2</ele>
        <time>2024-09-22T09:56:41Z</time>
      </trkpt>
      <trkpt lat="49.28343" lon="-0.10098">
        <ele>9</ele>
        <time>2024-09-22T09:56:42Z</time>
      </trkpt>
      <trkpt lat="49.28344" lon="-0.10108">
        <ele>9</ele>
        <time>2024-09-22T09:56:43Z</time>
      </trkpt>
      <trkpt lat="49.28344" lon="-0.10118">
        <ele>9</ele>
        <time>2024-09-22T09:56:44Z</time>
      </trkpt>
      <trkpt lat="49.28345" lon="-0.10128">
        <ele>9</ele>
        <time>2024-09-22T09:56:45Z</time>
      </trkpt>
      <trkpt lat="49.28345" lon="-0.10138">
        <ele>9</ele>
        <time>2024-09-22T09:56:46Z</time>
      </trkpt>
      <trkpt lat="49.28346" lon="-0.10148">
        <ele>9</ele>
        <time>2024-09-22T09:56:47Z</time>
      </trkpt>
      <trkpt lat="49.28346" lon="-0.10156">
        <ele>8.8</ele>
        <time>2024-09-22T09:56:48Z</time>
      </trkpt>
      <trkpt lat="49.28347" lon="-0.10166">
        <ele>8.8</ele>
        <time>2024-09-22T09:56:49Z</time>
      </trkpt>
      <trkpt lat="49.28347" lon="-0.10178">
        <ele>8.8</ele>
        <time>2024-09-22T09:56:50Z</time>
      </trkpt>
      <trkpt lat="49.28347" lon="-0.10188">
        <ele>8.8</ele>
        <time>2024-09-22T09:56:51Z</time>
      </trkpt>
      <trkpt lat="49.28348" lon="-0.10198">
        <ele>8.8</ele>
        <time>2024-09-22T09:56:52Z</time>
      </trkpt>
      <trkpt lat="49.28348" lon="-0.10207">
        <ele>8.8</ele>
        <time>2024-09-22T09:56:53Z</time>
      </trkpt>
      <trkpt lat="49.28348" lon="-0.10215">
        <ele>8.8</ele>
        <time>2024-09-22T09:56:54Z</time>
      </trkpt>
      <trkpt lat="49.28349" lon="-0.10221">
        <ele>8.8</ele>
        <time>2024-09-22T09:56:55Z</time>
      </trkpt>
      <trkpt lat="49.2835" lon="-0.10226">
        <ele>8.8</ele>
        <time>2024-09-22T09:56:56Z</time>
      </trkpt>
      <trkpt lat="49.2835" lon="-0.1023">
        <ele>8.8</ele>
        <time>2024-09-22T09:56:57Z</time>
      </trkpt>
      <trkpt lat="49.2835" lon="-0.10231">
        <ele>8.8</ele>
        <time>2024-09-22T09:56:58Z</time>
      </trkpt>
      <trkpt lat="49.2835" lon="-0.10231">
        <ele>8.8</ele>
        <time>2024-09-22T09:56:59Z</time>
      </trkpt>
      <trkpt lat="49.2835" lon="-0.10231">
        <ele>8.8</ele>
        <time>2024-09-22T09:57:00Z</time>
      </trkpt>
      <trkpt lat="49.2835" lon="-0.10239">
        <ele>9</ele>
        <time>2024-09-22T09:58:18Z</time>
      </trkpt>
      <trkpt lat="49.2835" lon="-0.10243">
        <ele>9</ele>
        <time>2024-09-22T09:58:19Z</time>
      </trkpt>
      <trkpt lat="49.28351" lon="-0.10247">
        <ele>9</ele>
        <time>2024-09-22T09:58:20Z</time>
      </trkpt>
      <trkpt lat="49.28351" lon="-0.10252">
        <ele>9</ele>
        <time>2024-09-22T09:58:21Z</time>
      </trkpt>
      <trkpt lat="49.28351" lon="-0.10258">
        <ele>9</ele>
        <time>2024-09-22T09:58:22Z</time>
      </trkpt>
      <trkpt lat="49.28351" lon="-0.10264">
        <ele>9</ele>
        <time>2024-09-22T09:58:23Z</time>
      </trkpt>
      <trkpt lat="49.28352" lon="-0.1027">
        <ele>9.2</ele>
        <time>2024-09-22T09:58:24Z</time>
      </trkpt>
      <trkpt lat="49.28352" lon="-0.10276">
        <ele>9.4</ele>
        <time>2024-09-22T09:58:25Z</time>
      </trkpt>
      <trkpt lat="49.28352" lon="-0.10283">
        <ele>9.4</ele>
        <time>2024-09-22T09:58:26Z</time>
      </trkpt>
      <trkpt lat="49.28352" lon="-0.10289">
        <ele>9.4</ele>
        <time>2024-09-22T09:58:27Z</time>
      </trkpt>
      <trkpt lat="49.28352" lon="-0.10296">
        <ele>9.4</ele>
        <time>2024-09-22T09:58:28Z</time>
      </trkpt>
      <trkpt lat="49.2835" lon="-0.10303">
        <ele>9.4</ele>
        <time>2024-09-22T09:58:29Z</time>
      </trkpt>
      <trkpt lat="49.28349" lon="-0.10311">
        <ele>9.4</ele>
        <time>2024-09-22T09:58:30Z</time>
      </trkpt>
      <trkpt lat="49.28346" lon="-0.10318">
        <ele>9.4</ele>
        <time>2024-09-22T09:58:31Z</time>
      </trkpt>
      <trkpt lat="49.28344" lon="-0.10326">
        <ele>9.4</ele>
        <time>2024-09-22T09:58:32Z</time>
      </trkpt>
      <trkpt lat="49.28342" lon="-0.10333">
        <ele>9.4</ele>
        <time>2024-09-22T09:58:33Z</time>
      </trkpt>
      <trkpt lat="49.28341" lon="-0.10341">
        <ele>9.4</ele>
        <time>2024-09-22T09:58:34Z</time>
      </trkpt>
      <trkpt lat="49.2834" lon="-0.10347">
        <ele>9.4</ele>
        <time>2024-09-22T09:58:35Z</time>
      </trkpt>
      <trkpt lat="49.2834" lon="-0.10356">
        <ele>9.4</ele>
        <time>2024-09-22T09:58:36Z</time>
      </trkpt>
      <trkpt lat="49.2834" lon="-0.10367">
        <ele>9.4</ele>
        <time>2024-09-22T09:58:37Z</time>
      </trkpt>
      <trkpt lat="49.2834" lon="-0.10376">
        <ele>9.4</ele>
        <time>2024-09-22T09:58:38Z</time>
      </trkpt>
      <trkpt lat="49.28341" lon="-0.10385">
        <ele>9.4</ele>
        <time>2024-09-22T09:58:39Z</time>
      </trkpt>
      <trkpt lat="49.28342" lon="-0.10394">
        <ele>9.2</ele>
        <time>2024-09-22T09:58:40Z</time>
      </trkpt>
      <trkpt lat="49.28342" lon="-0.10404">
        <ele>9.2</ele>
        <time>2024-09-22T09:58:41Z</time>
      </trkpt>
      <trkpt lat="49.28342" lon="-0.10414">
        <ele>9.2</ele>
        <time>2024-09-22T09:58:42Z</time>
      </trkpt>
      <trkpt lat="49.28343" lon="-0.10424">
        <ele>9.2</ele>
        <time>2024-09-22T09:58:43Z</time>
      </trkpt>
      <trkpt lat="49.28343" lon="-0.10434">
        <ele>9.2</ele>
        <time>2024-09-22T09:58:44Z</time>
      </trkpt>
      <trkpt lat="49.28344" lon="-0.10443">
        <ele>9.2</ele>
        <time>2024-09-22T09:58:45Z</time>
      </trkpt>
      <trkpt lat="49.28344" lon="-0.10453">
        <ele>9.2</ele>
        <time>2024-09-22T09:58:46Z</time>
      </trkpt>
      <trkpt lat="49.28344" lon="-0.10462">
        <ele>9.2</ele>
        <time>2024-09-22T09:58:47Z</time>
      </trkpt>
      <trkpt lat="49.28345" lon="-0.10472">
        <ele>9.2</ele>
        <time>2024-09-22T09:58:48Z</time>
      </trkpt>
      <trkpt lat="49.28345" lon="-0.1048">
        <ele>9</ele>
        <time>2024-09-22T09:58:49Z</time>
      </trkpt>
      <trkpt lat="49.28345" lon="-0.10489">
        <ele>9</ele>
        <time>2024-09-22T09:58:50Z</time>
      </trkpt>
      <trkpt lat="49.28346" lon="-0.10497">
        <ele>9</ele>
        <time>2024-09-22T09:58:51Z</time>
      </trkpt>
      <trkpt lat="49.28346" lon="-0.10504">
        <ele>9</ele>
        <time>2024-09-22T09:58:52Z</time>
      </trkpt>
      <trkpt lat="49.28346" lon="-0.10512">
        <ele>9</ele>
        <time>2024-09-22T09:58:53Z</time>
      </trkpt>
      <trkpt lat="49.28346" lon="-0.10519">
        <ele>9.2</ele>
        <time>2024-09-22T09:58:54Z</time>
      </trkpt>
      <trkpt lat="49.28346" lon="-0.10525">
        <ele>9.2</ele>
        <time>2024-09-22T09:58:55Z</time>
      </trkpt>
      <trkpt lat="49.28346" lon="-0.1053">
        <ele>9.2</ele>
        <time>2024-09-22T09:58:56Z</time>
      </trkpt>
      <trkpt lat="49.28346" lon="-0.10532">
        <ele>9.2</ele>
        <time>2024-09-22T09:58:57Z</time>
      </trkpt>
      <trkpt lat="49.28346" lon="-0.10534">
        <ele>9.2</ele>
        <time>2024-09-22T09:58:58Z</time>
      </trkpt>
      <trkpt lat="49.28346" lon="-0.10534">
        <ele>9.2</ele>
        <time>2024-09-22T09:58:59Z</time>
      </trkpt>
      <trkpt lat="49.28346" lon="-0.10534">
        <ele>9.4</ele>
        <time>2024-09-22T09:59:00Z</time>
      </trkpt>
      <trkpt lat="49.28346" lon="-0.10543">
        <ele>9.8</ele>
        <time>2024-09-22T09:59:07Z</time>
      </trkpt>
      <trkpt lat="49.28346" lon="-0.10548">
        <ele>9.8</ele>
        <time>2024-09-22T09:59:08Z</time>
      </trkpt>
      <trkpt lat="49.28346" lon="-0.10554">
        <ele>9.8</ele>
        <time>2024-09-22T09:59:09Z</time>
      </trkpt>
      <trkpt lat="49.28347" lon="-0.1056">
        <ele>9.8</ele>
        <time>2024-09-22T09:59:10Z</time>
      </trkpt>
      <trkpt lat="49.28347" lon="-0.10567">
        <ele>9.8</ele>
        <time>2024-09-22T09:59:11Z</time>
      </trkpt>
      <trkpt lat="49.28348" lon="-0.10574">
        <ele>9.8</ele>
        <time>2024-09-22T09:59:12Z</time>
      </trkpt>
      <trkpt lat="49.28348" lon="-0.10581">
        <ele>9.8</ele>
        <time>2024-09-22T09:59:13Z</time>
      </trkpt>
      <trkpt lat="49.28349" lon="-0.10588">
        <ele>9.8</ele>
        <time>2024-09-22T09:59:14Z</time>
      </trkpt>
      <trkpt lat="49.28349" lon="-0.10595">
        <ele>9.8</ele>
        <time>2024-09-22T09:59:15Z</time>
      </trkpt>
      <trkpt lat="49.28349" lon="-0.10603">
        <ele>9.8</ele>
        <time>2024-09-22T09:59:16Z</time>
      </trkpt>
      <trkpt lat="49.2835" lon="-0.10611">
        <ele>9.6</ele>
        <time>2024-09-22T09:59:17Z</time>
      </trkpt>
      <trkpt lat="49.2835" lon="-0.10617">
        <ele>9.6</ele>
        <time>2024-09-22T09:59:18Z</time>
      </trkpt>
      <trkpt lat="49.28351" lon="-0.10626">
        <ele>9.6</ele>
        <time>2024-09-22T09:59:19Z</time>
      </trkpt>
      <trkpt lat="49.28351" lon="-0.10634">
        <ele>9.6</ele>
        <time>2024-09-22T09:59:20Z</time>
      </trkpt>
      <trkpt lat="49.28351" lon="-0.10642">
        <ele>9.6</ele>
        <time>2024-09-22T09:59:21Z</time>
      </trkpt>
      <trkpt lat="49.28351" lon="-0.1065">
        <ele>9.6</ele>
        <time>2024-09-22T09:59:22Z</time>
      </trkpt>
      <trkpt lat="49.28352" lon="-0.10658">
        <ele>9.6</ele>
        <time>2024-09-22T09:59:23Z</time>
      </trkpt>
      <trkpt lat="49.28352" lon="-0.10666">
        <ele>9.4</ele>
        <time>2024-09-22T09:59:24Z</time>
      </trkpt>
      <trkpt lat="49.28352" lon="-0.10674">
        <ele>9.4</ele>
        <time>2024-09-22T09:59:25Z</time>
      </trkpt>
      <trkpt lat="49.28353" lon="-0.10682">
        <ele>9.4</ele>
        <time>2024-09-22T09:59:26Z</time>
      </trkpt>
      <trkpt lat="49.28353" lon="-0.10691">
        <ele>9.4</ele>
        <time>2024-09-22T09:59:27Z</time>
      </trkpt>
      <trkpt lat="49.28353" lon="-0.10699">
        <ele>9.4</ele>
        <time>2024-09-22T09:59:28Z</time>
      </trkpt>
      <trkpt lat="49.28354" lon="-0.10708">
        <ele>9.2</ele>
        <time>2024-09-22T09:59:29Z</time>
      </trkpt>
      <trkpt lat="49.28354" lon="-0.10717">
        <ele>9.2</ele>
        <time>2024-09-22T09:59:30Z</time>
      </trkpt>
      <trkpt lat="49.28354" lon="-0.10725">
        <ele>9.2</ele>
        <time>2024-09-22T09:59:31Z</time>
      </trkpt>
      <trkpt lat="49.28355" lon="-0.10734">
        <ele>9.2</ele>
        <time>2024-09-22T09:59:32Z</time>
      </trkpt>
      <trkpt lat="49.28355" lon="-0.1074">
        <ele>9.2</ele>
        <time>2024-09-22T09:59:33Z</time>
      </trkpt>
      <trkpt lat="49.28355" lon="-0.1075">
        <ele>9</ele>
        <time>2024-09-22T09:59:34Z</time>
      </trkpt>
      <trkpt lat="49.28355" lon="-0.10758">
        <ele>9</ele>
        <time>2024-09-22T09:59:35Z</time>
      </trkpt>
      <trkpt lat="49.28356" lon="-0.10765">
        <ele>9</ele>
        <time>2024-09-22T09:59:36Z</time>
      </trkpt>
      <trkpt lat="49.28359" lon="-0.1077">
        <ele>9</ele>
        <time>2024-09-22T09:59:37Z</time>
      </trkpt>
      <trkpt lat="49.28363" lon="-0.10771">
        <ele>9</ele>
        <time>2024-09-22T09:59:38Z</time>
      </trkpt>
      <trkpt lat="49.28368" lon="-0.1077">
        <ele>9</ele>
        <time>2024-09-22T09:59:39Z</time>
      </trkpt>
      <trkpt lat="49.28373" lon="-0.10769">
        <ele>9</ele>
        <time>2024-09-22T09:59:40Z</time>
      </trkpt>
      <trkpt lat="49.28378" lon="-0.10768">
        <ele>9.2</ele>
        <time>2024-09-22T09:59:41Z</time>
      </trkpt>
      <trkpt lat="49.28383" lon="-0.10767">
        <ele>9.2</ele>
        <time>2024-09-22T09:59:42Z</time>
      </trkpt>
      <trkpt lat="49.28388" lon="-0.10766">
        <ele>9.2</ele>
        <time>2024-09-22T09:59:43Z</time>
      </trkpt>
      <trkpt lat="49.28393" lon="-0.10765">
        <ele>9.2</ele>
        <time>2024-09-22T09:59:44Z</time>
      </trkpt>
      <trkpt lat="49.28398" lon="-0.10765">
        <ele>9.2</ele>
        <time>2024-09-22T09:59:45Z</time>
      </trkpt>
      <trkpt lat="49.28403" lon="-0.10764">
        <ele>9.4</ele>
        <time>2024-09-22T09:59:46Z</time>
      </trkpt>
      <trkpt lat="49.28408" lon="-0.10763">
        <ele>9.4</ele>
        <time>2024-09-22T09:59:47Z</time>
      </trkpt>
      <trkpt lat="49.28413" lon="-0.10763">
        <ele>9.4</ele>
        <time>2024-09-22T09:59:48Z</time>
      </trkpt>
      <trkpt lat="49.28417" lon="-0.10762">
        <ele>9.4</ele>
        <time>2024-09-22T09:59:49Z</time>
      </trkpt>
      <trkpt lat="49.28422" lon="-0.10764">
        <ele>9.4</ele>
        <time>2024-09-22T09:59:50Z</time>
      </trkpt>
      <trkpt lat="49.28425" lon="-0.10767">
        <ele>9.4</ele>
        <time>2024-09-22T09:59:51Z</time>
      </trkpt>
      <trkpt lat="49.28426" lon="-0.10772">
        <ele>9.4</ele>
        <time>2024-09-22T09:59:52Z</time>
      </trkpt>
      <trkpt lat="49.28426" lon="-0.10778">
        <ele>9.4</ele>
        <time>2024-09-22T09:59:53Z</time>
      </trkpt>
      <trkpt lat="49.28427" lon="-0.10784">
        <ele>9.6</ele>
        <time>2024-09-22T09:59:54Z</time>
      </trkpt>
      <trkpt lat="49.28427" lon="-0.1079">
        <ele>9.6</ele>
        <time>2024-09-22T09:59:55Z</time>
      </trkpt>
      <trkpt lat="49.28428" lon="-0.10796">
        <ele>9.6</ele>
        <time>2024-09-22T09:59:56Z</time>
      </trkpt>
      <trkpt lat="49.28428" lon="-0.10802">
        <ele>9.6</ele>
        <time>2024-09-22T09:59:57Z</time>
      </trkpt>
      <trkpt lat="49.28428" lon="-0.10808">
        <ele>9.6</ele>
        <time>2024-09-22T09:59:58Z</time>
      </trkpt>
      <trkpt lat="49.28428" lon="-0.10815">
        <ele>9.6</ele>
        <time>2024-09-22T09:59:59Z</time>
      </trkpt>
      <trkpt lat="49.28428" lon="-0.1082">
        <ele>9.6</ele>
        <time>2024-09-22T10:00:00Z</time>
      </trkpt>
      <trkpt lat="49.28429" lon="-0.10827">
        <ele>9.6</ele>
        <time>2024-09-22T10:00:01Z</time>
      </trkpt>
      <trkpt lat="49.2843" lon="-0.10836">
        <ele>9.4</ele>
        <time>2024-09-22T10:00:02Z</time>
      </trkpt>
      <trkpt lat="49.28431" lon="-0.10844">
        <ele>9.4</ele>
        <time>2024-09-22T10:00:03Z</time>
      </trkpt>
      <trkpt lat="49.28432" lon="-0.10851">
        <ele>9.4</ele>
        <time>2024-09-22T10:00:04Z</time>
      </trkpt>
      <trkpt lat="49.28434" lon="-0.10859">
        <ele>9.4</ele>
        <time>2024-09-22T10:00:05Z</time>
      </trkpt>
      <trkpt lat="49.28435" lon="-0.10866">
        <ele>9.4</ele>
        <time>2024-09-22T10:00:06Z</time>
      </trkpt>
      <trkpt lat="49.28436" lon="-0.10874">
        <ele>9.6</ele>
        <time>2024-09-22T10:00:07Z</time>
      </trkpt>
      <trkpt lat="49.28438" lon="-0.10881">
        <ele>9.6</ele>
        <time>2024-09-22T10:00:08Z</time>
      </trkpt>
      <trkpt lat="49.28441" lon="-0.10886">
        <ele>9.6</ele>
        <time>2024-09-22T10:00:09Z</time>
      </trkpt>
      <trkpt lat="49.28445" lon="-0.10887">
        <ele>9.6</ele>
        <time>2024-09-22T10:00:10Z</time>
      </trkpt>
      <trkpt lat="49.28449" lon="-0.10886">
        <ele>9.6</ele>
        <time>2024-09-22T10:00:11Z</time>
      </trkpt>
      <trkpt lat="49.28454" lon="-0.10884">
        <ele>9.6</ele>
        <time>2024-09-22T10:00:12Z</time>
      </trkpt>
      <trkpt lat="49.28459" lon="-0.10881">
        <ele>9.4</ele>
        <time>2024-09-22T10:00:13Z</time>
      </trkpt>
      <trkpt lat="49.28464" lon="-0.10879">
        <ele>9.4</ele>
        <time>2024-09-22T10:00:14Z</time>
      </trkpt>
      <trkpt lat="49.28469" lon="-0.10877">
        <ele>9.4</ele>
        <time>2024-09-22T10:00:15Z</time>
      </trkpt>
      <trkpt lat="49.28474" lon="-0.10874">
        <ele>9.4</ele>
        <time>2024-09-22T10:00:16Z</time>
      </trkpt>
      <trkpt lat="49.2848" lon="-0.10872">
        <ele>9.2</ele>
        <time>2024-09-22T10:00:17Z</time>
      </trkpt>
      <trkpt lat="49.28485" lon="-0.10869">
        <ele>9.2</ele>
        <time>2024-09-22T10:00:18Z</time>
      </trkpt>
      <trkpt lat="49.2849" lon="-0.10866">
        <ele>9.2</ele>
        <time>2024-09-22T10:00:19Z</time>
      </trkpt>
      <trkpt lat="49.28495" lon="-0.10864">
        <ele>9.2</ele>
        <time>2024-09-22T10:00:20Z</time>
      </trkpt>
      <trkpt lat="49.285" lon="-0.10861">
        <ele>9.2</ele>
        <time>2024-09-22T10:00:21Z</time>
      </trkpt>
      <trkpt lat="49.28505" lon="-0.10859">
        <ele>9.4</ele>
        <time>2024-09-22T10:00:22Z</time>
      </trkpt>
      <trkpt lat="49.2851" lon="-0.10857">
        <ele>9.4</ele>
        <time>2024-09-22T10:00:23Z</time>
      </trkpt>
      <trkpt lat="49.28513" lon="-0.10856">
        <ele>9.4</ele>
        <time>2024-09-22T10:00:24Z</time>
      </trkpt>
      <trkpt lat="49.28517" lon="-0.10853">
        <ele>9.6</ele>
        <time>2024-09-22T10:00:25Z</time>
      </trkpt>
      <trkpt lat="49.28521" lon="-0.10851">
        <ele>9.6</ele>
        <time>2024-09-22T10:00:26Z</time>
      </trkpt>
      <trkpt lat="49.28525" lon="-0.10848">
        <ele>9.6</ele>
        <time>2024-09-22T10:00:27Z</time>
      </trkpt>
      <trkpt lat="49.28528" lon="-0.10845">
        <ele>9.6</ele>
        <time>2024-09-22T10:00:28Z</time>
      </trkpt>
      <trkpt lat="49.28532" lon="-0.10844">
        <ele>9.8</ele>
        <time>2024-09-22T10:00:29Z</time>
      </trkpt>
      <trkpt lat="49.28536" lon="-0.10845">
        <ele>9.8</ele>
        <time>2024-09-22T10:00:30Z</time>
      </trkpt>
      <trkpt lat="49.28539" lon="-0.1085">
        <ele>9.8</ele>
        <time>2024-09-22T10:00:31Z</time>
      </trkpt>
      <trkpt lat="49.28541" lon="-0.10857">
        <ele>9.8</ele>
        <time>2024-09-22T10:00:32Z</time>
      </trkpt>
      <trkpt lat="49.28542" lon="-0.10864">
        <ele>9.8</ele>
        <time>2024-09-22T10:00:33Z</time>
      </trkpt>
      <trkpt lat="49.28542" lon="-0.1087">
        <ele>9.8</ele>
        <time>2024-09-22T10:00:34Z</time>
      </trkpt>
      <trkpt lat="49.28542" lon="-0.10879">
        <ele>9.8</ele>
        <time>2024-09-22T10:00:35Z</time>
      </trkpt>
      <trkpt lat="49.2854" lon="-0.10886">
        <ele>9.8</ele>
        <time>2024-09-22T10:00:36Z</time>
      </trkpt>
      <trkpt lat="49.28538" lon="-0.10893">
        <ele>9.8</ele>
        <time>2024-09-22T10:00:37Z</time>
      </trkpt>
      <trkpt lat="49.28535" lon="-0.109">
        <ele>9.8</ele>
        <time>2024-09-22T10:00:38Z</time>
      </trkpt>
      <trkpt lat="49.28532" lon="-0.10907">
        <ele>9.8</ele>
        <time>2024-09-22T10:00:39Z</time>
      </trkpt>
      <trkpt lat="49.2853" lon="-0.10915">
        <ele>9.6</ele>
        <time>2024-09-22T10:00:40Z</time>
      </trkpt>
      <trkpt lat="49.28529" lon="-0.10924">
        <ele>9.6</ele>
        <time>2024-09-22T10:00:41Z</time>
      </trkpt>
      <trkpt lat="49.28529" lon="-0.10931">
        <ele>9.6</ele>
        <time>2024-09-22T10:00:42Z</time>
      </trkpt>
      <trkpt lat="49.28529" lon="-0.10939">
        <ele>9.6</ele>
        <time>2024-09-22T10:00:43Z</time>
      </trkpt>
      <trkpt lat="49.2853" lon="-0.10948">
        <ele>9.6</ele>
        <time>2024-09-22T10:00:44Z</time>
      </trkpt>
      <trkpt lat="49.28532" lon="-0.10956">
        <ele>9.6</ele>
        <time>2024-09-22T10:00:45Z</time>
      </trkpt>
      <trkpt lat="49.28533" lon="-0.10964">
        <ele>9.6</ele>
        <time>2024-09-22T10:00:46Z</time>
      </trkpt>
      <trkpt lat="49.28535" lon="-0.10973">
        <ele>9.6</ele>
        <time>2024-09-22T10:00:47Z</time>
      </trkpt>
      <trkpt lat="49.28536" lon="-0.1098">
        <ele>9.6</ele>
        <time>2024-09-22T10:00:48Z</time>
      </trkpt>
      <trkpt lat="49.28538" lon="-0.10988">
        <ele>9.6</ele>
        <time>2024-09-22T10:00:49Z</time>
      </trkpt>
      <trkpt lat="49.28539" lon="-0.10995">
        <ele>9.6</ele>
        <time>2024-09-22T10:00:50Z</time>
      </trkpt>
      <trkpt lat="49.2854" lon="-0.11002">
        <ele>9.6</ele>
        <time>2024-09-22T10:00:51Z</time>
      </trkpt>
      <trkpt lat="49.28541" lon="-0.11009">
        <ele>9.8</ele>
        <time>2024-09-22T10:00:52Z</time>
      </trkpt>
      <trkpt lat="49.28542" lon="-0.11015">
        <ele>9.8</ele>
        <time>2024-09-22T10:00:53Z</time>
      </trkpt>
      <trkpt lat="49.28543" lon="-0.11021">
        <ele>10</ele>
        <time>2024-09-22T10:00:54Z</time>
      </trkpt>
      <trkpt lat="49.28545" lon="-0.11026">
        <ele>10.2</ele>
        <time>2024-09-22T10:00:55Z</time>
      </trkpt>
      <trkpt lat="49.28546" lon="-0.11031">
        <ele>10.2</ele>
        <time>2024-09-22T10:00:56Z</time>
      </trkpt>
      <trkpt lat="49.28547" lon="-0.11036">
        <ele>10.4</ele>
        <time>2024-09-22T10:00:57Z</time>
      </trkpt>
      <trkpt lat="49.28548" lon="-0.11039">
        <ele>10.4</ele>
        <time>2024-09-22T10:00:58Z</time>
      </trkpt>
      <trkpt lat="49.28549" lon="-0.11043">
        <ele>10.4</ele>
        <time>2024-09-22T10:00:59Z</time>
      </trkpt>
      <trkpt lat="49.2855" lon="-0.11046">
        <ele>10.6</ele>
        <time>2024-09-22T10:01:00Z</time>
      </trkpt>
      <trkpt lat="49.28551" lon="-0.1105">
        <ele>10.8</ele>
        <time>2024-09-22T10:01:01Z</time>
      </trkpt>
      <trkpt lat="49.28552" lon="-0.11055">
        <ele>10.8</ele>
        <time>2024-09-22T10:01:02Z</time>
      </trkpt>
      <trkpt lat="49.28554" lon="-0.11061">
        <ele>10.8</ele>
        <time>2024-09-22T10:01:03Z</time>
      </trkpt>
      <trkpt lat="49.28555" lon="-0.11067">
        <ele>11</ele>
        <time>2024-09-22T10:01:04Z</time>
      </trkpt>
      <trkpt lat="49.28557" lon="-0.11073">
        <ele>11</ele>
        <time>2024-09-22T10:01:05Z</time>
      </trkpt>
      <trkpt lat="49.28559" lon="-0.1108">
        <ele>11.2</ele>
        <time>2024-09-22T10:01:06Z</time>
      </trkpt>
      <trkpt lat="49.28561" lon="-0.11089">
        <ele>11.2</ele>
        <time>2024-09-22T10:01:07Z</time>
      </trkpt>
      <trkpt lat="49.28563" lon="-0.11097">
        <ele>11.2</ele>
        <time>2024-09-22T10:01:08Z</time>
      </trkpt>
      <trkpt lat="49.28565" lon="-0.11105">
        <ele>11.2</ele>
        <time>2024-09-22T10:01:09Z</time>
      </trkpt>
      <trkpt lat="49.28567" lon="-0.11112">
        <ele>11.2</ele>
        <time>2024-09-22T10:01:10Z</time>
      </trkpt>
      <trkpt lat="49.28569" lon="-0.1112">
        <ele>11.2</ele>
        <time>2024-09-22T10:01:11Z</time>
      </trkpt>
      <trkpt lat="49.28571" lon="-0.11128">
        <ele>11.2</ele>
        <time>2024-09-22T10:01:12Z</time>
      </trkpt>
      <trkpt lat="49.28574" lon="-0.11135">
        <ele>11.2</ele>
        <time>2024-09-22T10:01:13Z</time>
      </trkpt>
      <trkpt lat="49.28576" lon="-0.11143">
        <ele>11.4</ele>
        <time>2024-09-22T10:01:14Z</time>
      </trkpt>
      <trkpt lat="49.28578" lon="-0.11151">
        <ele>11.4</ele>
        <time>2024-09-22T10:01:15Z</time>
      </trkpt>
      <trkpt lat="49.2858" lon="-0.11159">
        <ele>11.4</ele>
        <time>2024-09-22T10:01:16Z</time>
      </trkpt>
      <trkpt lat="49.28582" lon="-0.11167">
        <ele>11.4</ele>
        <time>2024-09-22T10:01:17Z</time>
      </trkpt>
      <trkpt lat="49.28583" lon="-0.11175">
        <ele>11.4</ele>
        <time>2024-09-22T10:01:18Z</time>
      </trkpt>
      <trkpt lat="49.28585" lon="-0.11183">
        <ele>11.4</ele>
        <time>2024-09-22T10:01:19Z</time>
      </trkpt>
      <trkpt lat="49.28587" lon="-0.11191">
        <ele>11.4</ele>
        <time>2024-09-22T10:01:20Z</time>
      </trkpt>
      <trkpt lat="49.28589" lon="-0.11199">
        <ele>11.4</ele>
        <time>2024-09-22T10:01:21Z</time>
      </trkpt>
      <trkpt lat="49.2859" lon="-0.11206">
        <ele>11.4</ele>
        <time>2024-09-22T10:01:22Z</time>
      </trkpt>
      <trkpt lat="49.28592" lon="-0.11213">
        <ele>11.4</ele>
        <time>2024-09-22T10:01:23Z</time>
      </trkpt>
      <trkpt lat="49.28594" lon="-0.1122">
        <ele>11.4</ele>
        <time>2024-09-22T10:01:24Z</time>
      </trkpt>
      <trkpt lat="49.28596" lon="-0.11226">
        <ele>11.4</ele>
        <time>2024-09-22T10:01:25Z</time>
      </trkpt>
      <trkpt lat="49.286" lon="-0.11232">
        <ele>11.6</ele>
        <time>2024-09-22T10:01:26Z</time>
      </trkpt>
      <trkpt lat="49.28603" lon="-0.1124">
        <ele>11.6</ele>
        <time>2024-09-22T10:01:27Z</time>
      </trkpt>
      <trkpt lat="49.28605" lon="-0.11248">
        <ele>11.6</ele>
        <time>2024-09-22T10:01:28Z</time>
      </trkpt>
      <trkpt lat="49.28606" lon="-0.11256">
        <ele>11.6</ele>
        <time>2024-09-22T10:01:29Z</time>
      </trkpt>
      <trkpt lat="49.28608" lon="-0.11264">
        <ele>11.6</ele>
        <time>2024-09-22T10:01:30Z</time>
      </trkpt>
      <trkpt lat="49.28609" lon="-0.11274">
        <ele>11.6</ele>
        <time>2024-09-22T10:01:31Z</time>
      </trkpt>
      <trkpt lat="49.28612" lon="-0.11283">
        <ele>11.6</ele>
        <time>2024-09-22T10:01:32Z</time>
      </trkpt>
      <trkpt lat="49.28614" lon="-0.11292">
        <ele>11.6</ele>
        <time>2024-09-22T10:01:33Z</time>
      </trkpt>
      <trkpt lat="49.28616" lon="-0.11299">
        <ele>11.4</ele>
        <time>2024-09-22T10:01:34Z</time>
      </trkpt>
      <trkpt lat="49.28619" lon="-0.11308">
        <ele>11.4</ele>
        <time>2024-09-22T10:01:35Z</time>
      </trkpt>
      <trkpt lat="49.28621" lon="-0.11318">
        <ele>11.4</ele>
        <time>2024-09-22T10:01:36Z</time>
      </trkpt>
      <trkpt lat="49.28623" lon="-0.11328">
        <ele>11.2</ele>
        <time>2024-09-22T10:01:37Z</time>
      </trkpt>
      <trkpt lat="49.28626" lon="-0.11337">
        <ele>11</ele>
        <time>2024-09-22T10:01:38Z</time>
      </trkpt>
      <trkpt lat="49.28629" lon="-0.11347">
        <ele>10.8</ele>
        <time>2024-09-22T10:01:39Z</time>
      </trkpt>
      <trkpt lat="49.28632" lon="-0.11357">
        <ele>10.6</ele>
        <time>2024-09-22T10:01:40Z</time>
      </trkpt>
      <trkpt lat="49.28635" lon="-0.11367">
        <ele>10.6</ele>
        <time>2024-09-22T10:01:41Z</time>
      </trkpt>
      <trkpt lat="49.28637" lon="-0.11378">
        <ele>10.4</ele>
        <time>2024-09-22T10:01:42Z</time>
      </trkpt>
      <trkpt lat="49.2864" lon="-0.11388">
        <ele>10.4</ele>
        <time>2024-09-22T10:01:43Z</time>
      </trkpt>
      <trkpt lat="49.28643" lon="-0.11398">
        <ele>10.4</ele>
        <time>2024-09-22T10:01:44Z</time>
      </trkpt>
      <trkpt lat="49.28646" lon="-0.11408">
        <ele>10.2</ele>
        <time>2024-09-22T10:01:45Z</time>
      </trkpt>
      <trkpt lat="49.28649" lon="-0.11418">
        <ele>10.2</ele>
        <time>2024-09-22T10:01:46Z</time>
      </trkpt>
      <trkpt lat="49.28652" lon="-0.11428">
        <ele>10</ele>
        <time>2024-09-22T10:01:47Z</time>
      </trkpt>
      <trkpt lat="49.28655" lon="-0.11439">
        <ele>10</ele>
        <time>2024-09-22T10:01:48Z</time>
      </trkpt>
      <trkpt lat="49.28658" lon="-0.11449">
        <ele>9.8</ele>
        <time>2024-09-22T10:01:49Z</time>
      </trkpt>
      <trkpt lat="49.2866" lon="-0.11459">
        <ele>9.6</ele>
        <time>2024-09-22T10:01:50Z</time>
      </trkpt>
      <trkpt lat="49.28663" lon="-0.11469">
        <ele>9.6</ele>
        <time>2024-09-22T10:01:51Z</time>
      </trkpt>
      <trkpt lat="49.28666" lon="-0.11479">
        <ele>9.4</ele>
        <time>2024-09-22T10:01:52Z</time>
      </trkpt>
      <trkpt lat="49.28669" lon="-0.11488">
        <ele>9.2</ele>
        <time>2024-09-22T10:01:53Z</time>
      </trkpt>
      <trkpt lat="49.28671" lon="-0.11498">
        <ele>9.2</ele>
        <time>2024-09-22T10:01:54Z</time>
      </trkpt>
      <trkpt lat="49.28674" lon="-0.1151">
        <ele>9.2</ele>
        <time>2024-09-22T10:01:55Z</time>
      </trkpt>
      <trkpt lat="49.28676" lon="-0.1152">
        <ele>9.2</ele>
        <time>2024-09-22T10:01:56Z</time>
      </trkpt>
      <trkpt lat="49.28679" lon="-0.1153">
        <ele>9.2</ele>
        <time>2024-09-22T10:01:57Z</time>
      </trkpt>
      <trkpt lat="49.2868" lon="-0.11539">
        <ele>9.2</ele>
        <time>2024-09-22T10:01:58Z</time>
      </trkpt>
      <trkpt lat="49.28682" lon="-0.11549">
        <ele>9.2</ele>
        <time>2024-09-22T10:01:59Z</time>
      </trkpt>
      <trkpt lat="49.28683" lon="-0.11558">
        <ele>9.2</ele>
        <time>2024-09-22T10:02:00Z</time>
      </trkpt>
      <trkpt lat="49.28683" lon="-0.11568">
        <ele>9.2</ele>
        <time>2024-09-22T10:02:01Z</time>
      </trkpt>
      <trkpt lat="49.28684" lon="-0.11578">
        <ele>9.2</ele>
        <time>2024-09-22T10:02:02Z</time>
      </trkpt>
      <trkpt lat="49.28685" lon="-0.11588">
        <ele>9.2</ele>
        <time>2024-09-22T10:02:03Z</time>
      </trkpt>
      <trkpt lat="49.28686" lon="-0.11598">
        <ele>9.2</ele>
        <time>2024-09-22T10:02:04Z</time>
      </trkpt>
      <trkpt lat="49.28686" lon="-0.11608">
        <ele>9.4</ele>
        <time>2024-09-22T10:02:05Z</time>
      </trkpt>
      <trkpt lat="49.28687" lon="-0.11618">
        <ele>9.4</ele>
        <time>2024-09-22T10:02:06Z</time>
      </trkpt>
      <trkpt lat="49.28687" lon="-0.11626">
        <ele>9.6</ele>
        <time>2024-09-22T10:02:07Z</time>
      </trkpt>
      <trkpt lat="49.28688" lon="-0.11635">
        <ele>9.6</ele>
        <time>2024-09-22T10:02:08Z</time>
      </trkpt>
      <trkpt lat="49.28688" lon="-0.11645">
        <ele>9.8</ele>
        <time>2024-09-22T10:02:09Z</time>
      </trkpt>
      <trkpt lat="49.28689" lon="-0.11653">
        <ele>9.8</ele>
        <time>2024-09-22T10:02:10Z</time>
      </trkpt>
      <trkpt lat="49.28689" lon="-0.11659">
        <ele>9.8</ele>
        <time>2024-09-22T10:02:11Z</time>
      </trkpt>
      <trkpt lat="49.28689" lon="-0.11666">
        <ele>9.8</ele>
        <time>2024-09-22T10:02:12Z</time>
      </trkpt>
      <trkpt lat="49.28689" lon="-0.11673">
        <ele>9.8</ele>
        <time>2024-09-22T10:02:13Z</time>
      </trkpt>
      <trkpt lat="49.28688" lon="-0.1168">
        <ele>9.8</ele>
        <time>2024-09-22T10:02:14Z</time>
      </trkpt>
      <trkpt lat="49.28688" lon="-0.11688">
        <ele>9.8</ele>
        <time>2024-09-22T10:02:15Z</time>
      </trkpt>
      <trkpt lat="49.28688" lon="-0.11696">
        <ele>10</ele>
        <time>2024-09-22T10:02:16Z</time>
      </trkpt>
      <trkpt lat="49.28687" lon="-0.11704">
        <ele>10</ele>
        <time>2024-09-22T10:02:17Z</time>
      </trkpt>
      <trkpt lat="49.28687" lon="-0.11712">
        <ele>10</ele>
        <time>2024-09-22T10:02:18Z</time>
      </trkpt>
      <trkpt lat="49.28687" lon="-0.11721">
        <ele>10</ele>
        <time>2024-09-22T10:02:19Z</time>
      </trkpt>
      <trkpt lat="49.28686" lon="-0.11729">
        <ele>10</ele>
        <time>2024-09-22T10:02:20Z</time>
      </trkpt>
      <trkpt lat="49.28686" lon="-0.11738">
        <ele>10</ele>
        <time>2024-09-22T10:02:21Z</time>
      </trkpt>
      <trkpt lat="49.28686" lon="-0.11747">
        <ele>10</ele>
        <time>2024-09-22T10:02:22Z</time>
      </trkpt>
      <trkpt lat="49.28686" lon="-0.11756">
        <ele>10</ele>
        <time>2024-09-22T10:02:23Z</time>
      </trkpt>
      <trkpt lat="49.28685" lon="-0.11765">
        <ele>10</ele>
        <time>2024-09-22T10:02:24Z</time>
      </trkpt>
      <trkpt lat="49.28685" lon="-0.11773">
        <ele>10</ele>
        <time>2024-09-22T10:02:25Z</time>
      </trkpt>
      <trkpt lat="49.28684" lon="-0.11781">
        <ele>10</ele>
        <time>2024-09-22T10:02:26Z</time>
      </trkpt>
      <trkpt lat="49.28684" lon="-0.11788">
        <ele>10</ele>
        <time>2024-09-22T10:02:27Z</time>
      </trkpt>
      <trkpt lat="49.28684" lon="-0.11793">
        <ele>10</ele>
        <time>2024-09-22T10:02:28Z</time>
      </trkpt>
      <trkpt lat="49.28684" lon="-0.11801">
        <ele>10</ele>
        <time>2024-09-22T10:02:29Z</time>
      </trkpt>
      <trkpt lat="49.28684" lon="-0.11808">
        <ele>10</ele>
        <time>2024-09-22T10:02:30Z</time>
      </trkpt>
      <trkpt lat="49.28683" lon="-0.11814">
        <ele>10</ele>
        <time>2024-09-22T10:02:31Z</time>
      </trkpt>
      <trkpt lat="49.28682" lon="-0.11823">
        <ele>10</ele>
        <time>2024-09-22T10:02:32Z</time>
      </trkpt>
      <trkpt lat="49.28681" lon="-0.11831">
        <ele>10</ele>
        <time>2024-09-22T10:02:33Z</time>
      </trkpt>
      <trkpt lat="49.28679" lon="-0.11839">
        <ele>10</ele>
        <time>2024-09-22T10:02:34Z</time>
      </trkpt>
      <trkpt lat="49.28677" lon="-0.11847">
        <ele>10</ele>
        <time>2024-09-22T10:02:35Z</time>
      </trkpt>
      <trkpt lat="49.28675" lon="-0.11855">
        <ele>10</ele>
        <time>2024-09-22T10:02:36Z</time>
      </trkpt>
      <trkpt lat="49.28673" lon="-0.11864">
        <ele>10</ele>
        <time>2024-09-22T10:02:37Z</time>
      </trkpt>
      <trkpt lat="49.2867" lon="-0.11871">
        <ele>10</ele>
        <time>2024-09-22T10:02:38Z</time>
      </trkpt>
      <trkpt lat="49.28665" lon="-0.11877">
        <ele>10</ele>
        <time>2024-09-22T10:02:39Z</time>
      </trkpt>
      <trkpt lat="49.2866" lon="-0.11881">
        <ele>10</ele>
        <time>2024-09-22T10:02:40Z</time>
      </trkpt>
      <trkpt lat="49.28654" lon="-0.11884">
        <ele>9.8</ele>
        <time>2024-09-22T10:02:41Z</time>
      </trkpt>
      <trkpt lat="49.2865" lon="-0.11887">
        <ele>9.8</ele>
        <time>2024-09-22T10:02:42Z</time>
      </trkpt>
      <trkpt lat="49.28646" lon="-0.11891">
        <ele>9.8</ele>
        <time>2024-09-22T10:02:43Z</time>
      </trkpt>
      <trkpt lat="49.28643" lon="-0.11896">
        <ele>9.8</ele>
        <time>2024-09-22T10:02:44Z</time>
      </trkpt>
      <trkpt lat="49.28641" lon="-0.119">
        <ele>9.8</ele>
        <time>2024-09-22T10:02:45Z</time>
      </trkpt>
      <trkpt lat="49.2864" lon="-0.11905">
        <ele>9.8</ele>
        <time>2024-09-22T10:02:46Z</time>
      </trkpt>
      <trkpt lat="49.2864" lon="-0.11909">
        <ele>9.8</ele>
        <time>2024-09-22T10:02:47Z</time>
      </trkpt>
      <trkpt lat="49.2864" lon="-0.11913">
        <ele>10</ele>
        <time>2024-09-22T10:02:48Z</time>
      </trkpt>
      <trkpt lat="49.28641" lon="-0.11918">
        <ele>10</ele>
        <time>2024-09-22T10:02:49Z</time>
      </trkpt>
      <trkpt lat="49.28642" lon="-0.11921">
        <ele>10</ele>
        <time>2024-09-22T10:02:50Z</time>
      </trkpt>
      <trkpt lat="49.28642" lon="-0.11923">
        <ele>10</ele>
        <time>2024-09-22T10:02:51Z</time>
      </trkpt>
      <trkpt lat="49.28642" lon="-0.11923">
        <ele>10</ele>
        <time>2024-09-22T10:02:52Z</time>
      </trkpt>
      <trkpt lat="49.28642" lon="-0.11923">
        <ele>10</ele>
        <time>2024-09-22T10:02:53Z</time>
      </trkpt>
    </trkseg>
  </trk>
</gpx>